<?xml version="1.0" encoding="UTF-8" standalone="no" ?>
<gpx xmlns="http://www.topografix.com/GPX/1/1" xmlns:xsi="http://www.w3.org/2001/XMLSchema-instance" xsi:schemaLocation="http://www.topografix.com/GPX/1/1 http://www.topografix.com/GPX/1/1/gpx.xsd" version="1.1" creator="VisuGPX - https://www.visugpx.com">
  <metadata>
    <name>Limoges Cyclisme</name>
  </metadata>
  <trk>
    <name><![CDATA[Limoges Cyclisme_1]]></name>
    <trkseg>
      <trkpt lat="45.88977" lon="1.29163">
        <ele>322.4</ele>
        <time>2023-05-02T06:25:44Z</time>
      </trkpt>
      <trkpt lat="45.88978" lon="1.29163">
        <ele>322.4</ele>
        <time>2023-05-02T06:25:45Z</time>
      </trkpt>
      <trkpt lat="45.88978" lon="1.29158">
        <ele>322</ele>
        <time>2023-05-02T06:25:54Z</time>
      </trkpt>
      <trkpt lat="45.88977" lon="1.29153">
        <ele>322.4</ele>
        <time>2023-05-02T06:25:56Z</time>
      </trkpt>
      <trkpt lat="45.88978" lon="1.29133">
        <ele>321.8</ele>
        <time>2023-05-02T06:26:02Z</time>
      </trkpt>
      <trkpt lat="45.88979" lon="1.29105">
        <ele>321.6</ele>
        <time>2023-05-02T06:26:09Z</time>
      </trkpt>
      <trkpt lat="45.88979" lon="1.29097">
        <ele>321.8</ele>
        <time>2023-05-02T06:26:13Z</time>
      </trkpt>
      <trkpt lat="45.88983" lon="1.29085">
        <ele>321.8</ele>
        <time>2023-05-02T06:26:18Z</time>
      </trkpt>
      <trkpt lat="45.88984" lon="1.29066">
        <ele>321.6</ele>
        <time>2023-05-02T06:26:25Z</time>
      </trkpt>
      <trkpt lat="45.88984" lon="1.29064">
        <ele>321.6</ele>
        <time>2023-05-02T06:26:26Z</time>
      </trkpt>
      <trkpt lat="45.8898" lon="1.29057">
        <ele>321.4</ele>
        <time>2023-05-02T06:26:29Z</time>
      </trkpt>
      <trkpt lat="45.88974" lon="1.29043">
        <ele>321.4</ele>
        <time>2023-05-02T06:26:34Z</time>
      </trkpt>
      <trkpt lat="45.88973" lon="1.2901">
        <ele>320.8</ele>
        <time>2023-05-02T06:26:39Z</time>
      </trkpt>
      <trkpt lat="45.88975" lon="1.28974">
        <ele>320.4</ele>
        <time>2023-05-02T06:26:44Z</time>
      </trkpt>
      <trkpt lat="45.88979" lon="1.28928">
        <ele>319.8</ele>
        <time>2023-05-02T06:26:50Z</time>
      </trkpt>
      <trkpt lat="45.88981" lon="1.28874">
        <ele>319.2</ele>
        <time>2023-05-02T06:26:56Z</time>
      </trkpt>
      <trkpt lat="45.88981" lon="1.28824">
        <ele>318.8</ele>
        <time>2023-05-02T06:27:01Z</time>
      </trkpt>
      <trkpt lat="45.88979" lon="1.28804">
        <ele>318.6</ele>
        <time>2023-05-02T06:27:03Z</time>
      </trkpt>
      <trkpt lat="45.88972" lon="1.28766">
        <ele>318</ele>
        <time>2023-05-02T06:27:07Z</time>
      </trkpt>
      <trkpt lat="45.88966" lon="1.28748">
        <ele>317.8</ele>
        <time>2023-05-02T06:27:09Z</time>
      </trkpt>
      <trkpt lat="45.88946" lon="1.28702">
        <ele>317.4</ele>
        <time>2023-05-02T06:27:15Z</time>
      </trkpt>
      <trkpt lat="45.88916" lon="1.28636">
        <ele>317.4</ele>
        <time>2023-05-02T06:27:24Z</time>
      </trkpt>
      <trkpt lat="45.88913" lon="1.2863">
        <ele>317.4</ele>
        <time>2023-05-02T06:27:25Z</time>
      </trkpt>
      <trkpt lat="45.88896" lon="1.28589">
        <ele>317.2</ele>
        <time>2023-05-02T06:27:31Z</time>
      </trkpt>
      <trkpt lat="45.88888" lon="1.28561">
        <ele>317</ele>
        <time>2023-05-02T06:27:35Z</time>
      </trkpt>
      <trkpt lat="45.88885" lon="1.28546">
        <ele>316.8</ele>
        <time>2023-05-02T06:27:37Z</time>
      </trkpt>
      <trkpt lat="45.88883" lon="1.28539">
        <ele>316.8</ele>
        <time>2023-05-02T06:27:38Z</time>
      </trkpt>
      <trkpt lat="45.88879" lon="1.2851">
        <ele>316.6</ele>
        <time>2023-05-02T06:27:42Z</time>
      </trkpt>
      <trkpt lat="45.88878" lon="1.28503">
        <ele>316.6</ele>
        <time>2023-05-02T06:27:43Z</time>
      </trkpt>
      <trkpt lat="45.88877" lon="1.28483">
        <ele>316.6</ele>
        <time>2023-05-02T06:27:46Z</time>
      </trkpt>
      <trkpt lat="45.88878" lon="1.28476">
        <ele>316.6</ele>
        <time>2023-05-02T06:27:47Z</time>
      </trkpt>
      <trkpt lat="45.88878" lon="1.2847">
        <ele>316.6</ele>
        <time>2023-05-02T06:27:48Z</time>
      </trkpt>
      <trkpt lat="45.88879" lon="1.28452">
        <ele>316.6</ele>
        <time>2023-05-02T06:27:51Z</time>
      </trkpt>
      <trkpt lat="45.88884" lon="1.28405">
        <ele>316.4</ele>
        <time>2023-05-02T06:27:58Z</time>
      </trkpt>
      <trkpt lat="45.88892" lon="1.28359">
        <ele>317</ele>
        <time>2023-05-02T06:28:05Z</time>
      </trkpt>
      <trkpt lat="45.88901" lon="1.28307">
        <ele>317.4</ele>
        <time>2023-05-02T06:28:13Z</time>
      </trkpt>
      <trkpt lat="45.88911" lon="1.28266">
        <ele>317.6</ele>
        <time>2023-05-02T06:28:20Z</time>
      </trkpt>
      <trkpt lat="45.88923" lon="1.28203">
        <ele>318.6</ele>
        <time>2023-05-02T06:28:30Z</time>
      </trkpt>
      <trkpt lat="45.88929" lon="1.28152">
        <ele>319.2</ele>
        <time>2023-05-02T06:28:38Z</time>
      </trkpt>
      <trkpt lat="45.88931" lon="1.28147">
        <ele>319.2</ele>
        <time>2023-05-02T06:28:39Z</time>
      </trkpt>
      <trkpt lat="45.88941" lon="1.28135">
        <ele>319.4</ele>
        <time>2023-05-02T06:28:42Z</time>
      </trkpt>
      <trkpt lat="45.88944" lon="1.28131">
        <ele>319.6</ele>
        <time>2023-05-02T06:28:43Z</time>
      </trkpt>
      <trkpt lat="45.8895" lon="1.2812">
        <ele>319.8</ele>
        <time>2023-05-02T06:28:45Z</time>
      </trkpt>
      <trkpt lat="45.88952" lon="1.28114">
        <ele>319.8</ele>
        <time>2023-05-02T06:28:46Z</time>
      </trkpt>
      <trkpt lat="45.88953" lon="1.28107">
        <ele>319.8</ele>
        <time>2023-05-02T06:28:47Z</time>
      </trkpt>
      <trkpt lat="45.88952" lon="1.28094">
        <ele>320</ele>
        <time>2023-05-02T06:28:49Z</time>
      </trkpt>
      <trkpt lat="45.8895" lon="1.28087">
        <ele>320</ele>
        <time>2023-05-02T06:28:50Z</time>
      </trkpt>
      <trkpt lat="45.88949" lon="1.28074">
        <ele>320.2</ele>
        <time>2023-05-02T06:28:52Z</time>
      </trkpt>
      <trkpt lat="45.8895" lon="1.28062">
        <ele>320.4</ele>
        <time>2023-05-02T06:28:54Z</time>
      </trkpt>
      <trkpt lat="45.88952" lon="1.28056">
        <ele>320.4</ele>
        <time>2023-05-02T06:28:55Z</time>
      </trkpt>
      <trkpt lat="45.88957" lon="1.28046">
        <ele>320.8</ele>
        <time>2023-05-02T06:28:57Z</time>
      </trkpt>
      <trkpt lat="45.88959" lon="1.28041">
        <ele>320.8</ele>
        <time>2023-05-02T06:28:58Z</time>
      </trkpt>
      <trkpt lat="45.88965" lon="1.28032">
        <ele>321</ele>
        <time>2023-05-02T06:29:00Z</time>
      </trkpt>
      <trkpt lat="45.88975" lon="1.28022">
        <ele>321.4</ele>
        <time>2023-05-02T06:29:03Z</time>
      </trkpt>
      <trkpt lat="45.89008" lon="1.27999">
        <ele>322.2</ele>
        <time>2023-05-02T06:29:12Z</time>
      </trkpt>
      <trkpt lat="45.89033" lon="1.2798">
        <ele>323</ele>
        <time>2023-05-02T06:29:19Z</time>
      </trkpt>
      <trkpt lat="45.89048" lon="1.27955">
        <ele>323.8</ele>
        <time>2023-05-02T06:29:25Z</time>
      </trkpt>
      <trkpt lat="45.89058" lon="1.27918">
        <ele>324.6</ele>
        <time>2023-05-02T06:29:32Z</time>
      </trkpt>
      <trkpt lat="45.8906" lon="1.27879">
        <ele>325.6</ele>
        <time>2023-05-02T06:29:39Z</time>
      </trkpt>
      <trkpt lat="45.89057" lon="1.27827">
        <ele>326.6</ele>
        <time>2023-05-02T06:29:48Z</time>
      </trkpt>
      <trkpt lat="45.89054" lon="1.27789">
        <ele>327.6</ele>
        <time>2023-05-02T06:29:55Z</time>
      </trkpt>
      <trkpt lat="45.89049" lon="1.27735">
        <ele>328.6</ele>
        <time>2023-05-02T06:30:05Z</time>
      </trkpt>
      <trkpt lat="45.89046" lon="1.27686">
        <ele>329.6</ele>
        <time>2023-05-02T06:30:14Z</time>
      </trkpt>
      <trkpt lat="45.89043" lon="1.27645">
        <ele>330.8</ele>
        <time>2023-05-02T06:30:22Z</time>
      </trkpt>
      <trkpt lat="45.89039" lon="1.27604">
        <ele>332</ele>
        <time>2023-05-02T06:30:30Z</time>
      </trkpt>
      <trkpt lat="45.89035" lon="1.27563">
        <ele>333.4</ele>
        <time>2023-05-02T06:30:38Z</time>
      </trkpt>
      <trkpt lat="45.89032" lon="1.27524">
        <ele>334.6</ele>
        <time>2023-05-02T06:30:46Z</time>
      </trkpt>
      <trkpt lat="45.89029" lon="1.27488">
        <ele>335.8</ele>
        <time>2023-05-02T06:30:53Z</time>
      </trkpt>
      <trkpt lat="45.89025" lon="1.27443">
        <ele>337</ele>
        <time>2023-05-02T06:31:02Z</time>
      </trkpt>
      <trkpt lat="45.89022" lon="1.27412">
        <ele>338</ele>
        <time>2023-05-02T06:31:08Z</time>
      </trkpt>
      <trkpt lat="45.89021" lon="1.27395">
        <ele>338.4</ele>
        <time>2023-05-02T06:31:11Z</time>
      </trkpt>
      <trkpt lat="45.8902" lon="1.27383">
        <ele>338.8</ele>
        <time>2023-05-02T06:31:13Z</time>
      </trkpt>
      <trkpt lat="45.89019" lon="1.27371">
        <ele>339</ele>
        <time>2023-05-02T06:31:15Z</time>
      </trkpt>
      <trkpt lat="45.89015" lon="1.27332">
        <ele>340.2</ele>
        <time>2023-05-02T06:31:21Z</time>
      </trkpt>
      <trkpt lat="45.89011" lon="1.27295">
        <ele>341</ele>
        <time>2023-05-02T06:31:26Z</time>
      </trkpt>
      <trkpt lat="45.8901" lon="1.27288">
        <ele>341.2</ele>
        <time>2023-05-02T06:31:27Z</time>
      </trkpt>
      <trkpt lat="45.89004" lon="1.27221">
        <ele>342.4</ele>
        <time>2023-05-02T06:31:35Z</time>
      </trkpt>
      <trkpt lat="45.89003" lon="1.27212">
        <ele>342.6</ele>
        <time>2023-05-02T06:31:36Z</time>
      </trkpt>
      <trkpt lat="45.89" lon="1.27195">
        <ele>343</ele>
        <time>2023-05-02T06:31:38Z</time>
      </trkpt>
      <trkpt lat="45.88998" lon="1.27187">
        <ele>343.2</ele>
        <time>2023-05-02T06:31:39Z</time>
      </trkpt>
      <trkpt lat="45.88995" lon="1.2718">
        <ele>343.4</ele>
        <time>2023-05-02T06:31:40Z</time>
      </trkpt>
      <trkpt lat="45.88987" lon="1.27166">
        <ele>343.4</ele>
        <time>2023-05-02T06:31:42Z</time>
      </trkpt>
      <trkpt lat="45.88983" lon="1.2716">
        <ele>343.6</ele>
        <time>2023-05-02T06:31:43Z</time>
      </trkpt>
      <trkpt lat="45.88977" lon="1.27156">
        <ele>343.6</ele>
        <time>2023-05-02T06:31:44Z</time>
      </trkpt>
      <trkpt lat="45.88965" lon="1.27149">
        <ele>343.8</ele>
        <time>2023-05-02T06:31:46Z</time>
      </trkpt>
      <trkpt lat="45.88959" lon="1.27148">
        <ele>343.8</ele>
        <time>2023-05-02T06:31:47Z</time>
      </trkpt>
      <trkpt lat="45.88948" lon="1.27144">
        <ele>343.8</ele>
        <time>2023-05-02T06:31:49Z</time>
      </trkpt>
      <trkpt lat="45.88942" lon="1.27136">
        <ele>344</ele>
        <time>2023-05-02T06:31:51Z</time>
      </trkpt>
      <trkpt lat="45.88943" lon="1.27126">
        <ele>344</ele>
        <time>2023-05-02T06:31:53Z</time>
      </trkpt>
      <trkpt lat="45.88945" lon="1.27122">
        <ele>344.2</ele>
        <time>2023-05-02T06:31:54Z</time>
      </trkpt>
      <trkpt lat="45.88953" lon="1.27105">
        <ele>344.4</ele>
        <time>2023-05-02T06:31:59Z</time>
      </trkpt>
      <trkpt lat="45.88958" lon="1.27086">
        <ele>344.6</ele>
        <time>2023-05-02T06:32:04Z</time>
      </trkpt>
      <trkpt lat="45.8896" lon="1.27062">
        <ele>345</ele>
        <time>2023-05-02T06:32:11Z</time>
      </trkpt>
      <trkpt lat="45.88961" lon="1.27045">
        <ele>345.2</ele>
        <time>2023-05-02T06:32:16Z</time>
      </trkpt>
      <trkpt lat="45.88963" lon="1.27028">
        <ele>345.6</ele>
        <time>2023-05-02T06:32:21Z</time>
      </trkpt>
      <trkpt lat="45.88964" lon="1.27025">
        <ele>345.6</ele>
        <time>2023-05-02T06:32:22Z</time>
      </trkpt>
      <trkpt lat="45.88967" lon="1.27019">
        <ele>345.8</ele>
        <time>2023-05-02T06:32:24Z</time>
      </trkpt>
      <trkpt lat="45.88972" lon="1.27016">
        <ele>345.8</ele>
        <time>2023-05-02T06:32:26Z</time>
      </trkpt>
      <trkpt lat="45.88994" lon="1.27014">
        <ele>346.2</ele>
        <time>2023-05-02T06:32:33Z</time>
      </trkpt>
      <trkpt lat="45.89022" lon="1.27013">
        <ele>346.8</ele>
        <time>2023-05-02T06:32:42Z</time>
      </trkpt>
      <trkpt lat="45.89052" lon="1.27013">
        <ele>347.4</ele>
        <time>2023-05-02T06:32:50Z</time>
      </trkpt>
      <trkpt lat="45.89078" lon="1.27012">
        <ele>347.8</ele>
        <time>2023-05-02T06:32:57Z</time>
      </trkpt>
      <trkpt lat="45.89084" lon="1.27008">
        <ele>347.8</ele>
        <time>2023-05-02T06:32:59Z</time>
      </trkpt>
      <trkpt lat="45.89086" lon="1.27004">
        <ele>347.8</ele>
        <time>2023-05-02T06:33:00Z</time>
      </trkpt>
      <trkpt lat="45.89086" lon="1.27">
        <ele>348</ele>
        <time>2023-05-02T06:33:01Z</time>
      </trkpt>
      <trkpt lat="45.89081" lon="1.26992">
        <ele>347.6</ele>
        <time>2023-05-02T06:33:03Z</time>
      </trkpt>
      <trkpt lat="45.89075" lon="1.26984">
        <ele>347.6</ele>
        <time>2023-05-02T06:33:05Z</time>
      </trkpt>
      <trkpt lat="45.89067" lon="1.26982">
        <ele>347.6</ele>
        <time>2023-05-02T06:33:07Z</time>
      </trkpt>
      <trkpt lat="45.89059" lon="1.26979">
        <ele>347.6</ele>
        <time>2023-05-02T06:33:09Z</time>
      </trkpt>
      <trkpt lat="45.8905" lon="1.26973">
        <ele>347.8</ele>
        <time>2023-05-02T06:33:11Z</time>
      </trkpt>
      <trkpt lat="45.89045" lon="1.26962">
        <ele>347.2</ele>
        <time>2023-05-02T06:33:13Z</time>
      </trkpt>
      <trkpt lat="45.89042" lon="1.26949">
        <ele>347.2</ele>
        <time>2023-05-02T06:33:15Z</time>
      </trkpt>
      <trkpt lat="45.89041" lon="1.26912">
        <ele>347</ele>
        <time>2023-05-02T06:33:21Z</time>
      </trkpt>
      <trkpt lat="45.89042" lon="1.26873">
        <ele>346.8</ele>
        <time>2023-05-02T06:33:27Z</time>
      </trkpt>
      <trkpt lat="45.89044" lon="1.26862">
        <ele>346.6</ele>
        <time>2023-05-02T06:33:30Z</time>
      </trkpt>
      <trkpt lat="45.89044" lon="1.26859">
        <ele>346.6</ele>
        <time>2023-05-02T06:33:31Z</time>
      </trkpt>
      <trkpt lat="45.89045" lon="1.26856">
        <ele>346.6</ele>
        <time>2023-05-02T06:33:32Z</time>
      </trkpt>
      <trkpt lat="45.89044" lon="1.26844">
        <ele>346.8</ele>
        <time>2023-05-02T06:33:35Z</time>
      </trkpt>
      <trkpt lat="45.89045" lon="1.26831">
        <ele>346.8</ele>
        <time>2023-05-02T06:33:38Z</time>
      </trkpt>
      <trkpt lat="45.89046" lon="1.26826">
        <ele>346.4</ele>
        <time>2023-05-02T06:33:39Z</time>
      </trkpt>
      <trkpt lat="45.89048" lon="1.26799">
        <ele>347.2</ele>
        <time>2023-05-02T06:33:44Z</time>
      </trkpt>
      <trkpt lat="45.89051" lon="1.26779">
        <ele>347.4</ele>
        <time>2023-05-02T06:33:48Z</time>
      </trkpt>
      <trkpt lat="45.89058" lon="1.26742">
        <ele>347.8</ele>
        <time>2023-05-02T06:33:55Z</time>
      </trkpt>
      <trkpt lat="45.89061" lon="1.26708">
        <ele>348.2</ele>
        <time>2023-05-02T06:34:02Z</time>
      </trkpt>
      <trkpt lat="45.89062" lon="1.26688">
        <ele>348.4</ele>
        <time>2023-05-02T06:34:07Z</time>
      </trkpt>
      <trkpt lat="45.89067" lon="1.26662">
        <ele>348.6</ele>
        <time>2023-05-02T06:34:13Z</time>
      </trkpt>
      <trkpt lat="45.89077" lon="1.26652">
        <ele>348.8</ele>
        <time>2023-05-02T06:34:17Z</time>
      </trkpt>
      <trkpt lat="45.891" lon="1.26635">
        <ele>348.8</ele>
        <time>2023-05-02T06:34:25Z</time>
      </trkpt>
      <trkpt lat="45.89118" lon="1.26623">
        <ele>348.8</ele>
        <time>2023-05-02T06:34:31Z</time>
      </trkpt>
      <trkpt lat="45.89135" lon="1.26611">
        <ele>349.2</ele>
        <time>2023-05-02T06:34:37Z</time>
      </trkpt>
      <trkpt lat="45.8915" lon="1.26601">
        <ele>349.4</ele>
        <time>2023-05-02T06:34:43Z</time>
      </trkpt>
      <trkpt lat="45.89162" lon="1.26592">
        <ele>349.6</ele>
        <time>2023-05-02T06:34:48Z</time>
      </trkpt>
      <trkpt lat="45.8917" lon="1.26585">
        <ele>350</ele>
        <time>2023-05-02T06:34:52Z</time>
      </trkpt>
      <trkpt lat="45.89177" lon="1.26581">
        <ele>350.2</ele>
        <time>2023-05-02T06:34:55Z</time>
      </trkpt>
      <trkpt lat="45.8918" lon="1.26577">
        <ele>350.4</ele>
        <time>2023-05-02T06:34:57Z</time>
      </trkpt>
      <trkpt lat="45.89184" lon="1.26574">
        <ele>350.4</ele>
        <time>2023-05-02T06:34:59Z</time>
      </trkpt>
      <trkpt lat="45.89187" lon="1.26571">
        <ele>350.6</ele>
        <time>2023-05-02T06:35:01Z</time>
      </trkpt>
      <trkpt lat="45.892" lon="1.26561">
        <ele>351.2</ele>
        <time>2023-05-02T06:35:07Z</time>
      </trkpt>
      <trkpt lat="45.89209" lon="1.26554">
        <ele>351.6</ele>
        <time>2023-05-02T06:35:12Z</time>
      </trkpt>
      <trkpt lat="45.89223" lon="1.26545">
        <ele>352.2</ele>
        <time>2023-05-02T06:35:18Z</time>
      </trkpt>
      <trkpt lat="45.8924" lon="1.26533">
        <ele>352.8</ele>
        <time>2023-05-02T06:35:25Z</time>
      </trkpt>
      <trkpt lat="45.89253" lon="1.26525">
        <ele>353.2</ele>
        <time>2023-05-02T06:35:30Z</time>
      </trkpt>
      <trkpt lat="45.89265" lon="1.26516">
        <ele>353.4</ele>
        <time>2023-05-02T06:35:35Z</time>
      </trkpt>
      <trkpt lat="45.89281" lon="1.26503">
        <ele>354</ele>
        <time>2023-05-02T06:35:42Z</time>
      </trkpt>
      <trkpt lat="45.89299" lon="1.26489">
        <ele>354.6</ele>
        <time>2023-05-02T06:35:50Z</time>
      </trkpt>
      <trkpt lat="45.89312" lon="1.26479">
        <ele>355.4</ele>
        <time>2023-05-02T06:35:56Z</time>
      </trkpt>
      <trkpt lat="45.89327" lon="1.26469">
        <ele>356</ele>
        <time>2023-05-02T06:36:02Z</time>
      </trkpt>
      <trkpt lat="45.89333" lon="1.26464">
        <ele>356.4</ele>
        <time>2023-05-02T06:36:05Z</time>
      </trkpt>
      <trkpt lat="45.89335" lon="1.26463">
        <ele>356.6</ele>
        <time>2023-05-02T06:36:06Z</time>
      </trkpt>
      <trkpt lat="45.89347" lon="1.26452">
        <ele>357.2</ele>
        <time>2023-05-02T06:36:12Z</time>
      </trkpt>
      <trkpt lat="45.89354" lon="1.26446">
        <ele>357.6</ele>
        <time>2023-05-02T06:36:15Z</time>
      </trkpt>
      <trkpt lat="45.89356" lon="1.26444">
        <ele>357.6</ele>
        <time>2023-05-02T06:36:16Z</time>
      </trkpt>
      <trkpt lat="45.89366" lon="1.26431">
        <ele>357.8</ele>
        <time>2023-05-02T06:36:19Z</time>
      </trkpt>
      <trkpt lat="45.89369" lon="1.26427">
        <ele>357.8</ele>
        <time>2023-05-02T06:36:20Z</time>
      </trkpt>
      <trkpt lat="45.89389" lon="1.264">
        <ele>358.4</ele>
        <time>2023-05-02T06:36:26Z</time>
      </trkpt>
      <trkpt lat="45.89399" lon="1.26383">
        <ele>358.4</ele>
        <time>2023-05-02T06:36:30Z</time>
      </trkpt>
      <trkpt lat="45.89403" lon="1.26379">
        <ele>358.6</ele>
        <time>2023-05-02T06:36:31Z</time>
      </trkpt>
      <trkpt lat="45.89409" lon="1.26372">
        <ele>358.8</ele>
        <time>2023-05-02T06:36:33Z</time>
      </trkpt>
      <trkpt lat="45.89416" lon="1.26372">
        <ele>358.8</ele>
        <time>2023-05-02T06:36:35Z</time>
      </trkpt>
      <trkpt lat="45.89445" lon="1.2639">
        <ele>359</ele>
        <time>2023-05-02T06:36:43Z</time>
      </trkpt>
      <trkpt lat="45.89452" lon="1.26392">
        <ele>359</ele>
        <time>2023-05-02T06:36:45Z</time>
      </trkpt>
      <trkpt lat="45.89456" lon="1.2639">
        <ele>359.2</ele>
        <time>2023-05-02T06:36:47Z</time>
      </trkpt>
      <trkpt lat="45.89462" lon="1.26371">
        <ele>359.8</ele>
        <time>2023-05-02T06:36:52Z</time>
      </trkpt>
      <trkpt lat="45.8947" lon="1.26329">
        <ele>360.4</ele>
        <time>2023-05-02T06:37:00Z</time>
      </trkpt>
      <trkpt lat="45.89479" lon="1.2629">
        <ele>360.8</ele>
        <time>2023-05-02T06:37:07Z</time>
      </trkpt>
      <trkpt lat="45.89484" lon="1.2628">
        <ele>360.8</ele>
        <time>2023-05-02T06:37:09Z</time>
      </trkpt>
      <trkpt lat="45.89492" lon="1.26269">
        <ele>361</ele>
        <time>2023-05-02T06:37:12Z</time>
      </trkpt>
      <trkpt lat="45.89501" lon="1.26257">
        <ele>361.4</ele>
        <time>2023-05-02T06:37:16Z</time>
      </trkpt>
      <trkpt lat="45.89502" lon="1.26252">
        <ele>361.4</ele>
        <time>2023-05-02T06:37:17Z</time>
      </trkpt>
      <trkpt lat="45.89498" lon="1.26223">
        <ele>361.4</ele>
        <time>2023-05-02T06:37:23Z</time>
      </trkpt>
      <trkpt lat="45.89496" lon="1.26188">
        <ele>361.4</ele>
        <time>2023-05-02T06:37:30Z</time>
      </trkpt>
      <trkpt lat="45.89492" lon="1.26151">
        <ele>360.6</ele>
        <time>2023-05-02T06:37:37Z</time>
      </trkpt>
      <trkpt lat="45.89489" lon="1.2612">
        <ele>360</ele>
        <time>2023-05-02T06:37:43Z</time>
      </trkpt>
      <trkpt lat="45.89488" lon="1.2609">
        <ele>359.2</ele>
        <time>2023-05-02T06:37:49Z</time>
      </trkpt>
      <trkpt lat="45.89493" lon="1.2606">
        <ele>358.6</ele>
        <time>2023-05-02T06:37:55Z</time>
      </trkpt>
      <trkpt lat="45.89502" lon="1.26033">
        <ele>358.6</ele>
        <time>2023-05-02T06:38:01Z</time>
      </trkpt>
      <trkpt lat="45.89509" lon="1.26015">
        <ele>359</ele>
        <time>2023-05-02T06:38:06Z</time>
      </trkpt>
      <trkpt lat="45.89513" lon="1.25996">
        <ele>358.6</ele>
        <time>2023-05-02T06:38:12Z</time>
      </trkpt>
      <trkpt lat="45.89518" lon="1.25988">
        <ele>358.2</ele>
        <time>2023-05-02T06:38:15Z</time>
      </trkpt>
      <trkpt lat="45.89519" lon="1.25986">
        <ele>358.2</ele>
        <time>2023-05-02T06:38:16Z</time>
      </trkpt>
      <trkpt lat="45.89527" lon="1.25969">
        <ele>358.2</ele>
        <time>2023-05-02T06:38:22Z</time>
      </trkpt>
      <trkpt lat="45.8953" lon="1.25963">
        <ele>358.4</ele>
        <time>2023-05-02T06:38:24Z</time>
      </trkpt>
      <trkpt lat="45.89533" lon="1.2596">
        <ele>358.2</ele>
        <time>2023-05-02T06:38:26Z</time>
      </trkpt>
      <trkpt lat="45.89539" lon="1.25955">
        <ele>357.6</ele>
        <time>2023-05-02T06:38:30Z</time>
      </trkpt>
      <trkpt lat="45.89552" lon="1.25951">
        <ele>357</ele>
        <time>2023-05-02T06:38:35Z</time>
      </trkpt>
      <trkpt lat="45.89566" lon="1.25946">
        <ele>357</ele>
        <time>2023-05-02T06:38:40Z</time>
      </trkpt>
      <trkpt lat="45.89577" lon="1.25941">
        <ele>356.8</ele>
        <time>2023-05-02T06:38:44Z</time>
      </trkpt>
      <trkpt lat="45.8958" lon="1.25937">
        <ele>356.4</ele>
        <time>2023-05-02T06:38:46Z</time>
      </trkpt>
      <trkpt lat="45.89583" lon="1.25936">
        <ele>356.2</ele>
        <time>2023-05-02T06:38:47Z</time>
      </trkpt>
      <trkpt lat="45.89591" lon="1.25918">
        <ele>356.6</ele>
        <time>2023-05-02T06:38:52Z</time>
      </trkpt>
      <trkpt lat="45.89594" lon="1.25916">
        <ele>356.8</ele>
        <time>2023-05-02T06:38:54Z</time>
      </trkpt>
      <trkpt lat="45.89601" lon="1.25916">
        <ele>356.4</ele>
        <time>2023-05-02T06:38:56Z</time>
      </trkpt>
      <trkpt lat="45.89625" lon="1.25905">
        <ele>356.2</ele>
        <time>2023-05-02T06:39:03Z</time>
      </trkpt>
      <trkpt lat="45.89637" lon="1.25904">
        <ele>356.4</ele>
        <time>2023-05-02T06:39:07Z</time>
      </trkpt>
      <trkpt lat="45.8965" lon="1.25901">
        <ele>356.2</ele>
        <time>2023-05-02T06:39:11Z</time>
      </trkpt>
      <trkpt lat="45.89666" lon="1.259">
        <ele>356.8</ele>
        <time>2023-05-02T06:39:15Z</time>
      </trkpt>
      <trkpt lat="45.89693" lon="1.25903">
        <ele>357.2</ele>
        <time>2023-05-02T06:39:21Z</time>
      </trkpt>
      <trkpt lat="45.89701" lon="1.25907">
        <ele>357.2</ele>
        <time>2023-05-02T06:39:23Z</time>
      </trkpt>
      <trkpt lat="45.89717" lon="1.25915">
        <ele>357.4</ele>
        <time>2023-05-02T06:39:27Z</time>
      </trkpt>
      <trkpt lat="45.89733" lon="1.25916">
        <ele>358</ele>
        <time>2023-05-02T06:39:30Z</time>
      </trkpt>
      <trkpt lat="45.89738" lon="1.25917">
        <ele>358</ele>
        <time>2023-05-02T06:39:31Z</time>
      </trkpt>
      <trkpt lat="45.89758" lon="1.25918">
        <ele>358.4</ele>
        <time>2023-05-02T06:39:35Z</time>
      </trkpt>
      <trkpt lat="45.89763" lon="1.25917">
        <ele>358.6</ele>
        <time>2023-05-02T06:39:36Z</time>
      </trkpt>
      <trkpt lat="45.89767" lon="1.25916">
        <ele>358.8</ele>
        <time>2023-05-02T06:39:37Z</time>
      </trkpt>
      <trkpt lat="45.89784" lon="1.25902">
        <ele>360</ele>
        <time>2023-05-02T06:39:41Z</time>
      </trkpt>
      <trkpt lat="45.89795" lon="1.25887">
        <ele>360.8</ele>
        <time>2023-05-02T06:39:45Z</time>
      </trkpt>
      <trkpt lat="45.89803" lon="1.25879">
        <ele>361.2</ele>
        <time>2023-05-02T06:39:47Z</time>
      </trkpt>
      <trkpt lat="45.89835" lon="1.25854">
        <ele>361.8</ele>
        <time>2023-05-02T06:39:54Z</time>
      </trkpt>
      <trkpt lat="45.89866" lon="1.25831">
        <ele>362.6</ele>
        <time>2023-05-02T06:40:01Z</time>
      </trkpt>
      <trkpt lat="45.89893" lon="1.25811">
        <ele>363.2</ele>
        <time>2023-05-02T06:40:07Z</time>
      </trkpt>
      <trkpt lat="45.89901" lon="1.25802">
        <ele>363.6</ele>
        <time>2023-05-02T06:40:09Z</time>
      </trkpt>
      <trkpt lat="45.89907" lon="1.25791">
        <ele>363.8</ele>
        <time>2023-05-02T06:40:11Z</time>
      </trkpt>
      <trkpt lat="45.89914" lon="1.25771">
        <ele>364.2</ele>
        <time>2023-05-02T06:40:14Z</time>
      </trkpt>
      <trkpt lat="45.89918" lon="1.25757">
        <ele>364.4</ele>
        <time>2023-05-02T06:40:16Z</time>
      </trkpt>
      <trkpt lat="45.89918" lon="1.25741">
        <ele>364.6</ele>
        <time>2023-05-02T06:40:18Z</time>
      </trkpt>
      <trkpt lat="45.89915" lon="1.25727">
        <ele>364.8</ele>
        <time>2023-05-02T06:40:20Z</time>
      </trkpt>
      <trkpt lat="45.8991" lon="1.25716">
        <ele>365</ele>
        <time>2023-05-02T06:40:22Z</time>
      </trkpt>
      <trkpt lat="45.89904" lon="1.25706">
        <ele>365.4</ele>
        <time>2023-05-02T06:40:25Z</time>
      </trkpt>
      <trkpt lat="45.89904" lon="1.25705">
        <ele>365.6</ele>
        <time>2023-05-02T06:40:26Z</time>
      </trkpt>
      <trkpt lat="45.89905" lon="1.25708">
        <ele>366</ele>
        <time>2023-05-02T06:40:28Z</time>
      </trkpt>
      <trkpt lat="45.89906" lon="1.25712">
        <ele>366</ele>
        <time>2023-05-02T06:40:29Z</time>
      </trkpt>
      <trkpt lat="45.89914" lon="1.25736">
        <ele>366.4</ele>
        <time>2023-05-02T06:40:33Z</time>
      </trkpt>
      <trkpt lat="45.89917" lon="1.25738">
        <ele>366.4</ele>
        <time>2023-05-02T06:40:34Z</time>
      </trkpt>
      <trkpt lat="45.89922" lon="1.25738">
        <ele>366.4</ele>
        <time>2023-05-02T06:40:36Z</time>
      </trkpt>
      <trkpt lat="45.89925" lon="1.25736">
        <ele>366.4</ele>
        <time>2023-05-02T06:40:37Z</time>
      </trkpt>
      <trkpt lat="45.89933" lon="1.25727">
        <ele>366.6</ele>
        <time>2023-05-02T06:40:40Z</time>
      </trkpt>
      <trkpt lat="45.89943" lon="1.25718">
        <ele>366.6</ele>
        <time>2023-05-02T06:40:44Z</time>
      </trkpt>
      <trkpt lat="45.89949" lon="1.25711">
        <ele>366.6</ele>
        <time>2023-05-02T06:40:47Z</time>
      </trkpt>
      <trkpt lat="45.89952" lon="1.25706">
        <ele>366.4</ele>
        <time>2023-05-02T06:40:49Z</time>
      </trkpt>
      <trkpt lat="45.89957" lon="1.257">
        <ele>366</ele>
        <time>2023-05-02T06:40:53Z</time>
      </trkpt>
      <trkpt lat="45.8996" lon="1.25699">
        <ele>365.8</ele>
        <time>2023-05-02T06:40:55Z</time>
      </trkpt>
      <trkpt lat="45.8997" lon="1.257">
        <ele>365.4</ele>
        <time>2023-05-02T06:40:58Z</time>
      </trkpt>
      <trkpt lat="45.89981" lon="1.25704">
        <ele>365</ele>
        <time>2023-05-02T06:41:01Z</time>
      </trkpt>
      <trkpt lat="45.89986" lon="1.25707">
        <ele>365</ele>
        <time>2023-05-02T06:41:02Z</time>
      </trkpt>
      <trkpt lat="45.89996" lon="1.25712">
        <ele>364.8</ele>
        <time>2023-05-02T06:41:04Z</time>
      </trkpt>
      <trkpt lat="45.9002" lon="1.25728">
        <ele>364.6</ele>
        <time>2023-05-02T06:41:09Z</time>
      </trkpt>
      <trkpt lat="45.90038" lon="1.25741">
        <ele>364.2</ele>
        <time>2023-05-02T06:41:13Z</time>
      </trkpt>
      <trkpt lat="45.90046" lon="1.25746">
        <ele>364.4</ele>
        <time>2023-05-02T06:41:15Z</time>
      </trkpt>
      <trkpt lat="45.90056" lon="1.25752">
        <ele>364.4</ele>
        <time>2023-05-02T06:41:17Z</time>
      </trkpt>
      <trkpt lat="45.90069" lon="1.25763">
        <ele>364.4</ele>
        <time>2023-05-02T06:41:20Z</time>
      </trkpt>
      <trkpt lat="45.90073" lon="1.25765">
        <ele>364.4</ele>
        <time>2023-05-02T06:41:21Z</time>
      </trkpt>
      <trkpt lat="45.90081" lon="1.25771">
        <ele>364.4</ele>
        <time>2023-05-02T06:41:23Z</time>
      </trkpt>
      <trkpt lat="45.90085" lon="1.25775">
        <ele>364.4</ele>
        <time>2023-05-02T06:41:24Z</time>
      </trkpt>
      <trkpt lat="45.90089" lon="1.25778">
        <ele>364.4</ele>
        <time>2023-05-02T06:41:25Z</time>
      </trkpt>
      <trkpt lat="45.90099" lon="1.25785">
        <ele>364.4</ele>
        <time>2023-05-02T06:41:27Z</time>
      </trkpt>
      <trkpt lat="45.90109" lon="1.25792">
        <ele>364.4</ele>
        <time>2023-05-02T06:41:29Z</time>
      </trkpt>
      <trkpt lat="45.90119" lon="1.258">
        <ele>364.4</ele>
        <time>2023-05-02T06:41:31Z</time>
      </trkpt>
      <trkpt lat="45.9013" lon="1.25808">
        <ele>364.2</ele>
        <time>2023-05-02T06:41:33Z</time>
      </trkpt>
      <trkpt lat="45.90146" lon="1.2582">
        <ele>364.6</ele>
        <time>2023-05-02T06:41:36Z</time>
      </trkpt>
      <trkpt lat="45.90174" lon="1.25842">
        <ele>365.2</ele>
        <time>2023-05-02T06:41:41Z</time>
      </trkpt>
      <trkpt lat="45.9018" lon="1.25846">
        <ele>365.2</ele>
        <time>2023-05-02T06:41:42Z</time>
      </trkpt>
      <trkpt lat="45.90199" lon="1.25853">
        <ele>365.2</ele>
        <time>2023-05-02T06:41:45Z</time>
      </trkpt>
      <trkpt lat="45.90225" lon="1.2586">
        <ele>365.4</ele>
        <time>2023-05-02T06:41:49Z</time>
      </trkpt>
      <trkpt lat="45.90231" lon="1.25863">
        <ele>365.4</ele>
        <time>2023-05-02T06:41:50Z</time>
      </trkpt>
      <trkpt lat="45.9025" lon="1.25873">
        <ele>365.4</ele>
        <time>2023-05-02T06:41:53Z</time>
      </trkpt>
      <trkpt lat="45.90256" lon="1.25874">
        <ele>365.4</ele>
        <time>2023-05-02T06:41:54Z</time>
      </trkpt>
      <trkpt lat="45.90266" lon="1.25876">
        <ele>365.4</ele>
        <time>2023-05-02T06:41:56Z</time>
      </trkpt>
      <trkpt lat="45.90275" lon="1.25882">
        <ele>365.4</ele>
        <time>2023-05-02T06:41:58Z</time>
      </trkpt>
      <trkpt lat="45.90283" lon="1.25888">
        <ele>365.2</ele>
        <time>2023-05-02T06:42:00Z</time>
      </trkpt>
      <trkpt lat="45.90303" lon="1.25895">
        <ele>365</ele>
        <time>2023-05-02T06:42:04Z</time>
      </trkpt>
      <trkpt lat="45.90317" lon="1.25897">
        <ele>364.4</ele>
        <time>2023-05-02T06:42:07Z</time>
      </trkpt>
      <trkpt lat="45.90322" lon="1.25899">
        <ele>364.8</ele>
        <time>2023-05-02T06:42:08Z</time>
      </trkpt>
      <trkpt lat="45.90325" lon="1.25903">
        <ele>364.8</ele>
        <time>2023-05-02T06:42:09Z</time>
      </trkpt>
      <trkpt lat="45.9033" lon="1.25911">
        <ele>364.6</ele>
        <time>2023-05-02T06:42:11Z</time>
      </trkpt>
      <trkpt lat="45.90339" lon="1.25925">
        <ele>364.6</ele>
        <time>2023-05-02T06:42:14Z</time>
      </trkpt>
      <trkpt lat="45.90341" lon="1.2593">
        <ele>364.6</ele>
        <time>2023-05-02T06:42:15Z</time>
      </trkpt>
      <trkpt lat="45.90345" lon="1.25935">
        <ele>364.6</ele>
        <time>2023-05-02T06:42:16Z</time>
      </trkpt>
      <trkpt lat="45.90354" lon="1.25941">
        <ele>364.6</ele>
        <time>2023-05-02T06:42:18Z</time>
      </trkpt>
      <trkpt lat="45.90359" lon="1.25943">
        <ele>364.4</ele>
        <time>2023-05-02T06:42:19Z</time>
      </trkpt>
      <trkpt lat="45.90376" lon="1.25942">
        <ele>364.4</ele>
        <time>2023-05-02T06:42:23Z</time>
      </trkpt>
      <trkpt lat="45.90393" lon="1.25938">
        <ele>364.4</ele>
        <time>2023-05-02T06:42:28Z</time>
      </trkpt>
      <trkpt lat="45.90411" lon="1.25934">
        <ele>364.4</ele>
        <time>2023-05-02T06:42:33Z</time>
      </trkpt>
      <trkpt lat="45.90428" lon="1.25928">
        <ele>364.2</ele>
        <time>2023-05-02T06:42:37Z</time>
      </trkpt>
      <trkpt lat="45.90438" lon="1.25923">
        <ele>364.4</ele>
        <time>2023-05-02T06:42:39Z</time>
      </trkpt>
      <trkpt lat="45.9045" lon="1.25918">
        <ele>364.4</ele>
        <time>2023-05-02T06:42:41Z</time>
      </trkpt>
      <trkpt lat="45.90455" lon="1.25916">
        <ele>364.4</ele>
        <time>2023-05-02T06:42:42Z</time>
      </trkpt>
      <trkpt lat="45.90477" lon="1.25907">
        <ele>364.2</ele>
        <time>2023-05-02T06:42:47Z</time>
      </trkpt>
      <trkpt lat="45.90486" lon="1.25885">
        <ele>363.8</ele>
        <time>2023-05-02T06:42:52Z</time>
      </trkpt>
      <trkpt lat="45.90486" lon="1.25881">
        <ele>363.6</ele>
        <time>2023-05-02T06:42:53Z</time>
      </trkpt>
      <trkpt lat="45.9049" lon="1.25871">
        <ele>363.6</ele>
        <time>2023-05-02T06:42:55Z</time>
      </trkpt>
      <trkpt lat="45.905" lon="1.25857">
        <ele>363.8</ele>
        <time>2023-05-02T06:42:59Z</time>
      </trkpt>
      <trkpt lat="45.90507" lon="1.25849">
        <ele>363.6</ele>
        <time>2023-05-02T06:43:02Z</time>
      </trkpt>
      <trkpt lat="45.90517" lon="1.25845">
        <ele>363.4</ele>
        <time>2023-05-02T06:43:04Z</time>
      </trkpt>
      <trkpt lat="45.90527" lon="1.25848">
        <ele>363.2</ele>
        <time>2023-05-02T06:43:06Z</time>
      </trkpt>
      <trkpt lat="45.90534" lon="1.25853">
        <ele>363</ele>
        <time>2023-05-02T06:43:08Z</time>
      </trkpt>
      <trkpt lat="45.90542" lon="1.25861">
        <ele>362.8</ele>
        <time>2023-05-02T06:43:10Z</time>
      </trkpt>
      <trkpt lat="45.90556" lon="1.25868">
        <ele>362.4</ele>
        <time>2023-05-02T06:43:14Z</time>
      </trkpt>
      <trkpt lat="45.90566" lon="1.25853">
        <ele>362.2</ele>
        <time>2023-05-02T06:43:18Z</time>
      </trkpt>
      <trkpt lat="45.90574" lon="1.25835">
        <ele>362.4</ele>
        <time>2023-05-02T06:43:24Z</time>
      </trkpt>
      <trkpt lat="45.90575" lon="1.25832">
        <ele>362.4</ele>
        <time>2023-05-02T06:43:25Z</time>
      </trkpt>
      <trkpt lat="45.90577" lon="1.25827">
        <ele>362.4</ele>
        <time>2023-05-02T06:43:28Z</time>
      </trkpt>
      <trkpt lat="45.90577" lon="1.25827">
        <ele>362.4</ele>
        <time>2023-05-02T06:43:29Z</time>
      </trkpt>
      <trkpt lat="45.90579" lon="1.25823">
        <ele>361</ele>
        <time>2023-05-02T06:45:15Z</time>
      </trkpt>
      <trkpt lat="45.90582" lon="1.25818">
        <ele>361.2</ele>
        <time>2023-05-02T06:45:17Z</time>
      </trkpt>
      <trkpt lat="45.90594" lon="1.25796">
        <ele>361.4</ele>
        <time>2023-05-02T06:45:23Z</time>
      </trkpt>
      <trkpt lat="45.90608" lon="1.2576">
        <ele>362</ele>
        <time>2023-05-02T06:45:31Z</time>
      </trkpt>
      <trkpt lat="45.90618" lon="1.25727">
        <ele>362.6</ele>
        <time>2023-05-02T06:45:38Z</time>
      </trkpt>
      <trkpt lat="45.90619" lon="1.25696">
        <ele>362.8</ele>
        <time>2023-05-02T06:45:44Z</time>
      </trkpt>
      <trkpt lat="45.90616" lon="1.2568">
        <ele>363.2</ele>
        <time>2023-05-02T06:45:47Z</time>
      </trkpt>
      <trkpt lat="45.90612" lon="1.2567">
        <ele>363.2</ele>
        <time>2023-05-02T06:45:49Z</time>
      </trkpt>
      <trkpt lat="45.9061" lon="1.25665">
        <ele>363.2</ele>
        <time>2023-05-02T06:45:50Z</time>
      </trkpt>
      <trkpt lat="45.90606" lon="1.25655">
        <ele>363.4</ele>
        <time>2023-05-02T06:45:52Z</time>
      </trkpt>
      <trkpt lat="45.90604" lon="1.2565">
        <ele>363.4</ele>
        <time>2023-05-02T06:45:53Z</time>
      </trkpt>
      <trkpt lat="45.90602" lon="1.25639">
        <ele>363.6</ele>
        <time>2023-05-02T06:45:55Z</time>
      </trkpt>
      <trkpt lat="45.906" lon="1.25627">
        <ele>363.6</ele>
        <time>2023-05-02T06:45:57Z</time>
      </trkpt>
      <trkpt lat="45.906" lon="1.25615">
        <ele>363.8</ele>
        <time>2023-05-02T06:45:59Z</time>
      </trkpt>
      <trkpt lat="45.90601" lon="1.25609">
        <ele>363.8</ele>
        <time>2023-05-02T06:46:00Z</time>
      </trkpt>
      <trkpt lat="45.90607" lon="1.25593">
        <ele>364.2</ele>
        <time>2023-05-02T06:46:03Z</time>
      </trkpt>
      <trkpt lat="45.90621" lon="1.25586">
        <ele>364.4</ele>
        <time>2023-05-02T06:46:07Z</time>
      </trkpt>
      <trkpt lat="45.90631" lon="1.25598">
        <ele>364.6</ele>
        <time>2023-05-02T06:46:11Z</time>
      </trkpt>
      <trkpt lat="45.90633" lon="1.25602">
        <ele>364.8</ele>
        <time>2023-05-02T06:46:12Z</time>
      </trkpt>
      <trkpt lat="45.90642" lon="1.25617">
        <ele>364.8</ele>
        <time>2023-05-02T06:46:15Z</time>
      </trkpt>
      <trkpt lat="45.90648" lon="1.25625">
        <ele>364.8</ele>
        <time>2023-05-02T06:46:17Z</time>
      </trkpt>
      <trkpt lat="45.90657" lon="1.25635">
        <ele>364.8</ele>
        <time>2023-05-02T06:46:20Z</time>
      </trkpt>
      <trkpt lat="45.90675" lon="1.2565">
        <ele>365</ele>
        <time>2023-05-02T06:46:24Z</time>
      </trkpt>
      <trkpt lat="45.90695" lon="1.25664">
        <ele>365</ele>
        <time>2023-05-02T06:46:28Z</time>
      </trkpt>
      <trkpt lat="45.90701" lon="1.25666">
        <ele>365</ele>
        <time>2023-05-02T06:46:29Z</time>
      </trkpt>
      <trkpt lat="45.90706" lon="1.25665">
        <ele>365.2</ele>
        <time>2023-05-02T06:46:30Z</time>
      </trkpt>
      <trkpt lat="45.90713" lon="1.25657">
        <ele>365.2</ele>
        <time>2023-05-02T06:46:32Z</time>
      </trkpt>
      <trkpt lat="45.90715" lon="1.25649">
        <ele>365.2</ele>
        <time>2023-05-02T06:46:34Z</time>
      </trkpt>
      <trkpt lat="45.90715" lon="1.25645">
        <ele>365.4</ele>
        <time>2023-05-02T06:46:35Z</time>
      </trkpt>
      <trkpt lat="45.90716" lon="1.25633">
        <ele>365.6</ele>
        <time>2023-05-02T06:46:38Z</time>
      </trkpt>
      <trkpt lat="45.90715" lon="1.25626">
        <ele>366</ele>
        <time>2023-05-02T06:46:40Z</time>
      </trkpt>
      <trkpt lat="45.90716" lon="1.2561">
        <ele>366.6</ele>
        <time>2023-05-02T06:46:44Z</time>
      </trkpt>
      <trkpt lat="45.90715" lon="1.25591">
        <ele>367.8</ele>
        <time>2023-05-02T06:46:49Z</time>
      </trkpt>
      <trkpt lat="45.90713" lon="1.2557">
        <ele>369.6</ele>
        <time>2023-05-02T06:46:54Z</time>
      </trkpt>
      <trkpt lat="45.90713" lon="1.25566">
        <ele>370</ele>
        <time>2023-05-02T06:46:55Z</time>
      </trkpt>
      <trkpt lat="45.90714" lon="1.25553">
        <ele>371.4</ele>
        <time>2023-05-02T06:46:58Z</time>
      </trkpt>
      <trkpt lat="45.9072" lon="1.25525">
        <ele>373</ele>
        <time>2023-05-02T06:47:04Z</time>
      </trkpt>
      <trkpt lat="45.90723" lon="1.25497">
        <ele>374.4</ele>
        <time>2023-05-02T06:47:10Z</time>
      </trkpt>
      <trkpt lat="45.90724" lon="1.25479">
        <ele>375.4</ele>
        <time>2023-05-02T06:47:14Z</time>
      </trkpt>
      <trkpt lat="45.90724" lon="1.25475">
        <ele>375.8</ele>
        <time>2023-05-02T06:47:15Z</time>
      </trkpt>
      <trkpt lat="45.90726" lon="1.25455">
        <ele>376.8</ele>
        <time>2023-05-02T06:47:19Z</time>
      </trkpt>
      <trkpt lat="45.90729" lon="1.25432">
        <ele>378.8</ele>
        <time>2023-05-02T06:47:24Z</time>
      </trkpt>
      <trkpt lat="45.90731" lon="1.25411">
        <ele>380.4</ele>
        <time>2023-05-02T06:47:28Z</time>
      </trkpt>
      <trkpt lat="45.90732" lon="1.25382">
        <ele>381.8</ele>
        <time>2023-05-02T06:47:33Z</time>
      </trkpt>
      <trkpt lat="45.90727" lon="1.2536">
        <ele>383</ele>
        <time>2023-05-02T06:47:38Z</time>
      </trkpt>
      <trkpt lat="45.90733" lon="1.25352">
        <ele>384</ele>
        <time>2023-05-02T06:47:41Z</time>
      </trkpt>
      <trkpt lat="45.9074" lon="1.25347">
        <ele>384.8</ele>
        <time>2023-05-02T06:47:44Z</time>
      </trkpt>
      <trkpt lat="45.90746" lon="1.25343">
        <ele>385.2</ele>
        <time>2023-05-02T06:47:46Z</time>
      </trkpt>
      <trkpt lat="45.90753" lon="1.25343">
        <ele>385.4</ele>
        <time>2023-05-02T06:47:48Z</time>
      </trkpt>
      <trkpt lat="45.90764" lon="1.2534">
        <ele>385.8</ele>
        <time>2023-05-02T06:47:51Z</time>
      </trkpt>
      <trkpt lat="45.90785" lon="1.25333">
        <ele>386.2</ele>
        <time>2023-05-02T06:47:55Z</time>
      </trkpt>
      <trkpt lat="45.90796" lon="1.25329">
        <ele>386.4</ele>
        <time>2023-05-02T06:47:57Z</time>
      </trkpt>
      <trkpt lat="45.90809" lon="1.2532">
        <ele>386.6</ele>
        <time>2023-05-02T06:48:00Z</time>
      </trkpt>
      <trkpt lat="45.90817" lon="1.25317">
        <ele>386.8</ele>
        <time>2023-05-02T06:48:02Z</time>
      </trkpt>
      <trkpt lat="45.90823" lon="1.25317">
        <ele>387.4</ele>
        <time>2023-05-02T06:48:04Z</time>
      </trkpt>
      <trkpt lat="45.90828" lon="1.25319">
        <ele>387.4</ele>
        <time>2023-05-02T06:48:05Z</time>
      </trkpt>
      <trkpt lat="45.90846" lon="1.25326">
        <ele>387.2</ele>
        <time>2023-05-02T06:48:08Z</time>
      </trkpt>
      <trkpt lat="45.90851" lon="1.25329">
        <ele>387.2</ele>
        <time>2023-05-02T06:48:09Z</time>
      </trkpt>
      <trkpt lat="45.90868" lon="1.25329">
        <ele>386.8</ele>
        <time>2023-05-02T06:48:12Z</time>
      </trkpt>
      <trkpt lat="45.90893" lon="1.25336">
        <ele>385.4</ele>
        <time>2023-05-02T06:48:17Z</time>
      </trkpt>
      <trkpt lat="45.90914" lon="1.25339">
        <ele>384.6</ele>
        <time>2023-05-02T06:48:23Z</time>
      </trkpt>
      <trkpt lat="45.90927" lon="1.25338">
        <ele>383.6</ele>
        <time>2023-05-02T06:48:27Z</time>
      </trkpt>
      <trkpt lat="45.90947" lon="1.25334">
        <ele>382</ele>
        <time>2023-05-02T06:48:32Z</time>
      </trkpt>
      <trkpt lat="45.9097" lon="1.25325">
        <ele>380.2</ele>
        <time>2023-05-02T06:48:37Z</time>
      </trkpt>
      <trkpt lat="45.90977" lon="1.2532">
        <ele>379.6</ele>
        <time>2023-05-02T06:48:39Z</time>
      </trkpt>
      <trkpt lat="45.90986" lon="1.25316">
        <ele>379</ele>
        <time>2023-05-02T06:48:41Z</time>
      </trkpt>
      <trkpt lat="45.91006" lon="1.25309">
        <ele>377.8</ele>
        <time>2023-05-02T06:48:45Z</time>
      </trkpt>
      <trkpt lat="45.91021" lon="1.25306">
        <ele>377.2</ele>
        <time>2023-05-02T06:48:49Z</time>
      </trkpt>
      <trkpt lat="45.91022" lon="1.25305">
        <ele>376.8</ele>
        <time>2023-05-02T06:48:51Z</time>
      </trkpt>
      <trkpt lat="45.91032" lon="1.25303">
        <ele>375.4</ele>
        <time>2023-05-02T06:48:59Z</time>
      </trkpt>
      <trkpt lat="45.91034" lon="1.25301">
        <ele>375.4</ele>
        <time>2023-05-02T06:49:00Z</time>
      </trkpt>
      <trkpt lat="45.91036" lon="1.25298">
        <ele>375.2</ele>
        <time>2023-05-02T06:49:01Z</time>
      </trkpt>
      <trkpt lat="45.91039" lon="1.25286">
        <ele>374.6</ele>
        <time>2023-05-02T06:49:04Z</time>
      </trkpt>
      <trkpt lat="45.91059" lon="1.25254">
        <ele>373.8</ele>
        <time>2023-05-02T06:49:12Z</time>
      </trkpt>
      <trkpt lat="45.91081" lon="1.25228">
        <ele>373.2</ele>
        <time>2023-05-02T06:49:20Z</time>
      </trkpt>
      <trkpt lat="45.91104" lon="1.25215">
        <ele>372.8</ele>
        <time>2023-05-02T06:49:27Z</time>
      </trkpt>
      <trkpt lat="45.9112" lon="1.25209">
        <ele>372.4</ele>
        <time>2023-05-02T06:49:32Z</time>
      </trkpt>
      <trkpt lat="45.9114" lon="1.25197">
        <ele>372</ele>
        <time>2023-05-02T06:49:38Z</time>
      </trkpt>
      <trkpt lat="45.91172" lon="1.25181">
        <ele>371.6</ele>
        <time>2023-05-02T06:49:46Z</time>
      </trkpt>
      <trkpt lat="45.91179" lon="1.25177">
        <ele>371.6</ele>
        <time>2023-05-02T06:49:48Z</time>
      </trkpt>
      <trkpt lat="45.91195" lon="1.2517">
        <ele>371.8</ele>
        <time>2023-05-02T06:49:52Z</time>
      </trkpt>
      <trkpt lat="45.91219" lon="1.25153">
        <ele>371.8</ele>
        <time>2023-05-02T06:49:59Z</time>
      </trkpt>
      <trkpt lat="45.91246" lon="1.25132">
        <ele>371.8</ele>
        <time>2023-05-02T06:50:07Z</time>
      </trkpt>
      <trkpt lat="45.91272" lon="1.25111">
        <ele>372</ele>
        <time>2023-05-02T06:50:15Z</time>
      </trkpt>
      <trkpt lat="45.91305" lon="1.25084">
        <ele>372.6</ele>
        <time>2023-05-02T06:50:25Z</time>
      </trkpt>
      <trkpt lat="45.91328" lon="1.25053">
        <ele>373.2</ele>
        <time>2023-05-02T06:50:33Z</time>
      </trkpt>
      <trkpt lat="45.91353" lon="1.25015">
        <ele>373.8</ele>
        <time>2023-05-02T06:50:41Z</time>
      </trkpt>
      <trkpt lat="45.91384" lon="1.24968">
        <ele>374.4</ele>
        <time>2023-05-02T06:50:50Z</time>
      </trkpt>
      <trkpt lat="45.91408" lon="1.24919">
        <ele>375</ele>
        <time>2023-05-02T06:50:58Z</time>
      </trkpt>
      <trkpt lat="45.91429" lon="1.24867">
        <ele>375.2</ele>
        <time>2023-05-02T06:51:06Z</time>
      </trkpt>
      <trkpt lat="45.91448" lon="1.24827">
        <ele>375</ele>
        <time>2023-05-02T06:51:11Z</time>
      </trkpt>
      <trkpt lat="45.91479" lon="1.24785">
        <ele>374.4</ele>
        <time>2023-05-02T06:51:16Z</time>
      </trkpt>
      <trkpt lat="45.91524" lon="1.24728">
        <ele>373.4</ele>
        <time>2023-05-02T06:51:22Z</time>
      </trkpt>
      <trkpt lat="45.91554" lon="1.24684">
        <ele>372.2</ele>
        <time>2023-05-02T06:51:27Z</time>
      </trkpt>
      <trkpt lat="45.91562" lon="1.24667">
        <ele>371.4</ele>
        <time>2023-05-02T06:51:30Z</time>
      </trkpt>
      <trkpt lat="45.9157" lon="1.24653">
        <ele>370.4</ele>
        <time>2023-05-02T06:51:34Z</time>
      </trkpt>
      <trkpt lat="45.91589" lon="1.24645">
        <ele>369</ele>
        <time>2023-05-02T06:51:38Z</time>
      </trkpt>
      <trkpt lat="45.91614" lon="1.24642">
        <ele>367.6</ele>
        <time>2023-05-02T06:51:42Z</time>
      </trkpt>
      <trkpt lat="45.9164" lon="1.24635">
        <ele>365.6</ele>
        <time>2023-05-02T06:51:47Z</time>
      </trkpt>
      <trkpt lat="45.9166" lon="1.24632">
        <ele>363.8</ele>
        <time>2023-05-02T06:51:52Z</time>
      </trkpt>
      <trkpt lat="45.91681" lon="1.24632">
        <ele>362.2</ele>
        <time>2023-05-02T06:51:59Z</time>
      </trkpt>
      <trkpt lat="45.91705" lon="1.24638">
        <ele>361.6</ele>
        <time>2023-05-02T06:52:07Z</time>
      </trkpt>
      <trkpt lat="45.91721" lon="1.24642">
        <ele>361.2</ele>
        <time>2023-05-02T06:52:13Z</time>
      </trkpt>
      <trkpt lat="45.91731" lon="1.24643">
        <ele>360.8</ele>
        <time>2023-05-02T06:52:18Z</time>
      </trkpt>
      <trkpt lat="45.91745" lon="1.24643">
        <ele>360.4</ele>
        <time>2023-05-02T06:52:24Z</time>
      </trkpt>
      <trkpt lat="45.91758" lon="1.24641">
        <ele>360.4</ele>
        <time>2023-05-02T06:52:29Z</time>
      </trkpt>
      <trkpt lat="45.91774" lon="1.24638">
        <ele>360.6</ele>
        <time>2023-05-02T06:52:36Z</time>
      </trkpt>
      <trkpt lat="45.91777" lon="1.24639">
        <ele>360.2</ele>
        <time>2023-05-02T06:52:39Z</time>
      </trkpt>
      <trkpt lat="45.91791" lon="1.24638">
        <ele>361.8</ele>
        <time>2023-05-02T06:53:14Z</time>
      </trkpt>
      <trkpt lat="45.91803" lon="1.24637">
        <ele>362.4</ele>
        <time>2023-05-02T06:53:24Z</time>
      </trkpt>
      <trkpt lat="45.91814" lon="1.24637">
        <ele>363</ele>
        <time>2023-05-02T06:53:33Z</time>
      </trkpt>
      <trkpt lat="45.9182" lon="1.24636">
        <ele>363.4</ele>
        <time>2023-05-02T06:53:39Z</time>
      </trkpt>
      <trkpt lat="45.91828" lon="1.24636">
        <ele>364.2</ele>
        <time>2023-05-02T06:53:47Z</time>
      </trkpt>
      <trkpt lat="45.91834" lon="1.24637">
        <ele>365</ele>
        <time>2023-05-02T06:53:54Z</time>
      </trkpt>
      <trkpt lat="45.91843" lon="1.24638">
        <ele>365.8</ele>
        <time>2023-05-02T06:54:02Z</time>
      </trkpt>
      <trkpt lat="45.91852" lon="1.24638">
        <ele>366.8</ele>
        <time>2023-05-02T06:54:10Z</time>
      </trkpt>
      <trkpt lat="45.91857" lon="1.24638">
        <ele>367.4</ele>
        <time>2023-05-02T06:54:16Z</time>
      </trkpt>
      <trkpt lat="45.91857" lon="1.24638">
        <ele>367.6</ele>
        <time>2023-05-02T06:54:17Z</time>
      </trkpt>
      <trkpt lat="45.91862" lon="1.24639">
        <ele>369.2</ele>
        <time>2023-05-02T06:54:36Z</time>
      </trkpt>
      <trkpt lat="45.91867" lon="1.24639">
        <ele>369.4</ele>
        <time>2023-05-02T06:54:39Z</time>
      </trkpt>
      <trkpt lat="45.9188" lon="1.2464">
        <ele>370.2</ele>
        <time>2023-05-02T06:54:45Z</time>
      </trkpt>
      <trkpt lat="45.91898" lon="1.24639">
        <ele>370.8</ele>
        <time>2023-05-02T06:54:53Z</time>
      </trkpt>
      <trkpt lat="45.91916" lon="1.24639">
        <ele>372</ele>
        <time>2023-05-02T06:55:01Z</time>
      </trkpt>
      <trkpt lat="45.91933" lon="1.24638">
        <ele>372.8</ele>
        <time>2023-05-02T06:55:08Z</time>
      </trkpt>
      <trkpt lat="45.91951" lon="1.24636">
        <ele>373.8</ele>
        <time>2023-05-02T06:55:15Z</time>
      </trkpt>
      <trkpt lat="45.91966" lon="1.24635">
        <ele>374.6</ele>
        <time>2023-05-02T06:55:21Z</time>
      </trkpt>
      <trkpt lat="45.91978" lon="1.24635">
        <ele>375</ele>
        <time>2023-05-02T06:55:26Z</time>
      </trkpt>
      <trkpt lat="45.91992" lon="1.24631">
        <ele>375.8</ele>
        <time>2023-05-02T06:55:32Z</time>
      </trkpt>
      <trkpt lat="45.92007" lon="1.24624">
        <ele>376.6</ele>
        <time>2023-05-02T06:55:38Z</time>
      </trkpt>
      <trkpt lat="45.92026" lon="1.24617">
        <ele>378.4</ele>
        <time>2023-05-02T06:55:45Z</time>
      </trkpt>
      <trkpt lat="45.92042" lon="1.24609">
        <ele>379.4</ele>
        <time>2023-05-02T06:55:51Z</time>
      </trkpt>
      <trkpt lat="45.92055" lon="1.24603">
        <ele>380.4</ele>
        <time>2023-05-02T06:55:56Z</time>
      </trkpt>
      <trkpt lat="45.9207" lon="1.24597">
        <ele>381.2</ele>
        <time>2023-05-02T06:56:01Z</time>
      </trkpt>
      <trkpt lat="45.92072" lon="1.24596">
        <ele>381.4</ele>
        <time>2023-05-02T06:56:02Z</time>
      </trkpt>
      <trkpt lat="45.92081" lon="1.24592">
        <ele>381.8</ele>
        <time>2023-05-02T06:56:05Z</time>
      </trkpt>
      <trkpt lat="45.92092" lon="1.24587">
        <ele>382.2</ele>
        <time>2023-05-02T06:56:09Z</time>
      </trkpt>
      <trkpt lat="45.92107" lon="1.24578">
        <ele>382.6</ele>
        <time>2023-05-02T06:56:14Z</time>
      </trkpt>
      <trkpt lat="45.92126" lon="1.2457">
        <ele>383.2</ele>
        <time>2023-05-02T06:56:20Z</time>
      </trkpt>
      <trkpt lat="45.92144" lon="1.24563">
        <ele>383.8</ele>
        <time>2023-05-02T06:56:26Z</time>
      </trkpt>
      <trkpt lat="45.92171" lon="1.24551">
        <ele>384.8</ele>
        <time>2023-05-02T06:56:34Z</time>
      </trkpt>
      <trkpt lat="45.92194" lon="1.24542">
        <ele>385.6</ele>
        <time>2023-05-02T06:56:41Z</time>
      </trkpt>
      <trkpt lat="45.92215" lon="1.24534">
        <ele>386.4</ele>
        <time>2023-05-02T06:56:47Z</time>
      </trkpt>
      <trkpt lat="45.92226" lon="1.24529">
        <ele>386.8</ele>
        <time>2023-05-02T06:56:51Z</time>
      </trkpt>
      <trkpt lat="45.92236" lon="1.24526">
        <ele>387.2</ele>
        <time>2023-05-02T06:56:55Z</time>
      </trkpt>
      <trkpt lat="45.92249" lon="1.24523">
        <ele>387.6</ele>
        <time>2023-05-02T06:57:00Z</time>
      </trkpt>
      <trkpt lat="45.92261" lon="1.2452">
        <ele>387.6</ele>
        <time>2023-05-02T06:57:04Z</time>
      </trkpt>
      <trkpt lat="45.92272" lon="1.24512">
        <ele>388.2</ele>
        <time>2023-05-02T06:57:09Z</time>
      </trkpt>
      <trkpt lat="45.92284" lon="1.24506">
        <ele>388.8</ele>
        <time>2023-05-02T06:57:14Z</time>
      </trkpt>
      <trkpt lat="45.92293" lon="1.24504">
        <ele>389.8</ele>
        <time>2023-05-02T06:57:18Z</time>
      </trkpt>
      <trkpt lat="45.92306" lon="1.245">
        <ele>390.6</ele>
        <time>2023-05-02T06:57:23Z</time>
      </trkpt>
      <trkpt lat="45.92309" lon="1.24499">
        <ele>390.8</ele>
        <time>2023-05-02T06:57:24Z</time>
      </trkpt>
      <trkpt lat="45.92315" lon="1.24494">
        <ele>391.2</ele>
        <time>2023-05-02T06:57:26Z</time>
      </trkpt>
      <trkpt lat="45.92323" lon="1.24492">
        <ele>391.6</ele>
        <time>2023-05-02T06:57:29Z</time>
      </trkpt>
      <trkpt lat="45.92326" lon="1.2449">
        <ele>391.8</ele>
        <time>2023-05-02T06:57:30Z</time>
      </trkpt>
      <trkpt lat="45.92338" lon="1.24484">
        <ele>392.6</ele>
        <time>2023-05-02T06:57:35Z</time>
      </trkpt>
      <trkpt lat="45.92346" lon="1.24477">
        <ele>393.4</ele>
        <time>2023-05-02T06:57:40Z</time>
      </trkpt>
      <trkpt lat="45.92362" lon="1.24469">
        <ele>394.2</ele>
        <time>2023-05-02T06:57:46Z</time>
      </trkpt>
      <trkpt lat="45.92364" lon="1.24468">
        <ele>394.2</ele>
        <time>2023-05-02T06:57:47Z</time>
      </trkpt>
      <trkpt lat="45.92371" lon="1.24466">
        <ele>394.8</ele>
        <time>2023-05-02T06:57:50Z</time>
      </trkpt>
      <trkpt lat="45.92372" lon="1.24466">
        <ele>395</ele>
        <time>2023-05-02T06:57:51Z</time>
      </trkpt>
      <trkpt lat="45.92381" lon="1.24461">
        <ele>405.4</ele>
        <time>2023-05-02T07:01:46Z</time>
      </trkpt>
      <trkpt lat="45.92386" lon="1.24459">
        <ele>405.6</ele>
        <time>2023-05-02T07:01:48Z</time>
      </trkpt>
      <trkpt lat="45.92391" lon="1.24456">
        <ele>405.6</ele>
        <time>2023-05-02T07:01:50Z</time>
      </trkpt>
      <trkpt lat="45.92392" lon="1.24452">
        <ele>405.8</ele>
        <time>2023-05-02T07:01:52Z</time>
      </trkpt>
      <trkpt lat="45.92394" lon="1.2445">
        <ele>405.6</ele>
        <time>2023-05-02T07:01:53Z</time>
      </trkpt>
      <trkpt lat="45.92402" lon="1.24446">
        <ele>405.6</ele>
        <time>2023-05-02T07:01:56Z</time>
      </trkpt>
      <trkpt lat="45.92411" lon="1.24442">
        <ele>405.4</ele>
        <time>2023-05-02T07:01:59Z</time>
      </trkpt>
      <trkpt lat="45.92416" lon="1.24437">
        <ele>405.6</ele>
        <time>2023-05-02T07:02:01Z</time>
      </trkpt>
      <trkpt lat="45.92422" lon="1.24429">
        <ele>405.6</ele>
        <time>2023-05-02T07:02:03Z</time>
      </trkpt>
      <trkpt lat="45.92443" lon="1.2442">
        <ele>405.8</ele>
        <time>2023-05-02T07:02:07Z</time>
      </trkpt>
      <trkpt lat="45.92465" lon="1.24409">
        <ele>405.8</ele>
        <time>2023-05-02T07:02:12Z</time>
      </trkpt>
      <trkpt lat="45.92479" lon="1.244">
        <ele>405.6</ele>
        <time>2023-05-02T07:02:16Z</time>
      </trkpt>
      <trkpt lat="45.92495" lon="1.24391">
        <ele>405</ele>
        <time>2023-05-02T07:02:20Z</time>
      </trkpt>
      <trkpt lat="45.92502" lon="1.24388">
        <ele>404.8</ele>
        <time>2023-05-02T07:02:21Z</time>
      </trkpt>
      <trkpt lat="45.92537" lon="1.24378">
        <ele>404.8</ele>
        <time>2023-05-02T07:02:26Z</time>
      </trkpt>
      <trkpt lat="45.92543" lon="1.24376">
        <ele>404.8</ele>
        <time>2023-05-02T07:02:27Z</time>
      </trkpt>
      <trkpt lat="45.92563" lon="1.24366">
        <ele>405</ele>
        <time>2023-05-02T07:02:31Z</time>
      </trkpt>
      <trkpt lat="45.92574" lon="1.24359">
        <ele>405</ele>
        <time>2023-05-02T07:02:34Z</time>
      </trkpt>
      <trkpt lat="45.92595" lon="1.24349">
        <ele>405.6</ele>
        <time>2023-05-02T07:02:38Z</time>
      </trkpt>
      <trkpt lat="45.92613" lon="1.24342">
        <ele>404.6</ele>
        <time>2023-05-02T07:02:42Z</time>
      </trkpt>
      <trkpt lat="45.9263" lon="1.24334">
        <ele>404.2</ele>
        <time>2023-05-02T07:02:47Z</time>
      </trkpt>
      <trkpt lat="45.92641" lon="1.24327">
        <ele>403.6</ele>
        <time>2023-05-02T07:02:51Z</time>
      </trkpt>
      <trkpt lat="45.92656" lon="1.24319">
        <ele>403.2</ele>
        <time>2023-05-02T07:02:55Z</time>
      </trkpt>
      <trkpt lat="45.92681" lon="1.24308">
        <ele>402.8</ele>
        <time>2023-05-02T07:03:00Z</time>
      </trkpt>
      <trkpt lat="45.92695" lon="1.24302">
        <ele>402.2</ele>
        <time>2023-05-02T07:03:04Z</time>
      </trkpt>
      <trkpt lat="45.92716" lon="1.24295">
        <ele>401.4</ele>
        <time>2023-05-02T07:03:09Z</time>
      </trkpt>
      <trkpt lat="45.92731" lon="1.24288">
        <ele>400.8</ele>
        <time>2023-05-02T07:03:13Z</time>
      </trkpt>
      <trkpt lat="45.92746" lon="1.24282">
        <ele>400.6</ele>
        <time>2023-05-02T07:03:18Z</time>
      </trkpt>
      <trkpt lat="45.92755" lon="1.24275">
        <ele>401.4</ele>
        <time>2023-05-02T07:03:22Z</time>
      </trkpt>
      <trkpt lat="45.9277" lon="1.24269">
        <ele>402.4</ele>
        <time>2023-05-02T07:03:27Z</time>
      </trkpt>
      <trkpt lat="45.92793" lon="1.24258">
        <ele>403.4</ele>
        <time>2023-05-02T07:03:35Z</time>
      </trkpt>
      <trkpt lat="45.92808" lon="1.24252">
        <ele>404</ele>
        <time>2023-05-02T07:03:41Z</time>
      </trkpt>
      <trkpt lat="45.92824" lon="1.24247">
        <ele>404.8</ele>
        <time>2023-05-02T07:03:48Z</time>
      </trkpt>
      <trkpt lat="45.92838" lon="1.24241">
        <ele>406</ele>
        <time>2023-05-02T07:03:55Z</time>
      </trkpt>
      <trkpt lat="45.92855" lon="1.24231">
        <ele>407.2</ele>
        <time>2023-05-02T07:04:02Z</time>
      </trkpt>
      <trkpt lat="45.92878" lon="1.24218">
        <ele>408.4</ele>
        <time>2023-05-02T07:04:11Z</time>
      </trkpt>
      <trkpt lat="45.92898" lon="1.24203">
        <ele>409.2</ele>
        <time>2023-05-02T07:04:18Z</time>
      </trkpt>
      <trkpt lat="45.92924" lon="1.24185">
        <ele>409.6</ele>
        <time>2023-05-02T07:04:24Z</time>
      </trkpt>
      <trkpt lat="45.92952" lon="1.24174">
        <ele>410.4</ele>
        <time>2023-05-02T07:04:31Z</time>
      </trkpt>
      <trkpt lat="45.9297" lon="1.24175">
        <ele>410.8</ele>
        <time>2023-05-02T07:04:36Z</time>
      </trkpt>
      <trkpt lat="45.92991" lon="1.2419">
        <ele>411.4</ele>
        <time>2023-05-02T07:04:42Z</time>
      </trkpt>
      <trkpt lat="45.9301" lon="1.24204">
        <ele>412.2</ele>
        <time>2023-05-02T07:04:49Z</time>
      </trkpt>
      <trkpt lat="45.93022" lon="1.24214">
        <ele>412.8</ele>
        <time>2023-05-02T07:04:55Z</time>
      </trkpt>
      <trkpt lat="45.93035" lon="1.24224">
        <ele>413.4</ele>
        <time>2023-05-02T07:05:01Z</time>
      </trkpt>
      <trkpt lat="45.93048" lon="1.24234">
        <ele>414.4</ele>
        <time>2023-05-02T07:05:07Z</time>
      </trkpt>
      <trkpt lat="45.93067" lon="1.24248">
        <ele>415.4</ele>
        <time>2023-05-02T07:05:14Z</time>
      </trkpt>
      <trkpt lat="45.93082" lon="1.24259">
        <ele>415.6</ele>
        <time>2023-05-02T07:05:19Z</time>
      </trkpt>
      <trkpt lat="45.93104" lon="1.24279">
        <ele>415.8</ele>
        <time>2023-05-02T07:05:25Z</time>
      </trkpt>
      <trkpt lat="45.93131" lon="1.24301">
        <ele>416</ele>
        <time>2023-05-02T07:05:30Z</time>
      </trkpt>
      <trkpt lat="45.93173" lon="1.24337">
        <ele>416.2</ele>
        <time>2023-05-02T07:05:38Z</time>
      </trkpt>
      <trkpt lat="45.93183" lon="1.24345">
        <ele>416.4</ele>
        <time>2023-05-02T07:05:40Z</time>
      </trkpt>
      <trkpt lat="45.93196" lon="1.24356">
        <ele>416.6</ele>
        <time>2023-05-02T07:05:43Z</time>
      </trkpt>
      <trkpt lat="45.93232" lon="1.24385">
        <ele>417</ele>
        <time>2023-05-02T07:05:51Z</time>
      </trkpt>
      <trkpt lat="45.93268" lon="1.24416">
        <ele>417.2</ele>
        <time>2023-05-02T07:05:59Z</time>
      </trkpt>
      <trkpt lat="45.93298" lon="1.24442">
        <ele>417.6</ele>
        <time>2023-05-02T07:06:06Z</time>
      </trkpt>
      <trkpt lat="45.93337" lon="1.24473">
        <ele>418</ele>
        <time>2023-05-02T07:06:15Z</time>
      </trkpt>
      <trkpt lat="45.93367" lon="1.24497">
        <ele>418.6</ele>
        <time>2023-05-02T07:06:22Z</time>
      </trkpt>
      <trkpt lat="45.93398" lon="1.2452">
        <ele>418.8</ele>
        <time>2023-05-02T07:06:29Z</time>
      </trkpt>
      <trkpt lat="45.93435" lon="1.24547">
        <ele>419</ele>
        <time>2023-05-02T07:06:37Z</time>
      </trkpt>
      <trkpt lat="45.93472" lon="1.24575">
        <ele>419</ele>
        <time>2023-05-02T07:06:45Z</time>
      </trkpt>
      <trkpt lat="45.93513" lon="1.24604">
        <ele>419.2</ele>
        <time>2023-05-02T07:06:53Z</time>
      </trkpt>
      <trkpt lat="45.9354" lon="1.24614">
        <ele>419.2</ele>
        <time>2023-05-02T07:06:58Z</time>
      </trkpt>
      <trkpt lat="45.9356" lon="1.24613">
        <ele>419</ele>
        <time>2023-05-02T07:07:02Z</time>
      </trkpt>
      <trkpt lat="45.93592" lon="1.2461">
        <ele>419</ele>
        <time>2023-05-02T07:07:07Z</time>
      </trkpt>
      <trkpt lat="45.93632" lon="1.246">
        <ele>418.6</ele>
        <time>2023-05-02T07:07:13Z</time>
      </trkpt>
      <trkpt lat="45.93645" lon="1.24592">
        <ele>418.6</ele>
        <time>2023-05-02T07:07:15Z</time>
      </trkpt>
      <trkpt lat="45.93664" lon="1.24577">
        <ele>418.6</ele>
        <time>2023-05-02T07:07:18Z</time>
      </trkpt>
      <trkpt lat="45.937" lon="1.24556">
        <ele>418.2</ele>
        <time>2023-05-02T07:07:23Z</time>
      </trkpt>
      <trkpt lat="45.93708" lon="1.24554">
        <ele>418.2</ele>
        <time>2023-05-02T07:07:24Z</time>
      </trkpt>
      <trkpt lat="45.93732" lon="1.24551">
        <ele>418</ele>
        <time>2023-05-02T07:07:27Z</time>
      </trkpt>
      <trkpt lat="45.93774" lon="1.24555">
        <ele>417.8</ele>
        <time>2023-05-02T07:07:32Z</time>
      </trkpt>
      <trkpt lat="45.9383" lon="1.24565">
        <ele>417.2</ele>
        <time>2023-05-02T07:07:39Z</time>
      </trkpt>
      <trkpt lat="45.93869" lon="1.24575">
        <ele>416.6</ele>
        <time>2023-05-02T07:07:45Z</time>
      </trkpt>
      <trkpt lat="45.93911" lon="1.24584">
        <ele>416.2</ele>
        <time>2023-05-02T07:07:52Z</time>
      </trkpt>
      <trkpt lat="45.93916" lon="1.24586">
        <ele>416.2</ele>
        <time>2023-05-02T07:07:53Z</time>
      </trkpt>
      <trkpt lat="45.93936" lon="1.246">
        <ele>416</ele>
        <time>2023-05-02T07:07:57Z</time>
      </trkpt>
      <trkpt lat="45.93952" lon="1.24615">
        <ele>415.8</ele>
        <time>2023-05-02T07:08:01Z</time>
      </trkpt>
      <trkpt lat="45.93967" lon="1.24625">
        <ele>415.8</ele>
        <time>2023-05-02T07:08:04Z</time>
      </trkpt>
      <trkpt lat="45.93978" lon="1.2463">
        <ele>415.8</ele>
        <time>2023-05-02T07:08:06Z</time>
      </trkpt>
      <trkpt lat="45.93989" lon="1.24632">
        <ele>415.6</ele>
        <time>2023-05-02T07:08:08Z</time>
      </trkpt>
      <trkpt lat="45.94" lon="1.2463">
        <ele>415.6</ele>
        <time>2023-05-02T07:08:10Z</time>
      </trkpt>
      <trkpt lat="45.94038" lon="1.2462">
        <ele>415.4</ele>
        <time>2023-05-02T07:08:18Z</time>
      </trkpt>
      <trkpt lat="45.94063" lon="1.24619">
        <ele>415.4</ele>
        <time>2023-05-02T07:08:24Z</time>
      </trkpt>
      <trkpt lat="45.94089" lon="1.24618">
        <ele>415.4</ele>
        <time>2023-05-02T07:08:30Z</time>
      </trkpt>
      <trkpt lat="45.94113" lon="1.24616">
        <ele>415.4</ele>
        <time>2023-05-02T07:08:36Z</time>
      </trkpt>
      <trkpt lat="45.94141" lon="1.24615">
        <ele>415.8</ele>
        <time>2023-05-02T07:08:43Z</time>
      </trkpt>
      <trkpt lat="45.94164" lon="1.24615">
        <ele>416.2</ele>
        <time>2023-05-02T07:08:49Z</time>
      </trkpt>
      <trkpt lat="45.94185" lon="1.24613">
        <ele>416.4</ele>
        <time>2023-05-02T07:08:55Z</time>
      </trkpt>
      <trkpt lat="45.94208" lon="1.2461">
        <ele>417</ele>
        <time>2023-05-02T07:09:02Z</time>
      </trkpt>
      <trkpt lat="45.94218" lon="1.24607">
        <ele>417.2</ele>
        <time>2023-05-02T07:09:06Z</time>
      </trkpt>
      <trkpt lat="45.94234" lon="1.24604">
        <ele>417.8</ele>
        <time>2023-05-02T07:09:12Z</time>
      </trkpt>
      <trkpt lat="45.9425" lon="1.24601">
        <ele>418.6</ele>
        <time>2023-05-02T07:09:18Z</time>
      </trkpt>
      <trkpt lat="45.94263" lon="1.24598">
        <ele>419</ele>
        <time>2023-05-02T07:09:23Z</time>
      </trkpt>
      <trkpt lat="45.94279" lon="1.24594">
        <ele>419.8</ele>
        <time>2023-05-02T07:09:29Z</time>
      </trkpt>
      <trkpt lat="45.943" lon="1.24585">
        <ele>420.2</ele>
        <time>2023-05-02T07:09:35Z</time>
      </trkpt>
      <trkpt lat="45.94333" lon="1.24566">
        <ele>421</ele>
        <time>2023-05-02T07:09:43Z</time>
      </trkpt>
      <trkpt lat="45.94366" lon="1.24548">
        <ele>421.8</ele>
        <time>2023-05-02T07:09:51Z</time>
      </trkpt>
      <trkpt lat="45.94398" lon="1.24526">
        <ele>422.2</ele>
        <time>2023-05-02T07:09:58Z</time>
      </trkpt>
      <trkpt lat="45.94402" lon="1.24522">
        <ele>422.2</ele>
        <time>2023-05-02T07:09:59Z</time>
      </trkpt>
      <trkpt lat="45.9442" lon="1.24507">
        <ele>422.4</ele>
        <time>2023-05-02T07:10:02Z</time>
      </trkpt>
      <trkpt lat="45.94434" lon="1.24496">
        <ele>422.2</ele>
        <time>2023-05-02T07:10:04Z</time>
      </trkpt>
      <trkpt lat="45.94448" lon="1.24492">
        <ele>422.2</ele>
        <time>2023-05-02T07:10:06Z</time>
      </trkpt>
      <trkpt lat="45.9446" lon="1.24491">
        <ele>422</ele>
        <time>2023-05-02T07:10:09Z</time>
      </trkpt>
      <trkpt lat="45.94479" lon="1.24485">
        <ele>422.8</ele>
        <time>2023-05-02T07:10:13Z</time>
      </trkpt>
      <trkpt lat="45.94506" lon="1.24477">
        <ele>421.6</ele>
        <time>2023-05-02T07:10:17Z</time>
      </trkpt>
      <trkpt lat="45.94547" lon="1.24463">
        <ele>421</ele>
        <time>2023-05-02T07:10:23Z</time>
      </trkpt>
      <trkpt lat="45.94553" lon="1.2446">
        <ele>420.8</ele>
        <time>2023-05-02T07:10:24Z</time>
      </trkpt>
      <trkpt lat="45.9457" lon="1.24445">
        <ele>420.4</ele>
        <time>2023-05-02T07:10:27Z</time>
      </trkpt>
      <trkpt lat="45.94588" lon="1.24432">
        <ele>420</ele>
        <time>2023-05-02T07:10:31Z</time>
      </trkpt>
      <trkpt lat="45.94591" lon="1.24432">
        <ele>419.8</ele>
        <time>2023-05-02T07:10:32Z</time>
      </trkpt>
      <trkpt lat="45.94594" lon="1.24436">
        <ele>419.4</ele>
        <time>2023-05-02T07:10:34Z</time>
      </trkpt>
      <trkpt lat="45.946" lon="1.24458">
        <ele>418</ele>
        <time>2023-05-02T07:10:40Z</time>
      </trkpt>
      <trkpt lat="45.94603" lon="1.2447">
        <ele>417.6</ele>
        <time>2023-05-02T07:10:42Z</time>
      </trkpt>
      <trkpt lat="45.94608" lon="1.24483">
        <ele>417.2</ele>
        <time>2023-05-02T07:10:44Z</time>
      </trkpt>
      <trkpt lat="45.94611" lon="1.2449">
        <ele>417</ele>
        <time>2023-05-02T07:10:45Z</time>
      </trkpt>
      <trkpt lat="45.94616" lon="1.24502">
        <ele>416.4</ele>
        <time>2023-05-02T07:10:47Z</time>
      </trkpt>
      <trkpt lat="45.94621" lon="1.24512">
        <ele>416</ele>
        <time>2023-05-02T07:10:49Z</time>
      </trkpt>
      <trkpt lat="45.94626" lon="1.2452">
        <ele>415.4</ele>
        <time>2023-05-02T07:10:51Z</time>
      </trkpt>
      <trkpt lat="45.94636" lon="1.24535">
        <ele>414.4</ele>
        <time>2023-05-02T07:10:55Z</time>
      </trkpt>
      <trkpt lat="45.94641" lon="1.24544">
        <ele>413.6</ele>
        <time>2023-05-02T07:10:58Z</time>
      </trkpt>
      <trkpt lat="45.94642" lon="1.24548">
        <ele>413.4</ele>
        <time>2023-05-02T07:10:59Z</time>
      </trkpt>
      <trkpt lat="45.94647" lon="1.24569">
        <ele>411.8</ele>
        <time>2023-05-02T07:11:04Z</time>
      </trkpt>
      <trkpt lat="45.94651" lon="1.24578">
        <ele>411.2</ele>
        <time>2023-05-02T07:11:06Z</time>
      </trkpt>
      <trkpt lat="45.94655" lon="1.24585">
        <ele>410.2</ele>
        <time>2023-05-02T07:11:08Z</time>
      </trkpt>
      <trkpt lat="45.94659" lon="1.24597">
        <ele>408.8</ele>
        <time>2023-05-02T07:11:11Z</time>
      </trkpt>
      <trkpt lat="45.9466" lon="1.24602">
        <ele>408.4</ele>
        <time>2023-05-02T07:11:12Z</time>
      </trkpt>
      <trkpt lat="45.94661" lon="1.2463">
        <ele>405.8</ele>
        <time>2023-05-02T07:11:17Z</time>
      </trkpt>
      <trkpt lat="45.94665" lon="1.24645">
        <ele>404.2</ele>
        <time>2023-05-02T07:11:21Z</time>
      </trkpt>
      <trkpt lat="45.94675" lon="1.24676">
        <ele>399</ele>
        <time>2023-05-02T07:11:33Z</time>
      </trkpt>
      <trkpt lat="45.94677" lon="1.24682">
        <ele>398.2</ele>
        <time>2023-05-02T07:11:35Z</time>
      </trkpt>
      <trkpt lat="45.94683" lon="1.24701">
        <ele>396.6</ele>
        <time>2023-05-02T07:11:40Z</time>
      </trkpt>
      <trkpt lat="45.94689" lon="1.2471">
        <ele>395.2</ele>
        <time>2023-05-02T07:11:46Z</time>
      </trkpt>
      <trkpt lat="45.9474" lon="1.24711">
        <ele>399.4</ele>
        <time>2023-05-02T07:12:41Z</time>
      </trkpt>
      <trkpt lat="45.94748" lon="1.24698">
        <ele>399.6</ele>
        <time>2023-05-02T07:12:47Z</time>
      </trkpt>
      <trkpt lat="45.94751" lon="1.24691">
        <ele>400</ele>
        <time>2023-05-02T07:12:50Z</time>
      </trkpt>
      <trkpt lat="45.94752" lon="1.24685">
        <ele>400.2</ele>
        <time>2023-05-02T07:12:52Z</time>
      </trkpt>
      <trkpt lat="45.9476" lon="1.24665">
        <ele>401.2</ele>
        <time>2023-05-02T07:12:58Z</time>
      </trkpt>
      <trkpt lat="45.94765" lon="1.24654">
        <ele>401.4</ele>
        <time>2023-05-02T07:13:02Z</time>
      </trkpt>
      <trkpt lat="45.94767" lon="1.24651">
        <ele>401.6</ele>
        <time>2023-05-02T07:13:03Z</time>
      </trkpt>
      <trkpt lat="45.94778" lon="1.2464">
        <ele>402</ele>
        <time>2023-05-02T07:13:08Z</time>
      </trkpt>
      <trkpt lat="45.94787" lon="1.24629">
        <ele>402.6</ele>
        <time>2023-05-02T07:13:13Z</time>
      </trkpt>
      <trkpt lat="45.94791" lon="1.24627">
        <ele>402.8</ele>
        <time>2023-05-02T07:13:15Z</time>
      </trkpt>
      <trkpt lat="45.94794" lon="1.24627">
        <ele>403</ele>
        <time>2023-05-02T07:13:17Z</time>
      </trkpt>
      <trkpt lat="45.94795" lon="1.24628">
        <ele>403.4</ele>
        <time>2023-05-02T07:13:19Z</time>
      </trkpt>
      <trkpt lat="45.94816" lon="1.24628">
        <ele>410.6</ele>
        <time>2023-05-02T07:17:48Z</time>
      </trkpt>
      <trkpt lat="45.94818" lon="1.24631">
        <ele>410.6</ele>
        <time>2023-05-02T07:17:49Z</time>
      </trkpt>
      <trkpt lat="45.94828" lon="1.24647">
        <ele>410.8</ele>
        <time>2023-05-02T07:17:54Z</time>
      </trkpt>
      <trkpt lat="45.9483" lon="1.2465">
        <ele>410.8</ele>
        <time>2023-05-02T07:17:55Z</time>
      </trkpt>
      <trkpt lat="45.94835" lon="1.24656">
        <ele>410.8</ele>
        <time>2023-05-02T07:17:57Z</time>
      </trkpt>
      <trkpt lat="45.94837" lon="1.24659">
        <ele>410.6</ele>
        <time>2023-05-02T07:17:58Z</time>
      </trkpt>
      <trkpt lat="45.94844" lon="1.24674">
        <ele>410.2</ele>
        <time>2023-05-02T07:18:02Z</time>
      </trkpt>
      <trkpt lat="45.94849" lon="1.24692">
        <ele>409.6</ele>
        <time>2023-05-02T07:18:07Z</time>
      </trkpt>
      <trkpt lat="45.94852" lon="1.24713">
        <ele>408.6</ele>
        <time>2023-05-02T07:18:11Z</time>
      </trkpt>
      <trkpt lat="45.94853" lon="1.2472">
        <ele>408.4</ele>
        <time>2023-05-02T07:18:12Z</time>
      </trkpt>
      <trkpt lat="45.94857" lon="1.24735">
        <ele>407.8</ele>
        <time>2023-05-02T07:18:14Z</time>
      </trkpt>
      <trkpt lat="45.9486" lon="1.24749">
        <ele>407.2</ele>
        <time>2023-05-02T07:18:16Z</time>
      </trkpt>
      <trkpt lat="45.94867" lon="1.24776">
        <ele>406</ele>
        <time>2023-05-02T07:18:20Z</time>
      </trkpt>
      <trkpt lat="45.94868" lon="1.24783">
        <ele>405.6</ele>
        <time>2023-05-02T07:18:21Z</time>
      </trkpt>
      <trkpt lat="45.94872" lon="1.24799">
        <ele>404.8</ele>
        <time>2023-05-02T07:18:24Z</time>
      </trkpt>
      <trkpt lat="45.94877" lon="1.2482">
        <ele>403.6</ele>
        <time>2023-05-02T07:18:28Z</time>
      </trkpt>
      <trkpt lat="45.9488" lon="1.24848">
        <ele>402</ele>
        <time>2023-05-02T07:18:33Z</time>
      </trkpt>
      <trkpt lat="45.94881" lon="1.24851">
        <ele>401.8</ele>
        <time>2023-05-02T07:18:34Z</time>
      </trkpt>
      <trkpt lat="45.94886" lon="1.24856">
        <ele>401.2</ele>
        <time>2023-05-02T07:18:36Z</time>
      </trkpt>
      <trkpt lat="45.94888" lon="1.24857">
        <ele>401</ele>
        <time>2023-05-02T07:18:37Z</time>
      </trkpt>
      <trkpt lat="45.94898" lon="1.24857">
        <ele>400</ele>
        <time>2023-05-02T07:18:41Z</time>
      </trkpt>
      <trkpt lat="45.94914" lon="1.24863">
        <ele>399.6</ele>
        <time>2023-05-02T07:18:45Z</time>
      </trkpt>
      <trkpt lat="45.94928" lon="1.24872">
        <ele>398.8</ele>
        <time>2023-05-02T07:18:49Z</time>
      </trkpt>
      <trkpt lat="45.94943" lon="1.24885">
        <ele>398</ele>
        <time>2023-05-02T07:18:55Z</time>
      </trkpt>
      <trkpt lat="45.9496" lon="1.24897">
        <ele>398.2</ele>
        <time>2023-05-02T07:19:01Z</time>
      </trkpt>
      <trkpt lat="45.94981" lon="1.24913">
        <ele>397.2</ele>
        <time>2023-05-02T07:19:09Z</time>
      </trkpt>
      <trkpt lat="45.94997" lon="1.24923">
        <ele>399.2</ele>
        <time>2023-05-02T07:19:15Z</time>
      </trkpt>
      <trkpt lat="45.95019" lon="1.24936">
        <ele>399.2</ele>
        <time>2023-05-02T07:19:22Z</time>
      </trkpt>
      <trkpt lat="45.95036" lon="1.24946">
        <ele>399.2</ele>
        <time>2023-05-02T07:19:28Z</time>
      </trkpt>
      <trkpt lat="45.95058" lon="1.24964">
        <ele>399.8</ele>
        <time>2023-05-02T07:19:35Z</time>
      </trkpt>
      <trkpt lat="45.95072" lon="1.24984">
        <ele>400.2</ele>
        <time>2023-05-02T07:19:42Z</time>
      </trkpt>
      <trkpt lat="45.95082" lon="1.25001">
        <ele>400.4</ele>
        <time>2023-05-02T07:19:47Z</time>
      </trkpt>
      <trkpt lat="45.95088" lon="1.25015">
        <ele>400.6</ele>
        <time>2023-05-02T07:19:52Z</time>
      </trkpt>
      <trkpt lat="45.95091" lon="1.25023">
        <ele>400.6</ele>
        <time>2023-05-02T07:19:55Z</time>
      </trkpt>
      <trkpt lat="45.95094" lon="1.25027">
        <ele>400.8</ele>
        <time>2023-05-02T07:19:57Z</time>
      </trkpt>
      <trkpt lat="45.95099" lon="1.25036">
        <ele>400.8</ele>
        <time>2023-05-02T07:20:01Z</time>
      </trkpt>
      <trkpt lat="45.95108" lon="1.25053">
        <ele>400.8</ele>
        <time>2023-05-02T07:20:08Z</time>
      </trkpt>
      <trkpt lat="45.95112" lon="1.2506">
        <ele>400.8</ele>
        <time>2023-05-02T07:20:11Z</time>
      </trkpt>
      <trkpt lat="45.95113" lon="1.25065">
        <ele>400.8</ele>
        <time>2023-05-02T07:20:13Z</time>
      </trkpt>
      <trkpt lat="45.95123" lon="1.2508">
        <ele>401</ele>
        <time>2023-05-02T07:20:19Z</time>
      </trkpt>
      <trkpt lat="45.95136" lon="1.25096">
        <ele>401.8</ele>
        <time>2023-05-02T07:20:25Z</time>
      </trkpt>
      <trkpt lat="45.95147" lon="1.25114">
        <ele>402.2</ele>
        <time>2023-05-02T07:20:31Z</time>
      </trkpt>
      <trkpt lat="45.95157" lon="1.2513">
        <ele>402.4</ele>
        <time>2023-05-02T07:20:36Z</time>
      </trkpt>
      <trkpt lat="45.95164" lon="1.25141">
        <ele>402.6</ele>
        <time>2023-05-02T07:20:40Z</time>
      </trkpt>
      <trkpt lat="45.95174" lon="1.25153">
        <ele>402.6</ele>
        <time>2023-05-02T07:20:45Z</time>
      </trkpt>
      <trkpt lat="45.95184" lon="1.25163">
        <ele>402.6</ele>
        <time>2023-05-02T07:20:48Z</time>
      </trkpt>
      <trkpt lat="45.95188" lon="1.25167">
        <ele>402.8</ele>
        <time>2023-05-02T07:20:49Z</time>
      </trkpt>
      <trkpt lat="45.95206" lon="1.25182">
        <ele>403.4</ele>
        <time>2023-05-02T07:20:54Z</time>
      </trkpt>
      <trkpt lat="45.95228" lon="1.25201">
        <ele>403.8</ele>
        <time>2023-05-02T07:21:00Z</time>
      </trkpt>
      <trkpt lat="45.95232" lon="1.25203">
        <ele>403.8</ele>
        <time>2023-05-02T07:21:01Z</time>
      </trkpt>
      <trkpt lat="45.95238" lon="1.2521">
        <ele>404</ele>
        <time>2023-05-02T07:21:03Z</time>
      </trkpt>
      <trkpt lat="45.95256" lon="1.25224">
        <ele>404.2</ele>
        <time>2023-05-02T07:21:08Z</time>
      </trkpt>
      <trkpt lat="45.95274" lon="1.25242">
        <ele>404.4</ele>
        <time>2023-05-02T07:21:13Z</time>
      </trkpt>
      <trkpt lat="45.9529" lon="1.25254">
        <ele>404.8</ele>
        <time>2023-05-02T07:21:17Z</time>
      </trkpt>
      <trkpt lat="45.9531" lon="1.25268">
        <ele>405</ele>
        <time>2023-05-02T07:21:22Z</time>
      </trkpt>
      <trkpt lat="45.95323" lon="1.2528">
        <ele>405.4</ele>
        <time>2023-05-02T07:21:26Z</time>
      </trkpt>
      <trkpt lat="45.95338" lon="1.25293">
        <ele>405.8</ele>
        <time>2023-05-02T07:21:30Z</time>
      </trkpt>
      <trkpt lat="45.95351" lon="1.25302">
        <ele>406.2</ele>
        <time>2023-05-02T07:21:34Z</time>
      </trkpt>
      <trkpt lat="45.95368" lon="1.25315">
        <ele>406.6</ele>
        <time>2023-05-02T07:21:39Z</time>
      </trkpt>
      <trkpt lat="45.95387" lon="1.25325">
        <ele>407</ele>
        <time>2023-05-02T07:21:44Z</time>
      </trkpt>
      <trkpt lat="45.95408" lon="1.25329">
        <ele>407.4</ele>
        <time>2023-05-02T07:21:49Z</time>
      </trkpt>
      <trkpt lat="45.95434" lon="1.25342">
        <ele>408</ele>
        <time>2023-05-02T07:21:56Z</time>
      </trkpt>
      <trkpt lat="45.95453" lon="1.25344">
        <ele>408.2</ele>
        <time>2023-05-02T07:22:02Z</time>
      </trkpt>
      <trkpt lat="45.95453" lon="1.25344">
        <ele>408.4</ele>
        <time>2023-05-02T07:22:04Z</time>
      </trkpt>
      <trkpt lat="45.95449" lon="1.25347">
        <ele>408.6</ele>
        <time>2023-05-02T07:22:09Z</time>
      </trkpt>
      <trkpt lat="45.95447" lon="1.25347">
        <ele>408.8</ele>
        <time>2023-05-02T07:22:10Z</time>
      </trkpt>
      <trkpt lat="45.95442" lon="1.25346">
        <ele>408.8</ele>
        <time>2023-05-02T07:22:13Z</time>
      </trkpt>
      <trkpt lat="45.95441" lon="1.25347">
        <ele>408.8</ele>
        <time>2023-05-02T07:22:14Z</time>
      </trkpt>
      <trkpt lat="45.95439" lon="1.25348">
        <ele>408.8</ele>
        <time>2023-05-02T07:22:15Z</time>
      </trkpt>
      <trkpt lat="45.95435" lon="1.25346">
        <ele>409</ele>
        <time>2023-05-02T07:22:18Z</time>
      </trkpt>
      <trkpt lat="45.9543" lon="1.25342">
        <ele>408.8</ele>
        <time>2023-05-02T07:22:21Z</time>
      </trkpt>
      <trkpt lat="45.95428" lon="1.25341">
        <ele>409</ele>
        <time>2023-05-02T07:22:23Z</time>
      </trkpt>
      <trkpt lat="45.95428" lon="1.25339">
        <ele>409</ele>
        <time>2023-05-02T07:22:24Z</time>
      </trkpt>
      <trkpt lat="45.95431" lon="1.25337">
        <ele>409</ele>
        <time>2023-05-02T07:22:26Z</time>
      </trkpt>
      <trkpt lat="45.95443" lon="1.25341">
        <ele>409.2</ele>
        <time>2023-05-02T07:22:32Z</time>
      </trkpt>
      <trkpt lat="45.95445" lon="1.2534">
        <ele>409.2</ele>
        <time>2023-05-02T07:22:33Z</time>
      </trkpt>
      <trkpt lat="45.9545" lon="1.25336">
        <ele>409.2</ele>
        <time>2023-05-02T07:22:36Z</time>
      </trkpt>
      <trkpt lat="45.95451" lon="1.25336">
        <ele>409.4</ele>
        <time>2023-05-02T07:22:38Z</time>
      </trkpt>
      <trkpt lat="45.95454" lon="1.25332">
        <ele>410.4</ele>
        <time>2023-05-02T07:23:56Z</time>
      </trkpt>
      <trkpt lat="45.95456" lon="1.25329">
        <ele>410.4</ele>
        <time>2023-05-02T07:23:57Z</time>
      </trkpt>
      <trkpt lat="45.95469" lon="1.25311">
        <ele>410</ele>
        <time>2023-05-02T07:24:03Z</time>
      </trkpt>
      <trkpt lat="45.95493" lon="1.25276">
        <ele>410</ele>
        <time>2023-05-02T07:24:11Z</time>
      </trkpt>
      <trkpt lat="45.955" lon="1.25268">
        <ele>409.8</ele>
        <time>2023-05-02T07:24:13Z</time>
      </trkpt>
      <trkpt lat="45.95517" lon="1.25255">
        <ele>410</ele>
        <time>2023-05-02T07:24:17Z</time>
      </trkpt>
      <trkpt lat="45.95544" lon="1.25236">
        <ele>409.8</ele>
        <time>2023-05-02T07:24:23Z</time>
      </trkpt>
      <trkpt lat="45.95583" lon="1.25207">
        <ele>410.2</ele>
        <time>2023-05-02T07:24:31Z</time>
      </trkpt>
      <trkpt lat="45.95616" lon="1.25183">
        <ele>410.2</ele>
        <time>2023-05-02T07:24:37Z</time>
      </trkpt>
      <trkpt lat="45.95654" lon="1.25156">
        <ele>410.2</ele>
        <time>2023-05-02T07:24:43Z</time>
      </trkpt>
      <trkpt lat="45.95693" lon="1.25118">
        <ele>410</ele>
        <time>2023-05-02T07:24:49Z</time>
      </trkpt>
      <trkpt lat="45.95723" lon="1.25086">
        <ele>409.6</ele>
        <time>2023-05-02T07:24:54Z</time>
      </trkpt>
      <trkpt lat="45.9577" lon="1.25037">
        <ele>409.4</ele>
        <time>2023-05-02T07:25:01Z</time>
      </trkpt>
      <trkpt lat="45.95787" lon="1.25017">
        <ele>409.2</ele>
        <time>2023-05-02T07:25:04Z</time>
      </trkpt>
      <trkpt lat="45.95821" lon="1.24978">
        <ele>408.8</ele>
        <time>2023-05-02T07:25:09Z</time>
      </trkpt>
      <trkpt lat="45.95868" lon="1.24929">
        <ele>408</ele>
        <time>2023-05-02T07:25:16Z</time>
      </trkpt>
      <trkpt lat="45.95899" lon="1.24895">
        <ele>407.4</ele>
        <time>2023-05-02T07:25:21Z</time>
      </trkpt>
      <trkpt lat="45.95923" lon="1.2487">
        <ele>407</ele>
        <time>2023-05-02T07:25:25Z</time>
      </trkpt>
      <trkpt lat="45.95945" lon="1.24844">
        <ele>406.8</ele>
        <time>2023-05-02T07:25:29Z</time>
      </trkpt>
      <trkpt lat="45.95977" lon="1.24811">
        <ele>406.2</ele>
        <time>2023-05-02T07:25:34Z</time>
      </trkpt>
      <trkpt lat="45.96005" lon="1.24781">
        <ele>405.8</ele>
        <time>2023-05-02T07:25:39Z</time>
      </trkpt>
      <trkpt lat="45.96041" lon="1.24742">
        <ele>405.6</ele>
        <time>2023-05-02T07:25:45Z</time>
      </trkpt>
      <trkpt lat="45.96076" lon="1.24703">
        <ele>405.4</ele>
        <time>2023-05-02T07:25:51Z</time>
      </trkpt>
      <trkpt lat="45.96115" lon="1.24659">
        <ele>405.2</ele>
        <time>2023-05-02T07:25:58Z</time>
      </trkpt>
      <trkpt lat="45.96164" lon="1.24608">
        <ele>404.4</ele>
        <time>2023-05-02T07:26:06Z</time>
      </trkpt>
      <trkpt lat="45.96209" lon="1.24559">
        <ele>403.8</ele>
        <time>2023-05-02T07:26:13Z</time>
      </trkpt>
      <trkpt lat="45.96243" lon="1.24522">
        <ele>403.8</ele>
        <time>2023-05-02T07:26:19Z</time>
      </trkpt>
      <trkpt lat="45.96285" lon="1.24478">
        <ele>403.8</ele>
        <time>2023-05-02T07:26:27Z</time>
      </trkpt>
      <trkpt lat="45.96306" lon="1.24455">
        <ele>403.6</ele>
        <time>2023-05-02T07:26:32Z</time>
      </trkpt>
      <trkpt lat="45.96311" lon="1.24452">
        <ele>403.6</ele>
        <time>2023-05-02T07:26:33Z</time>
      </trkpt>
      <trkpt lat="45.96315" lon="1.24449">
        <ele>403.4</ele>
        <time>2023-05-02T07:26:34Z</time>
      </trkpt>
      <trkpt lat="45.96326" lon="1.24451">
        <ele>403.2</ele>
        <time>2023-05-02T07:26:36Z</time>
      </trkpt>
      <trkpt lat="45.96335" lon="1.24459">
        <ele>403</ele>
        <time>2023-05-02T07:26:38Z</time>
      </trkpt>
      <trkpt lat="45.96344" lon="1.24468">
        <ele>402.8</ele>
        <time>2023-05-02T07:26:40Z</time>
      </trkpt>
      <trkpt lat="45.96377" lon="1.24506">
        <ele>402.2</ele>
        <time>2023-05-02T07:26:47Z</time>
      </trkpt>
      <trkpt lat="45.96408" lon="1.24552">
        <ele>401.4</ele>
        <time>2023-05-02T07:26:54Z</time>
      </trkpt>
      <trkpt lat="45.96446" lon="1.24608">
        <ele>400.4</ele>
        <time>2023-05-02T07:27:02Z</time>
      </trkpt>
      <trkpt lat="45.96451" lon="1.24616">
        <ele>400.2</ele>
        <time>2023-05-02T07:27:03Z</time>
      </trkpt>
      <trkpt lat="45.96491" lon="1.24677">
        <ele>399</ele>
        <time>2023-05-02T07:27:11Z</time>
      </trkpt>
      <trkpt lat="45.96497" lon="1.24685">
        <ele>398.8</ele>
        <time>2023-05-02T07:27:12Z</time>
      </trkpt>
      <trkpt lat="45.96531" lon="1.24737">
        <ele>397.8</ele>
        <time>2023-05-02T07:27:19Z</time>
      </trkpt>
      <trkpt lat="45.96563" lon="1.24785">
        <ele>396.8</ele>
        <time>2023-05-02T07:27:26Z</time>
      </trkpt>
      <trkpt lat="45.96591" lon="1.24826">
        <ele>396.2</ele>
        <time>2023-05-02T07:27:32Z</time>
      </trkpt>
      <trkpt lat="45.966" lon="1.2484">
        <ele>396</ele>
        <time>2023-05-02T07:27:34Z</time>
      </trkpt>
      <trkpt lat="45.96638" lon="1.24896">
        <ele>395</ele>
        <time>2023-05-02T07:27:42Z</time>
      </trkpt>
      <trkpt lat="45.96668" lon="1.24941">
        <ele>394.4</ele>
        <time>2023-05-02T07:27:49Z</time>
      </trkpt>
      <trkpt lat="45.96689" lon="1.24975">
        <ele>394</ele>
        <time>2023-05-02T07:27:56Z</time>
      </trkpt>
      <trkpt lat="45.96705" lon="1.24998">
        <ele>393.8</ele>
        <time>2023-05-02T07:28:02Z</time>
      </trkpt>
      <trkpt lat="45.96729" lon="1.25027">
        <ele>393.8</ele>
        <time>2023-05-02T07:28:11Z</time>
      </trkpt>
      <trkpt lat="45.96747" lon="1.25041">
        <ele>394.2</ele>
        <time>2023-05-02T07:28:17Z</time>
      </trkpt>
      <trkpt lat="45.96768" lon="1.25055">
        <ele>394.6</ele>
        <time>2023-05-02T07:28:24Z</time>
      </trkpt>
      <trkpt lat="45.96793" lon="1.2507">
        <ele>395</ele>
        <time>2023-05-02T07:28:33Z</time>
      </trkpt>
      <trkpt lat="45.96818" lon="1.25087">
        <ele>395.8</ele>
        <time>2023-05-02T07:28:42Z</time>
      </trkpt>
      <trkpt lat="45.96844" lon="1.25103">
        <ele>396.6</ele>
        <time>2023-05-02T07:28:51Z</time>
      </trkpt>
      <trkpt lat="45.9687" lon="1.25119">
        <ele>397.2</ele>
        <time>2023-05-02T07:29:00Z</time>
      </trkpt>
      <trkpt lat="45.96897" lon="1.25139">
        <ele>398.2</ele>
        <time>2023-05-02T07:29:10Z</time>
      </trkpt>
      <trkpt lat="45.96923" lon="1.25156">
        <ele>399</ele>
        <time>2023-05-02T07:29:19Z</time>
      </trkpt>
      <trkpt lat="45.96942" lon="1.25169">
        <ele>399.6</ele>
        <time>2023-05-02T07:29:26Z</time>
      </trkpt>
      <trkpt lat="45.96957" lon="1.25179">
        <ele>400</ele>
        <time>2023-05-02T07:29:32Z</time>
      </trkpt>
      <trkpt lat="45.96959" lon="1.25181">
        <ele>400.2</ele>
        <time>2023-05-02T07:29:35Z</time>
      </trkpt>
      <trkpt lat="45.96962" lon="1.25183">
        <ele>402.2</ele>
        <time>2023-05-02T07:30:12Z</time>
      </trkpt>
      <trkpt lat="45.96974" lon="1.25191">
        <ele>402.4</ele>
        <time>2023-05-02T07:30:17Z</time>
      </trkpt>
      <trkpt lat="45.96985" lon="1.25203">
        <ele>402.6</ele>
        <time>2023-05-02T07:30:21Z</time>
      </trkpt>
      <trkpt lat="45.96995" lon="1.25214">
        <ele>402.8</ele>
        <time>2023-05-02T07:30:24Z</time>
      </trkpt>
      <trkpt lat="45.97006" lon="1.25227">
        <ele>402.8</ele>
        <time>2023-05-02T07:30:27Z</time>
      </trkpt>
      <trkpt lat="45.97013" lon="1.25236">
        <ele>402.8</ele>
        <time>2023-05-02T07:30:29Z</time>
      </trkpt>
      <trkpt lat="45.97025" lon="1.25252">
        <ele>402.8</ele>
        <time>2023-05-02T07:30:32Z</time>
      </trkpt>
      <trkpt lat="45.97053" lon="1.25287">
        <ele>403</ele>
        <time>2023-05-02T07:30:38Z</time>
      </trkpt>
      <trkpt lat="45.97076" lon="1.25306">
        <ele>402.8</ele>
        <time>2023-05-02T07:30:42Z</time>
      </trkpt>
      <trkpt lat="45.97096" lon="1.25323">
        <ele>402.4</ele>
        <time>2023-05-02T07:30:45Z</time>
      </trkpt>
      <trkpt lat="45.97108" lon="1.25339">
        <ele>402.4</ele>
        <time>2023-05-02T07:30:47Z</time>
      </trkpt>
      <trkpt lat="45.97132" lon="1.25385">
        <ele>402.2</ele>
        <time>2023-05-02T07:30:52Z</time>
      </trkpt>
      <trkpt lat="45.97166" lon="1.25457">
        <ele>401.4</ele>
        <time>2023-05-02T07:30:59Z</time>
      </trkpt>
      <trkpt lat="45.97201" lon="1.2553">
        <ele>400</ele>
        <time>2023-05-02T07:31:06Z</time>
      </trkpt>
      <trkpt lat="45.97212" lon="1.25551">
        <ele>399.6</ele>
        <time>2023-05-02T07:31:08Z</time>
      </trkpt>
      <trkpt lat="45.97239" lon="1.25602">
        <ele>398.4</ele>
        <time>2023-05-02T07:31:13Z</time>
      </trkpt>
      <trkpt lat="45.97246" lon="1.25611">
        <ele>398.2</ele>
        <time>2023-05-02T07:31:14Z</time>
      </trkpt>
      <trkpt lat="45.97253" lon="1.25619">
        <ele>398</ele>
        <time>2023-05-02T07:31:15Z</time>
      </trkpt>
      <trkpt lat="45.9727" lon="1.2563">
        <ele>397.4</ele>
        <time>2023-05-02T07:31:17Z</time>
      </trkpt>
      <trkpt lat="45.97287" lon="1.25636">
        <ele>396.8</ele>
        <time>2023-05-02T07:31:19Z</time>
      </trkpt>
      <trkpt lat="45.97296" lon="1.25635">
        <ele>396.6</ele>
        <time>2023-05-02T07:31:20Z</time>
      </trkpt>
      <trkpt lat="45.97333" lon="1.25624">
        <ele>395.6</ele>
        <time>2023-05-02T07:31:24Z</time>
      </trkpt>
      <trkpt lat="45.97363" lon="1.2562">
        <ele>395</ele>
        <time>2023-05-02T07:31:27Z</time>
      </trkpt>
      <trkpt lat="45.97373" lon="1.25621">
        <ele>394.6</ele>
        <time>2023-05-02T07:31:28Z</time>
      </trkpt>
      <trkpt lat="45.97381" lon="1.25623">
        <ele>394.4</ele>
        <time>2023-05-02T07:31:29Z</time>
      </trkpt>
      <trkpt lat="45.97404" lon="1.2563">
        <ele>394</ele>
        <time>2023-05-02T07:31:32Z</time>
      </trkpt>
      <trkpt lat="45.97422" lon="1.25636">
        <ele>393.6</ele>
        <time>2023-05-02T07:31:35Z</time>
      </trkpt>
      <trkpt lat="45.97433" lon="1.25636">
        <ele>393.2</ele>
        <time>2023-05-02T07:31:37Z</time>
      </trkpt>
      <trkpt lat="45.97438" lon="1.25635">
        <ele>393</ele>
        <time>2023-05-02T07:31:38Z</time>
      </trkpt>
      <trkpt lat="45.97452" lon="1.2563">
        <ele>392.8</ele>
        <time>2023-05-02T07:31:41Z</time>
      </trkpt>
      <trkpt lat="45.97476" lon="1.2562">
        <ele>392.6</ele>
        <time>2023-05-02T07:31:46Z</time>
      </trkpt>
      <trkpt lat="45.9748" lon="1.25618">
        <ele>392.6</ele>
        <time>2023-05-02T07:31:47Z</time>
      </trkpt>
      <trkpt lat="45.97497" lon="1.25616">
        <ele>392.6</ele>
        <time>2023-05-02T07:31:51Z</time>
      </trkpt>
      <trkpt lat="45.97511" lon="1.25617">
        <ele>392.6</ele>
        <time>2023-05-02T07:31:54Z</time>
      </trkpt>
      <trkpt lat="45.97523" lon="1.25621">
        <ele>392.6</ele>
        <time>2023-05-02T07:31:57Z</time>
      </trkpt>
      <trkpt lat="45.97543" lon="1.25639">
        <ele>392.2</ele>
        <time>2023-05-02T07:32:03Z</time>
      </trkpt>
      <trkpt lat="45.97557" lon="1.25662">
        <ele>392.8</ele>
        <time>2023-05-02T07:32:09Z</time>
      </trkpt>
      <trkpt lat="45.9757" lon="1.25693">
        <ele>392.4</ele>
        <time>2023-05-02T07:32:16Z</time>
      </trkpt>
      <trkpt lat="45.97575" lon="1.2572">
        <ele>392.8</ele>
        <time>2023-05-02T07:32:22Z</time>
      </trkpt>
      <trkpt lat="45.97573" lon="1.25757">
        <ele>392.8</ele>
        <time>2023-05-02T07:32:29Z</time>
      </trkpt>
      <trkpt lat="45.97573" lon="1.25805">
        <ele>393.2</ele>
        <time>2023-05-02T07:32:37Z</time>
      </trkpt>
      <trkpt lat="45.97578" lon="1.25822">
        <ele>393.2</ele>
        <time>2023-05-02T07:32:40Z</time>
      </trkpt>
      <trkpt lat="45.97584" lon="1.25833">
        <ele>393.4</ele>
        <time>2023-05-02T07:32:42Z</time>
      </trkpt>
      <trkpt lat="45.97586" lon="1.25838">
        <ele>393.4</ele>
        <time>2023-05-02T07:32:43Z</time>
      </trkpt>
      <trkpt lat="45.97603" lon="1.25859">
        <ele>393.6</ele>
        <time>2023-05-02T07:32:48Z</time>
      </trkpt>
      <trkpt lat="45.9763" lon="1.25883">
        <ele>393.8</ele>
        <time>2023-05-02T07:32:55Z</time>
      </trkpt>
      <trkpt lat="45.97667" lon="1.2592">
        <ele>394.2</ele>
        <time>2023-05-02T07:33:05Z</time>
      </trkpt>
      <trkpt lat="45.97701" lon="1.25955">
        <ele>394.6</ele>
        <time>2023-05-02T07:33:14Z</time>
      </trkpt>
      <trkpt lat="45.97735" lon="1.25985">
        <ele>395</ele>
        <time>2023-05-02T07:33:23Z</time>
      </trkpt>
      <trkpt lat="45.97758" lon="1.26008">
        <ele>395.4</ele>
        <time>2023-05-02T07:33:30Z</time>
      </trkpt>
      <trkpt lat="45.97785" lon="1.26034">
        <ele>396</ele>
        <time>2023-05-02T07:33:38Z</time>
      </trkpt>
      <trkpt lat="45.97804" lon="1.26054">
        <ele>396.2</ele>
        <time>2023-05-02T07:33:44Z</time>
      </trkpt>
      <trkpt lat="45.97825" lon="1.26077">
        <ele>396.4</ele>
        <time>2023-05-02T07:33:50Z</time>
      </trkpt>
      <trkpt lat="45.97846" lon="1.26113">
        <ele>396.2</ele>
        <time>2023-05-02T07:33:56Z</time>
      </trkpt>
      <trkpt lat="45.97859" lon="1.26149">
        <ele>396.2</ele>
        <time>2023-05-02T07:34:01Z</time>
      </trkpt>
      <trkpt lat="45.97861" lon="1.26156">
        <ele>396.2</ele>
        <time>2023-05-02T07:34:02Z</time>
      </trkpt>
      <trkpt lat="45.97881" lon="1.26214">
        <ele>396</ele>
        <time>2023-05-02T07:34:10Z</time>
      </trkpt>
      <trkpt lat="45.97905" lon="1.26259">
        <ele>395.6</ele>
        <time>2023-05-02T07:34:16Z</time>
      </trkpt>
      <trkpt lat="45.97941" lon="1.26322">
        <ele>394.4</ele>
        <time>2023-05-02T07:34:24Z</time>
      </trkpt>
      <trkpt lat="45.97957" lon="1.26345">
        <ele>394.2</ele>
        <time>2023-05-02T07:34:27Z</time>
      </trkpt>
      <trkpt lat="45.97971" lon="1.26357">
        <ele>394</ele>
        <time>2023-05-02T07:34:29Z</time>
      </trkpt>
      <trkpt lat="45.98002" lon="1.26371">
        <ele>393.4</ele>
        <time>2023-05-02T07:34:33Z</time>
      </trkpt>
      <trkpt lat="45.98046" lon="1.26376">
        <ele>393</ele>
        <time>2023-05-02T07:34:38Z</time>
      </trkpt>
      <trkpt lat="45.98065" lon="1.26379">
        <ele>392.6</ele>
        <time>2023-05-02T07:34:40Z</time>
      </trkpt>
      <trkpt lat="45.98083" lon="1.26387">
        <ele>392.2</ele>
        <time>2023-05-02T07:34:42Z</time>
      </trkpt>
      <trkpt lat="45.98098" lon="1.26403">
        <ele>391.8</ele>
        <time>2023-05-02T07:34:44Z</time>
      </trkpt>
      <trkpt lat="45.98105" lon="1.26412">
        <ele>391.6</ele>
        <time>2023-05-02T07:34:45Z</time>
      </trkpt>
      <trkpt lat="45.9811" lon="1.26422">
        <ele>391.4</ele>
        <time>2023-05-02T07:34:46Z</time>
      </trkpt>
      <trkpt lat="45.98131" lon="1.26461">
        <ele>390.6</ele>
        <time>2023-05-02T07:34:50Z</time>
      </trkpt>
      <trkpt lat="45.98155" lon="1.26509">
        <ele>389.4</ele>
        <time>2023-05-02T07:34:55Z</time>
      </trkpt>
      <trkpt lat="45.98158" lon="1.26521">
        <ele>389.2</ele>
        <time>2023-05-02T07:34:56Z</time>
      </trkpt>
      <trkpt lat="45.98161" lon="1.26533">
        <ele>389</ele>
        <time>2023-05-02T07:34:57Z</time>
      </trkpt>
      <trkpt lat="45.98162" lon="1.2656">
        <ele>388.6</ele>
        <time>2023-05-02T07:34:59Z</time>
      </trkpt>
      <trkpt lat="45.98157" lon="1.26601">
        <ele>387.6</ele>
        <time>2023-05-02T07:35:02Z</time>
      </trkpt>
      <trkpt lat="45.98153" lon="1.26642">
        <ele>386.8</ele>
        <time>2023-05-02T07:35:05Z</time>
      </trkpt>
      <trkpt lat="45.98154" lon="1.26668">
        <ele>386.2</ele>
        <time>2023-05-02T07:35:07Z</time>
      </trkpt>
      <trkpt lat="45.98157" lon="1.26681">
        <ele>386</ele>
        <time>2023-05-02T07:35:08Z</time>
      </trkpt>
      <trkpt lat="45.98161" lon="1.26692">
        <ele>385.8</ele>
        <time>2023-05-02T07:35:09Z</time>
      </trkpt>
      <trkpt lat="45.98165" lon="1.26702">
        <ele>385.6</ele>
        <time>2023-05-02T07:35:10Z</time>
      </trkpt>
      <trkpt lat="45.98177" lon="1.26718">
        <ele>385.2</ele>
        <time>2023-05-02T07:35:12Z</time>
      </trkpt>
      <trkpt lat="45.98201" lon="1.26739">
        <ele>384.6</ele>
        <time>2023-05-02T07:35:16Z</time>
      </trkpt>
      <trkpt lat="45.98251" lon="1.26768">
        <ele>383.6</ele>
        <time>2023-05-02T07:35:24Z</time>
      </trkpt>
      <trkpt lat="45.98301" lon="1.26793">
        <ele>382.4</ele>
        <time>2023-05-02T07:35:32Z</time>
      </trkpt>
      <trkpt lat="45.98335" lon="1.2682">
        <ele>381.4</ele>
        <time>2023-05-02T07:35:37Z</time>
      </trkpt>
      <trkpt lat="45.98347" lon="1.26836">
        <ele>381</ele>
        <time>2023-05-02T07:35:39Z</time>
      </trkpt>
      <trkpt lat="45.98357" lon="1.26855">
        <ele>380.6</ele>
        <time>2023-05-02T07:35:41Z</time>
      </trkpt>
      <trkpt lat="45.98372" lon="1.26901">
        <ele>379.6</ele>
        <time>2023-05-02T07:35:45Z</time>
      </trkpt>
      <trkpt lat="45.9838" lon="1.26924">
        <ele>379.2</ele>
        <time>2023-05-02T07:35:47Z</time>
      </trkpt>
      <trkpt lat="45.98392" lon="1.26943">
        <ele>378.6</ele>
        <time>2023-05-02T07:35:49Z</time>
      </trkpt>
      <trkpt lat="45.98421" lon="1.26966">
        <ele>377.8</ele>
        <time>2023-05-02T07:35:53Z</time>
      </trkpt>
      <trkpt lat="45.98452" lon="1.26985">
        <ele>377.4</ele>
        <time>2023-05-02T07:35:58Z</time>
      </trkpt>
      <trkpt lat="45.98481" lon="1.27005">
        <ele>376.8</ele>
        <time>2023-05-02T07:36:04Z</time>
      </trkpt>
      <trkpt lat="45.98516" lon="1.27027">
        <ele>376.4</ele>
        <time>2023-05-02T07:36:12Z</time>
      </trkpt>
      <trkpt lat="45.98546" lon="1.27045">
        <ele>376</ele>
        <time>2023-05-02T07:36:20Z</time>
      </trkpt>
      <trkpt lat="45.98559" lon="1.2704">
        <ele>375.8</ele>
        <time>2023-05-02T07:36:24Z</time>
      </trkpt>
      <trkpt lat="45.98569" lon="1.27018">
        <ele>375.8</ele>
        <time>2023-05-02T07:36:29Z</time>
      </trkpt>
      <trkpt lat="45.98573" lon="1.27001">
        <ele>375.8</ele>
        <time>2023-05-02T07:36:32Z</time>
      </trkpt>
      <trkpt lat="45.98578" lon="1.2699">
        <ele>375.6</ele>
        <time>2023-05-02T07:36:34Z</time>
      </trkpt>
      <trkpt lat="45.98598" lon="1.26955">
        <ele>375.6</ele>
        <time>2023-05-02T07:36:40Z</time>
      </trkpt>
      <trkpt lat="45.98618" lon="1.26931">
        <ele>375.6</ele>
        <time>2023-05-02T07:36:45Z</time>
      </trkpt>
      <trkpt lat="45.98623" lon="1.26928">
        <ele>375.4</ele>
        <time>2023-05-02T07:36:48Z</time>
      </trkpt>
      <trkpt lat="45.98623" lon="1.26928">
        <ele>375.4</ele>
        <time>2023-05-02T07:36:49Z</time>
      </trkpt>
      <trkpt lat="45.98627" lon="1.26928">
        <ele>374.8</ele>
        <time>2023-05-02T07:37:23Z</time>
      </trkpt>
      <trkpt lat="45.98629" lon="1.26928">
        <ele>374.8</ele>
        <time>2023-05-02T07:37:24Z</time>
      </trkpt>
      <trkpt lat="45.98636" lon="1.26931">
        <ele>374.6</ele>
        <time>2023-05-02T07:37:27Z</time>
      </trkpt>
      <trkpt lat="45.98638" lon="1.26933">
        <ele>374.6</ele>
        <time>2023-05-02T07:37:28Z</time>
      </trkpt>
      <trkpt lat="45.98645" lon="1.26935">
        <ele>374.2</ele>
        <time>2023-05-02T07:37:31Z</time>
      </trkpt>
      <trkpt lat="45.98646" lon="1.26936">
        <ele>374.2</ele>
        <time>2023-05-02T07:37:32Z</time>
      </trkpt>
      <trkpt lat="45.98646" lon="1.26936">
        <ele>374.2</ele>
        <time>2023-05-02T07:37:33Z</time>
      </trkpt>
      <trkpt lat="45.98654" lon="1.2694">
        <ele>373.8</ele>
        <time>2023-05-02T07:37:41Z</time>
      </trkpt>
      <trkpt lat="45.9866" lon="1.26943">
        <ele>373.6</ele>
        <time>2023-05-02T07:37:43Z</time>
      </trkpt>
      <trkpt lat="45.98663" lon="1.26945">
        <ele>373.6</ele>
        <time>2023-05-02T07:37:44Z</time>
      </trkpt>
      <trkpt lat="45.98674" lon="1.26951">
        <ele>373.4</ele>
        <time>2023-05-02T07:37:47Z</time>
      </trkpt>
      <trkpt lat="45.98687" lon="1.26957">
        <ele>373.4</ele>
        <time>2023-05-02T07:37:50Z</time>
      </trkpt>
      <trkpt lat="45.98713" lon="1.26965">
        <ele>373</ele>
        <time>2023-05-02T07:37:54Z</time>
      </trkpt>
      <trkpt lat="45.9872" lon="1.26965">
        <ele>372.8</ele>
        <time>2023-05-02T07:37:55Z</time>
      </trkpt>
      <trkpt lat="45.98728" lon="1.26965">
        <ele>372.6</ele>
        <time>2023-05-02T07:37:56Z</time>
      </trkpt>
      <trkpt lat="45.9875" lon="1.2696">
        <ele>372.2</ele>
        <time>2023-05-02T07:37:59Z</time>
      </trkpt>
      <trkpt lat="45.98776" lon="1.26945">
        <ele>371.6</ele>
        <time>2023-05-02T07:38:03Z</time>
      </trkpt>
      <trkpt lat="45.98801" lon="1.26924">
        <ele>371.2</ele>
        <time>2023-05-02T07:38:07Z</time>
      </trkpt>
      <trkpt lat="45.98828" lon="1.269">
        <ele>371</ele>
        <time>2023-05-02T07:38:13Z</time>
      </trkpt>
      <trkpt lat="45.98851" lon="1.26882">
        <ele>370.6</ele>
        <time>2023-05-02T07:38:18Z</time>
      </trkpt>
      <trkpt lat="45.9886" lon="1.26876">
        <ele>370.4</ele>
        <time>2023-05-02T07:38:20Z</time>
      </trkpt>
      <trkpt lat="45.98884" lon="1.2686">
        <ele>370</ele>
        <time>2023-05-02T07:38:26Z</time>
      </trkpt>
      <trkpt lat="45.98896" lon="1.26855">
        <ele>369.8</ele>
        <time>2023-05-02T07:38:29Z</time>
      </trkpt>
      <trkpt lat="45.98904" lon="1.26852">
        <ele>369.8</ele>
        <time>2023-05-02T07:38:31Z</time>
      </trkpt>
      <trkpt lat="45.98933" lon="1.26836">
        <ele>369.8</ele>
        <time>2023-05-02T07:38:39Z</time>
      </trkpt>
      <trkpt lat="45.9895" lon="1.26822">
        <ele>369.6</ele>
        <time>2023-05-02T07:38:45Z</time>
      </trkpt>
      <trkpt lat="45.9896" lon="1.26817">
        <ele>369.4</ele>
        <time>2023-05-02T07:38:49Z</time>
      </trkpt>
      <trkpt lat="45.98976" lon="1.26806">
        <ele>369</ele>
        <time>2023-05-02T07:38:56Z</time>
      </trkpt>
      <trkpt lat="45.98987" lon="1.26802">
        <ele>368.8</ele>
        <time>2023-05-02T07:39:01Z</time>
      </trkpt>
      <trkpt lat="45.99001" lon="1.26796">
        <ele>369</ele>
        <time>2023-05-02T07:39:07Z</time>
      </trkpt>
      <trkpt lat="45.99012" lon="1.26794">
        <ele>369.4</ele>
        <time>2023-05-02T07:39:12Z</time>
      </trkpt>
      <trkpt lat="45.99021" lon="1.26793">
        <ele>369.8</ele>
        <time>2023-05-02T07:39:16Z</time>
      </trkpt>
      <trkpt lat="45.99036" lon="1.26788">
        <ele>369.6</ele>
        <time>2023-05-02T07:39:22Z</time>
      </trkpt>
      <trkpt lat="45.9905" lon="1.26785">
        <ele>369.2</ele>
        <time>2023-05-02T07:39:28Z</time>
      </trkpt>
      <trkpt lat="45.99064" lon="1.26781">
        <ele>369.6</ele>
        <time>2023-05-02T07:39:34Z</time>
      </trkpt>
      <trkpt lat="45.99071" lon="1.2678">
        <ele>370</ele>
        <time>2023-05-02T07:39:37Z</time>
      </trkpt>
      <trkpt lat="45.99075" lon="1.2678">
        <ele>370</ele>
        <time>2023-05-02T07:39:39Z</time>
      </trkpt>
      <trkpt lat="45.99083" lon="1.2678">
        <ele>370.2</ele>
        <time>2023-05-02T07:39:43Z</time>
      </trkpt>
      <trkpt lat="45.99093" lon="1.26778">
        <ele>370.8</ele>
        <time>2023-05-02T07:39:49Z</time>
      </trkpt>
      <trkpt lat="45.99105" lon="1.26777">
        <ele>371.4</ele>
        <time>2023-05-02T07:39:56Z</time>
      </trkpt>
      <trkpt lat="45.99121" lon="1.26772">
        <ele>372.2</ele>
        <time>2023-05-02T07:40:02Z</time>
      </trkpt>
      <trkpt lat="45.99133" lon="1.26767">
        <ele>373</ele>
        <time>2023-05-02T07:40:07Z</time>
      </trkpt>
      <trkpt lat="45.99152" lon="1.2676">
        <ele>373.2</ele>
        <time>2023-05-02T07:40:13Z</time>
      </trkpt>
      <trkpt lat="45.99163" lon="1.26769">
        <ele>373.6</ele>
        <time>2023-05-02T07:40:18Z</time>
      </trkpt>
      <trkpt lat="45.99175" lon="1.26781">
        <ele>374.2</ele>
        <time>2023-05-02T07:40:25Z</time>
      </trkpt>
      <trkpt lat="45.99187" lon="1.26792">
        <ele>374.6</ele>
        <time>2023-05-02T07:40:30Z</time>
      </trkpt>
      <trkpt lat="45.99203" lon="1.26808">
        <ele>375.2</ele>
        <time>2023-05-02T07:40:38Z</time>
      </trkpt>
      <trkpt lat="45.99216" lon="1.2682">
        <ele>375.8</ele>
        <time>2023-05-02T07:40:44Z</time>
      </trkpt>
      <trkpt lat="45.99231" lon="1.26836">
        <ele>376.8</ele>
        <time>2023-05-02T07:40:51Z</time>
      </trkpt>
      <trkpt lat="45.99251" lon="1.26854">
        <ele>377.6</ele>
        <time>2023-05-02T07:40:59Z</time>
      </trkpt>
      <trkpt lat="45.99263" lon="1.26861">
        <ele>378.2</ele>
        <time>2023-05-02T07:41:04Z</time>
      </trkpt>
      <trkpt lat="45.99265" lon="1.26859">
        <ele>378.2</ele>
        <time>2023-05-02T07:41:05Z</time>
      </trkpt>
      <trkpt lat="45.99267" lon="1.26855">
        <ele>378.2</ele>
        <time>2023-05-02T07:41:06Z</time>
      </trkpt>
      <trkpt lat="45.99266" lon="1.26845">
        <ele>378.4</ele>
        <time>2023-05-02T07:41:08Z</time>
      </trkpt>
      <trkpt lat="45.99261" lon="1.26809">
        <ele>378.6</ele>
        <time>2023-05-02T07:41:13Z</time>
      </trkpt>
      <trkpt lat="45.99262" lon="1.26801">
        <ele>378.6</ele>
        <time>2023-05-02T07:41:14Z</time>
      </trkpt>
      <trkpt lat="45.99265" lon="1.26783">
        <ele>378.8</ele>
        <time>2023-05-02T07:41:16Z</time>
      </trkpt>
      <trkpt lat="45.99268" lon="1.26773">
        <ele>378.8</ele>
        <time>2023-05-02T07:41:17Z</time>
      </trkpt>
      <trkpt lat="45.99272" lon="1.26764">
        <ele>378.8</ele>
        <time>2023-05-02T07:41:18Z</time>
      </trkpt>
      <trkpt lat="45.99282" lon="1.26749">
        <ele>378.8</ele>
        <time>2023-05-02T07:41:20Z</time>
      </trkpt>
      <trkpt lat="45.99315" lon="1.26719">
        <ele>378.6</ele>
        <time>2023-05-02T07:41:25Z</time>
      </trkpt>
      <trkpt lat="45.99366" lon="1.26672">
        <ele>378.2</ele>
        <time>2023-05-02T07:41:33Z</time>
      </trkpt>
      <trkpt lat="45.99376" lon="1.26655">
        <ele>378</ele>
        <time>2023-05-02T07:41:35Z</time>
      </trkpt>
      <trkpt lat="45.99379" lon="1.26646">
        <ele>377.8</ele>
        <time>2023-05-02T07:41:36Z</time>
      </trkpt>
      <trkpt lat="45.99385" lon="1.26625">
        <ele>377.4</ele>
        <time>2023-05-02T07:41:38Z</time>
      </trkpt>
      <trkpt lat="45.99389" lon="1.26604">
        <ele>377</ele>
        <time>2023-05-02T07:41:40Z</time>
      </trkpt>
      <trkpt lat="45.99389" lon="1.26594">
        <ele>376.8</ele>
        <time>2023-05-02T07:41:41Z</time>
      </trkpt>
      <trkpt lat="45.99393" lon="1.26551">
        <ele>376.2</ele>
        <time>2023-05-02T07:41:45Z</time>
      </trkpt>
      <trkpt lat="45.99399" lon="1.26529">
        <ele>375.8</ele>
        <time>2023-05-02T07:41:47Z</time>
      </trkpt>
      <trkpt lat="45.99408" lon="1.26511">
        <ele>375.6</ele>
        <time>2023-05-02T07:41:49Z</time>
      </trkpt>
      <trkpt lat="45.99432" lon="1.26482">
        <ele>375</ele>
        <time>2023-05-02T07:41:53Z</time>
      </trkpt>
      <trkpt lat="45.9947" lon="1.26444">
        <ele>374.2</ele>
        <time>2023-05-02T07:41:59Z</time>
      </trkpt>
      <trkpt lat="45.99513" lon="1.26401">
        <ele>373</ele>
        <time>2023-05-02T07:42:06Z</time>
      </trkpt>
      <trkpt lat="45.99561" lon="1.2635">
        <ele>371.6</ele>
        <time>2023-05-02T07:42:14Z</time>
      </trkpt>
      <trkpt lat="45.99598" lon="1.26313">
        <ele>370.6</ele>
        <time>2023-05-02T07:42:20Z</time>
      </trkpt>
      <trkpt lat="45.99647" lon="1.2626">
        <ele>369</ele>
        <time>2023-05-02T07:42:28Z</time>
      </trkpt>
      <trkpt lat="45.99677" lon="1.26226">
        <ele>367.8</ele>
        <time>2023-05-02T07:42:33Z</time>
      </trkpt>
      <trkpt lat="45.99699" lon="1.26197">
        <ele>366.6</ele>
        <time>2023-05-02T07:42:37Z</time>
      </trkpt>
      <trkpt lat="45.99738" lon="1.26143">
        <ele>364.2</ele>
        <time>2023-05-02T07:42:44Z</time>
      </trkpt>
      <trkpt lat="45.99769" lon="1.261">
        <ele>363.4</ele>
        <time>2023-05-02T07:42:49Z</time>
      </trkpt>
      <trkpt lat="45.99805" lon="1.26048">
        <ele>361.8</ele>
        <time>2023-05-02T07:42:55Z</time>
      </trkpt>
      <trkpt lat="45.99815" lon="1.26038">
        <ele>360.8</ele>
        <time>2023-05-02T07:42:58Z</time>
      </trkpt>
      <trkpt lat="45.9983" lon="1.26031">
        <ele>359.2</ele>
        <time>2023-05-02T07:43:03Z</time>
      </trkpt>
      <trkpt lat="45.99841" lon="1.26027">
        <ele>358.2</ele>
        <time>2023-05-02T07:43:07Z</time>
      </trkpt>
      <trkpt lat="45.99852" lon="1.26021">
        <ele>357.4</ele>
        <time>2023-05-02T07:43:10Z</time>
      </trkpt>
      <trkpt lat="45.99857" lon="1.2602">
        <ele>357</ele>
        <time>2023-05-02T07:43:11Z</time>
      </trkpt>
      <trkpt lat="45.9986" lon="1.2602">
        <ele>356.8</ele>
        <time>2023-05-02T07:43:12Z</time>
      </trkpt>
      <trkpt lat="45.99868" lon="1.26018">
        <ele>356.2</ele>
        <time>2023-05-02T07:43:14Z</time>
      </trkpt>
      <trkpt lat="45.99877" lon="1.26018">
        <ele>355.8</ele>
        <time>2023-05-02T07:43:16Z</time>
      </trkpt>
      <trkpt lat="45.99887" lon="1.26018">
        <ele>355.4</ele>
        <time>2023-05-02T07:43:18Z</time>
      </trkpt>
      <trkpt lat="45.99903" lon="1.2602">
        <ele>354.6</ele>
        <time>2023-05-02T07:43:21Z</time>
      </trkpt>
      <trkpt lat="45.99908" lon="1.26021">
        <ele>354.6</ele>
        <time>2023-05-02T07:43:22Z</time>
      </trkpt>
      <trkpt lat="45.99913" lon="1.26022">
        <ele>354.4</ele>
        <time>2023-05-02T07:43:23Z</time>
      </trkpt>
      <trkpt lat="45.99922" lon="1.26024">
        <ele>354</ele>
        <time>2023-05-02T07:43:25Z</time>
      </trkpt>
      <trkpt lat="45.99932" lon="1.26027">
        <ele>353.8</ele>
        <time>2023-05-02T07:43:27Z</time>
      </trkpt>
      <trkpt lat="45.99941" lon="1.26034">
        <ele>353.8</ele>
        <time>2023-05-02T07:43:29Z</time>
      </trkpt>
      <trkpt lat="45.99946" lon="1.26038">
        <ele>353.6</ele>
        <time>2023-05-02T07:43:30Z</time>
      </trkpt>
      <trkpt lat="45.9995" lon="1.26042">
        <ele>353.6</ele>
        <time>2023-05-02T07:43:31Z</time>
      </trkpt>
      <trkpt lat="45.99967" lon="1.26058">
        <ele>353.2</ele>
        <time>2023-05-02T07:43:35Z</time>
      </trkpt>
      <trkpt lat="45.99981" lon="1.26071">
        <ele>352.8</ele>
        <time>2023-05-02T07:43:39Z</time>
      </trkpt>
      <trkpt lat="45.99996" lon="1.2608">
        <ele>352.2</ele>
        <time>2023-05-02T07:43:43Z</time>
      </trkpt>
      <trkpt lat="46.0001" lon="1.26093">
        <ele>351.6</ele>
        <time>2023-05-02T07:43:47Z</time>
      </trkpt>
      <trkpt lat="46.00014" lon="1.26096">
        <ele>351.6</ele>
        <time>2023-05-02T07:43:48Z</time>
      </trkpt>
      <trkpt lat="46.00031" lon="1.2611">
        <ele>351.2</ele>
        <time>2023-05-02T07:43:52Z</time>
      </trkpt>
      <trkpt lat="46.00034" lon="1.26114">
        <ele>351</ele>
        <time>2023-05-02T07:43:53Z</time>
      </trkpt>
      <trkpt lat="46.00049" lon="1.2613">
        <ele>351</ele>
        <time>2023-05-02T07:43:57Z</time>
      </trkpt>
      <trkpt lat="46.00072" lon="1.26154">
        <ele>350.4</ele>
        <time>2023-05-02T07:44:03Z</time>
      </trkpt>
      <trkpt lat="46.00087" lon="1.26162">
        <ele>350</ele>
        <time>2023-05-02T07:44:07Z</time>
      </trkpt>
      <trkpt lat="46.00095" lon="1.26159">
        <ele>349.8</ele>
        <time>2023-05-02T07:44:09Z</time>
      </trkpt>
      <trkpt lat="46.00103" lon="1.26154">
        <ele>349.6</ele>
        <time>2023-05-02T07:44:11Z</time>
      </trkpt>
      <trkpt lat="46.00117" lon="1.26148">
        <ele>349.4</ele>
        <time>2023-05-02T07:44:14Z</time>
      </trkpt>
      <trkpt lat="46.00135" lon="1.26141">
        <ele>349.2</ele>
        <time>2023-05-02T07:44:18Z</time>
      </trkpt>
      <trkpt lat="46.00152" lon="1.26135">
        <ele>349</ele>
        <time>2023-05-02T07:44:22Z</time>
      </trkpt>
      <trkpt lat="46.0016" lon="1.26128">
        <ele>349</ele>
        <time>2023-05-02T07:44:24Z</time>
      </trkpt>
      <trkpt lat="46.0018" lon="1.26107">
        <ele>348.8</ele>
        <time>2023-05-02T07:44:29Z</time>
      </trkpt>
      <trkpt lat="46.00189" lon="1.26101">
        <ele>348.6</ele>
        <time>2023-05-02T07:44:31Z</time>
      </trkpt>
      <trkpt lat="46.00199" lon="1.26097">
        <ele>348.6</ele>
        <time>2023-05-02T07:44:33Z</time>
      </trkpt>
      <trkpt lat="46.00208" lon="1.26097">
        <ele>348.4</ele>
        <time>2023-05-02T07:44:35Z</time>
      </trkpt>
      <trkpt lat="46.00237" lon="1.26107">
        <ele>347.8</ele>
        <time>2023-05-02T07:44:42Z</time>
      </trkpt>
      <trkpt lat="46.00266" lon="1.26117">
        <ele>347.6</ele>
        <time>2023-05-02T07:44:49Z</time>
      </trkpt>
      <trkpt lat="46.00274" lon="1.26119">
        <ele>347.4</ele>
        <time>2023-05-02T07:44:51Z</time>
      </trkpt>
      <trkpt lat="46.00302" lon="1.26124">
        <ele>347.6</ele>
        <time>2023-05-02T07:44:58Z</time>
      </trkpt>
      <trkpt lat="46.0032" lon="1.26114">
        <ele>347.6</ele>
        <time>2023-05-02T07:45:03Z</time>
      </trkpt>
      <trkpt lat="46.00334" lon="1.26089">
        <ele>348</ele>
        <time>2023-05-02T07:45:09Z</time>
      </trkpt>
      <trkpt lat="46.00343" lon="1.26067">
        <ele>348.2</ele>
        <time>2023-05-02T07:45:14Z</time>
      </trkpt>
      <trkpt lat="46.00355" lon="1.26058">
        <ele>348.6</ele>
        <time>2023-05-02T07:45:18Z</time>
      </trkpt>
      <trkpt lat="46.00358" lon="1.26059">
        <ele>348.6</ele>
        <time>2023-05-02T07:45:19Z</time>
      </trkpt>
      <trkpt lat="46.00371" lon="1.26076">
        <ele>348.8</ele>
        <time>2023-05-02T07:45:24Z</time>
      </trkpt>
      <trkpt lat="46.00389" lon="1.26103">
        <ele>349.6</ele>
        <time>2023-05-02T07:45:32Z</time>
      </trkpt>
      <trkpt lat="46.00396" lon="1.26123">
        <ele>350</ele>
        <time>2023-05-02T07:45:38Z</time>
      </trkpt>
      <trkpt lat="46.00402" lon="1.26137">
        <ele>350.2</ele>
        <time>2023-05-02T07:45:43Z</time>
      </trkpt>
      <trkpt lat="46.00412" lon="1.26152">
        <ele>350.8</ele>
        <time>2023-05-02T07:45:49Z</time>
      </trkpt>
      <trkpt lat="46.00424" lon="1.26168">
        <ele>351.6</ele>
        <time>2023-05-02T07:45:55Z</time>
      </trkpt>
      <trkpt lat="46.00442" lon="1.26187">
        <ele>352.2</ele>
        <time>2023-05-02T07:46:02Z</time>
      </trkpt>
      <trkpt lat="46.00459" lon="1.26209">
        <ele>353</ele>
        <time>2023-05-02T07:46:10Z</time>
      </trkpt>
      <trkpt lat="46.00463" lon="1.26226">
        <ele>353</ele>
        <time>2023-05-02T07:46:15Z</time>
      </trkpt>
      <trkpt lat="46.0047" lon="1.26243">
        <ele>353.2</ele>
        <time>2023-05-02T07:46:20Z</time>
      </trkpt>
      <trkpt lat="46.00478" lon="1.26255">
        <ele>353</ele>
        <time>2023-05-02T07:46:23Z</time>
      </trkpt>
      <trkpt lat="46.00485" lon="1.26263">
        <ele>353.2</ele>
        <time>2023-05-02T07:46:25Z</time>
      </trkpt>
      <trkpt lat="46.005" lon="1.26276">
        <ele>353</ele>
        <time>2023-05-02T07:46:30Z</time>
      </trkpt>
      <trkpt lat="46.00514" lon="1.26277">
        <ele>353.2</ele>
        <time>2023-05-02T07:46:34Z</time>
      </trkpt>
      <trkpt lat="46.00529" lon="1.26282">
        <ele>353.6</ele>
        <time>2023-05-02T07:46:39Z</time>
      </trkpt>
      <trkpt lat="46.00543" lon="1.26286">
        <ele>354</ele>
        <time>2023-05-02T07:46:44Z</time>
      </trkpt>
      <trkpt lat="46.00556" lon="1.2629">
        <ele>355</ele>
        <time>2023-05-02T07:46:49Z</time>
      </trkpt>
      <trkpt lat="46.0057" lon="1.26296">
        <ele>355.4</ele>
        <time>2023-05-02T07:46:54Z</time>
      </trkpt>
      <trkpt lat="46.00592" lon="1.26306">
        <ele>356</ele>
        <time>2023-05-02T07:47:00Z</time>
      </trkpt>
      <trkpt lat="46.00609" lon="1.26314">
        <ele>356.4</ele>
        <time>2023-05-02T07:47:05Z</time>
      </trkpt>
      <trkpt lat="46.00624" lon="1.26326">
        <ele>356.8</ele>
        <time>2023-05-02T07:47:10Z</time>
      </trkpt>
      <trkpt lat="46.00639" lon="1.26337">
        <ele>357.2</ele>
        <time>2023-05-02T07:47:15Z</time>
      </trkpt>
      <trkpt lat="46.00651" lon="1.26339">
        <ele>357.4</ele>
        <time>2023-05-02T07:47:19Z</time>
      </trkpt>
      <trkpt lat="46.00661" lon="1.26333">
        <ele>357.8</ele>
        <time>2023-05-02T07:47:23Z</time>
      </trkpt>
      <trkpt lat="46.00669" lon="1.26307">
        <ele>358.4</ele>
        <time>2023-05-02T07:47:31Z</time>
      </trkpt>
      <trkpt lat="46.00674" lon="1.26281">
        <ele>359.2</ele>
        <time>2023-05-02T07:47:38Z</time>
      </trkpt>
      <trkpt lat="46.00675" lon="1.26261">
        <ele>359.8</ele>
        <time>2023-05-02T07:47:44Z</time>
      </trkpt>
      <trkpt lat="46.00677" lon="1.26235">
        <ele>360.6</ele>
        <time>2023-05-02T07:47:52Z</time>
      </trkpt>
      <trkpt lat="46.0068" lon="1.26208">
        <ele>361.8</ele>
        <time>2023-05-02T07:48:00Z</time>
      </trkpt>
      <trkpt lat="46.00684" lon="1.2618">
        <ele>362.6</ele>
        <time>2023-05-02T07:48:08Z</time>
      </trkpt>
      <trkpt lat="46.00695" lon="1.26172">
        <ele>363</ele>
        <time>2023-05-02T07:48:12Z</time>
      </trkpt>
      <trkpt lat="46.00713" lon="1.26168">
        <ele>363.4</ele>
        <time>2023-05-02T07:48:16Z</time>
      </trkpt>
      <trkpt lat="46.00718" lon="1.26167">
        <ele>363.4</ele>
        <time>2023-05-02T07:48:17Z</time>
      </trkpt>
      <trkpt lat="46.00724" lon="1.26166">
        <ele>363.6</ele>
        <time>2023-05-02T07:48:18Z</time>
      </trkpt>
      <trkpt lat="46.00737" lon="1.26168">
        <ele>363.6</ele>
        <time>2023-05-02T07:48:20Z</time>
      </trkpt>
      <trkpt lat="46.00743" lon="1.2617">
        <ele>363.8</ele>
        <time>2023-05-02T07:48:21Z</time>
      </trkpt>
      <trkpt lat="46.00748" lon="1.26173">
        <ele>363.8</ele>
        <time>2023-05-02T07:48:22Z</time>
      </trkpt>
      <trkpt lat="46.00761" lon="1.26182">
        <ele>363.8</ele>
        <time>2023-05-02T07:48:24Z</time>
      </trkpt>
      <trkpt lat="46.00776" lon="1.26189">
        <ele>364</ele>
        <time>2023-05-02T07:48:26Z</time>
      </trkpt>
      <trkpt lat="46.00786" lon="1.26191">
        <ele>364.2</ele>
        <time>2023-05-02T07:48:27Z</time>
      </trkpt>
      <trkpt lat="46.00795" lon="1.26191">
        <ele>364.2</ele>
        <time>2023-05-02T07:48:28Z</time>
      </trkpt>
      <trkpt lat="46.00814" lon="1.26185">
        <ele>364.4</ele>
        <time>2023-05-02T07:48:30Z</time>
      </trkpt>
      <trkpt lat="46.00868" lon="1.2617">
        <ele>365.4</ele>
        <time>2023-05-02T07:48:35Z</time>
      </trkpt>
      <trkpt lat="46.00917" lon="1.26152">
        <ele>365.6</ele>
        <time>2023-05-02T07:48:39Z</time>
      </trkpt>
      <trkpt lat="46.00962" lon="1.26118">
        <ele>365.8</ele>
        <time>2023-05-02T07:48:43Z</time>
      </trkpt>
      <trkpt lat="46.00998" lon="1.26071">
        <ele>365.4</ele>
        <time>2023-05-02T07:48:47Z</time>
      </trkpt>
      <trkpt lat="46.01009" lon="1.26043">
        <ele>365.6</ele>
        <time>2023-05-02T07:48:49Z</time>
      </trkpt>
      <trkpt lat="46.01013" lon="1.26028">
        <ele>364</ele>
        <time>2023-05-02T07:48:50Z</time>
      </trkpt>
      <trkpt lat="46.01018" lon="1.25987">
        <ele>363.2</ele>
        <time>2023-05-02T07:48:53Z</time>
      </trkpt>
      <trkpt lat="46.01018" lon="1.25975">
        <ele>363</ele>
        <time>2023-05-02T07:48:54Z</time>
      </trkpt>
      <trkpt lat="46.01017" lon="1.25964">
        <ele>362.6</ele>
        <time>2023-05-02T07:48:55Z</time>
      </trkpt>
      <trkpt lat="46.01013" lon="1.25945">
        <ele>362.2</ele>
        <time>2023-05-02T07:48:57Z</time>
      </trkpt>
      <trkpt lat="46.01003" lon="1.2592">
        <ele>361.2</ele>
        <time>2023-05-02T07:49:01Z</time>
      </trkpt>
      <trkpt lat="46.00992" lon="1.25892">
        <ele>360.6</ele>
        <time>2023-05-02T07:49:07Z</time>
      </trkpt>
      <trkpt lat="46.00987" lon="1.25859">
        <ele>360</ele>
        <time>2023-05-02T07:49:13Z</time>
      </trkpt>
      <trkpt lat="46.00992" lon="1.2584">
        <ele>359.6</ele>
        <time>2023-05-02T07:49:17Z</time>
      </trkpt>
      <trkpt lat="46.01003" lon="1.25823">
        <ele>359</ele>
        <time>2023-05-02T07:49:22Z</time>
      </trkpt>
      <trkpt lat="46.01012" lon="1.25813">
        <ele>358.4</ele>
        <time>2023-05-02T07:49:27Z</time>
      </trkpt>
      <trkpt lat="46.01027" lon="1.25809">
        <ele>358.2</ele>
        <time>2023-05-02T07:49:32Z</time>
      </trkpt>
      <trkpt lat="46.01046" lon="1.25805">
        <ele>358.4</ele>
        <time>2023-05-02T07:49:38Z</time>
      </trkpt>
      <trkpt lat="46.01065" lon="1.25807">
        <ele>358</ele>
        <time>2023-05-02T07:49:44Z</time>
      </trkpt>
      <trkpt lat="46.01075" lon="1.25812">
        <ele>359</ele>
        <time>2023-05-02T07:49:48Z</time>
      </trkpt>
      <trkpt lat="46.01078" lon="1.25813">
        <ele>359.2</ele>
        <time>2023-05-02T07:49:50Z</time>
      </trkpt>
      <trkpt lat="46.0108" lon="1.25813">
        <ele>359.4</ele>
        <time>2023-05-02T07:49:53Z</time>
      </trkpt>
      <trkpt lat="46.01082" lon="1.2581">
        <ele>359.4</ele>
        <time>2023-05-02T07:50:53Z</time>
      </trkpt>
      <trkpt lat="46.01087" lon="1.25809">
        <ele>359.4</ele>
        <time>2023-05-02T07:50:55Z</time>
      </trkpt>
      <trkpt lat="46.01105" lon="1.25804">
        <ele>359.6</ele>
        <time>2023-05-02T07:51:01Z</time>
      </trkpt>
      <trkpt lat="46.01136" lon="1.25787">
        <ele>359.8</ele>
        <time>2023-05-02T07:51:09Z</time>
      </trkpt>
      <trkpt lat="46.01159" lon="1.25773">
        <ele>359.6</ele>
        <time>2023-05-02T07:51:14Z</time>
      </trkpt>
      <trkpt lat="46.0117" lon="1.25767">
        <ele>359.6</ele>
        <time>2023-05-02T07:51:16Z</time>
      </trkpt>
      <trkpt lat="46.01181" lon="1.25766">
        <ele>359.6</ele>
        <time>2023-05-02T07:51:18Z</time>
      </trkpt>
      <trkpt lat="46.01187" lon="1.25766">
        <ele>359.6</ele>
        <time>2023-05-02T07:51:19Z</time>
      </trkpt>
      <trkpt lat="46.01214" lon="1.25765">
        <ele>359.4</ele>
        <time>2023-05-02T07:51:24Z</time>
      </trkpt>
      <trkpt lat="46.01219" lon="1.25763">
        <ele>359.4</ele>
        <time>2023-05-02T07:51:25Z</time>
      </trkpt>
      <trkpt lat="46.01224" lon="1.2576">
        <ele>359.4</ele>
        <time>2023-05-02T07:51:26Z</time>
      </trkpt>
      <trkpt lat="46.01241" lon="1.25748">
        <ele>359.4</ele>
        <time>2023-05-02T07:51:30Z</time>
      </trkpt>
      <trkpt lat="46.01262" lon="1.2573">
        <ele>359.2</ele>
        <time>2023-05-02T07:51:35Z</time>
      </trkpt>
      <trkpt lat="46.01271" lon="1.25723">
        <ele>359.2</ele>
        <time>2023-05-02T07:51:37Z</time>
      </trkpt>
      <trkpt lat="46.01288" lon="1.25717">
        <ele>359.2</ele>
        <time>2023-05-02T07:51:41Z</time>
      </trkpt>
      <trkpt lat="46.0132" lon="1.25719">
        <ele>359.8</ele>
        <time>2023-05-02T07:51:48Z</time>
      </trkpt>
      <trkpt lat="46.01354" lon="1.25725">
        <ele>359.8</ele>
        <time>2023-05-02T07:51:54Z</time>
      </trkpt>
      <trkpt lat="46.01397" lon="1.25732">
        <ele>360.2</ele>
        <time>2023-05-02T07:52:01Z</time>
      </trkpt>
      <trkpt lat="46.01436" lon="1.25733">
        <ele>360.2</ele>
        <time>2023-05-02T07:52:07Z</time>
      </trkpt>
      <trkpt lat="46.01455" lon="1.25734">
        <ele>360.2</ele>
        <time>2023-05-02T07:52:10Z</time>
      </trkpt>
      <trkpt lat="46.01467" lon="1.25743">
        <ele>360.2</ele>
        <time>2023-05-02T07:52:12Z</time>
      </trkpt>
      <trkpt lat="46.01477" lon="1.25757">
        <ele>360</ele>
        <time>2023-05-02T07:52:14Z</time>
      </trkpt>
      <trkpt lat="46.01485" lon="1.25775">
        <ele>359.8</ele>
        <time>2023-05-02T07:52:16Z</time>
      </trkpt>
      <trkpt lat="46.01495" lon="1.25801">
        <ele>359.6</ele>
        <time>2023-05-02T07:52:19Z</time>
      </trkpt>
      <trkpt lat="46.01506" lon="1.25813">
        <ele>359.8</ele>
        <time>2023-05-02T07:52:21Z</time>
      </trkpt>
      <trkpt lat="46.01523" lon="1.25824">
        <ele>359.6</ele>
        <time>2023-05-02T07:52:24Z</time>
      </trkpt>
      <trkpt lat="46.01529" lon="1.25825">
        <ele>359.6</ele>
        <time>2023-05-02T07:52:25Z</time>
      </trkpt>
      <trkpt lat="46.0156" lon="1.25836">
        <ele>359.4</ele>
        <time>2023-05-02T07:52:31Z</time>
      </trkpt>
      <trkpt lat="46.01577" lon="1.25832">
        <ele>359.4</ele>
        <time>2023-05-02T07:52:36Z</time>
      </trkpt>
      <trkpt lat="46.016" lon="1.25821">
        <ele>359</ele>
        <time>2023-05-02T07:52:42Z</time>
      </trkpt>
      <trkpt lat="46.01617" lon="1.25823">
        <ele>358.6</ele>
        <time>2023-05-02T07:52:46Z</time>
      </trkpt>
      <trkpt lat="46.01621" lon="1.25824">
        <ele>358.4</ele>
        <time>2023-05-02T07:52:47Z</time>
      </trkpt>
      <trkpt lat="46.01633" lon="1.25829">
        <ele>358.2</ele>
        <time>2023-05-02T07:52:50Z</time>
      </trkpt>
      <trkpt lat="46.0165" lon="1.25839">
        <ele>358.2</ele>
        <time>2023-05-02T07:52:54Z</time>
      </trkpt>
      <trkpt lat="46.01662" lon="1.25852">
        <ele>358.4</ele>
        <time>2023-05-02T07:52:58Z</time>
      </trkpt>
      <trkpt lat="46.01675" lon="1.2587">
        <ele>358.6</ele>
        <time>2023-05-02T07:53:02Z</time>
      </trkpt>
      <trkpt lat="46.01677" lon="1.25875">
        <ele>358.6</ele>
        <time>2023-05-02T07:53:03Z</time>
      </trkpt>
      <trkpt lat="46.01687" lon="1.25905">
        <ele>358</ele>
        <time>2023-05-02T07:53:08Z</time>
      </trkpt>
      <trkpt lat="46.01701" lon="1.25934">
        <ele>357.6</ele>
        <time>2023-05-02T07:53:13Z</time>
      </trkpt>
      <trkpt lat="46.01704" lon="1.25939">
        <ele>357.4</ele>
        <time>2023-05-02T07:53:14Z</time>
      </trkpt>
      <trkpt lat="46.01717" lon="1.25958">
        <ele>357</ele>
        <time>2023-05-02T07:53:18Z</time>
      </trkpt>
      <trkpt lat="46.01721" lon="1.25962">
        <ele>357</ele>
        <time>2023-05-02T07:53:19Z</time>
      </trkpt>
      <trkpt lat="46.01729" lon="1.25966">
        <ele>356.8</ele>
        <time>2023-05-02T07:53:21Z</time>
      </trkpt>
      <trkpt lat="46.0174" lon="1.25972">
        <ele>356.6</ele>
        <time>2023-05-02T07:53:24Z</time>
      </trkpt>
      <trkpt lat="46.0176" lon="1.25982">
        <ele>356.6</ele>
        <time>2023-05-02T07:53:29Z</time>
      </trkpt>
      <trkpt lat="46.01764" lon="1.25987">
        <ele>357</ele>
        <time>2023-05-02T07:53:30Z</time>
      </trkpt>
      <trkpt lat="46.01767" lon="1.25994">
        <ele>356.2</ele>
        <time>2023-05-02T07:53:31Z</time>
      </trkpt>
      <trkpt lat="46.01769" lon="1.26007">
        <ele>358.6</ele>
        <time>2023-05-02T07:53:33Z</time>
      </trkpt>
      <trkpt lat="46.01768" lon="1.2602">
        <ele>358</ele>
        <time>2023-05-02T07:53:35Z</time>
      </trkpt>
      <trkpt lat="46.01765" lon="1.26039">
        <ele>358.4</ele>
        <time>2023-05-02T07:53:38Z</time>
      </trkpt>
      <trkpt lat="46.01763" lon="1.26065">
        <ele>358.6</ele>
        <time>2023-05-02T07:53:42Z</time>
      </trkpt>
      <trkpt lat="46.01764" lon="1.26077">
        <ele>358.6</ele>
        <time>2023-05-02T07:53:44Z</time>
      </trkpt>
      <trkpt lat="46.01767" lon="1.26088">
        <ele>358.6</ele>
        <time>2023-05-02T07:53:46Z</time>
      </trkpt>
      <trkpt lat="46.01774" lon="1.26104">
        <ele>358.6</ele>
        <time>2023-05-02T07:53:49Z</time>
      </trkpt>
      <trkpt lat="46.01787" lon="1.26129">
        <ele>358.8</ele>
        <time>2023-05-02T07:53:53Z</time>
      </trkpt>
      <trkpt lat="46.01793" lon="1.26141">
        <ele>359</ele>
        <time>2023-05-02T07:53:55Z</time>
      </trkpt>
      <trkpt lat="46.01814" lon="1.2619">
        <ele>359.8</ele>
        <time>2023-05-02T07:54:03Z</time>
      </trkpt>
      <trkpt lat="46.01816" lon="1.26196">
        <ele>359.8</ele>
        <time>2023-05-02T07:54:04Z</time>
      </trkpt>
      <trkpt lat="46.01819" lon="1.2623">
        <ele>360.2</ele>
        <time>2023-05-02T07:54:09Z</time>
      </trkpt>
      <trkpt lat="46.0182" lon="1.26237">
        <ele>360.2</ele>
        <time>2023-05-02T07:54:10Z</time>
      </trkpt>
      <trkpt lat="46.01825" lon="1.26248">
        <ele>360.4</ele>
        <time>2023-05-02T07:54:12Z</time>
      </trkpt>
      <trkpt lat="46.01828" lon="1.26252">
        <ele>360.4</ele>
        <time>2023-05-02T07:54:13Z</time>
      </trkpt>
      <trkpt lat="46.0184" lon="1.26261">
        <ele>360.8</ele>
        <time>2023-05-02T07:54:17Z</time>
      </trkpt>
      <trkpt lat="46.01844" lon="1.26263">
        <ele>360.8</ele>
        <time>2023-05-02T07:54:19Z</time>
      </trkpt>
      <trkpt lat="46.0185" lon="1.2627">
        <ele>361.2</ele>
        <time>2023-05-02T07:54:22Z</time>
      </trkpt>
      <trkpt lat="46.01861" lon="1.26282">
        <ele>361.6</ele>
        <time>2023-05-02T07:54:26Z</time>
      </trkpt>
      <trkpt lat="46.01876" lon="1.26288">
        <ele>362.2</ele>
        <time>2023-05-02T07:54:31Z</time>
      </trkpt>
      <trkpt lat="46.01892" lon="1.26289">
        <ele>362.2</ele>
        <time>2023-05-02T07:54:35Z</time>
      </trkpt>
      <trkpt lat="46.01908" lon="1.26294">
        <ele>362.4</ele>
        <time>2023-05-02T07:54:39Z</time>
      </trkpt>
      <trkpt lat="46.01937" lon="1.26302">
        <ele>363.2</ele>
        <time>2023-05-02T07:54:46Z</time>
      </trkpt>
      <trkpt lat="46.01945" lon="1.26307">
        <ele>363.4</ele>
        <time>2023-05-02T07:54:48Z</time>
      </trkpt>
      <trkpt lat="46.01948" lon="1.2631">
        <ele>363.6</ele>
        <time>2023-05-02T07:54:50Z</time>
      </trkpt>
      <trkpt lat="46.01965" lon="1.26329">
        <ele>364</ele>
        <time>2023-05-02T07:54:55Z</time>
      </trkpt>
      <trkpt lat="46.0199" lon="1.26359">
        <ele>364.8</ele>
        <time>2023-05-02T07:55:03Z</time>
      </trkpt>
      <trkpt lat="46.02011" lon="1.26379">
        <ele>365.8</ele>
        <time>2023-05-02T07:55:10Z</time>
      </trkpt>
      <trkpt lat="46.02033" lon="1.26393">
        <ele>366.8</ele>
        <time>2023-05-02T07:55:17Z</time>
      </trkpt>
      <trkpt lat="46.02056" lon="1.26407">
        <ele>367.6</ele>
        <time>2023-05-02T07:55:24Z</time>
      </trkpt>
      <trkpt lat="46.02074" lon="1.26418">
        <ele>368.4</ele>
        <time>2023-05-02T07:55:30Z</time>
      </trkpt>
      <trkpt lat="46.02101" lon="1.26433">
        <ele>370</ele>
        <time>2023-05-02T07:55:39Z</time>
      </trkpt>
      <trkpt lat="46.02125" lon="1.26452">
        <ele>371.2</ele>
        <time>2023-05-02T07:55:47Z</time>
      </trkpt>
      <trkpt lat="46.02142" lon="1.26467">
        <ele>371.6</ele>
        <time>2023-05-02T07:55:53Z</time>
      </trkpt>
      <trkpt lat="46.02172" lon="1.26493">
        <ele>372.6</ele>
        <time>2023-05-02T07:56:03Z</time>
      </trkpt>
      <trkpt lat="46.02197" lon="1.26512">
        <ele>373.6</ele>
        <time>2023-05-02T07:56:11Z</time>
      </trkpt>
      <trkpt lat="46.02222" lon="1.2653">
        <ele>374.6</ele>
        <time>2023-05-02T07:56:19Z</time>
      </trkpt>
      <trkpt lat="46.0225" lon="1.26547">
        <ele>375.2</ele>
        <time>2023-05-02T07:56:28Z</time>
      </trkpt>
      <trkpt lat="46.02272" lon="1.26562">
        <ele>376</ele>
        <time>2023-05-02T07:56:36Z</time>
      </trkpt>
      <trkpt lat="46.02285" lon="1.26582">
        <ele>376.4</ele>
        <time>2023-05-02T07:56:42Z</time>
      </trkpt>
      <trkpt lat="46.02297" lon="1.26612">
        <ele>376.6</ele>
        <time>2023-05-02T07:56:50Z</time>
      </trkpt>
      <trkpt lat="46.02303" lon="1.26631">
        <ele>376.8</ele>
        <time>2023-05-02T07:56:55Z</time>
      </trkpt>
      <trkpt lat="46.02311" lon="1.2665">
        <ele>377</ele>
        <time>2023-05-02T07:57:01Z</time>
      </trkpt>
      <trkpt lat="46.02322" lon="1.26662">
        <ele>377.6</ele>
        <time>2023-05-02T07:57:05Z</time>
      </trkpt>
      <trkpt lat="46.02339" lon="1.26678">
        <ele>378.6</ele>
        <time>2023-05-02T07:57:11Z</time>
      </trkpt>
      <trkpt lat="46.02354" lon="1.26693">
        <ele>379.8</ele>
        <time>2023-05-02T07:57:17Z</time>
      </trkpt>
      <trkpt lat="46.02371" lon="1.26704">
        <ele>380.8</ele>
        <time>2023-05-02T07:57:23Z</time>
      </trkpt>
      <trkpt lat="46.02388" lon="1.26716">
        <ele>382.2</ele>
        <time>2023-05-02T07:57:29Z</time>
      </trkpt>
      <trkpt lat="46.02405" lon="1.26729">
        <ele>383.4</ele>
        <time>2023-05-02T07:57:35Z</time>
      </trkpt>
      <trkpt lat="46.02421" lon="1.26743">
        <ele>384.2</ele>
        <time>2023-05-02T07:57:41Z</time>
      </trkpt>
      <trkpt lat="46.02439" lon="1.26759">
        <ele>385.4</ele>
        <time>2023-05-02T07:57:48Z</time>
      </trkpt>
      <trkpt lat="46.02458" lon="1.26769">
        <ele>386.8</ele>
        <time>2023-05-02T07:57:55Z</time>
      </trkpt>
      <trkpt lat="46.02475" lon="1.26775">
        <ele>388.2</ele>
        <time>2023-05-02T07:58:01Z</time>
      </trkpt>
      <trkpt lat="46.02492" lon="1.26781">
        <ele>389.8</ele>
        <time>2023-05-02T07:58:07Z</time>
      </trkpt>
      <trkpt lat="46.02507" lon="1.26787">
        <ele>390.8</ele>
        <time>2023-05-02T07:58:12Z</time>
      </trkpt>
      <trkpt lat="46.02525" lon="1.26799">
        <ele>391.8</ele>
        <time>2023-05-02T07:58:18Z</time>
      </trkpt>
      <trkpt lat="46.02544" lon="1.2682">
        <ele>393.2</ele>
        <time>2023-05-02T07:58:25Z</time>
      </trkpt>
      <trkpt lat="46.0256" lon="1.26836">
        <ele>394</ele>
        <time>2023-05-02T07:58:31Z</time>
      </trkpt>
      <trkpt lat="46.02581" lon="1.26845">
        <ele>394.6</ele>
        <time>2023-05-02T07:58:38Z</time>
      </trkpt>
      <trkpt lat="46.02599" lon="1.26856">
        <ele>395.4</ele>
        <time>2023-05-02T07:58:44Z</time>
      </trkpt>
      <trkpt lat="46.02617" lon="1.2686">
        <ele>396.2</ele>
        <time>2023-05-02T07:58:50Z</time>
      </trkpt>
      <trkpt lat="46.02626" lon="1.26864">
        <ele>396.4</ele>
        <time>2023-05-02T07:58:54Z</time>
      </trkpt>
      <trkpt lat="46.02638" lon="1.26862">
        <ele>396.6</ele>
        <time>2023-05-02T07:58:59Z</time>
      </trkpt>
      <trkpt lat="46.02662" lon="1.2686">
        <ele>396.8</ele>
        <time>2023-05-02T07:59:07Z</time>
      </trkpt>
      <trkpt lat="46.02684" lon="1.26859">
        <ele>397</ele>
        <time>2023-05-02T07:59:13Z</time>
      </trkpt>
      <trkpt lat="46.0271" lon="1.2686">
        <ele>397</ele>
        <time>2023-05-02T07:59:20Z</time>
      </trkpt>
      <trkpt lat="46.02743" lon="1.26862">
        <ele>397.2</ele>
        <time>2023-05-02T07:59:28Z</time>
      </trkpt>
      <trkpt lat="46.02756" lon="1.26868">
        <ele>396.8</ele>
        <time>2023-05-02T07:59:32Z</time>
      </trkpt>
      <trkpt lat="46.02765" lon="1.26889">
        <ele>396.2</ele>
        <time>2023-05-02T07:59:37Z</time>
      </trkpt>
      <trkpt lat="46.02768" lon="1.26901">
        <ele>396</ele>
        <time>2023-05-02T07:59:39Z</time>
      </trkpt>
      <trkpt lat="46.02772" lon="1.26917">
        <ele>395.6</ele>
        <time>2023-05-02T07:59:42Z</time>
      </trkpt>
      <trkpt lat="46.02782" lon="1.26942">
        <ele>395</ele>
        <time>2023-05-02T07:59:47Z</time>
      </trkpt>
      <trkpt lat="46.02792" lon="1.26963">
        <ele>394.4</ele>
        <time>2023-05-02T07:59:51Z</time>
      </trkpt>
      <trkpt lat="46.02803" lon="1.26976">
        <ele>394</ele>
        <time>2023-05-02T07:59:54Z</time>
      </trkpt>
      <trkpt lat="46.02812" lon="1.26983">
        <ele>393.8</ele>
        <time>2023-05-02T07:59:56Z</time>
      </trkpt>
      <trkpt lat="46.02816" lon="1.26987">
        <ele>393.6</ele>
        <time>2023-05-02T07:59:57Z</time>
      </trkpt>
      <trkpt lat="46.02835" lon="1.27003">
        <ele>393.4</ele>
        <time>2023-05-02T08:00:01Z</time>
      </trkpt>
      <trkpt lat="46.02851" lon="1.27017">
        <ele>393.2</ele>
        <time>2023-05-02T08:00:05Z</time>
      </trkpt>
      <trkpt lat="46.02853" lon="1.27018">
        <ele>393</ele>
        <time>2023-05-02T08:00:07Z</time>
      </trkpt>
      <trkpt lat="46.02856" lon="1.2702">
        <ele>391.6</ele>
        <time>2023-05-02T08:00:27Z</time>
      </trkpt>
      <trkpt lat="46.02866" lon="1.27029">
        <ele>391.2</ele>
        <time>2023-05-02T08:00:31Z</time>
      </trkpt>
      <trkpt lat="46.02869" lon="1.27032">
        <ele>391.2</ele>
        <time>2023-05-02T08:00:32Z</time>
      </trkpt>
      <trkpt lat="46.02896" lon="1.27058">
        <ele>391.4</ele>
        <time>2023-05-02T08:00:40Z</time>
      </trkpt>
      <trkpt lat="46.029" lon="1.27062">
        <ele>391.4</ele>
        <time>2023-05-02T08:00:41Z</time>
      </trkpt>
      <trkpt lat="46.02908" lon="1.27067">
        <ele>391.2</ele>
        <time>2023-05-02T08:00:43Z</time>
      </trkpt>
      <trkpt lat="46.02917" lon="1.27066">
        <ele>391</ele>
        <time>2023-05-02T08:00:45Z</time>
      </trkpt>
      <trkpt lat="46.02951" lon="1.27058">
        <ele>390.4</ele>
        <time>2023-05-02T08:00:51Z</time>
      </trkpt>
      <trkpt lat="46.02985" lon="1.27047">
        <ele>389.4</ele>
        <time>2023-05-02T08:00:56Z</time>
      </trkpt>
      <trkpt lat="46.02992" lon="1.27044">
        <ele>389.2</ele>
        <time>2023-05-02T08:00:57Z</time>
      </trkpt>
      <trkpt lat="46.02998" lon="1.27038">
        <ele>389</ele>
        <time>2023-05-02T08:00:58Z</time>
      </trkpt>
      <trkpt lat="46.03009" lon="1.27024">
        <ele>388.8</ele>
        <time>2023-05-02T08:01:00Z</time>
      </trkpt>
      <trkpt lat="46.03013" lon="1.27016">
        <ele>388.6</ele>
        <time>2023-05-02T08:01:01Z</time>
      </trkpt>
      <trkpt lat="46.03015" lon="1.27006">
        <ele>388.2</ele>
        <time>2023-05-02T08:01:02Z</time>
      </trkpt>
      <trkpt lat="46.03019" lon="1.26977">
        <ele>387.6</ele>
        <time>2023-05-02T08:01:05Z</time>
      </trkpt>
      <trkpt lat="46.03021" lon="1.26938">
        <ele>386.6</ele>
        <time>2023-05-02T08:01:10Z</time>
      </trkpt>
      <trkpt lat="46.03027" lon="1.26912">
        <ele>385.6</ele>
        <time>2023-05-02T08:01:15Z</time>
      </trkpt>
      <trkpt lat="46.03043" lon="1.26897">
        <ele>385</ele>
        <time>2023-05-02T08:01:20Z</time>
      </trkpt>
      <trkpt lat="46.03063" lon="1.26896">
        <ele>384.8</ele>
        <time>2023-05-02T08:01:26Z</time>
      </trkpt>
      <trkpt lat="46.03065" lon="1.26897">
        <ele>384.8</ele>
        <time>2023-05-02T08:01:27Z</time>
      </trkpt>
      <trkpt lat="46.03079" lon="1.26898">
        <ele>385</ele>
        <time>2023-05-02T08:01:32Z</time>
      </trkpt>
      <trkpt lat="46.03099" lon="1.269">
        <ele>385</ele>
        <time>2023-05-02T08:01:40Z</time>
      </trkpt>
      <trkpt lat="46.0311" lon="1.26904">
        <ele>386</ele>
        <time>2023-05-02T08:01:45Z</time>
      </trkpt>
      <trkpt lat="46.0312" lon="1.26903">
        <ele>385.8</ele>
        <time>2023-05-02T08:01:50Z</time>
      </trkpt>
      <trkpt lat="46.03137" lon="1.26897">
        <ele>386.6</ele>
        <time>2023-05-02T08:01:57Z</time>
      </trkpt>
      <trkpt lat="46.03156" lon="1.26887">
        <ele>387</ele>
        <time>2023-05-02T08:02:04Z</time>
      </trkpt>
      <trkpt lat="46.03172" lon="1.26893">
        <ele>387.2</ele>
        <time>2023-05-02T08:02:10Z</time>
      </trkpt>
      <trkpt lat="46.0318" lon="1.26897">
        <ele>387</ele>
        <time>2023-05-02T08:02:14Z</time>
      </trkpt>
      <trkpt lat="46.03182" lon="1.26897">
        <ele>387</ele>
        <time>2023-05-02T08:02:15Z</time>
      </trkpt>
      <trkpt lat="46.03183" lon="1.26896">
        <ele>386.8</ele>
        <time>2023-05-02T08:02:16Z</time>
      </trkpt>
      <trkpt lat="46.03186" lon="1.26894">
        <ele>387.6</ele>
        <time>2023-05-02T08:02:18Z</time>
      </trkpt>
      <trkpt lat="46.03187" lon="1.26892">
        <ele>387</ele>
        <time>2023-05-02T08:02:19Z</time>
      </trkpt>
      <trkpt lat="46.03197" lon="1.26884">
        <ele>386.4</ele>
        <time>2023-05-02T08:02:24Z</time>
      </trkpt>
      <trkpt lat="46.0321" lon="1.26876">
        <ele>385.8</ele>
        <time>2023-05-02T08:02:29Z</time>
      </trkpt>
      <trkpt lat="46.03222" lon="1.26869">
        <ele>385</ele>
        <time>2023-05-02T08:02:33Z</time>
      </trkpt>
      <trkpt lat="46.03238" lon="1.26861">
        <ele>384</ele>
        <time>2023-05-02T08:02:39Z</time>
      </trkpt>
      <trkpt lat="46.03251" lon="1.26857">
        <ele>383.6</ele>
        <time>2023-05-02T08:02:43Z</time>
      </trkpt>
      <trkpt lat="46.03263" lon="1.26851">
        <ele>383</ele>
        <time>2023-05-02T08:02:47Z</time>
      </trkpt>
      <trkpt lat="46.03272" lon="1.26848">
        <ele>382.6</ele>
        <time>2023-05-02T08:02:51Z</time>
      </trkpt>
      <trkpt lat="46.03289" lon="1.26843">
        <ele>382</ele>
        <time>2023-05-02T08:02:57Z</time>
      </trkpt>
      <trkpt lat="46.03307" lon="1.26838">
        <ele>381.4</ele>
        <time>2023-05-02T08:03:02Z</time>
      </trkpt>
      <trkpt lat="46.03312" lon="1.26835">
        <ele>381.2</ele>
        <time>2023-05-02T08:03:04Z</time>
      </trkpt>
      <trkpt lat="46.03318" lon="1.26831">
        <ele>380.8</ele>
        <time>2023-05-02T08:03:06Z</time>
      </trkpt>
      <trkpt lat="46.03331" lon="1.26823">
        <ele>380.2</ele>
        <time>2023-05-02T08:03:10Z</time>
      </trkpt>
      <trkpt lat="46.03342" lon="1.26813">
        <ele>379.8</ele>
        <time>2023-05-02T08:03:14Z</time>
      </trkpt>
      <trkpt lat="46.03345" lon="1.26808">
        <ele>379.4</ele>
        <time>2023-05-02T08:03:17Z</time>
      </trkpt>
      <trkpt lat="46.03348" lon="1.26802">
        <ele>373.2</ele>
        <time>2023-05-02T08:06:09Z</time>
      </trkpt>
      <trkpt lat="46.03356" lon="1.26787">
        <ele>372.6</ele>
        <time>2023-05-02T08:06:14Z</time>
      </trkpt>
      <trkpt lat="46.03361" lon="1.26766">
        <ele>372</ele>
        <time>2023-05-02T08:06:19Z</time>
      </trkpt>
      <trkpt lat="46.03366" lon="1.26745">
        <ele>371.2</ele>
        <time>2023-05-02T08:06:23Z</time>
      </trkpt>
      <trkpt lat="46.03369" lon="1.26733">
        <ele>370.8</ele>
        <time>2023-05-02T08:06:25Z</time>
      </trkpt>
      <trkpt lat="46.03372" lon="1.26718">
        <ele>370.4</ele>
        <time>2023-05-02T08:06:27Z</time>
      </trkpt>
      <trkpt lat="46.03378" lon="1.26687">
        <ele>370.2</ele>
        <time>2023-05-02T08:06:31Z</time>
      </trkpt>
      <trkpt lat="46.03379" lon="1.2668">
        <ele>370</ele>
        <time>2023-05-02T08:06:32Z</time>
      </trkpt>
      <trkpt lat="46.03386" lon="1.26647">
        <ele>369.2</ele>
        <time>2023-05-02T08:06:37Z</time>
      </trkpt>
      <trkpt lat="46.03398" lon="1.26619">
        <ele>368.4</ele>
        <time>2023-05-02T08:06:43Z</time>
      </trkpt>
      <trkpt lat="46.03403" lon="1.26609">
        <ele>367.8</ele>
        <time>2023-05-02T08:06:46Z</time>
      </trkpt>
      <trkpt lat="46.03409" lon="1.26608">
        <ele>367.6</ele>
        <time>2023-05-02T08:06:47Z</time>
      </trkpt>
      <trkpt lat="46.03427" lon="1.26601">
        <ele>366.8</ele>
        <time>2023-05-02T08:06:52Z</time>
      </trkpt>
      <trkpt lat="46.03431" lon="1.26597">
        <ele>366.6</ele>
        <time>2023-05-02T08:06:54Z</time>
      </trkpt>
      <trkpt lat="46.03433" lon="1.2659">
        <ele>366.2</ele>
        <time>2023-05-02T08:06:56Z</time>
      </trkpt>
      <trkpt lat="46.03437" lon="1.26582">
        <ele>366</ele>
        <time>2023-05-02T08:06:58Z</time>
      </trkpt>
      <trkpt lat="46.03443" lon="1.26577">
        <ele>365.8</ele>
        <time>2023-05-02T08:07:00Z</time>
      </trkpt>
      <trkpt lat="46.03456" lon="1.26582">
        <ele>365</ele>
        <time>2023-05-02T08:07:04Z</time>
      </trkpt>
      <trkpt lat="46.03462" lon="1.26588">
        <ele>364.6</ele>
        <time>2023-05-02T08:07:06Z</time>
      </trkpt>
      <trkpt lat="46.03465" lon="1.26591">
        <ele>364.4</ele>
        <time>2023-05-02T08:07:07Z</time>
      </trkpt>
      <trkpt lat="46.03473" lon="1.26601">
        <ele>363.8</ele>
        <time>2023-05-02T08:07:11Z</time>
      </trkpt>
      <trkpt lat="46.03473" lon="1.26602">
        <ele>363.8</ele>
        <time>2023-05-02T08:07:12Z</time>
      </trkpt>
      <trkpt lat="46.03473" lon="1.26602">
        <ele>363.6</ele>
        <time>2023-05-02T08:07:13Z</time>
      </trkpt>
      <trkpt lat="46.03487" lon="1.26608">
        <ele>358.2</ele>
        <time>2023-05-02T08:08:15Z</time>
      </trkpt>
      <trkpt lat="46.03491" lon="1.26611">
        <ele>358.6</ele>
        <time>2023-05-02T08:08:17Z</time>
      </trkpt>
      <trkpt lat="46.03505" lon="1.26621">
        <ele>359.2</ele>
        <time>2023-05-02T08:08:22Z</time>
      </trkpt>
      <trkpt lat="46.03523" lon="1.26632">
        <ele>360</ele>
        <time>2023-05-02T08:08:28Z</time>
      </trkpt>
      <trkpt lat="46.03535" lon="1.26638">
        <ele>360.8</ele>
        <time>2023-05-02T08:08:32Z</time>
      </trkpt>
      <trkpt lat="46.03537" lon="1.26642">
        <ele>361</ele>
        <time>2023-05-02T08:08:33Z</time>
      </trkpt>
      <trkpt lat="46.03541" lon="1.26652">
        <ele>361.2</ele>
        <time>2023-05-02T08:08:35Z</time>
      </trkpt>
      <trkpt lat="46.03541" lon="1.26681">
        <ele>361.4</ele>
        <time>2023-05-02T08:08:40Z</time>
      </trkpt>
      <trkpt lat="46.03538" lon="1.26693">
        <ele>361.6</ele>
        <time>2023-05-02T08:08:42Z</time>
      </trkpt>
      <trkpt lat="46.03536" lon="1.26705">
        <ele>361.6</ele>
        <time>2023-05-02T08:08:44Z</time>
      </trkpt>
      <trkpt lat="46.03535" lon="1.26729">
        <ele>362</ele>
        <time>2023-05-02T08:08:49Z</time>
      </trkpt>
      <trkpt lat="46.03536" lon="1.26739">
        <ele>362.2</ele>
        <time>2023-05-02T08:08:51Z</time>
      </trkpt>
      <trkpt lat="46.03533" lon="1.26751">
        <ele>362.2</ele>
        <time>2023-05-02T08:08:53Z</time>
      </trkpt>
      <trkpt lat="46.03528" lon="1.26763">
        <ele>362.4</ele>
        <time>2023-05-02T08:08:55Z</time>
      </trkpt>
      <trkpt lat="46.03523" lon="1.26776">
        <ele>362.2</ele>
        <time>2023-05-02T08:08:57Z</time>
      </trkpt>
      <trkpt lat="46.03508" lon="1.26807">
        <ele>362.2</ele>
        <time>2023-05-02T08:09:03Z</time>
      </trkpt>
      <trkpt lat="46.03508" lon="1.26815">
        <ele>361.4</ele>
        <time>2023-05-02T08:09:05Z</time>
      </trkpt>
      <trkpt lat="46.03509" lon="1.2682">
        <ele>361.4</ele>
        <time>2023-05-02T08:09:06Z</time>
      </trkpt>
      <trkpt lat="46.0351" lon="1.26824">
        <ele>361.4</ele>
        <time>2023-05-02T08:09:07Z</time>
      </trkpt>
      <trkpt lat="46.0351" lon="1.26832">
        <ele>361.4</ele>
        <time>2023-05-02T08:09:09Z</time>
      </trkpt>
      <trkpt lat="46.03509" lon="1.26836">
        <ele>361.2</ele>
        <time>2023-05-02T08:09:10Z</time>
      </trkpt>
      <trkpt lat="46.03508" lon="1.26853">
        <ele>361.4</ele>
        <time>2023-05-02T08:09:14Z</time>
      </trkpt>
      <trkpt lat="46.0351" lon="1.26861">
        <ele>361.4</ele>
        <time>2023-05-02T08:09:17Z</time>
      </trkpt>
      <trkpt lat="46.03516" lon="1.26862">
        <ele>361.4</ele>
        <time>2023-05-02T08:09:21Z</time>
      </trkpt>
      <trkpt lat="46.0352" lon="1.26863">
        <ele>361</ele>
        <time>2023-05-02T08:09:25Z</time>
      </trkpt>
      <trkpt lat="46.03529" lon="1.26861">
        <ele>361.2</ele>
        <time>2023-05-02T08:09:38Z</time>
      </trkpt>
      <trkpt lat="46.03531" lon="1.26861">
        <ele>361.2</ele>
        <time>2023-05-02T08:09:39Z</time>
      </trkpt>
      <trkpt lat="46.03544" lon="1.2686">
        <ele>361.4</ele>
        <time>2023-05-02T08:09:44Z</time>
      </trkpt>
      <trkpt lat="46.0355" lon="1.26861">
        <ele>361.6</ele>
        <time>2023-05-02T08:09:48Z</time>
      </trkpt>
      <trkpt lat="46.03617" lon="1.26915">
        <ele>375</ele>
        <time>2023-05-02T08:11:18Z</time>
      </trkpt>
      <trkpt lat="46.03623" lon="1.26929">
        <ele>375.2</ele>
        <time>2023-05-02T08:11:22Z</time>
      </trkpt>
      <trkpt lat="46.03634" lon="1.26941">
        <ele>375.6</ele>
        <time>2023-05-02T08:11:27Z</time>
      </trkpt>
      <trkpt lat="46.03647" lon="1.26947">
        <ele>376.4</ele>
        <time>2023-05-02T08:11:33Z</time>
      </trkpt>
      <trkpt lat="46.03657" lon="1.26954">
        <ele>377.4</ele>
        <time>2023-05-02T08:11:38Z</time>
      </trkpt>
      <trkpt lat="46.03667" lon="1.26959">
        <ele>378</ele>
        <time>2023-05-02T08:11:42Z</time>
      </trkpt>
      <trkpt lat="46.03681" lon="1.26964">
        <ele>378.8</ele>
        <time>2023-05-02T08:11:47Z</time>
      </trkpt>
      <trkpt lat="46.03684" lon="1.26965">
        <ele>379</ele>
        <time>2023-05-02T08:11:48Z</time>
      </trkpt>
      <trkpt lat="46.0369" lon="1.26967">
        <ele>379.2</ele>
        <time>2023-05-02T08:11:50Z</time>
      </trkpt>
      <trkpt lat="46.03702" lon="1.26972">
        <ele>379.6</ele>
        <time>2023-05-02T08:11:54Z</time>
      </trkpt>
      <trkpt lat="46.03714" lon="1.26975">
        <ele>380.4</ele>
        <time>2023-05-02T08:11:58Z</time>
      </trkpt>
      <trkpt lat="46.03728" lon="1.26981">
        <ele>381.2</ele>
        <time>2023-05-02T08:12:02Z</time>
      </trkpt>
      <trkpt lat="46.0374" lon="1.26985">
        <ele>382</ele>
        <time>2023-05-02T08:12:06Z</time>
      </trkpt>
      <trkpt lat="46.03753" lon="1.2699">
        <ele>382.6</ele>
        <time>2023-05-02T08:12:10Z</time>
      </trkpt>
      <trkpt lat="46.03772" lon="1.26996">
        <ele>383.2</ele>
        <time>2023-05-02T08:12:16Z</time>
      </trkpt>
      <trkpt lat="46.03782" lon="1.27001">
        <ele>383.6</ele>
        <time>2023-05-02T08:12:19Z</time>
      </trkpt>
      <trkpt lat="46.03788" lon="1.27007">
        <ele>383.8</ele>
        <time>2023-05-02T08:12:21Z</time>
      </trkpt>
      <trkpt lat="46.03808" lon="1.27022">
        <ele>384.2</ele>
        <time>2023-05-02T08:12:27Z</time>
      </trkpt>
      <trkpt lat="46.03816" lon="1.2703">
        <ele>384</ele>
        <time>2023-05-02T08:12:30Z</time>
      </trkpt>
      <trkpt lat="46.03817" lon="1.27032">
        <ele>384</ele>
        <time>2023-05-02T08:12:31Z</time>
      </trkpt>
      <trkpt lat="46.03826" lon="1.27041">
        <ele>383.8</ele>
        <time>2023-05-02T08:12:35Z</time>
      </trkpt>
      <trkpt lat="46.03831" lon="1.27044">
        <ele>382.6</ele>
        <time>2023-05-02T08:12:38Z</time>
      </trkpt>
      <trkpt lat="46.03834" lon="1.27047">
        <ele>379.2</ele>
        <time>2023-05-02T08:13:17Z</time>
      </trkpt>
      <trkpt lat="46.03838" lon="1.27049">
        <ele>379</ele>
        <time>2023-05-02T08:13:19Z</time>
      </trkpt>
      <trkpt lat="46.03844" lon="1.27051">
        <ele>378.4</ele>
        <time>2023-05-02T08:13:22Z</time>
      </trkpt>
      <trkpt lat="46.03855" lon="1.27054">
        <ele>377.8</ele>
        <time>2023-05-02T08:13:26Z</time>
      </trkpt>
      <trkpt lat="46.03873" lon="1.2706">
        <ele>377.4</ele>
        <time>2023-05-02T08:13:32Z</time>
      </trkpt>
      <trkpt lat="46.03874" lon="1.27059">
        <ele>377.4</ele>
        <time>2023-05-02T08:13:34Z</time>
      </trkpt>
      <trkpt lat="46.03885" lon="1.27061">
        <ele>375.8</ele>
        <time>2023-05-02T08:13:48Z</time>
      </trkpt>
      <trkpt lat="46.03887" lon="1.27061">
        <ele>375.6</ele>
        <time>2023-05-02T08:13:49Z</time>
      </trkpt>
      <trkpt lat="46.03903" lon="1.27059">
        <ele>374.6</ele>
        <time>2023-05-02T08:13:54Z</time>
      </trkpt>
      <trkpt lat="46.03911" lon="1.2705">
        <ele>373.4</ele>
        <time>2023-05-02T08:13:57Z</time>
      </trkpt>
      <trkpt lat="46.03912" lon="1.27049">
        <ele>373</ele>
        <time>2023-05-02T08:13:59Z</time>
      </trkpt>
      <trkpt lat="46.0391" lon="1.27049">
        <ele>361.4</ele>
        <time>2023-05-02T08:16:25Z</time>
      </trkpt>
      <trkpt lat="46.03911" lon="1.27047">
        <ele>361.4</ele>
        <time>2023-05-02T08:16:26Z</time>
      </trkpt>
      <trkpt lat="46.03913" lon="1.27042">
        <ele>361.4</ele>
        <time>2023-05-02T08:16:28Z</time>
      </trkpt>
      <trkpt lat="46.03914" lon="1.27036">
        <ele>361.4</ele>
        <time>2023-05-02T08:16:30Z</time>
      </trkpt>
      <trkpt lat="46.03918" lon="1.27022">
        <ele>361.2</ele>
        <time>2023-05-02T08:16:34Z</time>
      </trkpt>
      <trkpt lat="46.03919" lon="1.27018">
        <ele>361.2</ele>
        <time>2023-05-02T08:16:35Z</time>
      </trkpt>
      <trkpt lat="46.03928" lon="1.26994">
        <ele>360.8</ele>
        <time>2023-05-02T08:16:40Z</time>
      </trkpt>
      <trkpt lat="46.03932" lon="1.26988">
        <ele>360.6</ele>
        <time>2023-05-02T08:16:42Z</time>
      </trkpt>
      <trkpt lat="46.03935" lon="1.26987">
        <ele>360.4</ele>
        <time>2023-05-02T08:16:43Z</time>
      </trkpt>
      <trkpt lat="46.03946" lon="1.26984">
        <ele>360</ele>
        <time>2023-05-02T08:16:47Z</time>
      </trkpt>
      <trkpt lat="46.03951" lon="1.26984">
        <ele>360.2</ele>
        <time>2023-05-02T08:16:50Z</time>
      </trkpt>
      <trkpt lat="46.0396" lon="1.2698">
        <ele>360</ele>
        <time>2023-05-02T08:16:55Z</time>
      </trkpt>
      <trkpt lat="46.0397" lon="1.26978">
        <ele>360.2</ele>
        <time>2023-05-02T08:17:00Z</time>
      </trkpt>
      <trkpt lat="46.03975" lon="1.2698">
        <ele>359.8</ele>
        <time>2023-05-02T08:17:03Z</time>
      </trkpt>
      <trkpt lat="46.03982" lon="1.26979">
        <ele>360.8</ele>
        <time>2023-05-02T08:17:07Z</time>
      </trkpt>
      <trkpt lat="46.03984" lon="1.26978">
        <ele>361</ele>
        <time>2023-05-02T08:17:08Z</time>
      </trkpt>
      <trkpt lat="46.03995" lon="1.26978">
        <ele>361.6</ele>
        <time>2023-05-02T08:17:12Z</time>
      </trkpt>
      <trkpt lat="46.04012" lon="1.26978">
        <ele>362.4</ele>
        <time>2023-05-02T08:17:18Z</time>
      </trkpt>
      <trkpt lat="46.04027" lon="1.26978">
        <ele>363</ele>
        <time>2023-05-02T08:17:22Z</time>
      </trkpt>
      <trkpt lat="46.04037" lon="1.26981">
        <ele>363.6</ele>
        <time>2023-05-02T08:17:26Z</time>
      </trkpt>
      <trkpt lat="46.04039" lon="1.26983">
        <ele>363.8</ele>
        <time>2023-05-02T08:17:27Z</time>
      </trkpt>
      <trkpt lat="46.04041" lon="1.26986">
        <ele>364</ele>
        <time>2023-05-02T08:17:28Z</time>
      </trkpt>
      <trkpt lat="46.04045" lon="1.26992">
        <ele>364.2</ele>
        <time>2023-05-02T08:17:30Z</time>
      </trkpt>
      <trkpt lat="46.04048" lon="1.26994">
        <ele>364.4</ele>
        <time>2023-05-02T08:17:31Z</time>
      </trkpt>
      <trkpt lat="46.04056" lon="1.26993">
        <ele>364.4</ele>
        <time>2023-05-02T08:17:33Z</time>
      </trkpt>
      <trkpt lat="46.0406" lon="1.26992">
        <ele>364.6</ele>
        <time>2023-05-02T08:17:35Z</time>
      </trkpt>
      <trkpt lat="46.04062" lon="1.26994">
        <ele>364.6</ele>
        <time>2023-05-02T08:17:36Z</time>
      </trkpt>
      <trkpt lat="46.04065" lon="1.26995">
        <ele>364.8</ele>
        <time>2023-05-02T08:17:37Z</time>
      </trkpt>
      <trkpt lat="46.0407" lon="1.26995">
        <ele>364.8</ele>
        <time>2023-05-02T08:17:39Z</time>
      </trkpt>
      <trkpt lat="46.04081" lon="1.26988">
        <ele>365</ele>
        <time>2023-05-02T08:17:43Z</time>
      </trkpt>
      <trkpt lat="46.04083" lon="1.26986">
        <ele>365</ele>
        <time>2023-05-02T08:17:44Z</time>
      </trkpt>
      <trkpt lat="46.04091" lon="1.26982">
        <ele>365.2</ele>
        <time>2023-05-02T08:17:47Z</time>
      </trkpt>
      <trkpt lat="46.04103" lon="1.26971">
        <ele>365.4</ele>
        <time>2023-05-02T08:17:52Z</time>
      </trkpt>
      <trkpt lat="46.04105" lon="1.2697">
        <ele>365.4</ele>
        <time>2023-05-02T08:17:54Z</time>
      </trkpt>
      <trkpt lat="46.04149" lon="1.2703">
        <ele>363.6</ele>
        <time>2023-05-02T08:19:11Z</time>
      </trkpt>
      <trkpt lat="46.0415" lon="1.27032">
        <ele>363.6</ele>
        <time>2023-05-02T08:19:12Z</time>
      </trkpt>
      <trkpt lat="46.0416" lon="1.27043">
        <ele>364</ele>
        <time>2023-05-02T08:19:17Z</time>
      </trkpt>
      <trkpt lat="46.04161" lon="1.27049">
        <ele>363.6</ele>
        <time>2023-05-02T08:19:19Z</time>
      </trkpt>
      <trkpt lat="46.04162" lon="1.27055">
        <ele>363.8</ele>
        <time>2023-05-02T08:19:21Z</time>
      </trkpt>
      <trkpt lat="46.04162" lon="1.27073">
        <ele>364</ele>
        <time>2023-05-02T08:19:25Z</time>
      </trkpt>
      <trkpt lat="46.04166" lon="1.27096">
        <ele>363.8</ele>
        <time>2023-05-02T08:19:30Z</time>
      </trkpt>
      <trkpt lat="46.04169" lon="1.27115">
        <ele>364</ele>
        <time>2023-05-02T08:19:34Z</time>
      </trkpt>
      <trkpt lat="46.04169" lon="1.27135">
        <ele>363.6</ele>
        <time>2023-05-02T08:19:38Z</time>
      </trkpt>
      <trkpt lat="46.0417" lon="1.27153">
        <ele>363.4</ele>
        <time>2023-05-02T08:19:42Z</time>
      </trkpt>
      <trkpt lat="46.04173" lon="1.27179">
        <ele>363.4</ele>
        <time>2023-05-02T08:19:48Z</time>
      </trkpt>
      <trkpt lat="46.0418" lon="1.27199">
        <ele>363</ele>
        <time>2023-05-02T08:19:53Z</time>
      </trkpt>
      <trkpt lat="46.04186" lon="1.27217">
        <ele>362.8</ele>
        <time>2023-05-02T08:19:58Z</time>
      </trkpt>
      <trkpt lat="46.04187" lon="1.27222">
        <ele>362.8</ele>
        <time>2023-05-02T08:19:59Z</time>
      </trkpt>
      <trkpt lat="46.04188" lon="1.27229">
        <ele>362.4</ele>
        <time>2023-05-02T08:20:01Z</time>
      </trkpt>
      <trkpt lat="46.0419" lon="1.2725">
        <ele>362</ele>
        <time>2023-05-02T08:20:05Z</time>
      </trkpt>
      <trkpt lat="46.04194" lon="1.27268">
        <ele>361.8</ele>
        <time>2023-05-02T08:20:09Z</time>
      </trkpt>
      <trkpt lat="46.04199" lon="1.27292">
        <ele>361.4</ele>
        <time>2023-05-02T08:20:13Z</time>
      </trkpt>
      <trkpt lat="46.04203" lon="1.27312">
        <ele>360.8</ele>
        <time>2023-05-02T08:20:17Z</time>
      </trkpt>
      <trkpt lat="46.04203" lon="1.27316">
        <ele>360.6</ele>
        <time>2023-05-02T08:20:18Z</time>
      </trkpt>
      <trkpt lat="46.04204" lon="1.27327">
        <ele>360.4</ele>
        <time>2023-05-02T08:20:20Z</time>
      </trkpt>
      <trkpt lat="46.04205" lon="1.27334">
        <ele>360.2</ele>
        <time>2023-05-02T08:20:22Z</time>
      </trkpt>
      <trkpt lat="46.04206" lon="1.27343">
        <ele>360</ele>
        <time>2023-05-02T08:20:25Z</time>
      </trkpt>
      <trkpt lat="46.04207" lon="1.27346">
        <ele>359.8</ele>
        <time>2023-05-02T08:20:26Z</time>
      </trkpt>
      <trkpt lat="46.04213" lon="1.27352">
        <ele>359.8</ele>
        <time>2023-05-02T08:20:28Z</time>
      </trkpt>
      <trkpt lat="46.04221" lon="1.27362">
        <ele>359.8</ele>
        <time>2023-05-02T08:20:32Z</time>
      </trkpt>
      <trkpt lat="46.04236" lon="1.27369">
        <ele>359.8</ele>
        <time>2023-05-02T08:20:37Z</time>
      </trkpt>
      <trkpt lat="46.04249" lon="1.27371">
        <ele>359.8</ele>
        <time>2023-05-02T08:20:41Z</time>
      </trkpt>
      <trkpt lat="46.04253" lon="1.27371">
        <ele>359.8</ele>
        <time>2023-05-02T08:20:43Z</time>
      </trkpt>
      <trkpt lat="46.04261" lon="1.27373">
        <ele>359.6</ele>
        <time>2023-05-02T08:20:45Z</time>
      </trkpt>
      <trkpt lat="46.04276" lon="1.2737">
        <ele>359.4</ele>
        <time>2023-05-02T08:20:49Z</time>
      </trkpt>
      <trkpt lat="46.04282" lon="1.27369">
        <ele>359.2</ele>
        <time>2023-05-02T08:20:51Z</time>
      </trkpt>
      <trkpt lat="46.04284" lon="1.27371">
        <ele>359.2</ele>
        <time>2023-05-02T08:20:52Z</time>
      </trkpt>
      <trkpt lat="46.04287" lon="1.27372">
        <ele>359.2</ele>
        <time>2023-05-02T08:20:53Z</time>
      </trkpt>
      <trkpt lat="46.04297" lon="1.27374">
        <ele>359.2</ele>
        <time>2023-05-02T08:20:56Z</time>
      </trkpt>
      <trkpt lat="46.04308" lon="1.27378">
        <ele>359.2</ele>
        <time>2023-05-02T08:21:00Z</time>
      </trkpt>
      <trkpt lat="46.04322" lon="1.27386">
        <ele>360</ele>
        <time>2023-05-02T08:21:05Z</time>
      </trkpt>
      <trkpt lat="46.04338" lon="1.27386">
        <ele>359.8</ele>
        <time>2023-05-02T08:21:10Z</time>
      </trkpt>
      <trkpt lat="46.04349" lon="1.27381">
        <ele>359.8</ele>
        <time>2023-05-02T08:21:15Z</time>
      </trkpt>
      <trkpt lat="46.04352" lon="1.27381">
        <ele>359.8</ele>
        <time>2023-05-02T08:21:16Z</time>
      </trkpt>
      <trkpt lat="46.04359" lon="1.27377">
        <ele>359.8</ele>
        <time>2023-05-02T08:21:19Z</time>
      </trkpt>
      <trkpt lat="46.04368" lon="1.27367">
        <ele>359.6</ele>
        <time>2023-05-02T08:21:25Z</time>
      </trkpt>
      <trkpt lat="46.04376" lon="1.27358">
        <ele>359.2</ele>
        <time>2023-05-02T08:21:30Z</time>
      </trkpt>
      <trkpt lat="46.04377" lon="1.27355">
        <ele>359.4</ele>
        <time>2023-05-02T08:21:31Z</time>
      </trkpt>
      <trkpt lat="46.04379" lon="1.27349">
        <ele>359.2</ele>
        <time>2023-05-02T08:21:35Z</time>
      </trkpt>
      <trkpt lat="46.04389" lon="1.27339">
        <ele>359.4</ele>
        <time>2023-05-02T08:21:40Z</time>
      </trkpt>
      <trkpt lat="46.04402" lon="1.27326">
        <ele>359.4</ele>
        <time>2023-05-02T08:21:46Z</time>
      </trkpt>
      <trkpt lat="46.04417" lon="1.27317">
        <ele>359.2</ele>
        <time>2023-05-02T08:21:51Z</time>
      </trkpt>
      <trkpt lat="46.04431" lon="1.27308">
        <ele>358.6</ele>
        <time>2023-05-02T08:21:56Z</time>
      </trkpt>
      <trkpt lat="46.04445" lon="1.27301">
        <ele>357.6</ele>
        <time>2023-05-02T08:22:01Z</time>
      </trkpt>
      <trkpt lat="46.0445" lon="1.27297">
        <ele>357.2</ele>
        <time>2023-05-02T08:22:03Z</time>
      </trkpt>
      <trkpt lat="46.04451" lon="1.27294">
        <ele>357</ele>
        <time>2023-05-02T08:22:04Z</time>
      </trkpt>
      <trkpt lat="46.04457" lon="1.27281">
        <ele>356.2</ele>
        <time>2023-05-02T08:22:08Z</time>
      </trkpt>
      <trkpt lat="46.04457" lon="1.27264">
        <ele>355.4</ele>
        <time>2023-05-02T08:22:12Z</time>
      </trkpt>
      <trkpt lat="46.04456" lon="1.27248">
        <ele>354.4</ele>
        <time>2023-05-02T08:22:16Z</time>
      </trkpt>
      <trkpt lat="46.04449" lon="1.27238">
        <ele>353.8</ele>
        <time>2023-05-02T08:22:19Z</time>
      </trkpt>
      <trkpt lat="46.04448" lon="1.27236">
        <ele>353.6</ele>
        <time>2023-05-02T08:22:20Z</time>
      </trkpt>
      <trkpt lat="46.04448" lon="1.27233">
        <ele>353.4</ele>
        <time>2023-05-02T08:22:21Z</time>
      </trkpt>
      <trkpt lat="46.04447" lon="1.27226">
        <ele>353</ele>
        <time>2023-05-02T08:22:23Z</time>
      </trkpt>
      <trkpt lat="46.04442" lon="1.27215">
        <ele>352.2</ele>
        <time>2023-05-02T08:22:27Z</time>
      </trkpt>
      <trkpt lat="46.04442" lon="1.27212">
        <ele>351.8</ele>
        <time>2023-05-02T08:22:29Z</time>
      </trkpt>
      <trkpt lat="46.04441" lon="1.27208">
        <ele>351.2</ele>
        <time>2023-05-02T08:22:31Z</time>
      </trkpt>
      <trkpt lat="46.0443" lon="1.27199">
        <ele>349.8</ele>
        <time>2023-05-02T08:22:36Z</time>
      </trkpt>
      <trkpt lat="46.04427" lon="1.2719">
        <ele>348.8</ele>
        <time>2023-05-02T08:22:39Z</time>
      </trkpt>
      <trkpt lat="46.04425" lon="1.27187">
        <ele>348.4</ele>
        <time>2023-05-02T08:22:40Z</time>
      </trkpt>
      <trkpt lat="46.04418" lon="1.27179">
        <ele>347.4</ele>
        <time>2023-05-02T08:22:44Z</time>
      </trkpt>
      <trkpt lat="46.04418" lon="1.27166">
        <ele>345.4</ele>
        <time>2023-05-02T08:22:51Z</time>
      </trkpt>
      <trkpt lat="46.04409" lon="1.27157">
        <ele>345</ele>
        <time>2023-05-02T08:22:54Z</time>
      </trkpt>
      <trkpt lat="46.04406" lon="1.27138">
        <ele>343.8</ele>
        <time>2023-05-02T08:22:59Z</time>
      </trkpt>
      <trkpt lat="46.04406" lon="1.27123">
        <ele>342.6</ele>
        <time>2023-05-02T08:23:03Z</time>
      </trkpt>
      <trkpt lat="46.04403" lon="1.27109">
        <ele>342</ele>
        <time>2023-05-02T08:23:07Z</time>
      </trkpt>
      <trkpt lat="46.04403" lon="1.27106">
        <ele>342.2</ele>
        <time>2023-05-02T08:23:08Z</time>
      </trkpt>
      <trkpt lat="46.04403" lon="1.27096">
        <ele>342.2</ele>
        <time>2023-05-02T08:23:10Z</time>
      </trkpt>
      <trkpt lat="46.04404" lon="1.27088">
        <ele>342.6</ele>
        <time>2023-05-02T08:23:12Z</time>
      </trkpt>
      <trkpt lat="46.04405" lon="1.27085">
        <ele>342.6</ele>
        <time>2023-05-02T08:23:13Z</time>
      </trkpt>
      <trkpt lat="46.04406" lon="1.27083">
        <ele>342.6</ele>
        <time>2023-05-02T08:23:15Z</time>
      </trkpt>
      <trkpt lat="46.04379" lon="1.27038">
        <ele>348</ele>
        <time>2023-05-02T08:24:02Z</time>
      </trkpt>
      <trkpt lat="46.0437" lon="1.27032">
        <ele>349.6</ele>
        <time>2023-05-02T08:24:07Z</time>
      </trkpt>
      <trkpt lat="46.0436" lon="1.27026">
        <ele>350.4</ele>
        <time>2023-05-02T08:24:12Z</time>
      </trkpt>
      <trkpt lat="46.04358" lon="1.27024">
        <ele>350.4</ele>
        <time>2023-05-02T08:24:13Z</time>
      </trkpt>
      <trkpt lat="46.04357" lon="1.27017">
        <ele>350.8</ele>
        <time>2023-05-02T08:24:16Z</time>
      </trkpt>
      <trkpt lat="46.04358" lon="1.26997">
        <ele>351</ele>
        <time>2023-05-02T08:24:21Z</time>
      </trkpt>
      <trkpt lat="46.04358" lon="1.26989">
        <ele>351</ele>
        <time>2023-05-02T08:24:24Z</time>
      </trkpt>
      <trkpt lat="46.04358" lon="1.26988">
        <ele>351</ele>
        <time>2023-05-02T08:24:25Z</time>
      </trkpt>
      <trkpt lat="46.04365" lon="1.26964">
        <ele>354.4</ele>
        <time>2023-05-02T08:25:08Z</time>
      </trkpt>
      <trkpt lat="46.04368" lon="1.26963">
        <ele>354.4</ele>
        <time>2023-05-02T08:25:09Z</time>
      </trkpt>
      <trkpt lat="46.04376" lon="1.26966">
        <ele>354.8</ele>
        <time>2023-05-02T08:25:12Z</time>
      </trkpt>
      <trkpt lat="46.04378" lon="1.26969">
        <ele>355</ele>
        <time>2023-05-02T08:25:13Z</time>
      </trkpt>
      <trkpt lat="46.04388" lon="1.26976">
        <ele>355.2</ele>
        <time>2023-05-02T08:25:16Z</time>
      </trkpt>
      <trkpt lat="46.04399" lon="1.26978">
        <ele>355.4</ele>
        <time>2023-05-02T08:25:19Z</time>
      </trkpt>
      <trkpt lat="46.04411" lon="1.26985">
        <ele>355.8</ele>
        <time>2023-05-02T08:25:22Z</time>
      </trkpt>
      <trkpt lat="46.04413" lon="1.2699">
        <ele>355.8</ele>
        <time>2023-05-02T08:25:23Z</time>
      </trkpt>
      <trkpt lat="46.04425" lon="1.27004">
        <ele>356</ele>
        <time>2023-05-02T08:25:27Z</time>
      </trkpt>
      <trkpt lat="46.04434" lon="1.27008">
        <ele>356.4</ele>
        <time>2023-05-02T08:25:29Z</time>
      </trkpt>
      <trkpt lat="46.04445" lon="1.27007">
        <ele>356.6</ele>
        <time>2023-05-02T08:25:31Z</time>
      </trkpt>
      <trkpt lat="46.04461" lon="1.26996">
        <ele>357</ele>
        <time>2023-05-02T08:25:35Z</time>
      </trkpt>
      <trkpt lat="46.04472" lon="1.26981">
        <ele>357.6</ele>
        <time>2023-05-02T08:25:39Z</time>
      </trkpt>
      <trkpt lat="46.04477" lon="1.26973">
        <ele>357.8</ele>
        <time>2023-05-02T08:25:41Z</time>
      </trkpt>
      <trkpt lat="46.04483" lon="1.26966">
        <ele>358</ele>
        <time>2023-05-02T08:25:43Z</time>
      </trkpt>
      <trkpt lat="46.04494" lon="1.26964">
        <ele>358.6</ele>
        <time>2023-05-02T08:25:46Z</time>
      </trkpt>
      <trkpt lat="46.045" lon="1.26968">
        <ele>358.8</ele>
        <time>2023-05-02T08:25:48Z</time>
      </trkpt>
      <trkpt lat="46.04505" lon="1.26975">
        <ele>359.2</ele>
        <time>2023-05-02T08:25:50Z</time>
      </trkpt>
      <trkpt lat="46.0452" lon="1.26984">
        <ele>359.6</ele>
        <time>2023-05-02T08:25:54Z</time>
      </trkpt>
      <trkpt lat="46.04541" lon="1.26992">
        <ele>360.2</ele>
        <time>2023-05-02T08:25:59Z</time>
      </trkpt>
      <trkpt lat="46.04551" lon="1.26995">
        <ele>360.6</ele>
        <time>2023-05-02T08:26:01Z</time>
      </trkpt>
      <trkpt lat="46.04561" lon="1.26999">
        <ele>360.8</ele>
        <time>2023-05-02T08:26:03Z</time>
      </trkpt>
      <trkpt lat="46.04582" lon="1.27006">
        <ele>361.8</ele>
        <time>2023-05-02T08:26:08Z</time>
      </trkpt>
      <trkpt lat="46.04594" lon="1.27014">
        <ele>362.6</ele>
        <time>2023-05-02T08:26:11Z</time>
      </trkpt>
      <trkpt lat="46.04602" lon="1.27019">
        <ele>363</ele>
        <time>2023-05-02T08:26:13Z</time>
      </trkpt>
      <trkpt lat="46.04621" lon="1.2703">
        <ele>364.2</ele>
        <time>2023-05-02T08:26:18Z</time>
      </trkpt>
      <trkpt lat="46.04625" lon="1.27032">
        <ele>364.4</ele>
        <time>2023-05-02T08:26:19Z</time>
      </trkpt>
      <trkpt lat="46.04638" lon="1.27037">
        <ele>364.8</ele>
        <time>2023-05-02T08:26:22Z</time>
      </trkpt>
      <trkpt lat="46.04659" lon="1.27046">
        <ele>365.8</ele>
        <time>2023-05-02T08:26:27Z</time>
      </trkpt>
      <trkpt lat="46.04671" lon="1.27051">
        <ele>366.4</ele>
        <time>2023-05-02T08:26:30Z</time>
      </trkpt>
      <trkpt lat="46.04676" lon="1.27053">
        <ele>366.6</ele>
        <time>2023-05-02T08:26:31Z</time>
      </trkpt>
      <trkpt lat="46.04694" lon="1.27061">
        <ele>367</ele>
        <time>2023-05-02T08:26:35Z</time>
      </trkpt>
      <trkpt lat="46.04699" lon="1.27063">
        <ele>367.2</ele>
        <time>2023-05-02T08:26:36Z</time>
      </trkpt>
      <trkpt lat="46.0471" lon="1.27062">
        <ele>367.6</ele>
        <time>2023-05-02T08:26:39Z</time>
      </trkpt>
      <trkpt lat="46.04715" lon="1.27062">
        <ele>368.2</ele>
        <time>2023-05-02T08:26:43Z</time>
      </trkpt>
      <trkpt lat="46.0473" lon="1.27043">
        <ele>371.8</ele>
        <time>2023-05-02T08:27:27Z</time>
      </trkpt>
      <trkpt lat="46.04734" lon="1.27038">
        <ele>372</ele>
        <time>2023-05-02T08:27:29Z</time>
      </trkpt>
      <trkpt lat="46.04742" lon="1.27029">
        <ele>371.8</ele>
        <time>2023-05-02T08:27:33Z</time>
      </trkpt>
      <trkpt lat="46.04746" lon="1.27021">
        <ele>371.8</ele>
        <time>2023-05-02T08:27:36Z</time>
      </trkpt>
      <trkpt lat="46.04747" lon="1.27019">
        <ele>371.6</ele>
        <time>2023-05-02T08:27:37Z</time>
      </trkpt>
      <trkpt lat="46.0475" lon="1.27008">
        <ele>371.4</ele>
        <time>2023-05-02T08:27:42Z</time>
      </trkpt>
      <trkpt lat="46.04752" lon="1.27001">
        <ele>371.8</ele>
        <time>2023-05-02T08:27:45Z</time>
      </trkpt>
      <trkpt lat="46.0475" lon="1.26994">
        <ele>372</ele>
        <time>2023-05-02T08:27:47Z</time>
      </trkpt>
      <trkpt lat="46.04752" lon="1.26988">
        <ele>371.8</ele>
        <time>2023-05-02T08:27:50Z</time>
      </trkpt>
      <trkpt lat="46.04753" lon="1.26986">
        <ele>372</ele>
        <time>2023-05-02T08:27:51Z</time>
      </trkpt>
      <trkpt lat="46.04755" lon="1.26977">
        <ele>372</ele>
        <time>2023-05-02T08:27:54Z</time>
      </trkpt>
      <trkpt lat="46.04757" lon="1.26974">
        <ele>372</ele>
        <time>2023-05-02T08:27:55Z</time>
      </trkpt>
      <trkpt lat="46.04761" lon="1.26961">
        <ele>372</ele>
        <time>2023-05-02T08:28:00Z</time>
      </trkpt>
      <trkpt lat="46.04767" lon="1.2695">
        <ele>371.8</ele>
        <time>2023-05-02T08:28:05Z</time>
      </trkpt>
      <trkpt lat="46.04773" lon="1.2694">
        <ele>371.8</ele>
        <time>2023-05-02T08:28:10Z</time>
      </trkpt>
      <trkpt lat="46.04777" lon="1.26932">
        <ele>371.6</ele>
        <time>2023-05-02T08:28:14Z</time>
      </trkpt>
      <trkpt lat="46.04779" lon="1.26929">
        <ele>371.4</ele>
        <time>2023-05-02T08:28:16Z</time>
      </trkpt>
      <trkpt lat="46.04781" lon="1.26925">
        <ele>371.6</ele>
        <time>2023-05-02T08:28:18Z</time>
      </trkpt>
      <trkpt lat="46.04784" lon="1.2692">
        <ele>371.6</ele>
        <time>2023-05-02T08:28:20Z</time>
      </trkpt>
      <trkpt lat="46.0479" lon="1.26909">
        <ele>371.8</ele>
        <time>2023-05-02T08:28:24Z</time>
      </trkpt>
      <trkpt lat="46.04795" lon="1.26894">
        <ele>372</ele>
        <time>2023-05-02T08:28:29Z</time>
      </trkpt>
      <trkpt lat="46.04801" lon="1.26879">
        <ele>372</ele>
        <time>2023-05-02T08:28:34Z</time>
      </trkpt>
      <trkpt lat="46.04802" lon="1.26877">
        <ele>372</ele>
        <time>2023-05-02T08:28:35Z</time>
      </trkpt>
      <trkpt lat="46.04807" lon="1.26869">
        <ele>372</ele>
        <time>2023-05-02T08:28:39Z</time>
      </trkpt>
      <trkpt lat="46.04813" lon="1.26858">
        <ele>372</ele>
        <time>2023-05-02T08:28:43Z</time>
      </trkpt>
      <trkpt lat="46.04814" lon="1.26856">
        <ele>372.2</ele>
        <time>2023-05-02T08:28:44Z</time>
      </trkpt>
      <trkpt lat="46.04816" lon="1.26851">
        <ele>371.8</ele>
        <time>2023-05-02T08:28:46Z</time>
      </trkpt>
      <trkpt lat="46.04816" lon="1.26846">
        <ele>371.6</ele>
        <time>2023-05-02T08:28:48Z</time>
      </trkpt>
      <trkpt lat="46.04817" lon="1.2684">
        <ele>371.2</ele>
        <time>2023-05-02T08:28:51Z</time>
      </trkpt>
      <trkpt lat="46.04821" lon="1.26833">
        <ele>370.8</ele>
        <time>2023-05-02T08:28:55Z</time>
      </trkpt>
      <trkpt lat="46.04827" lon="1.26821">
        <ele>370.2</ele>
        <time>2023-05-02T08:29:00Z</time>
      </trkpt>
      <trkpt lat="46.04834" lon="1.2681">
        <ele>369.8</ele>
        <time>2023-05-02T08:29:05Z</time>
      </trkpt>
      <trkpt lat="46.04841" lon="1.268">
        <ele>369.6</ele>
        <time>2023-05-02T08:29:10Z</time>
      </trkpt>
      <trkpt lat="46.04848" lon="1.2679">
        <ele>369.4</ele>
        <time>2023-05-02T08:29:14Z</time>
      </trkpt>
      <trkpt lat="46.0485" lon="1.26788">
        <ele>369.4</ele>
        <time>2023-05-02T08:29:15Z</time>
      </trkpt>
      <trkpt lat="46.04861" lon="1.26775">
        <ele>369.6</ele>
        <time>2023-05-02T08:29:20Z</time>
      </trkpt>
      <trkpt lat="46.04873" lon="1.26759">
        <ele>369.4</ele>
        <time>2023-05-02T08:29:25Z</time>
      </trkpt>
      <trkpt lat="46.04883" lon="1.26742">
        <ele>369</ele>
        <time>2023-05-02T08:29:29Z</time>
      </trkpt>
      <trkpt lat="46.04895" lon="1.26725">
        <ele>368.8</ele>
        <time>2023-05-02T08:29:33Z</time>
      </trkpt>
      <trkpt lat="46.04903" lon="1.26714">
        <ele>368.4</ele>
        <time>2023-05-02T08:29:37Z</time>
      </trkpt>
      <trkpt lat="46.04909" lon="1.26706">
        <ele>368</ele>
        <time>2023-05-02T08:29:40Z</time>
      </trkpt>
      <trkpt lat="46.04913" lon="1.26701">
        <ele>367.6</ele>
        <time>2023-05-02T08:29:42Z</time>
      </trkpt>
      <trkpt lat="46.0492" lon="1.26688">
        <ele>366.8</ele>
        <time>2023-05-02T08:29:46Z</time>
      </trkpt>
      <trkpt lat="46.04927" lon="1.2667">
        <ele>365.8</ele>
        <time>2023-05-02T08:29:50Z</time>
      </trkpt>
      <trkpt lat="46.04938" lon="1.26652">
        <ele>364.6</ele>
        <time>2023-05-02T08:29:54Z</time>
      </trkpt>
      <trkpt lat="46.04952" lon="1.26629">
        <ele>363.2</ele>
        <time>2023-05-02T08:29:59Z</time>
      </trkpt>
      <trkpt lat="46.04964" lon="1.2661">
        <ele>362</ele>
        <time>2023-05-02T08:30:03Z</time>
      </trkpt>
      <trkpt lat="46.0497" lon="1.26599">
        <ele>361.6</ele>
        <time>2023-05-02T08:30:05Z</time>
      </trkpt>
      <trkpt lat="46.04972" lon="1.26595">
        <ele>361.4</ele>
        <time>2023-05-02T08:30:06Z</time>
      </trkpt>
      <trkpt lat="46.04977" lon="1.26588">
        <ele>361</ele>
        <time>2023-05-02T08:30:09Z</time>
      </trkpt>
      <trkpt lat="46.04977" lon="1.26583">
        <ele>361</ele>
        <time>2023-05-02T08:30:10Z</time>
      </trkpt>
      <trkpt lat="46.04982" lon="1.26558">
        <ele>360.4</ele>
        <time>2023-05-02T08:30:15Z</time>
      </trkpt>
      <trkpt lat="46.04989" lon="1.26544">
        <ele>360.2</ele>
        <time>2023-05-02T08:30:19Z</time>
      </trkpt>
      <trkpt lat="46.04992" lon="1.26541">
        <ele>360.2</ele>
        <time>2023-05-02T08:30:20Z</time>
      </trkpt>
      <trkpt lat="46.05003" lon="1.26539">
        <ele>360.2</ele>
        <time>2023-05-02T08:30:24Z</time>
      </trkpt>
      <trkpt lat="46.05016" lon="1.26542">
        <ele>360</ele>
        <time>2023-05-02T08:30:28Z</time>
      </trkpt>
      <trkpt lat="46.05018" lon="1.26545">
        <ele>360</ele>
        <time>2023-05-02T08:30:29Z</time>
      </trkpt>
      <trkpt lat="46.05023" lon="1.2655">
        <ele>359.8</ele>
        <time>2023-05-02T08:30:33Z</time>
      </trkpt>
      <trkpt lat="46.05033" lon="1.26556">
        <ele>359.8</ele>
        <time>2023-05-02T08:30:38Z</time>
      </trkpt>
      <trkpt lat="46.05047" lon="1.26565">
        <ele>361</ele>
        <time>2023-05-02T08:30:43Z</time>
      </trkpt>
      <trkpt lat="46.05057" lon="1.26576">
        <ele>360.6</ele>
        <time>2023-05-02T08:30:47Z</time>
      </trkpt>
      <trkpt lat="46.05058" lon="1.2658">
        <ele>360.6</ele>
        <time>2023-05-02T08:30:48Z</time>
      </trkpt>
      <trkpt lat="46.05059" lon="1.26584">
        <ele>360.6</ele>
        <time>2023-05-02T08:30:49Z</time>
      </trkpt>
      <trkpt lat="46.05062" lon="1.26592">
        <ele>360.8</ele>
        <time>2023-05-02T08:30:51Z</time>
      </trkpt>
      <trkpt lat="46.0507" lon="1.26604">
        <ele>360.8</ele>
        <time>2023-05-02T08:30:54Z</time>
      </trkpt>
      <trkpt lat="46.05073" lon="1.26608">
        <ele>361</ele>
        <time>2023-05-02T08:30:55Z</time>
      </trkpt>
      <trkpt lat="46.0509" lon="1.26624">
        <ele>361.4</ele>
        <time>2023-05-02T08:31:00Z</time>
      </trkpt>
      <trkpt lat="46.05094" lon="1.26624">
        <ele>361.4</ele>
        <time>2023-05-02T08:31:01Z</time>
      </trkpt>
      <trkpt lat="46.051" lon="1.26622">
        <ele>361.6</ele>
        <time>2023-05-02T08:31:03Z</time>
      </trkpt>
      <trkpt lat="46.05118" lon="1.26618">
        <ele>362.2</ele>
        <time>2023-05-02T08:31:08Z</time>
      </trkpt>
      <trkpt lat="46.05132" lon="1.2662">
        <ele>362.6</ele>
        <time>2023-05-02T08:31:12Z</time>
      </trkpt>
      <trkpt lat="46.05145" lon="1.26622">
        <ele>363</ele>
        <time>2023-05-02T08:31:16Z</time>
      </trkpt>
      <trkpt lat="46.05154" lon="1.26632">
        <ele>363.2</ele>
        <time>2023-05-02T08:31:19Z</time>
      </trkpt>
      <trkpt lat="46.05164" lon="1.26633">
        <ele>363.2</ele>
        <time>2023-05-02T08:31:21Z</time>
      </trkpt>
      <trkpt lat="46.0517" lon="1.26632">
        <ele>363.4</ele>
        <time>2023-05-02T08:31:22Z</time>
      </trkpt>
      <trkpt lat="46.05176" lon="1.26631">
        <ele>363.4</ele>
        <time>2023-05-02T08:31:23Z</time>
      </trkpt>
      <trkpt lat="46.05187" lon="1.26632">
        <ele>363.4</ele>
        <time>2023-05-02T08:31:25Z</time>
      </trkpt>
      <trkpt lat="46.05203" lon="1.26637">
        <ele>363.6</ele>
        <time>2023-05-02T08:31:29Z</time>
      </trkpt>
      <trkpt lat="46.05223" lon="1.26646">
        <ele>363.6</ele>
        <time>2023-05-02T08:31:34Z</time>
      </trkpt>
      <trkpt lat="46.05243" lon="1.26654">
        <ele>363.8</ele>
        <time>2023-05-02T08:31:39Z</time>
      </trkpt>
      <trkpt lat="46.05251" lon="1.26659">
        <ele>363.8</ele>
        <time>2023-05-02T08:31:41Z</time>
      </trkpt>
      <trkpt lat="46.05264" lon="1.26658">
        <ele>364</ele>
        <time>2023-05-02T08:31:44Z</time>
      </trkpt>
      <trkpt lat="46.05284" lon="1.26649">
        <ele>364.2</ele>
        <time>2023-05-02T08:31:50Z</time>
      </trkpt>
      <trkpt lat="46.05287" lon="1.26646">
        <ele>364.2</ele>
        <time>2023-05-02T08:31:51Z</time>
      </trkpt>
      <trkpt lat="46.05295" lon="1.26637">
        <ele>364.2</ele>
        <time>2023-05-02T08:31:53Z</time>
      </trkpt>
      <trkpt lat="46.053" lon="1.26628">
        <ele>364.2</ele>
        <time>2023-05-02T08:31:55Z</time>
      </trkpt>
      <trkpt lat="46.05306" lon="1.26621">
        <ele>364.2</ele>
        <time>2023-05-02T08:31:57Z</time>
      </trkpt>
      <trkpt lat="46.05316" lon="1.26604">
        <ele>364.2</ele>
        <time>2023-05-02T08:32:01Z</time>
      </trkpt>
      <trkpt lat="46.0532" lon="1.26584">
        <ele>364.4</ele>
        <time>2023-05-02T08:32:04Z</time>
      </trkpt>
      <trkpt lat="46.05323" lon="1.26577">
        <ele>364</ele>
        <time>2023-05-02T08:32:05Z</time>
      </trkpt>
      <trkpt lat="46.05326" lon="1.26569">
        <ele>363.6</ele>
        <time>2023-05-02T08:32:06Z</time>
      </trkpt>
      <trkpt lat="46.05332" lon="1.26552">
        <ele>363.6</ele>
        <time>2023-05-02T08:32:08Z</time>
      </trkpt>
      <trkpt lat="46.05334" lon="1.26543">
        <ele>363.6</ele>
        <time>2023-05-02T08:32:09Z</time>
      </trkpt>
      <trkpt lat="46.05348" lon="1.26503">
        <ele>363</ele>
        <time>2023-05-02T08:32:13Z</time>
      </trkpt>
      <trkpt lat="46.05357" lon="1.26483">
        <ele>362.6</ele>
        <time>2023-05-02T08:32:15Z</time>
      </trkpt>
      <trkpt lat="46.05366" lon="1.26467">
        <ele>362.4</ele>
        <time>2023-05-02T08:32:17Z</time>
      </trkpt>
      <trkpt lat="46.05383" lon="1.26438">
        <ele>361.4</ele>
        <time>2023-05-02T08:32:21Z</time>
      </trkpt>
      <trkpt lat="46.05385" lon="1.26429">
        <ele>361.2</ele>
        <time>2023-05-02T08:32:22Z</time>
      </trkpt>
      <trkpt lat="46.05389" lon="1.26414">
        <ele>360.6</ele>
        <time>2023-05-02T08:32:24Z</time>
      </trkpt>
      <trkpt lat="46.05389" lon="1.26407">
        <ele>360.4</ele>
        <time>2023-05-02T08:32:25Z</time>
      </trkpt>
      <trkpt lat="46.05387" lon="1.26395">
        <ele>360</ele>
        <time>2023-05-02T08:32:27Z</time>
      </trkpt>
      <trkpt lat="46.05384" lon="1.26389">
        <ele>359.8</ele>
        <time>2023-05-02T08:32:28Z</time>
      </trkpt>
      <trkpt lat="46.05379" lon="1.26381">
        <ele>359.2</ele>
        <time>2023-05-02T08:32:29Z</time>
      </trkpt>
      <trkpt lat="46.05367" lon="1.26366">
        <ele>358.4</ele>
        <time>2023-05-02T08:32:31Z</time>
      </trkpt>
      <trkpt lat="46.0536" lon="1.26358">
        <ele>358</ele>
        <time>2023-05-02T08:32:32Z</time>
      </trkpt>
      <trkpt lat="46.0535" lon="1.26344">
        <ele>357.4</ele>
        <time>2023-05-02T08:32:34Z</time>
      </trkpt>
      <trkpt lat="46.05336" lon="1.2633">
        <ele>356.8</ele>
        <time>2023-05-02T08:32:37Z</time>
      </trkpt>
      <trkpt lat="46.05334" lon="1.26328">
        <ele>356.4</ele>
        <time>2023-05-02T08:32:39Z</time>
      </trkpt>
      <trkpt lat="46.05329" lon="1.26325">
        <ele>349.2</ele>
        <time>2023-05-02T08:33:43Z</time>
      </trkpt>
      <trkpt lat="46.05318" lon="1.2632">
        <ele>348.4</ele>
        <time>2023-05-02T08:33:48Z</time>
      </trkpt>
      <trkpt lat="46.05302" lon="1.26308">
        <ele>347.8</ele>
        <time>2023-05-02T08:33:54Z</time>
      </trkpt>
      <trkpt lat="46.05284" lon="1.26294">
        <ele>347</ele>
        <time>2023-05-02T08:34:00Z</time>
      </trkpt>
      <trkpt lat="46.05273" lon="1.26277">
        <ele>346.4</ele>
        <time>2023-05-02T08:34:05Z</time>
      </trkpt>
      <trkpt lat="46.05273" lon="1.26276">
        <ele>346.2</ele>
        <time>2023-05-02T08:34:07Z</time>
      </trkpt>
      <trkpt lat="46.05274" lon="1.26278">
        <ele>344.8</ele>
        <time>2023-05-02T08:34:23Z</time>
      </trkpt>
      <trkpt lat="46.05285" lon="1.26276">
        <ele>344.6</ele>
        <time>2023-05-02T08:34:28Z</time>
      </trkpt>
      <trkpt lat="46.05287" lon="1.26275">
        <ele>344.4</ele>
        <time>2023-05-02T08:34:31Z</time>
      </trkpt>
      <trkpt lat="46.05291" lon="1.26272">
        <ele>341.6</ele>
        <time>2023-05-02T08:37:10Z</time>
      </trkpt>
      <trkpt lat="46.05306" lon="1.26268">
        <ele>342</ele>
        <time>2023-05-02T08:37:15Z</time>
      </trkpt>
      <trkpt lat="46.05334" lon="1.26259">
        <ele>342.2</ele>
        <time>2023-05-02T08:37:21Z</time>
      </trkpt>
      <trkpt lat="46.05378" lon="1.26247">
        <ele>342.4</ele>
        <time>2023-05-02T08:37:29Z</time>
      </trkpt>
      <trkpt lat="46.05416" lon="1.26236">
        <ele>342.4</ele>
        <time>2023-05-02T08:37:36Z</time>
      </trkpt>
      <trkpt lat="46.0544" lon="1.26235">
        <ele>342.6</ele>
        <time>2023-05-02T08:37:40Z</time>
      </trkpt>
      <trkpt lat="46.05452" lon="1.26237">
        <ele>342.6</ele>
        <time>2023-05-02T08:37:42Z</time>
      </trkpt>
      <trkpt lat="46.05458" lon="1.26239">
        <ele>342.6</ele>
        <time>2023-05-02T08:37:43Z</time>
      </trkpt>
      <trkpt lat="46.05487" lon="1.26253">
        <ele>342.6</ele>
        <time>2023-05-02T08:37:48Z</time>
      </trkpt>
      <trkpt lat="46.05516" lon="1.26279">
        <ele>342.8</ele>
        <time>2023-05-02T08:37:54Z</time>
      </trkpt>
      <trkpt lat="46.05521" lon="1.26283">
        <ele>342.8</ele>
        <time>2023-05-02T08:37:55Z</time>
      </trkpt>
      <trkpt lat="46.05529" lon="1.26283">
        <ele>342.8</ele>
        <time>2023-05-02T08:37:57Z</time>
      </trkpt>
      <trkpt lat="46.0554" lon="1.2627">
        <ele>342.8</ele>
        <time>2023-05-02T08:38:00Z</time>
      </trkpt>
      <trkpt lat="46.05545" lon="1.26266">
        <ele>342.8</ele>
        <time>2023-05-02T08:38:01Z</time>
      </trkpt>
      <trkpt lat="46.0555" lon="1.26264">
        <ele>342.8</ele>
        <time>2023-05-02T08:38:02Z</time>
      </trkpt>
      <trkpt lat="46.05566" lon="1.26261">
        <ele>342.8</ele>
        <time>2023-05-02T08:38:05Z</time>
      </trkpt>
      <trkpt lat="46.05611" lon="1.26265">
        <ele>343</ele>
        <time>2023-05-02T08:38:13Z</time>
      </trkpt>
      <trkpt lat="46.05653" lon="1.26268">
        <ele>343.2</ele>
        <time>2023-05-02T08:38:20Z</time>
      </trkpt>
      <trkpt lat="46.05677" lon="1.26266">
        <ele>343.2</ele>
        <time>2023-05-02T08:38:24Z</time>
      </trkpt>
      <trkpt lat="46.05683" lon="1.26264">
        <ele>343.2</ele>
        <time>2023-05-02T08:38:25Z</time>
      </trkpt>
      <trkpt lat="46.05701" lon="1.26256">
        <ele>343.2</ele>
        <time>2023-05-02T08:38:28Z</time>
      </trkpt>
      <trkpt lat="46.05712" lon="1.26248">
        <ele>343.4</ele>
        <time>2023-05-02T08:38:30Z</time>
      </trkpt>
      <trkpt lat="46.05732" lon="1.2622">
        <ele>343.2</ele>
        <time>2023-05-02T08:38:35Z</time>
      </trkpt>
      <trkpt lat="46.05764" lon="1.2617">
        <ele>343.4</ele>
        <time>2023-05-02T08:38:44Z</time>
      </trkpt>
      <trkpt lat="46.05768" lon="1.26165">
        <ele>343.4</ele>
        <time>2023-05-02T08:38:45Z</time>
      </trkpt>
      <trkpt lat="46.05781" lon="1.26154">
        <ele>343.4</ele>
        <time>2023-05-02T08:38:48Z</time>
      </trkpt>
      <trkpt lat="46.05785" lon="1.26152">
        <ele>343.6</ele>
        <time>2023-05-02T08:38:49Z</time>
      </trkpt>
      <trkpt lat="46.05805" lon="1.26146">
        <ele>343.8</ele>
        <time>2023-05-02T08:38:55Z</time>
      </trkpt>
      <trkpt lat="46.0582" lon="1.2615">
        <ele>344.2</ele>
        <time>2023-05-02T08:39:00Z</time>
      </trkpt>
      <trkpt lat="46.05835" lon="1.2616">
        <ele>344.8</ele>
        <time>2023-05-02T08:39:06Z</time>
      </trkpt>
      <trkpt lat="46.05851" lon="1.26169">
        <ele>345.2</ele>
        <time>2023-05-02T08:39:12Z</time>
      </trkpt>
      <trkpt lat="46.05869" lon="1.2618">
        <ele>345.8</ele>
        <time>2023-05-02T08:39:19Z</time>
      </trkpt>
      <trkpt lat="46.05887" lon="1.26189">
        <ele>346.8</ele>
        <time>2023-05-02T08:39:26Z</time>
      </trkpt>
      <trkpt lat="46.05904" lon="1.262">
        <ele>348</ele>
        <time>2023-05-02T08:39:34Z</time>
      </trkpt>
      <trkpt lat="46.05921" lon="1.2621">
        <ele>349</ele>
        <time>2023-05-02T08:39:42Z</time>
      </trkpt>
      <trkpt lat="46.05938" lon="1.26223">
        <ele>350</ele>
        <time>2023-05-02T08:39:50Z</time>
      </trkpt>
      <trkpt lat="46.05953" lon="1.26236">
        <ele>351</ele>
        <time>2023-05-02T08:39:57Z</time>
      </trkpt>
      <trkpt lat="46.05971" lon="1.26254">
        <ele>352.2</ele>
        <time>2023-05-02T08:40:05Z</time>
      </trkpt>
      <trkpt lat="46.05991" lon="1.2627">
        <ele>352.8</ele>
        <time>2023-05-02T08:40:12Z</time>
      </trkpt>
      <trkpt lat="46.06016" lon="1.26274">
        <ele>353.4</ele>
        <time>2023-05-02T08:40:19Z</time>
      </trkpt>
      <trkpt lat="46.06027" lon="1.26274">
        <ele>353.8</ele>
        <time>2023-05-02T08:40:22Z</time>
      </trkpt>
      <trkpt lat="46.06031" lon="1.26277">
        <ele>353.8</ele>
        <time>2023-05-02T08:40:23Z</time>
      </trkpt>
      <trkpt lat="46.06034" lon="1.2628">
        <ele>353.8</ele>
        <time>2023-05-02T08:40:24Z</time>
      </trkpt>
      <trkpt lat="46.0604" lon="1.26289">
        <ele>353.8</ele>
        <time>2023-05-02T08:40:26Z</time>
      </trkpt>
      <trkpt lat="46.06048" lon="1.26296">
        <ele>354</ele>
        <time>2023-05-02T08:40:28Z</time>
      </trkpt>
      <trkpt lat="46.06074" lon="1.26312">
        <ele>354.4</ele>
        <time>2023-05-02T08:40:34Z</time>
      </trkpt>
      <trkpt lat="46.06104" lon="1.26338">
        <ele>354.8</ele>
        <time>2023-05-02T08:40:41Z</time>
      </trkpt>
      <trkpt lat="46.06108" lon="1.26341">
        <ele>354.8</ele>
        <time>2023-05-02T08:40:42Z</time>
      </trkpt>
      <trkpt lat="46.06128" lon="1.2636">
        <ele>355.2</ele>
        <time>2023-05-02T08:40:47Z</time>
      </trkpt>
      <trkpt lat="46.06157" lon="1.26385">
        <ele>355.6</ele>
        <time>2023-05-02T08:40:54Z</time>
      </trkpt>
      <trkpt lat="46.06192" lon="1.26407">
        <ele>356.2</ele>
        <time>2023-05-02T08:41:02Z</time>
      </trkpt>
      <trkpt lat="46.06227" lon="1.26414">
        <ele>356.4</ele>
        <time>2023-05-02T08:41:09Z</time>
      </trkpt>
      <trkpt lat="46.06261" lon="1.26415">
        <ele>357.2</ele>
        <time>2023-05-02T08:41:16Z</time>
      </trkpt>
      <trkpt lat="46.06299" lon="1.26413">
        <ele>357.8</ele>
        <time>2023-05-02T08:41:24Z</time>
      </trkpt>
      <trkpt lat="46.06336" lon="1.26415">
        <ele>358.4</ele>
        <time>2023-05-02T08:41:32Z</time>
      </trkpt>
      <trkpt lat="46.06373" lon="1.26426">
        <ele>359</ele>
        <time>2023-05-02T08:41:40Z</time>
      </trkpt>
      <trkpt lat="46.06402" lon="1.26436">
        <ele>359.4</ele>
        <time>2023-05-02T08:41:46Z</time>
      </trkpt>
      <trkpt lat="46.06419" lon="1.26441">
        <ele>359.4</ele>
        <time>2023-05-02T08:41:50Z</time>
      </trkpt>
      <trkpt lat="46.06422" lon="1.26441">
        <ele>359.4</ele>
        <time>2023-05-02T08:41:51Z</time>
      </trkpt>
      <trkpt lat="46.06425" lon="1.26434">
        <ele>359.4</ele>
        <time>2023-05-02T08:41:53Z</time>
      </trkpt>
      <trkpt lat="46.06423" lon="1.26407">
        <ele>359.4</ele>
        <time>2023-05-02T08:41:58Z</time>
      </trkpt>
      <trkpt lat="46.0642" lon="1.26393">
        <ele>359.4</ele>
        <time>2023-05-02T08:42:00Z</time>
      </trkpt>
      <trkpt lat="46.06418" lon="1.26376">
        <ele>359.4</ele>
        <time>2023-05-02T08:42:02Z</time>
      </trkpt>
      <trkpt lat="46.06413" lon="1.26325">
        <ele>359.8</ele>
        <time>2023-05-02T08:42:07Z</time>
      </trkpt>
      <trkpt lat="46.06407" lon="1.26257">
        <ele>358.6</ele>
        <time>2023-05-02T08:42:13Z</time>
      </trkpt>
      <trkpt lat="46.06396" lon="1.26174">
        <ele>357.8</ele>
        <time>2023-05-02T08:42:20Z</time>
      </trkpt>
      <trkpt lat="46.06394" lon="1.26149">
        <ele>357.6</ele>
        <time>2023-05-02T08:42:22Z</time>
      </trkpt>
      <trkpt lat="46.06382" lon="1.26063">
        <ele>356.6</ele>
        <time>2023-05-02T08:42:29Z</time>
      </trkpt>
      <trkpt lat="46.06381" lon="1.2605">
        <ele>356.4</ele>
        <time>2023-05-02T08:42:30Z</time>
      </trkpt>
      <trkpt lat="46.0637" lon="1.25962">
        <ele>355.4</ele>
        <time>2023-05-02T08:42:37Z</time>
      </trkpt>
      <trkpt lat="46.06367" lon="1.25937">
        <ele>355.2</ele>
        <time>2023-05-02T08:42:39Z</time>
      </trkpt>
      <trkpt lat="46.06355" lon="1.25848">
        <ele>354</ele>
        <time>2023-05-02T08:42:46Z</time>
      </trkpt>
      <trkpt lat="46.06349" lon="1.25797">
        <ele>353.2</ele>
        <time>2023-05-02T08:42:50Z</time>
      </trkpt>
      <trkpt lat="46.06343" lon="1.25746">
        <ele>352.4</ele>
        <time>2023-05-02T08:42:54Z</time>
      </trkpt>
      <trkpt lat="46.06347" lon="1.2572">
        <ele>352</ele>
        <time>2023-05-02T08:42:56Z</time>
      </trkpt>
      <trkpt lat="46.06355" lon="1.25698">
        <ele>351.8</ele>
        <time>2023-05-02T08:42:58Z</time>
      </trkpt>
      <trkpt lat="46.06361" lon="1.25688">
        <ele>351.6</ele>
        <time>2023-05-02T08:42:59Z</time>
      </trkpt>
      <trkpt lat="46.06388" lon="1.2563">
        <ele>350.6</ele>
        <time>2023-05-02T08:43:05Z</time>
      </trkpt>
      <trkpt lat="46.06411" lon="1.2558">
        <ele>349.8</ele>
        <time>2023-05-02T08:43:11Z</time>
      </trkpt>
      <trkpt lat="46.06419" lon="1.25566">
        <ele>349.6</ele>
        <time>2023-05-02T08:43:13Z</time>
      </trkpt>
      <trkpt lat="46.0643" lon="1.25554">
        <ele>349.4</ele>
        <time>2023-05-02T08:43:15Z</time>
      </trkpt>
      <trkpt lat="46.06456" lon="1.25541">
        <ele>348.6</ele>
        <time>2023-05-02T08:43:19Z</time>
      </trkpt>
      <trkpt lat="46.06463" lon="1.25539">
        <ele>348.2</ele>
        <time>2023-05-02T08:43:20Z</time>
      </trkpt>
      <trkpt lat="46.06491" lon="1.25533">
        <ele>347.4</ele>
        <time>2023-05-02T08:43:24Z</time>
      </trkpt>
      <trkpt lat="46.06526" lon="1.25524">
        <ele>346.8</ele>
        <time>2023-05-02T08:43:29Z</time>
      </trkpt>
      <trkpt lat="46.06539" lon="1.2552">
        <ele>346.8</ele>
        <time>2023-05-02T08:43:31Z</time>
      </trkpt>
      <trkpt lat="46.06587" lon="1.25511">
        <ele>346.6</ele>
        <time>2023-05-02T08:43:38Z</time>
      </trkpt>
      <trkpt lat="46.06613" lon="1.25514">
        <ele>346.4</ele>
        <time>2023-05-02T08:43:42Z</time>
      </trkpt>
      <trkpt lat="46.06619" lon="1.25513">
        <ele>346.2</ele>
        <time>2023-05-02T08:43:43Z</time>
      </trkpt>
      <trkpt lat="46.06625" lon="1.25509">
        <ele>346.2</ele>
        <time>2023-05-02T08:43:44Z</time>
      </trkpt>
      <trkpt lat="46.06635" lon="1.25499">
        <ele>346</ele>
        <time>2023-05-02T08:43:46Z</time>
      </trkpt>
      <trkpt lat="46.06655" lon="1.25464">
        <ele>345</ele>
        <time>2023-05-02T08:43:51Z</time>
      </trkpt>
      <trkpt lat="46.06666" lon="1.25444">
        <ele>344.6</ele>
        <time>2023-05-02T08:43:54Z</time>
      </trkpt>
      <trkpt lat="46.06675" lon="1.25434">
        <ele>344.4</ele>
        <time>2023-05-02T08:43:56Z</time>
      </trkpt>
      <trkpt lat="46.06685" lon="1.25433">
        <ele>344.2</ele>
        <time>2023-05-02T08:43:58Z</time>
      </trkpt>
      <trkpt lat="46.0669" lon="1.25435">
        <ele>344.2</ele>
        <time>2023-05-02T08:43:59Z</time>
      </trkpt>
      <trkpt lat="46.06722" lon="1.25447">
        <ele>343.8</ele>
        <time>2023-05-02T08:44:06Z</time>
      </trkpt>
      <trkpt lat="46.0675" lon="1.25456">
        <ele>344.2</ele>
        <time>2023-05-02T08:44:13Z</time>
      </trkpt>
      <trkpt lat="46.06766" lon="1.25459">
        <ele>343.8</ele>
        <time>2023-05-02T08:44:17Z</time>
      </trkpt>
      <trkpt lat="46.0677" lon="1.25459">
        <ele>343.8</ele>
        <time>2023-05-02T08:44:18Z</time>
      </trkpt>
      <trkpt lat="46.06777" lon="1.25456">
        <ele>344.2</ele>
        <time>2023-05-02T08:44:20Z</time>
      </trkpt>
      <trkpt lat="46.06784" lon="1.2545">
        <ele>344.4</ele>
        <time>2023-05-02T08:44:22Z</time>
      </trkpt>
      <trkpt lat="46.06787" lon="1.25446">
        <ele>344.2</ele>
        <time>2023-05-02T08:44:23Z</time>
      </trkpt>
      <trkpt lat="46.0679" lon="1.25441">
        <ele>344.2</ele>
        <time>2023-05-02T08:44:24Z</time>
      </trkpt>
      <trkpt lat="46.06793" lon="1.25427">
        <ele>344</ele>
        <time>2023-05-02T08:44:26Z</time>
      </trkpt>
      <trkpt lat="46.06793" lon="1.2542">
        <ele>343.8</ele>
        <time>2023-05-02T08:44:27Z</time>
      </trkpt>
      <trkpt lat="46.06797" lon="1.2536">
        <ele>344</ele>
        <time>2023-05-02T08:44:35Z</time>
      </trkpt>
      <trkpt lat="46.06799" lon="1.25333">
        <ele>344</ele>
        <time>2023-05-02T08:44:38Z</time>
      </trkpt>
      <trkpt lat="46.06803" lon="1.25314">
        <ele>344</ele>
        <time>2023-05-02T08:44:40Z</time>
      </trkpt>
      <trkpt lat="46.06811" lon="1.25286">
        <ele>343.6</ele>
        <time>2023-05-02T08:44:43Z</time>
      </trkpt>
      <trkpt lat="46.06817" lon="1.25271">
        <ele>343.6</ele>
        <time>2023-05-02T08:44:45Z</time>
      </trkpt>
      <trkpt lat="46.0682" lon="1.25265">
        <ele>344</ele>
        <time>2023-05-02T08:44:46Z</time>
      </trkpt>
      <trkpt lat="46.06829" lon="1.25262">
        <ele>344</ele>
        <time>2023-05-02T08:44:48Z</time>
      </trkpt>
      <trkpt lat="46.06836" lon="1.25273">
        <ele>343.8</ele>
        <time>2023-05-02T08:44:50Z</time>
      </trkpt>
      <trkpt lat="46.0684" lon="1.25281">
        <ele>343.8</ele>
        <time>2023-05-02T08:44:51Z</time>
      </trkpt>
      <trkpt lat="46.06852" lon="1.25312">
        <ele>343.6</ele>
        <time>2023-05-02T08:44:56Z</time>
      </trkpt>
      <trkpt lat="46.06853" lon="1.25314">
        <ele>343.6</ele>
        <time>2023-05-02T08:44:57Z</time>
      </trkpt>
      <trkpt lat="46.06855" lon="1.25312">
        <ele>343.2</ele>
        <time>2023-05-02T08:44:59Z</time>
      </trkpt>
      <trkpt lat="46.06854" lon="1.25311">
        <ele>342.8</ele>
        <time>2023-05-02T08:45:01Z</time>
      </trkpt>
      <trkpt lat="46.06858" lon="1.25312">
        <ele>342.8</ele>
        <time>2023-05-02T08:45:05Z</time>
      </trkpt>
      <trkpt lat="46.0686" lon="1.25314">
        <ele>342.8</ele>
        <time>2023-05-02T08:45:06Z</time>
      </trkpt>
      <trkpt lat="46.06866" lon="1.25316">
        <ele>342.8</ele>
        <time>2023-05-02T08:45:10Z</time>
      </trkpt>
      <trkpt lat="46.06867" lon="1.25316">
        <ele>341.8</ele>
        <time>2023-05-02T08:46:04Z</time>
      </trkpt>
      <trkpt lat="46.06873" lon="1.25316">
        <ele>341.8</ele>
        <time>2023-05-02T08:46:06Z</time>
      </trkpt>
      <trkpt lat="46.06881" lon="1.25313">
        <ele>341.8</ele>
        <time>2023-05-02T08:46:08Z</time>
      </trkpt>
      <trkpt lat="46.06887" lon="1.25305">
        <ele>341.6</ele>
        <time>2023-05-02T08:46:10Z</time>
      </trkpt>
      <trkpt lat="46.06894" lon="1.25285">
        <ele>341.4</ele>
        <time>2023-05-02T08:46:14Z</time>
      </trkpt>
      <trkpt lat="46.06905" lon="1.25267">
        <ele>341.2</ele>
        <time>2023-05-02T08:46:19Z</time>
      </trkpt>
      <trkpt lat="46.06919" lon="1.25259">
        <ele>341.8</ele>
        <time>2023-05-02T08:46:24Z</time>
      </trkpt>
      <trkpt lat="46.06932" lon="1.25259">
        <ele>342</ele>
        <time>2023-05-02T08:46:30Z</time>
      </trkpt>
      <trkpt lat="46.06942" lon="1.25268">
        <ele>342.2</ele>
        <time>2023-05-02T08:46:35Z</time>
      </trkpt>
      <trkpt lat="46.06948" lon="1.25277">
        <ele>342.2</ele>
        <time>2023-05-02T08:46:39Z</time>
      </trkpt>
      <trkpt lat="46.0695" lon="1.25282">
        <ele>342.2</ele>
        <time>2023-05-02T08:46:41Z</time>
      </trkpt>
      <trkpt lat="46.06956" lon="1.25298">
        <ele>342.6</ele>
        <time>2023-05-02T08:46:46Z</time>
      </trkpt>
      <trkpt lat="46.06965" lon="1.25315">
        <ele>343.4</ele>
        <time>2023-05-02T08:46:52Z</time>
      </trkpt>
      <trkpt lat="46.06966" lon="1.25318">
        <ele>343.6</ele>
        <time>2023-05-02T08:46:53Z</time>
      </trkpt>
      <trkpt lat="46.06969" lon="1.25324">
        <ele>344</ele>
        <time>2023-05-02T08:46:55Z</time>
      </trkpt>
      <trkpt lat="46.0697" lon="1.25327">
        <ele>344</ele>
        <time>2023-05-02T08:46:56Z</time>
      </trkpt>
      <trkpt lat="46.06976" lon="1.25349">
        <ele>344.8</ele>
        <time>2023-05-02T08:47:03Z</time>
      </trkpt>
      <trkpt lat="46.06981" lon="1.25372">
        <ele>345.2</ele>
        <time>2023-05-02T08:47:10Z</time>
      </trkpt>
      <trkpt lat="46.06986" lon="1.25393">
        <ele>345.8</ele>
        <time>2023-05-02T08:47:16Z</time>
      </trkpt>
      <trkpt lat="46.06995" lon="1.25423">
        <ele>346.2</ele>
        <time>2023-05-02T08:47:22Z</time>
      </trkpt>
      <trkpt lat="46.07004" lon="1.25447">
        <ele>346.6</ele>
        <time>2023-05-02T08:47:26Z</time>
      </trkpt>
      <trkpt lat="46.07007" lon="1.25453">
        <ele>346.6</ele>
        <time>2023-05-02T08:47:27Z</time>
      </trkpt>
      <trkpt lat="46.0701" lon="1.25459">
        <ele>346.6</ele>
        <time>2023-05-02T08:47:28Z</time>
      </trkpt>
      <trkpt lat="46.07021" lon="1.25472">
        <ele>346.6</ele>
        <time>2023-05-02T08:47:30Z</time>
      </trkpt>
      <trkpt lat="46.07027" lon="1.25477">
        <ele>346.6</ele>
        <time>2023-05-02T08:47:31Z</time>
      </trkpt>
      <trkpt lat="46.07076" lon="1.2551">
        <ele>346.8</ele>
        <time>2023-05-02T08:47:39Z</time>
      </trkpt>
      <trkpt lat="46.07113" lon="1.2554">
        <ele>346.8</ele>
        <time>2023-05-02T08:47:46Z</time>
      </trkpt>
      <trkpt lat="46.0714" lon="1.25578">
        <ele>346.8</ele>
        <time>2023-05-02T08:47:52Z</time>
      </trkpt>
      <trkpt lat="46.07176" lon="1.25631">
        <ele>346.6</ele>
        <time>2023-05-02T08:48:00Z</time>
      </trkpt>
      <trkpt lat="46.07202" lon="1.2567">
        <ele>346.6</ele>
        <time>2023-05-02T08:48:06Z</time>
      </trkpt>
      <trkpt lat="46.07229" lon="1.25709">
        <ele>346.8</ele>
        <time>2023-05-02T08:48:13Z</time>
      </trkpt>
      <trkpt lat="46.07253" lon="1.2574">
        <ele>347</ele>
        <time>2023-05-02T08:48:19Z</time>
      </trkpt>
      <trkpt lat="46.07278" lon="1.25769">
        <ele>347.4</ele>
        <time>2023-05-02T08:48:26Z</time>
      </trkpt>
      <trkpt lat="46.07302" lon="1.25794">
        <ele>348.2</ele>
        <time>2023-05-02T08:48:33Z</time>
      </trkpt>
      <trkpt lat="46.07331" lon="1.25824">
        <ele>348.8</ele>
        <time>2023-05-02T08:48:41Z</time>
      </trkpt>
      <trkpt lat="46.07356" lon="1.25857">
        <ele>349.4</ele>
        <time>2023-05-02T08:48:48Z</time>
      </trkpt>
      <trkpt lat="46.07377" lon="1.25886">
        <ele>349.8</ele>
        <time>2023-05-02T08:48:54Z</time>
      </trkpt>
      <trkpt lat="46.07403" lon="1.25927">
        <ele>350.4</ele>
        <time>2023-05-02T08:49:02Z</time>
      </trkpt>
      <trkpt lat="46.07433" lon="1.25969">
        <ele>350.8</ele>
        <time>2023-05-02T08:49:11Z</time>
      </trkpt>
      <trkpt lat="46.07436" lon="1.25974">
        <ele>351</ele>
        <time>2023-05-02T08:49:12Z</time>
      </trkpt>
      <trkpt lat="46.07454" lon="1.26001">
        <ele>351</ele>
        <time>2023-05-02T08:49:17Z</time>
      </trkpt>
      <trkpt lat="46.07492" lon="1.26045">
        <ele>351.2</ele>
        <time>2023-05-02T08:49:26Z</time>
      </trkpt>
      <trkpt lat="46.0753" lon="1.26089">
        <ele>351.6</ele>
        <time>2023-05-02T08:49:35Z</time>
      </trkpt>
      <trkpt lat="46.07565" lon="1.2613">
        <ele>352</ele>
        <time>2023-05-02T08:49:44Z</time>
      </trkpt>
      <trkpt lat="46.07578" lon="1.2614">
        <ele>352.2</ele>
        <time>2023-05-02T08:49:48Z</time>
      </trkpt>
      <trkpt lat="46.07602" lon="1.26151">
        <ele>352.6</ele>
        <time>2023-05-02T08:49:55Z</time>
      </trkpt>
      <trkpt lat="46.07629" lon="1.26159">
        <ele>353.2</ele>
        <time>2023-05-02T08:50:03Z</time>
      </trkpt>
      <trkpt lat="46.07655" lon="1.26161">
        <ele>353.8</ele>
        <time>2023-05-02T08:50:10Z</time>
      </trkpt>
      <trkpt lat="46.07681" lon="1.26163">
        <ele>354.6</ele>
        <time>2023-05-02T08:50:17Z</time>
      </trkpt>
      <trkpt lat="46.07692" lon="1.26166">
        <ele>354.8</ele>
        <time>2023-05-02T08:50:20Z</time>
      </trkpt>
      <trkpt lat="46.07707" lon="1.26176">
        <ele>355.2</ele>
        <time>2023-05-02T08:50:24Z</time>
      </trkpt>
      <trkpt lat="46.07733" lon="1.26203">
        <ele>355.4</ele>
        <time>2023-05-02T08:50:31Z</time>
      </trkpt>
      <trkpt lat="46.07771" lon="1.26238">
        <ele>355.6</ele>
        <time>2023-05-02T08:50:39Z</time>
      </trkpt>
      <trkpt lat="46.07786" lon="1.26251">
        <ele>355.6</ele>
        <time>2023-05-02T08:50:42Z</time>
      </trkpt>
      <trkpt lat="46.07798" lon="1.26256">
        <ele>355.6</ele>
        <time>2023-05-02T08:50:44Z</time>
      </trkpt>
      <trkpt lat="46.07827" lon="1.26257">
        <ele>355.6</ele>
        <time>2023-05-02T08:50:49Z</time>
      </trkpt>
      <trkpt lat="46.07865" lon="1.26252">
        <ele>355.6</ele>
        <time>2023-05-02T08:50:56Z</time>
      </trkpt>
      <trkpt lat="46.07889" lon="1.26253">
        <ele>355.4</ele>
        <time>2023-05-02T08:51:00Z</time>
      </trkpt>
      <trkpt lat="46.07896" lon="1.26252">
        <ele>355.4</ele>
        <time>2023-05-02T08:51:01Z</time>
      </trkpt>
      <trkpt lat="46.0793" lon="1.26235">
        <ele>355.2</ele>
        <time>2023-05-02T08:51:06Z</time>
      </trkpt>
      <trkpt lat="46.0795" lon="1.26223">
        <ele>355</ele>
        <time>2023-05-02T08:51:09Z</time>
      </trkpt>
      <trkpt lat="46.07965" lon="1.26217">
        <ele>354.8</ele>
        <time>2023-05-02T08:51:11Z</time>
      </trkpt>
      <trkpt lat="46.07973" lon="1.26215">
        <ele>354.6</ele>
        <time>2023-05-02T08:51:12Z</time>
      </trkpt>
      <trkpt lat="46.08021" lon="1.26197">
        <ele>353.8</ele>
        <time>2023-05-02T08:51:18Z</time>
      </trkpt>
      <trkpt lat="46.08059" lon="1.26171">
        <ele>352.6</ele>
        <time>2023-05-02T08:51:23Z</time>
      </trkpt>
      <trkpt lat="46.08111" lon="1.26138">
        <ele>351.2</ele>
        <time>2023-05-02T08:51:30Z</time>
      </trkpt>
      <trkpt lat="46.08142" lon="1.26126">
        <ele>351</ele>
        <time>2023-05-02T08:51:35Z</time>
      </trkpt>
      <trkpt lat="46.08158" lon="1.26122">
        <ele>350.6</ele>
        <time>2023-05-02T08:51:39Z</time>
      </trkpt>
      <trkpt lat="46.08168" lon="1.26111">
        <ele>350.8</ele>
        <time>2023-05-02T08:51:43Z</time>
      </trkpt>
      <trkpt lat="46.08178" lon="1.26098">
        <ele>350.6</ele>
        <time>2023-05-02T08:51:48Z</time>
      </trkpt>
      <trkpt lat="46.08191" lon="1.26076">
        <ele>350.4</ele>
        <time>2023-05-02T08:51:54Z</time>
      </trkpt>
      <trkpt lat="46.08203" lon="1.26053">
        <ele>350.2</ele>
        <time>2023-05-02T08:52:00Z</time>
      </trkpt>
      <trkpt lat="46.08207" lon="1.26046">
        <ele>350.2</ele>
        <time>2023-05-02T08:52:02Z</time>
      </trkpt>
      <trkpt lat="46.08211" lon="1.26043">
        <ele>350.2</ele>
        <time>2023-05-02T08:52:04Z</time>
      </trkpt>
      <trkpt lat="46.08211" lon="1.26043">
        <ele>350.2</ele>
        <time>2023-05-02T08:52:05Z</time>
      </trkpt>
      <trkpt lat="46.08213" lon="1.26039">
        <ele>349.6</ele>
        <time>2023-05-02T08:52:56Z</time>
      </trkpt>
      <trkpt lat="46.08215" lon="1.26036">
        <ele>349.6</ele>
        <time>2023-05-02T08:52:57Z</time>
      </trkpt>
      <trkpt lat="46.08218" lon="1.26032">
        <ele>349.6</ele>
        <time>2023-05-02T08:52:58Z</time>
      </trkpt>
      <trkpt lat="46.08229" lon="1.26022">
        <ele>349.6</ele>
        <time>2023-05-02T08:53:01Z</time>
      </trkpt>
      <trkpt lat="46.08239" lon="1.26004">
        <ele>349.2</ele>
        <time>2023-05-02T08:53:04Z</time>
      </trkpt>
      <trkpt lat="46.08241" lon="1.25996">
        <ele>349.2</ele>
        <time>2023-05-02T08:53:05Z</time>
      </trkpt>
      <trkpt lat="46.08242" lon="1.25988">
        <ele>349</ele>
        <time>2023-05-02T08:53:06Z</time>
      </trkpt>
      <trkpt lat="46.08244" lon="1.25959">
        <ele>348.4</ele>
        <time>2023-05-02T08:53:09Z</time>
      </trkpt>
      <trkpt lat="46.08245" lon="1.25949">
        <ele>348.2</ele>
        <time>2023-05-02T08:53:10Z</time>
      </trkpt>
      <trkpt lat="46.08248" lon="1.25919">
        <ele>347.8</ele>
        <time>2023-05-02T08:53:13Z</time>
      </trkpt>
      <trkpt lat="46.08251" lon="1.25899">
        <ele>347.8</ele>
        <time>2023-05-02T08:53:15Z</time>
      </trkpt>
      <trkpt lat="46.08259" lon="1.25833">
        <ele>347.4</ele>
        <time>2023-05-02T08:53:21Z</time>
      </trkpt>
      <trkpt lat="46.08254" lon="1.25798">
        <ele>347</ele>
        <time>2023-05-02T08:53:24Z</time>
      </trkpt>
      <trkpt lat="46.08256" lon="1.25773">
        <ele>346.8</ele>
        <time>2023-05-02T08:53:26Z</time>
      </trkpt>
      <trkpt lat="46.08269" lon="1.25754">
        <ele>346.6</ele>
        <time>2023-05-02T08:53:28Z</time>
      </trkpt>
      <trkpt lat="46.08283" lon="1.25742">
        <ele>346.2</ele>
        <time>2023-05-02T08:53:30Z</time>
      </trkpt>
      <trkpt lat="46.08288" lon="1.25735">
        <ele>346.2</ele>
        <time>2023-05-02T08:53:31Z</time>
      </trkpt>
      <trkpt lat="46.08292" lon="1.25727">
        <ele>346</ele>
        <time>2023-05-02T08:53:32Z</time>
      </trkpt>
      <trkpt lat="46.08291" lon="1.25717">
        <ele>345.6</ele>
        <time>2023-05-02T08:53:33Z</time>
      </trkpt>
      <trkpt lat="46.08291" lon="1.25708">
        <ele>345.4</ele>
        <time>2023-05-02T08:53:34Z</time>
      </trkpt>
      <trkpt lat="46.08288" lon="1.25691">
        <ele>345</ele>
        <time>2023-05-02T08:53:36Z</time>
      </trkpt>
      <trkpt lat="46.08287" lon="1.25682">
        <ele>344.8</ele>
        <time>2023-05-02T08:53:37Z</time>
      </trkpt>
      <trkpt lat="46.08287" lon="1.2565">
        <ele>344.2</ele>
        <time>2023-05-02T08:53:41Z</time>
      </trkpt>
      <trkpt lat="46.08288" lon="1.25642">
        <ele>344</ele>
        <time>2023-05-02T08:53:42Z</time>
      </trkpt>
      <trkpt lat="46.08286" lon="1.25619">
        <ele>343.6</ele>
        <time>2023-05-02T08:53:45Z</time>
      </trkpt>
      <trkpt lat="46.08284" lon="1.25604">
        <ele>343.4</ele>
        <time>2023-05-02T08:53:47Z</time>
      </trkpt>
      <trkpt lat="46.08284" lon="1.25583">
        <ele>343.2</ele>
        <time>2023-05-02T08:53:50Z</time>
      </trkpt>
      <trkpt lat="46.08283" lon="1.25568">
        <ele>343.2</ele>
        <time>2023-05-02T08:53:52Z</time>
      </trkpt>
      <trkpt lat="46.08284" lon="1.25532">
        <ele>343.2</ele>
        <time>2023-05-02T08:53:57Z</time>
      </trkpt>
      <trkpt lat="46.08285" lon="1.25511">
        <ele>343.4</ele>
        <time>2023-05-02T08:54:00Z</time>
      </trkpt>
      <trkpt lat="46.08287" lon="1.25496">
        <ele>343.4</ele>
        <time>2023-05-02T08:54:02Z</time>
      </trkpt>
      <trkpt lat="46.08289" lon="1.25489">
        <ele>343.4</ele>
        <time>2023-05-02T08:54:03Z</time>
      </trkpt>
      <trkpt lat="46.08304" lon="1.25461">
        <ele>342.4</ele>
        <time>2023-05-02T08:54:07Z</time>
      </trkpt>
      <trkpt lat="46.08308" lon="1.25455">
        <ele>342.4</ele>
        <time>2023-05-02T08:54:08Z</time>
      </trkpt>
      <trkpt lat="46.08317" lon="1.25443">
        <ele>343</ele>
        <time>2023-05-02T08:54:10Z</time>
      </trkpt>
      <trkpt lat="46.08325" lon="1.25431">
        <ele>343.2</ele>
        <time>2023-05-02T08:54:12Z</time>
      </trkpt>
      <trkpt lat="46.0834" lon="1.25417">
        <ele>343</ele>
        <time>2023-05-02T08:54:15Z</time>
      </trkpt>
      <trkpt lat="46.08344" lon="1.25411">
        <ele>343</ele>
        <time>2023-05-02T08:54:16Z</time>
      </trkpt>
      <trkpt lat="46.08373" lon="1.25372">
        <ele>342.6</ele>
        <time>2023-05-02T08:54:22Z</time>
      </trkpt>
      <trkpt lat="46.08408" lon="1.25325">
        <ele>342.4</ele>
        <time>2023-05-02T08:54:29Z</time>
      </trkpt>
      <trkpt lat="46.08433" lon="1.25293">
        <ele>342.6</ele>
        <time>2023-05-02T08:54:35Z</time>
      </trkpt>
      <trkpt lat="46.08444" lon="1.25279">
        <ele>342.4</ele>
        <time>2023-05-02T08:54:38Z</time>
      </trkpt>
      <trkpt lat="46.0845" lon="1.2527">
        <ele>342.4</ele>
        <time>2023-05-02T08:54:40Z</time>
      </trkpt>
      <trkpt lat="46.08456" lon="1.25262">
        <ele>342.2</ele>
        <time>2023-05-02T08:54:42Z</time>
      </trkpt>
      <trkpt lat="46.08463" lon="1.25254">
        <ele>342.2</ele>
        <time>2023-05-02T08:54:44Z</time>
      </trkpt>
      <trkpt lat="46.08472" lon="1.25236">
        <ele>342.2</ele>
        <time>2023-05-02T08:54:48Z</time>
      </trkpt>
      <trkpt lat="46.08477" lon="1.25211">
        <ele>342</ele>
        <time>2023-05-02T08:54:53Z</time>
      </trkpt>
      <trkpt lat="46.08482" lon="1.2519">
        <ele>342.2</ele>
        <time>2023-05-02T08:54:58Z</time>
      </trkpt>
      <trkpt lat="46.08486" lon="1.25179">
        <ele>342.4</ele>
        <time>2023-05-02T08:55:01Z</time>
      </trkpt>
      <trkpt lat="46.08486" lon="1.25174">
        <ele>342.4</ele>
        <time>2023-05-02T08:55:02Z</time>
      </trkpt>
      <trkpt lat="46.08487" lon="1.25167">
        <ele>342.6</ele>
        <time>2023-05-02T08:55:04Z</time>
      </trkpt>
      <trkpt lat="46.08489" lon="1.2516">
        <ele>342.8</ele>
        <time>2023-05-02T08:55:06Z</time>
      </trkpt>
      <trkpt lat="46.08491" lon="1.25148">
        <ele>343</ele>
        <time>2023-05-02T08:55:09Z</time>
      </trkpt>
      <trkpt lat="46.08493" lon="1.25144">
        <ele>343.2</ele>
        <time>2023-05-02T08:55:10Z</time>
      </trkpt>
      <trkpt lat="46.08495" lon="1.25135">
        <ele>343.4</ele>
        <time>2023-05-02T08:55:12Z</time>
      </trkpt>
      <trkpt lat="46.08496" lon="1.25129">
        <ele>343.6</ele>
        <time>2023-05-02T08:55:14Z</time>
      </trkpt>
      <trkpt lat="46.08494" lon="1.25118">
        <ele>344</ele>
        <time>2023-05-02T08:55:17Z</time>
      </trkpt>
      <trkpt lat="46.08486" lon="1.25103">
        <ele>344.2</ele>
        <time>2023-05-02T08:55:21Z</time>
      </trkpt>
      <trkpt lat="46.08484" lon="1.25099">
        <ele>344.4</ele>
        <time>2023-05-02T08:55:22Z</time>
      </trkpt>
      <trkpt lat="46.0848" lon="1.25087">
        <ele>344.8</ele>
        <time>2023-05-02T08:55:25Z</time>
      </trkpt>
      <trkpt lat="46.08475" lon="1.25075">
        <ele>345.4</ele>
        <time>2023-05-02T08:55:29Z</time>
      </trkpt>
      <trkpt lat="46.08468" lon="1.25067">
        <ele>346</ele>
        <time>2023-05-02T08:55:33Z</time>
      </trkpt>
      <trkpt lat="46.0846" lon="1.25057">
        <ele>346.8</ele>
        <time>2023-05-02T08:55:38Z</time>
      </trkpt>
      <trkpt lat="46.0845" lon="1.25044">
        <ele>347.6</ele>
        <time>2023-05-02T08:55:44Z</time>
      </trkpt>
      <trkpt lat="46.0845" lon="1.25041">
        <ele>347.8</ele>
        <time>2023-05-02T08:55:45Z</time>
      </trkpt>
      <trkpt lat="46.08451" lon="1.25036">
        <ele>348.2</ele>
        <time>2023-05-02T08:55:47Z</time>
      </trkpt>
      <trkpt lat="46.08452" lon="1.25036">
        <ele>348.4</ele>
        <time>2023-05-02T08:55:48Z</time>
      </trkpt>
      <trkpt lat="46.08454" lon="1.25036">
        <ele>349</ele>
        <time>2023-05-02T08:55:51Z</time>
      </trkpt>
      <trkpt lat="46.08465" lon="1.25035">
        <ele>356.2</ele>
        <time>2023-05-02T08:57:15Z</time>
      </trkpt>
      <trkpt lat="46.08471" lon="1.25036">
        <ele>356.2</ele>
        <time>2023-05-02T08:57:17Z</time>
      </trkpt>
      <trkpt lat="46.08489" lon="1.25031">
        <ele>356.6</ele>
        <time>2023-05-02T08:57:23Z</time>
      </trkpt>
      <trkpt lat="46.08509" lon="1.2502">
        <ele>356.8</ele>
        <time>2023-05-02T08:57:30Z</time>
      </trkpt>
      <trkpt lat="46.08531" lon="1.2501">
        <ele>357.2</ele>
        <time>2023-05-02T08:57:38Z</time>
      </trkpt>
      <trkpt lat="46.08545" lon="1.25014">
        <ele>357.4</ele>
        <time>2023-05-02T08:57:43Z</time>
      </trkpt>
      <trkpt lat="46.08561" lon="1.25025">
        <ele>358</ele>
        <time>2023-05-02T08:57:49Z</time>
      </trkpt>
      <trkpt lat="46.08581" lon="1.25046">
        <ele>358.6</ele>
        <time>2023-05-02T08:57:57Z</time>
      </trkpt>
      <trkpt lat="46.08602" lon="1.25068">
        <ele>359.6</ele>
        <time>2023-05-02T08:58:05Z</time>
      </trkpt>
      <trkpt lat="46.0862" lon="1.25083">
        <ele>360.2</ele>
        <time>2023-05-02T08:58:11Z</time>
      </trkpt>
      <trkpt lat="46.08642" lon="1.25099">
        <ele>361.2</ele>
        <time>2023-05-02T08:58:18Z</time>
      </trkpt>
      <trkpt lat="46.08665" lon="1.25111">
        <ele>361.8</ele>
        <time>2023-05-02T08:58:25Z</time>
      </trkpt>
      <trkpt lat="46.08696" lon="1.2513">
        <ele>362.6</ele>
        <time>2023-05-02T08:58:35Z</time>
      </trkpt>
      <trkpt lat="46.08713" lon="1.25141">
        <ele>363.2</ele>
        <time>2023-05-02T08:58:40Z</time>
      </trkpt>
      <trkpt lat="46.0874" lon="1.25157">
        <ele>364.2</ele>
        <time>2023-05-02T08:58:48Z</time>
      </trkpt>
      <trkpt lat="46.08755" lon="1.25166">
        <ele>364.6</ele>
        <time>2023-05-02T08:58:52Z</time>
      </trkpt>
      <trkpt lat="46.08768" lon="1.25171">
        <ele>364.8</ele>
        <time>2023-05-02T08:58:55Z</time>
      </trkpt>
      <trkpt lat="46.088" lon="1.2518">
        <ele>364.8</ele>
        <time>2023-05-02T08:59:01Z</time>
      </trkpt>
      <trkpt lat="46.08839" lon="1.25192">
        <ele>365.2</ele>
        <time>2023-05-02T08:59:08Z</time>
      </trkpt>
      <trkpt lat="46.08867" lon="1.25213">
        <ele>365.4</ele>
        <time>2023-05-02T08:59:14Z</time>
      </trkpt>
      <trkpt lat="46.08885" lon="1.25233">
        <ele>365.4</ele>
        <time>2023-05-02T08:59:18Z</time>
      </trkpt>
      <trkpt lat="46.08894" lon="1.25245">
        <ele>365.4</ele>
        <time>2023-05-02T08:59:20Z</time>
      </trkpt>
      <trkpt lat="46.08925" lon="1.25288">
        <ele>365.6</ele>
        <time>2023-05-02T08:59:26Z</time>
      </trkpt>
      <trkpt lat="46.08959" lon="1.25347">
        <ele>364.4</ele>
        <time>2023-05-02T08:59:33Z</time>
      </trkpt>
      <trkpt lat="46.08969" lon="1.25357">
        <ele>364.4</ele>
        <time>2023-05-02T08:59:35Z</time>
      </trkpt>
      <trkpt lat="46.08979" lon="1.25364">
        <ele>364.4</ele>
        <time>2023-05-02T08:59:37Z</time>
      </trkpt>
      <trkpt lat="46.09016" lon="1.25395">
        <ele>365</ele>
        <time>2023-05-02T08:59:45Z</time>
      </trkpt>
      <trkpt lat="46.09051" lon="1.25436">
        <ele>365</ele>
        <time>2023-05-02T08:59:53Z</time>
      </trkpt>
      <trkpt lat="46.09069" lon="1.25453">
        <ele>364.6</ele>
        <time>2023-05-02T08:59:56Z</time>
      </trkpt>
      <trkpt lat="46.09076" lon="1.25457">
        <ele>364.6</ele>
        <time>2023-05-02T08:59:57Z</time>
      </trkpt>
      <trkpt lat="46.09083" lon="1.25459">
        <ele>364.6</ele>
        <time>2023-05-02T08:59:58Z</time>
      </trkpt>
      <trkpt lat="46.091" lon="1.25459">
        <ele>364.4</ele>
        <time>2023-05-02T09:00:00Z</time>
      </trkpt>
      <trkpt lat="46.09148" lon="1.25455">
        <ele>363</ele>
        <time>2023-05-02T09:00:05Z</time>
      </trkpt>
      <trkpt lat="46.09193" lon="1.25453">
        <ele>362</ele>
        <time>2023-05-02T09:00:09Z</time>
      </trkpt>
      <trkpt lat="46.09238" lon="1.25438">
        <ele>360.6</ele>
        <time>2023-05-02T09:00:13Z</time>
      </trkpt>
      <trkpt lat="46.0925" lon="1.25437">
        <ele>360.4</ele>
        <time>2023-05-02T09:00:14Z</time>
      </trkpt>
      <trkpt lat="46.09285" lon="1.25439">
        <ele>359.2</ele>
        <time>2023-05-02T09:00:17Z</time>
      </trkpt>
      <trkpt lat="46.09317" lon="1.25442">
        <ele>358.4</ele>
        <time>2023-05-02T09:00:20Z</time>
      </trkpt>
      <trkpt lat="46.09326" lon="1.25446">
        <ele>358.2</ele>
        <time>2023-05-02T09:00:21Z</time>
      </trkpt>
      <trkpt lat="46.09335" lon="1.25454">
        <ele>357.8</ele>
        <time>2023-05-02T09:00:22Z</time>
      </trkpt>
      <trkpt lat="46.09348" lon="1.25475">
        <ele>357.4</ele>
        <time>2023-05-02T09:00:24Z</time>
      </trkpt>
      <trkpt lat="46.09383" lon="1.25542">
        <ele>355.6</ele>
        <time>2023-05-02T09:00:30Z</time>
      </trkpt>
      <trkpt lat="46.09389" lon="1.25551">
        <ele>355.2</ele>
        <time>2023-05-02T09:00:31Z</time>
      </trkpt>
      <trkpt lat="46.09404" lon="1.25561">
        <ele>354.4</ele>
        <time>2023-05-02T09:00:33Z</time>
      </trkpt>
      <trkpt lat="46.09421" lon="1.25558">
        <ele>353.6</ele>
        <time>2023-05-02T09:00:35Z</time>
      </trkpt>
      <trkpt lat="46.09448" lon="1.25541">
        <ele>352.4</ele>
        <time>2023-05-02T09:00:38Z</time>
      </trkpt>
      <trkpt lat="46.09463" lon="1.2553">
        <ele>351.4</ele>
        <time>2023-05-02T09:00:40Z</time>
      </trkpt>
      <trkpt lat="46.09469" lon="1.25526">
        <ele>351</ele>
        <time>2023-05-02T09:00:41Z</time>
      </trkpt>
      <trkpt lat="46.09474" lon="1.25524">
        <ele>350.4</ele>
        <time>2023-05-02T09:00:42Z</time>
      </trkpt>
      <trkpt lat="46.09484" lon="1.25522">
        <ele>349.6</ele>
        <time>2023-05-02T09:00:44Z</time>
      </trkpt>
      <trkpt lat="46.09489" lon="1.25523">
        <ele>349</ele>
        <time>2023-05-02T09:00:45Z</time>
      </trkpt>
      <trkpt lat="46.09495" lon="1.25525">
        <ele>348.6</ele>
        <time>2023-05-02T09:00:46Z</time>
      </trkpt>
      <trkpt lat="46.09515" lon="1.25535">
        <ele>347.2</ele>
        <time>2023-05-02T09:00:49Z</time>
      </trkpt>
      <trkpt lat="46.09536" lon="1.25545">
        <ele>345.6</ele>
        <time>2023-05-02T09:00:52Z</time>
      </trkpt>
      <trkpt lat="46.09548" lon="1.25551">
        <ele>344.6</ele>
        <time>2023-05-02T09:00:54Z</time>
      </trkpt>
      <trkpt lat="46.09573" lon="1.25561">
        <ele>343.2</ele>
        <time>2023-05-02T09:00:57Z</time>
      </trkpt>
      <trkpt lat="46.09622" lon="1.25573">
        <ele>341</ele>
        <time>2023-05-02T09:01:02Z</time>
      </trkpt>
      <trkpt lat="46.09683" lon="1.25584">
        <ele>338</ele>
        <time>2023-05-02T09:01:08Z</time>
      </trkpt>
      <trkpt lat="46.09694" lon="1.25585">
        <ele>337.6</ele>
        <time>2023-05-02T09:01:09Z</time>
      </trkpt>
      <trkpt lat="46.09755" lon="1.25597">
        <ele>334.6</ele>
        <time>2023-05-02T09:01:15Z</time>
      </trkpt>
      <trkpt lat="46.09775" lon="1.25603">
        <ele>333.6</ele>
        <time>2023-05-02T09:01:17Z</time>
      </trkpt>
      <trkpt lat="46.09793" lon="1.25618">
        <ele>332.8</ele>
        <time>2023-05-02T09:01:19Z</time>
      </trkpt>
      <trkpt lat="46.098" lon="1.25627">
        <ele>332.4</ele>
        <time>2023-05-02T09:01:20Z</time>
      </trkpt>
      <trkpt lat="46.09824" lon="1.25667">
        <ele>330.6</ele>
        <time>2023-05-02T09:01:24Z</time>
      </trkpt>
      <trkpt lat="46.09829" lon="1.25676">
        <ele>330.4</ele>
        <time>2023-05-02T09:01:25Z</time>
      </trkpt>
      <trkpt lat="46.09842" lon="1.25696">
        <ele>329.6</ele>
        <time>2023-05-02T09:01:28Z</time>
      </trkpt>
      <trkpt lat="46.09847" lon="1.25701">
        <ele>329.4</ele>
        <time>2023-05-02T09:01:29Z</time>
      </trkpt>
      <trkpt lat="46.09857" lon="1.25711">
        <ele>328.8</ele>
        <time>2023-05-02T09:01:32Z</time>
      </trkpt>
      <trkpt lat="46.09871" lon="1.25724">
        <ele>328</ele>
        <time>2023-05-02T09:01:37Z</time>
      </trkpt>
      <trkpt lat="46.09888" lon="1.25739">
        <ele>327</ele>
        <time>2023-05-02T09:01:43Z</time>
      </trkpt>
      <trkpt lat="46.09902" lon="1.25753">
        <ele>326.4</ele>
        <time>2023-05-02T09:01:49Z</time>
      </trkpt>
      <trkpt lat="46.09913" lon="1.25768">
        <ele>326.2</ele>
        <time>2023-05-02T09:01:54Z</time>
      </trkpt>
      <trkpt lat="46.09927" lon="1.25785">
        <ele>326.2</ele>
        <time>2023-05-02T09:02:00Z</time>
      </trkpt>
      <trkpt lat="46.09937" lon="1.258">
        <ele>326.4</ele>
        <time>2023-05-02T09:02:05Z</time>
      </trkpt>
      <trkpt lat="46.09946" lon="1.25814">
        <ele>325.8</ele>
        <time>2023-05-02T09:02:10Z</time>
      </trkpt>
      <trkpt lat="46.09955" lon="1.25824">
        <ele>326.6</ele>
        <time>2023-05-02T09:02:15Z</time>
      </trkpt>
      <trkpt lat="46.09963" lon="1.25832">
        <ele>326.8</ele>
        <time>2023-05-02T09:02:19Z</time>
      </trkpt>
      <trkpt lat="46.0997" lon="1.25837">
        <ele>327.2</ele>
        <time>2023-05-02T09:02:23Z</time>
      </trkpt>
      <trkpt lat="46.09981" lon="1.25842">
        <ele>327.4</ele>
        <time>2023-05-02T09:02:28Z</time>
      </trkpt>
      <trkpt lat="46.09996" lon="1.25846">
        <ele>327.4</ele>
        <time>2023-05-02T09:02:33Z</time>
      </trkpt>
      <trkpt lat="46.10016" lon="1.25845">
        <ele>327.2</ele>
        <time>2023-05-02T09:02:39Z</time>
      </trkpt>
      <trkpt lat="46.10036" lon="1.25844">
        <ele>326.2</ele>
        <time>2023-05-02T09:02:44Z</time>
      </trkpt>
      <trkpt lat="46.10066" lon="1.25839">
        <ele>326.2</ele>
        <time>2023-05-02T09:02:50Z</time>
      </trkpt>
      <trkpt lat="46.10102" lon="1.25835">
        <ele>325.4</ele>
        <time>2023-05-02T09:02:55Z</time>
      </trkpt>
      <trkpt lat="46.10161" lon="1.25828">
        <ele>324</ele>
        <time>2023-05-02T09:03:02Z</time>
      </trkpt>
      <trkpt lat="46.10204" lon="1.25816">
        <ele>323.2</ele>
        <time>2023-05-02T09:03:07Z</time>
      </trkpt>
      <trkpt lat="46.10252" lon="1.25791">
        <ele>322.2</ele>
        <time>2023-05-02T09:03:13Z</time>
      </trkpt>
      <trkpt lat="46.10284" lon="1.25786">
        <ele>321.6</ele>
        <time>2023-05-02T09:03:17Z</time>
      </trkpt>
      <trkpt lat="46.10305" lon="1.25785">
        <ele>321.6</ele>
        <time>2023-05-02T09:03:21Z</time>
      </trkpt>
      <trkpt lat="46.10327" lon="1.25787">
        <ele>321.8</ele>
        <time>2023-05-02T09:03:27Z</time>
      </trkpt>
      <trkpt lat="46.10345" lon="1.25799">
        <ele>321.8</ele>
        <time>2023-05-02T09:03:32Z</time>
      </trkpt>
      <trkpt lat="46.10357" lon="1.25818">
        <ele>321.6</ele>
        <time>2023-05-02T09:03:37Z</time>
      </trkpt>
      <trkpt lat="46.10369" lon="1.25837">
        <ele>322.2</ele>
        <time>2023-05-02T09:03:43Z</time>
      </trkpt>
      <trkpt lat="46.10383" lon="1.25857">
        <ele>322.4</ele>
        <time>2023-05-02T09:03:49Z</time>
      </trkpt>
      <trkpt lat="46.10399" lon="1.25881">
        <ele>322.8</ele>
        <time>2023-05-02T09:03:56Z</time>
      </trkpt>
      <trkpt lat="46.10416" lon="1.25905">
        <ele>323.2</ele>
        <time>2023-05-02T09:04:03Z</time>
      </trkpt>
      <trkpt lat="46.10435" lon="1.25932">
        <ele>323.4</ele>
        <time>2023-05-02T09:04:11Z</time>
      </trkpt>
      <trkpt lat="46.1045" lon="1.25951">
        <ele>323.8</ele>
        <time>2023-05-02T09:04:17Z</time>
      </trkpt>
      <trkpt lat="46.10468" lon="1.25966">
        <ele>324.2</ele>
        <time>2023-05-02T09:04:24Z</time>
      </trkpt>
      <trkpt lat="46.10485" lon="1.25978">
        <ele>324.6</ele>
        <time>2023-05-02T09:04:31Z</time>
      </trkpt>
      <trkpt lat="46.10494" lon="1.25994">
        <ele>325</ele>
        <time>2023-05-02T09:04:36Z</time>
      </trkpt>
      <trkpt lat="46.10495" lon="1.26009">
        <ele>325.6</ele>
        <time>2023-05-02T09:04:41Z</time>
      </trkpt>
      <trkpt lat="46.10496" lon="1.26019">
        <ele>326</ele>
        <time>2023-05-02T09:04:45Z</time>
      </trkpt>
      <trkpt lat="46.10497" lon="1.26025">
        <ele>326.2</ele>
        <time>2023-05-02T09:04:47Z</time>
      </trkpt>
      <trkpt lat="46.10497" lon="1.26032">
        <ele>326.4</ele>
        <time>2023-05-02T09:04:49Z</time>
      </trkpt>
      <trkpt lat="46.10495" lon="1.26045">
        <ele>327</ele>
        <time>2023-05-02T09:04:53Z</time>
      </trkpt>
      <trkpt lat="46.10495" lon="1.26048">
        <ele>327</ele>
        <time>2023-05-02T09:04:54Z</time>
      </trkpt>
      <trkpt lat="46.10495" lon="1.26054">
        <ele>327.4</ele>
        <time>2023-05-02T09:04:56Z</time>
      </trkpt>
      <trkpt lat="46.10496" lon="1.26057">
        <ele>327.6</ele>
        <time>2023-05-02T09:04:57Z</time>
      </trkpt>
      <trkpt lat="46.10494" lon="1.26063">
        <ele>327.6</ele>
        <time>2023-05-02T09:04:59Z</time>
      </trkpt>
      <trkpt lat="46.10493" lon="1.26069">
        <ele>328</ele>
        <time>2023-05-02T09:05:01Z</time>
      </trkpt>
      <trkpt lat="46.10493" lon="1.26072">
        <ele>328.2</ele>
        <time>2023-05-02T09:05:02Z</time>
      </trkpt>
      <trkpt lat="46.10493" lon="1.2608">
        <ele>328.8</ele>
        <time>2023-05-02T09:05:05Z</time>
      </trkpt>
      <trkpt lat="46.10493" lon="1.26085">
        <ele>329</ele>
        <time>2023-05-02T09:05:07Z</time>
      </trkpt>
      <trkpt lat="46.10495" lon="1.26093">
        <ele>329.6</ele>
        <time>2023-05-02T09:05:10Z</time>
      </trkpt>
      <trkpt lat="46.10499" lon="1.26106">
        <ele>330.6</ele>
        <time>2023-05-02T09:05:15Z</time>
      </trkpt>
      <trkpt lat="46.10506" lon="1.26114">
        <ele>331.2</ele>
        <time>2023-05-02T09:05:20Z</time>
      </trkpt>
      <trkpt lat="46.10514" lon="1.26118">
        <ele>332.2</ele>
        <time>2023-05-02T09:05:25Z</time>
      </trkpt>
      <trkpt lat="46.10522" lon="1.2612">
        <ele>333</ele>
        <time>2023-05-02T09:05:30Z</time>
      </trkpt>
      <trkpt lat="46.10531" lon="1.26122">
        <ele>333.8</ele>
        <time>2023-05-02T09:05:35Z</time>
      </trkpt>
      <trkpt lat="46.10533" lon="1.26122">
        <ele>334</ele>
        <time>2023-05-02T09:05:36Z</time>
      </trkpt>
      <trkpt lat="46.10547" lon="1.26119">
        <ele>335.2</ele>
        <time>2023-05-02T09:05:41Z</time>
      </trkpt>
      <trkpt lat="46.10563" lon="1.2612">
        <ele>336.6</ele>
        <time>2023-05-02T09:05:48Z</time>
      </trkpt>
      <trkpt lat="46.10572" lon="1.26119">
        <ele>337.6</ele>
        <time>2023-05-02T09:05:53Z</time>
      </trkpt>
      <trkpt lat="46.10589" lon="1.26117">
        <ele>338.6</ele>
        <time>2023-05-02T09:05:59Z</time>
      </trkpt>
      <trkpt lat="46.10604" lon="1.26117">
        <ele>339.4</ele>
        <time>2023-05-02T09:06:05Z</time>
      </trkpt>
      <trkpt lat="46.10621" lon="1.26119">
        <ele>340.2</ele>
        <time>2023-05-02T09:06:12Z</time>
      </trkpt>
      <trkpt lat="46.1064" lon="1.26121">
        <ele>341</ele>
        <time>2023-05-02T09:06:20Z</time>
      </trkpt>
      <trkpt lat="46.10657" lon="1.26122">
        <ele>342</ele>
        <time>2023-05-02T09:06:27Z</time>
      </trkpt>
      <trkpt lat="46.10681" lon="1.26124">
        <ele>342.8</ele>
        <time>2023-05-02T09:06:35Z</time>
      </trkpt>
      <trkpt lat="46.10695" lon="1.26132">
        <ele>343.2</ele>
        <time>2023-05-02T09:06:39Z</time>
      </trkpt>
      <trkpt lat="46.10699" lon="1.26135">
        <ele>343.4</ele>
        <time>2023-05-02T09:06:40Z</time>
      </trkpt>
      <trkpt lat="46.10711" lon="1.26151">
        <ele>343.6</ele>
        <time>2023-05-02T09:06:44Z</time>
      </trkpt>
      <trkpt lat="46.10716" lon="1.2616">
        <ele>343.6</ele>
        <time>2023-05-02T09:06:46Z</time>
      </trkpt>
      <trkpt lat="46.10718" lon="1.26165">
        <ele>343.8</ele>
        <time>2023-05-02T09:06:47Z</time>
      </trkpt>
      <trkpt lat="46.10726" lon="1.26181">
        <ele>343.8</ele>
        <time>2023-05-02T09:06:50Z</time>
      </trkpt>
      <trkpt lat="46.10728" lon="1.26187">
        <ele>344</ele>
        <time>2023-05-02T09:06:51Z</time>
      </trkpt>
      <trkpt lat="46.10733" lon="1.26198">
        <ele>344.2</ele>
        <time>2023-05-02T09:06:53Z</time>
      </trkpt>
      <trkpt lat="46.1074" lon="1.26215">
        <ele>344.4</ele>
        <time>2023-05-02T09:06:56Z</time>
      </trkpt>
      <trkpt lat="46.10756" lon="1.26251">
        <ele>344.8</ele>
        <time>2023-05-02T09:07:02Z</time>
      </trkpt>
      <trkpt lat="46.10773" lon="1.26283">
        <ele>345.2</ele>
        <time>2023-05-02T09:07:08Z</time>
      </trkpt>
      <trkpt lat="46.1079" lon="1.26304">
        <ele>345.8</ele>
        <time>2023-05-02T09:07:14Z</time>
      </trkpt>
      <trkpt lat="46.1081" lon="1.26322">
        <ele>346.4</ele>
        <time>2023-05-02T09:07:20Z</time>
      </trkpt>
      <trkpt lat="46.1083" lon="1.26338">
        <ele>347.2</ele>
        <time>2023-05-02T09:07:26Z</time>
      </trkpt>
      <trkpt lat="46.10849" lon="1.26357">
        <ele>348.2</ele>
        <time>2023-05-02T09:07:32Z</time>
      </trkpt>
      <trkpt lat="46.10868" lon="1.26375">
        <ele>349</ele>
        <time>2023-05-02T09:07:38Z</time>
      </trkpt>
      <trkpt lat="46.10895" lon="1.26397">
        <ele>349.8</ele>
        <time>2023-05-02T09:07:45Z</time>
      </trkpt>
      <trkpt lat="46.10927" lon="1.26426">
        <ele>350.4</ele>
        <time>2023-05-02T09:07:53Z</time>
      </trkpt>
      <trkpt lat="46.10939" lon="1.26436">
        <ele>350.6</ele>
        <time>2023-05-02T09:07:56Z</time>
      </trkpt>
      <trkpt lat="46.10946" lon="1.26443">
        <ele>350.6</ele>
        <time>2023-05-02T09:07:58Z</time>
      </trkpt>
      <trkpt lat="46.10949" lon="1.26446">
        <ele>350.6</ele>
        <time>2023-05-02T09:07:59Z</time>
      </trkpt>
      <trkpt lat="46.10961" lon="1.26457">
        <ele>350.8</ele>
        <time>2023-05-02T09:08:02Z</time>
      </trkpt>
      <trkpt lat="46.10971" lon="1.26464">
        <ele>350.8</ele>
        <time>2023-05-02T09:08:06Z</time>
      </trkpt>
      <trkpt lat="46.10974" lon="1.26474">
        <ele>350.4</ele>
        <time>2023-05-02T09:08:10Z</time>
      </trkpt>
      <trkpt lat="46.10974" lon="1.26481">
        <ele>350.4</ele>
        <time>2023-05-02T09:08:12Z</time>
      </trkpt>
      <trkpt lat="46.10978" lon="1.26488">
        <ele>350</ele>
        <time>2023-05-02T09:08:14Z</time>
      </trkpt>
      <trkpt lat="46.10982" lon="1.26498">
        <ele>349.6</ele>
        <time>2023-05-02T09:08:16Z</time>
      </trkpt>
      <trkpt lat="46.10988" lon="1.26513">
        <ele>349.4</ele>
        <time>2023-05-02T09:08:18Z</time>
      </trkpt>
      <trkpt lat="46.10989" lon="1.26528">
        <ele>348.8</ele>
        <time>2023-05-02T09:08:21Z</time>
      </trkpt>
      <trkpt lat="46.10989" lon="1.2654">
        <ele>348.2</ele>
        <time>2023-05-02T09:08:24Z</time>
      </trkpt>
      <trkpt lat="46.1099" lon="1.26548">
        <ele>348</ele>
        <time>2023-05-02T09:08:26Z</time>
      </trkpt>
      <trkpt lat="46.10995" lon="1.26565">
        <ele>347.8</ele>
        <time>2023-05-02T09:08:30Z</time>
      </trkpt>
      <trkpt lat="46.11003" lon="1.2659">
        <ele>347.6</ele>
        <time>2023-05-02T09:08:35Z</time>
      </trkpt>
      <trkpt lat="46.11017" lon="1.26622">
        <ele>347.6</ele>
        <time>2023-05-02T09:08:41Z</time>
      </trkpt>
      <trkpt lat="46.11019" lon="1.26634">
        <ele>347.8</ele>
        <time>2023-05-02T09:08:43Z</time>
      </trkpt>
      <trkpt lat="46.1102" lon="1.2664">
        <ele>347.6</ele>
        <time>2023-05-02T09:08:44Z</time>
      </trkpt>
      <trkpt lat="46.11027" lon="1.26662">
        <ele>347.6</ele>
        <time>2023-05-02T09:08:48Z</time>
      </trkpt>
      <trkpt lat="46.11029" lon="1.26669">
        <ele>347.6</ele>
        <time>2023-05-02T09:08:49Z</time>
      </trkpt>
      <trkpt lat="46.11031" lon="1.26681">
        <ele>347.6</ele>
        <time>2023-05-02T09:08:51Z</time>
      </trkpt>
      <trkpt lat="46.11032" lon="1.26688">
        <ele>347.6</ele>
        <time>2023-05-02T09:08:52Z</time>
      </trkpt>
      <trkpt lat="46.11033" lon="1.26705">
        <ele>347.6</ele>
        <time>2023-05-02T09:08:56Z</time>
      </trkpt>
      <trkpt lat="46.11035" lon="1.26728">
        <ele>347.4</ele>
        <time>2023-05-02T09:09:01Z</time>
      </trkpt>
      <trkpt lat="46.11037" lon="1.26747">
        <ele>347.2</ele>
        <time>2023-05-02T09:09:05Z</time>
      </trkpt>
      <trkpt lat="46.11045" lon="1.26771">
        <ele>347.4</ele>
        <time>2023-05-02T09:09:11Z</time>
      </trkpt>
      <trkpt lat="46.11052" lon="1.26788">
        <ele>347.8</ele>
        <time>2023-05-02T09:09:16Z</time>
      </trkpt>
      <trkpt lat="46.11069" lon="1.26813">
        <ele>348.4</ele>
        <time>2023-05-02T09:09:24Z</time>
      </trkpt>
      <trkpt lat="46.11081" lon="1.26832">
        <ele>348.8</ele>
        <time>2023-05-02T09:09:31Z</time>
      </trkpt>
      <trkpt lat="46.11097" lon="1.26855">
        <ele>350</ele>
        <time>2023-05-02T09:09:39Z</time>
      </trkpt>
      <trkpt lat="46.11097" lon="1.26858">
        <ele>350.2</ele>
        <time>2023-05-02T09:09:40Z</time>
      </trkpt>
      <trkpt lat="46.111" lon="1.26863">
        <ele>350.6</ele>
        <time>2023-05-02T09:09:42Z</time>
      </trkpt>
      <trkpt lat="46.11106" lon="1.26874">
        <ele>351.4</ele>
        <time>2023-05-02T09:09:46Z</time>
      </trkpt>
      <trkpt lat="46.11114" lon="1.26884">
        <ele>352.2</ele>
        <time>2023-05-02T09:09:50Z</time>
      </trkpt>
      <trkpt lat="46.11127" lon="1.26902">
        <ele>352.8</ele>
        <time>2023-05-02T09:09:55Z</time>
      </trkpt>
      <trkpt lat="46.11129" lon="1.26906">
        <ele>352.8</ele>
        <time>2023-05-02T09:09:56Z</time>
      </trkpt>
      <trkpt lat="46.11134" lon="1.26913">
        <ele>352.8</ele>
        <time>2023-05-02T09:09:58Z</time>
      </trkpt>
      <trkpt lat="46.11141" lon="1.26925">
        <ele>352.8</ele>
        <time>2023-05-02T09:10:02Z</time>
      </trkpt>
      <trkpt lat="46.11156" lon="1.26944">
        <ele>353</ele>
        <time>2023-05-02T09:10:08Z</time>
      </trkpt>
      <trkpt lat="46.11159" lon="1.2695">
        <ele>353.2</ele>
        <time>2023-05-02T09:10:10Z</time>
      </trkpt>
      <trkpt lat="46.11159" lon="1.26953">
        <ele>353.4</ele>
        <time>2023-05-02T09:10:11Z</time>
      </trkpt>
      <trkpt lat="46.1116" lon="1.26959">
        <ele>353.4</ele>
        <time>2023-05-02T09:10:13Z</time>
      </trkpt>
      <trkpt lat="46.11163" lon="1.26967">
        <ele>353.6</ele>
        <time>2023-05-02T09:10:15Z</time>
      </trkpt>
      <trkpt lat="46.11172" lon="1.26982">
        <ele>353.6</ele>
        <time>2023-05-02T09:10:19Z</time>
      </trkpt>
      <trkpt lat="46.11179" lon="1.26993">
        <ele>353.8</ele>
        <time>2023-05-02T09:10:22Z</time>
      </trkpt>
      <trkpt lat="46.11179" lon="1.26995">
        <ele>353.8</ele>
        <time>2023-05-02T09:10:23Z</time>
      </trkpt>
      <trkpt lat="46.11183" lon="1.27002">
        <ele>354</ele>
        <time>2023-05-02T09:10:26Z</time>
      </trkpt>
      <trkpt lat="46.11186" lon="1.27007">
        <ele>354.2</ele>
        <time>2023-05-02T09:10:28Z</time>
      </trkpt>
      <trkpt lat="46.11188" lon="1.27008">
        <ele>354.2</ele>
        <time>2023-05-02T09:10:29Z</time>
      </trkpt>
      <trkpt lat="46.11198" lon="1.27014">
        <ele>354</ele>
        <time>2023-05-02T09:10:32Z</time>
      </trkpt>
      <trkpt lat="46.11217" lon="1.27023">
        <ele>354</ele>
        <time>2023-05-02T09:10:37Z</time>
      </trkpt>
      <trkpt lat="46.11227" lon="1.27031">
        <ele>354</ele>
        <time>2023-05-02T09:10:41Z</time>
      </trkpt>
      <trkpt lat="46.11242" lon="1.27045">
        <ele>353.2</ele>
        <time>2023-05-02T09:10:46Z</time>
      </trkpt>
      <trkpt lat="46.1125" lon="1.27055">
        <ele>352.8</ele>
        <time>2023-05-02T09:10:49Z</time>
      </trkpt>
      <trkpt lat="46.11261" lon="1.27067">
        <ele>352</ele>
        <time>2023-05-02T09:10:53Z</time>
      </trkpt>
      <trkpt lat="46.1128" lon="1.27084">
        <ele>350.6</ele>
        <time>2023-05-02T09:10:58Z</time>
      </trkpt>
      <trkpt lat="46.11307" lon="1.27106">
        <ele>349</ele>
        <time>2023-05-02T09:11:04Z</time>
      </trkpt>
      <trkpt lat="46.11329" lon="1.27119">
        <ele>347.4</ele>
        <time>2023-05-02T09:11:10Z</time>
      </trkpt>
      <trkpt lat="46.11348" lon="1.27124">
        <ele>346</ele>
        <time>2023-05-02T09:11:16Z</time>
      </trkpt>
      <trkpt lat="46.11362" lon="1.27128">
        <ele>345</ele>
        <time>2023-05-02T09:11:22Z</time>
      </trkpt>
      <trkpt lat="46.11375" lon="1.27135">
        <ele>343.8</ele>
        <time>2023-05-02T09:11:28Z</time>
      </trkpt>
      <trkpt lat="46.11387" lon="1.27145">
        <ele>342.8</ele>
        <time>2023-05-02T09:11:34Z</time>
      </trkpt>
      <trkpt lat="46.11399" lon="1.27154">
        <ele>342</ele>
        <time>2023-05-02T09:11:40Z</time>
      </trkpt>
      <trkpt lat="46.11409" lon="1.27159">
        <ele>341.6</ele>
        <time>2023-05-02T09:11:45Z</time>
      </trkpt>
      <trkpt lat="46.11426" lon="1.27167">
        <ele>341</ele>
        <time>2023-05-02T09:11:52Z</time>
      </trkpt>
      <trkpt lat="46.11433" lon="1.27172">
        <ele>340.6</ele>
        <time>2023-05-02T09:11:56Z</time>
      </trkpt>
      <trkpt lat="46.11435" lon="1.27173">
        <ele>340.4</ele>
        <time>2023-05-02T09:11:57Z</time>
      </trkpt>
      <trkpt lat="46.11447" lon="1.27183">
        <ele>340</ele>
        <time>2023-05-02T09:12:03Z</time>
      </trkpt>
      <trkpt lat="46.11459" lon="1.27198">
        <ele>339.8</ele>
        <time>2023-05-02T09:12:09Z</time>
      </trkpt>
      <trkpt lat="46.11474" lon="1.27218">
        <ele>339.6</ele>
        <time>2023-05-02T09:12:15Z</time>
      </trkpt>
      <trkpt lat="46.11486" lon="1.27234">
        <ele>339.2</ele>
        <time>2023-05-02T09:12:20Z</time>
      </trkpt>
      <trkpt lat="46.11499" lon="1.27255">
        <ele>338.8</ele>
        <time>2023-05-02T09:12:25Z</time>
      </trkpt>
      <trkpt lat="46.11504" lon="1.27264">
        <ele>338.6</ele>
        <time>2023-05-02T09:12:27Z</time>
      </trkpt>
      <trkpt lat="46.11515" lon="1.27278">
        <ele>338.4</ele>
        <time>2023-05-02T09:12:30Z</time>
      </trkpt>
      <trkpt lat="46.11524" lon="1.27287">
        <ele>338.2</ele>
        <time>2023-05-02T09:12:32Z</time>
      </trkpt>
      <trkpt lat="46.11536" lon="1.27296">
        <ele>337.8</ele>
        <time>2023-05-02T09:12:35Z</time>
      </trkpt>
      <trkpt lat="46.11545" lon="1.27303">
        <ele>337.6</ele>
        <time>2023-05-02T09:12:37Z</time>
      </trkpt>
      <trkpt lat="46.11552" lon="1.27308">
        <ele>337.4</ele>
        <time>2023-05-02T09:12:39Z</time>
      </trkpt>
      <trkpt lat="46.11567" lon="1.27319">
        <ele>336.8</ele>
        <time>2023-05-02T09:12:44Z</time>
      </trkpt>
      <trkpt lat="46.1158" lon="1.27329">
        <ele>336.6</ele>
        <time>2023-05-02T09:12:48Z</time>
      </trkpt>
      <trkpt lat="46.11596" lon="1.2734">
        <ele>336.2</ele>
        <time>2023-05-02T09:12:54Z</time>
      </trkpt>
      <trkpt lat="46.11614" lon="1.2735">
        <ele>336</ele>
        <time>2023-05-02T09:13:00Z</time>
      </trkpt>
      <trkpt lat="46.11627" lon="1.27367">
        <ele>335.8</ele>
        <time>2023-05-02T09:13:06Z</time>
      </trkpt>
      <trkpt lat="46.11644" lon="1.27386">
        <ele>335.8</ele>
        <time>2023-05-02T09:13:13Z</time>
      </trkpt>
      <trkpt lat="46.11647" lon="1.27393">
        <ele>335.8</ele>
        <time>2023-05-02T09:13:15Z</time>
      </trkpt>
      <trkpt lat="46.11652" lon="1.27395">
        <ele>335.8</ele>
        <time>2023-05-02T09:13:17Z</time>
      </trkpt>
      <trkpt lat="46.11664" lon="1.27392">
        <ele>335.2</ele>
        <time>2023-05-02T09:13:22Z</time>
      </trkpt>
      <trkpt lat="46.11666" lon="1.27392">
        <ele>335</ele>
        <time>2023-05-02T09:13:23Z</time>
      </trkpt>
      <trkpt lat="46.11672" lon="1.2739">
        <ele>334.4</ele>
        <time>2023-05-02T09:13:26Z</time>
      </trkpt>
      <trkpt lat="46.11687" lon="1.27384">
        <ele>333.6</ele>
        <time>2023-05-02T09:13:30Z</time>
      </trkpt>
      <trkpt lat="46.11712" lon="1.27379">
        <ele>332.6</ele>
        <time>2023-05-02T09:13:35Z</time>
      </trkpt>
      <trkpt lat="46.11759" lon="1.27368">
        <ele>331.2</ele>
        <time>2023-05-02T09:13:43Z</time>
      </trkpt>
      <trkpt lat="46.11797" lon="1.27361">
        <ele>330</ele>
        <time>2023-05-02T09:13:51Z</time>
      </trkpt>
      <trkpt lat="46.11827" lon="1.27357">
        <ele>329</ele>
        <time>2023-05-02T09:13:58Z</time>
      </trkpt>
      <trkpt lat="46.11847" lon="1.27357">
        <ele>328.8</ele>
        <time>2023-05-02T09:14:03Z</time>
      </trkpt>
      <trkpt lat="46.11851" lon="1.27356">
        <ele>328.6</ele>
        <time>2023-05-02T09:14:04Z</time>
      </trkpt>
      <trkpt lat="46.11873" lon="1.27354">
        <ele>328</ele>
        <time>2023-05-02T09:14:10Z</time>
      </trkpt>
      <trkpt lat="46.11897" lon="1.27348">
        <ele>327.2</ele>
        <time>2023-05-02T09:14:17Z</time>
      </trkpt>
      <trkpt lat="46.11918" lon="1.27351">
        <ele>326.6</ele>
        <time>2023-05-02T09:14:22Z</time>
      </trkpt>
      <trkpt lat="46.11923" lon="1.27352">
        <ele>326.4</ele>
        <time>2023-05-02T09:14:23Z</time>
      </trkpt>
      <trkpt lat="46.1195" lon="1.27364">
        <ele>325.6</ele>
        <time>2023-05-02T09:14:28Z</time>
      </trkpt>
      <trkpt lat="46.11954" lon="1.27367">
        <ele>325.6</ele>
        <time>2023-05-02T09:14:29Z</time>
      </trkpt>
      <trkpt lat="46.11978" lon="1.27381">
        <ele>325</ele>
        <time>2023-05-02T09:14:34Z</time>
      </trkpt>
      <trkpt lat="46.1198" lon="1.27382">
        <ele>324.8</ele>
        <time>2023-05-02T09:14:35Z</time>
      </trkpt>
      <trkpt lat="46.11982" lon="1.27384">
        <ele>324.6</ele>
        <time>2023-05-02T09:14:37Z</time>
      </trkpt>
      <trkpt lat="46.11982" lon="1.27384">
        <ele>324.6</ele>
        <time>2023-05-02T09:14:38Z</time>
      </trkpt>
      <trkpt lat="46.11993" lon="1.27392">
        <ele>323.2</ele>
        <time>2023-05-02T09:14:53Z</time>
      </trkpt>
      <trkpt lat="46.11996" lon="1.27394">
        <ele>323.2</ele>
        <time>2023-05-02T09:14:54Z</time>
      </trkpt>
      <trkpt lat="46.12003" lon="1.27401">
        <ele>322.8</ele>
        <time>2023-05-02T09:14:57Z</time>
      </trkpt>
      <trkpt lat="46.12005" lon="1.27403">
        <ele>322.8</ele>
        <time>2023-05-02T09:14:58Z</time>
      </trkpt>
      <trkpt lat="46.12009" lon="1.27407">
        <ele>322.6</ele>
        <time>2023-05-02T09:15:00Z</time>
      </trkpt>
      <trkpt lat="46.12018" lon="1.27415">
        <ele>322.2</ele>
        <time>2023-05-02T09:15:03Z</time>
      </trkpt>
      <trkpt lat="46.1202" lon="1.27417">
        <ele>322.2</ele>
        <time>2023-05-02T09:15:04Z</time>
      </trkpt>
      <trkpt lat="46.12022" lon="1.27419">
        <ele>322</ele>
        <time>2023-05-02T09:15:05Z</time>
      </trkpt>
      <trkpt lat="46.12027" lon="1.27423">
        <ele>322</ele>
        <time>2023-05-02T09:15:07Z</time>
      </trkpt>
      <trkpt lat="46.12049" lon="1.2743">
        <ele>321.8</ele>
        <time>2023-05-02T09:15:11Z</time>
      </trkpt>
      <trkpt lat="46.12083" lon="1.2744">
        <ele>321.6</ele>
        <time>2023-05-02T09:15:17Z</time>
      </trkpt>
      <trkpt lat="46.12109" lon="1.27448">
        <ele>321.8</ele>
        <time>2023-05-02T09:15:22Z</time>
      </trkpt>
      <trkpt lat="46.12132" lon="1.27455">
        <ele>321.4</ele>
        <time>2023-05-02T09:15:27Z</time>
      </trkpt>
      <trkpt lat="46.1214" lon="1.2746">
        <ele>321.6</ele>
        <time>2023-05-02T09:15:30Z</time>
      </trkpt>
      <trkpt lat="46.1216" lon="1.27471">
        <ele>321.2</ele>
        <time>2023-05-02T09:15:35Z</time>
      </trkpt>
      <trkpt lat="46.12187" lon="1.27484">
        <ele>321</ele>
        <time>2023-05-02T09:15:39Z</time>
      </trkpt>
      <trkpt lat="46.1221" lon="1.27496">
        <ele>320.4</ele>
        <time>2023-05-02T09:15:43Z</time>
      </trkpt>
      <trkpt lat="46.12214" lon="1.275">
        <ele>320.4</ele>
        <time>2023-05-02T09:15:44Z</time>
      </trkpt>
      <trkpt lat="46.12237" lon="1.27525">
        <ele>319.8</ele>
        <time>2023-05-02T09:15:50Z</time>
      </trkpt>
      <trkpt lat="46.12256" lon="1.27536">
        <ele>319.8</ele>
        <time>2023-05-02T09:15:54Z</time>
      </trkpt>
      <trkpt lat="46.12279" lon="1.27548">
        <ele>319.6</ele>
        <time>2023-05-02T09:15:59Z</time>
      </trkpt>
      <trkpt lat="46.12294" lon="1.27552">
        <ele>319.4</ele>
        <time>2023-05-02T09:16:03Z</time>
      </trkpt>
      <trkpt lat="46.1231" lon="1.27562">
        <ele>319</ele>
        <time>2023-05-02T09:16:07Z</time>
      </trkpt>
      <trkpt lat="46.12314" lon="1.27565">
        <ele>319</ele>
        <time>2023-05-02T09:16:08Z</time>
      </trkpt>
      <trkpt lat="46.12319" lon="1.27569">
        <ele>318.8</ele>
        <time>2023-05-02T09:16:09Z</time>
      </trkpt>
      <trkpt lat="46.1233" lon="1.27577">
        <ele>318.4</ele>
        <time>2023-05-02T09:16:12Z</time>
      </trkpt>
      <trkpt lat="46.12338" lon="1.27585">
        <ele>317.6</ele>
        <time>2023-05-02T09:16:16Z</time>
      </trkpt>
      <trkpt lat="46.12344" lon="1.27589">
        <ele>317</ele>
        <time>2023-05-02T09:16:19Z</time>
      </trkpt>
      <trkpt lat="46.12347" lon="1.27595">
        <ele>316.8</ele>
        <time>2023-05-02T09:16:21Z</time>
      </trkpt>
      <trkpt lat="46.12361" lon="1.27609">
        <ele>316.4</ele>
        <time>2023-05-02T09:16:26Z</time>
      </trkpt>
      <trkpt lat="46.12382" lon="1.27624">
        <ele>316</ele>
        <time>2023-05-02T09:16:30Z</time>
      </trkpt>
      <trkpt lat="46.12387" lon="1.27629">
        <ele>315.8</ele>
        <time>2023-05-02T09:16:31Z</time>
      </trkpt>
      <trkpt lat="46.12392" lon="1.27635">
        <ele>315.6</ele>
        <time>2023-05-02T09:16:32Z</time>
      </trkpt>
      <trkpt lat="46.12401" lon="1.27649">
        <ele>315.4</ele>
        <time>2023-05-02T09:16:34Z</time>
      </trkpt>
      <trkpt lat="46.12405" lon="1.27656">
        <ele>315.2</ele>
        <time>2023-05-02T09:16:35Z</time>
      </trkpt>
      <trkpt lat="46.12429" lon="1.27705">
        <ele>314.6</ele>
        <time>2023-05-02T09:16:41Z</time>
      </trkpt>
      <trkpt lat="46.12435" lon="1.27726">
        <ele>314.2</ele>
        <time>2023-05-02T09:16:43Z</time>
      </trkpt>
      <trkpt lat="46.12436" lon="1.2775">
        <ele>313.6</ele>
        <time>2023-05-02T09:16:45Z</time>
      </trkpt>
      <trkpt lat="46.12431" lon="1.27785">
        <ele>312.6</ele>
        <time>2023-05-02T09:16:48Z</time>
      </trkpt>
      <trkpt lat="46.12429" lon="1.27807">
        <ele>312</ele>
        <time>2023-05-02T09:16:50Z</time>
      </trkpt>
      <trkpt lat="46.1243" lon="1.27818">
        <ele>311.6</ele>
        <time>2023-05-02T09:16:51Z</time>
      </trkpt>
      <trkpt lat="46.12432" lon="1.27828">
        <ele>311.2</ele>
        <time>2023-05-02T09:16:52Z</time>
      </trkpt>
      <trkpt lat="46.12439" lon="1.27849">
        <ele>310.6</ele>
        <time>2023-05-02T09:16:54Z</time>
      </trkpt>
      <trkpt lat="46.12472" lon="1.27911">
        <ele>308.6</ele>
        <time>2023-05-02T09:17:00Z</time>
      </trkpt>
      <trkpt lat="46.12503" lon="1.27941">
        <ele>307</ele>
        <time>2023-05-02T09:17:04Z</time>
      </trkpt>
      <trkpt lat="46.12512" lon="1.27949">
        <ele>306.8</ele>
        <time>2023-05-02T09:17:05Z</time>
      </trkpt>
      <trkpt lat="46.12524" lon="1.27971">
        <ele>306</ele>
        <time>2023-05-02T09:17:07Z</time>
      </trkpt>
      <trkpt lat="46.12539" lon="1.28018">
        <ele>304.8</ele>
        <time>2023-05-02T09:17:11Z</time>
      </trkpt>
      <trkpt lat="46.12548" lon="1.28038">
        <ele>304.2</ele>
        <time>2023-05-02T09:17:13Z</time>
      </trkpt>
      <trkpt lat="46.12558" lon="1.28054">
        <ele>303.4</ele>
        <time>2023-05-02T09:17:15Z</time>
      </trkpt>
      <trkpt lat="46.12564" lon="1.2806">
        <ele>303</ele>
        <time>2023-05-02T09:17:16Z</time>
      </trkpt>
      <trkpt lat="46.12577" lon="1.2807">
        <ele>302.2</ele>
        <time>2023-05-02T09:17:18Z</time>
      </trkpt>
      <trkpt lat="46.12585" lon="1.28075">
        <ele>301.8</ele>
        <time>2023-05-02T09:17:19Z</time>
      </trkpt>
      <trkpt lat="46.12635" lon="1.28108">
        <ele>299</ele>
        <time>2023-05-02T09:17:25Z</time>
      </trkpt>
      <trkpt lat="46.12667" lon="1.28137">
        <ele>297.2</ele>
        <time>2023-05-02T09:17:29Z</time>
      </trkpt>
      <trkpt lat="46.12676" lon="1.2814">
        <ele>296.8</ele>
        <time>2023-05-02T09:17:30Z</time>
      </trkpt>
      <trkpt lat="46.12685" lon="1.2814">
        <ele>296.2</ele>
        <time>2023-05-02T09:17:31Z</time>
      </trkpt>
      <trkpt lat="46.12694" lon="1.28137">
        <ele>295.8</ele>
        <time>2023-05-02T09:17:32Z</time>
      </trkpt>
      <trkpt lat="46.12703" lon="1.2813">
        <ele>295.4</ele>
        <time>2023-05-02T09:17:33Z</time>
      </trkpt>
      <trkpt lat="46.12719" lon="1.2811">
        <ele>294.4</ele>
        <time>2023-05-02T09:17:35Z</time>
      </trkpt>
      <trkpt lat="46.12743" lon="1.28061">
        <ele>292.2</ele>
        <time>2023-05-02T09:17:39Z</time>
      </trkpt>
      <trkpt lat="46.12772" lon="1.28021">
        <ele>290</ele>
        <time>2023-05-02T09:17:43Z</time>
      </trkpt>
      <trkpt lat="46.12807" lon="1.27991">
        <ele>288</ele>
        <time>2023-05-02T09:17:47Z</time>
      </trkpt>
      <trkpt lat="46.1285" lon="1.27976">
        <ele>285.8</ele>
        <time>2023-05-02T09:17:51Z</time>
      </trkpt>
      <trkpt lat="46.12901" lon="1.27964">
        <ele>283.4</ele>
        <time>2023-05-02T09:17:56Z</time>
      </trkpt>
      <trkpt lat="46.12921" lon="1.27958">
        <ele>282.6</ele>
        <time>2023-05-02T09:17:58Z</time>
      </trkpt>
      <trkpt lat="46.12929" lon="1.27952">
        <ele>282</ele>
        <time>2023-05-02T09:17:59Z</time>
      </trkpt>
      <trkpt lat="46.12935" lon="1.27943">
        <ele>281.4</ele>
        <time>2023-05-02T09:18:00Z</time>
      </trkpt>
      <trkpt lat="46.12949" lon="1.27918">
        <ele>280.4</ele>
        <time>2023-05-02T09:18:02Z</time>
      </trkpt>
      <trkpt lat="46.12957" lon="1.27906">
        <ele>279.8</ele>
        <time>2023-05-02T09:18:03Z</time>
      </trkpt>
      <trkpt lat="46.12975" lon="1.27882">
        <ele>278.6</ele>
        <time>2023-05-02T09:18:05Z</time>
      </trkpt>
      <trkpt lat="46.12983" lon="1.2787">
        <ele>278</ele>
        <time>2023-05-02T09:18:06Z</time>
      </trkpt>
      <trkpt lat="46.12998" lon="1.27842">
        <ele>276.6</ele>
        <time>2023-05-02T09:18:08Z</time>
      </trkpt>
      <trkpt lat="46.13015" lon="1.27807">
        <ele>274.8</ele>
        <time>2023-05-02T09:18:11Z</time>
      </trkpt>
      <trkpt lat="46.13028" lon="1.27797">
        <ele>273.8</ele>
        <time>2023-05-02T09:18:13Z</time>
      </trkpt>
      <trkpt lat="46.13035" lon="1.27796">
        <ele>273.2</ele>
        <time>2023-05-02T09:18:14Z</time>
      </trkpt>
      <trkpt lat="46.13041" lon="1.27797">
        <ele>272.8</ele>
        <time>2023-05-02T09:18:15Z</time>
      </trkpt>
      <trkpt lat="46.13058" lon="1.27799">
        <ele>271.2</ele>
        <time>2023-05-02T09:18:18Z</time>
      </trkpt>
      <trkpt lat="46.13073" lon="1.27802">
        <ele>269.4</ele>
        <time>2023-05-02T09:18:22Z</time>
      </trkpt>
      <trkpt lat="46.13092" lon="1.27805">
        <ele>266.8</ele>
        <time>2023-05-02T09:18:28Z</time>
      </trkpt>
      <trkpt lat="46.13113" lon="1.27809">
        <ele>264.4</ele>
        <time>2023-05-02T09:18:35Z</time>
      </trkpt>
      <trkpt lat="46.13121" lon="1.27808">
        <ele>263.2</ele>
        <time>2023-05-02T09:18:39Z</time>
      </trkpt>
      <trkpt lat="46.13125" lon="1.27804">
        <ele>262.8</ele>
        <time>2023-05-02T09:18:41Z</time>
      </trkpt>
      <trkpt lat="46.13134" lon="1.2778">
        <ele>260.2</ele>
        <time>2023-05-02T09:18:50Z</time>
      </trkpt>
      <trkpt lat="46.13134" lon="1.27764">
        <ele>259.2</ele>
        <time>2023-05-02T09:18:55Z</time>
      </trkpt>
      <trkpt lat="46.13135" lon="1.27756">
        <ele>258.8</ele>
        <time>2023-05-02T09:18:58Z</time>
      </trkpt>
      <trkpt lat="46.13135" lon="1.2775">
        <ele>258.6</ele>
        <time>2023-05-02T09:19:00Z</time>
      </trkpt>
      <trkpt lat="46.13135" lon="1.27747">
        <ele>258.4</ele>
        <time>2023-05-02T09:19:01Z</time>
      </trkpt>
      <trkpt lat="46.13136" lon="1.27735">
        <ele>257.8</ele>
        <time>2023-05-02T09:19:05Z</time>
      </trkpt>
      <trkpt lat="46.13135" lon="1.27708">
        <ele>257.4</ele>
        <time>2023-05-02T09:19:14Z</time>
      </trkpt>
      <trkpt lat="46.13135" lon="1.27687">
        <ele>257.2</ele>
        <time>2023-05-02T09:19:21Z</time>
      </trkpt>
      <trkpt lat="46.13133" lon="1.2766">
        <ele>257.2</ele>
        <time>2023-05-02T09:19:30Z</time>
      </trkpt>
      <trkpt lat="46.13129" lon="1.2763">
        <ele>257.6</ele>
        <time>2023-05-02T09:19:40Z</time>
      </trkpt>
      <trkpt lat="46.13124" lon="1.2761">
        <ele>257.4</ele>
        <time>2023-05-02T09:19:48Z</time>
      </trkpt>
      <trkpt lat="46.13121" lon="1.27604">
        <ele>257.6</ele>
        <time>2023-05-02T09:19:51Z</time>
      </trkpt>
      <trkpt lat="46.1312" lon="1.27599">
        <ele>257.6</ele>
        <time>2023-05-02T09:19:53Z</time>
      </trkpt>
      <trkpt lat="46.13115" lon="1.27584">
        <ele>258.2</ele>
        <time>2023-05-02T09:20:00Z</time>
      </trkpt>
      <trkpt lat="46.13109" lon="1.27569">
        <ele>258.6</ele>
        <time>2023-05-02T09:20:07Z</time>
      </trkpt>
      <trkpt lat="46.13105" lon="1.27557">
        <ele>259.2</ele>
        <time>2023-05-02T09:20:12Z</time>
      </trkpt>
      <trkpt lat="46.13095" lon="1.27543">
        <ele>259.8</ele>
        <time>2023-05-02T09:20:19Z</time>
      </trkpt>
      <trkpt lat="46.13085" lon="1.27528">
        <ele>260.8</ele>
        <time>2023-05-02T09:20:27Z</time>
      </trkpt>
      <trkpt lat="46.13077" lon="1.27515">
        <ele>261.6</ele>
        <time>2023-05-02T09:20:34Z</time>
      </trkpt>
      <trkpt lat="46.13066" lon="1.275">
        <ele>262.6</ele>
        <time>2023-05-02T09:20:42Z</time>
      </trkpt>
      <trkpt lat="46.1306" lon="1.27489">
        <ele>263.4</ele>
        <time>2023-05-02T09:20:48Z</time>
      </trkpt>
      <trkpt lat="46.13053" lon="1.27468">
        <ele>264.4</ele>
        <time>2023-05-02T09:20:57Z</time>
      </trkpt>
      <trkpt lat="46.13052" lon="1.27467">
        <ele>264.4</ele>
        <time>2023-05-02T09:20:58Z</time>
      </trkpt>
      <trkpt lat="46.13052" lon="1.27465">
        <ele>264.8</ele>
        <time>2023-05-02T09:21:01Z</time>
      </trkpt>
      <trkpt lat="46.13055" lon="1.27464">
        <ele>268.2</ele>
        <time>2023-05-02T09:21:46Z</time>
      </trkpt>
      <trkpt lat="46.13058" lon="1.27454">
        <ele>268.2</ele>
        <time>2023-05-02T09:21:49Z</time>
      </trkpt>
      <trkpt lat="46.1306" lon="1.27429">
        <ele>268.4</ele>
        <time>2023-05-02T09:21:55Z</time>
      </trkpt>
      <trkpt lat="46.13064" lon="1.27422">
        <ele>268.4</ele>
        <time>2023-05-02T09:21:57Z</time>
      </trkpt>
      <trkpt lat="46.1307" lon="1.27416">
        <ele>268.6</ele>
        <time>2023-05-02T09:21:59Z</time>
      </trkpt>
      <trkpt lat="46.13092" lon="1.27397">
        <ele>269</ele>
        <time>2023-05-02T09:22:06Z</time>
      </trkpt>
      <trkpt lat="46.13107" lon="1.27389">
        <ele>270</ele>
        <time>2023-05-02T09:22:11Z</time>
      </trkpt>
      <trkpt lat="46.13125" lon="1.27394">
        <ele>270.6</ele>
        <time>2023-05-02T09:22:17Z</time>
      </trkpt>
      <trkpt lat="46.13146" lon="1.27411">
        <ele>271.4</ele>
        <time>2023-05-02T09:22:24Z</time>
      </trkpt>
      <trkpt lat="46.1317" lon="1.27431">
        <ele>272.6</ele>
        <time>2023-05-02T09:22:32Z</time>
      </trkpt>
      <trkpt lat="46.13192" lon="1.27449">
        <ele>273.8</ele>
        <time>2023-05-02T09:22:40Z</time>
      </trkpt>
      <trkpt lat="46.13204" lon="1.2745">
        <ele>274.6</ele>
        <time>2023-05-02T09:22:45Z</time>
      </trkpt>
      <trkpt lat="46.13217" lon="1.27446">
        <ele>275.2</ele>
        <time>2023-05-02T09:22:50Z</time>
      </trkpt>
      <trkpt lat="46.1322" lon="1.27448">
        <ele>275.4</ele>
        <time>2023-05-02T09:22:51Z</time>
      </trkpt>
      <trkpt lat="46.13227" lon="1.27456">
        <ele>275.8</ele>
        <time>2023-05-02T09:22:54Z</time>
      </trkpt>
      <trkpt lat="46.13241" lon="1.27481">
        <ele>276.8</ele>
        <time>2023-05-02T09:23:02Z</time>
      </trkpt>
      <trkpt lat="46.13249" lon="1.27497">
        <ele>277.8</ele>
        <time>2023-05-02T09:23:08Z</time>
      </trkpt>
      <trkpt lat="46.13256" lon="1.2751">
        <ele>278.6</ele>
        <time>2023-05-02T09:23:13Z</time>
      </trkpt>
      <trkpt lat="46.13257" lon="1.27523">
        <ele>279.2</ele>
        <time>2023-05-02T09:23:18Z</time>
      </trkpt>
      <trkpt lat="46.13259" lon="1.27534">
        <ele>280.2</ele>
        <time>2023-05-02T09:23:22Z</time>
      </trkpt>
      <trkpt lat="46.13259" lon="1.27541">
        <ele>280.6</ele>
        <time>2023-05-02T09:23:24Z</time>
      </trkpt>
      <trkpt lat="46.13258" lon="1.27567">
        <ele>281.8</ele>
        <time>2023-05-02T09:23:32Z</time>
      </trkpt>
      <trkpt lat="46.13259" lon="1.2759">
        <ele>282.8</ele>
        <time>2023-05-02T09:23:39Z</time>
      </trkpt>
      <trkpt lat="46.13258" lon="1.27597">
        <ele>283.2</ele>
        <time>2023-05-02T09:23:42Z</time>
      </trkpt>
      <trkpt lat="46.13257" lon="1.27601">
        <ele>283.4</ele>
        <time>2023-05-02T09:23:44Z</time>
      </trkpt>
      <trkpt lat="46.13253" lon="1.27611">
        <ele>283.8</ele>
        <time>2023-05-02T09:23:49Z</time>
      </trkpt>
      <trkpt lat="46.13252" lon="1.27613">
        <ele>283.8</ele>
        <time>2023-05-02T09:23:50Z</time>
      </trkpt>
      <trkpt lat="46.13252" lon="1.27615">
        <ele>283.8</ele>
        <time>2023-05-02T09:23:51Z</time>
      </trkpt>
      <trkpt lat="46.13253" lon="1.27619">
        <ele>284</ele>
        <time>2023-05-02T09:23:53Z</time>
      </trkpt>
      <trkpt lat="46.13255" lon="1.27614">
        <ele>284.4</ele>
        <time>2023-05-02T09:23:56Z</time>
      </trkpt>
      <trkpt lat="46.13254" lon="1.27602">
        <ele>284.8</ele>
        <time>2023-05-02T09:24:02Z</time>
      </trkpt>
      <trkpt lat="46.13253" lon="1.27601">
        <ele>284.8</ele>
        <time>2023-05-02T09:24:03Z</time>
      </trkpt>
      <trkpt lat="46.13265" lon="1.27666">
        <ele>293</ele>
        <time>2023-05-02T09:34:29Z</time>
      </trkpt>
      <trkpt lat="46.13267" lon="1.27672">
        <ele>293</ele>
        <time>2023-05-02T09:34:31Z</time>
      </trkpt>
      <trkpt lat="46.13278" lon="1.27698">
        <ele>293.4</ele>
        <time>2023-05-02T09:34:39Z</time>
      </trkpt>
      <trkpt lat="46.13285" lon="1.27714">
        <ele>293.6</ele>
        <time>2023-05-02T09:34:45Z</time>
      </trkpt>
      <trkpt lat="46.13293" lon="1.27724">
        <ele>293.8</ele>
        <time>2023-05-02T09:34:50Z</time>
      </trkpt>
      <trkpt lat="46.13303" lon="1.2773">
        <ele>294</ele>
        <time>2023-05-02T09:34:55Z</time>
      </trkpt>
      <trkpt lat="46.13316" lon="1.27724">
        <ele>294.2</ele>
        <time>2023-05-02T09:34:59Z</time>
      </trkpt>
      <trkpt lat="46.13324" lon="1.27706">
        <ele>294.4</ele>
        <time>2023-05-02T09:35:04Z</time>
      </trkpt>
      <trkpt lat="46.13331" lon="1.27688">
        <ele>294.8</ele>
        <time>2023-05-02T09:35:10Z</time>
      </trkpt>
      <trkpt lat="46.1334" lon="1.27665">
        <ele>295.2</ele>
        <time>2023-05-02T09:35:17Z</time>
      </trkpt>
      <trkpt lat="46.13344" lon="1.27656">
        <ele>295.4</ele>
        <time>2023-05-02T09:35:20Z</time>
      </trkpt>
      <trkpt lat="46.1335" lon="1.27652">
        <ele>295.6</ele>
        <time>2023-05-02T09:35:23Z</time>
      </trkpt>
      <trkpt lat="46.1336" lon="1.27646">
        <ele>295.8</ele>
        <time>2023-05-02T09:35:28Z</time>
      </trkpt>
      <trkpt lat="46.1338" lon="1.27637">
        <ele>296</ele>
        <time>2023-05-02T09:35:35Z</time>
      </trkpt>
      <trkpt lat="46.13398" lon="1.2763">
        <ele>296</ele>
        <time>2023-05-02T09:35:42Z</time>
      </trkpt>
      <trkpt lat="46.1342" lon="1.27621">
        <ele>296.2</ele>
        <time>2023-05-02T09:35:50Z</time>
      </trkpt>
      <trkpt lat="46.13437" lon="1.27618">
        <ele>296.2</ele>
        <time>2023-05-02T09:35:56Z</time>
      </trkpt>
      <trkpt lat="46.13468" lon="1.27635">
        <ele>296.2</ele>
        <time>2023-05-02T09:36:05Z</time>
      </trkpt>
      <trkpt lat="46.13487" lon="1.27647">
        <ele>296.2</ele>
        <time>2023-05-02T09:36:11Z</time>
      </trkpt>
      <trkpt lat="46.13492" lon="1.2765">
        <ele>296</ele>
        <time>2023-05-02T09:36:16Z</time>
      </trkpt>
      <trkpt lat="46.13502" lon="1.27651">
        <ele>296.6</ele>
        <time>2023-05-02T09:37:02Z</time>
      </trkpt>
      <trkpt lat="46.13508" lon="1.27652">
        <ele>296.8</ele>
        <time>2023-05-02T09:37:04Z</time>
      </trkpt>
      <trkpt lat="46.1353" lon="1.27658">
        <ele>297.2</ele>
        <time>2023-05-02T09:37:11Z</time>
      </trkpt>
      <trkpt lat="46.13555" lon="1.27669">
        <ele>297</ele>
        <time>2023-05-02T09:37:18Z</time>
      </trkpt>
      <trkpt lat="46.13591" lon="1.27682">
        <ele>297.4</ele>
        <time>2023-05-02T09:37:26Z</time>
      </trkpt>
      <trkpt lat="46.13616" lon="1.27691">
        <ele>297.4</ele>
        <time>2023-05-02T09:37:32Z</time>
      </trkpt>
      <trkpt lat="46.13632" lon="1.27683">
        <ele>297.4</ele>
        <time>2023-05-02T09:37:36Z</time>
      </trkpt>
      <trkpt lat="46.13646" lon="1.2767">
        <ele>297.2</ele>
        <time>2023-05-02T09:37:40Z</time>
      </trkpt>
      <trkpt lat="46.13653" lon="1.27667">
        <ele>297.4</ele>
        <time>2023-05-02T09:37:42Z</time>
      </trkpt>
      <trkpt lat="46.13681" lon="1.2766">
        <ele>297.2</ele>
        <time>2023-05-02T09:37:49Z</time>
      </trkpt>
      <trkpt lat="46.13714" lon="1.27652">
        <ele>297.2</ele>
        <time>2023-05-02T09:37:57Z</time>
      </trkpt>
      <trkpt lat="46.13718" lon="1.27651">
        <ele>297.2</ele>
        <time>2023-05-02T09:37:58Z</time>
      </trkpt>
      <trkpt lat="46.13734" lon="1.27648">
        <ele>297.2</ele>
        <time>2023-05-02T09:38:02Z</time>
      </trkpt>
      <trkpt lat="46.13754" lon="1.27642">
        <ele>297.2</ele>
        <time>2023-05-02T09:38:08Z</time>
      </trkpt>
      <trkpt lat="46.13779" lon="1.27635">
        <ele>297</ele>
        <time>2023-05-02T09:38:15Z</time>
      </trkpt>
      <trkpt lat="46.13804" lon="1.2763">
        <ele>297</ele>
        <time>2023-05-02T09:38:22Z</time>
      </trkpt>
      <trkpt lat="46.13835" lon="1.27616">
        <ele>297</ele>
        <time>2023-05-02T09:38:30Z</time>
      </trkpt>
      <trkpt lat="46.13842" lon="1.27607">
        <ele>297.2</ele>
        <time>2023-05-02T09:38:32Z</time>
      </trkpt>
      <trkpt lat="46.13848" lon="1.27595">
        <ele>297</ele>
        <time>2023-05-02T09:38:34Z</time>
      </trkpt>
      <trkpt lat="46.13868" lon="1.27555">
        <ele>296.8</ele>
        <time>2023-05-02T09:38:39Z</time>
      </trkpt>
      <trkpt lat="46.13873" lon="1.27547">
        <ele>296.8</ele>
        <time>2023-05-02T09:38:40Z</time>
      </trkpt>
      <trkpt lat="46.13885" lon="1.27533">
        <ele>296.6</ele>
        <time>2023-05-02T09:38:42Z</time>
      </trkpt>
      <trkpt lat="46.13893" lon="1.27528">
        <ele>296.4</ele>
        <time>2023-05-02T09:38:43Z</time>
      </trkpt>
      <trkpt lat="46.13901" lon="1.27526">
        <ele>296.2</ele>
        <time>2023-05-02T09:38:44Z</time>
      </trkpt>
      <trkpt lat="46.13916" lon="1.27527">
        <ele>296</ele>
        <time>2023-05-02T09:38:46Z</time>
      </trkpt>
      <trkpt lat="46.13931" lon="1.27534">
        <ele>296</ele>
        <time>2023-05-02T09:38:48Z</time>
      </trkpt>
      <trkpt lat="46.13937" lon="1.27539">
        <ele>295.8</ele>
        <time>2023-05-02T09:38:49Z</time>
      </trkpt>
      <trkpt lat="46.13955" lon="1.27552">
        <ele>295.8</ele>
        <time>2023-05-02T09:38:52Z</time>
      </trkpt>
      <trkpt lat="46.13967" lon="1.27556">
        <ele>295.8</ele>
        <time>2023-05-02T09:38:54Z</time>
      </trkpt>
      <trkpt lat="46.13979" lon="1.27558">
        <ele>295.6</ele>
        <time>2023-05-02T09:38:56Z</time>
      </trkpt>
      <trkpt lat="46.13991" lon="1.27555">
        <ele>295.6</ele>
        <time>2023-05-02T09:38:58Z</time>
      </trkpt>
      <trkpt lat="46.1403" lon="1.27539">
        <ele>295.2</ele>
        <time>2023-05-02T09:39:04Z</time>
      </trkpt>
      <trkpt lat="46.14071" lon="1.2753">
        <ele>294.8</ele>
        <time>2023-05-02T09:39:10Z</time>
      </trkpt>
      <trkpt lat="46.14119" lon="1.27533">
        <ele>294</ele>
        <time>2023-05-02T09:39:17Z</time>
      </trkpt>
      <trkpt lat="46.14128" lon="1.27528">
        <ele>293.8</ele>
        <time>2023-05-02T09:39:19Z</time>
      </trkpt>
      <trkpt lat="46.14131" lon="1.27523">
        <ele>293.6</ele>
        <time>2023-05-02T09:39:20Z</time>
      </trkpt>
      <trkpt lat="46.14134" lon="1.27516">
        <ele>293.6</ele>
        <time>2023-05-02T09:39:21Z</time>
      </trkpt>
      <trkpt lat="46.1415" lon="1.27479">
        <ele>293.2</ele>
        <time>2023-05-02T09:39:27Z</time>
      </trkpt>
      <trkpt lat="46.14155" lon="1.27467">
        <ele>293</ele>
        <time>2023-05-02T09:39:29Z</time>
      </trkpt>
      <trkpt lat="46.14162" lon="1.27459">
        <ele>292.8</ele>
        <time>2023-05-02T09:39:31Z</time>
      </trkpt>
      <trkpt lat="46.14166" lon="1.27456">
        <ele>292.8</ele>
        <time>2023-05-02T09:39:32Z</time>
      </trkpt>
      <trkpt lat="46.14199" lon="1.27426">
        <ele>292.2</ele>
        <time>2023-05-02T09:39:40Z</time>
      </trkpt>
      <trkpt lat="46.14223" lon="1.27406">
        <ele>291.4</ele>
        <time>2023-05-02T09:39:46Z</time>
      </trkpt>
      <trkpt lat="46.14242" lon="1.27403">
        <ele>290.8</ele>
        <time>2023-05-02T09:39:50Z</time>
      </trkpt>
      <trkpt lat="46.14256" lon="1.27401">
        <ele>290.4</ele>
        <time>2023-05-02T09:39:53Z</time>
      </trkpt>
      <trkpt lat="46.14268" lon="1.274">
        <ele>290</ele>
        <time>2023-05-02T09:39:56Z</time>
      </trkpt>
      <trkpt lat="46.14279" lon="1.274">
        <ele>289.6</ele>
        <time>2023-05-02T09:39:59Z</time>
      </trkpt>
      <trkpt lat="46.14281" lon="1.27404">
        <ele>289.4</ele>
        <time>2023-05-02T09:40:00Z</time>
      </trkpt>
      <trkpt lat="46.14288" lon="1.27423">
        <ele>289</ele>
        <time>2023-05-02T09:40:04Z</time>
      </trkpt>
      <trkpt lat="46.14291" lon="1.27427">
        <ele>289</ele>
        <time>2023-05-02T09:40:05Z</time>
      </trkpt>
      <trkpt lat="46.14295" lon="1.27431">
        <ele>289</ele>
        <time>2023-05-02T09:40:06Z</time>
      </trkpt>
      <trkpt lat="46.14312" lon="1.27442">
        <ele>288.8</ele>
        <time>2023-05-02T09:40:10Z</time>
      </trkpt>
      <trkpt lat="46.14328" lon="1.2745">
        <ele>288.6</ele>
        <time>2023-05-02T09:40:14Z</time>
      </trkpt>
      <trkpt lat="46.14336" lon="1.27454">
        <ele>288.4</ele>
        <time>2023-05-02T09:40:16Z</time>
      </trkpt>
      <trkpt lat="46.14361" lon="1.27465">
        <ele>287.8</ele>
        <time>2023-05-02T09:40:23Z</time>
      </trkpt>
      <trkpt lat="46.14385" lon="1.27481">
        <ele>287</ele>
        <time>2023-05-02T09:40:30Z</time>
      </trkpt>
      <trkpt lat="46.14387" lon="1.27481">
        <ele>287</ele>
        <time>2023-05-02T09:40:31Z</time>
      </trkpt>
      <trkpt lat="46.1439" lon="1.2748">
        <ele>286.8</ele>
        <time>2023-05-02T09:40:34Z</time>
      </trkpt>
      <trkpt lat="46.14396" lon="1.27482">
        <ele>287</ele>
        <time>2023-05-02T09:59:20Z</time>
      </trkpt>
      <trkpt lat="46.14397" lon="1.27484">
        <ele>287</ele>
        <time>2023-05-02T09:59:22Z</time>
      </trkpt>
      <trkpt lat="46.14401" lon="1.2749">
        <ele>286.6</ele>
        <time>2023-05-02T09:59:33Z</time>
      </trkpt>
      <trkpt lat="46.14402" lon="1.27495">
        <ele>286.6</ele>
        <time>2023-05-02T09:59:35Z</time>
      </trkpt>
      <trkpt lat="46.14405" lon="1.27509">
        <ele>286.4</ele>
        <time>2023-05-02T09:59:40Z</time>
      </trkpt>
      <trkpt lat="46.14411" lon="1.27524">
        <ele>286.2</ele>
        <time>2023-05-02T09:59:45Z</time>
      </trkpt>
      <trkpt lat="46.14414" lon="1.27527">
        <ele>286</ele>
        <time>2023-05-02T09:59:46Z</time>
      </trkpt>
      <trkpt lat="46.14428" lon="1.27534">
        <ele>285.4</ele>
        <time>2023-05-02T09:59:51Z</time>
      </trkpt>
      <trkpt lat="46.14435" lon="1.27539">
        <ele>285</ele>
        <time>2023-05-02T09:59:56Z</time>
      </trkpt>
      <trkpt lat="46.1444" lon="1.2754">
        <ele>282.8</ele>
        <time>2023-05-02T10:00:48Z</time>
      </trkpt>
      <trkpt lat="46.14445" lon="1.27539">
        <ele>282.6</ele>
        <time>2023-05-02T10:00:50Z</time>
      </trkpt>
      <trkpt lat="46.14458" lon="1.27534">
        <ele>282.4</ele>
        <time>2023-05-02T10:00:54Z</time>
      </trkpt>
      <trkpt lat="46.14471" lon="1.27529">
        <ele>282.2</ele>
        <time>2023-05-02T10:00:57Z</time>
      </trkpt>
      <trkpt lat="46.14482" lon="1.27527">
        <ele>282</ele>
        <time>2023-05-02T10:00:59Z</time>
      </trkpt>
      <trkpt lat="46.14487" lon="1.27527">
        <ele>282</ele>
        <time>2023-05-02T10:01:00Z</time>
      </trkpt>
      <trkpt lat="46.14506" lon="1.27529">
        <ele>281.4</ele>
        <time>2023-05-02T10:01:03Z</time>
      </trkpt>
      <trkpt lat="46.1454" lon="1.27546">
        <ele>280.4</ele>
        <time>2023-05-02T10:01:08Z</time>
      </trkpt>
      <trkpt lat="46.14547" lon="1.27548">
        <ele>280.2</ele>
        <time>2023-05-02T10:01:09Z</time>
      </trkpt>
      <trkpt lat="46.14562" lon="1.27548">
        <ele>279.8</ele>
        <time>2023-05-02T10:01:11Z</time>
      </trkpt>
      <trkpt lat="46.14577" lon="1.27541">
        <ele>279.2</ele>
        <time>2023-05-02T10:01:13Z</time>
      </trkpt>
      <trkpt lat="46.1459" lon="1.27526">
        <ele>278.8</ele>
        <time>2023-05-02T10:01:15Z</time>
      </trkpt>
      <trkpt lat="46.14598" lon="1.27505">
        <ele>278.2</ele>
        <time>2023-05-02T10:01:17Z</time>
      </trkpt>
      <trkpt lat="46.146" lon="1.27493">
        <ele>278</ele>
        <time>2023-05-02T10:01:18Z</time>
      </trkpt>
      <trkpt lat="46.14601" lon="1.27481">
        <ele>277.8</ele>
        <time>2023-05-02T10:01:19Z</time>
      </trkpt>
      <trkpt lat="46.14609" lon="1.27458">
        <ele>277.2</ele>
        <time>2023-05-02T10:01:21Z</time>
      </trkpt>
      <trkpt lat="46.14622" lon="1.27441">
        <ele>276.8</ele>
        <time>2023-05-02T10:01:23Z</time>
      </trkpt>
      <trkpt lat="46.1463" lon="1.27436">
        <ele>276.6</ele>
        <time>2023-05-02T10:01:24Z</time>
      </trkpt>
      <trkpt lat="46.14676" lon="1.27408">
        <ele>274.8</ele>
        <time>2023-05-02T10:01:30Z</time>
      </trkpt>
      <trkpt lat="46.14722" lon="1.27385">
        <ele>272.6</ele>
        <time>2023-05-02T10:01:36Z</time>
      </trkpt>
      <trkpt lat="46.14763" lon="1.27368">
        <ele>271</ele>
        <time>2023-05-02T10:01:41Z</time>
      </trkpt>
      <trkpt lat="46.14821" lon="1.27352">
        <ele>269</ele>
        <time>2023-05-02T10:01:48Z</time>
      </trkpt>
      <trkpt lat="46.14838" lon="1.27345">
        <ele>268.4</ele>
        <time>2023-05-02T10:01:50Z</time>
      </trkpt>
      <trkpt lat="46.14855" lon="1.27334">
        <ele>267.8</ele>
        <time>2023-05-02T10:01:52Z</time>
      </trkpt>
      <trkpt lat="46.149" lon="1.27297">
        <ele>266</ele>
        <time>2023-05-02T10:01:57Z</time>
      </trkpt>
      <trkpt lat="46.14951" lon="1.2725">
        <ele>263.8</ele>
        <time>2023-05-02T10:02:03Z</time>
      </trkpt>
      <trkpt lat="46.14959" lon="1.27244">
        <ele>263.4</ele>
        <time>2023-05-02T10:02:04Z</time>
      </trkpt>
      <trkpt lat="46.14968" lon="1.27237">
        <ele>263</ele>
        <time>2023-05-02T10:02:05Z</time>
      </trkpt>
      <trkpt lat="46.14988" lon="1.27229">
        <ele>262.2</ele>
        <time>2023-05-02T10:02:07Z</time>
      </trkpt>
      <trkpt lat="46.15034" lon="1.27224">
        <ele>260.6</ele>
        <time>2023-05-02T10:02:12Z</time>
      </trkpt>
      <trkpt lat="46.15051" lon="1.27221">
        <ele>259.8</ele>
        <time>2023-05-02T10:02:14Z</time>
      </trkpt>
      <trkpt lat="46.15059" lon="1.27217">
        <ele>259.6</ele>
        <time>2023-05-02T10:02:15Z</time>
      </trkpt>
      <trkpt lat="46.15066" lon="1.2721">
        <ele>259.4</ele>
        <time>2023-05-02T10:02:16Z</time>
      </trkpt>
      <trkpt lat="46.15075" lon="1.27192">
        <ele>258.8</ele>
        <time>2023-05-02T10:02:18Z</time>
      </trkpt>
      <trkpt lat="46.15078" lon="1.27171">
        <ele>258.4</ele>
        <time>2023-05-02T10:02:20Z</time>
      </trkpt>
      <trkpt lat="46.15077" lon="1.27161">
        <ele>258.2</ele>
        <time>2023-05-02T10:02:21Z</time>
      </trkpt>
      <trkpt lat="46.15072" lon="1.27107">
        <ele>256.6</ele>
        <time>2023-05-02T10:02:27Z</time>
      </trkpt>
      <trkpt lat="46.15071" lon="1.27065">
        <ele>255.8</ele>
        <time>2023-05-02T10:02:33Z</time>
      </trkpt>
      <trkpt lat="46.15072" lon="1.27058">
        <ele>255.6</ele>
        <time>2023-05-02T10:02:34Z</time>
      </trkpt>
      <trkpt lat="46.15075" lon="1.27046">
        <ele>255.6</ele>
        <time>2023-05-02T10:02:36Z</time>
      </trkpt>
      <trkpt lat="46.15079" lon="1.27035">
        <ele>255.6</ele>
        <time>2023-05-02T10:02:38Z</time>
      </trkpt>
      <trkpt lat="46.15096" lon="1.26996">
        <ele>255.6</ele>
        <time>2023-05-02T10:02:45Z</time>
      </trkpt>
      <trkpt lat="46.15111" lon="1.26953">
        <ele>254.4</ele>
        <time>2023-05-02T10:02:52Z</time>
      </trkpt>
      <trkpt lat="46.15112" lon="1.26946">
        <ele>255</ele>
        <time>2023-05-02T10:02:53Z</time>
      </trkpt>
      <trkpt lat="46.15111" lon="1.26938">
        <ele>255.8</ele>
        <time>2023-05-02T10:02:54Z</time>
      </trkpt>
      <trkpt lat="46.15106" lon="1.26922">
        <ele>256.4</ele>
        <time>2023-05-02T10:02:56Z</time>
      </trkpt>
      <trkpt lat="46.15098" lon="1.26895">
        <ele>256.8</ele>
        <time>2023-05-02T10:03:00Z</time>
      </trkpt>
      <trkpt lat="46.15096" lon="1.26881">
        <ele>256</ele>
        <time>2023-05-02T10:03:02Z</time>
      </trkpt>
      <trkpt lat="46.15093" lon="1.26816">
        <ele>256.2</ele>
        <time>2023-05-02T10:03:10Z</time>
      </trkpt>
      <trkpt lat="46.15091" lon="1.26764">
        <ele>256.4</ele>
        <time>2023-05-02T10:03:17Z</time>
      </trkpt>
      <trkpt lat="46.15091" lon="1.26736">
        <ele>256.4</ele>
        <time>2023-05-02T10:03:21Z</time>
      </trkpt>
      <trkpt lat="46.15092" lon="1.26729">
        <ele>256.4</ele>
        <time>2023-05-02T10:03:22Z</time>
      </trkpt>
      <trkpt lat="46.15097" lon="1.26706">
        <ele>256.2</ele>
        <time>2023-05-02T10:03:25Z</time>
      </trkpt>
      <trkpt lat="46.15103" lon="1.26683">
        <ele>255.6</ele>
        <time>2023-05-02T10:03:28Z</time>
      </trkpt>
      <trkpt lat="46.15116" lon="1.26615">
        <ele>255.8</ele>
        <time>2023-05-02T10:03:36Z</time>
      </trkpt>
      <trkpt lat="46.15123" lon="1.26571">
        <ele>256</ele>
        <time>2023-05-02T10:03:42Z</time>
      </trkpt>
      <trkpt lat="46.15124" lon="1.26564">
        <ele>255.8</ele>
        <time>2023-05-02T10:03:43Z</time>
      </trkpt>
      <trkpt lat="46.15128" lon="1.26538">
        <ele>256.4</ele>
        <time>2023-05-02T10:03:47Z</time>
      </trkpt>
      <trkpt lat="46.15136" lon="1.265">
        <ele>256.6</ele>
        <time>2023-05-02T10:03:53Z</time>
      </trkpt>
      <trkpt lat="46.15152" lon="1.26476">
        <ele>257</ele>
        <time>2023-05-02T10:03:58Z</time>
      </trkpt>
      <trkpt lat="46.15156" lon="1.26472">
        <ele>257</ele>
        <time>2023-05-02T10:03:59Z</time>
      </trkpt>
      <trkpt lat="46.15175" lon="1.26453">
        <ele>257.2</ele>
        <time>2023-05-02T10:04:04Z</time>
      </trkpt>
      <trkpt lat="46.15206" lon="1.26425">
        <ele>257.2</ele>
        <time>2023-05-02T10:04:12Z</time>
      </trkpt>
      <trkpt lat="46.15234" lon="1.26406">
        <ele>257.6</ele>
        <time>2023-05-02T10:04:19Z</time>
      </trkpt>
      <trkpt lat="46.15265" lon="1.26392">
        <ele>258.2</ele>
        <time>2023-05-02T10:04:26Z</time>
      </trkpt>
      <trkpt lat="46.15307" lon="1.26375">
        <ele>258.6</ele>
        <time>2023-05-02T10:04:36Z</time>
      </trkpt>
      <trkpt lat="46.15311" lon="1.26374">
        <ele>258.8</ele>
        <time>2023-05-02T10:04:37Z</time>
      </trkpt>
      <trkpt lat="46.15333" lon="1.26376">
        <ele>258.2</ele>
        <time>2023-05-02T10:04:42Z</time>
      </trkpt>
      <trkpt lat="46.15366" lon="1.26375">
        <ele>258.2</ele>
        <time>2023-05-02T10:04:50Z</time>
      </trkpt>
      <trkpt lat="46.15379" lon="1.26363">
        <ele>258.4</ele>
        <time>2023-05-02T10:04:54Z</time>
      </trkpt>
      <trkpt lat="46.15387" lon="1.26341">
        <ele>258.8</ele>
        <time>2023-05-02T10:04:59Z</time>
      </trkpt>
      <trkpt lat="46.15393" lon="1.26312">
        <ele>259.4</ele>
        <time>2023-05-02T10:05:05Z</time>
      </trkpt>
      <trkpt lat="46.15399" lon="1.26278">
        <ele>259.8</ele>
        <time>2023-05-02T10:05:11Z</time>
      </trkpt>
      <trkpt lat="46.15402" lon="1.26267">
        <ele>260</ele>
        <time>2023-05-02T10:05:13Z</time>
      </trkpt>
      <trkpt lat="46.15409" lon="1.26251">
        <ele>260.2</ele>
        <time>2023-05-02T10:05:16Z</time>
      </trkpt>
      <trkpt lat="46.15411" lon="1.26247">
        <ele>260.4</ele>
        <time>2023-05-02T10:05:17Z</time>
      </trkpt>
      <trkpt lat="46.15414" lon="1.26242">
        <ele>260.6</ele>
        <time>2023-05-02T10:05:18Z</time>
      </trkpt>
      <trkpt lat="46.15434" lon="1.26221">
        <ele>261</ele>
        <time>2023-05-02T10:05:24Z</time>
      </trkpt>
      <trkpt lat="46.15456" lon="1.26211">
        <ele>261.6</ele>
        <time>2023-05-02T10:05:30Z</time>
      </trkpt>
      <trkpt lat="46.15479" lon="1.26215">
        <ele>261.8</ele>
        <time>2023-05-02T10:05:36Z</time>
      </trkpt>
      <trkpt lat="46.15492" lon="1.26222">
        <ele>262</ele>
        <time>2023-05-02T10:05:40Z</time>
      </trkpt>
      <trkpt lat="46.15507" lon="1.2624">
        <ele>262.4</ele>
        <time>2023-05-02T10:05:45Z</time>
      </trkpt>
      <trkpt lat="46.15521" lon="1.26266">
        <ele>262.6</ele>
        <time>2023-05-02T10:05:51Z</time>
      </trkpt>
      <trkpt lat="46.15538" lon="1.26301">
        <ele>262.6</ele>
        <time>2023-05-02T10:05:59Z</time>
      </trkpt>
      <trkpt lat="46.15554" lon="1.26337">
        <ele>262.4</ele>
        <time>2023-05-02T10:06:07Z</time>
      </trkpt>
      <trkpt lat="46.15564" lon="1.26363">
        <ele>262.6</ele>
        <time>2023-05-02T10:06:13Z</time>
      </trkpt>
      <trkpt lat="46.1558" lon="1.26385">
        <ele>262.8</ele>
        <time>2023-05-02T10:06:19Z</time>
      </trkpt>
      <trkpt lat="46.15607" lon="1.26407">
        <ele>263.6</ele>
        <time>2023-05-02T10:06:26Z</time>
      </trkpt>
      <trkpt lat="46.15628" lon="1.26432">
        <ele>264.2</ele>
        <time>2023-05-02T10:06:33Z</time>
      </trkpt>
      <trkpt lat="46.15637" lon="1.26458">
        <ele>264.4</ele>
        <time>2023-05-02T10:06:38Z</time>
      </trkpt>
      <trkpt lat="46.15637" lon="1.26487">
        <ele>264.6</ele>
        <time>2023-05-02T10:06:43Z</time>
      </trkpt>
      <trkpt lat="46.15632" lon="1.26521">
        <ele>265.6</ele>
        <time>2023-05-02T10:06:50Z</time>
      </trkpt>
      <trkpt lat="46.15637" lon="1.26547">
        <ele>266</ele>
        <time>2023-05-02T10:06:55Z</time>
      </trkpt>
      <trkpt lat="46.15648" lon="1.2656">
        <ele>266.4</ele>
        <time>2023-05-02T10:06:59Z</time>
      </trkpt>
      <trkpt lat="46.15666" lon="1.26563">
        <ele>267</ele>
        <time>2023-05-02T10:07:05Z</time>
      </trkpt>
      <trkpt lat="46.15689" lon="1.26558">
        <ele>267.6</ele>
        <time>2023-05-02T10:07:12Z</time>
      </trkpt>
      <trkpt lat="46.15715" lon="1.26553">
        <ele>268.4</ele>
        <time>2023-05-02T10:07:20Z</time>
      </trkpt>
      <trkpt lat="46.15745" lon="1.26548">
        <ele>269.2</ele>
        <time>2023-05-02T10:07:29Z</time>
      </trkpt>
      <trkpt lat="46.15772" lon="1.26542">
        <ele>270.2</ele>
        <time>2023-05-02T10:07:38Z</time>
      </trkpt>
      <trkpt lat="46.15802" lon="1.26533">
        <ele>271.4</ele>
        <time>2023-05-02T10:07:48Z</time>
      </trkpt>
      <trkpt lat="46.15816" lon="1.26516">
        <ele>272.2</ele>
        <time>2023-05-02T10:07:54Z</time>
      </trkpt>
      <trkpt lat="46.15833" lon="1.26481">
        <ele>273.4</ele>
        <time>2023-05-02T10:08:03Z</time>
      </trkpt>
      <trkpt lat="46.15851" lon="1.26456">
        <ele>274.4</ele>
        <time>2023-05-02T10:08:11Z</time>
      </trkpt>
      <trkpt lat="46.15854" lon="1.26456">
        <ele>274.4</ele>
        <time>2023-05-02T10:08:12Z</time>
      </trkpt>
      <trkpt lat="46.15859" lon="1.26459">
        <ele>274.6</ele>
        <time>2023-05-02T10:08:14Z</time>
      </trkpt>
      <trkpt lat="46.15864" lon="1.2646">
        <ele>275</ele>
        <time>2023-05-02T10:08:18Z</time>
      </trkpt>
      <trkpt lat="46.15866" lon="1.26467">
        <ele>276.6</ele>
        <time>2023-05-02T10:08:35Z</time>
      </trkpt>
      <trkpt lat="46.15868" lon="1.26472">
        <ele>276.8</ele>
        <time>2023-05-02T10:08:37Z</time>
      </trkpt>
      <trkpt lat="46.15879" lon="1.26491">
        <ele>277.4</ele>
        <time>2023-05-02T10:08:44Z</time>
      </trkpt>
      <trkpt lat="46.15895" lon="1.26515">
        <ele>278</ele>
        <time>2023-05-02T10:08:52Z</time>
      </trkpt>
      <trkpt lat="46.15914" lon="1.26546">
        <ele>279</ele>
        <time>2023-05-02T10:09:02Z</time>
      </trkpt>
      <trkpt lat="46.15928" lon="1.26571">
        <ele>279.6</ele>
        <time>2023-05-02T10:09:10Z</time>
      </trkpt>
      <trkpt lat="46.1593" lon="1.26591">
        <ele>280</ele>
        <time>2023-05-02T10:09:15Z</time>
      </trkpt>
      <trkpt lat="46.15929" lon="1.26625">
        <ele>281.2</ele>
        <time>2023-05-02T10:09:23Z</time>
      </trkpt>
      <trkpt lat="46.1593" lon="1.26654">
        <ele>282.2</ele>
        <time>2023-05-02T10:09:29Z</time>
      </trkpt>
      <trkpt lat="46.15923" lon="1.26679">
        <ele>282.6</ele>
        <time>2023-05-02T10:09:34Z</time>
      </trkpt>
      <trkpt lat="46.15912" lon="1.26702">
        <ele>283.2</ele>
        <time>2023-05-02T10:09:39Z</time>
      </trkpt>
      <trkpt lat="46.15908" lon="1.26713">
        <ele>283.4</ele>
        <time>2023-05-02T10:09:41Z</time>
      </trkpt>
      <trkpt lat="46.15903" lon="1.2673">
        <ele>283.8</ele>
        <time>2023-05-02T10:09:44Z</time>
      </trkpt>
      <trkpt lat="46.159" lon="1.26742">
        <ele>284</ele>
        <time>2023-05-02T10:09:46Z</time>
      </trkpt>
      <trkpt lat="46.15901" lon="1.26747">
        <ele>284.2</ele>
        <time>2023-05-02T10:09:47Z</time>
      </trkpt>
      <trkpt lat="46.15906" lon="1.26756">
        <ele>284.2</ele>
        <time>2023-05-02T10:09:49Z</time>
      </trkpt>
      <trkpt lat="46.15923" lon="1.26769">
        <ele>284.6</ele>
        <time>2023-05-02T10:09:54Z</time>
      </trkpt>
      <trkpt lat="46.15942" lon="1.26777">
        <ele>284.8</ele>
        <time>2023-05-02T10:09:59Z</time>
      </trkpt>
      <trkpt lat="46.15955" lon="1.26797">
        <ele>285</ele>
        <time>2023-05-02T10:10:04Z</time>
      </trkpt>
      <trkpt lat="46.15962" lon="1.2682">
        <ele>285.2</ele>
        <time>2023-05-02T10:10:09Z</time>
      </trkpt>
      <trkpt lat="46.15964" lon="1.26851">
        <ele>285.6</ele>
        <time>2023-05-02T10:10:15Z</time>
      </trkpt>
      <trkpt lat="46.15968" lon="1.26876">
        <ele>286</ele>
        <time>2023-05-02T10:10:20Z</time>
      </trkpt>
      <trkpt lat="46.15977" lon="1.26906">
        <ele>286.4</ele>
        <time>2023-05-02T10:10:27Z</time>
      </trkpt>
      <trkpt lat="46.15985" lon="1.2693">
        <ele>287.2</ele>
        <time>2023-05-02T10:10:33Z</time>
      </trkpt>
      <trkpt lat="46.15991" lon="1.26953">
        <ele>288.2</ele>
        <time>2023-05-02T10:10:39Z</time>
      </trkpt>
      <trkpt lat="46.15992" lon="1.2696">
        <ele>288.4</ele>
        <time>2023-05-02T10:10:41Z</time>
      </trkpt>
      <trkpt lat="46.15997" lon="1.26963">
        <ele>288.8</ele>
        <time>2023-05-02T10:10:43Z</time>
      </trkpt>
      <trkpt lat="46.16007" lon="1.26963">
        <ele>289.6</ele>
        <time>2023-05-02T10:10:48Z</time>
      </trkpt>
      <trkpt lat="46.16018" lon="1.26964">
        <ele>290.4</ele>
        <time>2023-05-02T10:10:54Z</time>
      </trkpt>
      <trkpt lat="46.16036" lon="1.26961">
        <ele>291.6</ele>
        <time>2023-05-02T10:11:02Z</time>
      </trkpt>
      <trkpt lat="46.16052" lon="1.26954">
        <ele>292.8</ele>
        <time>2023-05-02T10:11:09Z</time>
      </trkpt>
      <trkpt lat="46.16063" lon="1.26941">
        <ele>294</ele>
        <time>2023-05-02T10:11:15Z</time>
      </trkpt>
      <trkpt lat="46.16066" lon="1.26939">
        <ele>294.6</ele>
        <time>2023-05-02T10:11:20Z</time>
      </trkpt>
      <trkpt lat="46.16067" lon="1.26938">
        <ele>295.2</ele>
        <time>2023-05-02T10:11:24Z</time>
      </trkpt>
      <trkpt lat="46.16069" lon="1.26933">
        <ele>295.6</ele>
        <time>2023-05-02T10:11:26Z</time>
      </trkpt>
      <trkpt lat="46.16082" lon="1.26921">
        <ele>296.6</ele>
        <time>2023-05-02T10:11:31Z</time>
      </trkpt>
      <trkpt lat="46.161" lon="1.26901">
        <ele>297.4</ele>
        <time>2023-05-02T10:11:37Z</time>
      </trkpt>
      <trkpt lat="46.16105" lon="1.269">
        <ele>297.6</ele>
        <time>2023-05-02T10:11:39Z</time>
      </trkpt>
      <trkpt lat="46.16109" lon="1.26903">
        <ele>297.8</ele>
        <time>2023-05-02T10:11:41Z</time>
      </trkpt>
      <trkpt lat="46.16122" lon="1.26908">
        <ele>298.2</ele>
        <time>2023-05-02T10:11:46Z</time>
      </trkpt>
      <trkpt lat="46.16138" lon="1.26916">
        <ele>298.6</ele>
        <time>2023-05-02T10:11:52Z</time>
      </trkpt>
      <trkpt lat="46.16154" lon="1.26916">
        <ele>299.4</ele>
        <time>2023-05-02T10:11:58Z</time>
      </trkpt>
      <trkpt lat="46.16169" lon="1.26909">
        <ele>300</ele>
        <time>2023-05-02T10:12:04Z</time>
      </trkpt>
      <trkpt lat="46.16194" lon="1.26913">
        <ele>299.6</ele>
        <time>2023-05-02T10:12:12Z</time>
      </trkpt>
      <trkpt lat="46.16217" lon="1.26919">
        <ele>299.4</ele>
        <time>2023-05-02T10:12:18Z</time>
      </trkpt>
      <trkpt lat="46.16235" lon="1.26928">
        <ele>298.8</ele>
        <time>2023-05-02T10:12:24Z</time>
      </trkpt>
      <trkpt lat="46.16249" lon="1.26936">
        <ele>298.6</ele>
        <time>2023-05-02T10:12:30Z</time>
      </trkpt>
      <trkpt lat="46.16264" lon="1.26947">
        <ele>298.8</ele>
        <time>2023-05-02T10:12:37Z</time>
      </trkpt>
      <trkpt lat="46.16277" lon="1.26957">
        <ele>298.6</ele>
        <time>2023-05-02T10:12:44Z</time>
      </trkpt>
      <trkpt lat="46.16294" lon="1.26972">
        <ele>299</ele>
        <time>2023-05-02T10:12:52Z</time>
      </trkpt>
      <trkpt lat="46.16307" lon="1.26981">
        <ele>299.2</ele>
        <time>2023-05-02T10:12:58Z</time>
      </trkpt>
      <trkpt lat="46.16319" lon="1.2699">
        <ele>299.4</ele>
        <time>2023-05-02T10:13:03Z</time>
      </trkpt>
      <trkpt lat="46.16328" lon="1.27">
        <ele>300</ele>
        <time>2023-05-02T10:13:07Z</time>
      </trkpt>
      <trkpt lat="46.16331" lon="1.27003">
        <ele>300.2</ele>
        <time>2023-05-02T10:13:09Z</time>
      </trkpt>
      <trkpt lat="46.16338" lon="1.27003">
        <ele>300.4</ele>
        <time>2023-05-02T10:13:14Z</time>
      </trkpt>
      <trkpt lat="46.16351" lon="1.27">
        <ele>301</ele>
        <time>2023-05-02T10:13:19Z</time>
      </trkpt>
      <trkpt lat="46.16365" lon="1.26995">
        <ele>300.6</ele>
        <time>2023-05-02T10:13:25Z</time>
      </trkpt>
      <trkpt lat="46.16377" lon="1.26991">
        <ele>300.6</ele>
        <time>2023-05-02T10:13:31Z</time>
      </trkpt>
      <trkpt lat="46.16384" lon="1.2699">
        <ele>299.8</ele>
        <time>2023-05-02T10:13:37Z</time>
      </trkpt>
      <trkpt lat="46.16395" lon="1.26985">
        <ele>299.8</ele>
        <time>2023-05-02T10:13:41Z</time>
      </trkpt>
      <trkpt lat="46.164" lon="1.26985">
        <ele>300.6</ele>
        <time>2023-05-02T10:13:44Z</time>
      </trkpt>
      <trkpt lat="46.16404" lon="1.26987">
        <ele>300.6</ele>
        <time>2023-05-02T10:13:46Z</time>
      </trkpt>
      <trkpt lat="46.16413" lon="1.26987">
        <ele>300.6</ele>
        <time>2023-05-02T10:13:50Z</time>
      </trkpt>
      <trkpt lat="46.16422" lon="1.26985">
        <ele>300.8</ele>
        <time>2023-05-02T10:13:54Z</time>
      </trkpt>
      <trkpt lat="46.16424" lon="1.26984">
        <ele>300.8</ele>
        <time>2023-05-02T10:13:55Z</time>
      </trkpt>
      <trkpt lat="46.16431" lon="1.26981">
        <ele>300.8</ele>
        <time>2023-05-02T10:13:59Z</time>
      </trkpt>
      <trkpt lat="46.16438" lon="1.26982">
        <ele>300.2</ele>
        <time>2023-05-02T10:14:04Z</time>
      </trkpt>
      <trkpt lat="46.1644" lon="1.26982">
        <ele>299.8</ele>
        <time>2023-05-02T10:14:05Z</time>
      </trkpt>
      <trkpt lat="46.16445" lon="1.26982">
        <ele>300</ele>
        <time>2023-05-02T10:14:08Z</time>
      </trkpt>
      <trkpt lat="46.16449" lon="1.26981">
        <ele>299.8</ele>
        <time>2023-05-02T10:14:10Z</time>
      </trkpt>
      <trkpt lat="46.16454" lon="1.26981">
        <ele>299.2</ele>
        <time>2023-05-02T10:14:13Z</time>
      </trkpt>
      <trkpt lat="46.16458" lon="1.26979">
        <ele>299.2</ele>
        <time>2023-05-02T10:14:15Z</time>
      </trkpt>
      <trkpt lat="46.16468" lon="1.2697">
        <ele>301.2</ele>
        <time>2023-05-02T10:14:20Z</time>
      </trkpt>
      <trkpt lat="46.1647" lon="1.26968">
        <ele>301.2</ele>
        <time>2023-05-02T10:14:21Z</time>
      </trkpt>
      <trkpt lat="46.1648" lon="1.26961">
        <ele>300.8</ele>
        <time>2023-05-02T10:14:27Z</time>
      </trkpt>
      <trkpt lat="46.16491" lon="1.26956">
        <ele>301.2</ele>
        <time>2023-05-02T10:14:33Z</time>
      </trkpt>
      <trkpt lat="46.16497" lon="1.26954">
        <ele>301.2</ele>
        <time>2023-05-02T10:14:38Z</time>
      </trkpt>
      <trkpt lat="46.16499" lon="1.26953">
        <ele>301.2</ele>
        <time>2023-05-02T10:14:39Z</time>
      </trkpt>
      <trkpt lat="46.165" lon="1.26952">
        <ele>301</ele>
        <time>2023-05-02T10:14:40Z</time>
      </trkpt>
      <trkpt lat="46.16509" lon="1.26947">
        <ele>300.4</ele>
        <time>2023-05-02T10:14:45Z</time>
      </trkpt>
      <trkpt lat="46.16512" lon="1.26947">
        <ele>300.2</ele>
        <time>2023-05-02T10:14:47Z</time>
      </trkpt>
      <trkpt lat="46.16514" lon="1.26947">
        <ele>299.6</ele>
        <time>2023-05-02T10:14:49Z</time>
      </trkpt>
      <trkpt lat="46.16525" lon="1.2695">
        <ele>297.6</ele>
        <time>2023-05-02T10:14:56Z</time>
      </trkpt>
      <trkpt lat="46.16534" lon="1.26951">
        <ele>295.6</ele>
        <time>2023-05-02T10:15:01Z</time>
      </trkpt>
      <trkpt lat="46.16544" lon="1.26953">
        <ele>293.6</ele>
        <time>2023-05-02T10:15:06Z</time>
      </trkpt>
      <trkpt lat="46.16553" lon="1.26956">
        <ele>292</ele>
        <time>2023-05-02T10:15:10Z</time>
      </trkpt>
      <trkpt lat="46.16555" lon="1.26956">
        <ele>291.6</ele>
        <time>2023-05-02T10:15:11Z</time>
      </trkpt>
      <trkpt lat="46.16571" lon="1.26942">
        <ele>288.6</ele>
        <time>2023-05-02T10:15:17Z</time>
      </trkpt>
      <trkpt lat="46.16582" lon="1.26937">
        <ele>287.6</ele>
        <time>2023-05-02T10:15:22Z</time>
      </trkpt>
      <trkpt lat="46.16595" lon="1.26934">
        <ele>286.4</ele>
        <time>2023-05-02T10:15:28Z</time>
      </trkpt>
      <trkpt lat="46.16598" lon="1.26934">
        <ele>285.8</ele>
        <time>2023-05-02T10:15:31Z</time>
      </trkpt>
      <trkpt lat="46.16641" lon="1.26899">
        <ele>294</ele>
        <time>2023-05-02T10:16:41Z</time>
      </trkpt>
      <trkpt lat="46.16643" lon="1.26898">
        <ele>294.4</ele>
        <time>2023-05-02T10:16:42Z</time>
      </trkpt>
      <trkpt lat="46.16644" lon="1.26897">
        <ele>294.6</ele>
        <time>2023-05-02T10:16:43Z</time>
      </trkpt>
      <trkpt lat="46.16651" lon="1.26896">
        <ele>295.4</ele>
        <time>2023-05-02T10:16:47Z</time>
      </trkpt>
      <trkpt lat="46.16652" lon="1.26896">
        <ele>295.6</ele>
        <time>2023-05-02T10:16:48Z</time>
      </trkpt>
      <trkpt lat="46.16655" lon="1.26896">
        <ele>296</ele>
        <time>2023-05-02T10:16:50Z</time>
      </trkpt>
      <trkpt lat="46.16656" lon="1.26895">
        <ele>296.2</ele>
        <time>2023-05-02T10:16:51Z</time>
      </trkpt>
      <trkpt lat="46.16658" lon="1.26895">
        <ele>296.4</ele>
        <time>2023-05-02T10:16:52Z</time>
      </trkpt>
      <trkpt lat="46.16663" lon="1.26893">
        <ele>296.8</ele>
        <time>2023-05-02T10:16:55Z</time>
      </trkpt>
      <trkpt lat="46.16674" lon="1.26891">
        <ele>297.6</ele>
        <time>2023-05-02T10:17:01Z</time>
      </trkpt>
      <trkpt lat="46.16685" lon="1.26885">
        <ele>298.6</ele>
        <time>2023-05-02T10:17:08Z</time>
      </trkpt>
      <trkpt lat="46.16695" lon="1.26871">
        <ele>300</ele>
        <time>2023-05-02T10:17:14Z</time>
      </trkpt>
      <trkpt lat="46.16708" lon="1.26855">
        <ele>301.8</ele>
        <time>2023-05-02T10:17:21Z</time>
      </trkpt>
      <trkpt lat="46.16715" lon="1.26849">
        <ele>302.4</ele>
        <time>2023-05-02T10:17:24Z</time>
      </trkpt>
      <trkpt lat="46.1672" lon="1.26849">
        <ele>302.8</ele>
        <time>2023-05-02T10:17:27Z</time>
      </trkpt>
      <trkpt lat="46.16721" lon="1.2685">
        <ele>303</ele>
        <time>2023-05-02T10:17:28Z</time>
      </trkpt>
      <trkpt lat="46.16721" lon="1.26856">
        <ele>303.4</ele>
        <time>2023-05-02T10:17:31Z</time>
      </trkpt>
      <trkpt lat="46.16719" lon="1.26875">
        <ele>304.4</ele>
        <time>2023-05-02T10:17:37Z</time>
      </trkpt>
      <trkpt lat="46.16718" lon="1.26899">
        <ele>305.4</ele>
        <time>2023-05-02T10:17:43Z</time>
      </trkpt>
      <trkpt lat="46.16718" lon="1.26934">
        <ele>306.2</ele>
        <time>2023-05-02T10:17:50Z</time>
      </trkpt>
      <trkpt lat="46.16719" lon="1.26976">
        <ele>307.4</ele>
        <time>2023-05-02T10:17:58Z</time>
      </trkpt>
      <trkpt lat="46.1672" lon="1.27025">
        <ele>308.6</ele>
        <time>2023-05-02T10:18:07Z</time>
      </trkpt>
      <trkpt lat="46.16721" lon="1.27054">
        <ele>309.2</ele>
        <time>2023-05-02T10:18:12Z</time>
      </trkpt>
      <trkpt lat="46.16722" lon="1.27065">
        <ele>309.4</ele>
        <time>2023-05-02T10:18:14Z</time>
      </trkpt>
      <trkpt lat="46.16731" lon="1.27087">
        <ele>310.2</ele>
        <time>2023-05-02T10:18:19Z</time>
      </trkpt>
      <trkpt lat="46.16748" lon="1.27109">
        <ele>311.2</ele>
        <time>2023-05-02T10:18:26Z</time>
      </trkpt>
      <trkpt lat="46.1677" lon="1.27128">
        <ele>312.6</ele>
        <time>2023-05-02T10:18:34Z</time>
      </trkpt>
      <trkpt lat="46.16784" lon="1.27141">
        <ele>313.6</ele>
        <time>2023-05-02T10:18:40Z</time>
      </trkpt>
      <trkpt lat="46.16795" lon="1.27153">
        <ele>314.4</ele>
        <time>2023-05-02T10:18:45Z</time>
      </trkpt>
      <trkpt lat="46.16808" lon="1.27164">
        <ele>315.2</ele>
        <time>2023-05-02T10:18:50Z</time>
      </trkpt>
      <trkpt lat="46.16809" lon="1.27167">
        <ele>315.4</ele>
        <time>2023-05-02T10:18:51Z</time>
      </trkpt>
      <trkpt lat="46.16811" lon="1.27185">
        <ele>316</ele>
        <time>2023-05-02T10:18:56Z</time>
      </trkpt>
      <trkpt lat="46.16813" lon="1.27215">
        <ele>317</ele>
        <time>2023-05-02T10:19:03Z</time>
      </trkpt>
      <trkpt lat="46.16816" lon="1.27237">
        <ele>317.6</ele>
        <time>2023-05-02T10:19:08Z</time>
      </trkpt>
      <trkpt lat="46.16828" lon="1.27252">
        <ele>318.4</ele>
        <time>2023-05-02T10:19:13Z</time>
      </trkpt>
      <trkpt lat="46.16841" lon="1.27266">
        <ele>319.2</ele>
        <time>2023-05-02T10:19:19Z</time>
      </trkpt>
      <trkpt lat="46.16853" lon="1.27272">
        <ele>319.8</ele>
        <time>2023-05-02T10:19:24Z</time>
      </trkpt>
      <trkpt lat="46.16868" lon="1.27279">
        <ele>320</ele>
        <time>2023-05-02T10:19:29Z</time>
      </trkpt>
      <trkpt lat="46.1688" lon="1.27287">
        <ele>320.2</ele>
        <time>2023-05-02T10:19:34Z</time>
      </trkpt>
      <trkpt lat="46.16893" lon="1.27299">
        <ele>320.2</ele>
        <time>2023-05-02T10:19:39Z</time>
      </trkpt>
      <trkpt lat="46.16907" lon="1.27309">
        <ele>320.4</ele>
        <time>2023-05-02T10:19:44Z</time>
      </trkpt>
      <trkpt lat="46.16917" lon="1.27308">
        <ele>320.2</ele>
        <time>2023-05-02T10:19:47Z</time>
      </trkpt>
      <trkpt lat="46.16937" lon="1.2729">
        <ele>319.8</ele>
        <time>2023-05-02T10:19:52Z</time>
      </trkpt>
      <trkpt lat="46.16953" lon="1.27287">
        <ele>319.4</ele>
        <time>2023-05-02T10:19:56Z</time>
      </trkpt>
      <trkpt lat="46.1697" lon="1.27298">
        <ele>318.4</ele>
        <time>2023-05-02T10:20:01Z</time>
      </trkpt>
      <trkpt lat="46.1699" lon="1.27307">
        <ele>317.6</ele>
        <time>2023-05-02T10:20:07Z</time>
      </trkpt>
      <trkpt lat="46.1701" lon="1.27306">
        <ele>316.8</ele>
        <time>2023-05-02T10:20:14Z</time>
      </trkpt>
      <trkpt lat="46.17026" lon="1.27302">
        <ele>316.2</ele>
        <time>2023-05-02T10:20:20Z</time>
      </trkpt>
      <trkpt lat="46.17045" lon="1.273">
        <ele>315.6</ele>
        <time>2023-05-02T10:20:26Z</time>
      </trkpt>
      <trkpt lat="46.17068" lon="1.273">
        <ele>315</ele>
        <time>2023-05-02T10:20:33Z</time>
      </trkpt>
      <trkpt lat="46.17091" lon="1.27306">
        <ele>314.8</ele>
        <time>2023-05-02T10:20:39Z</time>
      </trkpt>
      <trkpt lat="46.17107" lon="1.27315">
        <ele>314.8</ele>
        <time>2023-05-02T10:20:44Z</time>
      </trkpt>
      <trkpt lat="46.17121" lon="1.27314">
        <ele>314.4</ele>
        <time>2023-05-02T10:20:48Z</time>
      </trkpt>
      <trkpt lat="46.17126" lon="1.27312">
        <ele>314.2</ele>
        <time>2023-05-02T10:20:49Z</time>
      </trkpt>
      <trkpt lat="46.17142" lon="1.27307">
        <ele>313.8</ele>
        <time>2023-05-02T10:20:52Z</time>
      </trkpt>
      <trkpt lat="46.17175" lon="1.2729">
        <ele>313</ele>
        <time>2023-05-02T10:20:57Z</time>
      </trkpt>
      <trkpt lat="46.17189" lon="1.27283">
        <ele>312.8</ele>
        <time>2023-05-02T10:20:59Z</time>
      </trkpt>
      <trkpt lat="46.17202" lon="1.27282">
        <ele>312.6</ele>
        <time>2023-05-02T10:21:01Z</time>
      </trkpt>
      <trkpt lat="46.17215" lon="1.27289">
        <ele>312.2</ele>
        <time>2023-05-02T10:21:03Z</time>
      </trkpt>
      <trkpt lat="46.17221" lon="1.27295">
        <ele>312.2</ele>
        <time>2023-05-02T10:21:04Z</time>
      </trkpt>
      <trkpt lat="46.17245" lon="1.27326">
        <ele>311.8</ele>
        <time>2023-05-02T10:21:09Z</time>
      </trkpt>
      <trkpt lat="46.1725" lon="1.27331">
        <ele>311.6</ele>
        <time>2023-05-02T10:21:10Z</time>
      </trkpt>
      <trkpt lat="46.17261" lon="1.2734">
        <ele>311.6</ele>
        <time>2023-05-02T10:21:12Z</time>
      </trkpt>
      <trkpt lat="46.17274" lon="1.27345">
        <ele>311.4</ele>
        <time>2023-05-02T10:21:14Z</time>
      </trkpt>
      <trkpt lat="46.1728" lon="1.27346">
        <ele>311.2</ele>
        <time>2023-05-02T10:21:15Z</time>
      </trkpt>
      <trkpt lat="46.17293" lon="1.27345">
        <ele>311</ele>
        <time>2023-05-02T10:21:17Z</time>
      </trkpt>
      <trkpt lat="46.173" lon="1.27341">
        <ele>310.8</ele>
        <time>2023-05-02T10:21:18Z</time>
      </trkpt>
      <trkpt lat="46.17306" lon="1.27336">
        <ele>310.6</ele>
        <time>2023-05-02T10:21:19Z</time>
      </trkpt>
      <trkpt lat="46.17332" lon="1.27314">
        <ele>310</ele>
        <time>2023-05-02T10:21:23Z</time>
      </trkpt>
      <trkpt lat="46.17369" lon="1.27281">
        <ele>309</ele>
        <time>2023-05-02T10:21:29Z</time>
      </trkpt>
      <trkpt lat="46.1741" lon="1.27251">
        <ele>307.8</ele>
        <time>2023-05-02T10:21:35Z</time>
      </trkpt>
      <trkpt lat="46.1743" lon="1.27241">
        <ele>307.2</ele>
        <time>2023-05-02T10:21:38Z</time>
      </trkpt>
      <trkpt lat="46.17443" lon="1.27236">
        <ele>306.6</ele>
        <time>2023-05-02T10:21:40Z</time>
      </trkpt>
      <trkpt lat="46.17477" lon="1.27222">
        <ele>305.4</ele>
        <time>2023-05-02T10:21:46Z</time>
      </trkpt>
      <trkpt lat="46.17482" lon="1.27219">
        <ele>305</ele>
        <time>2023-05-02T10:21:47Z</time>
      </trkpt>
      <trkpt lat="46.17493" lon="1.27209">
        <ele>304.4</ele>
        <time>2023-05-02T10:21:50Z</time>
      </trkpt>
      <trkpt lat="46.17497" lon="1.27202">
        <ele>304</ele>
        <time>2023-05-02T10:21:52Z</time>
      </trkpt>
      <trkpt lat="46.17502" lon="1.27191">
        <ele>303.6</ele>
        <time>2023-05-02T10:21:54Z</time>
      </trkpt>
      <trkpt lat="46.17507" lon="1.2718">
        <ele>303</ele>
        <time>2023-05-02T10:21:56Z</time>
      </trkpt>
      <trkpt lat="46.17514" lon="1.2717">
        <ele>302.6</ele>
        <time>2023-05-02T10:21:58Z</time>
      </trkpt>
      <trkpt lat="46.17518" lon="1.27167">
        <ele>302.4</ele>
        <time>2023-05-02T10:21:59Z</time>
      </trkpt>
      <trkpt lat="46.17532" lon="1.27159">
        <ele>301.8</ele>
        <time>2023-05-02T10:22:03Z</time>
      </trkpt>
      <trkpt lat="46.1755" lon="1.27154">
        <ele>300.6</ele>
        <time>2023-05-02T10:22:08Z</time>
      </trkpt>
      <trkpt lat="46.17578" lon="1.27148">
        <ele>299.4</ele>
        <time>2023-05-02T10:22:15Z</time>
      </trkpt>
      <trkpt lat="46.17602" lon="1.27151">
        <ele>298.6</ele>
        <time>2023-05-02T10:22:22Z</time>
      </trkpt>
      <trkpt lat="46.17621" lon="1.2716">
        <ele>298</ele>
        <time>2023-05-02T10:22:28Z</time>
      </trkpt>
      <trkpt lat="46.17639" lon="1.27177">
        <ele>297.4</ele>
        <time>2023-05-02T10:22:35Z</time>
      </trkpt>
      <trkpt lat="46.17663" lon="1.272">
        <ele>297</ele>
        <time>2023-05-02T10:22:44Z</time>
      </trkpt>
      <trkpt lat="46.17685" lon="1.27222">
        <ele>296.8</ele>
        <time>2023-05-02T10:22:53Z</time>
      </trkpt>
      <trkpt lat="46.177" lon="1.27235">
        <ele>296.6</ele>
        <time>2023-05-02T10:22:59Z</time>
      </trkpt>
      <trkpt lat="46.17718" lon="1.27243">
        <ele>296.2</ele>
        <time>2023-05-02T10:23:06Z</time>
      </trkpt>
      <trkpt lat="46.1773" lon="1.27245">
        <ele>296.8</ele>
        <time>2023-05-02T10:23:11Z</time>
      </trkpt>
      <trkpt lat="46.17742" lon="1.27249">
        <ele>297</ele>
        <time>2023-05-02T10:23:16Z</time>
      </trkpt>
      <trkpt lat="46.17746" lon="1.27254">
        <ele>297</ele>
        <time>2023-05-02T10:23:18Z</time>
      </trkpt>
      <trkpt lat="46.17747" lon="1.27261">
        <ele>297</ele>
        <time>2023-05-02T10:23:20Z</time>
      </trkpt>
      <trkpt lat="46.17746" lon="1.27289">
        <ele>297.4</ele>
        <time>2023-05-02T10:23:27Z</time>
      </trkpt>
      <trkpt lat="46.17745" lon="1.27323">
        <ele>297.6</ele>
        <time>2023-05-02T10:23:35Z</time>
      </trkpt>
      <trkpt lat="46.17743" lon="1.27352">
        <ele>298</ele>
        <time>2023-05-02T10:23:42Z</time>
      </trkpt>
      <trkpt lat="46.17744" lon="1.27373">
        <ele>298.4</ele>
        <time>2023-05-02T10:23:48Z</time>
      </trkpt>
      <trkpt lat="46.17753" lon="1.27387">
        <ele>298.8</ele>
        <time>2023-05-02T10:23:54Z</time>
      </trkpt>
      <trkpt lat="46.17769" lon="1.27387">
        <ele>299.4</ele>
        <time>2023-05-02T10:24:00Z</time>
      </trkpt>
      <trkpt lat="46.17793" lon="1.2739">
        <ele>299.8</ele>
        <time>2023-05-02T10:24:08Z</time>
      </trkpt>
      <trkpt lat="46.17821" lon="1.27391">
        <ele>300.2</ele>
        <time>2023-05-02T10:24:17Z</time>
      </trkpt>
      <trkpt lat="46.17846" lon="1.27394">
        <ele>300.6</ele>
        <time>2023-05-02T10:24:24Z</time>
      </trkpt>
      <trkpt lat="46.17873" lon="1.27402">
        <ele>301</ele>
        <time>2023-05-02T10:24:32Z</time>
      </trkpt>
      <trkpt lat="46.1789" lon="1.27395">
        <ele>301.2</ele>
        <time>2023-05-02T10:24:37Z</time>
      </trkpt>
      <trkpt lat="46.17908" lon="1.27385">
        <ele>302.2</ele>
        <time>2023-05-02T10:24:44Z</time>
      </trkpt>
      <trkpt lat="46.17927" lon="1.27378">
        <ele>302.6</ele>
        <time>2023-05-02T10:24:50Z</time>
      </trkpt>
      <trkpt lat="46.17934" lon="1.27388">
        <ele>303</ele>
        <time>2023-05-02T10:24:53Z</time>
      </trkpt>
      <trkpt lat="46.17944" lon="1.27405">
        <ele>303.4</ele>
        <time>2023-05-02T10:24:58Z</time>
      </trkpt>
      <trkpt lat="46.17962" lon="1.27424">
        <ele>304.2</ele>
        <time>2023-05-02T10:25:05Z</time>
      </trkpt>
      <trkpt lat="46.17981" lon="1.27441">
        <ele>305</ele>
        <time>2023-05-02T10:25:12Z</time>
      </trkpt>
      <trkpt lat="46.17992" lon="1.27442">
        <ele>305.4</ele>
        <time>2023-05-02T10:25:16Z</time>
      </trkpt>
      <trkpt lat="46.17995" lon="1.2744">
        <ele>305.6</ele>
        <time>2023-05-02T10:25:17Z</time>
      </trkpt>
      <trkpt lat="46.18008" lon="1.2742">
        <ele>306</ele>
        <time>2023-05-02T10:25:22Z</time>
      </trkpt>
      <trkpt lat="46.18011" lon="1.27416">
        <ele>306</ele>
        <time>2023-05-02T10:25:23Z</time>
      </trkpt>
      <trkpt lat="46.18024" lon="1.27401">
        <ele>306.2</ele>
        <time>2023-05-02T10:25:26Z</time>
      </trkpt>
      <trkpt lat="46.1805" lon="1.27374">
        <ele>306</ele>
        <time>2023-05-02T10:25:30Z</time>
      </trkpt>
      <trkpt lat="46.18092" lon="1.27338">
        <ele>305.8</ele>
        <time>2023-05-02T10:25:35Z</time>
      </trkpt>
      <trkpt lat="46.18115" lon="1.27319">
        <ele>306.2</ele>
        <time>2023-05-02T10:25:39Z</time>
      </trkpt>
      <trkpt lat="46.18127" lon="1.27309">
        <ele>306.4</ele>
        <time>2023-05-02T10:25:43Z</time>
      </trkpt>
      <trkpt lat="46.18148" lon="1.27293">
        <ele>306.6</ele>
        <time>2023-05-02T10:25:49Z</time>
      </trkpt>
      <trkpt lat="46.18167" lon="1.27282">
        <ele>306.6</ele>
        <time>2023-05-02T10:25:54Z</time>
      </trkpt>
      <trkpt lat="46.1817" lon="1.27283">
        <ele>306.6</ele>
        <time>2023-05-02T10:25:55Z</time>
      </trkpt>
      <trkpt lat="46.18174" lon="1.2729">
        <ele>306.6</ele>
        <time>2023-05-02T10:25:57Z</time>
      </trkpt>
      <trkpt lat="46.18181" lon="1.27315">
        <ele>307</ele>
        <time>2023-05-02T10:26:05Z</time>
      </trkpt>
      <trkpt lat="46.18194" lon="1.27333">
        <ele>307.2</ele>
        <time>2023-05-02T10:26:12Z</time>
      </trkpt>
      <trkpt lat="46.18211" lon="1.2735">
        <ele>307.6</ele>
        <time>2023-05-02T10:26:20Z</time>
      </trkpt>
      <trkpt lat="46.18221" lon="1.27359">
        <ele>307.8</ele>
        <time>2023-05-02T10:26:25Z</time>
      </trkpt>
      <trkpt lat="46.18231" lon="1.27369">
        <ele>308</ele>
        <time>2023-05-02T10:26:31Z</time>
      </trkpt>
      <trkpt lat="46.18243" lon="1.27375">
        <ele>308.6</ele>
        <time>2023-05-02T10:26:37Z</time>
      </trkpt>
      <trkpt lat="46.18256" lon="1.27382">
        <ele>309.2</ele>
        <time>2023-05-02T10:26:44Z</time>
      </trkpt>
      <trkpt lat="46.18259" lon="1.27383">
        <ele>309.4</ele>
        <time>2023-05-02T10:26:45Z</time>
      </trkpt>
      <trkpt lat="46.18264" lon="1.27384">
        <ele>309.8</ele>
        <time>2023-05-02T10:26:48Z</time>
      </trkpt>
      <trkpt lat="46.18265" lon="1.27386">
        <ele>310</ele>
        <time>2023-05-02T10:26:49Z</time>
      </trkpt>
      <trkpt lat="46.18267" lon="1.27387">
        <ele>310.2</ele>
        <time>2023-05-02T10:26:50Z</time>
      </trkpt>
      <trkpt lat="46.18273" lon="1.27388">
        <ele>310.8</ele>
        <time>2023-05-02T10:26:53Z</time>
      </trkpt>
      <trkpt lat="46.18274" lon="1.27389">
        <ele>311</ele>
        <time>2023-05-02T10:26:54Z</time>
      </trkpt>
      <trkpt lat="46.18281" lon="1.27391">
        <ele>311.4</ele>
        <time>2023-05-02T10:26:58Z</time>
      </trkpt>
      <trkpt lat="46.18291" lon="1.27393">
        <ele>312.2</ele>
        <time>2023-05-02T10:27:03Z</time>
      </trkpt>
      <trkpt lat="46.18293" lon="1.27393">
        <ele>312.4</ele>
        <time>2023-05-02T10:27:04Z</time>
      </trkpt>
      <trkpt lat="46.18307" lon="1.2739">
        <ele>312.4</ele>
        <time>2023-05-02T10:27:09Z</time>
      </trkpt>
      <trkpt lat="46.18327" lon="1.2739">
        <ele>312.4</ele>
        <time>2023-05-02T10:27:15Z</time>
      </trkpt>
      <trkpt lat="46.18355" lon="1.27388">
        <ele>312.2</ele>
        <time>2023-05-02T10:27:23Z</time>
      </trkpt>
      <trkpt lat="46.18379" lon="1.27394">
        <ele>311.6</ele>
        <time>2023-05-02T10:27:30Z</time>
      </trkpt>
      <trkpt lat="46.18396" lon="1.27401">
        <ele>311.8</ele>
        <time>2023-05-02T10:27:35Z</time>
      </trkpt>
      <trkpt lat="46.1842" lon="1.27408">
        <ele>311.6</ele>
        <time>2023-05-02T10:27:42Z</time>
      </trkpt>
      <trkpt lat="46.18442" lon="1.2741">
        <ele>311.4</ele>
        <time>2023-05-02T10:27:48Z</time>
      </trkpt>
      <trkpt lat="46.18469" lon="1.27408">
        <ele>311.4</ele>
        <time>2023-05-02T10:27:55Z</time>
      </trkpt>
      <trkpt lat="46.18497" lon="1.27399">
        <ele>312.2</ele>
        <time>2023-05-02T10:28:02Z</time>
      </trkpt>
      <trkpt lat="46.1853" lon="1.27388">
        <ele>312</ele>
        <time>2023-05-02T10:28:09Z</time>
      </trkpt>
      <trkpt lat="46.18569" lon="1.27383">
        <ele>312.6</ele>
        <time>2023-05-02T10:28:17Z</time>
      </trkpt>
      <trkpt lat="46.18589" lon="1.27383">
        <ele>312.8</ele>
        <time>2023-05-02T10:28:21Z</time>
      </trkpt>
      <trkpt lat="46.18595" lon="1.27385">
        <ele>312.8</ele>
        <time>2023-05-02T10:28:22Z</time>
      </trkpt>
      <trkpt lat="46.1862" lon="1.27396">
        <ele>313</ele>
        <time>2023-05-02T10:28:26Z</time>
      </trkpt>
      <trkpt lat="46.18627" lon="1.27397">
        <ele>313</ele>
        <time>2023-05-02T10:28:27Z</time>
      </trkpt>
      <trkpt lat="46.1864" lon="1.27397">
        <ele>313</ele>
        <time>2023-05-02T10:28:29Z</time>
      </trkpt>
      <trkpt lat="46.18653" lon="1.27393">
        <ele>313</ele>
        <time>2023-05-02T10:28:31Z</time>
      </trkpt>
      <trkpt lat="46.18691" lon="1.27372">
        <ele>313.4</ele>
        <time>2023-05-02T10:28:37Z</time>
      </trkpt>
      <trkpt lat="46.18714" lon="1.27357">
        <ele>313.6</ele>
        <time>2023-05-02T10:28:42Z</time>
      </trkpt>
      <trkpt lat="46.18727" lon="1.27355">
        <ele>313.8</ele>
        <time>2023-05-02T10:28:46Z</time>
      </trkpt>
      <trkpt lat="46.18733" lon="1.27355">
        <ele>314</ele>
        <time>2023-05-02T10:28:49Z</time>
      </trkpt>
      <trkpt lat="46.18735" lon="1.27352">
        <ele>314</ele>
        <time>2023-05-02T10:28:50Z</time>
      </trkpt>
      <trkpt lat="46.18754" lon="1.27334">
        <ele>314.4</ele>
        <time>2023-05-02T10:28:55Z</time>
      </trkpt>
      <trkpt lat="46.18781" lon="1.27311">
        <ele>314.6</ele>
        <time>2023-05-02T10:29:01Z</time>
      </trkpt>
      <trkpt lat="46.18815" lon="1.27284">
        <ele>314.8</ele>
        <time>2023-05-02T10:29:07Z</time>
      </trkpt>
      <trkpt lat="46.18856" lon="1.27249">
        <ele>314.6</ele>
        <time>2023-05-02T10:29:14Z</time>
      </trkpt>
      <trkpt lat="46.18874" lon="1.27217">
        <ele>314.6</ele>
        <time>2023-05-02T10:29:19Z</time>
      </trkpt>
      <trkpt lat="46.18877" lon="1.27211">
        <ele>314.6</ele>
        <time>2023-05-02T10:29:20Z</time>
      </trkpt>
      <trkpt lat="46.18892" lon="1.27178">
        <ele>314.8</ele>
        <time>2023-05-02T10:29:25Z</time>
      </trkpt>
      <trkpt lat="46.18913" lon="1.27137">
        <ele>314.4</ele>
        <time>2023-05-02T10:29:31Z</time>
      </trkpt>
      <trkpt lat="46.18929" lon="1.2709">
        <ele>314</ele>
        <time>2023-05-02T10:29:36Z</time>
      </trkpt>
      <trkpt lat="46.18953" lon="1.27024">
        <ele>312.8</ele>
        <time>2023-05-02T10:29:42Z</time>
      </trkpt>
      <trkpt lat="46.18956" lon="1.27013">
        <ele>312.6</ele>
        <time>2023-05-02T10:29:43Z</time>
      </trkpt>
      <trkpt lat="46.18958" lon="1.2699">
        <ele>312.2</ele>
        <time>2023-05-02T10:29:45Z</time>
      </trkpt>
      <trkpt lat="46.18957" lon="1.26966">
        <ele>311.8</ele>
        <time>2023-05-02T10:29:48Z</time>
      </trkpt>
      <trkpt lat="46.18962" lon="1.26957">
        <ele>311.6</ele>
        <time>2023-05-02T10:29:50Z</time>
      </trkpt>
      <trkpt lat="46.18966" lon="1.26955">
        <ele>311.4</ele>
        <time>2023-05-02T10:29:51Z</time>
      </trkpt>
      <trkpt lat="46.1897" lon="1.26955">
        <ele>311.4</ele>
        <time>2023-05-02T10:29:52Z</time>
      </trkpt>
      <trkpt lat="46.18977" lon="1.2696">
        <ele>311</ele>
        <time>2023-05-02T10:29:54Z</time>
      </trkpt>
      <trkpt lat="46.19003" lon="1.26981">
        <ele>309.8</ele>
        <time>2023-05-02T10:30:01Z</time>
      </trkpt>
      <trkpt lat="46.19015" lon="1.26991">
        <ele>309</ele>
        <time>2023-05-02T10:30:05Z</time>
      </trkpt>
      <trkpt lat="46.19033" lon="1.27005">
        <ele>308.2</ele>
        <time>2023-05-02T10:30:10Z</time>
      </trkpt>
      <trkpt lat="46.19051" lon="1.27021">
        <ele>307.4</ele>
        <time>2023-05-02T10:30:15Z</time>
      </trkpt>
      <trkpt lat="46.19073" lon="1.27042">
        <ele>307</ele>
        <time>2023-05-02T10:30:21Z</time>
      </trkpt>
      <trkpt lat="46.19097" lon="1.27065">
        <ele>306.8</ele>
        <time>2023-05-02T10:30:28Z</time>
      </trkpt>
      <trkpt lat="46.19116" lon="1.27087">
        <ele>306.8</ele>
        <time>2023-05-02T10:30:34Z</time>
      </trkpt>
      <trkpt lat="46.1914" lon="1.27111">
        <ele>306.4</ele>
        <time>2023-05-02T10:30:41Z</time>
      </trkpt>
      <trkpt lat="46.19167" lon="1.27137">
        <ele>307.4</ele>
        <time>2023-05-02T10:30:49Z</time>
      </trkpt>
      <trkpt lat="46.19191" lon="1.27157">
        <ele>308.2</ele>
        <time>2023-05-02T10:30:56Z</time>
      </trkpt>
      <trkpt lat="46.19215" lon="1.27176">
        <ele>309</ele>
        <time>2023-05-02T10:31:03Z</time>
      </trkpt>
      <trkpt lat="46.19236" lon="1.27194">
        <ele>309.4</ele>
        <time>2023-05-02T10:31:09Z</time>
      </trkpt>
      <trkpt lat="46.19258" lon="1.27213">
        <ele>310</ele>
        <time>2023-05-02T10:31:16Z</time>
      </trkpt>
      <trkpt lat="46.19276" lon="1.27233">
        <ele>310.4</ele>
        <time>2023-05-02T10:31:22Z</time>
      </trkpt>
      <trkpt lat="46.19296" lon="1.27255">
        <ele>311</ele>
        <time>2023-05-02T10:31:30Z</time>
      </trkpt>
      <trkpt lat="46.19317" lon="1.27269">
        <ele>312</ele>
        <time>2023-05-02T10:31:38Z</time>
      </trkpt>
      <trkpt lat="46.19327" lon="1.27273">
        <ele>312.4</ele>
        <time>2023-05-02T10:31:42Z</time>
      </trkpt>
      <trkpt lat="46.19333" lon="1.27274">
        <ele>312.4</ele>
        <time>2023-05-02T10:31:44Z</time>
      </trkpt>
      <trkpt lat="46.19352" lon="1.27274">
        <ele>313</ele>
        <time>2023-05-02T10:31:51Z</time>
      </trkpt>
      <trkpt lat="46.19367" lon="1.27276">
        <ele>313.4</ele>
        <time>2023-05-02T10:31:57Z</time>
      </trkpt>
      <trkpt lat="46.19385" lon="1.27275">
        <ele>313.6</ele>
        <time>2023-05-02T10:32:04Z</time>
      </trkpt>
      <trkpt lat="46.19401" lon="1.27277">
        <ele>313.8</ele>
        <time>2023-05-02T10:32:10Z</time>
      </trkpt>
      <trkpt lat="46.19419" lon="1.27277">
        <ele>313.6</ele>
        <time>2023-05-02T10:32:17Z</time>
      </trkpt>
      <trkpt lat="46.19432" lon="1.27275">
        <ele>313.8</ele>
        <time>2023-05-02T10:32:22Z</time>
      </trkpt>
      <trkpt lat="46.19448" lon="1.27278">
        <ele>314</ele>
        <time>2023-05-02T10:32:29Z</time>
      </trkpt>
      <trkpt lat="46.19465" lon="1.27279">
        <ele>314.4</ele>
        <time>2023-05-02T10:32:36Z</time>
      </trkpt>
      <trkpt lat="46.19484" lon="1.27283">
        <ele>315</ele>
        <time>2023-05-02T10:32:43Z</time>
      </trkpt>
      <trkpt lat="46.19511" lon="1.27288">
        <ele>316.2</ele>
        <time>2023-05-02T10:32:53Z</time>
      </trkpt>
      <trkpt lat="46.1954" lon="1.27293">
        <ele>317.2</ele>
        <time>2023-05-02T10:33:03Z</time>
      </trkpt>
      <trkpt lat="46.19574" lon="1.27298">
        <ele>318.6</ele>
        <time>2023-05-02T10:33:14Z</time>
      </trkpt>
      <trkpt lat="46.19602" lon="1.27302">
        <ele>319.4</ele>
        <time>2023-05-02T10:33:23Z</time>
      </trkpt>
      <trkpt lat="46.19612" lon="1.27303">
        <ele>319.8</ele>
        <time>2023-05-02T10:33:28Z</time>
      </trkpt>
      <trkpt lat="46.19612" lon="1.27303">
        <ele>320</ele>
        <time>2023-05-02T10:33:29Z</time>
      </trkpt>
      <trkpt lat="46.19614" lon="1.27304">
        <ele>321.8</ele>
        <time>2023-05-02T10:33:52Z</time>
      </trkpt>
      <trkpt lat="46.19616" lon="1.27309">
        <ele>321.8</ele>
        <time>2023-05-02T10:33:54Z</time>
      </trkpt>
      <trkpt lat="46.19622" lon="1.27331">
        <ele>322.4</ele>
        <time>2023-05-02T10:33:59Z</time>
      </trkpt>
      <trkpt lat="46.19629" lon="1.2736">
        <ele>322.8</ele>
        <time>2023-05-02T10:34:05Z</time>
      </trkpt>
      <trkpt lat="46.19638" lon="1.27395">
        <ele>323.2</ele>
        <time>2023-05-02T10:34:11Z</time>
      </trkpt>
      <trkpt lat="46.1964" lon="1.27407">
        <ele>323.4</ele>
        <time>2023-05-02T10:34:13Z</time>
      </trkpt>
      <trkpt lat="46.19652" lon="1.27452">
        <ele>324</ele>
        <time>2023-05-02T10:34:21Z</time>
      </trkpt>
      <trkpt lat="46.19666" lon="1.27505">
        <ele>324.6</ele>
        <time>2023-05-02T10:34:30Z</time>
      </trkpt>
      <trkpt lat="46.19678" lon="1.27556">
        <ele>325.2</ele>
        <time>2023-05-02T10:34:39Z</time>
      </trkpt>
      <trkpt lat="46.19682" lon="1.27581">
        <ele>325.6</ele>
        <time>2023-05-02T10:34:43Z</time>
      </trkpt>
      <trkpt lat="46.19684" lon="1.27592">
        <ele>325.6</ele>
        <time>2023-05-02T10:34:45Z</time>
      </trkpt>
      <trkpt lat="46.1969" lon="1.276">
        <ele>325.8</ele>
        <time>2023-05-02T10:34:47Z</time>
      </trkpt>
      <trkpt lat="46.19693" lon="1.27602">
        <ele>326</ele>
        <time>2023-05-02T10:34:48Z</time>
      </trkpt>
      <trkpt lat="46.19701" lon="1.27602">
        <ele>326.2</ele>
        <time>2023-05-02T10:34:50Z</time>
      </trkpt>
      <trkpt lat="46.19711" lon="1.27597">
        <ele>326.2</ele>
        <time>2023-05-02T10:34:52Z</time>
      </trkpt>
      <trkpt lat="46.19745" lon="1.27579">
        <ele>326.4</ele>
        <time>2023-05-02T10:34:59Z</time>
      </trkpt>
      <trkpt lat="46.19768" lon="1.27568">
        <ele>326.4</ele>
        <time>2023-05-02T10:35:03Z</time>
      </trkpt>
      <trkpt lat="46.1978" lon="1.27564">
        <ele>326.4</ele>
        <time>2023-05-02T10:35:05Z</time>
      </trkpt>
      <trkpt lat="46.19786" lon="1.27564">
        <ele>326.4</ele>
        <time>2023-05-02T10:35:06Z</time>
      </trkpt>
      <trkpt lat="46.19799" lon="1.27566">
        <ele>326.4</ele>
        <time>2023-05-02T10:35:08Z</time>
      </trkpt>
      <trkpt lat="46.19804" lon="1.27569">
        <ele>326.4</ele>
        <time>2023-05-02T10:35:09Z</time>
      </trkpt>
      <trkpt lat="46.1981" lon="1.27573">
        <ele>326.4</ele>
        <time>2023-05-02T10:35:10Z</time>
      </trkpt>
      <trkpt lat="46.19823" lon="1.27588">
        <ele>326.4</ele>
        <time>2023-05-02T10:35:13Z</time>
      </trkpt>
      <trkpt lat="46.19848" lon="1.27619">
        <ele>326.6</ele>
        <time>2023-05-02T10:35:19Z</time>
      </trkpt>
      <trkpt lat="46.19884" lon="1.27662">
        <ele>326.8</ele>
        <time>2023-05-02T10:35:27Z</time>
      </trkpt>
      <trkpt lat="46.19892" lon="1.27672">
        <ele>326.8</ele>
        <time>2023-05-02T10:35:29Z</time>
      </trkpt>
      <trkpt lat="46.19902" lon="1.27675">
        <ele>326.8</ele>
        <time>2023-05-02T10:35:31Z</time>
      </trkpt>
      <trkpt lat="46.19914" lon="1.2767">
        <ele>326.8</ele>
        <time>2023-05-02T10:35:33Z</time>
      </trkpt>
      <trkpt lat="46.19919" lon="1.27665">
        <ele>326.8</ele>
        <time>2023-05-02T10:35:34Z</time>
      </trkpt>
      <trkpt lat="46.19955" lon="1.27636">
        <ele>326.4</ele>
        <time>2023-05-02T10:35:40Z</time>
      </trkpt>
      <trkpt lat="46.20003" lon="1.27598">
        <ele>326</ele>
        <time>2023-05-02T10:35:47Z</time>
      </trkpt>
      <trkpt lat="46.20057" lon="1.27556">
        <ele>325.6</ele>
        <time>2023-05-02T10:35:55Z</time>
      </trkpt>
      <trkpt lat="46.20099" lon="1.27519">
        <ele>325.2</ele>
        <time>2023-05-02T10:36:02Z</time>
      </trkpt>
      <trkpt lat="46.20127" lon="1.2748">
        <ele>324.8</ele>
        <time>2023-05-02T10:36:08Z</time>
      </trkpt>
      <trkpt lat="46.20158" lon="1.2742">
        <ele>324.2</ele>
        <time>2023-05-02T10:36:16Z</time>
      </trkpt>
      <trkpt lat="46.20189" lon="1.27357">
        <ele>323</ele>
        <time>2023-05-02T10:36:23Z</time>
      </trkpt>
      <trkpt lat="46.20221" lon="1.27294">
        <ele>322</ele>
        <time>2023-05-02T10:36:30Z</time>
      </trkpt>
      <trkpt lat="46.2023" lon="1.27276">
        <ele>321.8</ele>
        <time>2023-05-02T10:36:32Z</time>
      </trkpt>
      <trkpt lat="46.20261" lon="1.27213">
        <ele>320.6</ele>
        <time>2023-05-02T10:36:39Z</time>
      </trkpt>
      <trkpt lat="46.203" lon="1.27146">
        <ele>319.2</ele>
        <time>2023-05-02T10:36:47Z</time>
      </trkpt>
      <trkpt lat="46.2034" lon="1.27086">
        <ele>318</ele>
        <time>2023-05-02T10:36:55Z</time>
      </trkpt>
      <trkpt lat="46.20345" lon="1.27079">
        <ele>317.8</ele>
        <time>2023-05-02T10:36:56Z</time>
      </trkpt>
      <trkpt lat="46.20356" lon="1.27069">
        <ele>317.6</ele>
        <time>2023-05-02T10:36:58Z</time>
      </trkpt>
      <trkpt lat="46.20362" lon="1.27065">
        <ele>317.4</ele>
        <time>2023-05-02T10:36:59Z</time>
      </trkpt>
      <trkpt lat="46.20399" lon="1.27049">
        <ele>316.6</ele>
        <time>2023-05-02T10:37:05Z</time>
      </trkpt>
      <trkpt lat="46.20449" lon="1.27033">
        <ele>315.4</ele>
        <time>2023-05-02T10:37:12Z</time>
      </trkpt>
      <trkpt lat="46.20464" lon="1.27035">
        <ele>315</ele>
        <time>2023-05-02T10:37:14Z</time>
      </trkpt>
      <trkpt lat="46.20479" lon="1.2704">
        <ele>314.6</ele>
        <time>2023-05-02T10:37:16Z</time>
      </trkpt>
      <trkpt lat="46.20532" lon="1.27061">
        <ele>313.4</ele>
        <time>2023-05-02T10:37:23Z</time>
      </trkpt>
      <trkpt lat="46.20554" lon="1.27069">
        <ele>312.8</ele>
        <time>2023-05-02T10:37:26Z</time>
      </trkpt>
      <trkpt lat="46.20603" lon="1.27087">
        <ele>311.6</ele>
        <time>2023-05-02T10:37:33Z</time>
      </trkpt>
      <trkpt lat="46.20653" lon="1.27105">
        <ele>310.4</ele>
        <time>2023-05-02T10:37:41Z</time>
      </trkpt>
      <trkpt lat="46.20708" lon="1.27125">
        <ele>309.2</ele>
        <time>2023-05-02T10:37:50Z</time>
      </trkpt>
      <trkpt lat="46.20752" lon="1.27142">
        <ele>308.4</ele>
        <time>2023-05-02T10:37:58Z</time>
      </trkpt>
      <trkpt lat="46.20773" lon="1.27151">
        <ele>308.2</ele>
        <time>2023-05-02T10:38:03Z</time>
      </trkpt>
      <trkpt lat="46.20779" lon="1.27159">
        <ele>308</ele>
        <time>2023-05-02T10:38:05Z</time>
      </trkpt>
      <trkpt lat="46.20784" lon="1.27169">
        <ele>308</ele>
        <time>2023-05-02T10:38:07Z</time>
      </trkpt>
      <trkpt lat="46.20801" lon="1.27195">
        <ele>307.6</ele>
        <time>2023-05-02T10:38:12Z</time>
      </trkpt>
      <trkpt lat="46.20809" lon="1.27204">
        <ele>307.6</ele>
        <time>2023-05-02T10:38:14Z</time>
      </trkpt>
      <trkpt lat="46.20823" lon="1.27212">
        <ele>307.4</ele>
        <time>2023-05-02T10:38:17Z</time>
      </trkpt>
      <trkpt lat="46.20858" lon="1.27231">
        <ele>307.2</ele>
        <time>2023-05-02T10:38:23Z</time>
      </trkpt>
      <trkpt lat="46.20895" lon="1.27247">
        <ele>306.8</ele>
        <time>2023-05-02T10:38:29Z</time>
      </trkpt>
      <trkpt lat="46.20901" lon="1.27248">
        <ele>306.6</ele>
        <time>2023-05-02T10:38:30Z</time>
      </trkpt>
      <trkpt lat="46.20935" lon="1.27254">
        <ele>306</ele>
        <time>2023-05-02T10:38:35Z</time>
      </trkpt>
      <trkpt lat="46.20947" lon="1.27256">
        <ele>305.8</ele>
        <time>2023-05-02T10:38:37Z</time>
      </trkpt>
      <trkpt lat="46.20982" lon="1.27254">
        <ele>305.4</ele>
        <time>2023-05-02T10:38:43Z</time>
      </trkpt>
      <trkpt lat="46.21004" lon="1.27247">
        <ele>305.2</ele>
        <time>2023-05-02T10:38:47Z</time>
      </trkpt>
      <trkpt lat="46.21009" lon="1.27245">
        <ele>305.2</ele>
        <time>2023-05-02T10:38:48Z</time>
      </trkpt>
      <trkpt lat="46.21014" lon="1.27243">
        <ele>305</ele>
        <time>2023-05-02T10:38:49Z</time>
      </trkpt>
      <trkpt lat="46.2103" lon="1.27239">
        <ele>304.8</ele>
        <time>2023-05-02T10:38:52Z</time>
      </trkpt>
      <trkpt lat="46.21036" lon="1.27237">
        <ele>304.8</ele>
        <time>2023-05-02T10:38:53Z</time>
      </trkpt>
      <trkpt lat="46.21049" lon="1.27236">
        <ele>304.4</ele>
        <time>2023-05-02T10:38:55Z</time>
      </trkpt>
      <trkpt lat="46.21056" lon="1.27237">
        <ele>304.4</ele>
        <time>2023-05-02T10:38:56Z</time>
      </trkpt>
      <trkpt lat="46.21071" lon="1.27243">
        <ele>304.2</ele>
        <time>2023-05-02T10:38:58Z</time>
      </trkpt>
      <trkpt lat="46.21077" lon="1.27248">
        <ele>304</ele>
        <time>2023-05-02T10:38:59Z</time>
      </trkpt>
      <trkpt lat="46.21083" lon="1.27255">
        <ele>304</ele>
        <time>2023-05-02T10:39:00Z</time>
      </trkpt>
      <trkpt lat="46.21093" lon="1.27272">
        <ele>303.8</ele>
        <time>2023-05-02T10:39:02Z</time>
      </trkpt>
      <trkpt lat="46.21102" lon="1.27291">
        <ele>303.4</ele>
        <time>2023-05-02T10:39:04Z</time>
      </trkpt>
      <trkpt lat="46.21116" lon="1.27306">
        <ele>303</ele>
        <time>2023-05-02T10:39:06Z</time>
      </trkpt>
      <trkpt lat="46.21133" lon="1.2731">
        <ele>302.6</ele>
        <time>2023-05-02T10:39:08Z</time>
      </trkpt>
      <trkpt lat="46.21161" lon="1.27301">
        <ele>301.8</ele>
        <time>2023-05-02T10:39:11Z</time>
      </trkpt>
      <trkpt lat="46.21199" lon="1.27285">
        <ele>301</ele>
        <time>2023-05-02T10:39:15Z</time>
      </trkpt>
      <trkpt lat="46.21249" lon="1.27274">
        <ele>299.8</ele>
        <time>2023-05-02T10:39:20Z</time>
      </trkpt>
      <trkpt lat="46.21294" lon="1.27273">
        <ele>298.2</ele>
        <time>2023-05-02T10:39:25Z</time>
      </trkpt>
      <trkpt lat="46.21302" lon="1.27275">
        <ele>298</ele>
        <time>2023-05-02T10:39:26Z</time>
      </trkpt>
      <trkpt lat="46.21314" lon="1.27282">
        <ele>297.4</ele>
        <time>2023-05-02T10:39:28Z</time>
      </trkpt>
      <trkpt lat="46.21348" lon="1.27312">
        <ele>295.2</ele>
        <time>2023-05-02T10:39:34Z</time>
      </trkpt>
      <trkpt lat="46.21366" lon="1.27324">
        <ele>293.6</ele>
        <time>2023-05-02T10:39:38Z</time>
      </trkpt>
      <trkpt lat="46.21376" lon="1.27318">
        <ele>292.8</ele>
        <time>2023-05-02T10:39:40Z</time>
      </trkpt>
      <trkpt lat="46.21381" lon="1.27312">
        <ele>292.2</ele>
        <time>2023-05-02T10:39:41Z</time>
      </trkpt>
      <trkpt lat="46.21398" lon="1.27289">
        <ele>291</ele>
        <time>2023-05-02T10:39:44Z</time>
      </trkpt>
      <trkpt lat="46.21405" lon="1.27282">
        <ele>290.6</ele>
        <time>2023-05-02T10:39:45Z</time>
      </trkpt>
      <trkpt lat="46.21457" lon="1.27235">
        <ele>288.2</ele>
        <time>2023-05-02T10:39:52Z</time>
      </trkpt>
      <trkpt lat="46.21464" lon="1.27228">
        <ele>287.8</ele>
        <time>2023-05-02T10:39:53Z</time>
      </trkpt>
      <trkpt lat="46.21508" lon="1.27179">
        <ele>285.4</ele>
        <time>2023-05-02T10:40:00Z</time>
      </trkpt>
      <trkpt lat="46.21514" lon="1.27172">
        <ele>285</ele>
        <time>2023-05-02T10:40:01Z</time>
      </trkpt>
      <trkpt lat="46.21559" lon="1.27131">
        <ele>282.8</ele>
        <time>2023-05-02T10:40:08Z</time>
      </trkpt>
      <trkpt lat="46.21602" lon="1.27104">
        <ele>280.6</ele>
        <time>2023-05-02T10:40:15Z</time>
      </trkpt>
      <trkpt lat="46.21618" lon="1.27091">
        <ele>279.8</ele>
        <time>2023-05-02T10:40:18Z</time>
      </trkpt>
      <trkpt lat="46.21627" lon="1.27078">
        <ele>279.2</ele>
        <time>2023-05-02T10:40:20Z</time>
      </trkpt>
      <trkpt lat="46.21636" lon="1.27042">
        <ele>278</ele>
        <time>2023-05-02T10:40:24Z</time>
      </trkpt>
      <trkpt lat="46.21641" lon="1.27024">
        <ele>277.4</ele>
        <time>2023-05-02T10:40:26Z</time>
      </trkpt>
      <trkpt lat="46.21649" lon="1.27007">
        <ele>276.8</ele>
        <time>2023-05-02T10:40:28Z</time>
      </trkpt>
      <trkpt lat="46.21679" lon="1.26967">
        <ele>275</ele>
        <time>2023-05-02T10:40:33Z</time>
      </trkpt>
      <trkpt lat="46.21723" lon="1.26917">
        <ele>272.2</ele>
        <time>2023-05-02T10:40:39Z</time>
      </trkpt>
      <trkpt lat="46.21768" lon="1.26864">
        <ele>269.2</ele>
        <time>2023-05-02T10:40:45Z</time>
      </trkpt>
      <trkpt lat="46.21776" lon="1.26855">
        <ele>268.6</ele>
        <time>2023-05-02T10:40:46Z</time>
      </trkpt>
      <trkpt lat="46.21814" lon="1.2682">
        <ele>266.8</ele>
        <time>2023-05-02T10:40:51Z</time>
      </trkpt>
      <trkpt lat="46.21824" lon="1.26811">
        <ele>266</ele>
        <time>2023-05-02T10:40:53Z</time>
      </trkpt>
      <trkpt lat="46.21827" lon="1.26804">
        <ele>265.6</ele>
        <time>2023-05-02T10:40:54Z</time>
      </trkpt>
      <trkpt lat="46.21827" lon="1.26798">
        <ele>265.4</ele>
        <time>2023-05-02T10:40:55Z</time>
      </trkpt>
      <trkpt lat="46.21824" lon="1.26786">
        <ele>264.6</ele>
        <time>2023-05-02T10:40:57Z</time>
      </trkpt>
      <trkpt lat="46.21813" lon="1.26754">
        <ele>262.4</ele>
        <time>2023-05-02T10:41:03Z</time>
      </trkpt>
      <trkpt lat="46.21808" lon="1.26721">
        <ele>260.8</ele>
        <time>2023-05-02T10:41:09Z</time>
      </trkpt>
      <trkpt lat="46.21812" lon="1.26702">
        <ele>259.6</ele>
        <time>2023-05-02T10:41:14Z</time>
      </trkpt>
      <trkpt lat="46.21814" lon="1.26697">
        <ele>258.6</ele>
        <time>2023-05-02T10:41:18Z</time>
      </trkpt>
      <trkpt lat="46.21815" lon="1.26694">
        <ele>248</ele>
        <time>2023-05-02T10:42:28Z</time>
      </trkpt>
      <trkpt lat="46.21818" lon="1.26686">
        <ele>247.8</ele>
        <time>2023-05-02T10:42:31Z</time>
      </trkpt>
      <trkpt lat="46.21829" lon="1.26669">
        <ele>247.2</ele>
        <time>2023-05-02T10:42:36Z</time>
      </trkpt>
      <trkpt lat="46.21831" lon="1.2665">
        <ele>246.6</ele>
        <time>2023-05-02T10:42:40Z</time>
      </trkpt>
      <trkpt lat="46.21829" lon="1.26637">
        <ele>245.8</ele>
        <time>2023-05-02T10:42:44Z</time>
      </trkpt>
      <trkpt lat="46.21827" lon="1.26616">
        <ele>244.8</ele>
        <time>2023-05-02T10:42:50Z</time>
      </trkpt>
      <trkpt lat="46.21822" lon="1.26593">
        <ele>243.8</ele>
        <time>2023-05-02T10:42:57Z</time>
      </trkpt>
      <trkpt lat="46.21812" lon="1.26573">
        <ele>243.2</ele>
        <time>2023-05-02T10:43:03Z</time>
      </trkpt>
      <trkpt lat="46.21805" lon="1.26553">
        <ele>244</ele>
        <time>2023-05-02T10:43:08Z</time>
      </trkpt>
      <trkpt lat="46.21801" lon="1.26529">
        <ele>246</ele>
        <time>2023-05-02T10:43:14Z</time>
      </trkpt>
      <trkpt lat="46.21804" lon="1.2651">
        <ele>244.8</ele>
        <time>2023-05-02T10:43:19Z</time>
      </trkpt>
      <trkpt lat="46.21811" lon="1.2649">
        <ele>245.4</ele>
        <time>2023-05-02T10:43:25Z</time>
      </trkpt>
      <trkpt lat="46.21819" lon="1.26459">
        <ele>246.2</ele>
        <time>2023-05-02T10:43:33Z</time>
      </trkpt>
      <trkpt lat="46.2182" lon="1.26431">
        <ele>246.8</ele>
        <time>2023-05-02T10:43:40Z</time>
      </trkpt>
      <trkpt lat="46.21819" lon="1.26412">
        <ele>247</ele>
        <time>2023-05-02T10:43:45Z</time>
      </trkpt>
      <trkpt lat="46.2182" lon="1.26391">
        <ele>247.2</ele>
        <time>2023-05-02T10:43:51Z</time>
      </trkpt>
      <trkpt lat="46.21819" lon="1.26378">
        <ele>247.4</ele>
        <time>2023-05-02T10:43:55Z</time>
      </trkpt>
      <trkpt lat="46.2182" lon="1.26358">
        <ele>248</ele>
        <time>2023-05-02T10:44:01Z</time>
      </trkpt>
      <trkpt lat="46.21822" lon="1.26338">
        <ele>248.8</ele>
        <time>2023-05-02T10:44:08Z</time>
      </trkpt>
      <trkpt lat="46.21823" lon="1.26319">
        <ele>249.2</ele>
        <time>2023-05-02T10:44:14Z</time>
      </trkpt>
      <trkpt lat="46.21824" lon="1.26299">
        <ele>250</ele>
        <time>2023-05-02T10:44:21Z</time>
      </trkpt>
      <trkpt lat="46.21826" lon="1.26282">
        <ele>251</ele>
        <time>2023-05-02T10:44:28Z</time>
      </trkpt>
      <trkpt lat="46.21831" lon="1.2626">
        <ele>252.2</ele>
        <time>2023-05-02T10:44:37Z</time>
      </trkpt>
      <trkpt lat="46.21838" lon="1.26244">
        <ele>253.4</ele>
        <time>2023-05-02T10:44:45Z</time>
      </trkpt>
      <trkpt lat="46.21841" lon="1.26237">
        <ele>254</ele>
        <time>2023-05-02T10:44:49Z</time>
      </trkpt>
      <trkpt lat="46.21844" lon="1.26234">
        <ele>254.6</ele>
        <time>2023-05-02T10:44:51Z</time>
      </trkpt>
      <trkpt lat="46.21849" lon="1.26228">
        <ele>255.4</ele>
        <time>2023-05-02T10:44:54Z</time>
      </trkpt>
      <trkpt lat="46.2185" lon="1.26222">
        <ele>255.8</ele>
        <time>2023-05-02T10:44:56Z</time>
      </trkpt>
      <trkpt lat="46.2186" lon="1.26205">
        <ele>258</ele>
        <time>2023-05-02T10:45:05Z</time>
      </trkpt>
      <trkpt lat="46.21865" lon="1.26197">
        <ele>259.2</ele>
        <time>2023-05-02T10:45:10Z</time>
      </trkpt>
      <trkpt lat="46.21873" lon="1.26186">
        <ele>260.8</ele>
        <time>2023-05-02T10:45:17Z</time>
      </trkpt>
      <trkpt lat="46.21881" lon="1.26178">
        <ele>261.8</ele>
        <time>2023-05-02T10:45:23Z</time>
      </trkpt>
      <trkpt lat="46.21889" lon="1.26169">
        <ele>263</ele>
        <time>2023-05-02T10:45:29Z</time>
      </trkpt>
      <trkpt lat="46.21903" lon="1.26158">
        <ele>264.8</ele>
        <time>2023-05-02T10:45:37Z</time>
      </trkpt>
      <trkpt lat="46.21912" lon="1.26152">
        <ele>266</ele>
        <time>2023-05-02T10:45:43Z</time>
      </trkpt>
      <trkpt lat="46.21912" lon="1.26151">
        <ele>266.6</ele>
        <time>2023-05-02T10:45:45Z</time>
      </trkpt>
      <trkpt lat="46.21915" lon="1.26149">
        <ele>272.4</ele>
        <time>2023-05-02T10:46:25Z</time>
      </trkpt>
      <trkpt lat="46.21917" lon="1.26147">
        <ele>272.4</ele>
        <time>2023-05-02T10:46:26Z</time>
      </trkpt>
      <trkpt lat="46.2193" lon="1.26135">
        <ele>273.2</ele>
        <time>2023-05-02T10:46:33Z</time>
      </trkpt>
      <trkpt lat="46.21944" lon="1.26122">
        <ele>274.4</ele>
        <time>2023-05-02T10:46:40Z</time>
      </trkpt>
      <trkpt lat="46.21955" lon="1.26114">
        <ele>275.2</ele>
        <time>2023-05-02T10:46:45Z</time>
      </trkpt>
      <trkpt lat="46.21968" lon="1.261">
        <ele>276.4</ele>
        <time>2023-05-02T10:46:53Z</time>
      </trkpt>
      <trkpt lat="46.21982" lon="1.26088">
        <ele>277.6</ele>
        <time>2023-05-02T10:47:01Z</time>
      </trkpt>
      <trkpt lat="46.21994" lon="1.26078">
        <ele>278.8</ele>
        <time>2023-05-02T10:47:08Z</time>
      </trkpt>
      <trkpt lat="46.22006" lon="1.26067">
        <ele>279.8</ele>
        <time>2023-05-02T10:47:15Z</time>
      </trkpt>
      <trkpt lat="46.2202" lon="1.26055">
        <ele>281.2</ele>
        <time>2023-05-02T10:47:23Z</time>
      </trkpt>
      <trkpt lat="46.22033" lon="1.26043">
        <ele>282.6</ele>
        <time>2023-05-02T10:47:30Z</time>
      </trkpt>
      <trkpt lat="46.22046" lon="1.26031">
        <ele>283.6</ele>
        <time>2023-05-02T10:47:37Z</time>
      </trkpt>
      <trkpt lat="46.22061" lon="1.26017">
        <ele>285</ele>
        <time>2023-05-02T10:47:44Z</time>
      </trkpt>
      <trkpt lat="46.2208" lon="1.26001">
        <ele>286.2</ele>
        <time>2023-05-02T10:47:52Z</time>
      </trkpt>
      <trkpt lat="46.22104" lon="1.2599">
        <ele>287.6</ele>
        <time>2023-05-02T10:48:01Z</time>
      </trkpt>
      <trkpt lat="46.22127" lon="1.25989">
        <ele>288.8</ele>
        <time>2023-05-02T10:48:09Z</time>
      </trkpt>
      <trkpt lat="46.2214" lon="1.25993">
        <ele>289.6</ele>
        <time>2023-05-02T10:48:14Z</time>
      </trkpt>
      <trkpt lat="46.22153" lon="1.2601">
        <ele>290.6</ele>
        <time>2023-05-02T10:48:20Z</time>
      </trkpt>
      <trkpt lat="46.22175" lon="1.26031">
        <ele>292</ele>
        <time>2023-05-02T10:48:29Z</time>
      </trkpt>
      <trkpt lat="46.22193" lon="1.2605">
        <ele>293.2</ele>
        <time>2023-05-02T10:48:37Z</time>
      </trkpt>
      <trkpt lat="46.22215" lon="1.26072">
        <ele>294.2</ele>
        <time>2023-05-02T10:48:45Z</time>
      </trkpt>
      <trkpt lat="46.22232" lon="1.26091">
        <ele>295.4</ele>
        <time>2023-05-02T10:48:52Z</time>
      </trkpt>
      <trkpt lat="46.2225" lon="1.26109">
        <ele>296.6</ele>
        <time>2023-05-02T10:48:58Z</time>
      </trkpt>
      <trkpt lat="46.22279" lon="1.26138">
        <ele>298</ele>
        <time>2023-05-02T10:49:08Z</time>
      </trkpt>
      <trkpt lat="46.22298" lon="1.26161">
        <ele>299</ele>
        <time>2023-05-02T10:49:16Z</time>
      </trkpt>
      <trkpt lat="46.22313" lon="1.26183">
        <ele>300.2</ele>
        <time>2023-05-02T10:49:23Z</time>
      </trkpt>
      <trkpt lat="46.22323" lon="1.26213">
        <ele>301.2</ele>
        <time>2023-05-02T10:49:30Z</time>
      </trkpt>
      <trkpt lat="46.22325" lon="1.26249">
        <ele>302.2</ele>
        <time>2023-05-02T10:49:37Z</time>
      </trkpt>
      <trkpt lat="46.22323" lon="1.26296">
        <ele>303.4</ele>
        <time>2023-05-02T10:49:46Z</time>
      </trkpt>
      <trkpt lat="46.22323" lon="1.26347">
        <ele>304.4</ele>
        <time>2023-05-02T10:49:55Z</time>
      </trkpt>
      <trkpt lat="46.22324" lon="1.26406">
        <ele>305.2</ele>
        <time>2023-05-02T10:50:05Z</time>
      </trkpt>
      <trkpt lat="46.22327" lon="1.26417">
        <ele>305.4</ele>
        <time>2023-05-02T10:50:07Z</time>
      </trkpt>
      <trkpt lat="46.22331" lon="1.2642">
        <ele>305.4</ele>
        <time>2023-05-02T10:50:08Z</time>
      </trkpt>
      <trkpt lat="46.22335" lon="1.26422">
        <ele>305.4</ele>
        <time>2023-05-02T10:50:09Z</time>
      </trkpt>
      <trkpt lat="46.22344" lon="1.26422">
        <ele>305.6</ele>
        <time>2023-05-02T10:50:11Z</time>
      </trkpt>
      <trkpt lat="46.22379" lon="1.26421">
        <ele>306.2</ele>
        <time>2023-05-02T10:50:19Z</time>
      </trkpt>
      <trkpt lat="46.22419" lon="1.2642">
        <ele>307</ele>
        <time>2023-05-02T10:50:28Z</time>
      </trkpt>
      <trkpt lat="46.22459" lon="1.2642">
        <ele>307.6</ele>
        <time>2023-05-02T10:50:37Z</time>
      </trkpt>
      <trkpt lat="46.22499" lon="1.26417">
        <ele>308.2</ele>
        <time>2023-05-02T10:50:45Z</time>
      </trkpt>
      <trkpt lat="46.22547" lon="1.2641">
        <ele>308.6</ele>
        <time>2023-05-02T10:50:53Z</time>
      </trkpt>
      <trkpt lat="46.22601" lon="1.26399">
        <ele>308.6</ele>
        <time>2023-05-02T10:51:02Z</time>
      </trkpt>
      <trkpt lat="46.22607" lon="1.26397">
        <ele>308.8</ele>
        <time>2023-05-02T10:51:03Z</time>
      </trkpt>
      <trkpt lat="46.22651" lon="1.26382">
        <ele>308.8</ele>
        <time>2023-05-02T10:51:11Z</time>
      </trkpt>
      <trkpt lat="46.22691" lon="1.26366">
        <ele>308.6</ele>
        <time>2023-05-02T10:51:18Z</time>
      </trkpt>
      <trkpt lat="46.22734" lon="1.26347">
        <ele>308.8</ele>
        <time>2023-05-02T10:51:26Z</time>
      </trkpt>
      <trkpt lat="46.22777" lon="1.26329">
        <ele>309</ele>
        <time>2023-05-02T10:51:34Z</time>
      </trkpt>
      <trkpt lat="46.22826" lon="1.26307">
        <ele>309.2</ele>
        <time>2023-05-02T10:51:43Z</time>
      </trkpt>
      <trkpt lat="46.22869" lon="1.26288">
        <ele>309.4</ele>
        <time>2023-05-02T10:51:51Z</time>
      </trkpt>
      <trkpt lat="46.22878" lon="1.26287">
        <ele>309.4</ele>
        <time>2023-05-02T10:51:54Z</time>
      </trkpt>
      <trkpt lat="46.22878" lon="1.26295">
        <ele>309.4</ele>
        <time>2023-05-02T10:51:57Z</time>
      </trkpt>
      <trkpt lat="46.22879" lon="1.26296">
        <ele>309.4</ele>
        <time>2023-05-02T10:51:59Z</time>
      </trkpt>
      <trkpt lat="46.2288" lon="1.26298">
        <ele>310.2</ele>
        <time>2023-05-02T10:53:01Z</time>
      </trkpt>
      <trkpt lat="46.22881" lon="1.26301">
        <ele>310.2</ele>
        <time>2023-05-02T10:53:02Z</time>
      </trkpt>
      <trkpt lat="46.22892" lon="1.26323">
        <ele>309.8</ele>
        <time>2023-05-02T10:53:08Z</time>
      </trkpt>
      <trkpt lat="46.22903" lon="1.26343">
        <ele>309.2</ele>
        <time>2023-05-02T10:53:14Z</time>
      </trkpt>
      <trkpt lat="46.22912" lon="1.26361">
        <ele>308.8</ele>
        <time>2023-05-02T10:53:18Z</time>
      </trkpt>
      <trkpt lat="46.22915" lon="1.26365">
        <ele>308.6</ele>
        <time>2023-05-02T10:53:19Z</time>
      </trkpt>
      <trkpt lat="46.2293" lon="1.26389">
        <ele>308.4</ele>
        <time>2023-05-02T10:53:24Z</time>
      </trkpt>
      <trkpt lat="46.22936" lon="1.26399">
        <ele>308.2</ele>
        <time>2023-05-02T10:53:26Z</time>
      </trkpt>
      <trkpt lat="46.22956" lon="1.26424">
        <ele>307.6</ele>
        <time>2023-05-02T10:53:32Z</time>
      </trkpt>
      <trkpt lat="46.22965" lon="1.26437">
        <ele>307.2</ele>
        <time>2023-05-02T10:53:36Z</time>
      </trkpt>
      <trkpt lat="46.22979" lon="1.26456">
        <ele>306.2</ele>
        <time>2023-05-02T10:53:42Z</time>
      </trkpt>
      <trkpt lat="46.22995" lon="1.26467">
        <ele>305.4</ele>
        <time>2023-05-02T10:53:46Z</time>
      </trkpt>
      <trkpt lat="46.23007" lon="1.26469">
        <ele>305</ele>
        <time>2023-05-02T10:53:48Z</time>
      </trkpt>
      <trkpt lat="46.23019" lon="1.26468">
        <ele>304.4</ele>
        <time>2023-05-02T10:53:50Z</time>
      </trkpt>
      <trkpt lat="46.23048" lon="1.26462">
        <ele>303.4</ele>
        <time>2023-05-02T10:53:55Z</time>
      </trkpt>
      <trkpt lat="46.23054" lon="1.26464">
        <ele>303.2</ele>
        <time>2023-05-02T10:53:56Z</time>
      </trkpt>
      <trkpt lat="46.2306" lon="1.26466">
        <ele>303</ele>
        <time>2023-05-02T10:53:57Z</time>
      </trkpt>
      <trkpt lat="46.23075" lon="1.26479">
        <ele>302.4</ele>
        <time>2023-05-02T10:54:00Z</time>
      </trkpt>
      <trkpt lat="46.231" lon="1.2651">
        <ele>301.8</ele>
        <time>2023-05-02T10:54:06Z</time>
      </trkpt>
      <trkpt lat="46.2312" lon="1.26546">
        <ele>301.4</ele>
        <time>2023-05-02T10:54:12Z</time>
      </trkpt>
      <trkpt lat="46.23122" lon="1.26552">
        <ele>301.2</ele>
        <time>2023-05-02T10:54:13Z</time>
      </trkpt>
      <trkpt lat="46.23129" lon="1.26581">
        <ele>300.8</ele>
        <time>2023-05-02T10:54:18Z</time>
      </trkpt>
      <trkpt lat="46.23131" lon="1.26592">
        <ele>300.6</ele>
        <time>2023-05-02T10:54:20Z</time>
      </trkpt>
      <trkpt lat="46.23136" lon="1.2661">
        <ele>300.2</ele>
        <time>2023-05-02T10:54:23Z</time>
      </trkpt>
      <trkpt lat="46.23137" lon="1.26615">
        <ele>300.2</ele>
        <time>2023-05-02T10:54:24Z</time>
      </trkpt>
      <trkpt lat="46.23143" lon="1.2665">
        <ele>300</ele>
        <time>2023-05-02T10:54:30Z</time>
      </trkpt>
      <trkpt lat="46.23148" lon="1.26668">
        <ele>299.6</ele>
        <time>2023-05-02T10:54:34Z</time>
      </trkpt>
      <trkpt lat="46.23151" lon="1.2667">
        <ele>299.6</ele>
        <time>2023-05-02T10:54:35Z</time>
      </trkpt>
      <trkpt lat="46.23154" lon="1.26669">
        <ele>299.4</ele>
        <time>2023-05-02T10:54:36Z</time>
      </trkpt>
      <trkpt lat="46.23158" lon="1.26664">
        <ele>299.2</ele>
        <time>2023-05-02T10:54:38Z</time>
      </trkpt>
      <trkpt lat="46.23176" lon="1.26644">
        <ele>298.8</ele>
        <time>2023-05-02T10:54:45Z</time>
      </trkpt>
      <trkpt lat="46.23202" lon="1.2662">
        <ele>298.8</ele>
        <time>2023-05-02T10:54:55Z</time>
      </trkpt>
      <trkpt lat="46.23214" lon="1.26594">
        <ele>298.8</ele>
        <time>2023-05-02T10:55:02Z</time>
      </trkpt>
      <trkpt lat="46.23219" lon="1.2657">
        <ele>298.8</ele>
        <time>2023-05-02T10:55:08Z</time>
      </trkpt>
      <trkpt lat="46.23221" lon="1.26561">
        <ele>299</ele>
        <time>2023-05-02T10:55:13Z</time>
      </trkpt>
      <trkpt lat="46.23221" lon="1.26561">
        <ele>299</ele>
        <time>2023-05-02T10:55:14Z</time>
      </trkpt>
      <trkpt lat="46.2322" lon="1.26564">
        <ele>299.2</ele>
        <time>2023-05-02T10:56:03Z</time>
      </trkpt>
      <trkpt lat="46.23218" lon="1.26573">
        <ele>299.2</ele>
        <time>2023-05-02T10:56:06Z</time>
      </trkpt>
      <trkpt lat="46.2321" lon="1.26601">
        <ele>298.8</ele>
        <time>2023-05-02T10:56:13Z</time>
      </trkpt>
      <trkpt lat="46.23204" lon="1.26615">
        <ele>298.6</ele>
        <time>2023-05-02T10:56:16Z</time>
      </trkpt>
      <trkpt lat="46.23198" lon="1.26624">
        <ele>298.6</ele>
        <time>2023-05-02T10:56:18Z</time>
      </trkpt>
      <trkpt lat="46.23173" lon="1.26646">
        <ele>298.4</ele>
        <time>2023-05-02T10:56:24Z</time>
      </trkpt>
      <trkpt lat="46.23154" lon="1.26669">
        <ele>297.8</ele>
        <time>2023-05-02T10:56:30Z</time>
      </trkpt>
      <trkpt lat="46.23151" lon="1.26674">
        <ele>297.6</ele>
        <time>2023-05-02T10:56:32Z</time>
      </trkpt>
      <trkpt lat="46.23151" lon="1.26678">
        <ele>297.6</ele>
        <time>2023-05-02T10:56:33Z</time>
      </trkpt>
      <trkpt lat="46.23155" lon="1.26687">
        <ele>297.4</ele>
        <time>2023-05-02T10:56:35Z</time>
      </trkpt>
      <trkpt lat="46.23158" lon="1.26692">
        <ele>297.4</ele>
        <time>2023-05-02T10:56:36Z</time>
      </trkpt>
      <trkpt lat="46.23177" lon="1.26718">
        <ele>296.8</ele>
        <time>2023-05-02T10:56:40Z</time>
      </trkpt>
      <trkpt lat="46.232" lon="1.26752">
        <ele>296.2</ele>
        <time>2023-05-02T10:56:44Z</time>
      </trkpt>
      <trkpt lat="46.23204" lon="1.26762">
        <ele>296</ele>
        <time>2023-05-02T10:56:45Z</time>
      </trkpt>
      <trkpt lat="46.23207" lon="1.26773">
        <ele>295.8</ele>
        <time>2023-05-02T10:56:46Z</time>
      </trkpt>
      <trkpt lat="46.23209" lon="1.26794">
        <ele>295.4</ele>
        <time>2023-05-02T10:56:48Z</time>
      </trkpt>
      <trkpt lat="46.23209" lon="1.26805">
        <ele>295.4</ele>
        <time>2023-05-02T10:56:49Z</time>
      </trkpt>
      <trkpt lat="46.23206" lon="1.26825">
        <ele>295.2</ele>
        <time>2023-05-02T10:56:51Z</time>
      </trkpt>
      <trkpt lat="46.23204" lon="1.26835">
        <ele>295</ele>
        <time>2023-05-02T10:56:52Z</time>
      </trkpt>
      <trkpt lat="46.23195" lon="1.2688">
        <ele>294.4</ele>
        <time>2023-05-02T10:56:57Z</time>
      </trkpt>
      <trkpt lat="46.23195" lon="1.26917">
        <ele>294</ele>
        <time>2023-05-02T10:57:01Z</time>
      </trkpt>
      <trkpt lat="46.23196" lon="1.26926">
        <ele>293.8</ele>
        <time>2023-05-02T10:57:02Z</time>
      </trkpt>
      <trkpt lat="46.23199" lon="1.26944">
        <ele>293.6</ele>
        <time>2023-05-02T10:57:04Z</time>
      </trkpt>
      <trkpt lat="46.23205" lon="1.2696">
        <ele>293.4</ele>
        <time>2023-05-02T10:57:06Z</time>
      </trkpt>
      <trkpt lat="46.23219" lon="1.26984">
        <ele>293.2</ele>
        <time>2023-05-02T10:57:10Z</time>
      </trkpt>
      <trkpt lat="46.23222" lon="1.26988">
        <ele>293.2</ele>
        <time>2023-05-02T10:57:11Z</time>
      </trkpt>
      <trkpt lat="46.23242" lon="1.27013">
        <ele>293</ele>
        <time>2023-05-02T10:57:17Z</time>
      </trkpt>
      <trkpt lat="46.23261" lon="1.27042">
        <ele>293</ele>
        <time>2023-05-02T10:57:25Z</time>
      </trkpt>
      <trkpt lat="46.23277" lon="1.27066">
        <ele>293.6</ele>
        <time>2023-05-02T10:57:32Z</time>
      </trkpt>
      <trkpt lat="46.23285" lon="1.27081">
        <ele>293.6</ele>
        <time>2023-05-02T10:57:37Z</time>
      </trkpt>
      <trkpt lat="46.23299" lon="1.27106">
        <ele>294</ele>
        <time>2023-05-02T10:57:44Z</time>
      </trkpt>
      <trkpt lat="46.23311" lon="1.27133">
        <ele>294.6</ele>
        <time>2023-05-02T10:57:52Z</time>
      </trkpt>
      <trkpt lat="46.23323" lon="1.27155">
        <ele>294.8</ele>
        <time>2023-05-02T10:57:59Z</time>
      </trkpt>
      <trkpt lat="46.23338" lon="1.27175">
        <ele>295</ele>
        <time>2023-05-02T10:58:06Z</time>
      </trkpt>
      <trkpt lat="46.23351" lon="1.27188">
        <ele>295.4</ele>
        <time>2023-05-02T10:58:12Z</time>
      </trkpt>
      <trkpt lat="46.23365" lon="1.27202">
        <ele>296</ele>
        <time>2023-05-02T10:58:18Z</time>
      </trkpt>
      <trkpt lat="46.23374" lon="1.27209">
        <ele>296.2</ele>
        <time>2023-05-02T10:58:22Z</time>
      </trkpt>
      <trkpt lat="46.23379" lon="1.27214">
        <ele>296.4</ele>
        <time>2023-05-02T10:58:24Z</time>
      </trkpt>
      <trkpt lat="46.23384" lon="1.27222">
        <ele>296.4</ele>
        <time>2023-05-02T10:58:26Z</time>
      </trkpt>
      <trkpt lat="46.23396" lon="1.27238">
        <ele>296.8</ele>
        <time>2023-05-02T10:58:30Z</time>
      </trkpt>
      <trkpt lat="46.234" lon="1.27241">
        <ele>296.8</ele>
        <time>2023-05-02T10:58:31Z</time>
      </trkpt>
      <trkpt lat="46.23404" lon="1.27242">
        <ele>297</ele>
        <time>2023-05-02T10:58:32Z</time>
      </trkpt>
      <trkpt lat="46.2341" lon="1.2724">
        <ele>297</ele>
        <time>2023-05-02T10:58:34Z</time>
      </trkpt>
      <trkpt lat="46.23417" lon="1.27236">
        <ele>297.4</ele>
        <time>2023-05-02T10:58:39Z</time>
      </trkpt>
      <trkpt lat="46.23425" lon="1.27235">
        <ele>297.8</ele>
        <time>2023-05-02T10:58:45Z</time>
      </trkpt>
      <trkpt lat="46.23428" lon="1.27233">
        <ele>300.6</ele>
        <time>2023-05-02T10:59:34Z</time>
      </trkpt>
      <trkpt lat="46.23432" lon="1.27233">
        <ele>300.8</ele>
        <time>2023-05-02T10:59:36Z</time>
      </trkpt>
      <trkpt lat="46.23444" lon="1.27239">
        <ele>301.2</ele>
        <time>2023-05-02T10:59:41Z</time>
      </trkpt>
      <trkpt lat="46.23467" lon="1.27254">
        <ele>302.4</ele>
        <time>2023-05-02T10:59:50Z</time>
      </trkpt>
      <trkpt lat="46.2349" lon="1.27268">
        <ele>303</ele>
        <time>2023-05-02T10:59:58Z</time>
      </trkpt>
      <trkpt lat="46.23519" lon="1.27279">
        <ele>303.4</ele>
        <time>2023-05-02T11:00:06Z</time>
      </trkpt>
      <trkpt lat="46.23543" lon="1.27281">
        <ele>303.8</ele>
        <time>2023-05-02T11:00:13Z</time>
      </trkpt>
      <trkpt lat="46.23564" lon="1.2728">
        <ele>304.6</ele>
        <time>2023-05-02T11:00:20Z</time>
      </trkpt>
      <trkpt lat="46.23589" lon="1.27279">
        <ele>305.4</ele>
        <time>2023-05-02T11:00:27Z</time>
      </trkpt>
      <trkpt lat="46.23612" lon="1.27272">
        <ele>306</ele>
        <time>2023-05-02T11:00:34Z</time>
      </trkpt>
      <trkpt lat="46.23634" lon="1.27263">
        <ele>307.2</ele>
        <time>2023-05-02T11:00:42Z</time>
      </trkpt>
      <trkpt lat="46.23654" lon="1.27258">
        <ele>308.2</ele>
        <time>2023-05-02T11:00:50Z</time>
      </trkpt>
      <trkpt lat="46.23667" lon="1.27257">
        <ele>309.2</ele>
        <time>2023-05-02T11:00:56Z</time>
      </trkpt>
      <trkpt lat="46.23683" lon="1.27256">
        <ele>310.2</ele>
        <time>2023-05-02T11:01:03Z</time>
      </trkpt>
      <trkpt lat="46.23703" lon="1.27259">
        <ele>311.2</ele>
        <time>2023-05-02T11:01:11Z</time>
      </trkpt>
      <trkpt lat="46.23727" lon="1.27267">
        <ele>312.4</ele>
        <time>2023-05-02T11:01:20Z</time>
      </trkpt>
      <trkpt lat="46.2375" lon="1.27271">
        <ele>313.8</ele>
        <time>2023-05-02T11:01:29Z</time>
      </trkpt>
      <trkpt lat="46.23766" lon="1.27258">
        <ele>314.6</ele>
        <time>2023-05-02T11:01:36Z</time>
      </trkpt>
      <trkpt lat="46.23784" lon="1.27241">
        <ele>315.6</ele>
        <time>2023-05-02T11:01:44Z</time>
      </trkpt>
      <trkpt lat="46.23807" lon="1.27218">
        <ele>317</ele>
        <time>2023-05-02T11:01:54Z</time>
      </trkpt>
      <trkpt lat="46.23826" lon="1.27198">
        <ele>318.2</ele>
        <time>2023-05-02T11:02:03Z</time>
      </trkpt>
      <trkpt lat="46.23837" lon="1.27188">
        <ele>319</ele>
        <time>2023-05-02T11:02:09Z</time>
      </trkpt>
      <trkpt lat="46.23847" lon="1.27178">
        <ele>320</ele>
        <time>2023-05-02T11:02:16Z</time>
      </trkpt>
      <trkpt lat="46.2386" lon="1.27166">
        <ele>321</ele>
        <time>2023-05-02T11:02:24Z</time>
      </trkpt>
      <trkpt lat="46.23871" lon="1.27154">
        <ele>322.2</ele>
        <time>2023-05-02T11:02:31Z</time>
      </trkpt>
      <trkpt lat="46.23885" lon="1.27141">
        <ele>323.2</ele>
        <time>2023-05-02T11:02:38Z</time>
      </trkpt>
      <trkpt lat="46.23904" lon="1.27121">
        <ele>324.6</ele>
        <time>2023-05-02T11:02:47Z</time>
      </trkpt>
      <trkpt lat="46.23924" lon="1.27102">
        <ele>326</ele>
        <time>2023-05-02T11:02:55Z</time>
      </trkpt>
      <trkpt lat="46.23944" lon="1.27082">
        <ele>327.2</ele>
        <time>2023-05-02T11:03:03Z</time>
      </trkpt>
      <trkpt lat="46.23961" lon="1.27066">
        <ele>328.2</ele>
        <time>2023-05-02T11:03:10Z</time>
      </trkpt>
      <trkpt lat="46.23983" lon="1.27043">
        <ele>329.4</ele>
        <time>2023-05-02T11:03:18Z</time>
      </trkpt>
      <trkpt lat="46.24" lon="1.27026">
        <ele>330.2</ele>
        <time>2023-05-02T11:03:24Z</time>
      </trkpt>
      <trkpt lat="46.24014" lon="1.27009">
        <ele>331</ele>
        <time>2023-05-02T11:03:30Z</time>
      </trkpt>
      <trkpt lat="46.24014" lon="1.27002">
        <ele>331.2</ele>
        <time>2023-05-02T11:03:32Z</time>
      </trkpt>
      <trkpt lat="46.24011" lon="1.26994">
        <ele>331.4</ele>
        <time>2023-05-02T11:03:34Z</time>
      </trkpt>
      <trkpt lat="46.24001" lon="1.26966">
        <ele>332</ele>
        <time>2023-05-02T11:03:40Z</time>
      </trkpt>
      <trkpt lat="46.23994" lon="1.26935">
        <ele>332.8</ele>
        <time>2023-05-02T11:03:46Z</time>
      </trkpt>
      <trkpt lat="46.23989" lon="1.269">
        <ele>333.4</ele>
        <time>2023-05-02T11:03:52Z</time>
      </trkpt>
      <trkpt lat="46.23982" lon="1.26848">
        <ele>334.4</ele>
        <time>2023-05-02T11:04:01Z</time>
      </trkpt>
      <trkpt lat="46.23988" lon="1.26841">
        <ele>334.6</ele>
        <time>2023-05-02T11:04:03Z</time>
      </trkpt>
      <trkpt lat="46.23992" lon="1.26842">
        <ele>334.8</ele>
        <time>2023-05-02T11:04:04Z</time>
      </trkpt>
      <trkpt lat="46.24007" lon="1.26853">
        <ele>335.2</ele>
        <time>2023-05-02T11:04:08Z</time>
      </trkpt>
      <trkpt lat="46.24043" lon="1.26886">
        <ele>336.4</ele>
        <time>2023-05-02T11:04:18Z</time>
      </trkpt>
      <trkpt lat="46.24073" lon="1.26913">
        <ele>337.4</ele>
        <time>2023-05-02T11:04:26Z</time>
      </trkpt>
      <trkpt lat="46.24103" lon="1.26942">
        <ele>338.2</ele>
        <time>2023-05-02T11:04:34Z</time>
      </trkpt>
      <trkpt lat="46.24146" lon="1.26983">
        <ele>339.2</ele>
        <time>2023-05-02T11:04:45Z</time>
      </trkpt>
      <trkpt lat="46.24158" lon="1.26999">
        <ele>339.4</ele>
        <time>2023-05-02T11:04:48Z</time>
      </trkpt>
      <trkpt lat="46.24168" lon="1.27018">
        <ele>339.6</ele>
        <time>2023-05-02T11:04:51Z</time>
      </trkpt>
      <trkpt lat="46.24184" lon="1.27055">
        <ele>340</ele>
        <time>2023-05-02T11:04:57Z</time>
      </trkpt>
      <trkpt lat="46.24207" lon="1.27103">
        <ele>340.4</ele>
        <time>2023-05-02T11:05:04Z</time>
      </trkpt>
      <trkpt lat="46.24238" lon="1.27166">
        <ele>340.8</ele>
        <time>2023-05-02T11:05:13Z</time>
      </trkpt>
      <trkpt lat="46.24271" lon="1.27215">
        <ele>340.8</ele>
        <time>2023-05-02T11:05:21Z</time>
      </trkpt>
      <trkpt lat="46.243" lon="1.27252">
        <ele>340.8</ele>
        <time>2023-05-02T11:05:27Z</time>
      </trkpt>
      <trkpt lat="46.2433" lon="1.27294">
        <ele>340.8</ele>
        <time>2023-05-02T11:05:34Z</time>
      </trkpt>
      <trkpt lat="46.24347" lon="1.27315">
        <ele>340.8</ele>
        <time>2023-05-02T11:05:38Z</time>
      </trkpt>
      <trkpt lat="46.24361" lon="1.27327">
        <ele>340.8</ele>
        <time>2023-05-02T11:05:41Z</time>
      </trkpt>
      <trkpt lat="46.24385" lon="1.27331">
        <ele>340.8</ele>
        <time>2023-05-02T11:05:45Z</time>
      </trkpt>
      <trkpt lat="46.2442" lon="1.27349">
        <ele>340.4</ele>
        <time>2023-05-02T11:05:51Z</time>
      </trkpt>
      <trkpt lat="46.2446" lon="1.27377">
        <ele>340.2</ele>
        <time>2023-05-02T11:05:58Z</time>
      </trkpt>
      <trkpt lat="46.24493" lon="1.27413">
        <ele>340</ele>
        <time>2023-05-02T11:06:05Z</time>
      </trkpt>
      <trkpt lat="46.24525" lon="1.27447">
        <ele>339.6</ele>
        <time>2023-05-02T11:06:12Z</time>
      </trkpt>
      <trkpt lat="46.24552" lon="1.27482">
        <ele>339.2</ele>
        <time>2023-05-02T11:06:18Z</time>
      </trkpt>
      <trkpt lat="46.24569" lon="1.2752">
        <ele>339</ele>
        <time>2023-05-02T11:06:23Z</time>
      </trkpt>
      <trkpt lat="46.24577" lon="1.27554">
        <ele>338.6</ele>
        <time>2023-05-02T11:06:28Z</time>
      </trkpt>
      <trkpt lat="46.24585" lon="1.27565">
        <ele>338.6</ele>
        <time>2023-05-02T11:06:31Z</time>
      </trkpt>
      <trkpt lat="46.24589" lon="1.27566">
        <ele>338.4</ele>
        <time>2023-05-02T11:06:32Z</time>
      </trkpt>
      <trkpt lat="46.24597" lon="1.27563">
        <ele>338.2</ele>
        <time>2023-05-02T11:06:34Z</time>
      </trkpt>
      <trkpt lat="46.24624" lon="1.27537">
        <ele>337.8</ele>
        <time>2023-05-02T11:06:40Z</time>
      </trkpt>
      <trkpt lat="46.24643" lon="1.27501">
        <ele>337.2</ele>
        <time>2023-05-02T11:06:45Z</time>
      </trkpt>
      <trkpt lat="46.24668" lon="1.2744">
        <ele>336.4</ele>
        <time>2023-05-02T11:06:52Z</time>
      </trkpt>
      <trkpt lat="46.24678" lon="1.27425">
        <ele>336.2</ele>
        <time>2023-05-02T11:06:54Z</time>
      </trkpt>
      <trkpt lat="46.2469" lon="1.27414">
        <ele>336</ele>
        <time>2023-05-02T11:06:56Z</time>
      </trkpt>
      <trkpt lat="46.24696" lon="1.27409">
        <ele>336</ele>
        <time>2023-05-02T11:06:57Z</time>
      </trkpt>
      <trkpt lat="46.24716" lon="1.27402">
        <ele>335.8</ele>
        <time>2023-05-02T11:07:00Z</time>
      </trkpt>
      <trkpt lat="46.24772" lon="1.27391">
        <ele>335.4</ele>
        <time>2023-05-02T11:07:08Z</time>
      </trkpt>
      <trkpt lat="46.24832" lon="1.27378">
        <ele>334.8</ele>
        <time>2023-05-02T11:07:16Z</time>
      </trkpt>
      <trkpt lat="46.24892" lon="1.27367">
        <ele>334</ele>
        <time>2023-05-02T11:07:24Z</time>
      </trkpt>
      <trkpt lat="46.24899" lon="1.27366">
        <ele>334</ele>
        <time>2023-05-02T11:07:25Z</time>
      </trkpt>
      <trkpt lat="46.24958" lon="1.27358">
        <ele>333.4</ele>
        <time>2023-05-02T11:07:33Z</time>
      </trkpt>
      <trkpt lat="46.24966" lon="1.27359">
        <ele>333.2</ele>
        <time>2023-05-02T11:07:34Z</time>
      </trkpt>
      <trkpt lat="46.25016" lon="1.27363">
        <ele>332.6</ele>
        <time>2023-05-02T11:07:41Z</time>
      </trkpt>
      <trkpt lat="46.25062" lon="1.2737">
        <ele>332</ele>
        <time>2023-05-02T11:07:48Z</time>
      </trkpt>
      <trkpt lat="46.25118" lon="1.27377">
        <ele>331</ele>
        <time>2023-05-02T11:07:56Z</time>
      </trkpt>
      <trkpt lat="46.25125" lon="1.27377">
        <ele>331</ele>
        <time>2023-05-02T11:07:57Z</time>
      </trkpt>
      <trkpt lat="46.25181" lon="1.27382">
        <ele>330.2</ele>
        <time>2023-05-02T11:08:05Z</time>
      </trkpt>
      <trkpt lat="46.25212" lon="1.27384">
        <ele>329.6</ele>
        <time>2023-05-02T11:08:10Z</time>
      </trkpt>
      <trkpt lat="46.25217" lon="1.27387">
        <ele>329.6</ele>
        <time>2023-05-02T11:08:11Z</time>
      </trkpt>
      <trkpt lat="46.2522" lon="1.27391">
        <ele>329.6</ele>
        <time>2023-05-02T11:08:12Z</time>
      </trkpt>
      <trkpt lat="46.25223" lon="1.27403">
        <ele>329.4</ele>
        <time>2023-05-02T11:08:14Z</time>
      </trkpt>
      <trkpt lat="46.25222" lon="1.27415">
        <ele>329.2</ele>
        <time>2023-05-02T11:08:16Z</time>
      </trkpt>
      <trkpt lat="46.2522" lon="1.27428">
        <ele>329</ele>
        <time>2023-05-02T11:08:18Z</time>
      </trkpt>
      <trkpt lat="46.25216" lon="1.27479">
        <ele>328.4</ele>
        <time>2023-05-02T11:08:25Z</time>
      </trkpt>
      <trkpt lat="46.25211" lon="1.27543">
        <ele>327.4</ele>
        <time>2023-05-02T11:08:33Z</time>
      </trkpt>
      <trkpt lat="46.25209" lon="1.27586">
        <ele>326.8</ele>
        <time>2023-05-02T11:08:38Z</time>
      </trkpt>
      <trkpt lat="46.25213" lon="1.276">
        <ele>326.4</ele>
        <time>2023-05-02T11:08:40Z</time>
      </trkpt>
      <trkpt lat="46.25222" lon="1.27608">
        <ele>326.2</ele>
        <time>2023-05-02T11:08:42Z</time>
      </trkpt>
      <trkpt lat="46.25227" lon="1.27609">
        <ele>326</ele>
        <time>2023-05-02T11:08:43Z</time>
      </trkpt>
      <trkpt lat="46.25261" lon="1.27614">
        <ele>325</ele>
        <time>2023-05-02T11:08:49Z</time>
      </trkpt>
      <trkpt lat="46.25307" lon="1.27623">
        <ele>324.2</ele>
        <time>2023-05-02T11:08:57Z</time>
      </trkpt>
      <trkpt lat="46.25342" lon="1.2763">
        <ele>323.8</ele>
        <time>2023-05-02T11:09:04Z</time>
      </trkpt>
      <trkpt lat="46.25393" lon="1.27641">
        <ele>322.8</ele>
        <time>2023-05-02T11:09:14Z</time>
      </trkpt>
      <trkpt lat="46.25416" lon="1.27646">
        <ele>322.6</ele>
        <time>2023-05-02T11:09:19Z</time>
      </trkpt>
      <trkpt lat="46.2543" lon="1.27649">
        <ele>322.4</ele>
        <time>2023-05-02T11:09:22Z</time>
      </trkpt>
      <trkpt lat="46.25464" lon="1.27657">
        <ele>322.2</ele>
        <time>2023-05-02T11:09:29Z</time>
      </trkpt>
      <trkpt lat="46.25468" lon="1.27658">
        <ele>322.2</ele>
        <time>2023-05-02T11:09:30Z</time>
      </trkpt>
      <trkpt lat="46.25488" lon="1.27663">
        <ele>322</ele>
        <time>2023-05-02T11:09:34Z</time>
      </trkpt>
      <trkpt lat="46.25522" lon="1.27672">
        <ele>321.6</ele>
        <time>2023-05-02T11:09:41Z</time>
      </trkpt>
      <trkpt lat="46.2555" lon="1.27678">
        <ele>321.4</ele>
        <time>2023-05-02T11:09:47Z</time>
      </trkpt>
      <trkpt lat="46.25578" lon="1.27685">
        <ele>321</ele>
        <time>2023-05-02T11:09:53Z</time>
      </trkpt>
      <trkpt lat="46.25583" lon="1.27686">
        <ele>321</ele>
        <time>2023-05-02T11:09:54Z</time>
      </trkpt>
      <trkpt lat="46.25592" lon="1.27687">
        <ele>320.8</ele>
        <time>2023-05-02T11:09:56Z</time>
      </trkpt>
      <trkpt lat="46.25607" lon="1.27692">
        <ele>320.6</ele>
        <time>2023-05-02T11:09:59Z</time>
      </trkpt>
      <trkpt lat="46.25642" lon="1.27702">
        <ele>320.2</ele>
        <time>2023-05-02T11:10:06Z</time>
      </trkpt>
      <trkpt lat="46.25676" lon="1.27711">
        <ele>319.6</ele>
        <time>2023-05-02T11:10:13Z</time>
      </trkpt>
      <trkpt lat="46.25714" lon="1.2772">
        <ele>319</ele>
        <time>2023-05-02T11:10:20Z</time>
      </trkpt>
      <trkpt lat="46.25725" lon="1.27722">
        <ele>318.6</ele>
        <time>2023-05-02T11:10:22Z</time>
      </trkpt>
      <trkpt lat="46.25742" lon="1.27726">
        <ele>318</ele>
        <time>2023-05-02T11:10:25Z</time>
      </trkpt>
      <trkpt lat="46.25747" lon="1.27728">
        <ele>318</ele>
        <time>2023-05-02T11:10:26Z</time>
      </trkpt>
      <trkpt lat="46.25757" lon="1.27734">
        <ele>317.6</ele>
        <time>2023-05-02T11:10:28Z</time>
      </trkpt>
      <trkpt lat="46.25762" lon="1.27739">
        <ele>317.2</ele>
        <time>2023-05-02T11:10:29Z</time>
      </trkpt>
      <trkpt lat="46.25765" lon="1.27745">
        <ele>317.2</ele>
        <time>2023-05-02T11:10:30Z</time>
      </trkpt>
      <trkpt lat="46.25772" lon="1.27758">
        <ele>316.8</ele>
        <time>2023-05-02T11:10:32Z</time>
      </trkpt>
      <trkpt lat="46.25774" lon="1.27765">
        <ele>316.6</ele>
        <time>2023-05-02T11:10:33Z</time>
      </trkpt>
      <trkpt lat="46.25791" lon="1.27807">
        <ele>315.6</ele>
        <time>2023-05-02T11:10:39Z</time>
      </trkpt>
      <trkpt lat="46.25811" lon="1.27854">
        <ele>314.6</ele>
        <time>2023-05-02T11:10:46Z</time>
      </trkpt>
      <trkpt lat="46.25829" lon="1.27897">
        <ele>313.4</ele>
        <time>2023-05-02T11:10:53Z</time>
      </trkpt>
      <trkpt lat="46.25846" lon="1.27933">
        <ele>312</ele>
        <time>2023-05-02T11:10:59Z</time>
      </trkpt>
      <trkpt lat="46.25853" lon="1.27949">
        <ele>311.2</ele>
        <time>2023-05-02T11:11:02Z</time>
      </trkpt>
      <trkpt lat="46.25859" lon="1.27959">
        <ele>310.8</ele>
        <time>2023-05-02T11:11:04Z</time>
      </trkpt>
      <trkpt lat="46.2588" lon="1.28008">
        <ele>309.2</ele>
        <time>2023-05-02T11:11:12Z</time>
      </trkpt>
      <trkpt lat="46.25891" lon="1.28036">
        <ele>308.2</ele>
        <time>2023-05-02T11:11:17Z</time>
      </trkpt>
      <trkpt lat="46.25904" lon="1.28048">
        <ele>307.4</ele>
        <time>2023-05-02T11:11:21Z</time>
      </trkpt>
      <trkpt lat="46.25917" lon="1.2804">
        <ele>306.8</ele>
        <time>2023-05-02T11:11:25Z</time>
      </trkpt>
      <trkpt lat="46.25921" lon="1.28037">
        <ele>306.6</ele>
        <time>2023-05-02T11:11:26Z</time>
      </trkpt>
      <trkpt lat="46.25934" lon="1.2803">
        <ele>306.2</ele>
        <time>2023-05-02T11:11:29Z</time>
      </trkpt>
      <trkpt lat="46.25959" lon="1.28017">
        <ele>305.4</ele>
        <time>2023-05-02T11:11:35Z</time>
      </trkpt>
      <trkpt lat="46.25982" lon="1.27997">
        <ele>304.8</ele>
        <time>2023-05-02T11:11:41Z</time>
      </trkpt>
      <trkpt lat="46.2601" lon="1.27967">
        <ele>304.4</ele>
        <time>2023-05-02T11:11:49Z</time>
      </trkpt>
      <trkpt lat="46.26035" lon="1.27943">
        <ele>304.4</ele>
        <time>2023-05-02T11:11:56Z</time>
      </trkpt>
      <trkpt lat="46.26042" lon="1.27935">
        <ele>304.4</ele>
        <time>2023-05-02T11:11:58Z</time>
      </trkpt>
      <trkpt lat="46.26054" lon="1.2791">
        <ele>304.2</ele>
        <time>2023-05-02T11:12:03Z</time>
      </trkpt>
      <trkpt lat="46.26055" lon="1.27904">
        <ele>304.4</ele>
        <time>2023-05-02T11:12:04Z</time>
      </trkpt>
      <trkpt lat="46.26057" lon="1.27898">
        <ele>304.4</ele>
        <time>2023-05-02T11:12:05Z</time>
      </trkpt>
      <trkpt lat="46.26065" lon="1.2787">
        <ele>304.6</ele>
        <time>2023-05-02T11:12:10Z</time>
      </trkpt>
      <trkpt lat="46.26078" lon="1.27824">
        <ele>304.8</ele>
        <time>2023-05-02T11:12:19Z</time>
      </trkpt>
      <trkpt lat="46.26092" lon="1.27781">
        <ele>305.6</ele>
        <time>2023-05-02T11:12:29Z</time>
      </trkpt>
      <trkpt lat="46.26101" lon="1.27747">
        <ele>306</ele>
        <time>2023-05-02T11:12:37Z</time>
      </trkpt>
      <trkpt lat="46.26111" lon="1.27723">
        <ele>306.6</ele>
        <time>2023-05-02T11:12:43Z</time>
      </trkpt>
      <trkpt lat="46.26114" lon="1.2772">
        <ele>306.6</ele>
        <time>2023-05-02T11:12:44Z</time>
      </trkpt>
      <trkpt lat="46.2612" lon="1.27722">
        <ele>306.8</ele>
        <time>2023-05-02T11:12:46Z</time>
      </trkpt>
      <trkpt lat="46.26134" lon="1.27737">
        <ele>307.2</ele>
        <time>2023-05-02T11:12:51Z</time>
      </trkpt>
      <trkpt lat="46.26158" lon="1.27767">
        <ele>307.6</ele>
        <time>2023-05-02T11:12:59Z</time>
      </trkpt>
      <trkpt lat="46.26182" lon="1.27796">
        <ele>308</ele>
        <time>2023-05-02T11:13:07Z</time>
      </trkpt>
      <trkpt lat="46.26212" lon="1.27833">
        <ele>308.2</ele>
        <time>2023-05-02T11:13:16Z</time>
      </trkpt>
      <trkpt lat="46.26238" lon="1.27865">
        <ele>308.2</ele>
        <time>2023-05-02T11:13:24Z</time>
      </trkpt>
      <trkpt lat="46.2624" lon="1.27869">
        <ele>308.2</ele>
        <time>2023-05-02T11:13:25Z</time>
      </trkpt>
      <trkpt lat="46.26271" lon="1.27906">
        <ele>308.2</ele>
        <time>2023-05-02T11:13:34Z</time>
      </trkpt>
      <trkpt lat="46.26308" lon="1.27951">
        <ele>307.6</ele>
        <time>2023-05-02T11:13:44Z</time>
      </trkpt>
      <trkpt lat="46.26318" lon="1.27966">
        <ele>307.6</ele>
        <time>2023-05-02T11:13:47Z</time>
      </trkpt>
      <trkpt lat="46.26333" lon="1.27983">
        <ele>307.4</ele>
        <time>2023-05-02T11:13:51Z</time>
      </trkpt>
      <trkpt lat="46.2634" lon="1.27993">
        <ele>307.2</ele>
        <time>2023-05-02T11:13:53Z</time>
      </trkpt>
      <trkpt lat="46.26348" lon="1.28007">
        <ele>307.2</ele>
        <time>2023-05-02T11:13:56Z</time>
      </trkpt>
      <trkpt lat="46.2635" lon="1.28012">
        <ele>307</ele>
        <time>2023-05-02T11:13:57Z</time>
      </trkpt>
      <trkpt lat="46.26354" lon="1.28022">
        <ele>306.8</ele>
        <time>2023-05-02T11:13:59Z</time>
      </trkpt>
      <trkpt lat="46.26356" lon="1.28027">
        <ele>306.6</ele>
        <time>2023-05-02T11:14:00Z</time>
      </trkpt>
      <trkpt lat="46.26368" lon="1.28046">
        <ele>306.4</ele>
        <time>2023-05-02T11:14:04Z</time>
      </trkpt>
      <trkpt lat="46.26371" lon="1.2805">
        <ele>306.2</ele>
        <time>2023-05-02T11:14:05Z</time>
      </trkpt>
      <trkpt lat="46.2639" lon="1.28069">
        <ele>305.6</ele>
        <time>2023-05-02T11:14:11Z</time>
      </trkpt>
      <trkpt lat="46.26392" lon="1.2807">
        <ele>305.4</ele>
        <time>2023-05-02T11:14:12Z</time>
      </trkpt>
      <trkpt lat="46.26398" lon="1.28075">
        <ele>305</ele>
        <time>2023-05-02T11:14:15Z</time>
      </trkpt>
      <trkpt lat="46.264" lon="1.28075">
        <ele>304.8</ele>
        <time>2023-05-02T11:14:16Z</time>
      </trkpt>
      <trkpt lat="46.26404" lon="1.28072">
        <ele>304.6</ele>
        <time>2023-05-02T11:14:18Z</time>
      </trkpt>
      <trkpt lat="46.26407" lon="1.28069">
        <ele>304.4</ele>
        <time>2023-05-02T11:14:19Z</time>
      </trkpt>
      <trkpt lat="46.26415" lon="1.28065">
        <ele>304.4</ele>
        <time>2023-05-02T11:14:22Z</time>
      </trkpt>
      <trkpt lat="46.26431" lon="1.28066">
        <ele>304.6</ele>
        <time>2023-05-02T11:14:27Z</time>
      </trkpt>
      <trkpt lat="46.26433" lon="1.28068">
        <ele>304.8</ele>
        <time>2023-05-02T11:14:28Z</time>
      </trkpt>
      <trkpt lat="46.26445" lon="1.28073">
        <ele>304.8</ele>
        <time>2023-05-02T11:14:32Z</time>
      </trkpt>
      <trkpt lat="46.26452" lon="1.28076">
        <ele>304.4</ele>
        <time>2023-05-02T11:14:34Z</time>
      </trkpt>
      <trkpt lat="46.26455" lon="1.28077">
        <ele>304.4</ele>
        <time>2023-05-02T11:14:35Z</time>
      </trkpt>
      <trkpt lat="46.26456" lon="1.28077">
        <ele>304.2</ele>
        <time>2023-05-02T11:14:36Z</time>
      </trkpt>
      <trkpt lat="46.26465" lon="1.28086">
        <ele>303</ele>
        <time>2023-05-02T11:14:58Z</time>
      </trkpt>
      <trkpt lat="46.26469" lon="1.28091">
        <ele>303</ele>
        <time>2023-05-02T11:15:00Z</time>
      </trkpt>
      <trkpt lat="46.26479" lon="1.28102">
        <ele>302.8</ele>
        <time>2023-05-02T11:15:05Z</time>
      </trkpt>
      <trkpt lat="46.26484" lon="1.28107">
        <ele>302.6</ele>
        <time>2023-05-02T11:15:08Z</time>
      </trkpt>
      <trkpt lat="46.26486" lon="1.2811">
        <ele>302.4</ele>
        <time>2023-05-02T11:15:09Z</time>
      </trkpt>
      <trkpt lat="46.26501" lon="1.28117">
        <ele>301.4</ele>
        <time>2023-05-02T11:15:13Z</time>
      </trkpt>
      <trkpt lat="46.26517" lon="1.28123">
        <ele>300.6</ele>
        <time>2023-05-02T11:15:18Z</time>
      </trkpt>
      <trkpt lat="46.26533" lon="1.28136">
        <ele>299.6</ele>
        <time>2023-05-02T11:15:23Z</time>
      </trkpt>
      <trkpt lat="46.26541" lon="1.28142">
        <ele>299.2</ele>
        <time>2023-05-02T11:15:25Z</time>
      </trkpt>
      <trkpt lat="46.26552" lon="1.2815">
        <ele>299</ele>
        <time>2023-05-02T11:15:27Z</time>
      </trkpt>
      <trkpt lat="46.26575" lon="1.28166">
        <ele>298.8</ele>
        <time>2023-05-02T11:15:33Z</time>
      </trkpt>
      <trkpt lat="46.26592" lon="1.28179">
        <ele>298.8</ele>
        <time>2023-05-02T11:15:39Z</time>
      </trkpt>
      <trkpt lat="46.26592" lon="1.28179">
        <ele>298.8</ele>
        <time>2023-05-02T11:15:40Z</time>
      </trkpt>
      <trkpt lat="46.26596" lon="1.28181">
        <ele>298.4</ele>
        <time>2023-05-02T11:15:44Z</time>
      </trkpt>
      <trkpt lat="46.26603" lon="1.28185">
        <ele>298.4</ele>
        <time>2023-05-02T11:15:47Z</time>
      </trkpt>
      <trkpt lat="46.26619" lon="1.28196">
        <ele>298.2</ele>
        <time>2023-05-02T11:15:53Z</time>
      </trkpt>
      <trkpt lat="46.26622" lon="1.282">
        <ele>297.8</ele>
        <time>2023-05-02T11:15:57Z</time>
      </trkpt>
      <trkpt lat="46.26651" lon="1.28219">
        <ele>295.8</ele>
        <time>2023-05-02T11:16:27Z</time>
      </trkpt>
      <trkpt lat="46.26653" lon="1.28221">
        <ele>295.8</ele>
        <time>2023-05-02T11:16:28Z</time>
      </trkpt>
      <trkpt lat="46.26655" lon="1.28223">
        <ele>295.6</ele>
        <time>2023-05-02T11:16:29Z</time>
      </trkpt>
      <trkpt lat="46.26669" lon="1.28236">
        <ele>295.4</ele>
        <time>2023-05-02T11:16:35Z</time>
      </trkpt>
      <trkpt lat="46.26678" lon="1.28247">
        <ele>295</ele>
        <time>2023-05-02T11:16:40Z</time>
      </trkpt>
      <trkpt lat="46.26688" lon="1.28258">
        <ele>294.4</ele>
        <time>2023-05-02T11:16:45Z</time>
      </trkpt>
      <trkpt lat="46.26701" lon="1.28271">
        <ele>294.2</ele>
        <time>2023-05-02T11:16:50Z</time>
      </trkpt>
      <trkpt lat="46.26724" lon="1.28296">
        <ele>294</ele>
        <time>2023-05-02T11:16:57Z</time>
      </trkpt>
      <trkpt lat="46.2675" lon="1.28326">
        <ele>293.8</ele>
        <time>2023-05-02T11:17:04Z</time>
      </trkpt>
      <trkpt lat="46.26779" lon="1.28356">
        <ele>293.4</ele>
        <time>2023-05-02T11:17:12Z</time>
      </trkpt>
      <trkpt lat="46.26783" lon="1.2836">
        <ele>293.2</ele>
        <time>2023-05-02T11:17:14Z</time>
      </trkpt>
      <trkpt lat="46.26787" lon="1.28366">
        <ele>293.2</ele>
        <time>2023-05-02T11:17:16Z</time>
      </trkpt>
      <trkpt lat="46.26793" lon="1.28374">
        <ele>293.2</ele>
        <time>2023-05-02T11:17:19Z</time>
      </trkpt>
      <trkpt lat="46.26797" lon="1.28375">
        <ele>293</ele>
        <time>2023-05-02T11:17:21Z</time>
      </trkpt>
      <trkpt lat="46.26818" lon="1.28379">
        <ele>292.8</ele>
        <time>2023-05-02T11:17:27Z</time>
      </trkpt>
      <trkpt lat="46.2685" lon="1.28377">
        <ele>292.4</ele>
        <time>2023-05-02T11:17:35Z</time>
      </trkpt>
      <trkpt lat="46.26888" lon="1.28375">
        <ele>292.4</ele>
        <time>2023-05-02T11:17:44Z</time>
      </trkpt>
      <trkpt lat="46.26917" lon="1.28373">
        <ele>292.4</ele>
        <time>2023-05-02T11:17:51Z</time>
      </trkpt>
      <trkpt lat="46.26933" lon="1.28371">
        <ele>293</ele>
        <time>2023-05-02T11:17:56Z</time>
      </trkpt>
      <trkpt lat="46.26955" lon="1.28371">
        <ele>292.8</ele>
        <time>2023-05-02T11:18:02Z</time>
      </trkpt>
      <trkpt lat="46.26981" lon="1.28369">
        <ele>292.8</ele>
        <time>2023-05-02T11:18:09Z</time>
      </trkpt>
      <trkpt lat="46.27006" lon="1.28367">
        <ele>292.8</ele>
        <time>2023-05-02T11:18:16Z</time>
      </trkpt>
      <trkpt lat="46.27029" lon="1.28366">
        <ele>293</ele>
        <time>2023-05-02T11:18:22Z</time>
      </trkpt>
      <trkpt lat="46.27051" lon="1.28365">
        <ele>293</ele>
        <time>2023-05-02T11:18:28Z</time>
      </trkpt>
      <trkpt lat="46.27075" lon="1.28362">
        <ele>293.2</ele>
        <time>2023-05-02T11:18:35Z</time>
      </trkpt>
      <trkpt lat="46.27102" lon="1.28361">
        <ele>293.4</ele>
        <time>2023-05-02T11:18:42Z</time>
      </trkpt>
      <trkpt lat="46.27118" lon="1.2836">
        <ele>293.6</ele>
        <time>2023-05-02T11:18:46Z</time>
      </trkpt>
      <trkpt lat="46.27126" lon="1.28359">
        <ele>293.6</ele>
        <time>2023-05-02T11:18:48Z</time>
      </trkpt>
      <trkpt lat="46.2715" lon="1.28358">
        <ele>293.6</ele>
        <time>2023-05-02T11:18:54Z</time>
      </trkpt>
      <trkpt lat="46.27179" lon="1.28357">
        <ele>293.8</ele>
        <time>2023-05-02T11:19:01Z</time>
      </trkpt>
      <trkpt lat="46.27194" lon="1.28357">
        <ele>294</ele>
        <time>2023-05-02T11:19:05Z</time>
      </trkpt>
      <trkpt lat="46.27196" lon="1.28354">
        <ele>294</ele>
        <time>2023-05-02T11:19:06Z</time>
      </trkpt>
      <trkpt lat="46.27202" lon="1.28333">
        <ele>294</ele>
        <time>2023-05-02T11:19:11Z</time>
      </trkpt>
      <trkpt lat="46.27207" lon="1.28295">
        <ele>294</ele>
        <time>2023-05-02T11:19:18Z</time>
      </trkpt>
      <trkpt lat="46.27212" lon="1.28262">
        <ele>294.2</ele>
        <time>2023-05-02T11:19:24Z</time>
      </trkpt>
      <trkpt lat="46.27213" lon="1.28256">
        <ele>294.2</ele>
        <time>2023-05-02T11:19:25Z</time>
      </trkpt>
      <trkpt lat="46.27216" lon="1.2823">
        <ele>294.2</ele>
        <time>2023-05-02T11:19:29Z</time>
      </trkpt>
      <trkpt lat="46.27223" lon="1.28177">
        <ele>294.2</ele>
        <time>2023-05-02T11:19:36Z</time>
      </trkpt>
      <trkpt lat="46.27225" lon="1.28155">
        <ele>294.2</ele>
        <time>2023-05-02T11:19:39Z</time>
      </trkpt>
      <trkpt lat="46.27228" lon="1.2815">
        <ele>294.2</ele>
        <time>2023-05-02T11:19:40Z</time>
      </trkpt>
      <trkpt lat="46.27232" lon="1.28148">
        <ele>294.2</ele>
        <time>2023-05-02T11:19:41Z</time>
      </trkpt>
      <trkpt lat="46.27236" lon="1.28151">
        <ele>294.2</ele>
        <time>2023-05-02T11:19:42Z</time>
      </trkpt>
      <trkpt lat="46.27239" lon="1.28155">
        <ele>294.2</ele>
        <time>2023-05-02T11:19:43Z</time>
      </trkpt>
      <trkpt lat="46.27245" lon="1.28167">
        <ele>294.2</ele>
        <time>2023-05-02T11:19:45Z</time>
      </trkpt>
      <trkpt lat="46.2726" lon="1.282">
        <ele>294.4</ele>
        <time>2023-05-02T11:19:51Z</time>
      </trkpt>
      <trkpt lat="46.27268" lon="1.28214">
        <ele>294.4</ele>
        <time>2023-05-02T11:19:54Z</time>
      </trkpt>
      <trkpt lat="46.27274" lon="1.28224">
        <ele>294.4</ele>
        <time>2023-05-02T11:19:56Z</time>
      </trkpt>
      <trkpt lat="46.27287" lon="1.28244">
        <ele>294.4</ele>
        <time>2023-05-02T11:20:00Z</time>
      </trkpt>
      <trkpt lat="46.27294" lon="1.28254">
        <ele>294.4</ele>
        <time>2023-05-02T11:20:02Z</time>
      </trkpt>
      <trkpt lat="46.27312" lon="1.28275">
        <ele>294.4</ele>
        <time>2023-05-02T11:20:07Z</time>
      </trkpt>
      <trkpt lat="46.27329" lon="1.28292">
        <ele>294.4</ele>
        <time>2023-05-02T11:20:11Z</time>
      </trkpt>
      <trkpt lat="46.27337" lon="1.28299">
        <ele>294.4</ele>
        <time>2023-05-02T11:20:13Z</time>
      </trkpt>
      <trkpt lat="46.27341" lon="1.28302">
        <ele>294.6</ele>
        <time>2023-05-02T11:20:14Z</time>
      </trkpt>
      <trkpt lat="46.27371" lon="1.28327">
        <ele>294.6</ele>
        <time>2023-05-02T11:20:21Z</time>
      </trkpt>
      <trkpt lat="46.27402" lon="1.28355">
        <ele>294.8</ele>
        <time>2023-05-02T11:20:28Z</time>
      </trkpt>
      <trkpt lat="46.27421" lon="1.28369">
        <ele>295</ele>
        <time>2023-05-02T11:20:32Z</time>
      </trkpt>
      <trkpt lat="46.2743" lon="1.28374">
        <ele>294.8</ele>
        <time>2023-05-02T11:20:34Z</time>
      </trkpt>
      <trkpt lat="46.27456" lon="1.28384">
        <ele>294.8</ele>
        <time>2023-05-02T11:20:39Z</time>
      </trkpt>
      <trkpt lat="46.27494" lon="1.284">
        <ele>294.8</ele>
        <time>2023-05-02T11:20:46Z</time>
      </trkpt>
      <trkpt lat="46.2754" lon="1.28422">
        <ele>295</ele>
        <time>2023-05-02T11:20:55Z</time>
      </trkpt>
      <trkpt lat="46.27569" lon="1.28434">
        <ele>295</ele>
        <time>2023-05-02T11:21:01Z</time>
      </trkpt>
      <trkpt lat="46.27583" lon="1.2844">
        <ele>295</ele>
        <time>2023-05-02T11:21:04Z</time>
      </trkpt>
      <trkpt lat="46.27589" lon="1.28449">
        <ele>295</ele>
        <time>2023-05-02T11:21:06Z</time>
      </trkpt>
      <trkpt lat="46.27595" lon="1.2847">
        <ele>295.2</ele>
        <time>2023-05-02T11:21:10Z</time>
      </trkpt>
      <trkpt lat="46.27604" lon="1.2851">
        <ele>294.8</ele>
        <time>2023-05-02T11:21:17Z</time>
      </trkpt>
      <trkpt lat="46.27622" lon="1.28554">
        <ele>294.6</ele>
        <time>2023-05-02T11:21:24Z</time>
      </trkpt>
      <trkpt lat="46.27648" lon="1.28594">
        <ele>294.4</ele>
        <time>2023-05-02T11:21:31Z</time>
      </trkpt>
      <trkpt lat="46.27671" lon="1.28623">
        <ele>294.2</ele>
        <time>2023-05-02T11:21:37Z</time>
      </trkpt>
      <trkpt lat="46.27678" lon="1.28633">
        <ele>294.2</ele>
        <time>2023-05-02T11:21:39Z</time>
      </trkpt>
      <trkpt lat="46.27699" lon="1.28657">
        <ele>293.8</ele>
        <time>2023-05-02T11:21:44Z</time>
      </trkpt>
      <trkpt lat="46.27746" lon="1.28702">
        <ele>293.8</ele>
        <time>2023-05-02T11:21:54Z</time>
      </trkpt>
      <trkpt lat="46.27789" lon="1.28749">
        <ele>293.8</ele>
        <time>2023-05-02T11:22:03Z</time>
      </trkpt>
      <trkpt lat="46.27799" lon="1.28761">
        <ele>293.6</ele>
        <time>2023-05-02T11:22:05Z</time>
      </trkpt>
      <trkpt lat="46.27816" lon="1.28787">
        <ele>293.6</ele>
        <time>2023-05-02T11:22:09Z</time>
      </trkpt>
      <trkpt lat="46.27843" lon="1.28831">
        <ele>293.2</ele>
        <time>2023-05-02T11:22:16Z</time>
      </trkpt>
      <trkpt lat="46.27865" lon="1.28856">
        <ele>292.6</ele>
        <time>2023-05-02T11:22:21Z</time>
      </trkpt>
      <trkpt lat="46.27889" lon="1.28881">
        <ele>292</ele>
        <time>2023-05-02T11:22:26Z</time>
      </trkpt>
      <trkpt lat="46.27904" lon="1.289">
        <ele>291.8</ele>
        <time>2023-05-02T11:22:29Z</time>
      </trkpt>
      <trkpt lat="46.27915" lon="1.28915">
        <ele>291.4</ele>
        <time>2023-05-02T11:22:32Z</time>
      </trkpt>
      <trkpt lat="46.27933" lon="1.28937">
        <ele>291</ele>
        <time>2023-05-02T11:22:36Z</time>
      </trkpt>
      <trkpt lat="46.27942" lon="1.28945">
        <ele>290.8</ele>
        <time>2023-05-02T11:22:38Z</time>
      </trkpt>
      <trkpt lat="46.27955" lon="1.28959">
        <ele>290.4</ele>
        <time>2023-05-02T11:22:41Z</time>
      </trkpt>
      <trkpt lat="46.27964" lon="1.28967">
        <ele>290</ele>
        <time>2023-05-02T11:22:43Z</time>
      </trkpt>
      <trkpt lat="46.27971" lon="1.28976">
        <ele>289.8</ele>
        <time>2023-05-02T11:22:45Z</time>
      </trkpt>
      <trkpt lat="46.27975" lon="1.2898">
        <ele>289.8</ele>
        <time>2023-05-02T11:22:46Z</time>
      </trkpt>
      <trkpt lat="46.27993" lon="1.28999">
        <ele>289.4</ele>
        <time>2023-05-02T11:22:51Z</time>
      </trkpt>
      <trkpt lat="46.28005" lon="1.29013">
        <ele>289.2</ele>
        <time>2023-05-02T11:22:55Z</time>
      </trkpt>
      <trkpt lat="46.2801" lon="1.29024">
        <ele>289</ele>
        <time>2023-05-02T11:22:58Z</time>
      </trkpt>
      <trkpt lat="46.2802" lon="1.29045">
        <ele>288.6</ele>
        <time>2023-05-02T11:23:02Z</time>
      </trkpt>
      <trkpt lat="46.2803" lon="1.29064">
        <ele>288.2</ele>
        <time>2023-05-02T11:23:05Z</time>
      </trkpt>
      <trkpt lat="46.28037" lon="1.29077">
        <ele>288</ele>
        <time>2023-05-02T11:23:07Z</time>
      </trkpt>
      <trkpt lat="46.28041" lon="1.29084">
        <ele>287.8</ele>
        <time>2023-05-02T11:23:08Z</time>
      </trkpt>
      <trkpt lat="46.2805" lon="1.29098">
        <ele>287.4</ele>
        <time>2023-05-02T11:23:11Z</time>
      </trkpt>
      <trkpt lat="46.28061" lon="1.29115">
        <ele>286.6</ele>
        <time>2023-05-02T11:23:15Z</time>
      </trkpt>
      <trkpt lat="46.28064" lon="1.29121">
        <ele>286.4</ele>
        <time>2023-05-02T11:23:16Z</time>
      </trkpt>
      <trkpt lat="46.28073" lon="1.29137">
        <ele>285.8</ele>
        <time>2023-05-02T11:23:19Z</time>
      </trkpt>
      <trkpt lat="46.28088" lon="1.29166">
        <ele>284.8</ele>
        <time>2023-05-02T11:23:24Z</time>
      </trkpt>
      <trkpt lat="46.28093" lon="1.29173">
        <ele>284.8</ele>
        <time>2023-05-02T11:23:25Z</time>
      </trkpt>
      <trkpt lat="46.28097" lon="1.29179">
        <ele>284.6</ele>
        <time>2023-05-02T11:23:26Z</time>
      </trkpt>
      <trkpt lat="46.28107" lon="1.29198">
        <ele>284</ele>
        <time>2023-05-02T11:23:29Z</time>
      </trkpt>
      <trkpt lat="46.28121" lon="1.29223">
        <ele>283.2</ele>
        <time>2023-05-02T11:23:34Z</time>
      </trkpt>
      <trkpt lat="46.28128" lon="1.29245">
        <ele>282.2</ele>
        <time>2023-05-02T11:23:38Z</time>
      </trkpt>
      <trkpt lat="46.28144" lon="1.29265">
        <ele>281.4</ele>
        <time>2023-05-02T11:23:43Z</time>
      </trkpt>
      <trkpt lat="46.28146" lon="1.29269">
        <ele>281</ele>
        <time>2023-05-02T11:23:45Z</time>
      </trkpt>
      <trkpt lat="46.28167" lon="1.2929">
        <ele>277.8</ele>
        <time>2023-05-02T11:25:22Z</time>
      </trkpt>
      <trkpt lat="46.28166" lon="1.29289">
        <ele>277.8</ele>
        <time>2023-05-02T11:25:23Z</time>
      </trkpt>
      <trkpt lat="46.28164" lon="1.29288">
        <ele>278</ele>
        <time>2023-05-02T11:25:25Z</time>
      </trkpt>
      <trkpt lat="46.28164" lon="1.29285">
        <ele>278.2</ele>
        <time>2023-05-02T11:25:28Z</time>
      </trkpt>
      <trkpt lat="46.28164" lon="1.29285">
        <ele>278.2</ele>
        <time>2023-05-02T11:25:29Z</time>
      </trkpt>
      <trkpt lat="46.28163" lon="1.29294">
        <ele>279.8</ele>
        <time>2023-05-02T11:26:50Z</time>
      </trkpt>
      <trkpt lat="46.28163" lon="1.29299">
        <ele>279.8</ele>
        <time>2023-05-02T11:26:52Z</time>
      </trkpt>
      <trkpt lat="46.28163" lon="1.29303">
        <ele>279.8</ele>
        <time>2023-05-02T11:26:54Z</time>
      </trkpt>
      <trkpt lat="46.28159" lon="1.29331">
        <ele>281</ele>
        <time>2023-05-02T11:28:31Z</time>
      </trkpt>
      <trkpt lat="46.28158" lon="1.29335">
        <ele>281</ele>
        <time>2023-05-02T11:28:32Z</time>
      </trkpt>
      <trkpt lat="46.28161" lon="1.29351">
        <ele>280.8</ele>
        <time>2023-05-02T11:28:37Z</time>
      </trkpt>
      <trkpt lat="46.28162" lon="1.29354">
        <ele>280.6</ele>
        <time>2023-05-02T11:28:38Z</time>
      </trkpt>
      <trkpt lat="46.28164" lon="1.29362">
        <ele>280.4</ele>
        <time>2023-05-02T11:28:41Z</time>
      </trkpt>
      <trkpt lat="46.28175" lon="1.29381">
        <ele>279.8</ele>
        <time>2023-05-02T11:28:47Z</time>
      </trkpt>
      <trkpt lat="46.28185" lon="1.29397">
        <ele>279.4</ele>
        <time>2023-05-02T11:28:52Z</time>
      </trkpt>
      <trkpt lat="46.28188" lon="1.294">
        <ele>279</ele>
        <time>2023-05-02T11:28:55Z</time>
      </trkpt>
      <trkpt lat="46.28192" lon="1.2941">
        <ele>278.6</ele>
        <time>2023-05-02T11:29:01Z</time>
      </trkpt>
      <trkpt lat="46.28195" lon="1.29418">
        <ele>278.2</ele>
        <time>2023-05-02T11:29:04Z</time>
      </trkpt>
      <trkpt lat="46.28196" lon="1.29425">
        <ele>278.2</ele>
        <time>2023-05-02T11:29:07Z</time>
      </trkpt>
      <trkpt lat="46.28199" lon="1.29434">
        <ele>278</ele>
        <time>2023-05-02T11:29:10Z</time>
      </trkpt>
      <trkpt lat="46.2821" lon="1.29463">
        <ele>277.6</ele>
        <time>2023-05-02T11:29:17Z</time>
      </trkpt>
      <trkpt lat="46.2822" lon="1.29486">
        <ele>277.6</ele>
        <time>2023-05-02T11:29:23Z</time>
      </trkpt>
      <trkpt lat="46.28227" lon="1.29505">
        <ele>277.4</ele>
        <time>2023-05-02T11:29:29Z</time>
      </trkpt>
      <trkpt lat="46.28232" lon="1.29517">
        <ele>277.2</ele>
        <time>2023-05-02T11:29:33Z</time>
      </trkpt>
      <trkpt lat="46.28233" lon="1.2952">
        <ele>277.2</ele>
        <time>2023-05-02T11:29:34Z</time>
      </trkpt>
      <trkpt lat="46.2824" lon="1.2954">
        <ele>276.8</ele>
        <time>2023-05-02T11:29:39Z</time>
      </trkpt>
      <trkpt lat="46.28248" lon="1.29561">
        <ele>276.8</ele>
        <time>2023-05-02T11:29:45Z</time>
      </trkpt>
      <trkpt lat="46.28252" lon="1.29575">
        <ele>276.8</ele>
        <time>2023-05-02T11:29:50Z</time>
      </trkpt>
      <trkpt lat="46.28255" lon="1.29577">
        <ele>276.6</ele>
        <time>2023-05-02T11:29:52Z</time>
      </trkpt>
      <trkpt lat="46.2826" lon="1.29578">
        <ele>276.4</ele>
        <time>2023-05-02T11:29:54Z</time>
      </trkpt>
      <trkpt lat="46.28276" lon="1.29574">
        <ele>276</ele>
        <time>2023-05-02T11:30:00Z</time>
      </trkpt>
      <trkpt lat="46.28278" lon="1.29575">
        <ele>275.8</ele>
        <time>2023-05-02T11:30:01Z</time>
      </trkpt>
      <trkpt lat="46.2828" lon="1.29577">
        <ele>275.8</ele>
        <time>2023-05-02T11:30:04Z</time>
      </trkpt>
      <trkpt lat="46.28286" lon="1.29577">
        <ele>275.8</ele>
        <time>2023-05-02T11:30:09Z</time>
      </trkpt>
      <trkpt lat="46.28289" lon="1.29578">
        <ele>275.8</ele>
        <time>2023-05-02T11:30:12Z</time>
      </trkpt>
      <trkpt lat="46.28303" lon="1.29581">
        <ele>276</ele>
        <time>2023-05-02T11:30:45Z</time>
      </trkpt>
      <trkpt lat="46.28305" lon="1.29582">
        <ele>276</ele>
        <time>2023-05-02T11:30:46Z</time>
      </trkpt>
      <trkpt lat="46.28324" lon="1.29582">
        <ele>276.8</ele>
        <time>2023-05-02T11:30:52Z</time>
      </trkpt>
      <trkpt lat="46.28343" lon="1.29579">
        <ele>277.4</ele>
        <time>2023-05-02T11:30:58Z</time>
      </trkpt>
      <trkpt lat="46.2836" lon="1.2958">
        <ele>278</ele>
        <time>2023-05-02T11:31:03Z</time>
      </trkpt>
      <trkpt lat="46.28371" lon="1.29579">
        <ele>278.4</ele>
        <time>2023-05-02T11:31:07Z</time>
      </trkpt>
      <trkpt lat="46.28394" lon="1.2958">
        <ele>279.2</ele>
        <time>2023-05-02T11:31:14Z</time>
      </trkpt>
      <trkpt lat="46.28411" lon="1.29581">
        <ele>279.8</ele>
        <time>2023-05-02T11:31:20Z</time>
      </trkpt>
      <trkpt lat="46.28432" lon="1.29581">
        <ele>280.4</ele>
        <time>2023-05-02T11:31:27Z</time>
      </trkpt>
      <trkpt lat="46.28453" lon="1.2958">
        <ele>281.4</ele>
        <time>2023-05-02T11:31:34Z</time>
      </trkpt>
      <trkpt lat="46.28476" lon="1.2958">
        <ele>282.2</ele>
        <time>2023-05-02T11:31:41Z</time>
      </trkpt>
      <trkpt lat="46.28491" lon="1.2958">
        <ele>282.6</ele>
        <time>2023-05-02T11:31:46Z</time>
      </trkpt>
      <trkpt lat="46.28507" lon="1.29577">
        <ele>282.8</ele>
        <time>2023-05-02T11:31:51Z</time>
      </trkpt>
      <trkpt lat="46.28526" lon="1.29578">
        <ele>283</ele>
        <time>2023-05-02T11:31:56Z</time>
      </trkpt>
      <trkpt lat="46.28546" lon="1.29579">
        <ele>283</ele>
        <time>2023-05-02T11:32:01Z</time>
      </trkpt>
      <trkpt lat="46.28569" lon="1.29579">
        <ele>283.2</ele>
        <time>2023-05-02T11:32:06Z</time>
      </trkpt>
      <trkpt lat="46.28573" lon="1.29579">
        <ele>283</ele>
        <time>2023-05-02T11:32:07Z</time>
      </trkpt>
      <trkpt lat="46.28595" lon="1.29579">
        <ele>283</ele>
        <time>2023-05-02T11:32:12Z</time>
      </trkpt>
      <trkpt lat="46.28628" lon="1.2958">
        <ele>283</ele>
        <time>2023-05-02T11:32:19Z</time>
      </trkpt>
      <trkpt lat="46.28638" lon="1.2958">
        <ele>282.6</ele>
        <time>2023-05-02T11:32:21Z</time>
      </trkpt>
      <trkpt lat="46.28648" lon="1.2958">
        <ele>282.8</ele>
        <time>2023-05-02T11:32:23Z</time>
      </trkpt>
      <trkpt lat="46.28653" lon="1.29581">
        <ele>282.8</ele>
        <time>2023-05-02T11:32:24Z</time>
      </trkpt>
      <trkpt lat="46.28674" lon="1.2958">
        <ele>282.4</ele>
        <time>2023-05-02T11:32:29Z</time>
      </trkpt>
      <trkpt lat="46.28695" lon="1.2958">
        <ele>282.4</ele>
        <time>2023-05-02T11:32:34Z</time>
      </trkpt>
      <trkpt lat="46.28729" lon="1.29579">
        <ele>282.2</ele>
        <time>2023-05-02T11:32:41Z</time>
      </trkpt>
      <trkpt lat="46.28743" lon="1.29578">
        <ele>282.2</ele>
        <time>2023-05-02T11:32:44Z</time>
      </trkpt>
      <trkpt lat="46.28753" lon="1.29578">
        <ele>282</ele>
        <time>2023-05-02T11:32:46Z</time>
      </trkpt>
      <trkpt lat="46.28773" lon="1.29578">
        <ele>281.6</ele>
        <time>2023-05-02T11:32:50Z</time>
      </trkpt>
      <trkpt lat="46.28778" lon="1.29578">
        <ele>281.6</ele>
        <time>2023-05-02T11:32:51Z</time>
      </trkpt>
      <trkpt lat="46.28793" lon="1.29577">
        <ele>281.4</ele>
        <time>2023-05-02T11:32:54Z</time>
      </trkpt>
      <trkpt lat="46.28803" lon="1.29577">
        <ele>281.2</ele>
        <time>2023-05-02T11:32:56Z</time>
      </trkpt>
      <trkpt lat="46.28822" lon="1.29576">
        <ele>280.8</ele>
        <time>2023-05-02T11:33:00Z</time>
      </trkpt>
      <trkpt lat="46.28827" lon="1.29577">
        <ele>280.8</ele>
        <time>2023-05-02T11:33:01Z</time>
      </trkpt>
      <trkpt lat="46.28832" lon="1.29577">
        <ele>280.6</ele>
        <time>2023-05-02T11:33:02Z</time>
      </trkpt>
      <trkpt lat="46.28846" lon="1.29576">
        <ele>280.4</ele>
        <time>2023-05-02T11:33:05Z</time>
      </trkpt>
      <trkpt lat="46.28866" lon="1.29574">
        <ele>280</ele>
        <time>2023-05-02T11:33:09Z</time>
      </trkpt>
      <trkpt lat="46.28871" lon="1.29573">
        <ele>280</ele>
        <time>2023-05-02T11:33:10Z</time>
      </trkpt>
      <trkpt lat="46.28896" lon="1.29574">
        <ele>279.6</ele>
        <time>2023-05-02T11:33:15Z</time>
      </trkpt>
      <trkpt lat="46.28918" lon="1.29573">
        <ele>279</ele>
        <time>2023-05-02T11:33:20Z</time>
      </trkpt>
      <trkpt lat="46.28937" lon="1.29575">
        <ele>278.4</ele>
        <time>2023-05-02T11:33:25Z</time>
      </trkpt>
      <trkpt lat="46.28963" lon="1.29576">
        <ele>278</ele>
        <time>2023-05-02T11:33:31Z</time>
      </trkpt>
      <trkpt lat="46.28978" lon="1.29575">
        <ele>277.6</ele>
        <time>2023-05-02T11:33:35Z</time>
      </trkpt>
      <trkpt lat="46.28997" lon="1.29575">
        <ele>277.2</ele>
        <time>2023-05-02T11:33:40Z</time>
      </trkpt>
      <trkpt lat="46.29017" lon="1.29575">
        <ele>276.8</ele>
        <time>2023-05-02T11:33:45Z</time>
      </trkpt>
      <trkpt lat="46.29036" lon="1.29576">
        <ele>276.8</ele>
        <time>2023-05-02T11:33:50Z</time>
      </trkpt>
      <trkpt lat="46.29054" lon="1.29579">
        <ele>276.2</ele>
        <time>2023-05-02T11:33:54Z</time>
      </trkpt>
      <trkpt lat="46.29072" lon="1.29576">
        <ele>275.8</ele>
        <time>2023-05-02T11:33:59Z</time>
      </trkpt>
      <trkpt lat="46.29079" lon="1.29576">
        <ele>275.6</ele>
        <time>2023-05-02T11:34:01Z</time>
      </trkpt>
      <trkpt lat="46.29086" lon="1.29576">
        <ele>275.4</ele>
        <time>2023-05-02T11:34:03Z</time>
      </trkpt>
      <trkpt lat="46.29106" lon="1.29574">
        <ele>275</ele>
        <time>2023-05-02T11:34:08Z</time>
      </trkpt>
      <trkpt lat="46.29122" lon="1.29573">
        <ele>275</ele>
        <time>2023-05-02T11:34:12Z</time>
      </trkpt>
      <trkpt lat="46.29142" lon="1.29573">
        <ele>274.6</ele>
        <time>2023-05-02T11:34:17Z</time>
      </trkpt>
      <trkpt lat="46.2916" lon="1.29572">
        <ele>274.4</ele>
        <time>2023-05-02T11:34:22Z</time>
      </trkpt>
      <trkpt lat="46.29164" lon="1.29572">
        <ele>274.4</ele>
        <time>2023-05-02T11:34:23Z</time>
      </trkpt>
      <trkpt lat="46.29172" lon="1.29572">
        <ele>274.2</ele>
        <time>2023-05-02T11:34:25Z</time>
      </trkpt>
      <trkpt lat="46.29176" lon="1.29571">
        <ele>274</ele>
        <time>2023-05-02T11:34:26Z</time>
      </trkpt>
      <trkpt lat="46.29181" lon="1.2957">
        <ele>274</ele>
        <time>2023-05-02T11:34:27Z</time>
      </trkpt>
      <trkpt lat="46.29191" lon="1.29572">
        <ele>273.8</ele>
        <time>2023-05-02T11:34:29Z</time>
      </trkpt>
      <trkpt lat="46.29197" lon="1.29573">
        <ele>273.6</ele>
        <time>2023-05-02T11:34:30Z</time>
      </trkpt>
      <trkpt lat="46.29212" lon="1.29573">
        <ele>273.4</ele>
        <time>2023-05-02T11:34:33Z</time>
      </trkpt>
      <trkpt lat="46.29222" lon="1.29574">
        <ele>273</ele>
        <time>2023-05-02T11:34:35Z</time>
      </trkpt>
      <trkpt lat="46.29262" lon="1.29572">
        <ele>272.2</ele>
        <time>2023-05-02T11:34:43Z</time>
      </trkpt>
      <trkpt lat="46.29271" lon="1.29571">
        <ele>272.2</ele>
        <time>2023-05-02T11:34:45Z</time>
      </trkpt>
      <trkpt lat="46.29281" lon="1.2957">
        <ele>272.2</ele>
        <time>2023-05-02T11:34:47Z</time>
      </trkpt>
      <trkpt lat="46.29287" lon="1.2957">
        <ele>272.2</ele>
        <time>2023-05-02T11:34:48Z</time>
      </trkpt>
      <trkpt lat="46.29301" lon="1.2957">
        <ele>272.4</ele>
        <time>2023-05-02T11:34:51Z</time>
      </trkpt>
      <trkpt lat="46.29311" lon="1.29571">
        <ele>272.4</ele>
        <time>2023-05-02T11:34:53Z</time>
      </trkpt>
      <trkpt lat="46.29331" lon="1.2957">
        <ele>271.6</ele>
        <time>2023-05-02T11:34:57Z</time>
      </trkpt>
      <trkpt lat="46.29367" lon="1.29569">
        <ele>272.4</ele>
        <time>2023-05-02T11:35:04Z</time>
      </trkpt>
      <trkpt lat="46.29386" lon="1.29568">
        <ele>273</ele>
        <time>2023-05-02T11:35:08Z</time>
      </trkpt>
      <trkpt lat="46.29401" lon="1.29569">
        <ele>273</ele>
        <time>2023-05-02T11:35:11Z</time>
      </trkpt>
      <trkpt lat="46.29417" lon="1.29568">
        <ele>272.6</ele>
        <time>2023-05-02T11:35:14Z</time>
      </trkpt>
      <trkpt lat="46.29447" lon="1.29569">
        <ele>272.2</ele>
        <time>2023-05-02T11:35:20Z</time>
      </trkpt>
      <trkpt lat="46.29452" lon="1.29569">
        <ele>272.2</ele>
        <time>2023-05-02T11:35:21Z</time>
      </trkpt>
      <trkpt lat="46.29474" lon="1.29568">
        <ele>272</ele>
        <time>2023-05-02T11:35:25Z</time>
      </trkpt>
      <trkpt lat="46.29505" lon="1.29568">
        <ele>271.6</ele>
        <time>2023-05-02T11:35:31Z</time>
      </trkpt>
      <trkpt lat="46.29524" lon="1.29568">
        <ele>271.4</ele>
        <time>2023-05-02T11:35:35Z</time>
      </trkpt>
      <trkpt lat="46.29529" lon="1.29568">
        <ele>271.2</ele>
        <time>2023-05-02T11:35:36Z</time>
      </trkpt>
      <trkpt lat="46.2955" lon="1.29568">
        <ele>270.8</ele>
        <time>2023-05-02T11:35:40Z</time>
      </trkpt>
      <trkpt lat="46.29561" lon="1.29567">
        <ele>270.6</ele>
        <time>2023-05-02T11:35:42Z</time>
      </trkpt>
      <trkpt lat="46.29572" lon="1.29567">
        <ele>270.4</ele>
        <time>2023-05-02T11:35:44Z</time>
      </trkpt>
      <trkpt lat="46.29583" lon="1.29568">
        <ele>270</ele>
        <time>2023-05-02T11:35:46Z</time>
      </trkpt>
      <trkpt lat="46.29588" lon="1.29569">
        <ele>269.8</ele>
        <time>2023-05-02T11:35:47Z</time>
      </trkpt>
      <trkpt lat="46.2961" lon="1.29567">
        <ele>269</ele>
        <time>2023-05-02T11:35:52Z</time>
      </trkpt>
      <trkpt lat="46.29624" lon="1.29568">
        <ele>268.4</ele>
        <time>2023-05-02T11:35:55Z</time>
      </trkpt>
      <trkpt lat="46.29629" lon="1.29568">
        <ele>268.2</ele>
        <time>2023-05-02T11:35:56Z</time>
      </trkpt>
      <trkpt lat="46.2965" lon="1.2957">
        <ele>267.8</ele>
        <time>2023-05-02T11:36:00Z</time>
      </trkpt>
      <trkpt lat="46.2966" lon="1.29572">
        <ele>267.4</ele>
        <time>2023-05-02T11:36:02Z</time>
      </trkpt>
      <trkpt lat="46.29682" lon="1.29571">
        <ele>266.6</ele>
        <time>2023-05-02T11:36:07Z</time>
      </trkpt>
      <trkpt lat="46.29712" lon="1.2957">
        <ele>266</ele>
        <time>2023-05-02T11:36:14Z</time>
      </trkpt>
      <trkpt lat="46.29733" lon="1.29568">
        <ele>265.8</ele>
        <time>2023-05-02T11:36:19Z</time>
      </trkpt>
      <trkpt lat="46.29753" lon="1.29566">
        <ele>265.4</ele>
        <time>2023-05-02T11:36:24Z</time>
      </trkpt>
      <trkpt lat="46.29778" lon="1.29565">
        <ele>265.2</ele>
        <time>2023-05-02T11:36:30Z</time>
      </trkpt>
      <trkpt lat="46.29794" lon="1.29564">
        <ele>265.6</ele>
        <time>2023-05-02T11:36:34Z</time>
      </trkpt>
      <trkpt lat="46.29821" lon="1.29564">
        <ele>265</ele>
        <time>2023-05-02T11:36:40Z</time>
      </trkpt>
      <trkpt lat="46.29843" lon="1.29564">
        <ele>266</ele>
        <time>2023-05-02T11:36:45Z</time>
      </trkpt>
      <trkpt lat="46.29865" lon="1.29565">
        <ele>265.8</ele>
        <time>2023-05-02T11:36:50Z</time>
      </trkpt>
      <trkpt lat="46.29887" lon="1.29564">
        <ele>265.6</ele>
        <time>2023-05-02T11:36:55Z</time>
      </trkpt>
      <trkpt lat="46.29896" lon="1.29563">
        <ele>265.8</ele>
        <time>2023-05-02T11:36:57Z</time>
      </trkpt>
      <trkpt lat="46.29918" lon="1.29563">
        <ele>265.8</ele>
        <time>2023-05-02T11:37:02Z</time>
      </trkpt>
      <trkpt lat="46.29941" lon="1.29561">
        <ele>266.8</ele>
        <time>2023-05-02T11:37:07Z</time>
      </trkpt>
      <trkpt lat="46.29946" lon="1.29561">
        <ele>266.8</ele>
        <time>2023-05-02T11:37:08Z</time>
      </trkpt>
      <trkpt lat="46.29962" lon="1.29559">
        <ele>267.2</ele>
        <time>2023-05-02T11:37:12Z</time>
      </trkpt>
      <trkpt lat="46.29967" lon="1.29559">
        <ele>267.2</ele>
        <time>2023-05-02T11:37:13Z</time>
      </trkpt>
      <trkpt lat="46.29975" lon="1.2956">
        <ele>267.2</ele>
        <time>2023-05-02T11:37:15Z</time>
      </trkpt>
      <trkpt lat="46.2998" lon="1.2956">
        <ele>267.4</ele>
        <time>2023-05-02T11:37:16Z</time>
      </trkpt>
      <trkpt lat="46.3" lon="1.29559">
        <ele>267.6</ele>
        <time>2023-05-02T11:37:21Z</time>
      </trkpt>
      <trkpt lat="46.3001" lon="1.29559">
        <ele>267.8</ele>
        <time>2023-05-02T11:37:25Z</time>
      </trkpt>
      <trkpt lat="46.30011" lon="1.29559">
        <ele>267.8</ele>
        <time>2023-05-02T11:37:26Z</time>
      </trkpt>
      <trkpt lat="46.30011" lon="1.29559">
        <ele>268.8</ele>
        <time>2023-05-02T11:37:50Z</time>
      </trkpt>
      <trkpt lat="46.30013" lon="1.29559">
        <ele>268.6</ele>
        <time>2023-05-02T11:37:52Z</time>
      </trkpt>
      <trkpt lat="46.30016" lon="1.29559">
        <ele>269.8</ele>
        <time>2023-05-02T11:38:47Z</time>
      </trkpt>
      <trkpt lat="46.3002" lon="1.29559">
        <ele>269.8</ele>
        <time>2023-05-02T11:38:49Z</time>
      </trkpt>
      <trkpt lat="46.30032" lon="1.2956">
        <ele>269.8</ele>
        <time>2023-05-02T11:38:53Z</time>
      </trkpt>
      <trkpt lat="46.30047" lon="1.29561">
        <ele>270</ele>
        <time>2023-05-02T11:38:58Z</time>
      </trkpt>
      <trkpt lat="46.30058" lon="1.2956">
        <ele>270</ele>
        <time>2023-05-02T11:39:02Z</time>
      </trkpt>
      <trkpt lat="46.30069" lon="1.29558">
        <ele>270.6</ele>
        <time>2023-05-02T11:39:06Z</time>
      </trkpt>
      <trkpt lat="46.30069" lon="1.29558">
        <ele>270.6</ele>
        <time>2023-05-02T11:39:07Z</time>
      </trkpt>
      <trkpt lat="46.30076" lon="1.29558">
        <ele>272.4</ele>
        <time>2023-05-02T11:40:09Z</time>
      </trkpt>
      <trkpt lat="46.30083" lon="1.29559">
        <ele>272.4</ele>
        <time>2023-05-02T11:40:11Z</time>
      </trkpt>
      <trkpt lat="46.30096" lon="1.2956">
        <ele>272.4</ele>
        <time>2023-05-02T11:40:14Z</time>
      </trkpt>
      <trkpt lat="46.3013" lon="1.29559">
        <ele>272.4</ele>
        <time>2023-05-02T11:40:20Z</time>
      </trkpt>
      <trkpt lat="46.3015" lon="1.2956">
        <ele>272.6</ele>
        <time>2023-05-02T11:40:24Z</time>
      </trkpt>
      <trkpt lat="46.30161" lon="1.2956">
        <ele>272.2</ele>
        <time>2023-05-02T11:40:26Z</time>
      </trkpt>
      <trkpt lat="46.30209" lon="1.29559">
        <ele>272</ele>
        <time>2023-05-02T11:40:34Z</time>
      </trkpt>
      <trkpt lat="46.30253" lon="1.29558">
        <ele>271.8</ele>
        <time>2023-05-02T11:40:41Z</time>
      </trkpt>
      <trkpt lat="46.3031" lon="1.29558">
        <ele>271.6</ele>
        <time>2023-05-02T11:40:50Z</time>
      </trkpt>
      <trkpt lat="46.30365" lon="1.29558">
        <ele>271.4</ele>
        <time>2023-05-02T11:40:59Z</time>
      </trkpt>
      <trkpt lat="46.30371" lon="1.29557">
        <ele>271.4</ele>
        <time>2023-05-02T11:41:00Z</time>
      </trkpt>
      <trkpt lat="46.30408" lon="1.2956">
        <ele>271.2</ele>
        <time>2023-05-02T11:41:06Z</time>
      </trkpt>
      <trkpt lat="46.30413" lon="1.29562">
        <ele>271.2</ele>
        <time>2023-05-02T11:41:07Z</time>
      </trkpt>
      <trkpt lat="46.30419" lon="1.29564">
        <ele>271.2</ele>
        <time>2023-05-02T11:41:08Z</time>
      </trkpt>
      <trkpt lat="46.30441" lon="1.29578">
        <ele>271</ele>
        <time>2023-05-02T11:41:12Z</time>
      </trkpt>
      <trkpt lat="46.30487" lon="1.29612">
        <ele>270.6</ele>
        <time>2023-05-02T11:41:20Z</time>
      </trkpt>
      <trkpt lat="46.30527" lon="1.29643">
        <ele>270</ele>
        <time>2023-05-02T11:41:27Z</time>
      </trkpt>
      <trkpt lat="46.30568" lon="1.29673">
        <ele>269.4</ele>
        <time>2023-05-02T11:41:34Z</time>
      </trkpt>
      <trkpt lat="46.30614" lon="1.29707">
        <ele>268.6</ele>
        <time>2023-05-02T11:41:42Z</time>
      </trkpt>
      <trkpt lat="46.30659" lon="1.2974">
        <ele>268.2</ele>
        <time>2023-05-02T11:41:50Z</time>
      </trkpt>
      <trkpt lat="46.30697" lon="1.29769">
        <ele>268</ele>
        <time>2023-05-02T11:41:57Z</time>
      </trkpt>
      <trkpt lat="46.30728" lon="1.29791">
        <ele>267.8</ele>
        <time>2023-05-02T11:42:03Z</time>
      </trkpt>
      <trkpt lat="46.3078" lon="1.2983">
        <ele>267.2</ele>
        <time>2023-05-02T11:42:13Z</time>
      </trkpt>
      <trkpt lat="46.3082" lon="1.2986">
        <ele>266.8</ele>
        <time>2023-05-02T11:42:21Z</time>
      </trkpt>
      <trkpt lat="46.30867" lon="1.29894">
        <ele>266.8</ele>
        <time>2023-05-02T11:42:30Z</time>
      </trkpt>
      <trkpt lat="46.30903" lon="1.29921">
        <ele>266.8</ele>
        <time>2023-05-02T11:42:37Z</time>
      </trkpt>
      <trkpt lat="46.30948" lon="1.29954">
        <ele>267.4</ele>
        <time>2023-05-02T11:42:46Z</time>
      </trkpt>
      <trkpt lat="46.30996" lon="1.29991">
        <ele>267.4</ele>
        <time>2023-05-02T11:42:56Z</time>
      </trkpt>
      <trkpt lat="46.31018" lon="1.30007">
        <ele>267.6</ele>
        <time>2023-05-02T11:43:02Z</time>
      </trkpt>
      <trkpt lat="46.31028" lon="1.30018">
        <ele>267.8</ele>
        <time>2023-05-02T11:43:06Z</time>
      </trkpt>
      <trkpt lat="46.31041" lon="1.30028">
        <ele>267.8</ele>
        <time>2023-05-02T11:43:10Z</time>
      </trkpt>
      <trkpt lat="46.31053" lon="1.30046">
        <ele>267.6</ele>
        <time>2023-05-02T11:43:15Z</time>
      </trkpt>
      <trkpt lat="46.31065" lon="1.30064">
        <ele>267.2</ele>
        <time>2023-05-02T11:43:20Z</time>
      </trkpt>
      <trkpt lat="46.31076" lon="1.30079">
        <ele>266.6</ele>
        <time>2023-05-02T11:43:25Z</time>
      </trkpt>
      <trkpt lat="46.31088" lon="1.30093">
        <ele>266.4</ele>
        <time>2023-05-02T11:43:29Z</time>
      </trkpt>
      <trkpt lat="46.31091" lon="1.30095">
        <ele>266.4</ele>
        <time>2023-05-02T11:43:30Z</time>
      </trkpt>
      <trkpt lat="46.31103" lon="1.30098">
        <ele>266</ele>
        <time>2023-05-02T11:43:33Z</time>
      </trkpt>
      <trkpt lat="46.31126" lon="1.30092">
        <ele>266</ele>
        <time>2023-05-02T11:43:39Z</time>
      </trkpt>
      <trkpt lat="46.31142" lon="1.30086">
        <ele>266.2</ele>
        <time>2023-05-02T11:43:44Z</time>
      </trkpt>
      <trkpt lat="46.31157" lon="1.30079">
        <ele>266.2</ele>
        <time>2023-05-02T11:43:49Z</time>
      </trkpt>
      <trkpt lat="46.31176" lon="1.30073">
        <ele>266.6</ele>
        <time>2023-05-02T11:43:55Z</time>
      </trkpt>
      <trkpt lat="46.31201" lon="1.30063">
        <ele>266.8</ele>
        <time>2023-05-02T11:44:02Z</time>
      </trkpt>
      <trkpt lat="46.31218" lon="1.30056">
        <ele>266.8</ele>
        <time>2023-05-02T11:44:08Z</time>
      </trkpt>
      <trkpt lat="46.31247" lon="1.30042">
        <ele>267</ele>
        <time>2023-05-02T11:44:16Z</time>
      </trkpt>
      <trkpt lat="46.31268" lon="1.30032">
        <ele>267.2</ele>
        <time>2023-05-02T11:44:22Z</time>
      </trkpt>
      <trkpt lat="46.31294" lon="1.30022">
        <ele>267.4</ele>
        <time>2023-05-02T11:44:29Z</time>
      </trkpt>
      <trkpt lat="46.31318" lon="1.3001">
        <ele>267.4</ele>
        <time>2023-05-02T11:44:36Z</time>
      </trkpt>
      <trkpt lat="46.31338" lon="1.3">
        <ele>267.6</ele>
        <time>2023-05-02T11:44:42Z</time>
      </trkpt>
      <trkpt lat="46.31358" lon="1.29994">
        <ele>267.6</ele>
        <time>2023-05-02T11:44:48Z</time>
      </trkpt>
      <trkpt lat="46.31378" lon="1.2999">
        <ele>267.6</ele>
        <time>2023-05-02T11:44:54Z</time>
      </trkpt>
      <trkpt lat="46.31393" lon="1.29988">
        <ele>267.8</ele>
        <time>2023-05-02T11:44:59Z</time>
      </trkpt>
      <trkpt lat="46.31413" lon="1.29983">
        <ele>267.8</ele>
        <time>2023-05-02T11:45:05Z</time>
      </trkpt>
      <trkpt lat="46.31438" lon="1.2998">
        <ele>267.8</ele>
        <time>2023-05-02T11:45:12Z</time>
      </trkpt>
      <trkpt lat="46.3145" lon="1.29977">
        <ele>267.8</ele>
        <time>2023-05-02T11:45:17Z</time>
      </trkpt>
      <trkpt lat="46.31457" lon="1.29977">
        <ele>267.8</ele>
        <time>2023-05-02T11:45:21Z</time>
      </trkpt>
      <trkpt lat="46.31459" lon="1.29978">
        <ele>267.8</ele>
        <time>2023-05-02T11:45:22Z</time>
      </trkpt>
      <trkpt lat="46.31469" lon="1.29981">
        <ele>267.8</ele>
        <time>2023-05-02T11:45:27Z</time>
      </trkpt>
      <trkpt lat="46.3149" lon="1.2998">
        <ele>267.8</ele>
        <time>2023-05-02T11:45:33Z</time>
      </trkpt>
      <trkpt lat="46.31518" lon="1.29985">
        <ele>267.8</ele>
        <time>2023-05-02T11:45:39Z</time>
      </trkpt>
      <trkpt lat="46.3155" lon="1.29994">
        <ele>267.4</ele>
        <time>2023-05-02T11:45:45Z</time>
      </trkpt>
      <trkpt lat="46.31582" lon="1.3001">
        <ele>267</ele>
        <time>2023-05-02T11:45:51Z</time>
      </trkpt>
      <trkpt lat="46.31615" lon="1.3003">
        <ele>266.6</ele>
        <time>2023-05-02T11:45:57Z</time>
      </trkpt>
      <trkpt lat="46.31652" lon="1.30057">
        <ele>266.2</ele>
        <time>2023-05-02T11:46:04Z</time>
      </trkpt>
      <trkpt lat="46.31681" lon="1.30079">
        <ele>266</ele>
        <time>2023-05-02T11:46:10Z</time>
      </trkpt>
      <trkpt lat="46.31719" lon="1.30108">
        <ele>265.6</ele>
        <time>2023-05-02T11:46:17Z</time>
      </trkpt>
      <trkpt lat="46.31733" lon="1.3012">
        <ele>265.6</ele>
        <time>2023-05-02T11:46:20Z</time>
      </trkpt>
      <trkpt lat="46.31741" lon="1.30128">
        <ele>265.6</ele>
        <time>2023-05-02T11:46:22Z</time>
      </trkpt>
      <trkpt lat="46.31743" lon="1.30133">
        <ele>265.4</ele>
        <time>2023-05-02T11:46:25Z</time>
      </trkpt>
      <trkpt lat="46.31747" lon="1.3013">
        <ele>265.2</ele>
        <time>2023-05-02T11:46:29Z</time>
      </trkpt>
      <trkpt lat="46.31753" lon="1.30131">
        <ele>265</ele>
        <time>2023-05-02T11:46:32Z</time>
      </trkpt>
      <trkpt lat="46.31773" lon="1.30137">
        <ele>264.4</ele>
        <time>2023-05-02T11:46:38Z</time>
      </trkpt>
      <trkpt lat="46.31796" lon="1.30141">
        <ele>263.8</ele>
        <time>2023-05-02T11:46:44Z</time>
      </trkpt>
      <trkpt lat="46.31815" lon="1.30142">
        <ele>263.2</ele>
        <time>2023-05-02T11:46:49Z</time>
      </trkpt>
      <trkpt lat="46.31836" lon="1.30137">
        <ele>262.8</ele>
        <time>2023-05-02T11:46:54Z</time>
      </trkpt>
      <trkpt lat="46.3184" lon="1.30136">
        <ele>262.6</ele>
        <time>2023-05-02T11:46:55Z</time>
      </trkpt>
      <trkpt lat="46.31862" lon="1.30127">
        <ele>262</ele>
        <time>2023-05-02T11:47:01Z</time>
      </trkpt>
      <trkpt lat="46.31887" lon="1.30119">
        <ele>261.2</ele>
        <time>2023-05-02T11:47:07Z</time>
      </trkpt>
      <trkpt lat="46.31909" lon="1.30116">
        <ele>260.6</ele>
        <time>2023-05-02T11:47:12Z</time>
      </trkpt>
      <trkpt lat="46.31914" lon="1.30116">
        <ele>260.4</ele>
        <time>2023-05-02T11:47:13Z</time>
      </trkpt>
      <trkpt lat="46.31919" lon="1.30116">
        <ele>260.4</ele>
        <time>2023-05-02T11:47:14Z</time>
      </trkpt>
      <trkpt lat="46.31937" lon="1.30118">
        <ele>259.6</ele>
        <time>2023-05-02T11:47:18Z</time>
      </trkpt>
      <trkpt lat="46.31963" lon="1.30123">
        <ele>258.6</ele>
        <time>2023-05-02T11:47:24Z</time>
      </trkpt>
      <trkpt lat="46.31984" lon="1.30128">
        <ele>257.6</ele>
        <time>2023-05-02T11:47:29Z</time>
      </trkpt>
      <trkpt lat="46.31988" lon="1.30129">
        <ele>257.6</ele>
        <time>2023-05-02T11:47:30Z</time>
      </trkpt>
      <trkpt lat="46.31996" lon="1.30132">
        <ele>257.6</ele>
        <time>2023-05-02T11:47:32Z</time>
      </trkpt>
      <trkpt lat="46.32007" lon="1.30138">
        <ele>257.4</ele>
        <time>2023-05-02T11:47:35Z</time>
      </trkpt>
      <trkpt lat="46.32029" lon="1.30148">
        <ele>256.8</ele>
        <time>2023-05-02T11:47:41Z</time>
      </trkpt>
      <trkpt lat="46.32056" lon="1.30165">
        <ele>256.2</ele>
        <time>2023-05-02T11:47:47Z</time>
      </trkpt>
      <trkpt lat="46.32075" lon="1.30178">
        <ele>255.8</ele>
        <time>2023-05-02T11:47:51Z</time>
      </trkpt>
      <trkpt lat="46.32108" lon="1.302">
        <ele>254.8</ele>
        <time>2023-05-02T11:47:58Z</time>
      </trkpt>
      <trkpt lat="46.32138" lon="1.30219">
        <ele>253.8</ele>
        <time>2023-05-02T11:48:04Z</time>
      </trkpt>
      <trkpt lat="46.32172" lon="1.3024">
        <ele>253.2</ele>
        <time>2023-05-02T11:48:10Z</time>
      </trkpt>
      <trkpt lat="46.32198" lon="1.30258">
        <ele>252.6</ele>
        <time>2023-05-02T11:48:14Z</time>
      </trkpt>
      <trkpt lat="46.32224" lon="1.30272">
        <ele>251.8</ele>
        <time>2023-05-02T11:48:18Z</time>
      </trkpt>
      <trkpt lat="46.32239" lon="1.30277">
        <ele>251.4</ele>
        <time>2023-05-02T11:48:20Z</time>
      </trkpt>
      <trkpt lat="46.3226" lon="1.30282">
        <ele>250.6</ele>
        <time>2023-05-02T11:48:23Z</time>
      </trkpt>
      <trkpt lat="46.32273" lon="1.30284">
        <ele>250.2</ele>
        <time>2023-05-02T11:48:25Z</time>
      </trkpt>
      <trkpt lat="46.32285" lon="1.30285">
        <ele>249.8</ele>
        <time>2023-05-02T11:48:27Z</time>
      </trkpt>
      <trkpt lat="46.32291" lon="1.30286">
        <ele>249.6</ele>
        <time>2023-05-02T11:48:28Z</time>
      </trkpt>
      <trkpt lat="46.32302" lon="1.30287">
        <ele>249.2</ele>
        <time>2023-05-02T11:48:30Z</time>
      </trkpt>
      <trkpt lat="46.32316" lon="1.30289">
        <ele>248.6</ele>
        <time>2023-05-02T11:48:33Z</time>
      </trkpt>
      <trkpt lat="46.32335" lon="1.30294">
        <ele>248.2</ele>
        <time>2023-05-02T11:48:38Z</time>
      </trkpt>
      <trkpt lat="46.32351" lon="1.30298">
        <ele>247.8</ele>
        <time>2023-05-02T11:48:42Z</time>
      </trkpt>
      <trkpt lat="46.32367" lon="1.30304">
        <ele>247.4</ele>
        <time>2023-05-02T11:48:46Z</time>
      </trkpt>
      <trkpt lat="46.32384" lon="1.30311">
        <ele>247</ele>
        <time>2023-05-02T11:48:50Z</time>
      </trkpt>
      <trkpt lat="46.32388" lon="1.30312">
        <ele>246.8</ele>
        <time>2023-05-02T11:48:51Z</time>
      </trkpt>
      <trkpt lat="46.32401" lon="1.30317">
        <ele>246.4</ele>
        <time>2023-05-02T11:48:54Z</time>
      </trkpt>
      <trkpt lat="46.32405" lon="1.30319">
        <ele>246.4</ele>
        <time>2023-05-02T11:48:55Z</time>
      </trkpt>
      <trkpt lat="46.32426" lon="1.30327">
        <ele>245.8</ele>
        <time>2023-05-02T11:49:01Z</time>
      </trkpt>
      <trkpt lat="46.32446" lon="1.30334">
        <ele>245.4</ele>
        <time>2023-05-02T11:49:07Z</time>
      </trkpt>
      <trkpt lat="46.32462" lon="1.30339">
        <ele>245.2</ele>
        <time>2023-05-02T11:49:11Z</time>
      </trkpt>
      <trkpt lat="46.32483" lon="1.30345">
        <ele>245.2</ele>
        <time>2023-05-02T11:49:17Z</time>
      </trkpt>
      <trkpt lat="46.32498" lon="1.30347">
        <ele>245.2</ele>
        <time>2023-05-02T11:49:21Z</time>
      </trkpt>
      <trkpt lat="46.32516" lon="1.30347">
        <ele>245.2</ele>
        <time>2023-05-02T11:49:26Z</time>
      </trkpt>
      <trkpt lat="46.32542" lon="1.3035">
        <ele>244.8</ele>
        <time>2023-05-02T11:49:34Z</time>
      </trkpt>
      <trkpt lat="46.32568" lon="1.30349">
        <ele>245.4</ele>
        <time>2023-05-02T11:49:41Z</time>
      </trkpt>
      <trkpt lat="46.32589" lon="1.30347">
        <ele>245.4</ele>
        <time>2023-05-02T11:49:47Z</time>
      </trkpt>
      <trkpt lat="46.32606" lon="1.30351">
        <ele>245.8</ele>
        <time>2023-05-02T11:49:52Z</time>
      </trkpt>
      <trkpt lat="46.32628" lon="1.30368">
        <ele>246.2</ele>
        <time>2023-05-02T11:49:59Z</time>
      </trkpt>
      <trkpt lat="46.32654" lon="1.30387">
        <ele>246.6</ele>
        <time>2023-05-02T11:50:07Z</time>
      </trkpt>
      <trkpt lat="46.32678" lon="1.30402">
        <ele>247.2</ele>
        <time>2023-05-02T11:50:14Z</time>
      </trkpt>
      <trkpt lat="46.32706" lon="1.30424">
        <ele>247.8</ele>
        <time>2023-05-02T11:50:22Z</time>
      </trkpt>
      <trkpt lat="46.32733" lon="1.30445">
        <ele>248.2</ele>
        <time>2023-05-02T11:50:29Z</time>
      </trkpt>
      <trkpt lat="46.3276" lon="1.30476">
        <ele>248.4</ele>
        <time>2023-05-02T11:50:36Z</time>
      </trkpt>
      <trkpt lat="46.32785" lon="1.30509">
        <ele>248.6</ele>
        <time>2023-05-02T11:50:42Z</time>
      </trkpt>
      <trkpt lat="46.32813" lon="1.30535">
        <ele>248.4</ele>
        <time>2023-05-02T11:50:47Z</time>
      </trkpt>
      <trkpt lat="46.3285" lon="1.30555">
        <ele>247.8</ele>
        <time>2023-05-02T11:50:53Z</time>
      </trkpt>
      <trkpt lat="46.32883" lon="1.30571">
        <ele>247.4</ele>
        <time>2023-05-02T11:50:58Z</time>
      </trkpt>
      <trkpt lat="46.32895" lon="1.30577">
        <ele>247.2</ele>
        <time>2023-05-02T11:51:00Z</time>
      </trkpt>
      <trkpt lat="46.32905" lon="1.30584">
        <ele>247</ele>
        <time>2023-05-02T11:51:02Z</time>
      </trkpt>
      <trkpt lat="46.32913" lon="1.30587">
        <ele>246.6</ele>
        <time>2023-05-02T11:51:05Z</time>
      </trkpt>
      <trkpt lat="46.32915" lon="1.30586">
        <ele>246.6</ele>
        <time>2023-05-02T11:51:06Z</time>
      </trkpt>
      <trkpt lat="46.32916" lon="1.30583">
        <ele>246.2</ele>
        <time>2023-05-02T11:51:09Z</time>
      </trkpt>
      <trkpt lat="46.32918" lon="1.30577">
        <ele>242.8</ele>
        <time>2023-05-02T11:54:14Z</time>
      </trkpt>
      <trkpt lat="46.32923" lon="1.30556">
        <ele>243</ele>
        <time>2023-05-02T11:54:20Z</time>
      </trkpt>
      <trkpt lat="46.32926" lon="1.30539">
        <ele>243</ele>
        <time>2023-05-02T11:54:24Z</time>
      </trkpt>
      <trkpt lat="46.32932" lon="1.30515">
        <ele>242.8</ele>
        <time>2023-05-02T11:54:29Z</time>
      </trkpt>
      <trkpt lat="46.32939" lon="1.30504">
        <ele>243</ele>
        <time>2023-05-02T11:54:33Z</time>
      </trkpt>
      <trkpt lat="46.32951" lon="1.30496">
        <ele>243.2</ele>
        <time>2023-05-02T11:54:39Z</time>
      </trkpt>
      <trkpt lat="46.32967" lon="1.30485">
        <ele>243.2</ele>
        <time>2023-05-02T11:54:45Z</time>
      </trkpt>
      <trkpt lat="46.32979" lon="1.30466">
        <ele>243.4</ele>
        <time>2023-05-02T11:54:51Z</time>
      </trkpt>
      <trkpt lat="46.32991" lon="1.30443">
        <ele>244</ele>
        <time>2023-05-02T11:54:58Z</time>
      </trkpt>
      <trkpt lat="46.33004" lon="1.30421">
        <ele>244.8</ele>
        <time>2023-05-02T11:55:05Z</time>
      </trkpt>
      <trkpt lat="46.33014" lon="1.30405">
        <ele>245.4</ele>
        <time>2023-05-02T11:55:10Z</time>
      </trkpt>
      <trkpt lat="46.33025" lon="1.30388">
        <ele>245.6</ele>
        <time>2023-05-02T11:55:15Z</time>
      </trkpt>
      <trkpt lat="46.3304" lon="1.30365">
        <ele>245.8</ele>
        <time>2023-05-02T11:55:21Z</time>
      </trkpt>
      <trkpt lat="46.33052" lon="1.30341">
        <ele>245.8</ele>
        <time>2023-05-02T11:55:26Z</time>
      </trkpt>
      <trkpt lat="46.33065" lon="1.30314">
        <ele>245.8</ele>
        <time>2023-05-02T11:55:31Z</time>
      </trkpt>
      <trkpt lat="46.33068" lon="1.30309">
        <ele>245.8</ele>
        <time>2023-05-02T11:55:32Z</time>
      </trkpt>
      <trkpt lat="46.33076" lon="1.30294">
        <ele>245.8</ele>
        <time>2023-05-02T11:55:35Z</time>
      </trkpt>
      <trkpt lat="46.33082" lon="1.30283">
        <ele>245.8</ele>
        <time>2023-05-02T11:55:37Z</time>
      </trkpt>
      <trkpt lat="46.33088" lon="1.30273">
        <ele>245.8</ele>
        <time>2023-05-02T11:55:39Z</time>
      </trkpt>
      <trkpt lat="46.33093" lon="1.30264">
        <ele>246</ele>
        <time>2023-05-02T11:55:41Z</time>
      </trkpt>
      <trkpt lat="46.33099" lon="1.30254">
        <ele>245.8</ele>
        <time>2023-05-02T11:55:43Z</time>
      </trkpt>
      <trkpt lat="46.33112" lon="1.3023">
        <ele>245.2</ele>
        <time>2023-05-02T11:55:48Z</time>
      </trkpt>
      <trkpt lat="46.33128" lon="1.30205">
        <ele>244</ele>
        <time>2023-05-02T11:55:54Z</time>
      </trkpt>
      <trkpt lat="46.33137" lon="1.30192">
        <ele>243</ele>
        <time>2023-05-02T11:55:58Z</time>
      </trkpt>
      <trkpt lat="46.33145" lon="1.30183">
        <ele>242.2</ele>
        <time>2023-05-02T11:56:02Z</time>
      </trkpt>
      <trkpt lat="46.33151" lon="1.30179">
        <ele>241.2</ele>
        <time>2023-05-02T11:56:05Z</time>
      </trkpt>
      <trkpt lat="46.33158" lon="1.30174">
        <ele>240.4</ele>
        <time>2023-05-02T11:56:09Z</time>
      </trkpt>
      <trkpt lat="46.3316" lon="1.30174">
        <ele>240.6</ele>
        <time>2023-05-02T11:56:10Z</time>
      </trkpt>
      <trkpt lat="46.33178" lon="1.3015">
        <ele>233.8</ele>
        <time>2023-05-02T11:59:32Z</time>
      </trkpt>
      <trkpt lat="46.3318" lon="1.30146">
        <ele>234</ele>
        <time>2023-05-02T11:59:34Z</time>
      </trkpt>
      <trkpt lat="46.33182" lon="1.30141">
        <ele>234.2</ele>
        <time>2023-05-02T11:59:37Z</time>
      </trkpt>
      <trkpt lat="46.33185" lon="1.30137">
        <ele>234.4</ele>
        <time>2023-05-02T11:59:39Z</time>
      </trkpt>
      <trkpt lat="46.33196" lon="1.30121">
        <ele>235</ele>
        <time>2023-05-02T11:59:46Z</time>
      </trkpt>
      <trkpt lat="46.33198" lon="1.30117">
        <ele>235.2</ele>
        <time>2023-05-02T11:59:49Z</time>
      </trkpt>
      <trkpt lat="46.33227" lon="1.30016">
        <ele>243</ele>
        <time>2023-05-02T12:01:25Z</time>
      </trkpt>
      <trkpt lat="46.33232" lon="1.30002">
        <ele>243.4</ele>
        <time>2023-05-02T12:01:30Z</time>
      </trkpt>
      <trkpt lat="46.3324" lon="1.29987">
        <ele>243.8</ele>
        <time>2023-05-02T12:01:35Z</time>
      </trkpt>
      <trkpt lat="46.33247" lon="1.29969">
        <ele>244.6</ele>
        <time>2023-05-02T12:01:40Z</time>
      </trkpt>
      <trkpt lat="46.33253" lon="1.2995">
        <ele>245.2</ele>
        <time>2023-05-02T12:01:46Z</time>
      </trkpt>
      <trkpt lat="46.3326" lon="1.29931">
        <ele>245.6</ele>
        <time>2023-05-02T12:01:51Z</time>
      </trkpt>
      <trkpt lat="46.33262" lon="1.29928">
        <ele>245.8</ele>
        <time>2023-05-02T12:01:52Z</time>
      </trkpt>
      <trkpt lat="46.33265" lon="1.29918">
        <ele>246</ele>
        <time>2023-05-02T12:01:55Z</time>
      </trkpt>
      <trkpt lat="46.33272" lon="1.29898">
        <ele>246.4</ele>
        <time>2023-05-02T12:02:01Z</time>
      </trkpt>
      <trkpt lat="46.33278" lon="1.2988">
        <ele>246.8</ele>
        <time>2023-05-02T12:02:06Z</time>
      </trkpt>
      <trkpt lat="46.33287" lon="1.29861">
        <ele>247.2</ele>
        <time>2023-05-02T12:02:12Z</time>
      </trkpt>
      <trkpt lat="46.33295" lon="1.29842">
        <ele>247.6</ele>
        <time>2023-05-02T12:02:17Z</time>
      </trkpt>
      <trkpt lat="46.33304" lon="1.29821">
        <ele>248.2</ele>
        <time>2023-05-02T12:02:23Z</time>
      </trkpt>
      <trkpt lat="46.33312" lon="1.29802">
        <ele>248.4</ele>
        <time>2023-05-02T12:02:28Z</time>
      </trkpt>
      <trkpt lat="46.33325" lon="1.29777">
        <ele>249</ele>
        <time>2023-05-02T12:02:35Z</time>
      </trkpt>
      <trkpt lat="46.33332" lon="1.29761">
        <ele>249.2</ele>
        <time>2023-05-02T12:02:39Z</time>
      </trkpt>
      <trkpt lat="46.33345" lon="1.29741">
        <ele>249.4</ele>
        <time>2023-05-02T12:02:45Z</time>
      </trkpt>
      <trkpt lat="46.33355" lon="1.29723">
        <ele>249.6</ele>
        <time>2023-05-02T12:02:50Z</time>
      </trkpt>
      <trkpt lat="46.33357" lon="1.29719">
        <ele>249.8</ele>
        <time>2023-05-02T12:02:51Z</time>
      </trkpt>
      <trkpt lat="46.3336" lon="1.29711">
        <ele>249.8</ele>
        <time>2023-05-02T12:02:53Z</time>
      </trkpt>
      <trkpt lat="46.33368" lon="1.29694">
        <ele>250</ele>
        <time>2023-05-02T12:02:57Z</time>
      </trkpt>
      <trkpt lat="46.33378" lon="1.29672">
        <ele>250.2</ele>
        <time>2023-05-02T12:03:02Z</time>
      </trkpt>
      <trkpt lat="46.33381" lon="1.29667">
        <ele>250.2</ele>
        <time>2023-05-02T12:03:03Z</time>
      </trkpt>
      <trkpt lat="46.33386" lon="1.29653">
        <ele>250.4</ele>
        <time>2023-05-02T12:03:06Z</time>
      </trkpt>
      <trkpt lat="46.33398" lon="1.29626">
        <ele>250.4</ele>
        <time>2023-05-02T12:03:12Z</time>
      </trkpt>
      <trkpt lat="46.33407" lon="1.2961">
        <ele>250.4</ele>
        <time>2023-05-02T12:03:16Z</time>
      </trkpt>
      <trkpt lat="46.3341" lon="1.29584">
        <ele>250.4</ele>
        <time>2023-05-02T12:03:21Z</time>
      </trkpt>
      <trkpt lat="46.33409" lon="1.29578">
        <ele>250.4</ele>
        <time>2023-05-02T12:03:22Z</time>
      </trkpt>
      <trkpt lat="46.33407" lon="1.29552">
        <ele>250.2</ele>
        <time>2023-05-02T12:03:26Z</time>
      </trkpt>
      <trkpt lat="46.33406" lon="1.29528">
        <ele>250</ele>
        <time>2023-05-02T12:03:30Z</time>
      </trkpt>
      <trkpt lat="46.33404" lon="1.29514">
        <ele>250.2</ele>
        <time>2023-05-02T12:03:32Z</time>
      </trkpt>
      <trkpt lat="46.33398" lon="1.29493">
        <ele>250.2</ele>
        <time>2023-05-02T12:03:35Z</time>
      </trkpt>
      <trkpt lat="46.33389" lon="1.29448">
        <ele>250</ele>
        <time>2023-05-02T12:03:41Z</time>
      </trkpt>
      <trkpt lat="46.33387" lon="1.29434">
        <ele>250</ele>
        <time>2023-05-02T12:03:43Z</time>
      </trkpt>
      <trkpt lat="46.33386" lon="1.29404">
        <ele>250</ele>
        <time>2023-05-02T12:03:48Z</time>
      </trkpt>
      <trkpt lat="46.33391" lon="1.29389">
        <ele>250</ele>
        <time>2023-05-02T12:03:51Z</time>
      </trkpt>
      <trkpt lat="46.33395" lon="1.29387">
        <ele>250</ele>
        <time>2023-05-02T12:03:52Z</time>
      </trkpt>
      <trkpt lat="46.33403" lon="1.29382">
        <ele>249.8</ele>
        <time>2023-05-02T12:03:54Z</time>
      </trkpt>
      <trkpt lat="46.33412" lon="1.29376">
        <ele>249.8</ele>
        <time>2023-05-02T12:03:56Z</time>
      </trkpt>
      <trkpt lat="46.33445" lon="1.29363">
        <ele>249.6</ele>
        <time>2023-05-02T12:04:02Z</time>
      </trkpt>
      <trkpt lat="46.33462" lon="1.29358">
        <ele>249.4</ele>
        <time>2023-05-02T12:04:05Z</time>
      </trkpt>
      <trkpt lat="46.3348" lon="1.29354">
        <ele>249.4</ele>
        <time>2023-05-02T12:04:08Z</time>
      </trkpt>
      <trkpt lat="46.33521" lon="1.29346">
        <ele>249.2</ele>
        <time>2023-05-02T12:04:15Z</time>
      </trkpt>
      <trkpt lat="46.33532" lon="1.29342">
        <ele>249.2</ele>
        <time>2023-05-02T12:04:17Z</time>
      </trkpt>
      <trkpt lat="46.33554" lon="1.2933">
        <ele>249.2</ele>
        <time>2023-05-02T12:04:21Z</time>
      </trkpt>
      <trkpt lat="46.33567" lon="1.29327">
        <ele>249</ele>
        <time>2023-05-02T12:04:23Z</time>
      </trkpt>
      <trkpt lat="46.33579" lon="1.29328">
        <ele>249.2</ele>
        <time>2023-05-02T12:04:25Z</time>
      </trkpt>
      <trkpt lat="46.33621" lon="1.29342">
        <ele>249.2</ele>
        <time>2023-05-02T12:04:32Z</time>
      </trkpt>
      <trkpt lat="46.3365" lon="1.29346">
        <ele>248.8</ele>
        <time>2023-05-02T12:04:37Z</time>
      </trkpt>
      <trkpt lat="46.3369" lon="1.29344">
        <ele>248.4</ele>
        <time>2023-05-02T12:04:44Z</time>
      </trkpt>
      <trkpt lat="46.33726" lon="1.29347">
        <ele>248</ele>
        <time>2023-05-02T12:04:50Z</time>
      </trkpt>
      <trkpt lat="46.33761" lon="1.29348">
        <ele>247.6</ele>
        <time>2023-05-02T12:04:56Z</time>
      </trkpt>
      <trkpt lat="46.33773" lon="1.29351">
        <ele>247.6</ele>
        <time>2023-05-02T12:04:58Z</time>
      </trkpt>
      <trkpt lat="46.33789" lon="1.29361">
        <ele>247.4</ele>
        <time>2023-05-02T12:05:01Z</time>
      </trkpt>
      <trkpt lat="46.3382" lon="1.29383">
        <ele>246.8</ele>
        <time>2023-05-02T12:05:07Z</time>
      </trkpt>
      <trkpt lat="46.33831" lon="1.29386">
        <ele>246.8</ele>
        <time>2023-05-02T12:05:09Z</time>
      </trkpt>
      <trkpt lat="46.33841" lon="1.29385">
        <ele>246.6</ele>
        <time>2023-05-02T12:05:11Z</time>
      </trkpt>
      <trkpt lat="46.33866" lon="1.29369">
        <ele>246.4</ele>
        <time>2023-05-02T12:05:16Z</time>
      </trkpt>
      <trkpt lat="46.33895" lon="1.29345">
        <ele>245.6</ele>
        <time>2023-05-02T12:05:22Z</time>
      </trkpt>
      <trkpt lat="46.339" lon="1.29342">
        <ele>245.4</ele>
        <time>2023-05-02T12:05:23Z</time>
      </trkpt>
      <trkpt lat="46.33913" lon="1.29336">
        <ele>245.2</ele>
        <time>2023-05-02T12:05:25Z</time>
      </trkpt>
      <trkpt lat="46.33927" lon="1.29336">
        <ele>245</ele>
        <time>2023-05-02T12:05:27Z</time>
      </trkpt>
      <trkpt lat="46.3394" lon="1.29345">
        <ele>244.6</ele>
        <time>2023-05-02T12:05:29Z</time>
      </trkpt>
      <trkpt lat="46.33947" lon="1.29352">
        <ele>244.6</ele>
        <time>2023-05-02T12:05:30Z</time>
      </trkpt>
      <trkpt lat="46.33974" lon="1.29391">
        <ele>243.8</ele>
        <time>2023-05-02T12:05:35Z</time>
      </trkpt>
      <trkpt lat="46.33979" lon="1.29399">
        <ele>243.8</ele>
        <time>2023-05-02T12:05:36Z</time>
      </trkpt>
      <trkpt lat="46.33993" lon="1.29412">
        <ele>243.4</ele>
        <time>2023-05-02T12:05:38Z</time>
      </trkpt>
      <trkpt lat="46.34" lon="1.29417">
        <ele>243.2</ele>
        <time>2023-05-02T12:05:39Z</time>
      </trkpt>
      <trkpt lat="46.34008" lon="1.29421">
        <ele>243</ele>
        <time>2023-05-02T12:05:40Z</time>
      </trkpt>
      <trkpt lat="46.34025" lon="1.29424">
        <ele>242.6</ele>
        <time>2023-05-02T12:05:42Z</time>
      </trkpt>
      <trkpt lat="46.34043" lon="1.29421">
        <ele>242</ele>
        <time>2023-05-02T12:05:44Z</time>
      </trkpt>
      <trkpt lat="46.34052" lon="1.29417">
        <ele>241.8</ele>
        <time>2023-05-02T12:05:45Z</time>
      </trkpt>
      <trkpt lat="46.341" lon="1.29389">
        <ele>240.2</ele>
        <time>2023-05-02T12:05:50Z</time>
      </trkpt>
      <trkpt lat="46.34125" lon="1.29373">
        <ele>239.2</ele>
        <time>2023-05-02T12:05:53Z</time>
      </trkpt>
      <trkpt lat="46.34132" lon="1.29366">
        <ele>239</ele>
        <time>2023-05-02T12:05:54Z</time>
      </trkpt>
      <trkpt lat="46.34136" lon="1.29356">
        <ele>238.6</ele>
        <time>2023-05-02T12:05:55Z</time>
      </trkpt>
      <trkpt lat="46.34139" lon="1.29342">
        <ele>238.4</ele>
        <time>2023-05-02T12:05:56Z</time>
      </trkpt>
      <trkpt lat="46.34139" lon="1.29328">
        <ele>238.2</ele>
        <time>2023-05-02T12:05:57Z</time>
      </trkpt>
      <trkpt lat="46.34137" lon="1.29315">
        <ele>238</ele>
        <time>2023-05-02T12:05:58Z</time>
      </trkpt>
      <trkpt lat="46.34133" lon="1.29303">
        <ele>237.6</ele>
        <time>2023-05-02T12:05:59Z</time>
      </trkpt>
      <trkpt lat="46.34121" lon="1.29281">
        <ele>237.2</ele>
        <time>2023-05-02T12:06:01Z</time>
      </trkpt>
      <trkpt lat="46.34109" lon="1.2926">
        <ele>236.4</ele>
        <time>2023-05-02T12:06:03Z</time>
      </trkpt>
      <trkpt lat="46.34106" lon="1.29248">
        <ele>236</ele>
        <time>2023-05-02T12:06:04Z</time>
      </trkpt>
      <trkpt lat="46.34106" lon="1.29235">
        <ele>235.6</ele>
        <time>2023-05-02T12:06:05Z</time>
      </trkpt>
      <trkpt lat="46.34108" lon="1.2922">
        <ele>235</ele>
        <time>2023-05-02T12:06:06Z</time>
      </trkpt>
      <trkpt lat="46.34113" lon="1.29209">
        <ele>234.4</ele>
        <time>2023-05-02T12:06:07Z</time>
      </trkpt>
      <trkpt lat="46.3412" lon="1.29202">
        <ele>234</ele>
        <time>2023-05-02T12:06:08Z</time>
      </trkpt>
      <trkpt lat="46.3413" lon="1.29198">
        <ele>233.4</ele>
        <time>2023-05-02T12:06:09Z</time>
      </trkpt>
      <trkpt lat="46.34139" lon="1.29198">
        <ele>232.8</ele>
        <time>2023-05-02T12:06:10Z</time>
      </trkpt>
      <trkpt lat="46.34149" lon="1.29201">
        <ele>232.2</ele>
        <time>2023-05-02T12:06:11Z</time>
      </trkpt>
      <trkpt lat="46.34168" lon="1.29211">
        <ele>231</ele>
        <time>2023-05-02T12:06:13Z</time>
      </trkpt>
      <trkpt lat="46.34183" lon="1.29226">
        <ele>229.8</ele>
        <time>2023-05-02T12:06:15Z</time>
      </trkpt>
      <trkpt lat="46.3419" lon="1.29236">
        <ele>229.2</ele>
        <time>2023-05-02T12:06:16Z</time>
      </trkpt>
      <trkpt lat="46.34195" lon="1.29248">
        <ele>228.8</ele>
        <time>2023-05-02T12:06:17Z</time>
      </trkpt>
      <trkpt lat="46.34204" lon="1.29274">
        <ele>227.6</ele>
        <time>2023-05-02T12:06:19Z</time>
      </trkpt>
      <trkpt lat="46.34226" lon="1.29344">
        <ele>225</ele>
        <time>2023-05-02T12:06:24Z</time>
      </trkpt>
      <trkpt lat="46.34243" lon="1.29402">
        <ele>223</ele>
        <time>2023-05-02T12:06:28Z</time>
      </trkpt>
      <trkpt lat="46.34258" lon="1.29456">
        <ele>221.4</ele>
        <time>2023-05-02T12:06:32Z</time>
      </trkpt>
      <trkpt lat="46.34266" lon="1.29489">
        <ele>220.2</ele>
        <time>2023-05-02T12:06:35Z</time>
      </trkpt>
      <trkpt lat="46.34269" lon="1.29497">
        <ele>220</ele>
        <time>2023-05-02T12:06:36Z</time>
      </trkpt>
      <trkpt lat="46.34278" lon="1.29513">
        <ele>219.2</ele>
        <time>2023-05-02T12:06:39Z</time>
      </trkpt>
      <trkpt lat="46.34282" lon="1.29518">
        <ele>219</ele>
        <time>2023-05-02T12:06:40Z</time>
      </trkpt>
      <trkpt lat="46.34303" lon="1.29538">
        <ele>217.4</ele>
        <time>2023-05-02T12:06:47Z</time>
      </trkpt>
      <trkpt lat="46.34313" lon="1.29552">
        <ele>216.2</ele>
        <time>2023-05-02T12:06:52Z</time>
      </trkpt>
      <trkpt lat="46.34318" lon="1.29561">
        <ele>215.4</ele>
        <time>2023-05-02T12:06:55Z</time>
      </trkpt>
      <trkpt lat="46.34319" lon="1.29564">
        <ele>215.2</ele>
        <time>2023-05-02T12:06:56Z</time>
      </trkpt>
      <trkpt lat="46.34326" lon="1.29581">
        <ele>214</ele>
        <time>2023-05-02T12:07:01Z</time>
      </trkpt>
      <trkpt lat="46.34333" lon="1.29596">
        <ele>213.4</ele>
        <time>2023-05-02T12:07:05Z</time>
      </trkpt>
      <trkpt lat="46.34334" lon="1.29599">
        <ele>213.2</ele>
        <time>2023-05-02T12:07:06Z</time>
      </trkpt>
      <trkpt lat="46.34341" lon="1.29612">
        <ele>212.6</ele>
        <time>2023-05-02T12:07:11Z</time>
      </trkpt>
      <trkpt lat="46.34349" lon="1.29621">
        <ele>212.4</ele>
        <time>2023-05-02T12:07:15Z</time>
      </trkpt>
      <trkpt lat="46.3435" lon="1.29623">
        <ele>212.4</ele>
        <time>2023-05-02T12:07:16Z</time>
      </trkpt>
      <trkpt lat="46.3436" lon="1.29631">
        <ele>212.6</ele>
        <time>2023-05-02T12:07:21Z</time>
      </trkpt>
      <trkpt lat="46.34371" lon="1.29638">
        <ele>212.2</ele>
        <time>2023-05-02T12:07:27Z</time>
      </trkpt>
      <trkpt lat="46.34383" lon="1.29645">
        <ele>212.4</ele>
        <time>2023-05-02T12:07:33Z</time>
      </trkpt>
      <trkpt lat="46.34396" lon="1.29652">
        <ele>213</ele>
        <time>2023-05-02T12:07:40Z</time>
      </trkpt>
      <trkpt lat="46.34398" lon="1.29652">
        <ele>213</ele>
        <time>2023-05-02T12:07:41Z</time>
      </trkpt>
      <trkpt lat="46.34399" lon="1.29653">
        <ele>213</ele>
        <time>2023-05-02T12:07:43Z</time>
      </trkpt>
      <trkpt lat="46.34405" lon="1.29663">
        <ele>214.6</ele>
        <time>2023-05-02T12:09:18Z</time>
      </trkpt>
      <trkpt lat="46.34416" lon="1.2967">
        <ele>214.6</ele>
        <time>2023-05-02T12:09:24Z</time>
      </trkpt>
      <trkpt lat="46.34432" lon="1.29681">
        <ele>214.6</ele>
        <time>2023-05-02T12:09:31Z</time>
      </trkpt>
      <trkpt lat="46.34448" lon="1.29698">
        <ele>215.2</ele>
        <time>2023-05-02T12:09:38Z</time>
      </trkpt>
      <trkpt lat="46.34455" lon="1.29705">
        <ele>215.4</ele>
        <time>2023-05-02T12:09:41Z</time>
      </trkpt>
      <trkpt lat="46.3446" lon="1.29705">
        <ele>215.6</ele>
        <time>2023-05-02T12:09:43Z</time>
      </trkpt>
      <trkpt lat="46.34468" lon="1.29693">
        <ele>216</ele>
        <time>2023-05-02T12:09:47Z</time>
      </trkpt>
      <trkpt lat="46.34478" lon="1.29666">
        <ele>216.2</ele>
        <time>2023-05-02T12:09:53Z</time>
      </trkpt>
      <trkpt lat="46.34486" lon="1.29625">
        <ele>216.8</ele>
        <time>2023-05-02T12:10:01Z</time>
      </trkpt>
      <trkpt lat="46.34493" lon="1.29591">
        <ele>217.2</ele>
        <time>2023-05-02T12:10:07Z</time>
      </trkpt>
      <trkpt lat="46.34507" lon="1.29553">
        <ele>217.6</ele>
        <time>2023-05-02T12:10:14Z</time>
      </trkpt>
      <trkpt lat="46.34529" lon="1.29507">
        <ele>218.4</ele>
        <time>2023-05-02T12:10:24Z</time>
      </trkpt>
      <trkpt lat="46.34546" lon="1.29477">
        <ele>219</ele>
        <time>2023-05-02T12:10:31Z</time>
      </trkpt>
      <trkpt lat="46.34549" lon="1.29472">
        <ele>219.2</ele>
        <time>2023-05-02T12:10:32Z</time>
      </trkpt>
      <trkpt lat="46.34574" lon="1.29433">
        <ele>219.4</ele>
        <time>2023-05-02T12:10:40Z</time>
      </trkpt>
      <trkpt lat="46.34599" lon="1.29411">
        <ele>219.8</ele>
        <time>2023-05-02T12:10:46Z</time>
      </trkpt>
      <trkpt lat="46.34627" lon="1.29398">
        <ele>220.2</ele>
        <time>2023-05-02T12:10:52Z</time>
      </trkpt>
      <trkpt lat="46.34667" lon="1.29389">
        <ele>221.2</ele>
        <time>2023-05-02T12:11:01Z</time>
      </trkpt>
      <trkpt lat="46.34702" lon="1.29371">
        <ele>222.2</ele>
        <time>2023-05-02T12:11:10Z</time>
      </trkpt>
      <trkpt lat="46.34727" lon="1.29346">
        <ele>222.8</ele>
        <time>2023-05-02T12:11:17Z</time>
      </trkpt>
      <trkpt lat="46.34733" lon="1.29337">
        <ele>223</ele>
        <time>2023-05-02T12:11:19Z</time>
      </trkpt>
      <trkpt lat="46.3475" lon="1.29306">
        <ele>223.4</ele>
        <time>2023-05-02T12:11:25Z</time>
      </trkpt>
      <trkpt lat="46.34774" lon="1.29263">
        <ele>224</ele>
        <time>2023-05-02T12:11:33Z</time>
      </trkpt>
      <trkpt lat="46.34797" lon="1.29224">
        <ele>224.4</ele>
        <time>2023-05-02T12:11:40Z</time>
      </trkpt>
      <trkpt lat="46.34806" lon="1.29206">
        <ele>224.6</ele>
        <time>2023-05-02T12:11:43Z</time>
      </trkpt>
      <trkpt lat="46.34819" lon="1.29184">
        <ele>224.8</ele>
        <time>2023-05-02T12:11:47Z</time>
      </trkpt>
      <trkpt lat="46.34828" lon="1.29168">
        <ele>225</ele>
        <time>2023-05-02T12:11:50Z</time>
      </trkpt>
      <trkpt lat="46.34834" lon="1.29159">
        <ele>225</ele>
        <time>2023-05-02T12:11:52Z</time>
      </trkpt>
      <trkpt lat="46.34854" lon="1.29125">
        <ele>225.4</ele>
        <time>2023-05-02T12:11:59Z</time>
      </trkpt>
      <trkpt lat="46.34867" lon="1.29103">
        <ele>225.8</ele>
        <time>2023-05-02T12:12:04Z</time>
      </trkpt>
      <trkpt lat="46.34873" lon="1.29094">
        <ele>226</ele>
        <time>2023-05-02T12:12:06Z</time>
      </trkpt>
      <trkpt lat="46.34875" lon="1.2909">
        <ele>226.2</ele>
        <time>2023-05-02T12:12:07Z</time>
      </trkpt>
      <trkpt lat="46.34887" lon="1.29071">
        <ele>226.4</ele>
        <time>2023-05-02T12:12:11Z</time>
      </trkpt>
      <trkpt lat="46.3489" lon="1.29066">
        <ele>226.4</ele>
        <time>2023-05-02T12:12:12Z</time>
      </trkpt>
      <trkpt lat="46.3491" lon="1.29032">
        <ele>227.2</ele>
        <time>2023-05-02T12:12:19Z</time>
      </trkpt>
      <trkpt lat="46.34933" lon="1.29003">
        <ele>228</ele>
        <time>2023-05-02T12:12:26Z</time>
      </trkpt>
      <trkpt lat="46.34937" lon="1.28999">
        <ele>228.2</ele>
        <time>2023-05-02T12:12:27Z</time>
      </trkpt>
      <trkpt lat="46.3495" lon="1.28993">
        <ele>228.4</ele>
        <time>2023-05-02T12:12:30Z</time>
      </trkpt>
      <trkpt lat="46.34954" lon="1.28992">
        <ele>228.6</ele>
        <time>2023-05-02T12:12:31Z</time>
      </trkpt>
      <trkpt lat="46.34967" lon="1.28992">
        <ele>228.8</ele>
        <time>2023-05-02T12:12:34Z</time>
      </trkpt>
      <trkpt lat="46.34976" lon="1.28995">
        <ele>229</ele>
        <time>2023-05-02T12:12:36Z</time>
      </trkpt>
      <trkpt lat="46.35002" lon="1.29006">
        <ele>229.6</ele>
        <time>2023-05-02T12:12:42Z</time>
      </trkpt>
      <trkpt lat="46.35006" lon="1.29008">
        <ele>229.6</ele>
        <time>2023-05-02T12:12:43Z</time>
      </trkpt>
      <trkpt lat="46.35046" lon="1.29028">
        <ele>230.4</ele>
        <time>2023-05-02T12:12:52Z</time>
      </trkpt>
      <trkpt lat="46.35076" lon="1.29043">
        <ele>231.2</ele>
        <time>2023-05-02T12:12:59Z</time>
      </trkpt>
      <trkpt lat="46.35106" lon="1.29057">
        <ele>232</ele>
        <time>2023-05-02T12:13:06Z</time>
      </trkpt>
      <trkpt lat="46.35128" lon="1.29066">
        <ele>232.6</ele>
        <time>2023-05-02T12:13:11Z</time>
      </trkpt>
      <trkpt lat="46.35137" lon="1.29067">
        <ele>232.8</ele>
        <time>2023-05-02T12:13:13Z</time>
      </trkpt>
      <trkpt lat="46.35146" lon="1.29065">
        <ele>233</ele>
        <time>2023-05-02T12:13:15Z</time>
      </trkpt>
      <trkpt lat="46.3516" lon="1.29057">
        <ele>233.2</ele>
        <time>2023-05-02T12:13:18Z</time>
      </trkpt>
      <trkpt lat="46.35201" lon="1.29029">
        <ele>233.8</ele>
        <time>2023-05-02T12:13:26Z</time>
      </trkpt>
      <trkpt lat="46.35243" lon="1.28999">
        <ele>234.4</ele>
        <time>2023-05-02T12:13:34Z</time>
      </trkpt>
      <trkpt lat="46.35274" lon="1.28969">
        <ele>234.6</ele>
        <time>2023-05-02T12:13:40Z</time>
      </trkpt>
      <trkpt lat="46.35307" lon="1.28933">
        <ele>234.8</ele>
        <time>2023-05-02T12:13:47Z</time>
      </trkpt>
      <trkpt lat="46.35338" lon="1.28898">
        <ele>234.8</ele>
        <time>2023-05-02T12:13:53Z</time>
      </trkpt>
      <trkpt lat="46.35376" lon="1.28858">
        <ele>234</ele>
        <time>2023-05-02T12:13:59Z</time>
      </trkpt>
      <trkpt lat="46.35423" lon="1.28814">
        <ele>233.6</ele>
        <time>2023-05-02T12:14:05Z</time>
      </trkpt>
      <trkpt lat="46.35431" lon="1.28806">
        <ele>233.4</ele>
        <time>2023-05-02T12:14:06Z</time>
      </trkpt>
      <trkpt lat="46.35483" lon="1.28758">
        <ele>232.2</ele>
        <time>2023-05-02T12:14:12Z</time>
      </trkpt>
      <trkpt lat="46.35492" lon="1.28751">
        <ele>232</ele>
        <time>2023-05-02T12:14:13Z</time>
      </trkpt>
      <trkpt lat="46.35537" lon="1.28723">
        <ele>231.2</ele>
        <time>2023-05-02T12:14:18Z</time>
      </trkpt>
      <trkpt lat="46.35562" lon="1.28715">
        <ele>231</ele>
        <time>2023-05-02T12:14:21Z</time>
      </trkpt>
      <trkpt lat="46.35569" lon="1.28715">
        <ele>231</ele>
        <time>2023-05-02T12:14:22Z</time>
      </trkpt>
      <trkpt lat="46.35594" lon="1.28717">
        <ele>230.8</ele>
        <time>2023-05-02T12:14:26Z</time>
      </trkpt>
      <trkpt lat="46.35632" lon="1.28718">
        <ele>230.6</ele>
        <time>2023-05-02T12:14:33Z</time>
      </trkpt>
      <trkpt lat="46.35643" lon="1.28711">
        <ele>230.6</ele>
        <time>2023-05-02T12:14:35Z</time>
      </trkpt>
      <trkpt lat="46.35652" lon="1.28703">
        <ele>230.6</ele>
        <time>2023-05-02T12:14:37Z</time>
      </trkpt>
      <trkpt lat="46.3566" lon="1.2869">
        <ele>230.6</ele>
        <time>2023-05-02T12:14:39Z</time>
      </trkpt>
      <trkpt lat="46.35662" lon="1.28683">
        <ele>230.6</ele>
        <time>2023-05-02T12:14:40Z</time>
      </trkpt>
      <trkpt lat="46.35663" lon="1.28675">
        <ele>230.6</ele>
        <time>2023-05-02T12:14:41Z</time>
      </trkpt>
      <trkpt lat="46.35668" lon="1.28662">
        <ele>230.4</ele>
        <time>2023-05-02T12:14:43Z</time>
      </trkpt>
      <trkpt lat="46.35672" lon="1.28659">
        <ele>230.4</ele>
        <time>2023-05-02T12:14:44Z</time>
      </trkpt>
      <trkpt lat="46.35676" lon="1.2866">
        <ele>230.4</ele>
        <time>2023-05-02T12:14:45Z</time>
      </trkpt>
      <trkpt lat="46.35681" lon="1.28668">
        <ele>230.2</ele>
        <time>2023-05-02T12:14:47Z</time>
      </trkpt>
      <trkpt lat="46.3569" lon="1.28693">
        <ele>230</ele>
        <time>2023-05-02T12:14:52Z</time>
      </trkpt>
      <trkpt lat="46.35709" lon="1.28733">
        <ele>229.6</ele>
        <time>2023-05-02T12:14:59Z</time>
      </trkpt>
      <trkpt lat="46.35731" lon="1.28757">
        <ele>229.4</ele>
        <time>2023-05-02T12:15:05Z</time>
      </trkpt>
      <trkpt lat="46.35735" lon="1.28758">
        <ele>229.2</ele>
        <time>2023-05-02T12:15:06Z</time>
      </trkpt>
      <trkpt lat="46.35744" lon="1.28757">
        <ele>229.2</ele>
        <time>2023-05-02T12:15:08Z</time>
      </trkpt>
      <trkpt lat="46.35766" lon="1.28745">
        <ele>229</ele>
        <time>2023-05-02T12:15:14Z</time>
      </trkpt>
      <trkpt lat="46.35785" lon="1.28739">
        <ele>228.8</ele>
        <time>2023-05-02T12:15:20Z</time>
      </trkpt>
      <trkpt lat="46.35802" lon="1.28737">
        <ele>228.8</ele>
        <time>2023-05-02T12:15:25Z</time>
      </trkpt>
      <trkpt lat="46.3582" lon="1.28737">
        <ele>228.8</ele>
        <time>2023-05-02T12:15:30Z</time>
      </trkpt>
      <trkpt lat="46.3584" lon="1.28738">
        <ele>228.8</ele>
        <time>2023-05-02T12:15:35Z</time>
      </trkpt>
      <trkpt lat="46.35859" lon="1.28737">
        <ele>228.8</ele>
        <time>2023-05-02T12:15:40Z</time>
      </trkpt>
      <trkpt lat="46.35885" lon="1.28739">
        <ele>229</ele>
        <time>2023-05-02T12:15:46Z</time>
      </trkpt>
      <trkpt lat="46.35899" lon="1.28739">
        <ele>229.2</ele>
        <time>2023-05-02T12:15:49Z</time>
      </trkpt>
      <trkpt lat="46.35914" lon="1.28739">
        <ele>229.2</ele>
        <time>2023-05-02T12:15:52Z</time>
      </trkpt>
      <trkpt lat="46.35936" lon="1.2874">
        <ele>229.4</ele>
        <time>2023-05-02T12:15:56Z</time>
      </trkpt>
      <trkpt lat="46.35947" lon="1.28741">
        <ele>229.4</ele>
        <time>2023-05-02T12:15:58Z</time>
      </trkpt>
      <trkpt lat="46.35977" lon="1.28745">
        <ele>229.4</ele>
        <time>2023-05-02T12:16:04Z</time>
      </trkpt>
      <trkpt lat="46.35987" lon="1.28748">
        <ele>229.6</ele>
        <time>2023-05-02T12:16:06Z</time>
      </trkpt>
      <trkpt lat="46.36004" lon="1.28755">
        <ele>229.6</ele>
        <time>2023-05-02T12:16:09Z</time>
      </trkpt>
      <trkpt lat="46.3603" lon="1.28767">
        <ele>229.6</ele>
        <time>2023-05-02T12:16:14Z</time>
      </trkpt>
      <trkpt lat="46.36041" lon="1.28771">
        <ele>229.6</ele>
        <time>2023-05-02T12:16:16Z</time>
      </trkpt>
      <trkpt lat="46.36062" lon="1.28778">
        <ele>229.6</ele>
        <time>2023-05-02T12:16:20Z</time>
      </trkpt>
      <trkpt lat="46.36094" lon="1.2879">
        <ele>229.6</ele>
        <time>2023-05-02T12:16:26Z</time>
      </trkpt>
      <trkpt lat="46.36128" lon="1.28797">
        <ele>229.6</ele>
        <time>2023-05-02T12:16:32Z</time>
      </trkpt>
      <trkpt lat="46.36139" lon="1.28802">
        <ele>229.4</ele>
        <time>2023-05-02T12:16:34Z</time>
      </trkpt>
      <trkpt lat="46.36148" lon="1.2881">
        <ele>229.6</ele>
        <time>2023-05-02T12:16:36Z</time>
      </trkpt>
      <trkpt lat="46.36152" lon="1.28814">
        <ele>229.6</ele>
        <time>2023-05-02T12:16:37Z</time>
      </trkpt>
      <trkpt lat="46.36165" lon="1.28833">
        <ele>229.4</ele>
        <time>2023-05-02T12:16:41Z</time>
      </trkpt>
      <trkpt lat="46.36182" lon="1.28857">
        <ele>229.2</ele>
        <time>2023-05-02T12:16:46Z</time>
      </trkpt>
      <trkpt lat="46.36208" lon="1.28898">
        <ele>228</ele>
        <time>2023-05-02T12:16:54Z</time>
      </trkpt>
      <trkpt lat="46.36214" lon="1.28909">
        <ele>228</ele>
        <time>2023-05-02T12:16:56Z</time>
      </trkpt>
      <trkpt lat="46.36222" lon="1.28923">
        <ele>227.6</ele>
        <time>2023-05-02T12:16:59Z</time>
      </trkpt>
      <trkpt lat="46.36225" lon="1.28928">
        <ele>227.6</ele>
        <time>2023-05-02T12:17:00Z</time>
      </trkpt>
      <trkpt lat="46.36227" lon="1.28933">
        <ele>227.4</ele>
        <time>2023-05-02T12:17:01Z</time>
      </trkpt>
      <trkpt lat="46.36238" lon="1.28943">
        <ele>227.4</ele>
        <time>2023-05-02T12:17:04Z</time>
      </trkpt>
      <trkpt lat="46.36247" lon="1.28945">
        <ele>227.2</ele>
        <time>2023-05-02T12:17:06Z</time>
      </trkpt>
      <trkpt lat="46.36251" lon="1.28943">
        <ele>227.2</ele>
        <time>2023-05-02T12:17:07Z</time>
      </trkpt>
      <trkpt lat="46.36264" lon="1.28932">
        <ele>226.8</ele>
        <time>2023-05-02T12:17:11Z</time>
      </trkpt>
      <trkpt lat="46.36272" lon="1.28926">
        <ele>226.6</ele>
        <time>2023-05-02T12:17:13Z</time>
      </trkpt>
      <trkpt lat="46.36276" lon="1.28922">
        <ele>226.6</ele>
        <time>2023-05-02T12:17:14Z</time>
      </trkpt>
      <trkpt lat="46.36279" lon="1.28919">
        <ele>226.4</ele>
        <time>2023-05-02T12:17:15Z</time>
      </trkpt>
      <trkpt lat="46.36286" lon="1.28911">
        <ele>226.2</ele>
        <time>2023-05-02T12:17:17Z</time>
      </trkpt>
      <trkpt lat="46.3629" lon="1.28907">
        <ele>226.2</ele>
        <time>2023-05-02T12:17:18Z</time>
      </trkpt>
      <trkpt lat="46.36294" lon="1.28904">
        <ele>226</ele>
        <time>2023-05-02T12:17:19Z</time>
      </trkpt>
      <trkpt lat="46.36309" lon="1.28891">
        <ele>225.8</ele>
        <time>2023-05-02T12:17:23Z</time>
      </trkpt>
      <trkpt lat="46.36337" lon="1.28865">
        <ele>226</ele>
        <time>2023-05-02T12:17:30Z</time>
      </trkpt>
      <trkpt lat="46.36374" lon="1.28844">
        <ele>226.6</ele>
        <time>2023-05-02T12:17:38Z</time>
      </trkpt>
      <trkpt lat="46.36394" lon="1.28834">
        <ele>227.2</ele>
        <time>2023-05-02T12:17:42Z</time>
      </trkpt>
      <trkpt lat="46.36403" lon="1.2883">
        <ele>227.6</ele>
        <time>2023-05-02T12:17:44Z</time>
      </trkpt>
      <trkpt lat="46.3643" lon="1.28818">
        <ele>228</ele>
        <time>2023-05-02T12:17:50Z</time>
      </trkpt>
      <trkpt lat="46.36448" lon="1.2881">
        <ele>228.2</ele>
        <time>2023-05-02T12:17:54Z</time>
      </trkpt>
      <trkpt lat="46.36453" lon="1.28808">
        <ele>228.2</ele>
        <time>2023-05-02T12:17:55Z</time>
      </trkpt>
      <trkpt lat="46.36475" lon="1.28802">
        <ele>228.4</ele>
        <time>2023-05-02T12:18:00Z</time>
      </trkpt>
      <trkpt lat="46.3648" lon="1.28802">
        <ele>228.6</ele>
        <time>2023-05-02T12:18:01Z</time>
      </trkpt>
      <trkpt lat="46.36489" lon="1.28803">
        <ele>228.6</ele>
        <time>2023-05-02T12:18:03Z</time>
      </trkpt>
      <trkpt lat="46.36502" lon="1.28811">
        <ele>228.8</ele>
        <time>2023-05-02T12:18:06Z</time>
      </trkpt>
      <trkpt lat="46.36536" lon="1.28831">
        <ele>229.8</ele>
        <time>2023-05-02T12:18:14Z</time>
      </trkpt>
      <trkpt lat="46.3657" lon="1.28852">
        <ele>230.4</ele>
        <time>2023-05-02T12:18:22Z</time>
      </trkpt>
      <trkpt lat="46.36602" lon="1.28872">
        <ele>231.2</ele>
        <time>2023-05-02T12:18:30Z</time>
      </trkpt>
      <trkpt lat="46.36615" lon="1.28872">
        <ele>231.6</ele>
        <time>2023-05-02T12:18:34Z</time>
      </trkpt>
      <trkpt lat="46.36631" lon="1.28855">
        <ele>231.8</ele>
        <time>2023-05-02T12:18:39Z</time>
      </trkpt>
      <trkpt lat="46.36634" lon="1.2885">
        <ele>231.8</ele>
        <time>2023-05-02T12:18:40Z</time>
      </trkpt>
      <trkpt lat="46.36652" lon="1.28827">
        <ele>232.2</ele>
        <time>2023-05-02T12:18:45Z</time>
      </trkpt>
      <trkpt lat="46.36685" lon="1.28786">
        <ele>232.4</ele>
        <time>2023-05-02T12:18:53Z</time>
      </trkpt>
      <trkpt lat="46.36719" lon="1.2874">
        <ele>233</ele>
        <time>2023-05-02T12:19:01Z</time>
      </trkpt>
      <trkpt lat="46.36732" lon="1.28723">
        <ele>233.2</ele>
        <time>2023-05-02T12:19:04Z</time>
      </trkpt>
      <trkpt lat="46.3675" lon="1.287">
        <ele>233.4</ele>
        <time>2023-05-02T12:19:08Z</time>
      </trkpt>
      <trkpt lat="46.3677" lon="1.28672">
        <ele>233.6</ele>
        <time>2023-05-02T12:19:13Z</time>
      </trkpt>
      <trkpt lat="46.36773" lon="1.28666">
        <ele>233.6</ele>
        <time>2023-05-02T12:19:14Z</time>
      </trkpt>
      <trkpt lat="46.36782" lon="1.28655">
        <ele>233.6</ele>
        <time>2023-05-02T12:19:16Z</time>
      </trkpt>
      <trkpt lat="46.36794" lon="1.28638">
        <ele>233.6</ele>
        <time>2023-05-02T12:19:19Z</time>
      </trkpt>
      <trkpt lat="46.36799" lon="1.28632">
        <ele>233.6</ele>
        <time>2023-05-02T12:19:20Z</time>
      </trkpt>
      <trkpt lat="46.36813" lon="1.28615">
        <ele>233.6</ele>
        <time>2023-05-02T12:19:23Z</time>
      </trkpt>
      <trkpt lat="46.36818" lon="1.28609">
        <ele>233.6</ele>
        <time>2023-05-02T12:19:24Z</time>
      </trkpt>
      <trkpt lat="46.36834" lon="1.28591">
        <ele>233.4</ele>
        <time>2023-05-02T12:19:27Z</time>
      </trkpt>
      <trkpt lat="46.36861" lon="1.28556">
        <ele>233</ele>
        <time>2023-05-02T12:19:33Z</time>
      </trkpt>
      <trkpt lat="46.36893" lon="1.28514">
        <ele>232.8</ele>
        <time>2023-05-02T12:19:40Z</time>
      </trkpt>
      <trkpt lat="46.36915" lon="1.28472">
        <ele>232.8</ele>
        <time>2023-05-02T12:19:46Z</time>
      </trkpt>
      <trkpt lat="46.36928" lon="1.28442">
        <ele>232.4</ele>
        <time>2023-05-02T12:19:50Z</time>
      </trkpt>
      <trkpt lat="46.36935" lon="1.28418">
        <ele>232.6</ele>
        <time>2023-05-02T12:19:53Z</time>
      </trkpt>
      <trkpt lat="46.36948" lon="1.28367">
        <ele>233.2</ele>
        <time>2023-05-02T12:19:59Z</time>
      </trkpt>
      <trkpt lat="46.36964" lon="1.28306">
        <ele>233.2</ele>
        <time>2023-05-02T12:20:06Z</time>
      </trkpt>
      <trkpt lat="46.36985" lon="1.28224">
        <ele>233.6</ele>
        <time>2023-05-02T12:20:15Z</time>
      </trkpt>
      <trkpt lat="46.36988" lon="1.28215">
        <ele>233.6</ele>
        <time>2023-05-02T12:20:16Z</time>
      </trkpt>
      <trkpt lat="46.37001" lon="1.28157">
        <ele>234</ele>
        <time>2023-05-02T12:20:23Z</time>
      </trkpt>
      <trkpt lat="46.37017" lon="1.28095">
        <ele>234.4</ele>
        <time>2023-05-02T12:20:31Z</time>
      </trkpt>
      <trkpt lat="46.37022" lon="1.28075">
        <ele>234.4</ele>
        <time>2023-05-02T12:20:34Z</time>
      </trkpt>
      <trkpt lat="46.37029" lon="1.28069">
        <ele>234.6</ele>
        <time>2023-05-02T12:20:36Z</time>
      </trkpt>
      <trkpt lat="46.37036" lon="1.28075">
        <ele>234.6</ele>
        <time>2023-05-02T12:20:38Z</time>
      </trkpt>
      <trkpt lat="46.37038" lon="1.2808">
        <ele>234.6</ele>
        <time>2023-05-02T12:20:39Z</time>
      </trkpt>
      <trkpt lat="46.3704" lon="1.28085">
        <ele>234.6</ele>
        <time>2023-05-02T12:20:40Z</time>
      </trkpt>
      <trkpt lat="46.37051" lon="1.28108">
        <ele>234.8</ele>
        <time>2023-05-02T12:20:44Z</time>
      </trkpt>
      <trkpt lat="46.37075" lon="1.28151">
        <ele>235</ele>
        <time>2023-05-02T12:20:51Z</time>
      </trkpt>
      <trkpt lat="46.37089" lon="1.28176">
        <ele>235</ele>
        <time>2023-05-02T12:20:55Z</time>
      </trkpt>
      <trkpt lat="46.37092" lon="1.28183">
        <ele>235</ele>
        <time>2023-05-02T12:20:56Z</time>
      </trkpt>
      <trkpt lat="46.37095" lon="1.2819">
        <ele>235</ele>
        <time>2023-05-02T12:20:57Z</time>
      </trkpt>
      <trkpt lat="46.3711" lon="1.28217">
        <ele>235</ele>
        <time>2023-05-02T12:21:01Z</time>
      </trkpt>
      <trkpt lat="46.37129" lon="1.28248">
        <ele>235</ele>
        <time>2023-05-02T12:21:06Z</time>
      </trkpt>
      <trkpt lat="46.37134" lon="1.28254">
        <ele>235</ele>
        <time>2023-05-02T12:21:07Z</time>
      </trkpt>
      <trkpt lat="46.37139" lon="1.28258">
        <ele>235</ele>
        <time>2023-05-02T12:21:08Z</time>
      </trkpt>
      <trkpt lat="46.37155" lon="1.28268">
        <ele>234.8</ele>
        <time>2023-05-02T12:21:11Z</time>
      </trkpt>
      <trkpt lat="46.3717" lon="1.28276">
        <ele>234.6</ele>
        <time>2023-05-02T12:21:14Z</time>
      </trkpt>
      <trkpt lat="46.37175" lon="1.28279">
        <ele>234.4</ele>
        <time>2023-05-02T12:21:15Z</time>
      </trkpt>
      <trkpt lat="46.37193" lon="1.28292">
        <ele>234.2</ele>
        <time>2023-05-02T12:21:19Z</time>
      </trkpt>
      <trkpt lat="46.37204" lon="1.28302">
        <ele>234.2</ele>
        <time>2023-05-02T12:21:23Z</time>
      </trkpt>
      <trkpt lat="46.37205" lon="1.283">
        <ele>234</ele>
        <time>2023-05-02T12:21:27Z</time>
      </trkpt>
      <trkpt lat="46.37204" lon="1.28298">
        <ele>234</ele>
        <time>2023-05-02T12:21:29Z</time>
      </trkpt>
      <trkpt lat="46.372" lon="1.28296">
        <ele>234</ele>
        <time>2023-05-02T12:21:32Z</time>
      </trkpt>
      <trkpt lat="46.37192" lon="1.28289">
        <ele>234</ele>
        <time>2023-05-02T12:21:36Z</time>
      </trkpt>
      <trkpt lat="46.37176" lon="1.28281">
        <ele>233.8</ele>
        <time>2023-05-02T12:21:41Z</time>
      </trkpt>
      <trkpt lat="46.37162" lon="1.28273">
        <ele>234</ele>
        <time>2023-05-02T12:21:46Z</time>
      </trkpt>
      <trkpt lat="46.3716" lon="1.28269">
        <ele>234</ele>
        <time>2023-05-02T12:21:47Z</time>
      </trkpt>
      <trkpt lat="46.37164" lon="1.28261">
        <ele>234.2</ele>
        <time>2023-05-02T12:21:50Z</time>
      </trkpt>
      <trkpt lat="46.37177" lon="1.28258">
        <ele>234.4</ele>
        <time>2023-05-02T12:21:54Z</time>
      </trkpt>
      <trkpt lat="46.37193" lon="1.28258">
        <ele>234.6</ele>
        <time>2023-05-02T12:21:58Z</time>
      </trkpt>
      <trkpt lat="46.37197" lon="1.28258">
        <ele>234.6</ele>
        <time>2023-05-02T12:21:59Z</time>
      </trkpt>
      <trkpt lat="46.37202" lon="1.28258">
        <ele>234.6</ele>
        <time>2023-05-02T12:22:00Z</time>
      </trkpt>
      <trkpt lat="46.37217" lon="1.28258">
        <ele>234.8</ele>
        <time>2023-05-02T12:22:03Z</time>
      </trkpt>
      <trkpt lat="46.37243" lon="1.28257">
        <ele>234.8</ele>
        <time>2023-05-02T12:22:08Z</time>
      </trkpt>
      <trkpt lat="46.37269" lon="1.28257">
        <ele>235</ele>
        <time>2023-05-02T12:22:13Z</time>
      </trkpt>
      <trkpt lat="46.37273" lon="1.28256">
        <ele>235</ele>
        <time>2023-05-02T12:22:14Z</time>
      </trkpt>
      <trkpt lat="46.37277" lon="1.28256">
        <ele>235</ele>
        <time>2023-05-02T12:22:15Z</time>
      </trkpt>
      <trkpt lat="46.37297" lon="1.28255">
        <ele>234.8</ele>
        <time>2023-05-02T12:22:19Z</time>
      </trkpt>
      <trkpt lat="46.37313" lon="1.28252">
        <ele>234.8</ele>
        <time>2023-05-02T12:22:22Z</time>
      </trkpt>
      <trkpt lat="46.37322" lon="1.28247">
        <ele>235</ele>
        <time>2023-05-02T12:22:24Z</time>
      </trkpt>
      <trkpt lat="46.37331" lon="1.28241">
        <ele>234.4</ele>
        <time>2023-05-02T12:22:26Z</time>
      </trkpt>
      <trkpt lat="46.37346" lon="1.28229">
        <ele>234.6</ele>
        <time>2023-05-02T12:22:29Z</time>
      </trkpt>
      <trkpt lat="46.37371" lon="1.2821">
        <ele>234.6</ele>
        <time>2023-05-02T12:22:34Z</time>
      </trkpt>
      <trkpt lat="46.37395" lon="1.28192">
        <ele>234.4</ele>
        <time>2023-05-02T12:22:39Z</time>
      </trkpt>
      <trkpt lat="46.37429" lon="1.28164">
        <ele>233.8</ele>
        <time>2023-05-02T12:22:46Z</time>
      </trkpt>
      <trkpt lat="46.37466" lon="1.28133">
        <ele>233.2</ele>
        <time>2023-05-02T12:22:53Z</time>
      </trkpt>
      <trkpt lat="46.37478" lon="1.28125">
        <ele>233.2</ele>
        <time>2023-05-02T12:22:55Z</time>
      </trkpt>
      <trkpt lat="46.3749" lon="1.28117">
        <ele>233</ele>
        <time>2023-05-02T12:22:57Z</time>
      </trkpt>
      <trkpt lat="46.37512" lon="1.28101">
        <ele>232.6</ele>
        <time>2023-05-02T12:23:01Z</time>
      </trkpt>
      <trkpt lat="46.37517" lon="1.28096">
        <ele>232.4</ele>
        <time>2023-05-02T12:23:02Z</time>
      </trkpt>
      <trkpt lat="46.37538" lon="1.28079">
        <ele>232</ele>
        <time>2023-05-02T12:23:06Z</time>
      </trkpt>
      <trkpt lat="46.37543" lon="1.28075">
        <ele>231.8</ele>
        <time>2023-05-02T12:23:07Z</time>
      </trkpt>
      <trkpt lat="46.37552" lon="1.28067">
        <ele>231.4</ele>
        <time>2023-05-02T12:23:09Z</time>
      </trkpt>
      <trkpt lat="46.37584" lon="1.2804">
        <ele>231</ele>
        <time>2023-05-02T12:23:15Z</time>
      </trkpt>
      <trkpt lat="46.376" lon="1.28029">
        <ele>230.6</ele>
        <time>2023-05-02T12:23:18Z</time>
      </trkpt>
      <trkpt lat="46.37609" lon="1.28019">
        <ele>230.2</ele>
        <time>2023-05-02T12:23:20Z</time>
      </trkpt>
      <trkpt lat="46.37629" lon="1.28005">
        <ele>229.8</ele>
        <time>2023-05-02T12:23:24Z</time>
      </trkpt>
      <trkpt lat="46.37651" lon="1.27986">
        <ele>229.4</ele>
        <time>2023-05-02T12:23:28Z</time>
      </trkpt>
      <trkpt lat="46.37656" lon="1.27981">
        <ele>229.4</ele>
        <time>2023-05-02T12:23:29Z</time>
      </trkpt>
      <trkpt lat="46.37666" lon="1.27972">
        <ele>229</ele>
        <time>2023-05-02T12:23:31Z</time>
      </trkpt>
      <trkpt lat="46.37674" lon="1.27962">
        <ele>228.8</ele>
        <time>2023-05-02T12:23:33Z</time>
      </trkpt>
      <trkpt lat="46.37693" lon="1.27938">
        <ele>228.2</ele>
        <time>2023-05-02T12:23:38Z</time>
      </trkpt>
      <trkpt lat="46.37718" lon="1.27907">
        <ele>227.8</ele>
        <time>2023-05-02T12:23:44Z</time>
      </trkpt>
      <trkpt lat="46.37722" lon="1.27902">
        <ele>227.8</ele>
        <time>2023-05-02T12:23:45Z</time>
      </trkpt>
      <trkpt lat="46.37733" lon="1.27886">
        <ele>227.4</ele>
        <time>2023-05-02T12:23:48Z</time>
      </trkpt>
      <trkpt lat="46.37755" lon="1.27863">
        <ele>226.8</ele>
        <time>2023-05-02T12:23:53Z</time>
      </trkpt>
      <trkpt lat="46.37763" lon="1.27855">
        <ele>226.4</ele>
        <time>2023-05-02T12:23:55Z</time>
      </trkpt>
      <trkpt lat="46.37778" lon="1.27844">
        <ele>225.8</ele>
        <time>2023-05-02T12:23:58Z</time>
      </trkpt>
      <trkpt lat="46.37796" lon="1.2783">
        <ele>225.2</ele>
        <time>2023-05-02T12:24:02Z</time>
      </trkpt>
      <trkpt lat="46.3782" lon="1.2781">
        <ele>224.2</ele>
        <time>2023-05-02T12:24:07Z</time>
      </trkpt>
      <trkpt lat="46.37824" lon="1.27807">
        <ele>224</ele>
        <time>2023-05-02T12:24:08Z</time>
      </trkpt>
      <trkpt lat="46.37849" lon="1.27787">
        <ele>223.2</ele>
        <time>2023-05-02T12:24:13Z</time>
      </trkpt>
      <trkpt lat="46.37852" lon="1.27783">
        <ele>223</ele>
        <time>2023-05-02T12:24:14Z</time>
      </trkpt>
      <trkpt lat="46.37875" lon="1.27765">
        <ele>222.4</ele>
        <time>2023-05-02T12:24:19Z</time>
      </trkpt>
      <trkpt lat="46.3788" lon="1.27763">
        <ele>222.4</ele>
        <time>2023-05-02T12:24:20Z</time>
      </trkpt>
      <trkpt lat="46.37889" lon="1.27757">
        <ele>222.2</ele>
        <time>2023-05-02T12:24:22Z</time>
      </trkpt>
      <trkpt lat="46.37902" lon="1.27745">
        <ele>222.2</ele>
        <time>2023-05-02T12:24:25Z</time>
      </trkpt>
      <trkpt lat="46.37911" lon="1.27738">
        <ele>222</ele>
        <time>2023-05-02T12:24:27Z</time>
      </trkpt>
      <trkpt lat="46.37946" lon="1.2771">
        <ele>222</ele>
        <time>2023-05-02T12:24:34Z</time>
      </trkpt>
      <trkpt lat="46.37961" lon="1.27701">
        <ele>222</ele>
        <time>2023-05-02T12:24:37Z</time>
      </trkpt>
      <trkpt lat="46.37971" lon="1.27695">
        <ele>222</ele>
        <time>2023-05-02T12:24:39Z</time>
      </trkpt>
      <trkpt lat="46.3798" lon="1.27689">
        <ele>221.8</ele>
        <time>2023-05-02T12:24:41Z</time>
      </trkpt>
      <trkpt lat="46.3799" lon="1.27683">
        <ele>221.6</ele>
        <time>2023-05-02T12:24:43Z</time>
      </trkpt>
      <trkpt lat="46.38007" lon="1.27667">
        <ele>221.4</ele>
        <time>2023-05-02T12:24:47Z</time>
      </trkpt>
      <trkpt lat="46.3801" lon="1.27663">
        <ele>221.4</ele>
        <time>2023-05-02T12:24:48Z</time>
      </trkpt>
      <trkpt lat="46.38023" lon="1.27651">
        <ele>221.4</ele>
        <time>2023-05-02T12:24:51Z</time>
      </trkpt>
      <trkpt lat="46.38045" lon="1.27628">
        <ele>222.2</ele>
        <time>2023-05-02T12:24:56Z</time>
      </trkpt>
      <trkpt lat="46.38059" lon="1.27616">
        <ele>222.2</ele>
        <time>2023-05-02T12:24:59Z</time>
      </trkpt>
      <trkpt lat="46.38068" lon="1.27607">
        <ele>222.4</ele>
        <time>2023-05-02T12:25:01Z</time>
      </trkpt>
      <trkpt lat="46.38098" lon="1.27582">
        <ele>222.6</ele>
        <time>2023-05-02T12:25:07Z</time>
      </trkpt>
      <trkpt lat="46.38126" lon="1.27558">
        <ele>222.8</ele>
        <time>2023-05-02T12:25:13Z</time>
      </trkpt>
      <trkpt lat="46.38165" lon="1.27525">
        <ele>223.2</ele>
        <time>2023-05-02T12:25:21Z</time>
      </trkpt>
      <trkpt lat="46.38174" lon="1.27517">
        <ele>223.4</ele>
        <time>2023-05-02T12:25:23Z</time>
      </trkpt>
      <trkpt lat="46.38183" lon="1.27508">
        <ele>223.4</ele>
        <time>2023-05-02T12:25:25Z</time>
      </trkpt>
      <trkpt lat="46.38211" lon="1.27485">
        <ele>223.6</ele>
        <time>2023-05-02T12:25:31Z</time>
      </trkpt>
      <trkpt lat="46.38224" lon="1.27473">
        <ele>223.6</ele>
        <time>2023-05-02T12:25:34Z</time>
      </trkpt>
      <trkpt lat="46.38233" lon="1.27467">
        <ele>223.6</ele>
        <time>2023-05-02T12:25:36Z</time>
      </trkpt>
      <trkpt lat="46.38238" lon="1.27465">
        <ele>223.6</ele>
        <time>2023-05-02T12:25:37Z</time>
      </trkpt>
      <trkpt lat="46.38251" lon="1.27461">
        <ele>223.6</ele>
        <time>2023-05-02T12:25:40Z</time>
      </trkpt>
      <trkpt lat="46.38278" lon="1.27455">
        <ele>222.8</ele>
        <time>2023-05-02T12:25:45Z</time>
      </trkpt>
      <trkpt lat="46.38313" lon="1.27443">
        <ele>222.6</ele>
        <time>2023-05-02T12:25:52Z</time>
      </trkpt>
      <trkpt lat="46.38331" lon="1.27436">
        <ele>222.2</ele>
        <time>2023-05-02T12:25:56Z</time>
      </trkpt>
      <trkpt lat="46.38336" lon="1.27434">
        <ele>222.2</ele>
        <time>2023-05-02T12:25:57Z</time>
      </trkpt>
      <trkpt lat="46.3835" lon="1.27429">
        <ele>222.2</ele>
        <time>2023-05-02T12:26:00Z</time>
      </trkpt>
      <trkpt lat="46.38355" lon="1.27427">
        <ele>222.2</ele>
        <time>2023-05-02T12:26:01Z</time>
      </trkpt>
      <trkpt lat="46.38375" lon="1.2742">
        <ele>222.2</ele>
        <time>2023-05-02T12:26:05Z</time>
      </trkpt>
      <trkpt lat="46.38399" lon="1.27412">
        <ele>222.2</ele>
        <time>2023-05-02T12:26:10Z</time>
      </trkpt>
      <trkpt lat="46.38404" lon="1.27411">
        <ele>222.2</ele>
        <time>2023-05-02T12:26:11Z</time>
      </trkpt>
      <trkpt lat="46.38424" lon="1.27405">
        <ele>222</ele>
        <time>2023-05-02T12:26:15Z</time>
      </trkpt>
      <trkpt lat="46.38447" lon="1.27396">
        <ele>222.2</ele>
        <time>2023-05-02T12:26:20Z</time>
      </trkpt>
      <trkpt lat="46.38452" lon="1.27394">
        <ele>222.2</ele>
        <time>2023-05-02T12:26:21Z</time>
      </trkpt>
      <trkpt lat="46.38479" lon="1.27384">
        <ele>222.4</ele>
        <time>2023-05-02T12:26:26Z</time>
      </trkpt>
      <trkpt lat="46.38495" lon="1.27377">
        <ele>222.4</ele>
        <time>2023-05-02T12:26:29Z</time>
      </trkpt>
      <trkpt lat="46.38503" lon="1.27373">
        <ele>222.6</ele>
        <time>2023-05-02T12:26:31Z</time>
      </trkpt>
      <trkpt lat="46.38521" lon="1.27367">
        <ele>222.6</ele>
        <time>2023-05-02T12:26:35Z</time>
      </trkpt>
      <trkpt lat="46.38548" lon="1.27357">
        <ele>222.6</ele>
        <time>2023-05-02T12:26:41Z</time>
      </trkpt>
      <trkpt lat="46.38561" lon="1.27352">
        <ele>222.6</ele>
        <time>2023-05-02T12:26:44Z</time>
      </trkpt>
      <trkpt lat="46.38571" lon="1.2735">
        <ele>222.6</ele>
        <time>2023-05-02T12:26:46Z</time>
      </trkpt>
      <trkpt lat="46.38597" lon="1.27346">
        <ele>222.6</ele>
        <time>2023-05-02T12:26:51Z</time>
      </trkpt>
      <trkpt lat="46.38629" lon="1.2734">
        <ele>222.8</ele>
        <time>2023-05-02T12:26:57Z</time>
      </trkpt>
      <trkpt lat="46.38664" lon="1.27331">
        <ele>223</ele>
        <time>2023-05-02T12:27:03Z</time>
      </trkpt>
      <trkpt lat="46.3867" lon="1.27329">
        <ele>223</ele>
        <time>2023-05-02T12:27:04Z</time>
      </trkpt>
      <trkpt lat="46.38685" lon="1.27324">
        <ele>223</ele>
        <time>2023-05-02T12:27:07Z</time>
      </trkpt>
      <trkpt lat="46.38715" lon="1.27313">
        <ele>223</ele>
        <time>2023-05-02T12:27:13Z</time>
      </trkpt>
      <trkpt lat="46.38731" lon="1.27307">
        <ele>223</ele>
        <time>2023-05-02T12:27:17Z</time>
      </trkpt>
      <trkpt lat="46.38738" lon="1.27301">
        <ele>223.2</ele>
        <time>2023-05-02T12:27:22Z</time>
      </trkpt>
      <trkpt lat="46.38738" lon="1.273">
        <ele>223.2</ele>
        <time>2023-05-02T12:27:23Z</time>
      </trkpt>
      <trkpt lat="46.38744" lon="1.27298">
        <ele>224.8</ele>
        <time>2023-05-02T12:28:43Z</time>
      </trkpt>
      <trkpt lat="46.38748" lon="1.27298">
        <ele>225</ele>
        <time>2023-05-02T12:28:45Z</time>
      </trkpt>
      <trkpt lat="46.3876" lon="1.27294">
        <ele>225.2</ele>
        <time>2023-05-02T12:28:50Z</time>
      </trkpt>
      <trkpt lat="46.38779" lon="1.27287">
        <ele>225.2</ele>
        <time>2023-05-02T12:28:56Z</time>
      </trkpt>
      <trkpt lat="46.38801" lon="1.27283">
        <ele>225.2</ele>
        <time>2023-05-02T12:29:02Z</time>
      </trkpt>
      <trkpt lat="46.38818" lon="1.27278">
        <ele>225.2</ele>
        <time>2023-05-02T12:29:07Z</time>
      </trkpt>
      <trkpt lat="46.38832" lon="1.27275">
        <ele>225.4</ele>
        <time>2023-05-02T12:29:11Z</time>
      </trkpt>
      <trkpt lat="46.3885" lon="1.2727">
        <ele>225.6</ele>
        <time>2023-05-02T12:29:17Z</time>
      </trkpt>
      <trkpt lat="46.38875" lon="1.27259">
        <ele>225.8</ele>
        <time>2023-05-02T12:29:25Z</time>
      </trkpt>
      <trkpt lat="46.38891" lon="1.27252">
        <ele>226</ele>
        <time>2023-05-02T12:29:30Z</time>
      </trkpt>
      <trkpt lat="46.38905" lon="1.27239">
        <ele>226.2</ele>
        <time>2023-05-02T12:29:36Z</time>
      </trkpt>
      <trkpt lat="46.3892" lon="1.27231">
        <ele>226.6</ele>
        <time>2023-05-02T12:29:42Z</time>
      </trkpt>
      <trkpt lat="46.38926" lon="1.27227">
        <ele>226.8</ele>
        <time>2023-05-02T12:29:46Z</time>
      </trkpt>
      <trkpt lat="46.38926" lon="1.27227">
        <ele>226.8</ele>
        <time>2023-05-02T12:29:47Z</time>
      </trkpt>
      <trkpt lat="46.38923" lon="1.27228">
        <ele>227</ele>
        <time>2023-05-02T12:30:06Z</time>
      </trkpt>
      <trkpt lat="46.38919" lon="1.2723">
        <ele>227.2</ele>
        <time>2023-05-02T12:30:08Z</time>
      </trkpt>
      <trkpt lat="46.38909" lon="1.2724">
        <ele>227.4</ele>
        <time>2023-05-02T12:30:13Z</time>
      </trkpt>
      <trkpt lat="46.38893" lon="1.27252">
        <ele>227.4</ele>
        <time>2023-05-02T12:30:20Z</time>
      </trkpt>
      <trkpt lat="46.38876" lon="1.2726">
        <ele>227.4</ele>
        <time>2023-05-02T12:30:26Z</time>
      </trkpt>
      <trkpt lat="46.38857" lon="1.27268">
        <ele>227.4</ele>
        <time>2023-05-02T12:30:33Z</time>
      </trkpt>
      <trkpt lat="46.3884" lon="1.27275">
        <ele>227.4</ele>
        <time>2023-05-02T12:30:39Z</time>
      </trkpt>
      <trkpt lat="46.38826" lon="1.27277">
        <ele>227.2</ele>
        <time>2023-05-02T12:30:44Z</time>
      </trkpt>
      <trkpt lat="46.38809" lon="1.27281">
        <ele>227</ele>
        <time>2023-05-02T12:30:50Z</time>
      </trkpt>
      <trkpt lat="46.3879" lon="1.27286">
        <ele>226.6</ele>
        <time>2023-05-02T12:30:56Z</time>
      </trkpt>
      <trkpt lat="46.38771" lon="1.27289">
        <ele>226</ele>
        <time>2023-05-02T12:31:02Z</time>
      </trkpt>
      <trkpt lat="46.38754" lon="1.27293">
        <ele>225.6</ele>
        <time>2023-05-02T12:31:08Z</time>
      </trkpt>
      <trkpt lat="46.38742" lon="1.27295">
        <ele>225.2</ele>
        <time>2023-05-02T12:31:13Z</time>
      </trkpt>
      <trkpt lat="46.38741" lon="1.27294">
        <ele>225.4</ele>
        <time>2023-05-02T12:31:16Z</time>
      </trkpt>
      <trkpt lat="46.3874" lon="1.27293">
        <ele>224</ele>
        <time>2023-05-02T12:33:38Z</time>
      </trkpt>
      <trkpt lat="46.38739" lon="1.27285">
        <ele>224.2</ele>
        <time>2023-05-02T12:33:41Z</time>
      </trkpt>
      <trkpt lat="46.38738" lon="1.2728">
        <ele>224.4</ele>
        <time>2023-05-02T12:33:43Z</time>
      </trkpt>
      <trkpt lat="46.38737" lon="1.27273">
        <ele>224.4</ele>
        <time>2023-05-02T12:33:45Z</time>
      </trkpt>
      <trkpt lat="46.38738" lon="1.27262">
        <ele>224.6</ele>
        <time>2023-05-02T12:33:48Z</time>
      </trkpt>
      <trkpt lat="46.38737" lon="1.27235">
        <ele>224.6</ele>
        <time>2023-05-02T12:33:53Z</time>
      </trkpt>
      <trkpt lat="46.38736" lon="1.27196">
        <ele>224.6</ele>
        <time>2023-05-02T12:33:59Z</time>
      </trkpt>
      <trkpt lat="46.38737" lon="1.2714">
        <ele>224.6</ele>
        <time>2023-05-02T12:34:06Z</time>
      </trkpt>
      <trkpt lat="46.38738" lon="1.27064">
        <ele>224.4</ele>
        <time>2023-05-02T12:34:15Z</time>
      </trkpt>
      <trkpt lat="46.38742" lon="1.27012">
        <ele>224</ele>
        <time>2023-05-02T12:34:21Z</time>
      </trkpt>
      <trkpt lat="46.38748" lon="1.26956">
        <ele>224</ele>
        <time>2023-05-02T12:34:28Z</time>
      </trkpt>
      <trkpt lat="46.38753" lon="1.26908">
        <ele>224</ele>
        <time>2023-05-02T12:34:34Z</time>
      </trkpt>
      <trkpt lat="46.38757" lon="1.26861">
        <ele>223.6</ele>
        <time>2023-05-02T12:34:40Z</time>
      </trkpt>
      <trkpt lat="46.38757" lon="1.26845">
        <ele>223.6</ele>
        <time>2023-05-02T12:34:42Z</time>
      </trkpt>
      <trkpt lat="46.38756" lon="1.26827">
        <ele>224.4</ele>
        <time>2023-05-02T12:34:44Z</time>
      </trkpt>
      <trkpt lat="46.38753" lon="1.26818">
        <ele>224.2</ele>
        <time>2023-05-02T12:34:45Z</time>
      </trkpt>
      <trkpt lat="46.38735" lon="1.26777">
        <ele>224.6</ele>
        <time>2023-05-02T12:34:50Z</time>
      </trkpt>
      <trkpt lat="46.38712" lon="1.26731">
        <ele>224.6</ele>
        <time>2023-05-02T12:34:56Z</time>
      </trkpt>
      <trkpt lat="46.38682" lon="1.2669">
        <ele>224.8</ele>
        <time>2023-05-02T12:35:02Z</time>
      </trkpt>
      <trkpt lat="46.38648" lon="1.26643">
        <ele>225</ele>
        <time>2023-05-02T12:35:09Z</time>
      </trkpt>
      <trkpt lat="46.3862" lon="1.26594">
        <ele>224.8</ele>
        <time>2023-05-02T12:35:15Z</time>
      </trkpt>
      <trkpt lat="46.38607" lon="1.26555">
        <ele>225</ele>
        <time>2023-05-02T12:35:19Z</time>
      </trkpt>
      <trkpt lat="46.38605" lon="1.26544">
        <ele>225</ele>
        <time>2023-05-02T12:35:20Z</time>
      </trkpt>
      <trkpt lat="46.386" lon="1.26489">
        <ele>225</ele>
        <time>2023-05-02T12:35:25Z</time>
      </trkpt>
      <trkpt lat="46.38597" lon="1.26428">
        <ele>224.8</ele>
        <time>2023-05-02T12:35:31Z</time>
      </trkpt>
      <trkpt lat="46.38593" lon="1.2634">
        <ele>224.8</ele>
        <time>2023-05-02T12:35:39Z</time>
      </trkpt>
      <trkpt lat="46.38586" lon="1.26288">
        <ele>224.8</ele>
        <time>2023-05-02T12:35:44Z</time>
      </trkpt>
      <trkpt lat="46.38583" lon="1.26278">
        <ele>224.8</ele>
        <time>2023-05-02T12:35:45Z</time>
      </trkpt>
      <trkpt lat="46.38572" lon="1.26252">
        <ele>224.8</ele>
        <time>2023-05-02T12:35:48Z</time>
      </trkpt>
      <trkpt lat="46.38552" lon="1.262">
        <ele>225</ele>
        <time>2023-05-02T12:35:54Z</time>
      </trkpt>
      <trkpt lat="46.3855" lon="1.2619">
        <ele>225</ele>
        <time>2023-05-02T12:35:55Z</time>
      </trkpt>
      <trkpt lat="46.38538" lon="1.26113">
        <ele>224.8</ele>
        <time>2023-05-02T12:36:03Z</time>
      </trkpt>
      <trkpt lat="46.38532" lon="1.26046">
        <ele>225</ele>
        <time>2023-05-02T12:36:10Z</time>
      </trkpt>
      <trkpt lat="46.38536" lon="1.26001">
        <ele>225.2</ele>
        <time>2023-05-02T12:36:15Z</time>
      </trkpt>
      <trkpt lat="46.38546" lon="1.2594">
        <ele>225.2</ele>
        <time>2023-05-02T12:36:22Z</time>
      </trkpt>
      <trkpt lat="46.38545" lon="1.25883">
        <ele>225.2</ele>
        <time>2023-05-02T12:36:28Z</time>
      </trkpt>
      <trkpt lat="46.38541" lon="1.25828">
        <ele>225.2</ele>
        <time>2023-05-02T12:36:34Z</time>
      </trkpt>
      <trkpt lat="46.38537" lon="1.25765">
        <ele>225</ele>
        <time>2023-05-02T12:36:41Z</time>
      </trkpt>
      <trkpt lat="46.38527" lon="1.25709">
        <ele>225</ele>
        <time>2023-05-02T12:36:47Z</time>
      </trkpt>
      <trkpt lat="46.3851" lon="1.25639">
        <ele>224.6</ele>
        <time>2023-05-02T12:36:55Z</time>
      </trkpt>
      <trkpt lat="46.38493" lon="1.25572">
        <ele>224.6</ele>
        <time>2023-05-02T12:37:03Z</time>
      </trkpt>
      <trkpt lat="46.38491" lon="1.25565">
        <ele>224.4</ele>
        <time>2023-05-02T12:37:04Z</time>
      </trkpt>
      <trkpt lat="46.38491" lon="1.25555">
        <ele>224.4</ele>
        <time>2023-05-02T12:37:06Z</time>
      </trkpt>
      <trkpt lat="46.38496" lon="1.25538">
        <ele>224.4</ele>
        <time>2023-05-02T12:37:11Z</time>
      </trkpt>
      <trkpt lat="46.38505" lon="1.25526">
        <ele>224.2</ele>
        <time>2023-05-02T12:37:14Z</time>
      </trkpt>
      <trkpt lat="46.38517" lon="1.25513">
        <ele>224.2</ele>
        <time>2023-05-02T12:37:17Z</time>
      </trkpt>
      <trkpt lat="46.38534" lon="1.25494">
        <ele>223.8</ele>
        <time>2023-05-02T12:37:21Z</time>
      </trkpt>
      <trkpt lat="46.38538" lon="1.25488">
        <ele>223.6</ele>
        <time>2023-05-02T12:37:22Z</time>
      </trkpt>
      <trkpt lat="46.38542" lon="1.25483">
        <ele>223.4</ele>
        <time>2023-05-02T12:37:23Z</time>
      </trkpt>
      <trkpt lat="46.3856" lon="1.25462">
        <ele>222.8</ele>
        <time>2023-05-02T12:37:27Z</time>
      </trkpt>
      <trkpt lat="46.38577" lon="1.2544">
        <ele>222.2</ele>
        <time>2023-05-02T12:37:31Z</time>
      </trkpt>
      <trkpt lat="46.38585" lon="1.25428">
        <ele>221.8</ele>
        <time>2023-05-02T12:37:33Z</time>
      </trkpt>
      <trkpt lat="46.38612" lon="1.25392">
        <ele>221.2</ele>
        <time>2023-05-02T12:37:39Z</time>
      </trkpt>
      <trkpt lat="46.38639" lon="1.25352">
        <ele>221</ele>
        <time>2023-05-02T12:37:45Z</time>
      </trkpt>
      <trkpt lat="46.38667" lon="1.25302">
        <ele>220.6</ele>
        <time>2023-05-02T12:37:52Z</time>
      </trkpt>
      <trkpt lat="46.38693" lon="1.25257">
        <ele>220.2</ele>
        <time>2023-05-02T12:37:59Z</time>
      </trkpt>
      <trkpt lat="46.38716" lon="1.25211">
        <ele>220.4</ele>
        <time>2023-05-02T12:38:06Z</time>
      </trkpt>
      <trkpt lat="46.38722" lon="1.25199">
        <ele>220.4</ele>
        <time>2023-05-02T12:38:08Z</time>
      </trkpt>
      <trkpt lat="46.38729" lon="1.25192">
        <ele>220.4</ele>
        <time>2023-05-02T12:38:10Z</time>
      </trkpt>
      <trkpt lat="46.38735" lon="1.25193">
        <ele>220.8</ele>
        <time>2023-05-02T12:38:12Z</time>
      </trkpt>
      <trkpt lat="46.38738" lon="1.25196">
        <ele>221</ele>
        <time>2023-05-02T12:38:13Z</time>
      </trkpt>
      <trkpt lat="46.38754" lon="1.2523">
        <ele>221.4</ele>
        <time>2023-05-02T12:38:20Z</time>
      </trkpt>
      <trkpt lat="46.38756" lon="1.25236">
        <ele>221.4</ele>
        <time>2023-05-02T12:38:21Z</time>
      </trkpt>
      <trkpt lat="46.38772" lon="1.25269">
        <ele>221.8</ele>
        <time>2023-05-02T12:38:27Z</time>
      </trkpt>
      <trkpt lat="46.38797" lon="1.25322">
        <ele>222.2</ele>
        <time>2023-05-02T12:38:36Z</time>
      </trkpt>
      <trkpt lat="46.38805" lon="1.25339">
        <ele>222.4</ele>
        <time>2023-05-02T12:38:39Z</time>
      </trkpt>
      <trkpt lat="46.38811" lon="1.25352">
        <ele>222.4</ele>
        <time>2023-05-02T12:38:41Z</time>
      </trkpt>
      <trkpt lat="46.38834" lon="1.25398">
        <ele>222.6</ele>
        <time>2023-05-02T12:38:48Z</time>
      </trkpt>
      <trkpt lat="46.38861" lon="1.25453">
        <ele>223.2</ele>
        <time>2023-05-02T12:38:56Z</time>
      </trkpt>
      <trkpt lat="46.38885" lon="1.25505">
        <ele>223.6</ele>
        <time>2023-05-02T12:39:03Z</time>
      </trkpt>
      <trkpt lat="46.3891" lon="1.25557">
        <ele>223.8</ele>
        <time>2023-05-02T12:39:10Z</time>
      </trkpt>
      <trkpt lat="46.38933" lon="1.25607">
        <ele>224.4</ele>
        <time>2023-05-02T12:39:17Z</time>
      </trkpt>
      <trkpt lat="46.38956" lon="1.25654">
        <ele>224.8</ele>
        <time>2023-05-02T12:39:24Z</time>
      </trkpt>
      <trkpt lat="46.38985" lon="1.25714">
        <ele>225</ele>
        <time>2023-05-02T12:39:33Z</time>
      </trkpt>
      <trkpt lat="46.39008" lon="1.25763">
        <ele>225.2</ele>
        <time>2023-05-02T12:39:40Z</time>
      </trkpt>
      <trkpt lat="46.39031" lon="1.25808">
        <ele>225.6</ele>
        <time>2023-05-02T12:39:47Z</time>
      </trkpt>
      <trkpt lat="46.39034" lon="1.25814">
        <ele>225.6</ele>
        <time>2023-05-02T12:39:48Z</time>
      </trkpt>
      <trkpt lat="46.39041" lon="1.25831">
        <ele>225.8</ele>
        <time>2023-05-02T12:39:51Z</time>
      </trkpt>
      <trkpt lat="46.39047" lon="1.25844">
        <ele>225.8</ele>
        <time>2023-05-02T12:39:53Z</time>
      </trkpt>
      <trkpt lat="46.3905" lon="1.25851">
        <ele>226</ele>
        <time>2023-05-02T12:39:54Z</time>
      </trkpt>
      <trkpt lat="46.3908" lon="1.25914">
        <ele>226.2</ele>
        <time>2023-05-02T12:40:03Z</time>
      </trkpt>
      <trkpt lat="46.39106" lon="1.25966">
        <ele>226.4</ele>
        <time>2023-05-02T12:40:11Z</time>
      </trkpt>
      <trkpt lat="46.39117" lon="1.25993">
        <ele>226.6</ele>
        <time>2023-05-02T12:40:15Z</time>
      </trkpt>
      <trkpt lat="46.39124" lon="1.26006">
        <ele>226.8</ele>
        <time>2023-05-02T12:40:17Z</time>
      </trkpt>
      <trkpt lat="46.3915" lon="1.2606">
        <ele>226.8</ele>
        <time>2023-05-02T12:40:25Z</time>
      </trkpt>
      <trkpt lat="46.39181" lon="1.26126">
        <ele>226.8</ele>
        <time>2023-05-02T12:40:34Z</time>
      </trkpt>
      <trkpt lat="46.39211" lon="1.26186">
        <ele>226.8</ele>
        <time>2023-05-02T12:40:42Z</time>
      </trkpt>
      <trkpt lat="46.39229" lon="1.26226">
        <ele>227</ele>
        <time>2023-05-02T12:40:48Z</time>
      </trkpt>
      <trkpt lat="46.39252" lon="1.2627">
        <ele>227</ele>
        <time>2023-05-02T12:40:55Z</time>
      </trkpt>
      <trkpt lat="46.39274" lon="1.26317">
        <ele>227.2</ele>
        <time>2023-05-02T12:41:02Z</time>
      </trkpt>
      <trkpt lat="46.39287" lon="1.26343">
        <ele>227.6</ele>
        <time>2023-05-02T12:41:06Z</time>
      </trkpt>
      <trkpt lat="46.3929" lon="1.2635">
        <ele>227.6</ele>
        <time>2023-05-02T12:41:07Z</time>
      </trkpt>
      <trkpt lat="46.39311" lon="1.26395">
        <ele>228</ele>
        <time>2023-05-02T12:41:14Z</time>
      </trkpt>
      <trkpt lat="46.39336" lon="1.26445">
        <ele>228.2</ele>
        <time>2023-05-02T12:41:22Z</time>
      </trkpt>
      <trkpt lat="46.39357" lon="1.26488">
        <ele>228.4</ele>
        <time>2023-05-02T12:41:29Z</time>
      </trkpt>
      <trkpt lat="46.39376" lon="1.26529">
        <ele>228.8</ele>
        <time>2023-05-02T12:41:36Z</time>
      </trkpt>
      <trkpt lat="46.39397" lon="1.26573">
        <ele>229.2</ele>
        <time>2023-05-02T12:41:44Z</time>
      </trkpt>
      <trkpt lat="46.39418" lon="1.26617">
        <ele>229.6</ele>
        <time>2023-05-02T12:41:52Z</time>
      </trkpt>
      <trkpt lat="46.39441" lon="1.26665">
        <ele>230</ele>
        <time>2023-05-02T12:42:01Z</time>
      </trkpt>
      <trkpt lat="46.39451" lon="1.26685">
        <ele>230</ele>
        <time>2023-05-02T12:42:05Z</time>
      </trkpt>
      <trkpt lat="46.39458" lon="1.26697">
        <ele>230.2</ele>
        <time>2023-05-02T12:42:08Z</time>
      </trkpt>
      <trkpt lat="46.39461" lon="1.26699">
        <ele>230.2</ele>
        <time>2023-05-02T12:42:09Z</time>
      </trkpt>
      <trkpt lat="46.39467" lon="1.26693">
        <ele>230.2</ele>
        <time>2023-05-02T12:42:11Z</time>
      </trkpt>
      <trkpt lat="46.39486" lon="1.26658">
        <ele>230</ele>
        <time>2023-05-02T12:42:18Z</time>
      </trkpt>
      <trkpt lat="46.39489" lon="1.26653">
        <ele>230</ele>
        <time>2023-05-02T12:42:19Z</time>
      </trkpt>
      <trkpt lat="46.39508" lon="1.26624">
        <ele>230.2</ele>
        <time>2023-05-02T12:42:24Z</time>
      </trkpt>
      <trkpt lat="46.39539" lon="1.26574">
        <ele>230.2</ele>
        <time>2023-05-02T12:42:32Z</time>
      </trkpt>
      <trkpt lat="46.39574" lon="1.26518">
        <ele>230.2</ele>
        <time>2023-05-02T12:42:41Z</time>
      </trkpt>
      <trkpt lat="46.39596" lon="1.26481">
        <ele>230.2</ele>
        <time>2023-05-02T12:42:48Z</time>
      </trkpt>
      <trkpt lat="46.39599" lon="1.26476">
        <ele>230.2</ele>
        <time>2023-05-02T12:42:49Z</time>
      </trkpt>
      <trkpt lat="46.39614" lon="1.26454">
        <ele>230.2</ele>
        <time>2023-05-02T12:42:54Z</time>
      </trkpt>
      <trkpt lat="46.39627" lon="1.26437">
        <ele>230</ele>
        <time>2023-05-02T12:42:59Z</time>
      </trkpt>
      <trkpt lat="46.39627" lon="1.26436">
        <ele>230</ele>
        <time>2023-05-02T12:43:01Z</time>
      </trkpt>
      <trkpt lat="46.39629" lon="1.26431">
        <ele>229.6</ele>
        <time>2023-05-02T12:44:21Z</time>
      </trkpt>
      <trkpt lat="46.39638" lon="1.26415">
        <ele>229.4</ele>
        <time>2023-05-02T12:44:26Z</time>
      </trkpt>
      <trkpt lat="46.39655" lon="1.26388">
        <ele>229</ele>
        <time>2023-05-02T12:44:32Z</time>
      </trkpt>
      <trkpt lat="46.39678" lon="1.2635">
        <ele>228.6</ele>
        <time>2023-05-02T12:44:39Z</time>
      </trkpt>
      <trkpt lat="46.39682" lon="1.26344">
        <ele>228.6</ele>
        <time>2023-05-02T12:44:40Z</time>
      </trkpt>
      <trkpt lat="46.39704" lon="1.26311">
        <ele>228.6</ele>
        <time>2023-05-02T12:44:46Z</time>
      </trkpt>
      <trkpt lat="46.39729" lon="1.26272">
        <ele>228.6</ele>
        <time>2023-05-02T12:44:53Z</time>
      </trkpt>
      <trkpt lat="46.39758" lon="1.26225">
        <ele>228.8</ele>
        <time>2023-05-02T12:45:01Z</time>
      </trkpt>
      <trkpt lat="46.3978" lon="1.26191">
        <ele>228.8</ele>
        <time>2023-05-02T12:45:07Z</time>
      </trkpt>
      <trkpt lat="46.39806" lon="1.26159">
        <ele>229</ele>
        <time>2023-05-02T12:45:13Z</time>
      </trkpt>
      <trkpt lat="46.39846" lon="1.26113">
        <ele>228.6</ele>
        <time>2023-05-02T12:45:21Z</time>
      </trkpt>
      <trkpt lat="46.39896" lon="1.26065">
        <ele>228.4</ele>
        <time>2023-05-02T12:45:29Z</time>
      </trkpt>
      <trkpt lat="46.3994" lon="1.26021">
        <ele>228</ele>
        <time>2023-05-02T12:45:36Z</time>
      </trkpt>
      <trkpt lat="46.39979" lon="1.25987">
        <ele>227.8</ele>
        <time>2023-05-02T12:45:42Z</time>
      </trkpt>
      <trkpt lat="46.39986" lon="1.25983">
        <ele>227.8</ele>
        <time>2023-05-02T12:45:43Z</time>
      </trkpt>
      <trkpt lat="46.40033" lon="1.25957">
        <ele>227.6</ele>
        <time>2023-05-02T12:45:50Z</time>
      </trkpt>
      <trkpt lat="46.40084" lon="1.25928">
        <ele>227.6</ele>
        <time>2023-05-02T12:45:58Z</time>
      </trkpt>
      <trkpt lat="46.40096" lon="1.25919">
        <ele>227.6</ele>
        <time>2023-05-02T12:46:00Z</time>
      </trkpt>
      <trkpt lat="46.40139" lon="1.25885">
        <ele>227.4</ele>
        <time>2023-05-02T12:46:07Z</time>
      </trkpt>
      <trkpt lat="46.4019" lon="1.25842">
        <ele>226.6</ele>
        <time>2023-05-02T12:46:15Z</time>
      </trkpt>
      <trkpt lat="46.40196" lon="1.25838">
        <ele>226.6</ele>
        <time>2023-05-02T12:46:16Z</time>
      </trkpt>
      <trkpt lat="46.40244" lon="1.25801">
        <ele>226.6</ele>
        <time>2023-05-02T12:46:24Z</time>
      </trkpt>
      <trkpt lat="46.40281" lon="1.2578">
        <ele>226.4</ele>
        <time>2023-05-02T12:46:30Z</time>
      </trkpt>
      <trkpt lat="46.4032" lon="1.25767">
        <ele>226.2</ele>
        <time>2023-05-02T12:46:36Z</time>
      </trkpt>
      <trkpt lat="46.40366" lon="1.25755">
        <ele>225.8</ele>
        <time>2023-05-02T12:46:43Z</time>
      </trkpt>
      <trkpt lat="46.40406" lon="1.25744">
        <ele>225.4</ele>
        <time>2023-05-02T12:46:49Z</time>
      </trkpt>
      <trkpt lat="46.40413" lon="1.25743">
        <ele>225.4</ele>
        <time>2023-05-02T12:46:50Z</time>
      </trkpt>
      <trkpt lat="46.40453" lon="1.25732">
        <ele>225.2</ele>
        <time>2023-05-02T12:46:56Z</time>
      </trkpt>
      <trkpt lat="46.4046" lon="1.25729">
        <ele>225</ele>
        <time>2023-05-02T12:46:57Z</time>
      </trkpt>
      <trkpt lat="46.40485" lon="1.25713">
        <ele>224.8</ele>
        <time>2023-05-02T12:47:01Z</time>
      </trkpt>
      <trkpt lat="46.40525" lon="1.25692">
        <ele>224.2</ele>
        <time>2023-05-02T12:47:07Z</time>
      </trkpt>
      <trkpt lat="46.40568" lon="1.25678">
        <ele>223.8</ele>
        <time>2023-05-02T12:47:13Z</time>
      </trkpt>
      <trkpt lat="46.40611" lon="1.25665">
        <ele>223.4</ele>
        <time>2023-05-02T12:47:19Z</time>
      </trkpt>
      <trkpt lat="46.4064" lon="1.25652">
        <ele>223</ele>
        <time>2023-05-02T12:47:23Z</time>
      </trkpt>
      <trkpt lat="46.40648" lon="1.25648">
        <ele>222.8</ele>
        <time>2023-05-02T12:47:24Z</time>
      </trkpt>
      <trkpt lat="46.40695" lon="1.25622">
        <ele>222</ele>
        <time>2023-05-02T12:47:31Z</time>
      </trkpt>
      <trkpt lat="46.40709" lon="1.25615">
        <ele>221.8</ele>
        <time>2023-05-02T12:47:33Z</time>
      </trkpt>
      <trkpt lat="46.40723" lon="1.2561">
        <ele>221.6</ele>
        <time>2023-05-02T12:47:35Z</time>
      </trkpt>
      <trkpt lat="46.40729" lon="1.25607">
        <ele>221.4</ele>
        <time>2023-05-02T12:47:36Z</time>
      </trkpt>
      <trkpt lat="46.40761" lon="1.25593">
        <ele>221</ele>
        <time>2023-05-02T12:47:41Z</time>
      </trkpt>
      <trkpt lat="46.40768" lon="1.25591">
        <ele>221</ele>
        <time>2023-05-02T12:47:42Z</time>
      </trkpt>
      <trkpt lat="46.40798" lon="1.25586">
        <ele>220.8</ele>
        <time>2023-05-02T12:47:47Z</time>
      </trkpt>
      <trkpt lat="46.40851" lon="1.25586">
        <ele>220.2</ele>
        <time>2023-05-02T12:47:55Z</time>
      </trkpt>
      <trkpt lat="46.40885" lon="1.25586">
        <ele>219.8</ele>
        <time>2023-05-02T12:48:00Z</time>
      </trkpt>
      <trkpt lat="46.40925" lon="1.25586">
        <ele>219.4</ele>
        <time>2023-05-02T12:48:06Z</time>
      </trkpt>
      <trkpt lat="46.40931" lon="1.25586">
        <ele>219.2</ele>
        <time>2023-05-02T12:48:07Z</time>
      </trkpt>
      <trkpt lat="46.40959" lon="1.25586">
        <ele>218.8</ele>
        <time>2023-05-02T12:48:11Z</time>
      </trkpt>
      <trkpt lat="46.40999" lon="1.25583">
        <ele>218</ele>
        <time>2023-05-02T12:48:17Z</time>
      </trkpt>
      <trkpt lat="46.41005" lon="1.25581">
        <ele>217.8</ele>
        <time>2023-05-02T12:48:18Z</time>
      </trkpt>
      <trkpt lat="46.41024" lon="1.25572">
        <ele>217.6</ele>
        <time>2023-05-02T12:48:21Z</time>
      </trkpt>
      <trkpt lat="46.41053" lon="1.25554">
        <ele>217.2</ele>
        <time>2023-05-02T12:48:26Z</time>
      </trkpt>
      <trkpt lat="46.41098" lon="1.25528">
        <ele>216.2</ele>
        <time>2023-05-02T12:48:33Z</time>
      </trkpt>
      <trkpt lat="46.41151" lon="1.25494">
        <ele>215.4</ele>
        <time>2023-05-02T12:48:41Z</time>
      </trkpt>
      <trkpt lat="46.41197" lon="1.25462">
        <ele>214.4</ele>
        <time>2023-05-02T12:48:48Z</time>
      </trkpt>
      <trkpt lat="46.41234" lon="1.25436">
        <ele>213.8</ele>
        <time>2023-05-02T12:48:54Z</time>
      </trkpt>
      <trkpt lat="46.41265" lon="1.25415">
        <ele>213</ele>
        <time>2023-05-02T12:48:59Z</time>
      </trkpt>
      <trkpt lat="46.41303" lon="1.25388">
        <ele>212</ele>
        <time>2023-05-02T12:49:05Z</time>
      </trkpt>
      <trkpt lat="46.41342" lon="1.25359">
        <ele>210.6</ele>
        <time>2023-05-02T12:49:11Z</time>
      </trkpt>
      <trkpt lat="46.41388" lon="1.25327">
        <ele>208.8</ele>
        <time>2023-05-02T12:49:18Z</time>
      </trkpt>
      <trkpt lat="46.41428" lon="1.25299">
        <ele>207.8</ele>
        <time>2023-05-02T12:49:24Z</time>
      </trkpt>
      <trkpt lat="46.41467" lon="1.25275">
        <ele>207.2</ele>
        <time>2023-05-02T12:49:30Z</time>
      </trkpt>
      <trkpt lat="46.41474" lon="1.25271">
        <ele>207</ele>
        <time>2023-05-02T12:49:31Z</time>
      </trkpt>
      <trkpt lat="46.41505" lon="1.25249">
        <ele>206.6</ele>
        <time>2023-05-02T12:49:36Z</time>
      </trkpt>
      <trkpt lat="46.4154" lon="1.25227">
        <ele>206</ele>
        <time>2023-05-02T12:49:42Z</time>
      </trkpt>
      <trkpt lat="46.41583" lon="1.25199">
        <ele>205.6</ele>
        <time>2023-05-02T12:49:49Z</time>
      </trkpt>
      <trkpt lat="46.41632" lon="1.25167">
        <ele>205.2</ele>
        <time>2023-05-02T12:49:57Z</time>
      </trkpt>
      <trkpt lat="46.41675" lon="1.25139">
        <ele>205</ele>
        <time>2023-05-02T12:50:04Z</time>
      </trkpt>
      <trkpt lat="46.4171" lon="1.25118">
        <ele>204.8</ele>
        <time>2023-05-02T12:50:10Z</time>
      </trkpt>
      <trkpt lat="46.41765" lon="1.25085">
        <ele>204.6</ele>
        <time>2023-05-02T12:50:19Z</time>
      </trkpt>
      <trkpt lat="46.41813" lon="1.25057">
        <ele>204.6</ele>
        <time>2023-05-02T12:50:27Z</time>
      </trkpt>
      <trkpt lat="46.41865" lon="1.25025">
        <ele>204.8</ele>
        <time>2023-05-02T12:50:36Z</time>
      </trkpt>
      <trkpt lat="46.4189" lon="1.25007">
        <ele>205</ele>
        <time>2023-05-02T12:50:41Z</time>
      </trkpt>
      <trkpt lat="46.41899" lon="1.24999">
        <ele>205</ele>
        <time>2023-05-02T12:50:43Z</time>
      </trkpt>
      <trkpt lat="46.41913" lon="1.2499">
        <ele>205.2</ele>
        <time>2023-05-02T12:50:46Z</time>
      </trkpt>
      <trkpt lat="46.41922" lon="1.24982">
        <ele>205.4</ele>
        <time>2023-05-02T12:50:48Z</time>
      </trkpt>
      <trkpt lat="46.41932" lon="1.24976">
        <ele>205.4</ele>
        <time>2023-05-02T12:50:50Z</time>
      </trkpt>
      <trkpt lat="46.41947" lon="1.24964">
        <ele>205.6</ele>
        <time>2023-05-02T12:50:53Z</time>
      </trkpt>
      <trkpt lat="46.41987" lon="1.24935">
        <ele>206</ele>
        <time>2023-05-02T12:51:01Z</time>
      </trkpt>
      <trkpt lat="46.42017" lon="1.24923">
        <ele>206.2</ele>
        <time>2023-05-02T12:51:07Z</time>
      </trkpt>
      <trkpt lat="46.42027" lon="1.24922">
        <ele>206.4</ele>
        <time>2023-05-02T12:51:09Z</time>
      </trkpt>
      <trkpt lat="46.42044" lon="1.24927">
        <ele>206.6</ele>
        <time>2023-05-02T12:51:12Z</time>
      </trkpt>
      <trkpt lat="46.42076" lon="1.24938">
        <ele>206.6</ele>
        <time>2023-05-02T12:51:18Z</time>
      </trkpt>
      <trkpt lat="46.42117" lon="1.2495">
        <ele>206.4</ele>
        <time>2023-05-02T12:51:26Z</time>
      </trkpt>
      <trkpt lat="46.42122" lon="1.24952">
        <ele>206.4</ele>
        <time>2023-05-02T12:51:27Z</time>
      </trkpt>
      <trkpt lat="46.42143" lon="1.24962">
        <ele>206.4</ele>
        <time>2023-05-02T12:51:32Z</time>
      </trkpt>
      <trkpt lat="46.42149" lon="1.2497">
        <ele>206.2</ele>
        <time>2023-05-02T12:51:34Z</time>
      </trkpt>
      <trkpt lat="46.42154" lon="1.2498">
        <ele>206.2</ele>
        <time>2023-05-02T12:51:36Z</time>
      </trkpt>
      <trkpt lat="46.42173" lon="1.25026">
        <ele>206.4</ele>
        <time>2023-05-02T12:51:44Z</time>
      </trkpt>
      <trkpt lat="46.42183" lon="1.25044">
        <ele>206.4</ele>
        <time>2023-05-02T12:51:48Z</time>
      </trkpt>
      <trkpt lat="46.42188" lon="1.25042">
        <ele>206.2</ele>
        <time>2023-05-02T12:51:51Z</time>
      </trkpt>
      <trkpt lat="46.42197" lon="1.25034">
        <ele>205.8</ele>
        <time>2023-05-02T12:51:57Z</time>
      </trkpt>
      <trkpt lat="46.42202" lon="1.25033">
        <ele>205.6</ele>
        <time>2023-05-02T12:51:59Z</time>
      </trkpt>
      <trkpt lat="46.42207" lon="1.25036">
        <ele>205.6</ele>
        <time>2023-05-02T12:52:02Z</time>
      </trkpt>
      <trkpt lat="46.42207" lon="1.25037">
        <ele>205.6</ele>
        <time>2023-05-02T12:52:04Z</time>
      </trkpt>
      <trkpt lat="46.42209" lon="1.25038">
        <ele>204.6</ele>
        <time>2023-05-02T12:53:01Z</time>
      </trkpt>
      <trkpt lat="46.4221" lon="1.2504">
        <ele>204.6</ele>
        <time>2023-05-02T12:53:02Z</time>
      </trkpt>
      <trkpt lat="46.42222" lon="1.25053">
        <ele>204.6</ele>
        <time>2023-05-02T12:53:08Z</time>
      </trkpt>
      <trkpt lat="46.4224" lon="1.25072">
        <ele>204.6</ele>
        <time>2023-05-02T12:53:15Z</time>
      </trkpt>
      <trkpt lat="46.42255" lon="1.25088">
        <ele>204.6</ele>
        <time>2023-05-02T12:53:20Z</time>
      </trkpt>
      <trkpt lat="46.42269" lon="1.25105">
        <ele>204.8</ele>
        <time>2023-05-02T12:53:25Z</time>
      </trkpt>
      <trkpt lat="46.42286" lon="1.25125">
        <ele>205</ele>
        <time>2023-05-02T12:53:31Z</time>
      </trkpt>
      <trkpt lat="46.42304" lon="1.25145">
        <ele>205</ele>
        <time>2023-05-02T12:53:37Z</time>
      </trkpt>
      <trkpt lat="46.42323" lon="1.2517">
        <ele>205.2</ele>
        <time>2023-05-02T12:53:43Z</time>
      </trkpt>
      <trkpt lat="46.42343" lon="1.25196">
        <ele>205.2</ele>
        <time>2023-05-02T12:53:50Z</time>
      </trkpt>
      <trkpt lat="46.42357" lon="1.25215">
        <ele>205.2</ele>
        <time>2023-05-02T12:53:55Z</time>
      </trkpt>
      <trkpt lat="46.42378" lon="1.25243">
        <ele>205.2</ele>
        <time>2023-05-02T12:54:02Z</time>
      </trkpt>
      <trkpt lat="46.42397" lon="1.25267">
        <ele>205</ele>
        <time>2023-05-02T12:54:08Z</time>
      </trkpt>
      <trkpt lat="46.42418" lon="1.2529">
        <ele>204.6</ele>
        <time>2023-05-02T12:54:14Z</time>
      </trkpt>
      <trkpt lat="46.42434" lon="1.25297">
        <ele>204.4</ele>
        <time>2023-05-02T12:54:18Z</time>
      </trkpt>
      <trkpt lat="46.4245" lon="1.25303">
        <ele>204</ele>
        <time>2023-05-02T12:54:22Z</time>
      </trkpt>
      <trkpt lat="46.42474" lon="1.2531">
        <ele>203.6</ele>
        <time>2023-05-02T12:54:28Z</time>
      </trkpt>
      <trkpt lat="46.42498" lon="1.25314">
        <ele>203</ele>
        <time>2023-05-02T12:54:33Z</time>
      </trkpt>
      <trkpt lat="46.42502" lon="1.25314">
        <ele>203</ele>
        <time>2023-05-02T12:54:34Z</time>
      </trkpt>
      <trkpt lat="46.42523" lon="1.25316">
        <ele>202.6</ele>
        <time>2023-05-02T12:54:38Z</time>
      </trkpt>
      <trkpt lat="46.42548" lon="1.25316">
        <ele>202.2</ele>
        <time>2023-05-02T12:54:43Z</time>
      </trkpt>
      <trkpt lat="46.42558" lon="1.25316">
        <ele>202</ele>
        <time>2023-05-02T12:54:45Z</time>
      </trkpt>
      <trkpt lat="46.42573" lon="1.25315">
        <ele>201.8</ele>
        <time>2023-05-02T12:54:48Z</time>
      </trkpt>
      <trkpt lat="46.42583" lon="1.25315">
        <ele>201.8</ele>
        <time>2023-05-02T12:54:50Z</time>
      </trkpt>
      <trkpt lat="46.42594" lon="1.25315">
        <ele>201.6</ele>
        <time>2023-05-02T12:54:52Z</time>
      </trkpt>
      <trkpt lat="46.42598" lon="1.25315">
        <ele>201.6</ele>
        <time>2023-05-02T12:54:53Z</time>
      </trkpt>
      <trkpt lat="46.42611" lon="1.25319">
        <ele>201.2</ele>
        <time>2023-05-02T12:54:56Z</time>
      </trkpt>
      <trkpt lat="46.42624" lon="1.2533">
        <ele>200.8</ele>
        <time>2023-05-02T12:55:00Z</time>
      </trkpt>
      <trkpt lat="46.42633" lon="1.25338">
        <ele>200.2</ele>
        <time>2023-05-02T12:55:04Z</time>
      </trkpt>
      <trkpt lat="46.42646" lon="1.2535">
        <ele>200</ele>
        <time>2023-05-02T12:55:08Z</time>
      </trkpt>
      <trkpt lat="46.42668" lon="1.2537">
        <ele>199.2</ele>
        <time>2023-05-02T12:55:14Z</time>
      </trkpt>
      <trkpt lat="46.42675" lon="1.25378">
        <ele>199</ele>
        <time>2023-05-02T12:55:16Z</time>
      </trkpt>
      <trkpt lat="46.42686" lon="1.25388">
        <ele>198.6</ele>
        <time>2023-05-02T12:55:19Z</time>
      </trkpt>
      <trkpt lat="46.42699" lon="1.254">
        <ele>198.2</ele>
        <time>2023-05-02T12:55:23Z</time>
      </trkpt>
      <trkpt lat="46.42706" lon="1.25407">
        <ele>198</ele>
        <time>2023-05-02T12:55:25Z</time>
      </trkpt>
      <trkpt lat="46.42722" lon="1.2542">
        <ele>197.4</ele>
        <time>2023-05-02T12:55:29Z</time>
      </trkpt>
      <trkpt lat="46.42742" lon="1.25438">
        <ele>196.8</ele>
        <time>2023-05-02T12:55:34Z</time>
      </trkpt>
      <trkpt lat="46.42751" lon="1.25444">
        <ele>196.6</ele>
        <time>2023-05-02T12:55:36Z</time>
      </trkpt>
      <trkpt lat="46.42764" lon="1.25454">
        <ele>196.4</ele>
        <time>2023-05-02T12:55:39Z</time>
      </trkpt>
      <trkpt lat="46.42777" lon="1.25469">
        <ele>196.2</ele>
        <time>2023-05-02T12:55:43Z</time>
      </trkpt>
      <trkpt lat="46.42787" lon="1.25474">
        <ele>196</ele>
        <time>2023-05-02T12:55:45Z</time>
      </trkpt>
      <trkpt lat="46.42799" lon="1.25476">
        <ele>195.8</ele>
        <time>2023-05-02T12:55:47Z</time>
      </trkpt>
      <trkpt lat="46.42811" lon="1.25473">
        <ele>195.6</ele>
        <time>2023-05-02T12:55:49Z</time>
      </trkpt>
      <trkpt lat="46.42854" lon="1.25452">
        <ele>195</ele>
        <time>2023-05-02T12:55:56Z</time>
      </trkpt>
      <trkpt lat="46.42885" lon="1.25431">
        <ele>194.6</ele>
        <time>2023-05-02T12:56:01Z</time>
      </trkpt>
      <trkpt lat="46.42917" lon="1.25412">
        <ele>194.6</ele>
        <time>2023-05-02T12:56:06Z</time>
      </trkpt>
      <trkpt lat="46.42943" lon="1.25396">
        <ele>194.2</ele>
        <time>2023-05-02T12:56:10Z</time>
      </trkpt>
      <trkpt lat="46.42958" lon="1.25392">
        <ele>194</ele>
        <time>2023-05-02T12:56:12Z</time>
      </trkpt>
      <trkpt lat="46.42972" lon="1.25393">
        <ele>193.8</ele>
        <time>2023-05-02T12:56:14Z</time>
      </trkpt>
      <trkpt lat="46.42986" lon="1.254">
        <ele>193.6</ele>
        <time>2023-05-02T12:56:16Z</time>
      </trkpt>
      <trkpt lat="46.42997" lon="1.2541">
        <ele>193.4</ele>
        <time>2023-05-02T12:56:18Z</time>
      </trkpt>
      <trkpt lat="46.43031" lon="1.25443">
        <ele>192.8</ele>
        <time>2023-05-02T12:56:24Z</time>
      </trkpt>
      <trkpt lat="46.43079" lon="1.2549">
        <ele>191.6</ele>
        <time>2023-05-02T12:56:32Z</time>
      </trkpt>
      <trkpt lat="46.43086" lon="1.25496">
        <ele>191.6</ele>
        <time>2023-05-02T12:56:33Z</time>
      </trkpt>
      <trkpt lat="46.43114" lon="1.25526">
        <ele>190.8</ele>
        <time>2023-05-02T12:56:38Z</time>
      </trkpt>
      <trkpt lat="46.43148" lon="1.25559">
        <ele>189.8</ele>
        <time>2023-05-02T12:56:44Z</time>
      </trkpt>
      <trkpt lat="46.43187" lon="1.25598">
        <ele>188.8</ele>
        <time>2023-05-02T12:56:51Z</time>
      </trkpt>
      <trkpt lat="46.43222" lon="1.25633">
        <ele>188</ele>
        <time>2023-05-02T12:56:57Z</time>
      </trkpt>
      <trkpt lat="46.43244" lon="1.25656">
        <ele>187.4</ele>
        <time>2023-05-02T12:57:01Z</time>
      </trkpt>
      <trkpt lat="46.43276" lon="1.25694">
        <ele>187</ele>
        <time>2023-05-02T12:57:07Z</time>
      </trkpt>
      <trkpt lat="46.43285" lon="1.25705">
        <ele>186.8</ele>
        <time>2023-05-02T12:57:09Z</time>
      </trkpt>
      <trkpt lat="46.43293" lon="1.2571">
        <ele>186.6</ele>
        <time>2023-05-02T12:57:11Z</time>
      </trkpt>
      <trkpt lat="46.43315" lon="1.25707">
        <ele>186.2</ele>
        <time>2023-05-02T12:57:16Z</time>
      </trkpt>
      <trkpt lat="46.43321" lon="1.25706">
        <ele>186.2</ele>
        <time>2023-05-02T12:57:18Z</time>
      </trkpt>
      <trkpt lat="46.43322" lon="1.25705">
        <ele>186</ele>
        <time>2023-05-02T12:57:19Z</time>
      </trkpt>
      <trkpt lat="46.43317" lon="1.25703">
        <ele>185.4</ele>
        <time>2023-05-02T12:57:23Z</time>
      </trkpt>
      <trkpt lat="46.43304" lon="1.25707">
        <ele>184.8</ele>
        <time>2023-05-02T12:57:28Z</time>
      </trkpt>
      <trkpt lat="46.43303" lon="1.2571">
        <ele>184.6</ele>
        <time>2023-05-02T12:57:29Z</time>
      </trkpt>
      <trkpt lat="46.43304" lon="1.25718">
        <ele>184.2</ele>
        <time>2023-05-02T12:57:31Z</time>
      </trkpt>
      <trkpt lat="46.43307" lon="1.25721">
        <ele>184.2</ele>
        <time>2023-05-02T12:57:32Z</time>
      </trkpt>
      <trkpt lat="46.43324" lon="1.25738">
        <ele>183.8</ele>
        <time>2023-05-02T12:57:38Z</time>
      </trkpt>
      <trkpt lat="46.43338" lon="1.25756">
        <ele>183.2</ele>
        <time>2023-05-02T12:57:43Z</time>
      </trkpt>
      <trkpt lat="46.43348" lon="1.2577">
        <ele>183</ele>
        <time>2023-05-02T12:57:47Z</time>
      </trkpt>
      <trkpt lat="46.43361" lon="1.25766">
        <ele>182.2</ele>
        <time>2023-05-02T12:57:51Z</time>
      </trkpt>
      <trkpt lat="46.43381" lon="1.25754">
        <ele>181.6</ele>
        <time>2023-05-02T12:57:57Z</time>
      </trkpt>
      <trkpt lat="46.43386" lon="1.25751">
        <ele>181.4</ele>
        <time>2023-05-02T12:57:58Z</time>
      </trkpt>
      <trkpt lat="46.43407" lon="1.25736">
        <ele>180.6</ele>
        <time>2023-05-02T12:58:03Z</time>
      </trkpt>
      <trkpt lat="46.43421" lon="1.25725">
        <ele>180</ele>
        <time>2023-05-02T12:58:07Z</time>
      </trkpt>
      <trkpt lat="46.43427" lon="1.25704">
        <ele>179.4</ele>
        <time>2023-05-02T12:58:12Z</time>
      </trkpt>
      <trkpt lat="46.43431" lon="1.25683">
        <ele>179.2</ele>
        <time>2023-05-02T12:58:16Z</time>
      </trkpt>
      <trkpt lat="46.43433" lon="1.25678">
        <ele>179.2</ele>
        <time>2023-05-02T12:58:17Z</time>
      </trkpt>
      <trkpt lat="46.4345" lon="1.2565">
        <ele>178.6</ele>
        <time>2023-05-02T12:58:22Z</time>
      </trkpt>
      <trkpt lat="46.43477" lon="1.25606">
        <ele>177.4</ele>
        <time>2023-05-02T12:58:29Z</time>
      </trkpt>
      <trkpt lat="46.43481" lon="1.256">
        <ele>177.2</ele>
        <time>2023-05-02T12:58:30Z</time>
      </trkpt>
      <trkpt lat="46.43502" lon="1.25566">
        <ele>176.6</ele>
        <time>2023-05-02T12:58:35Z</time>
      </trkpt>
      <trkpt lat="46.43524" lon="1.25534">
        <ele>176</ele>
        <time>2023-05-02T12:58:40Z</time>
      </trkpt>
      <trkpt lat="46.43533" lon="1.25523">
        <ele>175.6</ele>
        <time>2023-05-02T12:58:42Z</time>
      </trkpt>
      <trkpt lat="46.43547" lon="1.25504">
        <ele>175.4</ele>
        <time>2023-05-02T12:58:45Z</time>
      </trkpt>
      <trkpt lat="46.4358" lon="1.25472">
        <ele>175</ele>
        <time>2023-05-02T12:58:51Z</time>
      </trkpt>
      <trkpt lat="46.43613" lon="1.25445">
        <ele>174.6</ele>
        <time>2023-05-02T12:58:57Z</time>
      </trkpt>
      <trkpt lat="46.43639" lon="1.25417">
        <ele>174</ele>
        <time>2023-05-02T12:59:02Z</time>
      </trkpt>
      <trkpt lat="46.4368" lon="1.25376">
        <ele>173.6</ele>
        <time>2023-05-02T12:59:10Z</time>
      </trkpt>
      <trkpt lat="46.43704" lon="1.25348">
        <ele>173.2</ele>
        <time>2023-05-02T12:59:16Z</time>
      </trkpt>
      <trkpt lat="46.43708" lon="1.25344">
        <ele>173.2</ele>
        <time>2023-05-02T12:59:17Z</time>
      </trkpt>
      <trkpt lat="46.43716" lon="1.25338">
        <ele>173.2</ele>
        <time>2023-05-02T12:59:19Z</time>
      </trkpt>
      <trkpt lat="46.43724" lon="1.25338">
        <ele>173.2</ele>
        <time>2023-05-02T12:59:21Z</time>
      </trkpt>
      <trkpt lat="46.43762" lon="1.25357">
        <ele>172.8</ele>
        <time>2023-05-02T12:59:29Z</time>
      </trkpt>
      <trkpt lat="46.43805" lon="1.2537">
        <ele>172.4</ele>
        <time>2023-05-02T12:59:37Z</time>
      </trkpt>
      <trkpt lat="46.43844" lon="1.25377">
        <ele>172</ele>
        <time>2023-05-02T12:59:43Z</time>
      </trkpt>
      <trkpt lat="46.43856" lon="1.2538">
        <ele>172</ele>
        <time>2023-05-02T12:59:45Z</time>
      </trkpt>
      <trkpt lat="46.43873" lon="1.25388">
        <ele>171.6</ele>
        <time>2023-05-02T12:59:48Z</time>
      </trkpt>
      <trkpt lat="46.43925" lon="1.25403">
        <ele>171.2</ele>
        <time>2023-05-02T12:59:56Z</time>
      </trkpt>
      <trkpt lat="46.43981" lon="1.25416">
        <ele>170.8</ele>
        <time>2023-05-02T13:00:04Z</time>
      </trkpt>
      <trkpt lat="46.43995" lon="1.2542">
        <ele>170.6</ele>
        <time>2023-05-02T13:00:06Z</time>
      </trkpt>
      <trkpt lat="46.44052" lon="1.25442">
        <ele>170.2</ele>
        <time>2023-05-02T13:00:15Z</time>
      </trkpt>
      <trkpt lat="46.44084" lon="1.25454">
        <ele>169.8</ele>
        <time>2023-05-02T13:00:20Z</time>
      </trkpt>
      <trkpt lat="46.44091" lon="1.25455">
        <ele>169.6</ele>
        <time>2023-05-02T13:00:21Z</time>
      </trkpt>
      <trkpt lat="46.44123" lon="1.2546">
        <ele>169</ele>
        <time>2023-05-02T13:00:26Z</time>
      </trkpt>
      <trkpt lat="46.44168" lon="1.2546">
        <ele>168.2</ele>
        <time>2023-05-02T13:00:32Z</time>
      </trkpt>
      <trkpt lat="46.44217" lon="1.25448">
        <ele>167.6</ele>
        <time>2023-05-02T13:00:38Z</time>
      </trkpt>
      <trkpt lat="46.44273" lon="1.25432">
        <ele>167</ele>
        <time>2023-05-02T13:00:45Z</time>
      </trkpt>
      <trkpt lat="46.4428" lon="1.2543">
        <ele>166.8</ele>
        <time>2023-05-02T13:00:46Z</time>
      </trkpt>
      <trkpt lat="46.44336" lon="1.25417">
        <ele>166</ele>
        <time>2023-05-02T13:00:54Z</time>
      </trkpt>
      <trkpt lat="46.44387" lon="1.25404">
        <ele>165.4</ele>
        <time>2023-05-02T13:01:01Z</time>
      </trkpt>
      <trkpt lat="46.44443" lon="1.25393">
        <ele>164.8</ele>
        <time>2023-05-02T13:01:09Z</time>
      </trkpt>
      <trkpt lat="46.44449" lon="1.2539">
        <ele>164.8</ele>
        <time>2023-05-02T13:01:10Z</time>
      </trkpt>
      <trkpt lat="46.44474" lon="1.25373">
        <ele>164.4</ele>
        <time>2023-05-02T13:01:14Z</time>
      </trkpt>
      <trkpt lat="46.44514" lon="1.25341">
        <ele>164.2</ele>
        <time>2023-05-02T13:01:21Z</time>
      </trkpt>
      <trkpt lat="46.4455" lon="1.25318">
        <ele>164.2</ele>
        <time>2023-05-02T13:01:27Z</time>
      </trkpt>
      <trkpt lat="46.44556" lon="1.25316">
        <ele>164.2</ele>
        <time>2023-05-02T13:01:28Z</time>
      </trkpt>
      <trkpt lat="46.44581" lon="1.25314">
        <ele>164</ele>
        <time>2023-05-02T13:01:32Z</time>
      </trkpt>
      <trkpt lat="46.44601" lon="1.25316">
        <ele>163.8</ele>
        <time>2023-05-02T13:01:35Z</time>
      </trkpt>
      <trkpt lat="46.44614" lon="1.25316">
        <ele>163.8</ele>
        <time>2023-05-02T13:01:37Z</time>
      </trkpt>
      <trkpt lat="46.44657" lon="1.2532">
        <ele>163.2</ele>
        <time>2023-05-02T13:01:43Z</time>
      </trkpt>
      <trkpt lat="46.44699" lon="1.25334">
        <ele>162.6</ele>
        <time>2023-05-02T13:01:49Z</time>
      </trkpt>
      <trkpt lat="46.44712" lon="1.25338">
        <ele>162.4</ele>
        <time>2023-05-02T13:01:51Z</time>
      </trkpt>
      <trkpt lat="46.44722" lon="1.25342">
        <ele>162.2</ele>
        <time>2023-05-02T13:01:53Z</time>
      </trkpt>
      <trkpt lat="46.44755" lon="1.25351">
        <ele>161.6</ele>
        <time>2023-05-02T13:01:59Z</time>
      </trkpt>
      <trkpt lat="46.4476" lon="1.25353">
        <ele>161.4</ele>
        <time>2023-05-02T13:02:00Z</time>
      </trkpt>
      <trkpt lat="46.44788" lon="1.25362">
        <ele>160.8</ele>
        <time>2023-05-02T13:02:07Z</time>
      </trkpt>
      <trkpt lat="46.44812" lon="1.25369">
        <ele>160.6</ele>
        <time>2023-05-02T13:02:14Z</time>
      </trkpt>
      <trkpt lat="46.44819" lon="1.25369">
        <ele>160.4</ele>
        <time>2023-05-02T13:02:16Z</time>
      </trkpt>
      <trkpt lat="46.44821" lon="1.25366">
        <ele>160.2</ele>
        <time>2023-05-02T13:02:17Z</time>
      </trkpt>
      <trkpt lat="46.44821" lon="1.25358">
        <ele>160.2</ele>
        <time>2023-05-02T13:02:19Z</time>
      </trkpt>
      <trkpt lat="46.44819" lon="1.25354">
        <ele>160.2</ele>
        <time>2023-05-02T13:02:20Z</time>
      </trkpt>
      <trkpt lat="46.44805" lon="1.25335">
        <ele>160.2</ele>
        <time>2023-05-02T13:02:25Z</time>
      </trkpt>
      <trkpt lat="46.44783" lon="1.25299">
        <ele>160</ele>
        <time>2023-05-02T13:02:32Z</time>
      </trkpt>
      <trkpt lat="46.44761" lon="1.25251">
        <ele>159.6</ele>
        <time>2023-05-02T13:02:39Z</time>
      </trkpt>
      <trkpt lat="46.44751" lon="1.25228">
        <ele>159.4</ele>
        <time>2023-05-02T13:02:43Z</time>
      </trkpt>
      <trkpt lat="46.44748" lon="1.25218">
        <ele>159.2</ele>
        <time>2023-05-02T13:02:46Z</time>
      </trkpt>
      <trkpt lat="46.44748" lon="1.25215">
        <ele>159</ele>
        <time>2023-05-02T13:02:47Z</time>
      </trkpt>
      <trkpt lat="46.44754" lon="1.25201">
        <ele>158.6</ele>
        <time>2023-05-02T13:02:51Z</time>
      </trkpt>
      <trkpt lat="46.44768" lon="1.25171">
        <ele>157.8</ele>
        <time>2023-05-02T13:02:56Z</time>
      </trkpt>
      <trkpt lat="46.44786" lon="1.25109">
        <ele>156.4</ele>
        <time>2023-05-02T13:03:03Z</time>
      </trkpt>
      <trkpt lat="46.44797" lon="1.25056">
        <ele>155.6</ele>
        <time>2023-05-02T13:03:09Z</time>
      </trkpt>
      <trkpt lat="46.448" lon="1.25048">
        <ele>155.4</ele>
        <time>2023-05-02T13:03:10Z</time>
      </trkpt>
      <trkpt lat="46.44806" lon="1.25035">
        <ele>155.2</ele>
        <time>2023-05-02T13:03:12Z</time>
      </trkpt>
      <trkpt lat="46.44812" lon="1.25023">
        <ele>155</ele>
        <time>2023-05-02T13:03:14Z</time>
      </trkpt>
      <trkpt lat="46.44823" lon="1.24989">
        <ele>154.4</ele>
        <time>2023-05-02T13:03:19Z</time>
      </trkpt>
      <trkpt lat="46.44833" lon="1.2496">
        <ele>153.8</ele>
        <time>2023-05-02T13:03:23Z</time>
      </trkpt>
      <trkpt lat="46.4484" lon="1.24948">
        <ele>153.6</ele>
        <time>2023-05-02T13:03:25Z</time>
      </trkpt>
      <trkpt lat="46.44851" lon="1.24932">
        <ele>153.4</ele>
        <time>2023-05-02T13:03:28Z</time>
      </trkpt>
      <trkpt lat="46.44857" lon="1.24926">
        <ele>153</ele>
        <time>2023-05-02T13:03:30Z</time>
      </trkpt>
      <trkpt lat="46.44864" lon="1.24919">
        <ele>152.4</ele>
        <time>2023-05-02T13:03:33Z</time>
      </trkpt>
      <trkpt lat="46.44868" lon="1.24916">
        <ele>152</ele>
        <time>2023-05-02T13:03:35Z</time>
      </trkpt>
      <trkpt lat="46.44869" lon="1.24915">
        <ele>151.8</ele>
        <time>2023-05-02T13:03:37Z</time>
      </trkpt>
      <trkpt lat="46.44866" lon="1.24913">
        <ele>150.2</ele>
        <time>2023-05-02T13:03:49Z</time>
      </trkpt>
      <trkpt lat="46.44857" lon="1.24925">
        <ele>149.4</ele>
        <time>2023-05-02T13:03:55Z</time>
      </trkpt>
      <trkpt lat="46.44846" lon="1.24938">
        <ele>148.6</ele>
        <time>2023-05-02T13:04:01Z</time>
      </trkpt>
      <trkpt lat="46.44839" lon="1.24948">
        <ele>148.2</ele>
        <time>2023-05-02T13:04:05Z</time>
      </trkpt>
      <trkpt lat="46.44837" lon="1.24951">
        <ele>148</ele>
        <time>2023-05-02T13:04:07Z</time>
      </trkpt>
      <trkpt lat="46.44836" lon="1.24953">
        <ele>148</ele>
        <time>2023-05-02T13:04:08Z</time>
      </trkpt>
      <trkpt lat="46.44835" lon="1.24953">
        <ele>147.8</ele>
        <time>2023-05-02T13:04:10Z</time>
      </trkpt>
      <trkpt lat="46.44839" lon="1.24948">
        <ele>147.6</ele>
        <time>2023-05-02T13:04:18Z</time>
      </trkpt>
      <trkpt lat="46.44842" lon="1.24945">
        <ele>147.6</ele>
        <time>2023-05-02T13:04:20Z</time>
      </trkpt>
      <trkpt lat="46.44845" lon="1.24942">
        <ele>147.6</ele>
        <time>2023-05-02T13:04:22Z</time>
      </trkpt>
      <trkpt lat="46.44846" lon="1.2494">
        <ele>147.6</ele>
        <time>2023-05-02T13:04:23Z</time>
      </trkpt>
      <trkpt lat="46.44848" lon="1.24936">
        <ele>147.4</ele>
        <time>2023-05-02T13:04:25Z</time>
      </trkpt>
      <trkpt lat="46.44852" lon="1.24931">
        <ele>147.4</ele>
        <time>2023-05-02T13:04:28Z</time>
      </trkpt>
      <trkpt lat="46.44853" lon="1.24929">
        <ele>147.2</ele>
        <time>2023-05-02T13:04:31Z</time>
      </trkpt>
      <trkpt lat="46.4485" lon="1.24933">
        <ele>145.8</ele>
        <time>2023-05-02T13:05:54Z</time>
      </trkpt>
      <trkpt lat="46.44839" lon="1.24949">
        <ele>146.2</ele>
        <time>2023-05-02T13:05:59Z</time>
      </trkpt>
      <trkpt lat="46.44829" lon="1.24968">
        <ele>146.4</ele>
        <time>2023-05-02T13:06:04Z</time>
      </trkpt>
      <trkpt lat="46.44817" lon="1.25001">
        <ele>146.6</ele>
        <time>2023-05-02T13:06:11Z</time>
      </trkpt>
      <trkpt lat="46.44816" lon="1.25007">
        <ele>146.8</ele>
        <time>2023-05-02T13:06:12Z</time>
      </trkpt>
      <trkpt lat="46.44811" lon="1.25022">
        <ele>146.8</ele>
        <time>2023-05-02T13:06:15Z</time>
      </trkpt>
      <trkpt lat="46.448" lon="1.25042">
        <ele>147</ele>
        <time>2023-05-02T13:06:20Z</time>
      </trkpt>
      <trkpt lat="46.44791" lon="1.25072">
        <ele>147.2</ele>
        <time>2023-05-02T13:06:26Z</time>
      </trkpt>
      <trkpt lat="46.44781" lon="1.25115">
        <ele>147.6</ele>
        <time>2023-05-02T13:06:34Z</time>
      </trkpt>
      <trkpt lat="46.44765" lon="1.25161">
        <ele>148.2</ele>
        <time>2023-05-02T13:06:43Z</time>
      </trkpt>
      <trkpt lat="46.44759" lon="1.25181">
        <ele>148.6</ele>
        <time>2023-05-02T13:06:48Z</time>
      </trkpt>
      <trkpt lat="46.44752" lon="1.25201">
        <ele>149.2</ele>
        <time>2023-05-02T13:06:54Z</time>
      </trkpt>
      <trkpt lat="46.4475" lon="1.25221">
        <ele>149.6</ele>
        <time>2023-05-02T13:06:59Z</time>
      </trkpt>
      <trkpt lat="46.44758" lon="1.25242">
        <ele>150.2</ele>
        <time>2023-05-02T13:07:05Z</time>
      </trkpt>
      <trkpt lat="46.44771" lon="1.25274">
        <ele>151.2</ele>
        <time>2023-05-02T13:07:14Z</time>
      </trkpt>
      <trkpt lat="46.44785" lon="1.25304">
        <ele>152</ele>
        <time>2023-05-02T13:07:22Z</time>
      </trkpt>
      <trkpt lat="46.44802" lon="1.25333">
        <ele>152.6</ele>
        <time>2023-05-02T13:07:30Z</time>
      </trkpt>
      <trkpt lat="46.44822" lon="1.25358">
        <ele>153.4</ele>
        <time>2023-05-02T13:07:37Z</time>
      </trkpt>
      <trkpt lat="46.44846" lon="1.25383">
        <ele>153.6</ele>
        <time>2023-05-02T13:07:43Z</time>
      </trkpt>
      <trkpt lat="46.44881" lon="1.25417">
        <ele>153.8</ele>
        <time>2023-05-02T13:07:50Z</time>
      </trkpt>
      <trkpt lat="46.44918" lon="1.25455">
        <ele>154</ele>
        <time>2023-05-02T13:07:58Z</time>
      </trkpt>
      <trkpt lat="46.44923" lon="1.2546">
        <ele>154</ele>
        <time>2023-05-02T13:07:59Z</time>
      </trkpt>
      <trkpt lat="46.44932" lon="1.25467">
        <ele>153.8</ele>
        <time>2023-05-02T13:08:01Z</time>
      </trkpt>
      <trkpt lat="46.44942" lon="1.25472">
        <ele>153.8</ele>
        <time>2023-05-02T13:08:03Z</time>
      </trkpt>
      <trkpt lat="46.44953" lon="1.25473">
        <ele>153.8</ele>
        <time>2023-05-02T13:08:05Z</time>
      </trkpt>
      <trkpt lat="46.44964" lon="1.2547">
        <ele>153.6</ele>
        <time>2023-05-02T13:08:07Z</time>
      </trkpt>
      <trkpt lat="46.44998" lon="1.25453">
        <ele>153.2</ele>
        <time>2023-05-02T13:08:13Z</time>
      </trkpt>
      <trkpt lat="46.45012" lon="1.25457">
        <ele>152.8</ele>
        <time>2023-05-02T13:08:15Z</time>
      </trkpt>
      <trkpt lat="46.45018" lon="1.25462">
        <ele>152.8</ele>
        <time>2023-05-02T13:08:16Z</time>
      </trkpt>
      <trkpt lat="46.45024" lon="1.2547">
        <ele>152.6</ele>
        <time>2023-05-02T13:08:17Z</time>
      </trkpt>
      <trkpt lat="46.45032" lon="1.25488">
        <ele>152.2</ele>
        <time>2023-05-02T13:08:19Z</time>
      </trkpt>
      <trkpt lat="46.45054" lon="1.25551">
        <ele>151.2</ele>
        <time>2023-05-02T13:08:25Z</time>
      </trkpt>
      <trkpt lat="46.45062" lon="1.256">
        <ele>150.8</ele>
        <time>2023-05-02T13:08:30Z</time>
      </trkpt>
      <trkpt lat="46.45068" lon="1.25644">
        <ele>150.8</ele>
        <time>2023-05-02T13:08:36Z</time>
      </trkpt>
      <trkpt lat="46.4507" lon="1.2566">
        <ele>150.6</ele>
        <time>2023-05-02T13:08:39Z</time>
      </trkpt>
      <trkpt lat="46.45073" lon="1.25684">
        <ele>150.4</ele>
        <time>2023-05-02T13:08:44Z</time>
      </trkpt>
      <trkpt lat="46.45077" lon="1.25714">
        <ele>150.2</ele>
        <time>2023-05-02T13:08:50Z</time>
      </trkpt>
      <trkpt lat="46.45082" lon="1.25747">
        <ele>150.2</ele>
        <time>2023-05-02T13:08:57Z</time>
      </trkpt>
      <trkpt lat="46.45086" lon="1.2578">
        <ele>150.8</ele>
        <time>2023-05-02T13:09:04Z</time>
      </trkpt>
      <trkpt lat="46.4509" lon="1.2581">
        <ele>151</ele>
        <time>2023-05-02T13:09:10Z</time>
      </trkpt>
      <trkpt lat="46.45097" lon="1.25842">
        <ele>151.6</ele>
        <time>2023-05-02T13:09:17Z</time>
      </trkpt>
      <trkpt lat="46.45104" lon="1.25869">
        <ele>152.4</ele>
        <time>2023-05-02T13:09:24Z</time>
      </trkpt>
      <trkpt lat="46.45111" lon="1.25897">
        <ele>153</ele>
        <time>2023-05-02T13:09:31Z</time>
      </trkpt>
      <trkpt lat="46.45119" lon="1.25907">
        <ele>153.6</ele>
        <time>2023-05-02T13:09:35Z</time>
      </trkpt>
      <trkpt lat="46.45127" lon="1.25901">
        <ele>154</ele>
        <time>2023-05-02T13:09:39Z</time>
      </trkpt>
      <trkpt lat="46.45137" lon="1.25884">
        <ele>154.8</ele>
        <time>2023-05-02T13:09:46Z</time>
      </trkpt>
      <trkpt lat="46.4515" lon="1.25862">
        <ele>155.8</ele>
        <time>2023-05-02T13:09:54Z</time>
      </trkpt>
      <trkpt lat="46.45161" lon="1.25844">
        <ele>156.6</ele>
        <time>2023-05-02T13:10:01Z</time>
      </trkpt>
      <trkpt lat="46.45173" lon="1.2582">
        <ele>157.2</ele>
        <time>2023-05-02T13:10:08Z</time>
      </trkpt>
      <trkpt lat="46.45186" lon="1.25793">
        <ele>158</ele>
        <time>2023-05-02T13:10:15Z</time>
      </trkpt>
      <trkpt lat="46.45201" lon="1.25758">
        <ele>158.4</ele>
        <time>2023-05-02T13:10:22Z</time>
      </trkpt>
      <trkpt lat="46.4522" lon="1.25713">
        <ele>158.8</ele>
        <time>2023-05-02T13:10:30Z</time>
      </trkpt>
      <trkpt lat="46.4524" lon="1.25663">
        <ele>159.2</ele>
        <time>2023-05-02T13:10:38Z</time>
      </trkpt>
      <trkpt lat="46.45264" lon="1.25606">
        <ele>159.4</ele>
        <time>2023-05-02T13:10:46Z</time>
      </trkpt>
      <trkpt lat="46.45272" lon="1.25591">
        <ele>159.6</ele>
        <time>2023-05-02T13:10:48Z</time>
      </trkpt>
      <trkpt lat="46.45287" lon="1.2557">
        <ele>159.6</ele>
        <time>2023-05-02T13:10:51Z</time>
      </trkpt>
      <trkpt lat="46.45306" lon="1.25556">
        <ele>159.4</ele>
        <time>2023-05-02T13:10:54Z</time>
      </trkpt>
      <trkpt lat="46.45313" lon="1.25552">
        <ele>159.4</ele>
        <time>2023-05-02T13:10:55Z</time>
      </trkpt>
      <trkpt lat="46.45351" lon="1.25536">
        <ele>159.2</ele>
        <time>2023-05-02T13:11:00Z</time>
      </trkpt>
      <trkpt lat="46.45366" lon="1.25524">
        <ele>159</ele>
        <time>2023-05-02T13:11:02Z</time>
      </trkpt>
      <trkpt lat="46.4538" lon="1.25508">
        <ele>158.8</ele>
        <time>2023-05-02T13:11:04Z</time>
      </trkpt>
      <trkpt lat="46.45386" lon="1.25498">
        <ele>158.6</ele>
        <time>2023-05-02T13:11:05Z</time>
      </trkpt>
      <trkpt lat="46.45403" lon="1.25464">
        <ele>158.2</ele>
        <time>2023-05-02T13:11:08Z</time>
      </trkpt>
      <trkpt lat="46.45432" lon="1.25395">
        <ele>157.6</ele>
        <time>2023-05-02T13:11:14Z</time>
      </trkpt>
      <trkpt lat="46.4544" lon="1.25376">
        <ele>157.4</ele>
        <time>2023-05-02T13:11:16Z</time>
      </trkpt>
      <trkpt lat="46.4545" lon="1.25364">
        <ele>157.6</ele>
        <time>2023-05-02T13:11:18Z</time>
      </trkpt>
      <trkpt lat="46.4546" lon="1.25358">
        <ele>157.6</ele>
        <time>2023-05-02T13:11:20Z</time>
      </trkpt>
      <trkpt lat="46.45465" lon="1.25358">
        <ele>157.6</ele>
        <time>2023-05-02T13:11:21Z</time>
      </trkpt>
      <trkpt lat="46.45469" lon="1.25359">
        <ele>157.6</ele>
        <time>2023-05-02T13:11:22Z</time>
      </trkpt>
      <trkpt lat="46.45487" lon="1.25366">
        <ele>157.6</ele>
        <time>2023-05-02T13:11:26Z</time>
      </trkpt>
      <trkpt lat="46.45491" lon="1.25367">
        <ele>157.6</ele>
        <time>2023-05-02T13:11:27Z</time>
      </trkpt>
      <trkpt lat="46.45499" lon="1.25366">
        <ele>157.6</ele>
        <time>2023-05-02T13:11:29Z</time>
      </trkpt>
      <trkpt lat="46.45503" lon="1.25365">
        <ele>157.8</ele>
        <time>2023-05-02T13:11:30Z</time>
      </trkpt>
      <trkpt lat="46.45514" lon="1.2535">
        <ele>157.2</ele>
        <time>2023-05-02T13:11:34Z</time>
      </trkpt>
      <trkpt lat="46.45517" lon="1.2532">
        <ele>158</ele>
        <time>2023-05-02T13:11:39Z</time>
      </trkpt>
      <trkpt lat="46.45523" lon="1.25294">
        <ele>158</ele>
        <time>2023-05-02T13:11:44Z</time>
      </trkpt>
      <trkpt lat="46.45536" lon="1.25279">
        <ele>158.4</ele>
        <time>2023-05-02T13:11:49Z</time>
      </trkpt>
      <trkpt lat="46.45549" lon="1.25276">
        <ele>158.8</ele>
        <time>2023-05-02T13:11:53Z</time>
      </trkpt>
      <trkpt lat="46.4557" lon="1.25274">
        <ele>159.2</ele>
        <time>2023-05-02T13:11:59Z</time>
      </trkpt>
      <trkpt lat="46.45595" lon="1.25272">
        <ele>160</ele>
        <time>2023-05-02T13:12:06Z</time>
      </trkpt>
      <trkpt lat="46.45625" lon="1.25269">
        <ele>160.6</ele>
        <time>2023-05-02T13:12:14Z</time>
      </trkpt>
      <trkpt lat="46.45648" lon="1.25266">
        <ele>161.2</ele>
        <time>2023-05-02T13:12:20Z</time>
      </trkpt>
      <trkpt lat="46.4568" lon="1.25246">
        <ele>161.8</ele>
        <time>2023-05-02T13:12:28Z</time>
      </trkpt>
      <trkpt lat="46.45712" lon="1.25224">
        <ele>162.4</ele>
        <time>2023-05-02T13:12:36Z</time>
      </trkpt>
      <trkpt lat="46.45743" lon="1.25212">
        <ele>163.2</ele>
        <time>2023-05-02T13:12:43Z</time>
      </trkpt>
      <trkpt lat="46.45775" lon="1.25209">
        <ele>163.6</ele>
        <time>2023-05-02T13:12:50Z</time>
      </trkpt>
      <trkpt lat="46.45797" lon="1.25208">
        <ele>164</ele>
        <time>2023-05-02T13:12:55Z</time>
      </trkpt>
      <trkpt lat="46.45806" lon="1.25206">
        <ele>164.2</ele>
        <time>2023-05-02T13:12:57Z</time>
      </trkpt>
      <trkpt lat="46.4584" lon="1.25192">
        <ele>164.6</ele>
        <time>2023-05-02T13:13:05Z</time>
      </trkpt>
      <trkpt lat="46.45876" lon="1.25173">
        <ele>165</ele>
        <time>2023-05-02T13:13:13Z</time>
      </trkpt>
      <trkpt lat="46.45914" lon="1.25148">
        <ele>165.4</ele>
        <time>2023-05-02T13:13:22Z</time>
      </trkpt>
      <trkpt lat="46.45923" lon="1.2514">
        <ele>165.4</ele>
        <time>2023-05-02T13:13:24Z</time>
      </trkpt>
      <trkpt lat="46.45934" lon="1.25124">
        <ele>165.4</ele>
        <time>2023-05-02T13:13:27Z</time>
      </trkpt>
      <trkpt lat="46.45944" lon="1.25107">
        <ele>165.4</ele>
        <time>2023-05-02T13:13:30Z</time>
      </trkpt>
      <trkpt lat="46.45951" lon="1.25096">
        <ele>165.4</ele>
        <time>2023-05-02T13:13:32Z</time>
      </trkpt>
      <trkpt lat="46.45972" lon="1.25058">
        <ele>165.4</ele>
        <time>2023-05-02T13:13:38Z</time>
      </trkpt>
      <trkpt lat="46.45983" lon="1.25029">
        <ele>165.6</ele>
        <time>2023-05-02T13:13:42Z</time>
      </trkpt>
      <trkpt lat="46.45987" lon="1.25014">
        <ele>165.6</ele>
        <time>2023-05-02T13:13:44Z</time>
      </trkpt>
      <trkpt lat="46.46003" lon="1.24947">
        <ele>166.2</ele>
        <time>2023-05-02T13:13:53Z</time>
      </trkpt>
      <trkpt lat="46.46019" lon="1.24889">
        <ele>167</ele>
        <time>2023-05-02T13:14:01Z</time>
      </trkpt>
      <trkpt lat="46.46038" lon="1.24834">
        <ele>167.6</ele>
        <time>2023-05-02T13:14:09Z</time>
      </trkpt>
      <trkpt lat="46.46064" lon="1.24762">
        <ele>168.4</ele>
        <time>2023-05-02T13:14:19Z</time>
      </trkpt>
      <trkpt lat="46.4607" lon="1.24742">
        <ele>168.6</ele>
        <time>2023-05-02T13:14:22Z</time>
      </trkpt>
      <trkpt lat="46.46074" lon="1.2472">
        <ele>169</ele>
        <time>2023-05-02T13:14:25Z</time>
      </trkpt>
      <trkpt lat="46.46082" lon="1.24666">
        <ele>169.6</ele>
        <time>2023-05-02T13:14:32Z</time>
      </trkpt>
      <trkpt lat="46.46084" lon="1.24658">
        <ele>169.6</ele>
        <time>2023-05-02T13:14:33Z</time>
      </trkpt>
      <trkpt lat="46.46089" lon="1.24643">
        <ele>169.8</ele>
        <time>2023-05-02T13:14:35Z</time>
      </trkpt>
      <trkpt lat="46.46092" lon="1.24637">
        <ele>170</ele>
        <time>2023-05-02T13:14:36Z</time>
      </trkpt>
      <trkpt lat="46.46096" lon="1.24631">
        <ele>170</ele>
        <time>2023-05-02T13:14:37Z</time>
      </trkpt>
      <trkpt lat="46.46113" lon="1.24614">
        <ele>170.2</ele>
        <time>2023-05-02T13:14:41Z</time>
      </trkpt>
      <trkpt lat="46.46147" lon="1.24583">
        <ele>170.6</ele>
        <time>2023-05-02T13:14:48Z</time>
      </trkpt>
      <trkpt lat="46.46162" lon="1.24572">
        <ele>170.8</ele>
        <time>2023-05-02T13:14:51Z</time>
      </trkpt>
      <trkpt lat="46.46174" lon="1.24568">
        <ele>170.8</ele>
        <time>2023-05-02T13:14:53Z</time>
      </trkpt>
      <trkpt lat="46.46185" lon="1.2457">
        <ele>171</ele>
        <time>2023-05-02T13:14:55Z</time>
      </trkpt>
      <trkpt lat="46.46195" lon="1.24575">
        <ele>171.2</ele>
        <time>2023-05-02T13:14:57Z</time>
      </trkpt>
      <trkpt lat="46.46216" lon="1.24598">
        <ele>171.4</ele>
        <time>2023-05-02T13:15:02Z</time>
      </trkpt>
      <trkpt lat="46.4625" lon="1.24639">
        <ele>172</ele>
        <time>2023-05-02T13:15:10Z</time>
      </trkpt>
      <trkpt lat="46.46273" lon="1.2466">
        <ele>172.2</ele>
        <time>2023-05-02T13:15:15Z</time>
      </trkpt>
      <trkpt lat="46.46279" lon="1.24662">
        <ele>172.2</ele>
        <time>2023-05-02T13:15:16Z</time>
      </trkpt>
      <trkpt lat="46.46325" lon="1.24684">
        <ele>172.6</ele>
        <time>2023-05-02T13:15:24Z</time>
      </trkpt>
      <trkpt lat="46.46368" lon="1.24698">
        <ele>172.8</ele>
        <time>2023-05-02T13:15:32Z</time>
      </trkpt>
      <trkpt lat="46.46393" lon="1.24704">
        <ele>172.8</ele>
        <time>2023-05-02T13:15:37Z</time>
      </trkpt>
      <trkpt lat="46.46402" lon="1.24709">
        <ele>172.8</ele>
        <time>2023-05-02T13:15:39Z</time>
      </trkpt>
      <trkpt lat="46.4643" lon="1.24731">
        <ele>173</ele>
        <time>2023-05-02T13:15:45Z</time>
      </trkpt>
      <trkpt lat="46.4647" lon="1.24759">
        <ele>173</ele>
        <time>2023-05-02T13:15:53Z</time>
      </trkpt>
      <trkpt lat="46.46513" lon="1.24785">
        <ele>173</ele>
        <time>2023-05-02T13:16:02Z</time>
      </trkpt>
      <trkpt lat="46.46547" lon="1.24805">
        <ele>173.4</ele>
        <time>2023-05-02T13:16:10Z</time>
      </trkpt>
      <trkpt lat="46.46575" lon="1.24821">
        <ele>173.8</ele>
        <time>2023-05-02T13:16:17Z</time>
      </trkpt>
      <trkpt lat="46.46602" lon="1.24835">
        <ele>174.4</ele>
        <time>2023-05-02T13:16:25Z</time>
      </trkpt>
      <trkpt lat="46.46625" lon="1.24849">
        <ele>174.8</ele>
        <time>2023-05-02T13:16:32Z</time>
      </trkpt>
      <trkpt lat="46.46645" lon="1.24861">
        <ele>175.4</ele>
        <time>2023-05-02T13:16:38Z</time>
      </trkpt>
      <trkpt lat="46.46671" lon="1.24875">
        <ele>176</ele>
        <time>2023-05-02T13:16:46Z</time>
      </trkpt>
      <trkpt lat="46.46688" lon="1.24889">
        <ele>176.6</ele>
        <time>2023-05-02T13:16:52Z</time>
      </trkpt>
      <trkpt lat="46.46689" lon="1.24894">
        <ele>176.8</ele>
        <time>2023-05-02T13:16:53Z</time>
      </trkpt>
      <trkpt lat="46.46684" lon="1.2492">
        <ele>177.2</ele>
        <time>2023-05-02T13:16:58Z</time>
      </trkpt>
      <trkpt lat="46.46673" lon="1.24972">
        <ele>178</ele>
        <time>2023-05-02T13:17:07Z</time>
      </trkpt>
      <trkpt lat="46.46663" lon="1.25027">
        <ele>178.8</ele>
        <time>2023-05-02T13:17:16Z</time>
      </trkpt>
      <trkpt lat="46.46661" lon="1.25045">
        <ele>179.2</ele>
        <time>2023-05-02T13:17:20Z</time>
      </trkpt>
      <trkpt lat="46.46664" lon="1.25039">
        <ele>179.6</ele>
        <time>2023-05-02T13:17:23Z</time>
      </trkpt>
      <trkpt lat="46.46668" lon="1.25014">
        <ele>180</ele>
        <time>2023-05-02T13:17:29Z</time>
      </trkpt>
      <trkpt lat="46.4667" lon="1.2501">
        <ele>180.2</ele>
        <time>2023-05-02T13:17:30Z</time>
      </trkpt>
      <trkpt lat="46.46675" lon="1.25005">
        <ele>180.2</ele>
        <time>2023-05-02T13:17:32Z</time>
      </trkpt>
      <trkpt lat="46.46689" lon="1.25012">
        <ele>180.4</ele>
        <time>2023-05-02T13:17:36Z</time>
      </trkpt>
      <trkpt lat="46.46711" lon="1.2503">
        <ele>180.6</ele>
        <time>2023-05-02T13:17:42Z</time>
      </trkpt>
      <trkpt lat="46.46718" lon="1.25037">
        <ele>180.8</ele>
        <time>2023-05-02T13:17:44Z</time>
      </trkpt>
      <trkpt lat="46.46748" lon="1.25064">
        <ele>181.4</ele>
        <time>2023-05-02T13:17:52Z</time>
      </trkpt>
      <trkpt lat="46.46752" lon="1.25068">
        <ele>181.4</ele>
        <time>2023-05-02T13:17:53Z</time>
      </trkpt>
      <trkpt lat="46.46768" lon="1.25086">
        <ele>181.8</ele>
        <time>2023-05-02T13:17:58Z</time>
      </trkpt>
      <trkpt lat="46.4679" lon="1.25109">
        <ele>182.4</ele>
        <time>2023-05-02T13:18:05Z</time>
      </trkpt>
      <trkpt lat="46.4681" lon="1.25128">
        <ele>182.8</ele>
        <time>2023-05-02T13:18:11Z</time>
      </trkpt>
      <trkpt lat="46.4683" lon="1.25145">
        <ele>183</ele>
        <time>2023-05-02T13:18:17Z</time>
      </trkpt>
      <trkpt lat="46.4684" lon="1.25154">
        <ele>183.2</ele>
        <time>2023-05-02T13:18:20Z</time>
      </trkpt>
      <trkpt lat="46.46852" lon="1.25164">
        <ele>183.4</ele>
        <time>2023-05-02T13:18:23Z</time>
      </trkpt>
      <trkpt lat="46.46871" lon="1.25186">
        <ele>183.6</ele>
        <time>2023-05-02T13:18:28Z</time>
      </trkpt>
      <trkpt lat="46.46897" lon="1.2522">
        <ele>183.6</ele>
        <time>2023-05-02T13:18:35Z</time>
      </trkpt>
      <trkpt lat="46.46911" lon="1.25241">
        <ele>183.6</ele>
        <time>2023-05-02T13:18:39Z</time>
      </trkpt>
      <trkpt lat="46.46914" lon="1.25246">
        <ele>183.6</ele>
        <time>2023-05-02T13:18:40Z</time>
      </trkpt>
      <trkpt lat="46.46917" lon="1.25251">
        <ele>183.6</ele>
        <time>2023-05-02T13:18:41Z</time>
      </trkpt>
      <trkpt lat="46.46932" lon="1.25273">
        <ele>183.6</ele>
        <time>2023-05-02T13:18:45Z</time>
      </trkpt>
      <trkpt lat="46.4695" lon="1.25311">
        <ele>183.2</ele>
        <time>2023-05-02T13:18:50Z</time>
      </trkpt>
      <trkpt lat="46.46968" lon="1.25363">
        <ele>182.6</ele>
        <time>2023-05-02T13:18:56Z</time>
      </trkpt>
      <trkpt lat="46.46995" lon="1.25436">
        <ele>182</ele>
        <time>2023-05-02T13:19:04Z</time>
      </trkpt>
      <trkpt lat="46.47013" lon="1.25488">
        <ele>181.6</ele>
        <time>2023-05-02T13:19:10Z</time>
      </trkpt>
      <trkpt lat="46.47037" lon="1.25542">
        <ele>180.8</ele>
        <time>2023-05-02T13:19:17Z</time>
      </trkpt>
      <trkpt lat="46.47058" lon="1.25588">
        <ele>180</ele>
        <time>2023-05-02T13:19:23Z</time>
      </trkpt>
      <trkpt lat="46.47089" lon="1.25642">
        <ele>178.8</ele>
        <time>2023-05-02T13:19:31Z</time>
      </trkpt>
      <trkpt lat="46.47104" lon="1.25668">
        <ele>178.2</ele>
        <time>2023-05-02T13:19:35Z</time>
      </trkpt>
      <trkpt lat="46.47111" lon="1.25678">
        <ele>178</ele>
        <time>2023-05-02T13:19:37Z</time>
      </trkpt>
      <trkpt lat="46.47114" lon="1.2568">
        <ele>178</ele>
        <time>2023-05-02T13:19:38Z</time>
      </trkpt>
      <trkpt lat="46.47122" lon="1.25679">
        <ele>177.6</ele>
        <time>2023-05-02T13:19:40Z</time>
      </trkpt>
      <trkpt lat="46.47137" lon="1.25663">
        <ele>177.2</ele>
        <time>2023-05-02T13:19:45Z</time>
      </trkpt>
      <trkpt lat="46.47162" lon="1.25635">
        <ele>176.6</ele>
        <time>2023-05-02T13:19:52Z</time>
      </trkpt>
      <trkpt lat="46.47182" lon="1.2561">
        <ele>176.2</ele>
        <time>2023-05-02T13:19:57Z</time>
      </trkpt>
      <trkpt lat="46.47186" lon="1.25605">
        <ele>176.2</ele>
        <time>2023-05-02T13:19:58Z</time>
      </trkpt>
      <trkpt lat="46.47194" lon="1.25596">
        <ele>176</ele>
        <time>2023-05-02T13:20:00Z</time>
      </trkpt>
      <trkpt lat="46.47202" lon="1.25588">
        <ele>176</ele>
        <time>2023-05-02T13:20:02Z</time>
      </trkpt>
      <trkpt lat="46.47212" lon="1.25574">
        <ele>175.6</ele>
        <time>2023-05-02T13:20:05Z</time>
      </trkpt>
      <trkpt lat="46.47218" lon="1.25563">
        <ele>175.6</ele>
        <time>2023-05-02T13:20:07Z</time>
      </trkpt>
      <trkpt lat="46.47245" lon="1.25529">
        <ele>175</ele>
        <time>2023-05-02T13:20:14Z</time>
      </trkpt>
      <trkpt lat="46.47249" lon="1.25525">
        <ele>175</ele>
        <time>2023-05-02T13:20:15Z</time>
      </trkpt>
      <trkpt lat="46.47261" lon="1.25516">
        <ele>174.4</ele>
        <time>2023-05-02T13:20:18Z</time>
      </trkpt>
      <trkpt lat="46.4727" lon="1.25508">
        <ele>174.2</ele>
        <time>2023-05-02T13:20:20Z</time>
      </trkpt>
      <trkpt lat="46.47279" lon="1.25501">
        <ele>173.8</ele>
        <time>2023-05-02T13:20:22Z</time>
      </trkpt>
      <trkpt lat="46.47293" lon="1.25492">
        <ele>173.4</ele>
        <time>2023-05-02T13:20:25Z</time>
      </trkpt>
      <trkpt lat="46.47307" lon="1.25483">
        <ele>173</ele>
        <time>2023-05-02T13:20:28Z</time>
      </trkpt>
      <trkpt lat="46.47331" lon="1.25467">
        <ele>172.4</ele>
        <time>2023-05-02T13:20:33Z</time>
      </trkpt>
      <trkpt lat="46.47373" lon="1.25441">
        <ele>171.8</ele>
        <time>2023-05-02T13:20:42Z</time>
      </trkpt>
      <trkpt lat="46.47382" lon="1.25436">
        <ele>171.6</ele>
        <time>2023-05-02T13:20:44Z</time>
      </trkpt>
      <trkpt lat="46.47401" lon="1.25427">
        <ele>171.2</ele>
        <time>2023-05-02T13:20:48Z</time>
      </trkpt>
      <trkpt lat="46.47432" lon="1.2541">
        <ele>171</ele>
        <time>2023-05-02T13:20:54Z</time>
      </trkpt>
      <trkpt lat="46.47446" lon="1.25398">
        <ele>170.8</ele>
        <time>2023-05-02T13:20:57Z</time>
      </trkpt>
      <trkpt lat="46.47454" lon="1.25387">
        <ele>170.8</ele>
        <time>2023-05-02T13:20:59Z</time>
      </trkpt>
      <trkpt lat="46.47482" lon="1.2535">
        <ele>170.6</ele>
        <time>2023-05-02T13:21:05Z</time>
      </trkpt>
      <trkpt lat="46.47513" lon="1.25313">
        <ele>170.6</ele>
        <time>2023-05-02T13:21:12Z</time>
      </trkpt>
      <trkpt lat="46.47546" lon="1.25278">
        <ele>170.4</ele>
        <time>2023-05-02T13:21:19Z</time>
      </trkpt>
      <trkpt lat="46.47582" lon="1.25244">
        <ele>170.4</ele>
        <time>2023-05-02T13:21:27Z</time>
      </trkpt>
      <trkpt lat="46.47609" lon="1.25221">
        <ele>170.8</ele>
        <time>2023-05-02T13:21:34Z</time>
      </trkpt>
      <trkpt lat="46.47626" lon="1.25212">
        <ele>171</ele>
        <time>2023-05-02T13:21:39Z</time>
      </trkpt>
      <trkpt lat="46.4764" lon="1.25189">
        <ele>171.2</ele>
        <time>2023-05-02T13:21:44Z</time>
      </trkpt>
      <trkpt lat="46.47662" lon="1.25151">
        <ele>171.4</ele>
        <time>2023-05-02T13:21:51Z</time>
      </trkpt>
      <trkpt lat="46.47689" lon="1.25114">
        <ele>171.6</ele>
        <time>2023-05-02T13:21:58Z</time>
      </trkpt>
      <trkpt lat="46.47722" lon="1.25073">
        <ele>171.6</ele>
        <time>2023-05-02T13:22:05Z</time>
      </trkpt>
      <trkpt lat="46.47764" lon="1.25021">
        <ele>171.6</ele>
        <time>2023-05-02T13:22:14Z</time>
      </trkpt>
      <trkpt lat="46.47768" lon="1.25015">
        <ele>171.6</ele>
        <time>2023-05-02T13:22:15Z</time>
      </trkpt>
      <trkpt lat="46.47794" lon="1.2498">
        <ele>171.6</ele>
        <time>2023-05-02T13:22:21Z</time>
      </trkpt>
      <trkpt lat="46.4784" lon="1.24923">
        <ele>171.6</ele>
        <time>2023-05-02T13:22:30Z</time>
      </trkpt>
      <trkpt lat="46.47845" lon="1.24917">
        <ele>171.6</ele>
        <time>2023-05-02T13:22:31Z</time>
      </trkpt>
      <trkpt lat="46.4789" lon="1.24861">
        <ele>171.4</ele>
        <time>2023-05-02T13:22:40Z</time>
      </trkpt>
      <trkpt lat="46.47923" lon="1.24819">
        <ele>171.4</ele>
        <time>2023-05-02T13:22:47Z</time>
      </trkpt>
      <trkpt lat="46.47968" lon="1.24773">
        <ele>171.4</ele>
        <time>2023-05-02T13:22:56Z</time>
      </trkpt>
      <trkpt lat="46.48017" lon="1.24729">
        <ele>171.4</ele>
        <time>2023-05-02T13:23:05Z</time>
      </trkpt>
      <trkpt lat="46.48071" lon="1.24696">
        <ele>171</ele>
        <time>2023-05-02T13:23:14Z</time>
      </trkpt>
      <trkpt lat="46.48078" lon="1.24692">
        <ele>171</ele>
        <time>2023-05-02T13:23:15Z</time>
      </trkpt>
      <trkpt lat="46.48133" lon="1.24658">
        <ele>170.6</ele>
        <time>2023-05-02T13:23:24Z</time>
      </trkpt>
      <trkpt lat="46.48177" lon="1.24631">
        <ele>170.2</ele>
        <time>2023-05-02T13:23:31Z</time>
      </trkpt>
      <trkpt lat="46.48231" lon="1.24598">
        <ele>169.6</ele>
        <time>2023-05-02T13:23:40Z</time>
      </trkpt>
      <trkpt lat="46.48265" lon="1.24571">
        <ele>169</ele>
        <time>2023-05-02T13:23:46Z</time>
      </trkpt>
      <trkpt lat="46.48308" lon="1.24525">
        <ele>168.2</ele>
        <time>2023-05-02T13:23:54Z</time>
      </trkpt>
      <trkpt lat="46.48343" lon="1.24481">
        <ele>167.6</ele>
        <time>2023-05-02T13:24:01Z</time>
      </trkpt>
      <trkpt lat="46.48384" lon="1.24428">
        <ele>166.8</ele>
        <time>2023-05-02T13:24:10Z</time>
      </trkpt>
      <trkpt lat="46.4842" lon="1.24383">
        <ele>166.4</ele>
        <time>2023-05-02T13:24:18Z</time>
      </trkpt>
      <trkpt lat="46.48429" lon="1.24378">
        <ele>166.4</ele>
        <time>2023-05-02T13:24:20Z</time>
      </trkpt>
      <trkpt lat="46.48433" lon="1.24378">
        <ele>166.2</ele>
        <time>2023-05-02T13:24:21Z</time>
      </trkpt>
      <trkpt lat="46.48437" lon="1.2438">
        <ele>166.2</ele>
        <time>2023-05-02T13:24:22Z</time>
      </trkpt>
      <trkpt lat="46.48444" lon="1.24389">
        <ele>166</ele>
        <time>2023-05-02T13:24:24Z</time>
      </trkpt>
      <trkpt lat="46.48448" lon="1.24394">
        <ele>166</ele>
        <time>2023-05-02T13:24:25Z</time>
      </trkpt>
      <trkpt lat="46.48476" lon="1.24439">
        <ele>165.4</ele>
        <time>2023-05-02T13:24:33Z</time>
      </trkpt>
      <trkpt lat="46.48502" lon="1.24477">
        <ele>164.8</ele>
        <time>2023-05-02T13:24:40Z</time>
      </trkpt>
      <trkpt lat="46.48525" lon="1.24506">
        <ele>164</ele>
        <time>2023-05-02T13:24:46Z</time>
      </trkpt>
      <trkpt lat="46.48553" lon="1.24545">
        <ele>163.4</ele>
        <time>2023-05-02T13:24:54Z</time>
      </trkpt>
      <trkpt lat="46.48557" lon="1.24551">
        <ele>163.4</ele>
        <time>2023-05-02T13:24:55Z</time>
      </trkpt>
      <trkpt lat="46.48569" lon="1.24575">
        <ele>163</ele>
        <time>2023-05-02T13:24:59Z</time>
      </trkpt>
      <trkpt lat="46.48578" lon="1.24592">
        <ele>162.8</ele>
        <time>2023-05-02T13:25:02Z</time>
      </trkpt>
      <trkpt lat="46.48584" lon="1.24603">
        <ele>162.6</ele>
        <time>2023-05-02T13:25:04Z</time>
      </trkpt>
      <trkpt lat="46.48599" lon="1.24633">
        <ele>162.2</ele>
        <time>2023-05-02T13:25:09Z</time>
      </trkpt>
      <trkpt lat="46.48621" lon="1.24679">
        <ele>161.8</ele>
        <time>2023-05-02T13:25:16Z</time>
      </trkpt>
      <trkpt lat="46.48626" lon="1.24691">
        <ele>161.6</ele>
        <time>2023-05-02T13:25:18Z</time>
      </trkpt>
      <trkpt lat="46.48636" lon="1.24711">
        <ele>161.4</ele>
        <time>2023-05-02T13:25:21Z</time>
      </trkpt>
      <trkpt lat="46.48651" lon="1.24737">
        <ele>161.4</ele>
        <time>2023-05-02T13:25:25Z</time>
      </trkpt>
      <trkpt lat="46.48662" lon="1.24757">
        <ele>161.4</ele>
        <time>2023-05-02T13:25:28Z</time>
      </trkpt>
      <trkpt lat="46.48673" lon="1.24776">
        <ele>161.4</ele>
        <time>2023-05-02T13:25:31Z</time>
      </trkpt>
      <trkpt lat="46.48682" lon="1.24793">
        <ele>161.4</ele>
        <time>2023-05-02T13:25:34Z</time>
      </trkpt>
      <trkpt lat="46.48703" lon="1.24831">
        <ele>161.4</ele>
        <time>2023-05-02T13:25:40Z</time>
      </trkpt>
      <trkpt lat="46.48734" lon="1.24877">
        <ele>161</ele>
        <time>2023-05-02T13:25:48Z</time>
      </trkpt>
      <trkpt lat="46.48764" lon="1.2492">
        <ele>160.6</ele>
        <time>2023-05-02T13:25:55Z</time>
      </trkpt>
      <trkpt lat="46.48797" lon="1.24966">
        <ele>160.2</ele>
        <time>2023-05-02T13:26:03Z</time>
      </trkpt>
      <trkpt lat="46.48831" lon="1.25015">
        <ele>159.8</ele>
        <time>2023-05-02T13:26:11Z</time>
      </trkpt>
      <trkpt lat="46.48844" lon="1.2503">
        <ele>159.6</ele>
        <time>2023-05-02T13:26:14Z</time>
      </trkpt>
      <trkpt lat="46.48853" lon="1.25037">
        <ele>159.4</ele>
        <time>2023-05-02T13:26:16Z</time>
      </trkpt>
      <trkpt lat="46.48873" lon="1.25043">
        <ele>159</ele>
        <time>2023-05-02T13:26:20Z</time>
      </trkpt>
      <trkpt lat="46.48907" lon="1.25053">
        <ele>158.6</ele>
        <time>2023-05-02T13:26:26Z</time>
      </trkpt>
      <trkpt lat="46.48942" lon="1.25063">
        <ele>158.4</ele>
        <time>2023-05-02T13:26:32Z</time>
      </trkpt>
      <trkpt lat="46.48984" lon="1.25074">
        <ele>158</ele>
        <time>2023-05-02T13:26:39Z</time>
      </trkpt>
      <trkpt lat="46.49031" lon="1.25088">
        <ele>157.8</ele>
        <time>2023-05-02T13:26:47Z</time>
      </trkpt>
      <trkpt lat="46.49068" lon="1.25096">
        <ele>157.6</ele>
        <time>2023-05-02T13:26:54Z</time>
      </trkpt>
      <trkpt lat="46.49109" lon="1.25099">
        <ele>157.4</ele>
        <time>2023-05-02T13:27:01Z</time>
      </trkpt>
      <trkpt lat="46.4915" lon="1.25112">
        <ele>157.2</ele>
        <time>2023-05-02T13:27:08Z</time>
      </trkpt>
      <trkpt lat="46.4919" lon="1.25122">
        <ele>157</ele>
        <time>2023-05-02T13:27:15Z</time>
      </trkpt>
      <trkpt lat="46.49224" lon="1.25129">
        <ele>156.8</ele>
        <time>2023-05-02T13:27:21Z</time>
      </trkpt>
      <trkpt lat="46.4923" lon="1.25131">
        <ele>156.6</ele>
        <time>2023-05-02T13:27:22Z</time>
      </trkpt>
      <trkpt lat="46.49235" lon="1.25134">
        <ele>156.6</ele>
        <time>2023-05-02T13:27:23Z</time>
      </trkpt>
      <trkpt lat="46.49244" lon="1.25141">
        <ele>156.6</ele>
        <time>2023-05-02T13:27:25Z</time>
      </trkpt>
      <trkpt lat="46.49248" lon="1.25144">
        <ele>156.6</ele>
        <time>2023-05-02T13:27:26Z</time>
      </trkpt>
      <trkpt lat="46.49252" lon="1.25145">
        <ele>156.4</ele>
        <time>2023-05-02T13:27:27Z</time>
      </trkpt>
      <trkpt lat="46.49258" lon="1.25139">
        <ele>156.4</ele>
        <time>2023-05-02T13:27:29Z</time>
      </trkpt>
      <trkpt lat="46.4926" lon="1.25134">
        <ele>156.4</ele>
        <time>2023-05-02T13:27:30Z</time>
      </trkpt>
      <trkpt lat="46.49266" lon="1.25115">
        <ele>156.4</ele>
        <time>2023-05-02T13:27:33Z</time>
      </trkpt>
      <trkpt lat="46.49287" lon="1.25069">
        <ele>155.8</ele>
        <time>2023-05-02T13:27:40Z</time>
      </trkpt>
      <trkpt lat="46.49314" lon="1.25027">
        <ele>155.4</ele>
        <time>2023-05-02T13:27:47Z</time>
      </trkpt>
      <trkpt lat="46.49346" lon="1.24979">
        <ele>155</ele>
        <time>2023-05-02T13:27:55Z</time>
      </trkpt>
      <trkpt lat="46.49366" lon="1.24949">
        <ele>155</ele>
        <time>2023-05-02T13:28:00Z</time>
      </trkpt>
      <trkpt lat="46.4937" lon="1.24946">
        <ele>155</ele>
        <time>2023-05-02T13:28:01Z</time>
      </trkpt>
      <trkpt lat="46.49375" lon="1.24945">
        <ele>155</ele>
        <time>2023-05-02T13:28:02Z</time>
      </trkpt>
      <trkpt lat="46.49384" lon="1.24948">
        <ele>155</ele>
        <time>2023-05-02T13:28:04Z</time>
      </trkpt>
      <trkpt lat="46.49405" lon="1.24967">
        <ele>154.8</ele>
        <time>2023-05-02T13:28:09Z</time>
      </trkpt>
      <trkpt lat="46.49438" lon="1.24994">
        <ele>154.8</ele>
        <time>2023-05-02T13:28:16Z</time>
      </trkpt>
      <trkpt lat="46.49465" lon="1.25017">
        <ele>154.6</ele>
        <time>2023-05-02T13:28:22Z</time>
      </trkpt>
      <trkpt lat="46.4949" lon="1.25034">
        <ele>154.4</ele>
        <time>2023-05-02T13:28:27Z</time>
      </trkpt>
      <trkpt lat="46.49503" lon="1.25039">
        <ele>154.2</ele>
        <time>2023-05-02T13:28:29Z</time>
      </trkpt>
      <trkpt lat="46.49542" lon="1.25053">
        <ele>153.6</ele>
        <time>2023-05-02T13:28:35Z</time>
      </trkpt>
      <trkpt lat="46.49584" lon="1.25067">
        <ele>152.8</ele>
        <time>2023-05-02T13:28:41Z</time>
      </trkpt>
      <trkpt lat="46.49606" lon="1.25071">
        <ele>152.4</ele>
        <time>2023-05-02T13:28:44Z</time>
      </trkpt>
      <trkpt lat="46.49613" lon="1.2507">
        <ele>152.2</ele>
        <time>2023-05-02T13:28:45Z</time>
      </trkpt>
      <trkpt lat="46.4962" lon="1.25068">
        <ele>152</ele>
        <time>2023-05-02T13:28:46Z</time>
      </trkpt>
      <trkpt lat="46.4964" lon="1.25055">
        <ele>151.8</ele>
        <time>2023-05-02T13:28:49Z</time>
      </trkpt>
      <trkpt lat="46.49675" lon="1.25029">
        <ele>151</ele>
        <time>2023-05-02T13:28:55Z</time>
      </trkpt>
      <trkpt lat="46.49711" lon="1.25003">
        <ele>150.4</ele>
        <time>2023-05-02T13:29:02Z</time>
      </trkpt>
      <trkpt lat="46.49736" lon="1.24982">
        <ele>150</ele>
        <time>2023-05-02T13:29:08Z</time>
      </trkpt>
      <trkpt lat="46.49762" lon="1.24964">
        <ele>149.6</ele>
        <time>2023-05-02T13:29:14Z</time>
      </trkpt>
      <trkpt lat="46.4979" lon="1.24944">
        <ele>149.4</ele>
        <time>2023-05-02T13:29:20Z</time>
      </trkpt>
      <trkpt lat="46.49827" lon="1.24912">
        <ele>149.6</ele>
        <time>2023-05-02T13:29:28Z</time>
      </trkpt>
      <trkpt lat="46.49864" lon="1.2488">
        <ele>150</ele>
        <time>2023-05-02T13:29:36Z</time>
      </trkpt>
      <trkpt lat="46.49899" lon="1.2485">
        <ele>149.8</ele>
        <time>2023-05-02T13:29:43Z</time>
      </trkpt>
      <trkpt lat="46.49904" lon="1.24846">
        <ele>149.8</ele>
        <time>2023-05-02T13:29:44Z</time>
      </trkpt>
      <trkpt lat="46.49932" lon="1.24824">
        <ele>149.8</ele>
        <time>2023-05-02T13:29:49Z</time>
      </trkpt>
      <trkpt lat="46.49977" lon="1.24788">
        <ele>149.8</ele>
        <time>2023-05-02T13:29:57Z</time>
      </trkpt>
      <trkpt lat="46.5001" lon="1.24762">
        <ele>149.4</ele>
        <time>2023-05-02T13:30:03Z</time>
      </trkpt>
      <trkpt lat="46.5006" lon="1.2472">
        <ele>148.8</ele>
        <time>2023-05-02T13:30:12Z</time>
      </trkpt>
      <trkpt lat="46.50066" lon="1.24715">
        <ele>148.8</ele>
        <time>2023-05-02T13:30:13Z</time>
      </trkpt>
      <trkpt lat="46.50083" lon="1.24701">
        <ele>148.6</ele>
        <time>2023-05-02T13:30:17Z</time>
      </trkpt>
      <trkpt lat="46.50092" lon="1.24702">
        <ele>148.4</ele>
        <time>2023-05-02T13:30:19Z</time>
      </trkpt>
      <trkpt lat="46.50096" lon="1.24705">
        <ele>148.4</ele>
        <time>2023-05-02T13:30:20Z</time>
      </trkpt>
      <trkpt lat="46.501" lon="1.24709">
        <ele>148.4</ele>
        <time>2023-05-02T13:30:21Z</time>
      </trkpt>
      <trkpt lat="46.50112" lon="1.24725">
        <ele>148.2</ele>
        <time>2023-05-02T13:30:24Z</time>
      </trkpt>
      <trkpt lat="46.50136" lon="1.24756">
        <ele>147.8</ele>
        <time>2023-05-02T13:30:29Z</time>
      </trkpt>
      <trkpt lat="46.50183" lon="1.24811">
        <ele>146.6</ele>
        <time>2023-05-02T13:30:37Z</time>
      </trkpt>
      <trkpt lat="46.5021" lon="1.24842">
        <ele>146</ele>
        <time>2023-05-02T13:30:42Z</time>
      </trkpt>
      <trkpt lat="46.5022" lon="1.24855">
        <ele>145.8</ele>
        <time>2023-05-02T13:30:44Z</time>
      </trkpt>
      <trkpt lat="46.50227" lon="1.24871">
        <ele>145.4</ele>
        <time>2023-05-02T13:30:46Z</time>
      </trkpt>
      <trkpt lat="46.5023" lon="1.24892">
        <ele>145.2</ele>
        <time>2023-05-02T13:30:48Z</time>
      </trkpt>
      <trkpt lat="46.5023" lon="1.24903">
        <ele>145</ele>
        <time>2023-05-02T13:30:49Z</time>
      </trkpt>
      <trkpt lat="46.50228" lon="1.24915">
        <ele>144.8</ele>
        <time>2023-05-02T13:30:50Z</time>
      </trkpt>
      <trkpt lat="46.5022" lon="1.24936">
        <ele>144.4</ele>
        <time>2023-05-02T13:30:52Z</time>
      </trkpt>
      <trkpt lat="46.50206" lon="1.24952">
        <ele>143.8</ele>
        <time>2023-05-02T13:30:54Z</time>
      </trkpt>
      <trkpt lat="46.50198" lon="1.24958">
        <ele>143.6</ele>
        <time>2023-05-02T13:30:55Z</time>
      </trkpt>
      <trkpt lat="46.50163" lon="1.24975">
        <ele>142.6</ele>
        <time>2023-05-02T13:30:59Z</time>
      </trkpt>
      <trkpt lat="46.5015" lon="1.24992">
        <ele>142</ele>
        <time>2023-05-02T13:31:01Z</time>
      </trkpt>
      <trkpt lat="46.50144" lon="1.25002">
        <ele>141.8</ele>
        <time>2023-05-02T13:31:02Z</time>
      </trkpt>
      <trkpt lat="46.5014" lon="1.25014">
        <ele>141.4</ele>
        <time>2023-05-02T13:31:03Z</time>
      </trkpt>
      <trkpt lat="46.50136" lon="1.25041">
        <ele>140.8</ele>
        <time>2023-05-02T13:31:05Z</time>
      </trkpt>
      <trkpt lat="46.50137" lon="1.25111">
        <ele>139.2</ele>
        <time>2023-05-02T13:31:10Z</time>
      </trkpt>
      <trkpt lat="46.50141" lon="1.2517">
        <ele>138.2</ele>
        <time>2023-05-02T13:31:14Z</time>
      </trkpt>
      <trkpt lat="46.50154" lon="1.25195">
        <ele>137.6</ele>
        <time>2023-05-02T13:31:16Z</time>
      </trkpt>
      <trkpt lat="46.50172" lon="1.25208">
        <ele>137</ele>
        <time>2023-05-02T13:31:18Z</time>
      </trkpt>
      <trkpt lat="46.50191" lon="1.25206">
        <ele>136.2</ele>
        <time>2023-05-02T13:31:20Z</time>
      </trkpt>
      <trkpt lat="46.50222" lon="1.25185">
        <ele>135</ele>
        <time>2023-05-02T13:31:23Z</time>
      </trkpt>
      <trkpt lat="46.50232" lon="1.2518">
        <ele>134.8</ele>
        <time>2023-05-02T13:31:24Z</time>
      </trkpt>
      <trkpt lat="46.50254" lon="1.25173">
        <ele>134</ele>
        <time>2023-05-02T13:31:26Z</time>
      </trkpt>
      <trkpt lat="46.50285" lon="1.25177">
        <ele>132.8</ele>
        <time>2023-05-02T13:31:29Z</time>
      </trkpt>
      <trkpt lat="46.50305" lon="1.25191">
        <ele>132.2</ele>
        <time>2023-05-02T13:31:31Z</time>
      </trkpt>
      <trkpt lat="46.50314" lon="1.252">
        <ele>131.8</ele>
        <time>2023-05-02T13:31:32Z</time>
      </trkpt>
      <trkpt lat="46.50322" lon="1.25211">
        <ele>131.6</ele>
        <time>2023-05-02T13:31:33Z</time>
      </trkpt>
      <trkpt lat="46.50343" lon="1.25245">
        <ele>130.6</ele>
        <time>2023-05-02T13:31:36Z</time>
      </trkpt>
      <trkpt lat="46.50369" lon="1.25299">
        <ele>128.8</ele>
        <time>2023-05-02T13:31:41Z</time>
      </trkpt>
      <trkpt lat="46.50399" lon="1.25353">
        <ele>127.4</ele>
        <time>2023-05-02T13:31:47Z</time>
      </trkpt>
      <trkpt lat="46.50433" lon="1.25414">
        <ele>125.4</ele>
        <time>2023-05-02T13:31:55Z</time>
      </trkpt>
      <trkpt lat="46.50455" lon="1.25457">
        <ele>124.4</ele>
        <time>2023-05-02T13:32:01Z</time>
      </trkpt>
      <trkpt lat="46.50462" lon="1.2547">
        <ele>124</ele>
        <time>2023-05-02T13:32:03Z</time>
      </trkpt>
      <trkpt lat="46.50472" lon="1.25489">
        <ele>123.4</ele>
        <time>2023-05-02T13:32:06Z</time>
      </trkpt>
      <trkpt lat="46.50478" lon="1.25503">
        <ele>123.2</ele>
        <time>2023-05-02T13:32:08Z</time>
      </trkpt>
      <trkpt lat="46.50492" lon="1.2553">
        <ele>122.6</ele>
        <time>2023-05-02T13:32:12Z</time>
      </trkpt>
      <trkpt lat="46.5052" lon="1.2558">
        <ele>121.8</ele>
        <time>2023-05-02T13:32:20Z</time>
      </trkpt>
      <trkpt lat="46.50547" lon="1.25631">
        <ele>121.2</ele>
        <time>2023-05-02T13:32:29Z</time>
      </trkpt>
      <trkpt lat="46.50571" lon="1.25676">
        <ele>120.6</ele>
        <time>2023-05-02T13:32:38Z</time>
      </trkpt>
      <trkpt lat="46.50588" lon="1.25709">
        <ele>120.6</ele>
        <time>2023-05-02T13:32:45Z</time>
      </trkpt>
      <trkpt lat="46.5061" lon="1.25751">
        <ele>120.6</ele>
        <time>2023-05-02T13:32:54Z</time>
      </trkpt>
      <trkpt lat="46.50637" lon="1.25795">
        <ele>120.6</ele>
        <time>2023-05-02T13:33:04Z</time>
      </trkpt>
      <trkpt lat="46.50668" lon="1.25841">
        <ele>120.8</ele>
        <time>2023-05-02T13:33:15Z</time>
      </trkpt>
      <trkpt lat="46.50693" lon="1.25871">
        <ele>121</ele>
        <time>2023-05-02T13:33:23Z</time>
      </trkpt>
      <trkpt lat="46.50716" lon="1.25903">
        <ele>121.2</ele>
        <time>2023-05-02T13:33:31Z</time>
      </trkpt>
      <trkpt lat="46.50736" lon="1.2594">
        <ele>121.4</ele>
        <time>2023-05-02T13:33:39Z</time>
      </trkpt>
      <trkpt lat="46.50762" lon="1.25987">
        <ele>121.8</ele>
        <time>2023-05-02T13:33:49Z</time>
      </trkpt>
      <trkpt lat="46.50792" lon="1.26035">
        <ele>122.2</ele>
        <time>2023-05-02T13:33:59Z</time>
      </trkpt>
      <trkpt lat="46.50814" lon="1.26068">
        <ele>122.4</ele>
        <time>2023-05-02T13:34:06Z</time>
      </trkpt>
      <trkpt lat="46.50841" lon="1.26109">
        <ele>122.6</ele>
        <time>2023-05-02T13:34:15Z</time>
      </trkpt>
      <trkpt lat="46.50853" lon="1.26119">
        <ele>122.8</ele>
        <time>2023-05-02T13:34:19Z</time>
      </trkpt>
      <trkpt lat="46.50856" lon="1.26118">
        <ele>122.8</ele>
        <time>2023-05-02T13:34:20Z</time>
      </trkpt>
      <trkpt lat="46.50865" lon="1.26109">
        <ele>122.8</ele>
        <time>2023-05-02T13:34:23Z</time>
      </trkpt>
      <trkpt lat="46.50889" lon="1.26089">
        <ele>123</ele>
        <time>2023-05-02T13:34:30Z</time>
      </trkpt>
      <trkpt lat="46.50915" lon="1.26067">
        <ele>123.2</ele>
        <time>2023-05-02T13:34:39Z</time>
      </trkpt>
      <trkpt lat="46.50939" lon="1.26046">
        <ele>123.4</ele>
        <time>2023-05-02T13:34:46Z</time>
      </trkpt>
      <trkpt lat="46.50958" lon="1.26027">
        <ele>123.4</ele>
        <time>2023-05-02T13:34:51Z</time>
      </trkpt>
      <trkpt lat="46.5097" lon="1.26018">
        <ele>123.6</ele>
        <time>2023-05-02T13:34:54Z</time>
      </trkpt>
      <trkpt lat="46.50997" lon="1.25993">
        <ele>123.6</ele>
        <time>2023-05-02T13:35:01Z</time>
      </trkpt>
      <trkpt lat="46.51034" lon="1.25962">
        <ele>124</ele>
        <time>2023-05-02T13:35:09Z</time>
      </trkpt>
      <trkpt lat="46.51061" lon="1.25939">
        <ele>124.2</ele>
        <time>2023-05-02T13:35:15Z</time>
      </trkpt>
      <trkpt lat="46.51066" lon="1.25936">
        <ele>124.2</ele>
        <time>2023-05-02T13:35:16Z</time>
      </trkpt>
      <trkpt lat="46.511" lon="1.25906">
        <ele>124.2</ele>
        <time>2023-05-02T13:35:24Z</time>
      </trkpt>
      <trkpt lat="46.5112" lon="1.25888">
        <ele>124.4</ele>
        <time>2023-05-02T13:35:29Z</time>
      </trkpt>
      <trkpt lat="46.51124" lon="1.25884">
        <ele>124.4</ele>
        <time>2023-05-02T13:35:30Z</time>
      </trkpt>
      <trkpt lat="46.51151" lon="1.25855">
        <ele>124.6</ele>
        <time>2023-05-02T13:35:37Z</time>
      </trkpt>
      <trkpt lat="46.51177" lon="1.25825">
        <ele>124.8</ele>
        <time>2023-05-02T13:35:44Z</time>
      </trkpt>
      <trkpt lat="46.51202" lon="1.25794">
        <ele>125.2</ele>
        <time>2023-05-02T13:35:51Z</time>
      </trkpt>
      <trkpt lat="46.51211" lon="1.25781">
        <ele>125.2</ele>
        <time>2023-05-02T13:35:54Z</time>
      </trkpt>
      <trkpt lat="46.51222" lon="1.25771">
        <ele>125.4</ele>
        <time>2023-05-02T13:35:57Z</time>
      </trkpt>
      <trkpt lat="46.51232" lon="1.25765">
        <ele>125.6</ele>
        <time>2023-05-02T13:36:01Z</time>
      </trkpt>
      <trkpt lat="46.51235" lon="1.25762">
        <ele>125.6</ele>
        <time>2023-05-02T13:36:05Z</time>
      </trkpt>
      <trkpt lat="46.51236" lon="1.2576">
        <ele>130.2</ele>
        <time>2023-05-02T13:49:10Z</time>
      </trkpt>
      <trkpt lat="46.5124" lon="1.25761">
        <ele>130.4</ele>
        <time>2023-05-02T13:49:12Z</time>
      </trkpt>
      <trkpt lat="46.51252" lon="1.25767">
        <ele>130.4</ele>
        <time>2023-05-02T13:49:17Z</time>
      </trkpt>
      <trkpt lat="46.51272" lon="1.25775">
        <ele>130.2</ele>
        <time>2023-05-02T13:49:22Z</time>
      </trkpt>
      <trkpt lat="46.51306" lon="1.25782">
        <ele>129.6</ele>
        <time>2023-05-02T13:49:27Z</time>
      </trkpt>
      <trkpt lat="46.51342" lon="1.2578">
        <ele>129</ele>
        <time>2023-05-02T13:49:32Z</time>
      </trkpt>
      <trkpt lat="46.51375" lon="1.25769">
        <ele>128.6</ele>
        <time>2023-05-02T13:49:37Z</time>
      </trkpt>
      <trkpt lat="46.51381" lon="1.25766">
        <ele>128.4</ele>
        <time>2023-05-02T13:49:38Z</time>
      </trkpt>
      <trkpt lat="46.51386" lon="1.25762">
        <ele>128.4</ele>
        <time>2023-05-02T13:49:39Z</time>
      </trkpt>
      <trkpt lat="46.51399" lon="1.25746">
        <ele>128</ele>
        <time>2023-05-02T13:49:42Z</time>
      </trkpt>
      <trkpt lat="46.51403" lon="1.2574">
        <ele>128</ele>
        <time>2023-05-02T13:49:43Z</time>
      </trkpt>
      <trkpt lat="46.51412" lon="1.25723">
        <ele>127.6</ele>
        <time>2023-05-02T13:49:46Z</time>
      </trkpt>
      <trkpt lat="46.51415" lon="1.25717">
        <ele>127.6</ele>
        <time>2023-05-02T13:49:47Z</time>
      </trkpt>
      <trkpt lat="46.51419" lon="1.25713">
        <ele>127.4</ele>
        <time>2023-05-02T13:49:48Z</time>
      </trkpt>
      <trkpt lat="46.51429" lon="1.25706">
        <ele>127.2</ele>
        <time>2023-05-02T13:49:50Z</time>
      </trkpt>
      <trkpt lat="46.51435" lon="1.25705">
        <ele>127.2</ele>
        <time>2023-05-02T13:49:51Z</time>
      </trkpt>
      <trkpt lat="46.5144" lon="1.25705">
        <ele>127</ele>
        <time>2023-05-02T13:49:52Z</time>
      </trkpt>
      <trkpt lat="46.51452" lon="1.25707">
        <ele>126.8</ele>
        <time>2023-05-02T13:49:54Z</time>
      </trkpt>
      <trkpt lat="46.51457" lon="1.2571">
        <ele>126.6</ele>
        <time>2023-05-02T13:49:55Z</time>
      </trkpt>
      <trkpt lat="46.51481" lon="1.2572">
        <ele>126</ele>
        <time>2023-05-02T13:49:59Z</time>
      </trkpt>
      <trkpt lat="46.51492" lon="1.25722">
        <ele>125.8</ele>
        <time>2023-05-02T13:50:01Z</time>
      </trkpt>
      <trkpt lat="46.51505" lon="1.25716">
        <ele>125.6</ele>
        <time>2023-05-02T13:50:03Z</time>
      </trkpt>
      <trkpt lat="46.5151" lon="1.25711">
        <ele>125.6</ele>
        <time>2023-05-02T13:50:04Z</time>
      </trkpt>
      <trkpt lat="46.51515" lon="1.25704">
        <ele>125.4</ele>
        <time>2023-05-02T13:50:05Z</time>
      </trkpt>
      <trkpt lat="46.51523" lon="1.25689">
        <ele>125.2</ele>
        <time>2023-05-02T13:50:07Z</time>
      </trkpt>
      <trkpt lat="46.51527" lon="1.25681">
        <ele>125</ele>
        <time>2023-05-02T13:50:08Z</time>
      </trkpt>
      <trkpt lat="46.5154" lon="1.2566">
        <ele>124.6</ele>
        <time>2023-05-02T13:50:11Z</time>
      </trkpt>
      <trkpt lat="46.5155" lon="1.25649">
        <ele>124.2</ele>
        <time>2023-05-02T13:50:13Z</time>
      </trkpt>
      <trkpt lat="46.51564" lon="1.25648">
        <ele>123.8</ele>
        <time>2023-05-02T13:50:15Z</time>
      </trkpt>
      <trkpt lat="46.51572" lon="1.2565">
        <ele>123.6</ele>
        <time>2023-05-02T13:50:16Z</time>
      </trkpt>
      <trkpt lat="46.51606" lon="1.25664">
        <ele>122.6</ele>
        <time>2023-05-02T13:50:20Z</time>
      </trkpt>
      <trkpt lat="46.51656" lon="1.25681">
        <ele>121.4</ele>
        <time>2023-05-02T13:50:25Z</time>
      </trkpt>
      <trkpt lat="46.51717" lon="1.25698">
        <ele>120.2</ele>
        <time>2023-05-02T13:50:31Z</time>
      </trkpt>
      <trkpt lat="46.51772" lon="1.25715">
        <ele>119</ele>
        <time>2023-05-02T13:50:37Z</time>
      </trkpt>
      <trkpt lat="46.51809" lon="1.25726">
        <ele>118</ele>
        <time>2023-05-02T13:50:42Z</time>
      </trkpt>
      <trkpt lat="46.51846" lon="1.25738">
        <ele>116.6</ele>
        <time>2023-05-02T13:50:48Z</time>
      </trkpt>
      <trkpt lat="46.51875" lon="1.25746">
        <ele>115.8</ele>
        <time>2023-05-02T13:50:53Z</time>
      </trkpt>
      <trkpt lat="46.51884" lon="1.25747">
        <ele>115.6</ele>
        <time>2023-05-02T13:50:55Z</time>
      </trkpt>
      <trkpt lat="46.51888" lon="1.25744">
        <ele>115.6</ele>
        <time>2023-05-02T13:50:56Z</time>
      </trkpt>
      <trkpt lat="46.51895" lon="1.25736">
        <ele>115.2</ele>
        <time>2023-05-02T13:50:58Z</time>
      </trkpt>
      <trkpt lat="46.51897" lon="1.25731">
        <ele>115</ele>
        <time>2023-05-02T13:50:59Z</time>
      </trkpt>
      <trkpt lat="46.519" lon="1.25713">
        <ele>114.4</ele>
        <time>2023-05-02T13:51:02Z</time>
      </trkpt>
      <trkpt lat="46.51902" lon="1.25697">
        <ele>113.8</ele>
        <time>2023-05-02T13:51:04Z</time>
      </trkpt>
      <trkpt lat="46.51903" lon="1.25672">
        <ele>113</ele>
        <time>2023-05-02T13:51:07Z</time>
      </trkpt>
      <trkpt lat="46.51903" lon="1.25634">
        <ele>112</ele>
        <time>2023-05-02T13:51:11Z</time>
      </trkpt>
      <trkpt lat="46.51902" lon="1.25625">
        <ele>111.8</ele>
        <time>2023-05-02T13:51:12Z</time>
      </trkpt>
      <trkpt lat="46.51892" lon="1.2556">
        <ele>110.4</ele>
        <time>2023-05-02T13:51:19Z</time>
      </trkpt>
      <trkpt lat="46.51887" lon="1.2551">
        <ele>109.8</ele>
        <time>2023-05-02T13:51:25Z</time>
      </trkpt>
      <trkpt lat="46.51882" lon="1.2548">
        <ele>109.4</ele>
        <time>2023-05-02T13:51:29Z</time>
      </trkpt>
      <trkpt lat="46.51882" lon="1.25466">
        <ele>109.4</ele>
        <time>2023-05-02T13:51:31Z</time>
      </trkpt>
      <trkpt lat="46.51881" lon="1.25431">
        <ele>109.2</ele>
        <time>2023-05-02T13:51:37Z</time>
      </trkpt>
      <trkpt lat="46.51885" lon="1.254">
        <ele>109.2</ele>
        <time>2023-05-02T13:51:43Z</time>
      </trkpt>
      <trkpt lat="46.51894" lon="1.2539">
        <ele>109.4</ele>
        <time>2023-05-02T13:51:47Z</time>
      </trkpt>
      <trkpt lat="46.51911" lon="1.25389">
        <ele>109.6</ele>
        <time>2023-05-02T13:51:53Z</time>
      </trkpt>
      <trkpt lat="46.5192" lon="1.25389">
        <ele>109.8</ele>
        <time>2023-05-02T13:51:58Z</time>
      </trkpt>
      <trkpt lat="46.51921" lon="1.25389">
        <ele>110.2</ele>
        <time>2023-05-02T13:51:59Z</time>
      </trkpt>
      <trkpt lat="46.51955" lon="1.2539">
        <ele>112.2</ele>
        <time>2023-05-02T13:52:30Z</time>
      </trkpt>
      <trkpt lat="46.51958" lon="1.25391">
        <ele>112.4</ele>
        <time>2023-05-02T13:52:32Z</time>
      </trkpt>
      <trkpt lat="46.51967" lon="1.25392">
        <ele>113.2</ele>
        <time>2023-05-02T13:52:40Z</time>
      </trkpt>
      <trkpt lat="46.51973" lon="1.25393">
        <ele>113.8</ele>
        <time>2023-05-02T13:52:46Z</time>
      </trkpt>
      <trkpt lat="46.51982" lon="1.25394">
        <ele>115.6</ele>
        <time>2023-05-02T13:53:11Z</time>
      </trkpt>
      <trkpt lat="46.51996" lon="1.25389">
        <ele>116</ele>
        <time>2023-05-02T13:53:18Z</time>
      </trkpt>
      <trkpt lat="46.52" lon="1.25386">
        <ele>116</ele>
        <time>2023-05-02T13:53:20Z</time>
      </trkpt>
      <trkpt lat="46.52004" lon="1.25384">
        <ele>116.2</ele>
        <time>2023-05-02T13:53:22Z</time>
      </trkpt>
      <trkpt lat="46.52018" lon="1.25377">
        <ele>116.4</ele>
        <time>2023-05-02T13:53:28Z</time>
      </trkpt>
      <trkpt lat="46.5203" lon="1.25371">
        <ele>117</ele>
        <time>2023-05-02T13:53:34Z</time>
      </trkpt>
      <trkpt lat="46.52045" lon="1.25367">
        <ele>117.6</ele>
        <time>2023-05-02T13:53:40Z</time>
      </trkpt>
      <trkpt lat="46.5206" lon="1.25365">
        <ele>118.6</ele>
        <time>2023-05-02T13:53:46Z</time>
      </trkpt>
      <trkpt lat="46.52077" lon="1.25367">
        <ele>119.6</ele>
        <time>2023-05-02T13:53:52Z</time>
      </trkpt>
      <trkpt lat="46.52095" lon="1.25366">
        <ele>120.4</ele>
        <time>2023-05-02T13:53:58Z</time>
      </trkpt>
      <trkpt lat="46.52117" lon="1.25364">
        <ele>121.6</ele>
        <time>2023-05-02T13:54:05Z</time>
      </trkpt>
      <trkpt lat="46.52134" lon="1.25361">
        <ele>122.6</ele>
        <time>2023-05-02T13:54:11Z</time>
      </trkpt>
      <trkpt lat="46.52148" lon="1.25361">
        <ele>123.2</ele>
        <time>2023-05-02T13:54:16Z</time>
      </trkpt>
      <trkpt lat="46.52159" lon="1.2536">
        <ele>124.2</ele>
        <time>2023-05-02T13:54:21Z</time>
      </trkpt>
      <trkpt lat="46.52165" lon="1.25358">
        <ele>124.6</ele>
        <time>2023-05-02T13:54:24Z</time>
      </trkpt>
      <trkpt lat="46.52168" lon="1.25355">
        <ele>124.8</ele>
        <time>2023-05-02T13:54:26Z</time>
      </trkpt>
      <trkpt lat="46.5217" lon="1.25354">
        <ele>125</ele>
        <time>2023-05-02T13:54:28Z</time>
      </trkpt>
      <trkpt lat="46.52532" lon="1.25369">
        <ele>146.8</ele>
        <time>2023-05-02T14:02:45Z</time>
      </trkpt>
      <trkpt lat="46.52535" lon="1.25369">
        <ele>147</ele>
        <time>2023-05-02T14:02:46Z</time>
      </trkpt>
      <trkpt lat="46.52551" lon="1.25368">
        <ele>147.6</ele>
        <time>2023-05-02T14:02:52Z</time>
      </trkpt>
      <trkpt lat="46.52567" lon="1.25367">
        <ele>148.2</ele>
        <time>2023-05-02T14:02:58Z</time>
      </trkpt>
      <trkpt lat="46.52586" lon="1.25368">
        <ele>149</ele>
        <time>2023-05-02T14:03:05Z</time>
      </trkpt>
      <trkpt lat="46.52599" lon="1.25368">
        <ele>149.4</ele>
        <time>2023-05-02T14:03:10Z</time>
      </trkpt>
      <trkpt lat="46.52607" lon="1.2537">
        <ele>149.6</ele>
        <time>2023-05-02T14:03:13Z</time>
      </trkpt>
      <trkpt lat="46.52608" lon="1.25371">
        <ele>149.8</ele>
        <time>2023-05-02T14:03:14Z</time>
      </trkpt>
      <trkpt lat="46.52609" lon="1.25371">
        <ele>149.8</ele>
        <time>2023-05-02T14:03:16Z</time>
      </trkpt>
      <trkpt lat="46.52667" lon="1.25364">
        <ele>150.6</ele>
        <time>2023-05-02T14:04:23Z</time>
      </trkpt>
      <trkpt lat="46.52667" lon="1.25367">
        <ele>150.6</ele>
        <time>2023-05-02T14:04:24Z</time>
      </trkpt>
      <trkpt lat="46.52668" lon="1.2539">
        <ele>150.4</ele>
        <time>2023-05-02T14:04:29Z</time>
      </trkpt>
      <trkpt lat="46.52668" lon="1.25409">
        <ele>150</ele>
        <time>2023-05-02T14:04:33Z</time>
      </trkpt>
      <trkpt lat="46.52668" lon="1.25441">
        <ele>149.8</ele>
        <time>2023-05-02T14:04:39Z</time>
      </trkpt>
      <trkpt lat="46.52667" lon="1.25469">
        <ele>149.6</ele>
        <time>2023-05-02T14:04:44Z</time>
      </trkpt>
      <trkpt lat="46.52669" lon="1.25494">
        <ele>149.4</ele>
        <time>2023-05-02T14:04:49Z</time>
      </trkpt>
      <trkpt lat="46.52673" lon="1.25515">
        <ele>149.4</ele>
        <time>2023-05-02T14:04:53Z</time>
      </trkpt>
      <trkpt lat="46.52676" lon="1.25533">
        <ele>149.4</ele>
        <time>2023-05-02T14:04:56Z</time>
      </trkpt>
      <trkpt lat="46.52677" lon="1.25539">
        <ele>149.2</ele>
        <time>2023-05-02T14:04:57Z</time>
      </trkpt>
      <trkpt lat="46.52678" lon="1.25545">
        <ele>149.2</ele>
        <time>2023-05-02T14:04:58Z</time>
      </trkpt>
      <trkpt lat="46.52681" lon="1.25558">
        <ele>149</ele>
        <time>2023-05-02T14:05:00Z</time>
      </trkpt>
      <trkpt lat="46.52682" lon="1.25564">
        <ele>148.8</ele>
        <time>2023-05-02T14:05:01Z</time>
      </trkpt>
      <trkpt lat="46.52685" lon="1.25577">
        <ele>148.6</ele>
        <time>2023-05-02T14:05:03Z</time>
      </trkpt>
      <trkpt lat="46.52687" lon="1.25595">
        <ele>148.4</ele>
        <time>2023-05-02T14:05:06Z</time>
      </trkpt>
      <trkpt lat="46.52694" lon="1.25628">
        <ele>148</ele>
        <time>2023-05-02T14:05:12Z</time>
      </trkpt>
      <trkpt lat="46.52696" lon="1.25633">
        <ele>148</ele>
        <time>2023-05-02T14:05:13Z</time>
      </trkpt>
      <trkpt lat="46.52709" lon="1.25656">
        <ele>147.8</ele>
        <time>2023-05-02T14:05:17Z</time>
      </trkpt>
      <trkpt lat="46.52723" lon="1.25674">
        <ele>147.6</ele>
        <time>2023-05-02T14:05:22Z</time>
      </trkpt>
      <trkpt lat="46.52725" lon="1.25674">
        <ele>147.6</ele>
        <time>2023-05-02T14:05:23Z</time>
      </trkpt>
      <trkpt lat="46.52733" lon="1.25672">
        <ele>147.4</ele>
        <time>2023-05-02T14:05:26Z</time>
      </trkpt>
      <trkpt lat="46.52743" lon="1.25656">
        <ele>147.2</ele>
        <time>2023-05-02T14:05:30Z</time>
      </trkpt>
      <trkpt lat="46.52757" lon="1.25627">
        <ele>146.8</ele>
        <time>2023-05-02T14:05:35Z</time>
      </trkpt>
      <trkpt lat="46.52789" lon="1.2558">
        <ele>146.6</ele>
        <time>2023-05-02T14:05:43Z</time>
      </trkpt>
      <trkpt lat="46.5282" lon="1.2554">
        <ele>146.4</ele>
        <time>2023-05-02T14:05:50Z</time>
      </trkpt>
      <trkpt lat="46.52858" lon="1.25491">
        <ele>146</ele>
        <time>2023-05-02T14:05:58Z</time>
      </trkpt>
      <trkpt lat="46.52892" lon="1.25446">
        <ele>145.6</ele>
        <time>2023-05-02T14:06:05Z</time>
      </trkpt>
      <trkpt lat="46.52927" lon="1.254">
        <ele>145</ele>
        <time>2023-05-02T14:06:12Z</time>
      </trkpt>
      <trkpt lat="46.52957" lon="1.25362">
        <ele>144.6</ele>
        <time>2023-05-02T14:06:18Z</time>
      </trkpt>
      <trkpt lat="46.52998" lon="1.25309">
        <ele>143.6</ele>
        <time>2023-05-02T14:06:26Z</time>
      </trkpt>
      <trkpt lat="46.53002" lon="1.25304">
        <ele>143.4</ele>
        <time>2023-05-02T14:06:27Z</time>
      </trkpt>
      <trkpt lat="46.53011" lon="1.253">
        <ele>143.2</ele>
        <time>2023-05-02T14:06:29Z</time>
      </trkpt>
      <trkpt lat="46.53021" lon="1.25297">
        <ele>143</ele>
        <time>2023-05-02T14:06:31Z</time>
      </trkpt>
      <trkpt lat="46.5303" lon="1.25295">
        <ele>142.6</ele>
        <time>2023-05-02T14:06:33Z</time>
      </trkpt>
      <trkpt lat="46.53044" lon="1.25294">
        <ele>142.2</ele>
        <time>2023-05-02T14:06:36Z</time>
      </trkpt>
      <trkpt lat="46.53053" lon="1.25296">
        <ele>142</ele>
        <time>2023-05-02T14:06:38Z</time>
      </trkpt>
      <trkpt lat="46.53066" lon="1.25302">
        <ele>141.2</ele>
        <time>2023-05-02T14:06:41Z</time>
      </trkpt>
      <trkpt lat="46.5307" lon="1.25306">
        <ele>141.2</ele>
        <time>2023-05-02T14:06:42Z</time>
      </trkpt>
      <trkpt lat="46.53084" lon="1.25318">
        <ele>140.4</ele>
        <time>2023-05-02T14:06:46Z</time>
      </trkpt>
      <trkpt lat="46.53103" lon="1.25332">
        <ele>139.8</ele>
        <time>2023-05-02T14:06:50Z</time>
      </trkpt>
      <trkpt lat="46.53135" lon="1.25352">
        <ele>138.6</ele>
        <time>2023-05-02T14:06:56Z</time>
      </trkpt>
      <trkpt lat="46.53157" lon="1.25368">
        <ele>137.8</ele>
        <time>2023-05-02T14:07:01Z</time>
      </trkpt>
      <trkpt lat="46.53168" lon="1.25378">
        <ele>137.8</ele>
        <time>2023-05-02T14:07:04Z</time>
      </trkpt>
      <trkpt lat="46.53177" lon="1.25384">
        <ele>137.6</ele>
        <time>2023-05-02T14:07:06Z</time>
      </trkpt>
      <trkpt lat="46.53187" lon="1.2539">
        <ele>137.6</ele>
        <time>2023-05-02T14:07:08Z</time>
      </trkpt>
      <trkpt lat="46.53195" lon="1.25393">
        <ele>137.8</ele>
        <time>2023-05-02T14:07:10Z</time>
      </trkpt>
      <trkpt lat="46.53218" lon="1.25405">
        <ele>138</ele>
        <time>2023-05-02T14:07:15Z</time>
      </trkpt>
      <trkpt lat="46.53231" lon="1.25414">
        <ele>137.6</ele>
        <time>2023-05-02T14:07:19Z</time>
      </trkpt>
      <trkpt lat="46.53244" lon="1.25418">
        <ele>139.6</ele>
        <time>2023-05-02T14:07:23Z</time>
      </trkpt>
      <trkpt lat="46.53275" lon="1.25415">
        <ele>139.2</ele>
        <time>2023-05-02T14:07:29Z</time>
      </trkpt>
      <trkpt lat="46.53278" lon="1.25413">
        <ele>139.4</ele>
        <time>2023-05-02T14:07:30Z</time>
      </trkpt>
      <trkpt lat="46.53288" lon="1.25407">
        <ele>139.6</ele>
        <time>2023-05-02T14:07:33Z</time>
      </trkpt>
      <trkpt lat="46.53309" lon="1.25394">
        <ele>139.6</ele>
        <time>2023-05-02T14:07:38Z</time>
      </trkpt>
      <trkpt lat="46.53321" lon="1.25381">
        <ele>139.6</ele>
        <time>2023-05-02T14:07:41Z</time>
      </trkpt>
      <trkpt lat="46.53329" lon="1.25372">
        <ele>139.4</ele>
        <time>2023-05-02T14:07:43Z</time>
      </trkpt>
      <trkpt lat="46.53336" lon="1.25361">
        <ele>139.8</ele>
        <time>2023-05-02T14:07:46Z</time>
      </trkpt>
      <trkpt lat="46.53338" lon="1.25359">
        <ele>139.4</ele>
        <time>2023-05-02T14:07:48Z</time>
      </trkpt>
      <trkpt lat="46.53337" lon="1.2536">
        <ele>139</ele>
        <time>2023-05-02T14:07:49Z</time>
      </trkpt>
      <trkpt lat="46.53336" lon="1.25362">
        <ele>138.6</ele>
        <time>2023-05-02T14:07:50Z</time>
      </trkpt>
      <trkpt lat="46.53332" lon="1.2537">
        <ele>138.4</ele>
        <time>2023-05-02T14:07:53Z</time>
      </trkpt>
      <trkpt lat="46.53326" lon="1.25383">
        <ele>138.6</ele>
        <time>2023-05-02T14:07:56Z</time>
      </trkpt>
      <trkpt lat="46.5332" lon="1.25391">
        <ele>139.2</ele>
        <time>2023-05-02T14:07:58Z</time>
      </trkpt>
      <trkpt lat="46.53309" lon="1.25402">
        <ele>139.2</ele>
        <time>2023-05-02T14:08:02Z</time>
      </trkpt>
      <trkpt lat="46.53291" lon="1.2541">
        <ele>139.2</ele>
        <time>2023-05-02T14:08:07Z</time>
      </trkpt>
      <trkpt lat="46.53286" lon="1.25414">
        <ele>139.2</ele>
        <time>2023-05-02T14:08:09Z</time>
      </trkpt>
      <trkpt lat="46.53286" lon="1.2542">
        <ele>138.2</ele>
        <time>2023-05-02T14:08:11Z</time>
      </trkpt>
      <trkpt lat="46.53287" lon="1.25421">
        <ele>138.4</ele>
        <time>2023-05-02T14:08:12Z</time>
      </trkpt>
      <trkpt lat="46.53292" lon="1.25424">
        <ele>139.4</ele>
        <time>2023-05-02T14:08:15Z</time>
      </trkpt>
      <trkpt lat="46.53295" lon="1.25427">
        <ele>139.4</ele>
        <time>2023-05-02T14:08:17Z</time>
      </trkpt>
      <trkpt lat="46.53301" lon="1.2543">
        <ele>139.6</ele>
        <time>2023-05-02T14:08:19Z</time>
      </trkpt>
      <trkpt lat="46.53307" lon="1.25433">
        <ele>139.8</ele>
        <time>2023-05-02T14:08:21Z</time>
      </trkpt>
      <trkpt lat="46.53312" lon="1.25435">
        <ele>139.8</ele>
        <time>2023-05-02T14:08:23Z</time>
      </trkpt>
      <trkpt lat="46.5332" lon="1.25441">
        <ele>140.2</ele>
        <time>2023-05-02T14:08:27Z</time>
      </trkpt>
      <trkpt lat="46.53328" lon="1.25447">
        <ele>140.4</ele>
        <time>2023-05-02T14:08:31Z</time>
      </trkpt>
      <trkpt lat="46.5333" lon="1.25449">
        <ele>140.6</ele>
        <time>2023-05-02T14:08:33Z</time>
      </trkpt>
      <trkpt lat="46.53426" lon="1.25465">
        <ele>149</ele>
        <time>2023-05-02T14:10:12Z</time>
      </trkpt>
      <trkpt lat="46.5343" lon="1.25465">
        <ele>149.4</ele>
        <time>2023-05-02T14:10:14Z</time>
      </trkpt>
      <trkpt lat="46.53441" lon="1.25468">
        <ele>149.6</ele>
        <time>2023-05-02T14:10:19Z</time>
      </trkpt>
      <trkpt lat="46.53452" lon="1.25465">
        <ele>149.8</ele>
        <time>2023-05-02T14:10:24Z</time>
      </trkpt>
      <trkpt lat="46.53467" lon="1.25462">
        <ele>149.6</ele>
        <time>2023-05-02T14:10:29Z</time>
      </trkpt>
      <trkpt lat="46.53484" lon="1.25463">
        <ele>149.8</ele>
        <time>2023-05-02T14:10:34Z</time>
      </trkpt>
      <trkpt lat="46.53497" lon="1.2547">
        <ele>149.8</ele>
        <time>2023-05-02T14:10:39Z</time>
      </trkpt>
      <trkpt lat="46.5351" lon="1.25475">
        <ele>150</ele>
        <time>2023-05-02T14:10:43Z</time>
      </trkpt>
      <trkpt lat="46.53525" lon="1.25482">
        <ele>150.2</ele>
        <time>2023-05-02T14:10:48Z</time>
      </trkpt>
      <trkpt lat="46.53528" lon="1.25484">
        <ele>150.2</ele>
        <time>2023-05-02T14:10:49Z</time>
      </trkpt>
      <trkpt lat="46.53548" lon="1.25493">
        <ele>150</ele>
        <time>2023-05-02T14:10:55Z</time>
      </trkpt>
      <trkpt lat="46.53564" lon="1.25502">
        <ele>150</ele>
        <time>2023-05-02T14:11:00Z</time>
      </trkpt>
      <trkpt lat="46.53573" lon="1.25508">
        <ele>150.2</ele>
        <time>2023-05-02T14:11:03Z</time>
      </trkpt>
      <trkpt lat="46.53585" lon="1.25511">
        <ele>150.2</ele>
        <time>2023-05-02T14:11:07Z</time>
      </trkpt>
      <trkpt lat="46.53598" lon="1.25515">
        <ele>149.6</ele>
        <time>2023-05-02T14:11:11Z</time>
      </trkpt>
      <trkpt lat="46.53604" lon="1.25516">
        <ele>149.4</ele>
        <time>2023-05-02T14:11:13Z</time>
      </trkpt>
      <trkpt lat="46.53608" lon="1.25518">
        <ele>149.2</ele>
        <time>2023-05-02T14:11:15Z</time>
      </trkpt>
      <trkpt lat="46.53619" lon="1.25522">
        <ele>148.6</ele>
        <time>2023-05-02T14:11:20Z</time>
      </trkpt>
      <trkpt lat="46.53635" lon="1.25529">
        <ele>148</ele>
        <time>2023-05-02T14:11:26Z</time>
      </trkpt>
      <trkpt lat="46.53639" lon="1.2553">
        <ele>147.8</ele>
        <time>2023-05-02T14:11:29Z</time>
      </trkpt>
      <trkpt lat="46.53661" lon="1.25545">
        <ele>146</ele>
        <time>2023-05-02T14:11:51Z</time>
      </trkpt>
      <trkpt lat="46.53668" lon="1.25547">
        <ele>145.6</ele>
        <time>2023-05-02T14:11:57Z</time>
      </trkpt>
      <trkpt lat="46.53669" lon="1.25549">
        <ele>145</ele>
        <time>2023-05-02T14:12:06Z</time>
      </trkpt>
      <trkpt lat="46.53673" lon="1.25551">
        <ele>145</ele>
        <time>2023-05-02T14:12:08Z</time>
      </trkpt>
      <trkpt lat="46.53681" lon="1.25552">
        <ele>144.6</ele>
        <time>2023-05-02T14:12:12Z</time>
      </trkpt>
      <trkpt lat="46.53692" lon="1.25558">
        <ele>144</ele>
        <time>2023-05-02T14:12:17Z</time>
      </trkpt>
      <trkpt lat="46.53711" lon="1.25566">
        <ele>143.4</ele>
        <time>2023-05-02T14:12:24Z</time>
      </trkpt>
      <trkpt lat="46.53722" lon="1.25574">
        <ele>143.2</ele>
        <time>2023-05-02T14:12:29Z</time>
      </trkpt>
      <trkpt lat="46.53734" lon="1.25581">
        <ele>142.8</ele>
        <time>2023-05-02T14:12:35Z</time>
      </trkpt>
      <trkpt lat="46.53746" lon="1.25586">
        <ele>142.4</ele>
        <time>2023-05-02T14:12:40Z</time>
      </trkpt>
      <trkpt lat="46.53764" lon="1.25591">
        <ele>142</ele>
        <time>2023-05-02T14:12:45Z</time>
      </trkpt>
      <trkpt lat="46.53781" lon="1.25599">
        <ele>141.6</ele>
        <time>2023-05-02T14:12:50Z</time>
      </trkpt>
      <trkpt lat="46.53793" lon="1.25603">
        <ele>141.4</ele>
        <time>2023-05-02T14:12:54Z</time>
      </trkpt>
      <trkpt lat="46.53806" lon="1.25608">
        <ele>141</ele>
        <time>2023-05-02T14:12:59Z</time>
      </trkpt>
      <trkpt lat="46.53822" lon="1.25615">
        <ele>140.6</ele>
        <time>2023-05-02T14:13:05Z</time>
      </trkpt>
      <trkpt lat="46.53833" lon="1.25618">
        <ele>140.4</ele>
        <time>2023-05-02T14:13:10Z</time>
      </trkpt>
      <trkpt lat="46.53847" lon="1.25621">
        <ele>140</ele>
        <time>2023-05-02T14:13:15Z</time>
      </trkpt>
      <trkpt lat="46.53854" lon="1.25623">
        <ele>139.8</ele>
        <time>2023-05-02T14:13:18Z</time>
      </trkpt>
      <trkpt lat="46.5386" lon="1.25621">
        <ele>139.6</ele>
        <time>2023-05-02T14:13:21Z</time>
      </trkpt>
      <trkpt lat="46.53861" lon="1.25621">
        <ele>139.4</ele>
        <time>2023-05-02T14:13:23Z</time>
      </trkpt>
      <trkpt lat="46.53881" lon="1.25638">
        <ele>139.2</ele>
        <time>2023-05-02T14:13:54Z</time>
      </trkpt>
      <trkpt lat="46.53884" lon="1.2564">
        <ele>139.4</ele>
        <time>2023-05-02T14:13:55Z</time>
      </trkpt>
      <trkpt lat="46.53889" lon="1.25646">
        <ele>139.4</ele>
        <time>2023-05-02T14:13:58Z</time>
      </trkpt>
      <trkpt lat="46.53894" lon="1.25649">
        <ele>139.4</ele>
        <time>2023-05-02T14:14:00Z</time>
      </trkpt>
      <trkpt lat="46.53902" lon="1.25656">
        <ele>139.6</ele>
        <time>2023-05-02T14:14:04Z</time>
      </trkpt>
      <trkpt lat="46.53917" lon="1.25669">
        <ele>139.8</ele>
        <time>2023-05-02T14:14:09Z</time>
      </trkpt>
      <trkpt lat="46.53933" lon="1.25682">
        <ele>140</ele>
        <time>2023-05-02T14:14:16Z</time>
      </trkpt>
      <trkpt lat="46.53943" lon="1.2569">
        <ele>140</ele>
        <time>2023-05-02T14:14:20Z</time>
      </trkpt>
      <trkpt lat="46.53961" lon="1.25705">
        <ele>139.8</ele>
        <time>2023-05-02T14:14:26Z</time>
      </trkpt>
      <trkpt lat="46.53976" lon="1.25718">
        <ele>140</ele>
        <time>2023-05-02T14:14:32Z</time>
      </trkpt>
      <trkpt lat="46.53988" lon="1.25726">
        <ele>140.2</ele>
        <time>2023-05-02T14:14:37Z</time>
      </trkpt>
      <trkpt lat="46.54001" lon="1.25738">
        <ele>140.2</ele>
        <time>2023-05-02T14:14:42Z</time>
      </trkpt>
      <trkpt lat="46.5402" lon="1.25752">
        <ele>140.2</ele>
        <time>2023-05-02T14:14:48Z</time>
      </trkpt>
      <trkpt lat="46.54038" lon="1.25766">
        <ele>140.4</ele>
        <time>2023-05-02T14:14:55Z</time>
      </trkpt>
      <trkpt lat="46.54055" lon="1.25782">
        <ele>140.4</ele>
        <time>2023-05-02T14:15:02Z</time>
      </trkpt>
      <trkpt lat="46.54076" lon="1.25786">
        <ele>140.4</ele>
        <time>2023-05-02T14:15:09Z</time>
      </trkpt>
      <trkpt lat="46.54093" lon="1.25779">
        <ele>140.2</ele>
        <time>2023-05-02T14:15:14Z</time>
      </trkpt>
      <trkpt lat="46.54113" lon="1.25763">
        <ele>139.8</ele>
        <time>2023-05-02T14:15:20Z</time>
      </trkpt>
      <trkpt lat="46.5413" lon="1.25749">
        <ele>139.6</ele>
        <time>2023-05-02T14:15:27Z</time>
      </trkpt>
      <trkpt lat="46.5414" lon="1.25741">
        <ele>139</ele>
        <time>2023-05-02T14:15:32Z</time>
      </trkpt>
      <trkpt lat="46.5415" lon="1.25734">
        <ele>138.2</ele>
        <time>2023-05-02T14:15:36Z</time>
      </trkpt>
      <trkpt lat="46.5416" lon="1.25724">
        <ele>137.6</ele>
        <time>2023-05-02T14:15:41Z</time>
      </trkpt>
      <trkpt lat="46.54165" lon="1.25721">
        <ele>137</ele>
        <time>2023-05-02T14:15:46Z</time>
      </trkpt>
      <trkpt lat="46.5434" lon="1.25719">
        <ele>132.8</ele>
        <time>2023-05-02T14:19:52Z</time>
      </trkpt>
      <trkpt lat="46.54346" lon="1.25722">
        <ele>133.2</ele>
        <time>2023-05-02T14:19:55Z</time>
      </trkpt>
      <trkpt lat="46.5436" lon="1.25729">
        <ele>133.6</ele>
        <time>2023-05-02T14:20:01Z</time>
      </trkpt>
      <trkpt lat="46.54368" lon="1.25735">
        <ele>133.6</ele>
        <time>2023-05-02T14:20:05Z</time>
      </trkpt>
      <trkpt lat="46.54385" lon="1.25745">
        <ele>134.2</ele>
        <time>2023-05-02T14:20:12Z</time>
      </trkpt>
      <trkpt lat="46.54395" lon="1.25753">
        <ele>134.4</ele>
        <time>2023-05-02T14:20:17Z</time>
      </trkpt>
      <trkpt lat="46.54405" lon="1.25759">
        <ele>134.6</ele>
        <time>2023-05-02T14:20:22Z</time>
      </trkpt>
      <trkpt lat="46.54407" lon="1.2576">
        <ele>134.8</ele>
        <time>2023-05-02T14:20:23Z</time>
      </trkpt>
      <trkpt lat="46.54413" lon="1.25763">
        <ele>135</ele>
        <time>2023-05-02T14:20:26Z</time>
      </trkpt>
      <trkpt lat="46.54427" lon="1.25769">
        <ele>135.4</ele>
        <time>2023-05-02T14:20:32Z</time>
      </trkpt>
      <trkpt lat="46.54438" lon="1.25775">
        <ele>135.6</ele>
        <time>2023-05-02T14:20:37Z</time>
      </trkpt>
      <trkpt lat="46.54452" lon="1.25787">
        <ele>135.8</ele>
        <time>2023-05-02T14:20:43Z</time>
      </trkpt>
      <trkpt lat="46.5446" lon="1.25796">
        <ele>136</ele>
        <time>2023-05-02T14:20:47Z</time>
      </trkpt>
      <trkpt lat="46.54472" lon="1.25806">
        <ele>136.6</ele>
        <time>2023-05-02T14:20:52Z</time>
      </trkpt>
      <trkpt lat="46.54485" lon="1.25818">
        <ele>137</ele>
        <time>2023-05-02T14:20:58Z</time>
      </trkpt>
      <trkpt lat="46.54494" lon="1.25826">
        <ele>137.2</ele>
        <time>2023-05-02T14:21:02Z</time>
      </trkpt>
      <trkpt lat="46.54504" lon="1.25837">
        <ele>137.4</ele>
        <time>2023-05-02T14:21:08Z</time>
      </trkpt>
      <trkpt lat="46.54515" lon="1.25848">
        <ele>137.8</ele>
        <time>2023-05-02T14:21:13Z</time>
      </trkpt>
      <trkpt lat="46.54533" lon="1.25864">
        <ele>138.4</ele>
        <time>2023-05-02T14:21:20Z</time>
      </trkpt>
      <trkpt lat="46.54547" lon="1.25876">
        <ele>138.8</ele>
        <time>2023-05-02T14:21:25Z</time>
      </trkpt>
      <trkpt lat="46.54554" lon="1.25884">
        <ele>139.2</ele>
        <time>2023-05-02T14:21:29Z</time>
      </trkpt>
      <trkpt lat="46.54562" lon="1.25893">
        <ele>139.2</ele>
        <time>2023-05-02T14:21:34Z</time>
      </trkpt>
      <trkpt lat="46.54573" lon="1.25904">
        <ele>139.6</ele>
        <time>2023-05-02T14:21:39Z</time>
      </trkpt>
      <trkpt lat="46.54585" lon="1.25916">
        <ele>139.8</ele>
        <time>2023-05-02T14:21:44Z</time>
      </trkpt>
      <trkpt lat="46.54599" lon="1.25931">
        <ele>140</ele>
        <time>2023-05-02T14:21:50Z</time>
      </trkpt>
      <trkpt lat="46.54602" lon="1.25933">
        <ele>140</ele>
        <time>2023-05-02T14:21:51Z</time>
      </trkpt>
      <trkpt lat="46.54606" lon="1.25939">
        <ele>140</ele>
        <time>2023-05-02T14:21:53Z</time>
      </trkpt>
      <trkpt lat="46.54617" lon="1.2596">
        <ele>140</ele>
        <time>2023-05-02T14:21:59Z</time>
      </trkpt>
      <trkpt lat="46.54634" lon="1.25988">
        <ele>139.2</ele>
        <time>2023-05-02T14:22:07Z</time>
      </trkpt>
      <trkpt lat="46.54651" lon="1.26001">
        <ele>139.2</ele>
        <time>2023-05-02T14:22:12Z</time>
      </trkpt>
      <trkpt lat="46.54673" lon="1.26011">
        <ele>139.4</ele>
        <time>2023-05-02T14:22:18Z</time>
      </trkpt>
      <trkpt lat="46.54688" lon="1.26017">
        <ele>139.2</ele>
        <time>2023-05-02T14:22:22Z</time>
      </trkpt>
      <trkpt lat="46.54704" lon="1.26024">
        <ele>139</ele>
        <time>2023-05-02T14:22:27Z</time>
      </trkpt>
      <trkpt lat="46.54727" lon="1.26034">
        <ele>138.8</ele>
        <time>2023-05-02T14:22:33Z</time>
      </trkpt>
      <trkpt lat="46.5475" lon="1.26043">
        <ele>138.6</ele>
        <time>2023-05-02T14:22:39Z</time>
      </trkpt>
      <trkpt lat="46.54762" lon="1.26047">
        <ele>138.2</ele>
        <time>2023-05-02T14:22:42Z</time>
      </trkpt>
      <trkpt lat="46.54766" lon="1.26049">
        <ele>138.2</ele>
        <time>2023-05-02T14:22:43Z</time>
      </trkpt>
      <trkpt lat="46.54787" lon="1.26058">
        <ele>137.8</ele>
        <time>2023-05-02T14:22:48Z</time>
      </trkpt>
      <trkpt lat="46.54797" lon="1.2606">
        <ele>137.8</ele>
        <time>2023-05-02T14:22:50Z</time>
      </trkpt>
      <trkpt lat="46.54811" lon="1.26064">
        <ele>138.2</ele>
        <time>2023-05-02T14:22:53Z</time>
      </trkpt>
      <trkpt lat="46.54831" lon="1.26076">
        <ele>139.2</ele>
        <time>2023-05-02T14:22:58Z</time>
      </trkpt>
      <trkpt lat="46.54843" lon="1.26095">
        <ele>138.4</ele>
        <time>2023-05-02T14:23:03Z</time>
      </trkpt>
      <trkpt lat="46.54846" lon="1.26101">
        <ele>138</ele>
        <time>2023-05-02T14:23:05Z</time>
      </trkpt>
      <trkpt lat="46.54852" lon="1.26102">
        <ele>138.2</ele>
        <time>2023-05-02T14:23:07Z</time>
      </trkpt>
      <trkpt lat="46.54865" lon="1.26093">
        <ele>137.6</ele>
        <time>2023-05-02T14:23:11Z</time>
      </trkpt>
      <trkpt lat="46.54885" lon="1.2607">
        <ele>136.6</ele>
        <time>2023-05-02T14:23:17Z</time>
      </trkpt>
      <trkpt lat="46.54903" lon="1.26048">
        <ele>135.6</ele>
        <time>2023-05-02T14:23:22Z</time>
      </trkpt>
      <trkpt lat="46.54906" lon="1.26045">
        <ele>135.4</ele>
        <time>2023-05-02T14:23:23Z</time>
      </trkpt>
      <trkpt lat="46.54915" lon="1.2603">
        <ele>135</ele>
        <time>2023-05-02T14:23:26Z</time>
      </trkpt>
      <trkpt lat="46.54938" lon="1.25994">
        <ele>134.8</ele>
        <time>2023-05-02T14:23:32Z</time>
      </trkpt>
      <trkpt lat="46.5495" lon="1.25976">
        <ele>134.8</ele>
        <time>2023-05-02T14:23:35Z</time>
      </trkpt>
      <trkpt lat="46.54958" lon="1.25964">
        <ele>134.6</ele>
        <time>2023-05-02T14:23:37Z</time>
      </trkpt>
      <trkpt lat="46.54972" lon="1.25945">
        <ele>134.2</ele>
        <time>2023-05-02T14:23:41Z</time>
      </trkpt>
      <trkpt lat="46.54975" lon="1.25941">
        <ele>134</ele>
        <time>2023-05-02T14:23:42Z</time>
      </trkpt>
      <trkpt lat="46.54993" lon="1.25913">
        <ele>134</ele>
        <time>2023-05-02T14:23:48Z</time>
      </trkpt>
      <trkpt lat="46.55006" lon="1.25892">
        <ele>133.6</ele>
        <time>2023-05-02T14:23:53Z</time>
      </trkpt>
      <trkpt lat="46.55024" lon="1.25874">
        <ele>133.4</ele>
        <time>2023-05-02T14:23:58Z</time>
      </trkpt>
      <trkpt lat="46.5504" lon="1.25854">
        <ele>133.2</ele>
        <time>2023-05-02T14:24:03Z</time>
      </trkpt>
      <trkpt lat="46.55058" lon="1.25834">
        <ele>132.8</ele>
        <time>2023-05-02T14:24:08Z</time>
      </trkpt>
      <trkpt lat="46.55077" lon="1.2581">
        <ele>132</ele>
        <time>2023-05-02T14:24:15Z</time>
      </trkpt>
      <trkpt lat="46.55095" lon="1.25792">
        <ele>131.8</ele>
        <time>2023-05-02T14:24:20Z</time>
      </trkpt>
      <trkpt lat="46.5512" lon="1.25771">
        <ele>131.8</ele>
        <time>2023-05-02T14:24:26Z</time>
      </trkpt>
      <trkpt lat="46.55151" lon="1.25746">
        <ele>132</ele>
        <time>2023-05-02T14:24:33Z</time>
      </trkpt>
      <trkpt lat="46.55156" lon="1.25742">
        <ele>131.8</ele>
        <time>2023-05-02T14:24:34Z</time>
      </trkpt>
      <trkpt lat="46.55174" lon="1.25725">
        <ele>131.8</ele>
        <time>2023-05-02T14:24:38Z</time>
      </trkpt>
      <trkpt lat="46.55199" lon="1.25703">
        <ele>131.6</ele>
        <time>2023-05-02T14:24:44Z</time>
      </trkpt>
      <trkpt lat="46.5523" lon="1.25678">
        <ele>131.8</ele>
        <time>2023-05-02T14:24:51Z</time>
      </trkpt>
      <trkpt lat="46.55237" lon="1.25673">
        <ele>132</ele>
        <time>2023-05-02T14:24:53Z</time>
      </trkpt>
      <trkpt lat="46.55251" lon="1.2566">
        <ele>131.6</ele>
        <time>2023-05-02T14:24:57Z</time>
      </trkpt>
      <trkpt lat="46.55256" lon="1.25657">
        <ele>131.6</ele>
        <time>2023-05-02T14:24:58Z</time>
      </trkpt>
      <trkpt lat="46.55269" lon="1.25647">
        <ele>131.4</ele>
        <time>2023-05-02T14:25:01Z</time>
      </trkpt>
      <trkpt lat="46.55279" lon="1.25638">
        <ele>131.4</ele>
        <time>2023-05-02T14:25:04Z</time>
      </trkpt>
      <trkpt lat="46.55294" lon="1.25625">
        <ele>131.2</ele>
        <time>2023-05-02T14:25:08Z</time>
      </trkpt>
      <trkpt lat="46.55303" lon="1.25618">
        <ele>131</ele>
        <time>2023-05-02T14:25:10Z</time>
      </trkpt>
      <trkpt lat="46.55316" lon="1.25609">
        <ele>130.8</ele>
        <time>2023-05-02T14:25:13Z</time>
      </trkpt>
      <trkpt lat="46.55332" lon="1.25594">
        <ele>130.6</ele>
        <time>2023-05-02T14:25:17Z</time>
      </trkpt>
      <trkpt lat="46.55349" lon="1.25574">
        <ele>130.8</ele>
        <time>2023-05-02T14:25:21Z</time>
      </trkpt>
      <trkpt lat="46.55353" lon="1.25569">
        <ele>130.8</ele>
        <time>2023-05-02T14:25:22Z</time>
      </trkpt>
      <trkpt lat="46.55375" lon="1.25538">
        <ele>130.6</ele>
        <time>2023-05-02T14:25:28Z</time>
      </trkpt>
      <trkpt lat="46.55385" lon="1.25522">
        <ele>130.6</ele>
        <time>2023-05-02T14:25:31Z</time>
      </trkpt>
      <trkpt lat="46.55393" lon="1.25511">
        <ele>130.6</ele>
        <time>2023-05-02T14:25:33Z</time>
      </trkpt>
      <trkpt lat="46.55396" lon="1.25506">
        <ele>130.6</ele>
        <time>2023-05-02T14:25:34Z</time>
      </trkpt>
      <trkpt lat="46.55405" lon="1.25491">
        <ele>130.6</ele>
        <time>2023-05-02T14:25:37Z</time>
      </trkpt>
      <trkpt lat="46.55426" lon="1.25463">
        <ele>130.2</ele>
        <time>2023-05-02T14:25:43Z</time>
      </trkpt>
      <trkpt lat="46.5545" lon="1.25429">
        <ele>129.8</ele>
        <time>2023-05-02T14:25:50Z</time>
      </trkpt>
      <trkpt lat="46.55471" lon="1.25402">
        <ele>129.4</ele>
        <time>2023-05-02T14:25:56Z</time>
      </trkpt>
      <trkpt lat="46.55478" lon="1.25393">
        <ele>129.2</ele>
        <time>2023-05-02T14:25:58Z</time>
      </trkpt>
      <trkpt lat="46.55484" lon="1.25386">
        <ele>129</ele>
        <time>2023-05-02T14:26:00Z</time>
      </trkpt>
      <trkpt lat="46.55497" lon="1.25367">
        <ele>128.4</ele>
        <time>2023-05-02T14:26:04Z</time>
      </trkpt>
      <trkpt lat="46.55501" lon="1.25363">
        <ele>128.2</ele>
        <time>2023-05-02T14:26:05Z</time>
      </trkpt>
      <trkpt lat="46.55504" lon="1.2536">
        <ele>128</ele>
        <time>2023-05-02T14:26:06Z</time>
      </trkpt>
      <trkpt lat="46.55513" lon="1.25345">
        <ele>127.8</ele>
        <time>2023-05-02T14:26:09Z</time>
      </trkpt>
      <trkpt lat="46.55536" lon="1.25308">
        <ele>127.8</ele>
        <time>2023-05-02T14:26:15Z</time>
      </trkpt>
      <trkpt lat="46.55563" lon="1.25269">
        <ele>127.4</ele>
        <time>2023-05-02T14:26:21Z</time>
      </trkpt>
      <trkpt lat="46.55593" lon="1.25228">
        <ele>126.6</ele>
        <time>2023-05-02T14:26:28Z</time>
      </trkpt>
      <trkpt lat="46.55606" lon="1.25207">
        <ele>126.2</ele>
        <time>2023-05-02T14:26:32Z</time>
      </trkpt>
      <trkpt lat="46.55609" lon="1.25203">
        <ele>126.2</ele>
        <time>2023-05-02T14:26:33Z</time>
      </trkpt>
      <trkpt lat="46.55634" lon="1.25165">
        <ele>125.8</ele>
        <time>2023-05-02T14:26:40Z</time>
      </trkpt>
      <trkpt lat="46.55641" lon="1.25156">
        <ele>125.6</ele>
        <time>2023-05-02T14:26:42Z</time>
      </trkpt>
      <trkpt lat="46.55652" lon="1.25141">
        <ele>125.2</ele>
        <time>2023-05-02T14:26:45Z</time>
      </trkpt>
      <trkpt lat="46.55669" lon="1.25114">
        <ele>125</ele>
        <time>2023-05-02T14:26:51Z</time>
      </trkpt>
      <trkpt lat="46.55676" lon="1.25107">
        <ele>124.8</ele>
        <time>2023-05-02T14:26:53Z</time>
      </trkpt>
      <trkpt lat="46.55688" lon="1.2509">
        <ele>124.8</ele>
        <time>2023-05-02T14:26:57Z</time>
      </trkpt>
      <trkpt lat="46.55701" lon="1.25071">
        <ele>125</ele>
        <time>2023-05-02T14:27:02Z</time>
      </trkpt>
      <trkpt lat="46.55715" lon="1.25052">
        <ele>125</ele>
        <time>2023-05-02T14:27:08Z</time>
      </trkpt>
      <trkpt lat="46.55729" lon="1.25035">
        <ele>125.4</ele>
        <time>2023-05-02T14:27:14Z</time>
      </trkpt>
      <trkpt lat="46.55744" lon="1.25017">
        <ele>125.2</ele>
        <time>2023-05-02T14:27:20Z</time>
      </trkpt>
      <trkpt lat="46.55757" lon="1.25">
        <ele>125.8</ele>
        <time>2023-05-02T14:27:26Z</time>
      </trkpt>
      <trkpt lat="46.5577" lon="1.24987">
        <ele>125.8</ele>
        <time>2023-05-02T14:27:31Z</time>
      </trkpt>
      <trkpt lat="46.55781" lon="1.24973">
        <ele>126</ele>
        <time>2023-05-02T14:27:36Z</time>
      </trkpt>
      <trkpt lat="46.55797" lon="1.24955">
        <ele>126.2</ele>
        <time>2023-05-02T14:27:43Z</time>
      </trkpt>
      <trkpt lat="46.55811" lon="1.2494">
        <ele>126.8</ele>
        <time>2023-05-02T14:27:48Z</time>
      </trkpt>
      <trkpt lat="46.55827" lon="1.24921">
        <ele>127.2</ele>
        <time>2023-05-02T14:27:54Z</time>
      </trkpt>
      <trkpt lat="46.5584" lon="1.24904">
        <ele>127</ele>
        <time>2023-05-02T14:27:59Z</time>
      </trkpt>
      <trkpt lat="46.55849" lon="1.2489">
        <ele>126.8</ele>
        <time>2023-05-02T14:28:04Z</time>
      </trkpt>
      <trkpt lat="46.5586" lon="1.24871">
        <ele>127</ele>
        <time>2023-05-02T14:28:09Z</time>
      </trkpt>
      <trkpt lat="46.55876" lon="1.24848">
        <ele>126.2</ele>
        <time>2023-05-02T14:28:15Z</time>
      </trkpt>
      <trkpt lat="46.55888" lon="1.2483">
        <ele>126.6</ele>
        <time>2023-05-02T14:28:20Z</time>
      </trkpt>
      <trkpt lat="46.55896" lon="1.24819">
        <ele>126.6</ele>
        <time>2023-05-02T14:28:24Z</time>
      </trkpt>
      <trkpt lat="46.55897" lon="1.24817">
        <ele>126.6</ele>
        <time>2023-05-02T14:28:26Z</time>
      </trkpt>
      <trkpt lat="46.55899" lon="1.24816">
        <ele>127</ele>
        <time>2023-05-02T14:28:37Z</time>
      </trkpt>
      <trkpt lat="46.55915" lon="1.24816">
        <ele>127.6</ele>
        <time>2023-05-02T14:28:43Z</time>
      </trkpt>
      <trkpt lat="46.55917" lon="1.24814">
        <ele>127.6</ele>
        <time>2023-05-02T14:28:44Z</time>
      </trkpt>
      <trkpt lat="46.55924" lon="1.24804">
        <ele>128.2</ele>
        <time>2023-05-02T14:28:48Z</time>
      </trkpt>
      <trkpt lat="46.55937" lon="1.24785">
        <ele>129</ele>
        <time>2023-05-02T14:28:53Z</time>
      </trkpt>
      <trkpt lat="46.55946" lon="1.2477">
        <ele>129.4</ele>
        <time>2023-05-02T14:28:58Z</time>
      </trkpt>
      <trkpt lat="46.55956" lon="1.24752">
        <ele>129.6</ele>
        <time>2023-05-02T14:29:03Z</time>
      </trkpt>
      <trkpt lat="46.55966" lon="1.2474">
        <ele>130</ele>
        <time>2023-05-02T14:29:07Z</time>
      </trkpt>
      <trkpt lat="46.55975" lon="1.24724">
        <ele>130.2</ele>
        <time>2023-05-02T14:29:12Z</time>
      </trkpt>
      <trkpt lat="46.55985" lon="1.24707">
        <ele>130.4</ele>
        <time>2023-05-02T14:29:17Z</time>
      </trkpt>
      <trkpt lat="46.55997" lon="1.24685">
        <ele>130.6</ele>
        <time>2023-05-02T14:29:23Z</time>
      </trkpt>
      <trkpt lat="46.56007" lon="1.24668">
        <ele>131</ele>
        <time>2023-05-02T14:29:28Z</time>
      </trkpt>
      <trkpt lat="46.56017" lon="1.24651">
        <ele>131.2</ele>
        <time>2023-05-02T14:29:33Z</time>
      </trkpt>
      <trkpt lat="46.5603" lon="1.24629">
        <ele>131.4</ele>
        <time>2023-05-02T14:29:40Z</time>
      </trkpt>
      <trkpt lat="46.56045" lon="1.24606">
        <ele>131.4</ele>
        <time>2023-05-02T14:29:47Z</time>
      </trkpt>
      <trkpt lat="46.5606" lon="1.24583">
        <ele>131.4</ele>
        <time>2023-05-02T14:29:53Z</time>
      </trkpt>
      <trkpt lat="46.56073" lon="1.24562">
        <ele>130.8</ele>
        <time>2023-05-02T14:29:59Z</time>
      </trkpt>
      <trkpt lat="46.56086" lon="1.24538">
        <ele>131.4</ele>
        <time>2023-05-02T14:30:05Z</time>
      </trkpt>
      <trkpt lat="46.56101" lon="1.24512">
        <ele>131.8</ele>
        <time>2023-05-02T14:30:11Z</time>
      </trkpt>
      <trkpt lat="46.56103" lon="1.24507">
        <ele>131.8</ele>
        <time>2023-05-02T14:30:12Z</time>
      </trkpt>
      <trkpt lat="46.56116" lon="1.24483">
        <ele>131.6</ele>
        <time>2023-05-02T14:30:18Z</time>
      </trkpt>
      <trkpt lat="46.56124" lon="1.24464">
        <ele>131.6</ele>
        <time>2023-05-02T14:30:23Z</time>
      </trkpt>
      <trkpt lat="46.56139" lon="1.24446">
        <ele>132</ele>
        <time>2023-05-02T14:30:29Z</time>
      </trkpt>
      <trkpt lat="46.56155" lon="1.24432">
        <ele>132.2</ele>
        <time>2023-05-02T14:30:35Z</time>
      </trkpt>
      <trkpt lat="46.56171" lon="1.24417">
        <ele>132.6</ele>
        <time>2023-05-02T14:30:41Z</time>
      </trkpt>
      <trkpt lat="46.56185" lon="1.24406">
        <ele>133</ele>
        <time>2023-05-02T14:30:46Z</time>
      </trkpt>
      <trkpt lat="46.56202" lon="1.24392">
        <ele>133.2</ele>
        <time>2023-05-02T14:30:52Z</time>
      </trkpt>
      <trkpt lat="46.56214" lon="1.2438">
        <ele>133.2</ele>
        <time>2023-05-02T14:30:56Z</time>
      </trkpt>
      <trkpt lat="46.56227" lon="1.24366">
        <ele>133.2</ele>
        <time>2023-05-02T14:31:02Z</time>
      </trkpt>
      <trkpt lat="46.56233" lon="1.24356">
        <ele>133.4</ele>
        <time>2023-05-02T14:31:08Z</time>
      </trkpt>
      <trkpt lat="46.5624" lon="1.24348">
        <ele>133.4</ele>
        <time>2023-05-02T14:31:13Z</time>
      </trkpt>
      <trkpt lat="46.5625" lon="1.24335">
        <ele>133.6</ele>
        <time>2023-05-02T14:31:19Z</time>
      </trkpt>
      <trkpt lat="46.5626" lon="1.24321">
        <ele>133.6</ele>
        <time>2023-05-02T14:31:24Z</time>
      </trkpt>
      <trkpt lat="46.56273" lon="1.24307">
        <ele>133.4</ele>
        <time>2023-05-02T14:31:29Z</time>
      </trkpt>
      <trkpt lat="46.56285" lon="1.2429">
        <ele>133.4</ele>
        <time>2023-05-02T14:31:34Z</time>
      </trkpt>
      <trkpt lat="46.56288" lon="1.24287">
        <ele>133.2</ele>
        <time>2023-05-02T14:31:37Z</time>
      </trkpt>
      <trkpt lat="46.56293" lon="1.24276">
        <ele>132.4</ele>
        <time>2023-05-02T14:32:44Z</time>
      </trkpt>
      <trkpt lat="46.56297" lon="1.24272">
        <ele>132.4</ele>
        <time>2023-05-02T14:32:46Z</time>
      </trkpt>
      <trkpt lat="46.56308" lon="1.2426">
        <ele>132.4</ele>
        <time>2023-05-02T14:32:51Z</time>
      </trkpt>
      <trkpt lat="46.56323" lon="1.24243">
        <ele>132.2</ele>
        <time>2023-05-02T14:32:57Z</time>
      </trkpt>
      <trkpt lat="46.56334" lon="1.24231">
        <ele>132</ele>
        <time>2023-05-02T14:33:02Z</time>
      </trkpt>
      <trkpt lat="46.56342" lon="1.24217">
        <ele>131.6</ele>
        <time>2023-05-02T14:33:07Z</time>
      </trkpt>
      <trkpt lat="46.56352" lon="1.24205">
        <ele>131</ele>
        <time>2023-05-02T14:33:13Z</time>
      </trkpt>
      <trkpt lat="46.56365" lon="1.24192">
        <ele>130.8</ele>
        <time>2023-05-02T14:33:19Z</time>
      </trkpt>
      <trkpt lat="46.56379" lon="1.24176">
        <ele>130.2</ele>
        <time>2023-05-02T14:33:26Z</time>
      </trkpt>
      <trkpt lat="46.5638" lon="1.24175">
        <ele>130.2</ele>
        <time>2023-05-02T14:33:27Z</time>
      </trkpt>
      <trkpt lat="46.56385" lon="1.24168">
        <ele>130</ele>
        <time>2023-05-02T14:33:30Z</time>
      </trkpt>
      <trkpt lat="46.56389" lon="1.24163">
        <ele>129.8</ele>
        <time>2023-05-02T14:33:33Z</time>
      </trkpt>
      <trkpt lat="46.56396" lon="1.24156">
        <ele>129.6</ele>
        <time>2023-05-02T14:33:37Z</time>
      </trkpt>
      <trkpt lat="46.56406" lon="1.24143">
        <ele>128.8</ele>
        <time>2023-05-02T14:33:43Z</time>
      </trkpt>
      <trkpt lat="46.5641" lon="1.24136">
        <ele>128.6</ele>
        <time>2023-05-02T14:33:47Z</time>
      </trkpt>
      <trkpt lat="46.56423" lon="1.24121">
        <ele>128.4</ele>
        <time>2023-05-02T14:33:53Z</time>
      </trkpt>
      <trkpt lat="46.56436" lon="1.24107">
        <ele>127.8</ele>
        <time>2023-05-02T14:33:59Z</time>
      </trkpt>
      <trkpt lat="46.56446" lon="1.24095">
        <ele>127.6</ele>
        <time>2023-05-02T14:34:04Z</time>
      </trkpt>
      <trkpt lat="46.5645" lon="1.24091">
        <ele>127.2</ele>
        <time>2023-05-02T14:34:07Z</time>
      </trkpt>
      <trkpt lat="46.5645" lon="1.2409">
        <ele>127</ele>
        <time>2023-05-02T14:34:09Z</time>
      </trkpt>
      <trkpt lat="46.56453" lon="1.24087">
        <ele>126</ele>
        <time>2023-05-02T14:34:23Z</time>
      </trkpt>
      <trkpt lat="46.56456" lon="1.24081">
        <ele>125.8</ele>
        <time>2023-05-02T14:34:25Z</time>
      </trkpt>
      <trkpt lat="46.56471" lon="1.24058">
        <ele>125</ele>
        <time>2023-05-02T14:34:32Z</time>
      </trkpt>
      <trkpt lat="46.56484" lon="1.2404">
        <ele>124.8</ele>
        <time>2023-05-02T14:34:38Z</time>
      </trkpt>
      <trkpt lat="46.56499" lon="1.24021">
        <ele>124.8</ele>
        <time>2023-05-02T14:34:44Z</time>
      </trkpt>
      <trkpt lat="46.56517" lon="1.23999">
        <ele>125</ele>
        <time>2023-05-02T14:34:52Z</time>
      </trkpt>
      <trkpt lat="46.56529" lon="1.23982">
        <ele>124.4</ele>
        <time>2023-05-02T14:34:58Z</time>
      </trkpt>
      <trkpt lat="46.56542" lon="1.23965">
        <ele>124.4</ele>
        <time>2023-05-02T14:35:05Z</time>
      </trkpt>
      <trkpt lat="46.56543" lon="1.23963">
        <ele>124.6</ele>
        <time>2023-05-02T14:35:07Z</time>
      </trkpt>
      <trkpt lat="46.56544" lon="1.2396">
        <ele>125</ele>
        <time>2023-05-02T14:35:10Z</time>
      </trkpt>
      <trkpt lat="46.5655" lon="1.23951">
        <ele>125</ele>
        <time>2023-05-02T14:35:15Z</time>
      </trkpt>
      <trkpt lat="46.5656" lon="1.23939">
        <ele>125.2</ele>
        <time>2023-05-02T14:35:20Z</time>
      </trkpt>
      <trkpt lat="46.56573" lon="1.23922">
        <ele>125.4</ele>
        <time>2023-05-02T14:35:26Z</time>
      </trkpt>
      <trkpt lat="46.56578" lon="1.23915">
        <ele>125.2</ele>
        <time>2023-05-02T14:35:30Z</time>
      </trkpt>
      <trkpt lat="46.56583" lon="1.23909">
        <ele>125.4</ele>
        <time>2023-05-02T14:35:34Z</time>
      </trkpt>
      <trkpt lat="46.56591" lon="1.23902">
        <ele>125.6</ele>
        <time>2023-05-02T14:35:39Z</time>
      </trkpt>
      <trkpt lat="46.56592" lon="1.239">
        <ele>125.6</ele>
        <time>2023-05-02T14:35:41Z</time>
      </trkpt>
      <trkpt lat="46.56595" lon="1.23897">
        <ele>126</ele>
        <time>2023-05-02T14:35:47Z</time>
      </trkpt>
      <trkpt lat="46.56596" lon="1.23895">
        <ele>126.2</ele>
        <time>2023-05-02T14:35:48Z</time>
      </trkpt>
      <trkpt lat="46.56607" lon="1.2388">
        <ele>126.6</ele>
        <time>2023-05-02T14:35:54Z</time>
      </trkpt>
      <trkpt lat="46.56623" lon="1.23857">
        <ele>126.8</ele>
        <time>2023-05-02T14:36:02Z</time>
      </trkpt>
      <trkpt lat="46.56633" lon="1.23845">
        <ele>126.8</ele>
        <time>2023-05-02T14:36:07Z</time>
      </trkpt>
      <trkpt lat="46.56645" lon="1.23831">
        <ele>127.6</ele>
        <time>2023-05-02T14:36:13Z</time>
      </trkpt>
      <trkpt lat="46.56657" lon="1.23819">
        <ele>128.6</ele>
        <time>2023-05-02T14:36:18Z</time>
      </trkpt>
      <trkpt lat="46.56678" lon="1.23818">
        <ele>129.4</ele>
        <time>2023-05-02T14:36:23Z</time>
      </trkpt>
      <trkpt lat="46.56716" lon="1.23816">
        <ele>130.4</ele>
        <time>2023-05-02T14:36:31Z</time>
      </trkpt>
      <trkpt lat="46.56742" lon="1.23816">
        <ele>131</ele>
        <time>2023-05-02T14:36:36Z</time>
      </trkpt>
      <trkpt lat="46.56753" lon="1.23815">
        <ele>131.2</ele>
        <time>2023-05-02T14:36:38Z</time>
      </trkpt>
      <trkpt lat="46.56788" lon="1.23813">
        <ele>132</ele>
        <time>2023-05-02T14:36:44Z</time>
      </trkpt>
      <trkpt lat="46.56834" lon="1.23813">
        <ele>132.8</ele>
        <time>2023-05-02T14:36:52Z</time>
      </trkpt>
      <trkpt lat="46.56864" lon="1.23811">
        <ele>133.2</ele>
        <time>2023-05-02T14:36:57Z</time>
      </trkpt>
      <trkpt lat="46.56876" lon="1.23811">
        <ele>133.4</ele>
        <time>2023-05-02T14:36:59Z</time>
      </trkpt>
      <trkpt lat="46.56927" lon="1.23809">
        <ele>133.8</ele>
        <time>2023-05-02T14:37:07Z</time>
      </trkpt>
      <trkpt lat="46.56949" lon="1.23798">
        <ele>134.2</ele>
        <time>2023-05-02T14:37:11Z</time>
      </trkpt>
      <trkpt lat="46.56954" lon="1.23794">
        <ele>134.2</ele>
        <time>2023-05-02T14:37:12Z</time>
      </trkpt>
      <trkpt lat="46.56959" lon="1.23791">
        <ele>134.2</ele>
        <time>2023-05-02T14:37:13Z</time>
      </trkpt>
      <trkpt lat="46.56974" lon="1.23784">
        <ele>134.2</ele>
        <time>2023-05-02T14:37:16Z</time>
      </trkpt>
      <trkpt lat="46.56997" lon="1.23773">
        <ele>134.4</ele>
        <time>2023-05-02T14:37:21Z</time>
      </trkpt>
      <trkpt lat="46.57007" lon="1.23768">
        <ele>134.4</ele>
        <time>2023-05-02T14:37:23Z</time>
      </trkpt>
      <trkpt lat="46.57023" lon="1.2376">
        <ele>134.6</ele>
        <time>2023-05-02T14:37:26Z</time>
      </trkpt>
      <trkpt lat="46.57057" lon="1.23745">
        <ele>134.6</ele>
        <time>2023-05-02T14:37:32Z</time>
      </trkpt>
      <trkpt lat="46.57085" lon="1.23731">
        <ele>134.8</ele>
        <time>2023-05-02T14:37:37Z</time>
      </trkpt>
      <trkpt lat="46.57096" lon="1.23727">
        <ele>134.8</ele>
        <time>2023-05-02T14:37:39Z</time>
      </trkpt>
      <trkpt lat="46.57115" lon="1.23718">
        <ele>134.8</ele>
        <time>2023-05-02T14:37:42Z</time>
      </trkpt>
      <trkpt lat="46.57161" lon="1.23696">
        <ele>134.6</ele>
        <time>2023-05-02T14:37:49Z</time>
      </trkpt>
      <trkpt lat="46.57217" lon="1.23669">
        <ele>134.2</ele>
        <time>2023-05-02T14:37:57Z</time>
      </trkpt>
      <trkpt lat="46.57238" lon="1.23659">
        <ele>134</ele>
        <time>2023-05-02T14:38:00Z</time>
      </trkpt>
      <trkpt lat="46.57292" lon="1.23633">
        <ele>133.6</ele>
        <time>2023-05-02T14:38:08Z</time>
      </trkpt>
      <trkpt lat="46.57336" lon="1.23612">
        <ele>133.4</ele>
        <time>2023-05-02T14:38:15Z</time>
      </trkpt>
      <trkpt lat="46.57375" lon="1.23592">
        <ele>133.2</ele>
        <time>2023-05-02T14:38:21Z</time>
      </trkpt>
      <trkpt lat="46.57421" lon="1.23571">
        <ele>132.8</ele>
        <time>2023-05-02T14:38:28Z</time>
      </trkpt>
      <trkpt lat="46.57476" lon="1.23544">
        <ele>132.4</ele>
        <time>2023-05-02T14:38:36Z</time>
      </trkpt>
      <trkpt lat="46.57498" lon="1.23534">
        <ele>132.2</ele>
        <time>2023-05-02T14:38:39Z</time>
      </trkpt>
      <trkpt lat="46.57555" lon="1.23506">
        <ele>131.8</ele>
        <time>2023-05-02T14:38:47Z</time>
      </trkpt>
      <trkpt lat="46.5757" lon="1.23499">
        <ele>131.6</ele>
        <time>2023-05-02T14:38:49Z</time>
      </trkpt>
      <trkpt lat="46.57619" lon="1.23474">
        <ele>131.4</ele>
        <time>2023-05-02T14:38:56Z</time>
      </trkpt>
      <trkpt lat="46.57653" lon="1.23458">
        <ele>131.2</ele>
        <time>2023-05-02T14:39:01Z</time>
      </trkpt>
      <trkpt lat="46.57707" lon="1.23433">
        <ele>130.8</ele>
        <time>2023-05-02T14:39:09Z</time>
      </trkpt>
      <trkpt lat="46.57752" lon="1.23411">
        <ele>130.4</ele>
        <time>2023-05-02T14:39:16Z</time>
      </trkpt>
      <trkpt lat="46.57799" lon="1.23388">
        <ele>129.6</ele>
        <time>2023-05-02T14:39:23Z</time>
      </trkpt>
      <trkpt lat="46.57836" lon="1.23371">
        <ele>129.2</ele>
        <time>2023-05-02T14:39:29Z</time>
      </trkpt>
      <trkpt lat="46.57865" lon="1.23358">
        <ele>128.8</ele>
        <time>2023-05-02T14:39:34Z</time>
      </trkpt>
      <trkpt lat="46.57882" lon="1.23349">
        <ele>128.6</ele>
        <time>2023-05-02T14:39:37Z</time>
      </trkpt>
      <trkpt lat="46.57888" lon="1.23346">
        <ele>128.4</ele>
        <time>2023-05-02T14:39:38Z</time>
      </trkpt>
      <trkpt lat="46.57924" lon="1.23326">
        <ele>128.2</ele>
        <time>2023-05-02T14:39:44Z</time>
      </trkpt>
      <trkpt lat="46.57958" lon="1.2331">
        <ele>127.8</ele>
        <time>2023-05-02T14:39:50Z</time>
      </trkpt>
      <trkpt lat="46.57992" lon="1.23296">
        <ele>127.6</ele>
        <time>2023-05-02T14:39:56Z</time>
      </trkpt>
      <trkpt lat="46.58032" lon="1.23276">
        <ele>127.6</ele>
        <time>2023-05-02T14:40:03Z</time>
      </trkpt>
      <trkpt lat="46.58076" lon="1.23255">
        <ele>127.4</ele>
        <time>2023-05-02T14:40:11Z</time>
      </trkpt>
      <trkpt lat="46.5813" lon="1.2323">
        <ele>127.4</ele>
        <time>2023-05-02T14:40:21Z</time>
      </trkpt>
      <trkpt lat="46.58164" lon="1.23213">
        <ele>127.6</ele>
        <time>2023-05-02T14:40:28Z</time>
      </trkpt>
      <trkpt lat="46.58195" lon="1.23197">
        <ele>127.2</ele>
        <time>2023-05-02T14:40:34Z</time>
      </trkpt>
      <trkpt lat="46.58233" lon="1.2318">
        <ele>127</ele>
        <time>2023-05-02T14:40:41Z</time>
      </trkpt>
      <trkpt lat="46.58255" lon="1.2317">
        <ele>126.8</ele>
        <time>2023-05-02T14:40:46Z</time>
      </trkpt>
      <trkpt lat="46.58263" lon="1.23164">
        <ele>126.8</ele>
        <time>2023-05-02T14:40:50Z</time>
      </trkpt>
      <trkpt lat="46.58279" lon="1.23156">
        <ele>126.8</ele>
        <time>2023-05-02T14:40:54Z</time>
      </trkpt>
      <trkpt lat="46.58303" lon="1.23144">
        <ele>126.4</ele>
        <time>2023-05-02T14:41:00Z</time>
      </trkpt>
      <trkpt lat="46.58329" lon="1.23132">
        <ele>126</ele>
        <time>2023-05-02T14:41:06Z</time>
      </trkpt>
      <trkpt lat="46.58339" lon="1.23127">
        <ele>126</ele>
        <time>2023-05-02T14:41:08Z</time>
      </trkpt>
      <trkpt lat="46.58349" lon="1.23123">
        <ele>125.8</ele>
        <time>2023-05-02T14:41:10Z</time>
      </trkpt>
      <trkpt lat="46.58354" lon="1.23121">
        <ele>125.8</ele>
        <time>2023-05-02T14:41:11Z</time>
      </trkpt>
      <trkpt lat="46.58381" lon="1.23109">
        <ele>125.6</ele>
        <time>2023-05-02T14:41:16Z</time>
      </trkpt>
      <trkpt lat="46.58406" lon="1.23097">
        <ele>125.4</ele>
        <time>2023-05-02T14:41:21Z</time>
      </trkpt>
      <trkpt lat="46.58416" lon="1.2309">
        <ele>125.4</ele>
        <time>2023-05-02T14:41:23Z</time>
      </trkpt>
      <trkpt lat="46.58429" lon="1.23077">
        <ele>125.2</ele>
        <time>2023-05-02T14:41:26Z</time>
      </trkpt>
      <trkpt lat="46.5845" lon="1.2306">
        <ele>124.8</ele>
        <time>2023-05-02T14:41:30Z</time>
      </trkpt>
      <trkpt lat="46.58489" lon="1.23029">
        <ele>124.6</ele>
        <time>2023-05-02T14:41:37Z</time>
      </trkpt>
      <trkpt lat="46.58515" lon="1.23007">
        <ele>124.2</ele>
        <time>2023-05-02T14:41:42Z</time>
      </trkpt>
      <trkpt lat="46.5852" lon="1.23002">
        <ele>124.2</ele>
        <time>2023-05-02T14:41:43Z</time>
      </trkpt>
      <trkpt lat="46.58536" lon="1.22989">
        <ele>124.2</ele>
        <time>2023-05-02T14:41:47Z</time>
      </trkpt>
      <trkpt lat="46.58551" lon="1.22977">
        <ele>123.8</ele>
        <time>2023-05-02T14:41:51Z</time>
      </trkpt>
      <trkpt lat="46.58559" lon="1.2297">
        <ele>123.8</ele>
        <time>2023-05-02T14:41:53Z</time>
      </trkpt>
      <trkpt lat="46.58576" lon="1.22957">
        <ele>123.4</ele>
        <time>2023-05-02T14:41:57Z</time>
      </trkpt>
      <trkpt lat="46.58584" lon="1.22952">
        <ele>123.2</ele>
        <time>2023-05-02T14:41:59Z</time>
      </trkpt>
      <trkpt lat="46.58593" lon="1.22946">
        <ele>122.8</ele>
        <time>2023-05-02T14:42:03Z</time>
      </trkpt>
      <trkpt lat="46.58609" lon="1.22939">
        <ele>122.8</ele>
        <time>2023-05-02T14:42:10Z</time>
      </trkpt>
      <trkpt lat="46.58624" lon="1.22931">
        <ele>122.8</ele>
        <time>2023-05-02T14:42:15Z</time>
      </trkpt>
      <trkpt lat="46.58645" lon="1.22918">
        <ele>122.8</ele>
        <time>2023-05-02T14:42:21Z</time>
      </trkpt>
      <trkpt lat="46.58662" lon="1.22908">
        <ele>122.2</ele>
        <time>2023-05-02T14:42:26Z</time>
      </trkpt>
      <trkpt lat="46.58691" lon="1.22891">
        <ele>123</ele>
        <time>2023-05-02T14:42:33Z</time>
      </trkpt>
      <trkpt lat="46.58712" lon="1.22879">
        <ele>123</ele>
        <time>2023-05-02T14:42:38Z</time>
      </trkpt>
      <trkpt lat="46.58737" lon="1.22865">
        <ele>123.2</ele>
        <time>2023-05-02T14:42:44Z</time>
      </trkpt>
      <trkpt lat="46.58765" lon="1.22849">
        <ele>123.2</ele>
        <time>2023-05-02T14:42:51Z</time>
      </trkpt>
      <trkpt lat="46.5879" lon="1.22835">
        <ele>123.2</ele>
        <time>2023-05-02T14:42:57Z</time>
      </trkpt>
      <trkpt lat="46.58794" lon="1.22832">
        <ele>123.4</ele>
        <time>2023-05-02T14:42:58Z</time>
      </trkpt>
      <trkpt lat="46.58815" lon="1.22821">
        <ele>123.6</ele>
        <time>2023-05-02T14:43:03Z</time>
      </trkpt>
      <trkpt lat="46.5883" lon="1.22808">
        <ele>123.6</ele>
        <time>2023-05-02T14:43:07Z</time>
      </trkpt>
      <trkpt lat="46.58832" lon="1.22803">
        <ele>123.6</ele>
        <time>2023-05-02T14:43:08Z</time>
      </trkpt>
      <trkpt lat="46.58849" lon="1.22783">
        <ele>123.6</ele>
        <time>2023-05-02T14:43:14Z</time>
      </trkpt>
      <trkpt lat="46.58858" lon="1.22777">
        <ele>123.2</ele>
        <time>2023-05-02T14:43:18Z</time>
      </trkpt>
      <trkpt lat="46.58859" lon="1.22776">
        <ele>123.2</ele>
        <time>2023-05-02T14:43:19Z</time>
      </trkpt>
      <trkpt lat="46.58863" lon="1.22772">
        <ele>123</ele>
        <time>2023-05-02T14:43:23Z</time>
      </trkpt>
      <trkpt lat="46.58863" lon="1.22771">
        <ele>123.2</ele>
        <time>2023-05-02T14:43:24Z</time>
      </trkpt>
      <trkpt lat="46.58863" lon="1.22771">
        <ele>123.2</ele>
        <time>2023-05-02T14:43:26Z</time>
      </trkpt>
      <trkpt lat="46.58858" lon="1.22773">
        <ele>123.2</ele>
        <time>2023-05-02T14:43:28Z</time>
      </trkpt>
      <trkpt lat="46.58844" lon="1.22783">
        <ele>123.4</ele>
        <time>2023-05-02T14:43:33Z</time>
      </trkpt>
      <trkpt lat="46.58834" lon="1.22796">
        <ele>123.6</ele>
        <time>2023-05-02T14:43:37Z</time>
      </trkpt>
      <trkpt lat="46.58834" lon="1.22803">
        <ele>123.6</ele>
        <time>2023-05-02T14:43:39Z</time>
      </trkpt>
      <trkpt lat="46.58837" lon="1.22806">
        <ele>123.6</ele>
        <time>2023-05-02T14:43:40Z</time>
      </trkpt>
      <trkpt lat="46.58839" lon="1.22808">
        <ele>123.8</ele>
        <time>2023-05-02T14:43:43Z</time>
      </trkpt>
      <trkpt lat="46.58837" lon="1.2281">
        <ele>124.8</ele>
        <time>2023-05-02T14:45:14Z</time>
      </trkpt>
      <trkpt lat="46.58836" lon="1.22806">
        <ele>124.8</ele>
        <time>2023-05-02T14:45:16Z</time>
      </trkpt>
      <trkpt lat="46.58834" lon="1.22795">
        <ele>124.8</ele>
        <time>2023-05-02T14:45:20Z</time>
      </trkpt>
      <trkpt lat="46.58843" lon="1.22786">
        <ele>124.8</ele>
        <time>2023-05-02T14:45:24Z</time>
      </trkpt>
      <trkpt lat="46.58861" lon="1.22773">
        <ele>124.4</ele>
        <time>2023-05-02T14:45:30Z</time>
      </trkpt>
      <trkpt lat="46.58888" lon="1.22754">
        <ele>123.8</ele>
        <time>2023-05-02T14:45:36Z</time>
      </trkpt>
      <trkpt lat="46.58915" lon="1.22732">
        <ele>123.6</ele>
        <time>2023-05-02T14:45:42Z</time>
      </trkpt>
      <trkpt lat="46.58952" lon="1.22704">
        <ele>123.4</ele>
        <time>2023-05-02T14:45:49Z</time>
      </trkpt>
      <trkpt lat="46.58957" lon="1.22701">
        <ele>123.4</ele>
        <time>2023-05-02T14:45:50Z</time>
      </trkpt>
      <trkpt lat="46.58968" lon="1.227">
        <ele>123.2</ele>
        <time>2023-05-02T14:45:52Z</time>
      </trkpt>
      <trkpt lat="46.58973" lon="1.227">
        <ele>123.2</ele>
        <time>2023-05-02T14:45:53Z</time>
      </trkpt>
      <trkpt lat="46.58987" lon="1.22704">
        <ele>123.2</ele>
        <time>2023-05-02T14:45:56Z</time>
      </trkpt>
      <trkpt lat="46.58992" lon="1.22704">
        <ele>123.2</ele>
        <time>2023-05-02T14:45:57Z</time>
      </trkpt>
      <trkpt lat="46.59001" lon="1.22705">
        <ele>123</ele>
        <time>2023-05-02T14:45:59Z</time>
      </trkpt>
      <trkpt lat="46.59011" lon="1.22702">
        <ele>123</ele>
        <time>2023-05-02T14:46:01Z</time>
      </trkpt>
      <trkpt lat="46.59017" lon="1.22699">
        <ele>123</ele>
        <time>2023-05-02T14:46:02Z</time>
      </trkpt>
      <trkpt lat="46.59033" lon="1.2269">
        <ele>123.2</ele>
        <time>2023-05-02T14:46:05Z</time>
      </trkpt>
      <trkpt lat="46.59051" lon="1.22679">
        <ele>123.2</ele>
        <time>2023-05-02T14:46:08Z</time>
      </trkpt>
      <trkpt lat="46.59075" lon="1.22666">
        <ele>123.4</ele>
        <time>2023-05-02T14:46:12Z</time>
      </trkpt>
      <trkpt lat="46.59086" lon="1.22658">
        <ele>123.6</ele>
        <time>2023-05-02T14:46:14Z</time>
      </trkpt>
      <trkpt lat="46.59128" lon="1.2263">
        <ele>124</ele>
        <time>2023-05-02T14:46:22Z</time>
      </trkpt>
      <trkpt lat="46.59162" lon="1.22607">
        <ele>124.4</ele>
        <time>2023-05-02T14:46:29Z</time>
      </trkpt>
      <trkpt lat="46.59178" lon="1.22595">
        <ele>124.8</ele>
        <time>2023-05-02T14:46:32Z</time>
      </trkpt>
      <trkpt lat="46.59182" lon="1.22589">
        <ele>124.8</ele>
        <time>2023-05-02T14:46:33Z</time>
      </trkpt>
      <trkpt lat="46.592" lon="1.22555">
        <ele>125.2</ele>
        <time>2023-05-02T14:46:38Z</time>
      </trkpt>
      <trkpt lat="46.59212" lon="1.22527">
        <ele>125.2</ele>
        <time>2023-05-02T14:46:42Z</time>
      </trkpt>
      <trkpt lat="46.59216" lon="1.22522">
        <ele>125.4</ele>
        <time>2023-05-02T14:46:43Z</time>
      </trkpt>
      <trkpt lat="46.59222" lon="1.22518">
        <ele>125.4</ele>
        <time>2023-05-02T14:46:44Z</time>
      </trkpt>
      <trkpt lat="46.59239" lon="1.22512">
        <ele>125.6</ele>
        <time>2023-05-02T14:46:47Z</time>
      </trkpt>
      <trkpt lat="46.59268" lon="1.22503">
        <ele>126</ele>
        <time>2023-05-02T14:46:52Z</time>
      </trkpt>
      <trkpt lat="46.59286" lon="1.22496">
        <ele>126.2</ele>
        <time>2023-05-02T14:46:55Z</time>
      </trkpt>
      <trkpt lat="46.59291" lon="1.22492">
        <ele>126.2</ele>
        <time>2023-05-02T14:46:56Z</time>
      </trkpt>
      <trkpt lat="46.59295" lon="1.22486">
        <ele>126.2</ele>
        <time>2023-05-02T14:46:57Z</time>
      </trkpt>
      <trkpt lat="46.59305" lon="1.22463">
        <ele>126.4</ele>
        <time>2023-05-02T14:47:00Z</time>
      </trkpt>
      <trkpt lat="46.59307" lon="1.22455">
        <ele>126.4</ele>
        <time>2023-05-02T14:47:01Z</time>
      </trkpt>
      <trkpt lat="46.59315" lon="1.22421">
        <ele>126.6</ele>
        <time>2023-05-02T14:47:05Z</time>
      </trkpt>
      <trkpt lat="46.59337" lon="1.22347">
        <ele>127</ele>
        <time>2023-05-02T14:47:14Z</time>
      </trkpt>
      <trkpt lat="46.59359" lon="1.2227">
        <ele>127.4</ele>
        <time>2023-05-02T14:47:23Z</time>
      </trkpt>
      <trkpt lat="46.59364" lon="1.22252">
        <ele>127.6</ele>
        <time>2023-05-02T14:47:25Z</time>
      </trkpt>
      <trkpt lat="46.59384" lon="1.22185">
        <ele>127.8</ele>
        <time>2023-05-02T14:47:33Z</time>
      </trkpt>
      <trkpt lat="46.59405" lon="1.22111">
        <ele>128.2</ele>
        <time>2023-05-02T14:47:42Z</time>
      </trkpt>
      <trkpt lat="46.5942" lon="1.22057">
        <ele>128.6</ele>
        <time>2023-05-02T14:47:49Z</time>
      </trkpt>
      <trkpt lat="46.59423" lon="1.22049">
        <ele>128.6</ele>
        <time>2023-05-02T14:47:50Z</time>
      </trkpt>
      <trkpt lat="46.59436" lon="1.22014">
        <ele>129</ele>
        <time>2023-05-02T14:47:55Z</time>
      </trkpt>
      <trkpt lat="46.59439" lon="1.22007">
        <ele>129</ele>
        <time>2023-05-02T14:47:56Z</time>
      </trkpt>
      <trkpt lat="46.59455" lon="1.21969">
        <ele>129.2</ele>
        <time>2023-05-02T14:48:01Z</time>
      </trkpt>
      <trkpt lat="46.59459" lon="1.21962">
        <ele>129.2</ele>
        <time>2023-05-02T14:48:02Z</time>
      </trkpt>
      <trkpt lat="46.59485" lon="1.219">
        <ele>129.4</ele>
        <time>2023-05-02T14:48:10Z</time>
      </trkpt>
      <trkpt lat="46.59499" lon="1.21871">
        <ele>129.6</ele>
        <time>2023-05-02T14:48:14Z</time>
      </trkpt>
      <trkpt lat="46.59504" lon="1.21864">
        <ele>129.8</ele>
        <time>2023-05-02T14:48:15Z</time>
      </trkpt>
      <trkpt lat="46.59532" lon="1.2183">
        <ele>130</ele>
        <time>2023-05-02T14:48:21Z</time>
      </trkpt>
      <trkpt lat="46.59554" lon="1.21803">
        <ele>130</ele>
        <time>2023-05-02T14:48:26Z</time>
      </trkpt>
      <trkpt lat="46.59559" lon="1.21799">
        <ele>130</ele>
        <time>2023-05-02T14:48:27Z</time>
      </trkpt>
      <trkpt lat="46.59564" lon="1.21796">
        <ele>130</ele>
        <time>2023-05-02T14:48:28Z</time>
      </trkpt>
      <trkpt lat="46.59583" lon="1.21793">
        <ele>130</ele>
        <time>2023-05-02T14:48:31Z</time>
      </trkpt>
      <trkpt lat="46.59609" lon="1.21793">
        <ele>129.8</ele>
        <time>2023-05-02T14:48:35Z</time>
      </trkpt>
      <trkpt lat="46.59615" lon="1.21795">
        <ele>130.2</ele>
        <time>2023-05-02T14:48:36Z</time>
      </trkpt>
      <trkpt lat="46.5962" lon="1.21801">
        <ele>129.8</ele>
        <time>2023-05-02T14:48:37Z</time>
      </trkpt>
      <trkpt lat="46.59624" lon="1.2181">
        <ele>129.6</ele>
        <time>2023-05-02T14:48:38Z</time>
      </trkpt>
      <trkpt lat="46.59625" lon="1.21819">
        <ele>129.6</ele>
        <time>2023-05-02T14:48:39Z</time>
      </trkpt>
      <trkpt lat="46.59628" lon="1.21835">
        <ele>129.4</ele>
        <time>2023-05-02T14:48:41Z</time>
      </trkpt>
      <trkpt lat="46.59636" lon="1.21845">
        <ele>129.4</ele>
        <time>2023-05-02T14:48:43Z</time>
      </trkpt>
      <trkpt lat="46.59655" lon="1.21844">
        <ele>129.2</ele>
        <time>2023-05-02T14:48:46Z</time>
      </trkpt>
      <trkpt lat="46.59704" lon="1.21841">
        <ele>128.6</ele>
        <time>2023-05-02T14:48:53Z</time>
      </trkpt>
      <trkpt lat="46.59745" lon="1.21839">
        <ele>128.4</ele>
        <time>2023-05-02T14:49:00Z</time>
      </trkpt>
      <trkpt lat="46.59777" lon="1.21836">
        <ele>128</ele>
        <time>2023-05-02T14:49:06Z</time>
      </trkpt>
      <trkpt lat="46.59809" lon="1.21825">
        <ele>127.8</ele>
        <time>2023-05-02T14:49:12Z</time>
      </trkpt>
      <trkpt lat="46.59841" lon="1.21806">
        <ele>127.4</ele>
        <time>2023-05-02T14:49:18Z</time>
      </trkpt>
      <trkpt lat="46.59847" lon="1.21794">
        <ele>127</ele>
        <time>2023-05-02T14:49:20Z</time>
      </trkpt>
      <trkpt lat="46.59848" lon="1.21786">
        <ele>126.8</ele>
        <time>2023-05-02T14:49:21Z</time>
      </trkpt>
      <trkpt lat="46.59848" lon="1.21778">
        <ele>126.8</ele>
        <time>2023-05-02T14:49:22Z</time>
      </trkpt>
      <trkpt lat="46.59846" lon="1.21754">
        <ele>126.6</ele>
        <time>2023-05-02T14:49:25Z</time>
      </trkpt>
      <trkpt lat="46.59847" lon="1.21738">
        <ele>126.4</ele>
        <time>2023-05-02T14:49:27Z</time>
      </trkpt>
      <trkpt lat="46.59853" lon="1.21722">
        <ele>126.2</ele>
        <time>2023-05-02T14:49:29Z</time>
      </trkpt>
      <trkpt lat="46.59862" lon="1.21709">
        <ele>126</ele>
        <time>2023-05-02T14:49:31Z</time>
      </trkpt>
      <trkpt lat="46.59873" lon="1.21699">
        <ele>125.8</ele>
        <time>2023-05-02T14:49:33Z</time>
      </trkpt>
      <trkpt lat="46.59887" lon="1.21683">
        <ele>125.6</ele>
        <time>2023-05-02T14:49:36Z</time>
      </trkpt>
      <trkpt lat="46.59893" lon="1.21679">
        <ele>125.6</ele>
        <time>2023-05-02T14:49:38Z</time>
      </trkpt>
      <trkpt lat="46.59896" lon="1.21678">
        <ele>125.4</ele>
        <time>2023-05-02T14:49:41Z</time>
      </trkpt>
      <trkpt lat="46.59901" lon="1.21678">
        <ele>123.2</ele>
        <time>2023-05-02T14:50:30Z</time>
      </trkpt>
      <trkpt lat="46.59918" lon="1.21686">
        <ele>123.2</ele>
        <time>2023-05-02T14:50:36Z</time>
      </trkpt>
      <trkpt lat="46.59943" lon="1.21698">
        <ele>123.4</ele>
        <time>2023-05-02T14:50:42Z</time>
      </trkpt>
      <trkpt lat="46.5998" lon="1.21714">
        <ele>123</ele>
        <time>2023-05-02T14:50:49Z</time>
      </trkpt>
      <trkpt lat="46.60034" lon="1.21738">
        <ele>123</ele>
        <time>2023-05-02T14:50:58Z</time>
      </trkpt>
      <trkpt lat="46.60074" lon="1.21755">
        <ele>123.2</ele>
        <time>2023-05-02T14:51:05Z</time>
      </trkpt>
      <trkpt lat="46.60101" lon="1.21767">
        <ele>123.4</ele>
        <time>2023-05-02T14:51:10Z</time>
      </trkpt>
      <trkpt lat="46.60112" lon="1.21773">
        <ele>123.4</ele>
        <time>2023-05-02T14:51:12Z</time>
      </trkpt>
      <trkpt lat="46.60128" lon="1.2178">
        <ele>123.4</ele>
        <time>2023-05-02T14:51:15Z</time>
      </trkpt>
      <trkpt lat="46.60164" lon="1.21796">
        <ele>123.6</ele>
        <time>2023-05-02T14:51:21Z</time>
      </trkpt>
      <trkpt lat="46.60198" lon="1.2182">
        <ele>123.6</ele>
        <time>2023-05-02T14:51:27Z</time>
      </trkpt>
      <trkpt lat="46.60229" lon="1.21849">
        <ele>123.8</ele>
        <time>2023-05-02T14:51:33Z</time>
      </trkpt>
      <trkpt lat="46.60277" lon="1.21896">
        <ele>123</ele>
        <time>2023-05-02T14:51:42Z</time>
      </trkpt>
      <trkpt lat="46.60322" lon="1.21942">
        <ele>122.2</ele>
        <time>2023-05-02T14:51:50Z</time>
      </trkpt>
      <trkpt lat="46.60334" lon="1.21954">
        <ele>122</ele>
        <time>2023-05-02T14:51:52Z</time>
      </trkpt>
      <trkpt lat="46.60381" lon="1.22001">
        <ele>121.2</ele>
        <time>2023-05-02T14:52:00Z</time>
      </trkpt>
      <trkpt lat="46.60429" lon="1.22051">
        <ele>120.2</ele>
        <time>2023-05-02T14:52:08Z</time>
      </trkpt>
      <trkpt lat="46.60467" lon="1.22089">
        <ele>119.6</ele>
        <time>2023-05-02T14:52:15Z</time>
      </trkpt>
      <trkpt lat="46.60497" lon="1.22118">
        <ele>119.2</ele>
        <time>2023-05-02T14:52:21Z</time>
      </trkpt>
      <trkpt lat="46.60509" lon="1.2213">
        <ele>119</ele>
        <time>2023-05-02T14:52:24Z</time>
      </trkpt>
      <trkpt lat="46.60524" lon="1.2214">
        <ele>119</ele>
        <time>2023-05-02T14:52:27Z</time>
      </trkpt>
      <trkpt lat="46.60543" lon="1.22151">
        <ele>119</ele>
        <time>2023-05-02T14:52:31Z</time>
      </trkpt>
      <trkpt lat="46.60558" lon="1.22156">
        <ele>119</ele>
        <time>2023-05-02T14:52:34Z</time>
      </trkpt>
      <trkpt lat="46.60589" lon="1.22163">
        <ele>119.2</ele>
        <time>2023-05-02T14:52:40Z</time>
      </trkpt>
      <trkpt lat="46.60613" lon="1.22168">
        <ele>119.4</ele>
        <time>2023-05-02T14:52:45Z</time>
      </trkpt>
      <trkpt lat="46.60648" lon="1.22174">
        <ele>119.6</ele>
        <time>2023-05-02T14:52:52Z</time>
      </trkpt>
      <trkpt lat="46.6068" lon="1.2218">
        <ele>119.8</ele>
        <time>2023-05-02T14:52:58Z</time>
      </trkpt>
      <trkpt lat="46.60703" lon="1.22183">
        <ele>119.8</ele>
        <time>2023-05-02T14:53:02Z</time>
      </trkpt>
      <trkpt lat="46.60714" lon="1.22184">
        <ele>119.8</ele>
        <time>2023-05-02T14:53:04Z</time>
      </trkpt>
      <trkpt lat="46.60748" lon="1.2219">
        <ele>119.8</ele>
        <time>2023-05-02T14:53:10Z</time>
      </trkpt>
      <trkpt lat="46.6078" lon="1.22196">
        <ele>119.4</ele>
        <time>2023-05-02T14:53:15Z</time>
      </trkpt>
      <trkpt lat="46.60817" lon="1.22203">
        <ele>119.2</ele>
        <time>2023-05-02T14:53:20Z</time>
      </trkpt>
      <trkpt lat="46.60868" lon="1.22211">
        <ele>118.8</ele>
        <time>2023-05-02T14:53:27Z</time>
      </trkpt>
      <trkpt lat="46.60878" lon="1.22214">
        <ele>118.8</ele>
        <time>2023-05-02T14:53:29Z</time>
      </trkpt>
      <trkpt lat="46.60886" lon="1.2222">
        <ele>118.8</ele>
        <time>2023-05-02T14:53:31Z</time>
      </trkpt>
      <trkpt lat="46.6089" lon="1.22223">
        <ele>118.8</ele>
        <time>2023-05-02T14:53:32Z</time>
      </trkpt>
      <trkpt lat="46.60899" lon="1.22237">
        <ele>118.8</ele>
        <time>2023-05-02T14:53:35Z</time>
      </trkpt>
      <trkpt lat="46.60901" lon="1.22242">
        <ele>118.8</ele>
        <time>2023-05-02T14:53:36Z</time>
      </trkpt>
      <trkpt lat="46.60905" lon="1.22247">
        <ele>118.8</ele>
        <time>2023-05-02T14:53:37Z</time>
      </trkpt>
      <trkpt lat="46.6091" lon="1.22257">
        <ele>118.8</ele>
        <time>2023-05-02T14:53:39Z</time>
      </trkpt>
      <trkpt lat="46.60913" lon="1.22262">
        <ele>118.6</ele>
        <time>2023-05-02T14:53:40Z</time>
      </trkpt>
      <trkpt lat="46.60926" lon="1.22287">
        <ele>118.4</ele>
        <time>2023-05-02T14:53:45Z</time>
      </trkpt>
      <trkpt lat="46.60933" lon="1.22297">
        <ele>118.4</ele>
        <time>2023-05-02T14:53:47Z</time>
      </trkpt>
      <trkpt lat="46.60938" lon="1.22308">
        <ele>118.4</ele>
        <time>2023-05-02T14:53:49Z</time>
      </trkpt>
      <trkpt lat="46.60945" lon="1.22318">
        <ele>118.4</ele>
        <time>2023-05-02T14:53:51Z</time>
      </trkpt>
      <trkpt lat="46.60967" lon="1.22357">
        <ele>118.6</ele>
        <time>2023-05-02T14:53:58Z</time>
      </trkpt>
      <trkpt lat="46.60986" lon="1.22388">
        <ele>118.8</ele>
        <time>2023-05-02T14:54:04Z</time>
      </trkpt>
      <trkpt lat="46.61005" lon="1.22422">
        <ele>119</ele>
        <time>2023-05-02T14:54:10Z</time>
      </trkpt>
      <trkpt lat="46.6103" lon="1.22464">
        <ele>118.8</ele>
        <time>2023-05-02T14:54:17Z</time>
      </trkpt>
      <trkpt lat="46.61046" lon="1.22492">
        <ele>118.2</ele>
        <time>2023-05-02T14:54:22Z</time>
      </trkpt>
      <trkpt lat="46.61048" lon="1.22496">
        <ele>118.4</ele>
        <time>2023-05-02T14:54:23Z</time>
      </trkpt>
      <trkpt lat="46.6105" lon="1.22499">
        <ele>118.4</ele>
        <time>2023-05-02T14:54:26Z</time>
      </trkpt>
      <trkpt lat="46.61051" lon="1.225">
        <ele>117.4</ele>
        <time>2023-05-02T14:55:59Z</time>
      </trkpt>
      <trkpt lat="46.61054" lon="1.22505">
        <ele>117.4</ele>
        <time>2023-05-02T14:56:01Z</time>
      </trkpt>
      <trkpt lat="46.61067" lon="1.22527">
        <ele>117.4</ele>
        <time>2023-05-02T14:56:06Z</time>
      </trkpt>
      <trkpt lat="46.61089" lon="1.22563">
        <ele>117.2</ele>
        <time>2023-05-02T14:56:12Z</time>
      </trkpt>
      <trkpt lat="46.61117" lon="1.2261">
        <ele>116.8</ele>
        <time>2023-05-02T14:56:19Z</time>
      </trkpt>
      <trkpt lat="46.61146" lon="1.22659">
        <ele>116.4</ele>
        <time>2023-05-02T14:56:26Z</time>
      </trkpt>
      <trkpt lat="46.61166" lon="1.22693">
        <ele>116</ele>
        <time>2023-05-02T14:56:31Z</time>
      </trkpt>
      <trkpt lat="46.61171" lon="1.227">
        <ele>115.8</ele>
        <time>2023-05-02T14:56:32Z</time>
      </trkpt>
      <trkpt lat="46.61199" lon="1.22748">
        <ele>115.4</ele>
        <time>2023-05-02T14:56:39Z</time>
      </trkpt>
      <trkpt lat="46.61221" lon="1.2279">
        <ele>115</ele>
        <time>2023-05-02T14:56:45Z</time>
      </trkpt>
      <trkpt lat="46.61232" lon="1.2281">
        <ele>114.8</ele>
        <time>2023-05-02T14:56:48Z</time>
      </trkpt>
      <trkpt lat="46.6124" lon="1.22824">
        <ele>114.4</ele>
        <time>2023-05-02T14:56:50Z</time>
      </trkpt>
      <trkpt lat="46.61251" lon="1.22843">
        <ele>114.2</ele>
        <time>2023-05-02T14:56:53Z</time>
      </trkpt>
      <trkpt lat="46.61259" lon="1.22856">
        <ele>114</ele>
        <time>2023-05-02T14:56:55Z</time>
      </trkpt>
      <trkpt lat="46.61281" lon="1.22891">
        <ele>113.8</ele>
        <time>2023-05-02T14:57:01Z</time>
      </trkpt>
      <trkpt lat="46.61307" lon="1.22935">
        <ele>113.6</ele>
        <time>2023-05-02T14:57:08Z</time>
      </trkpt>
      <trkpt lat="46.61339" lon="1.22988">
        <ele>113</ele>
        <time>2023-05-02T14:57:16Z</time>
      </trkpt>
      <trkpt lat="46.61369" lon="1.23041">
        <ele>113</ele>
        <time>2023-05-02T14:57:24Z</time>
      </trkpt>
      <trkpt lat="46.61401" lon="1.23094">
        <ele>113.4</ele>
        <time>2023-05-02T14:57:32Z</time>
      </trkpt>
      <trkpt lat="46.61424" lon="1.23132">
        <ele>113.6</ele>
        <time>2023-05-02T14:57:38Z</time>
      </trkpt>
      <trkpt lat="46.61453" lon="1.23181">
        <ele>113.6</ele>
        <time>2023-05-02T14:57:46Z</time>
      </trkpt>
      <trkpt lat="46.61467" lon="1.23206">
        <ele>113.8</ele>
        <time>2023-05-02T14:57:51Z</time>
      </trkpt>
      <trkpt lat="46.61475" lon="1.2322">
        <ele>113.8</ele>
        <time>2023-05-02T14:57:55Z</time>
      </trkpt>
      <trkpt lat="46.61483" lon="1.23233">
        <ele>114</ele>
        <time>2023-05-02T14:57:59Z</time>
      </trkpt>
      <trkpt lat="46.61498" lon="1.23258">
        <ele>113.8</ele>
        <time>2023-05-02T14:58:05Z</time>
      </trkpt>
      <trkpt lat="46.6151" lon="1.23279">
        <ele>113.8</ele>
        <time>2023-05-02T14:58:10Z</time>
      </trkpt>
      <trkpt lat="46.61518" lon="1.23293">
        <ele>113.4</ele>
        <time>2023-05-02T14:58:14Z</time>
      </trkpt>
      <trkpt lat="46.61532" lon="1.23315">
        <ele>113.4</ele>
        <time>2023-05-02T14:58:19Z</time>
      </trkpt>
      <trkpt lat="46.61558" lon="1.23359">
        <ele>113.4</ele>
        <time>2023-05-02T14:58:26Z</time>
      </trkpt>
      <trkpt lat="46.61588" lon="1.2341">
        <ele>113.2</ele>
        <time>2023-05-02T14:58:33Z</time>
      </trkpt>
      <trkpt lat="46.61616" lon="1.23458">
        <ele>113</ele>
        <time>2023-05-02T14:58:40Z</time>
      </trkpt>
      <trkpt lat="46.61648" lon="1.23505">
        <ele>112.6</ele>
        <time>2023-05-02T14:58:47Z</time>
      </trkpt>
      <trkpt lat="46.61675" lon="1.23538">
        <ele>111.8</ele>
        <time>2023-05-02T14:58:52Z</time>
      </trkpt>
      <trkpt lat="46.61708" lon="1.23582">
        <ele>111</ele>
        <time>2023-05-02T14:58:58Z</time>
      </trkpt>
      <trkpt lat="46.61713" lon="1.23591">
        <ele>110.8</ele>
        <time>2023-05-02T14:58:59Z</time>
      </trkpt>
      <trkpt lat="46.6172" lon="1.23611">
        <ele>110.6</ele>
        <time>2023-05-02T14:59:01Z</time>
      </trkpt>
      <trkpt lat="46.61723" lon="1.23622">
        <ele>110.4</ele>
        <time>2023-05-02T14:59:02Z</time>
      </trkpt>
      <trkpt lat="46.61724" lon="1.23634">
        <ele>110.4</ele>
        <time>2023-05-02T14:59:03Z</time>
      </trkpt>
      <trkpt lat="46.61726" lon="1.23667">
        <ele>110</ele>
        <time>2023-05-02T14:59:06Z</time>
      </trkpt>
      <trkpt lat="46.61727" lon="1.23712">
        <ele>109.6</ele>
        <time>2023-05-02T14:59:11Z</time>
      </trkpt>
      <trkpt lat="46.61726" lon="1.23723">
        <ele>109.6</ele>
        <time>2023-05-02T14:59:14Z</time>
      </trkpt>
      <trkpt lat="46.61726" lon="1.23723">
        <ele>109.4</ele>
        <time>2023-05-02T14:59:15Z</time>
      </trkpt>
      <trkpt lat="46.61727" lon="1.23725">
        <ele>107</ele>
        <time>2023-05-02T14:59:52Z</time>
      </trkpt>
      <trkpt lat="46.6173" lon="1.2373">
        <ele>107</ele>
        <time>2023-05-02T14:59:54Z</time>
      </trkpt>
      <trkpt lat="46.61732" lon="1.23732">
        <ele>107</ele>
        <time>2023-05-02T14:59:55Z</time>
      </trkpt>
      <trkpt lat="46.61739" lon="1.23732">
        <ele>106.8</ele>
        <time>2023-05-02T14:59:58Z</time>
      </trkpt>
      <trkpt lat="46.61753" lon="1.23731">
        <ele>106.6</ele>
        <time>2023-05-02T15:00:03Z</time>
      </trkpt>
      <trkpt lat="46.61768" lon="1.23728">
        <ele>106.4</ele>
        <time>2023-05-02T15:00:07Z</time>
      </trkpt>
      <trkpt lat="46.61776" lon="1.23722">
        <ele>106.2</ele>
        <time>2023-05-02T15:00:09Z</time>
      </trkpt>
      <trkpt lat="46.61789" lon="1.23713">
        <ele>106</ele>
        <time>2023-05-02T15:00:11Z</time>
      </trkpt>
      <trkpt lat="46.61832" lon="1.23682">
        <ele>105.2</ele>
        <time>2023-05-02T15:00:16Z</time>
      </trkpt>
      <trkpt lat="46.61877" lon="1.23645">
        <ele>104</ele>
        <time>2023-05-02T15:00:22Z</time>
      </trkpt>
      <trkpt lat="46.61927" lon="1.23601">
        <ele>102.6</ele>
        <time>2023-05-02T15:00:29Z</time>
      </trkpt>
      <trkpt lat="46.61942" lon="1.2359">
        <ele>102.2</ele>
        <time>2023-05-02T15:00:31Z</time>
      </trkpt>
      <trkpt lat="46.61957" lon="1.23583">
        <ele>101.8</ele>
        <time>2023-05-02T15:00:33Z</time>
      </trkpt>
      <trkpt lat="46.61973" lon="1.23582">
        <ele>101.2</ele>
        <time>2023-05-02T15:00:35Z</time>
      </trkpt>
      <trkpt lat="46.61981" lon="1.23583">
        <ele>101.2</ele>
        <time>2023-05-02T15:00:36Z</time>
      </trkpt>
      <trkpt lat="46.6201" lon="1.23591">
        <ele>100.6</ele>
        <time>2023-05-02T15:00:40Z</time>
      </trkpt>
      <trkpt lat="46.62056" lon="1.23608">
        <ele>99.6</ele>
        <time>2023-05-02T15:00:47Z</time>
      </trkpt>
      <trkpt lat="46.62076" lon="1.23613">
        <ele>99</ele>
        <time>2023-05-02T15:00:50Z</time>
      </trkpt>
      <trkpt lat="46.62112" lon="1.23622">
        <ele>98</ele>
        <time>2023-05-02T15:00:55Z</time>
      </trkpt>
      <trkpt lat="46.62141" lon="1.23631">
        <ele>96.8</ele>
        <time>2023-05-02T15:01:00Z</time>
      </trkpt>
      <trkpt lat="46.62149" lon="1.23637">
        <ele>96.4</ele>
        <time>2023-05-02T15:01:02Z</time>
      </trkpt>
      <trkpt lat="46.62164" lon="1.2364">
        <ele>95.8</ele>
        <time>2023-05-02T15:01:04Z</time>
      </trkpt>
      <trkpt lat="46.62219" lon="1.23645">
        <ele>94.4</ele>
        <time>2023-05-02T15:01:10Z</time>
      </trkpt>
      <trkpt lat="46.62266" lon="1.23645">
        <ele>93.8</ele>
        <time>2023-05-02T15:01:16Z</time>
      </trkpt>
      <trkpt lat="46.62303" lon="1.23644">
        <ele>92.8</ele>
        <time>2023-05-02T15:01:21Z</time>
      </trkpt>
      <trkpt lat="46.62331" lon="1.23643">
        <ele>92.2</ele>
        <time>2023-05-02T15:01:25Z</time>
      </trkpt>
      <trkpt lat="46.62354" lon="1.23643">
        <ele>91.2</ele>
        <time>2023-05-02T15:01:29Z</time>
      </trkpt>
      <trkpt lat="46.62379" lon="1.23644">
        <ele>90.8</ele>
        <time>2023-05-02T15:01:33Z</time>
      </trkpt>
      <trkpt lat="46.62392" lon="1.23645">
        <ele>90.6</ele>
        <time>2023-05-02T15:01:35Z</time>
      </trkpt>
      <trkpt lat="46.62399" lon="1.23645">
        <ele>90.6</ele>
        <time>2023-05-02T15:01:36Z</time>
      </trkpt>
      <trkpt lat="46.62421" lon="1.2365">
        <ele>90.2</ele>
        <time>2023-05-02T15:01:39Z</time>
      </trkpt>
      <trkpt lat="46.62449" lon="1.23666">
        <ele>89.8</ele>
        <time>2023-05-02T15:01:43Z</time>
      </trkpt>
      <trkpt lat="46.62462" lon="1.23679">
        <ele>89.6</ele>
        <time>2023-05-02T15:01:45Z</time>
      </trkpt>
      <trkpt lat="46.62473" lon="1.23695">
        <ele>89.4</ele>
        <time>2023-05-02T15:01:47Z</time>
      </trkpt>
      <trkpt lat="46.62488" lon="1.2373">
        <ele>89.2</ele>
        <time>2023-05-02T15:01:51Z</time>
      </trkpt>
      <trkpt lat="46.62501" lon="1.23782">
        <ele>88.8</ele>
        <time>2023-05-02T15:01:57Z</time>
      </trkpt>
      <trkpt lat="46.62513" lon="1.23838">
        <ele>88.4</ele>
        <time>2023-05-02T15:02:04Z</time>
      </trkpt>
      <trkpt lat="46.62519" lon="1.23861">
        <ele>88.2</ele>
        <time>2023-05-02T15:02:08Z</time>
      </trkpt>
      <trkpt lat="46.62526" lon="1.23866">
        <ele>88</ele>
        <time>2023-05-02T15:02:12Z</time>
      </trkpt>
      <trkpt lat="46.62526" lon="1.23867">
        <ele>87.8</ele>
        <time>2023-05-02T15:02:14Z</time>
      </trkpt>
      <trkpt lat="46.62526" lon="1.23872">
        <ele>85</ele>
        <time>2023-05-02T15:04:33Z</time>
      </trkpt>
      <trkpt lat="46.62526" lon="1.23875">
        <ele>85</ele>
        <time>2023-05-02T15:04:34Z</time>
      </trkpt>
      <trkpt lat="46.62527" lon="1.23898">
        <ele>84.8</ele>
        <time>2023-05-02T15:04:39Z</time>
      </trkpt>
      <trkpt lat="46.62528" lon="1.23904">
        <ele>84.8</ele>
        <time>2023-05-02T15:04:40Z</time>
      </trkpt>
      <trkpt lat="46.62531" lon="1.23915">
        <ele>84.8</ele>
        <time>2023-05-02T15:04:42Z</time>
      </trkpt>
      <trkpt lat="46.62534" lon="1.23926">
        <ele>84.8</ele>
        <time>2023-05-02T15:04:44Z</time>
      </trkpt>
      <trkpt lat="46.62541" lon="1.23958">
        <ele>84.8</ele>
        <time>2023-05-02T15:04:50Z</time>
      </trkpt>
      <trkpt lat="46.62544" lon="1.23975">
        <ele>84.6</ele>
        <time>2023-05-02T15:04:53Z</time>
      </trkpt>
      <trkpt lat="46.62546" lon="1.23981">
        <ele>84.6</ele>
        <time>2023-05-02T15:04:54Z</time>
      </trkpt>
      <trkpt lat="46.6255" lon="1.24001">
        <ele>84.6</ele>
        <time>2023-05-02T15:04:57Z</time>
      </trkpt>
      <trkpt lat="46.62554" lon="1.24015">
        <ele>84.6</ele>
        <time>2023-05-02T15:04:59Z</time>
      </trkpt>
      <trkpt lat="46.62565" lon="1.24068">
        <ele>84.6</ele>
        <time>2023-05-02T15:05:06Z</time>
      </trkpt>
      <trkpt lat="46.62582" lon="1.24138">
        <ele>84.4</ele>
        <time>2023-05-02T15:05:15Z</time>
      </trkpt>
      <trkpt lat="46.62595" lon="1.24189">
        <ele>84.4</ele>
        <time>2023-05-02T15:05:22Z</time>
      </trkpt>
      <trkpt lat="46.62609" lon="1.24252">
        <ele>84.8</ele>
        <time>2023-05-02T15:05:31Z</time>
      </trkpt>
      <trkpt lat="46.62616" lon="1.2428">
        <ele>84.6</ele>
        <time>2023-05-02T15:05:35Z</time>
      </trkpt>
      <trkpt lat="46.62621" lon="1.24301">
        <ele>84.8</ele>
        <time>2023-05-02T15:05:38Z</time>
      </trkpt>
      <trkpt lat="46.62631" lon="1.24347">
        <ele>85</ele>
        <time>2023-05-02T15:05:45Z</time>
      </trkpt>
      <trkpt lat="46.62644" lon="1.24393">
        <ele>85</ele>
        <time>2023-05-02T15:05:53Z</time>
      </trkpt>
      <trkpt lat="46.62649" lon="1.24416">
        <ele>85</ele>
        <time>2023-05-02T15:05:57Z</time>
      </trkpt>
      <trkpt lat="46.62654" lon="1.24433">
        <ele>85</ele>
        <time>2023-05-02T15:06:00Z</time>
      </trkpt>
      <trkpt lat="46.62659" lon="1.24458">
        <ele>85</ele>
        <time>2023-05-02T15:06:05Z</time>
      </trkpt>
      <trkpt lat="46.62668" lon="1.24477">
        <ele>85</ele>
        <time>2023-05-02T15:06:10Z</time>
      </trkpt>
      <trkpt lat="46.62688" lon="1.24486">
        <ele>85.2</ele>
        <time>2023-05-02T15:06:16Z</time>
      </trkpt>
      <trkpt lat="46.62709" lon="1.24495">
        <ele>85.6</ele>
        <time>2023-05-02T15:06:22Z</time>
      </trkpt>
      <trkpt lat="46.6273" lon="1.24504">
        <ele>86</ele>
        <time>2023-05-02T15:06:27Z</time>
      </trkpt>
      <trkpt lat="46.62753" lon="1.24513">
        <ele>86.4</ele>
        <time>2023-05-02T15:06:33Z</time>
      </trkpt>
      <trkpt lat="46.62768" lon="1.24517">
        <ele>86.6</ele>
        <time>2023-05-02T15:06:37Z</time>
      </trkpt>
      <trkpt lat="46.62772" lon="1.24518">
        <ele>86.8</ele>
        <time>2023-05-02T15:06:38Z</time>
      </trkpt>
      <trkpt lat="46.62794" lon="1.24519">
        <ele>87.4</ele>
        <time>2023-05-02T15:06:44Z</time>
      </trkpt>
      <trkpt lat="46.62815" lon="1.24521">
        <ele>88.2</ele>
        <time>2023-05-02T15:06:50Z</time>
      </trkpt>
      <trkpt lat="46.62838" lon="1.24521">
        <ele>88.6</ele>
        <time>2023-05-02T15:06:56Z</time>
      </trkpt>
      <trkpt lat="46.62864" lon="1.24522">
        <ele>89.4</ele>
        <time>2023-05-02T15:07:02Z</time>
      </trkpt>
      <trkpt lat="46.62894" lon="1.24525">
        <ele>90</ele>
        <time>2023-05-02T15:07:09Z</time>
      </trkpt>
      <trkpt lat="46.62919" lon="1.24528">
        <ele>90.6</ele>
        <time>2023-05-02T15:07:15Z</time>
      </trkpt>
      <trkpt lat="46.62937" lon="1.24533">
        <ele>91</ele>
        <time>2023-05-02T15:07:20Z</time>
      </trkpt>
      <trkpt lat="46.62946" lon="1.24551">
        <ele>91.4</ele>
        <time>2023-05-02T15:07:24Z</time>
      </trkpt>
      <trkpt lat="46.6296" lon="1.24588">
        <ele>92</ele>
        <time>2023-05-02T15:07:32Z</time>
      </trkpt>
      <trkpt lat="46.62963" lon="1.24606">
        <ele>92.4</ele>
        <time>2023-05-02T15:07:37Z</time>
      </trkpt>
      <trkpt lat="46.62964" lon="1.24608">
        <ele>92.4</ele>
        <time>2023-05-02T15:07:39Z</time>
      </trkpt>
      <trkpt lat="46.62963" lon="1.24612">
        <ele>97.8</ele>
        <time>2023-05-02T15:16:25Z</time>
      </trkpt>
      <trkpt lat="46.62961" lon="1.24613">
        <ele>97.8</ele>
        <time>2023-05-02T15:16:26Z</time>
      </trkpt>
      <trkpt lat="46.6295" lon="1.24613">
        <ele>98</ele>
        <time>2023-05-02T15:16:30Z</time>
      </trkpt>
      <trkpt lat="46.62942" lon="1.24613">
        <ele>98</ele>
        <time>2023-05-02T15:16:32Z</time>
      </trkpt>
      <trkpt lat="46.6293" lon="1.24617">
        <ele>98</ele>
        <time>2023-05-02T15:16:35Z</time>
      </trkpt>
      <trkpt lat="46.62912" lon="1.24624">
        <ele>98</ele>
        <time>2023-05-02T15:16:40Z</time>
      </trkpt>
      <trkpt lat="46.62905" lon="1.24623">
        <ele>98</ele>
        <time>2023-05-02T15:16:43Z</time>
      </trkpt>
      <trkpt lat="46.62904" lon="1.24625">
        <ele>98</ele>
        <time>2023-05-02T15:16:44Z</time>
      </trkpt>
      <trkpt lat="46.62902" lon="1.24627">
        <ele>98</ele>
        <time>2023-05-02T15:16:46Z</time>
      </trkpt>
      <trkpt lat="46.629" lon="1.24626">
        <ele>98</ele>
        <time>2023-05-02T15:16:47Z</time>
      </trkpt>
      <trkpt lat="46.62896" lon="1.24625">
        <ele>98</ele>
        <time>2023-05-02T15:16:49Z</time>
      </trkpt>
      <trkpt lat="46.62894" lon="1.24627">
        <ele>98</ele>
        <time>2023-05-02T15:16:51Z</time>
      </trkpt>
      <trkpt lat="46.62892" lon="1.24633">
        <ele>97.8</ele>
        <time>2023-05-02T15:16:53Z</time>
      </trkpt>
      <trkpt lat="46.62893" lon="1.24636">
        <ele>97.6</ele>
        <time>2023-05-02T15:16:54Z</time>
      </trkpt>
      <trkpt lat="46.629" lon="1.24662">
        <ele>97.6</ele>
        <time>2023-05-02T15:16:59Z</time>
      </trkpt>
      <trkpt lat="46.62911" lon="1.24707">
        <ele>97.4</ele>
        <time>2023-05-02T15:17:06Z</time>
      </trkpt>
      <trkpt lat="46.62917" lon="1.24734">
        <ele>97.4</ele>
        <time>2023-05-02T15:17:10Z</time>
      </trkpt>
      <trkpt lat="46.62919" lon="1.24741">
        <ele>97.4</ele>
        <time>2023-05-02T15:17:11Z</time>
      </trkpt>
      <trkpt lat="46.6292" lon="1.24747">
        <ele>97.4</ele>
        <time>2023-05-02T15:17:12Z</time>
      </trkpt>
      <trkpt lat="46.62925" lon="1.24765">
        <ele>97.4</ele>
        <time>2023-05-02T15:17:15Z</time>
      </trkpt>
      <trkpt lat="46.62926" lon="1.24771">
        <ele>97.4</ele>
        <time>2023-05-02T15:17:16Z</time>
      </trkpt>
      <trkpt lat="46.62933" lon="1.24796">
        <ele>97.2</ele>
        <time>2023-05-02T15:17:20Z</time>
      </trkpt>
      <trkpt lat="46.6294" lon="1.24826">
        <ele>97.2</ele>
        <time>2023-05-02T15:17:24Z</time>
      </trkpt>
      <trkpt lat="46.62945" lon="1.2484">
        <ele>97.2</ele>
        <time>2023-05-02T15:17:26Z</time>
      </trkpt>
      <trkpt lat="46.62955" lon="1.2488">
        <ele>97.2</ele>
        <time>2023-05-02T15:17:31Z</time>
      </trkpt>
      <trkpt lat="46.62957" lon="1.24887">
        <ele>97</ele>
        <time>2023-05-02T15:17:32Z</time>
      </trkpt>
      <trkpt lat="46.6297" lon="1.24944">
        <ele>96.8</ele>
        <time>2023-05-02T15:17:39Z</time>
      </trkpt>
      <trkpt lat="46.62974" lon="1.24959">
        <ele>97</ele>
        <time>2023-05-02T15:17:41Z</time>
      </trkpt>
      <trkpt lat="46.6298" lon="1.24981">
        <ele>97</ele>
        <time>2023-05-02T15:17:44Z</time>
      </trkpt>
      <trkpt lat="46.6299" lon="1.2502">
        <ele>96.8</ele>
        <time>2023-05-02T15:17:49Z</time>
      </trkpt>
      <trkpt lat="46.62991" lon="1.25027">
        <ele>97</ele>
        <time>2023-05-02T15:17:50Z</time>
      </trkpt>
      <trkpt lat="46.62996" lon="1.25047">
        <ele>97</ele>
        <time>2023-05-02T15:17:53Z</time>
      </trkpt>
      <trkpt lat="46.62998" lon="1.25058">
        <ele>97</ele>
        <time>2023-05-02T15:17:55Z</time>
      </trkpt>
      <trkpt lat="46.63004" lon="1.25082">
        <ele>97</ele>
        <time>2023-05-02T15:18:00Z</time>
      </trkpt>
      <trkpt lat="46.63008" lon="1.25098">
        <ele>97.2</ele>
        <time>2023-05-02T15:18:03Z</time>
      </trkpt>
      <trkpt lat="46.6301" lon="1.25103">
        <ele>97.2</ele>
        <time>2023-05-02T15:18:04Z</time>
      </trkpt>
      <trkpt lat="46.63022" lon="1.25152">
        <ele>97.2</ele>
        <time>2023-05-02T15:18:11Z</time>
      </trkpt>
      <trkpt lat="46.63034" lon="1.25205">
        <ele>97.2</ele>
        <time>2023-05-02T15:18:18Z</time>
      </trkpt>
      <trkpt lat="46.63043" lon="1.25243">
        <ele>97.4</ele>
        <time>2023-05-02T15:18:23Z</time>
      </trkpt>
      <trkpt lat="46.63045" lon="1.25251">
        <ele>97.4</ele>
        <time>2023-05-02T15:18:24Z</time>
      </trkpt>
      <trkpt lat="46.63051" lon="1.25273">
        <ele>97.4</ele>
        <time>2023-05-02T15:18:27Z</time>
      </trkpt>
      <trkpt lat="46.63053" lon="1.2528">
        <ele>97.4</ele>
        <time>2023-05-02T15:18:28Z</time>
      </trkpt>
      <trkpt lat="46.63064" lon="1.25327">
        <ele>97.2</ele>
        <time>2023-05-02T15:18:34Z</time>
      </trkpt>
      <trkpt lat="46.63066" lon="1.25334">
        <ele>97</ele>
        <time>2023-05-02T15:18:35Z</time>
      </trkpt>
      <trkpt lat="46.63077" lon="1.2538">
        <ele>97</ele>
        <time>2023-05-02T15:18:41Z</time>
      </trkpt>
      <trkpt lat="46.63082" lon="1.25402">
        <ele>97</ele>
        <time>2023-05-02T15:18:44Z</time>
      </trkpt>
      <trkpt lat="46.63087" lon="1.25424">
        <ele>97</ele>
        <time>2023-05-02T15:18:47Z</time>
      </trkpt>
      <trkpt lat="46.63095" lon="1.25454">
        <ele>97</ele>
        <time>2023-05-02T15:18:52Z</time>
      </trkpt>
      <trkpt lat="46.63098" lon="1.25458">
        <ele>97</ele>
        <time>2023-05-02T15:18:53Z</time>
      </trkpt>
      <trkpt lat="46.63099" lon="1.25462">
        <ele>97</ele>
        <time>2023-05-02T15:18:54Z</time>
      </trkpt>
      <trkpt lat="46.63098" lon="1.25469">
        <ele>97</ele>
        <time>2023-05-02T15:18:56Z</time>
      </trkpt>
      <trkpt lat="46.63098" lon="1.25476">
        <ele>97.2</ele>
        <time>2023-05-02T15:18:59Z</time>
      </trkpt>
      <trkpt lat="46.631" lon="1.25477">
        <ele>97.2</ele>
        <time>2023-05-02T15:19:00Z</time>
      </trkpt>
      <trkpt lat="46.63109" lon="1.25469">
        <ele>97.2</ele>
        <time>2023-05-02T15:19:04Z</time>
      </trkpt>
      <trkpt lat="46.63119" lon="1.25462">
        <ele>97.4</ele>
        <time>2023-05-02T15:19:07Z</time>
      </trkpt>
      <trkpt lat="46.63128" lon="1.25457">
        <ele>97.2</ele>
        <time>2023-05-02T15:19:09Z</time>
      </trkpt>
      <trkpt lat="46.6314" lon="1.2545">
        <ele>97.2</ele>
        <time>2023-05-02T15:19:12Z</time>
      </trkpt>
      <trkpt lat="46.63152" lon="1.25442">
        <ele>97.2</ele>
        <time>2023-05-02T15:19:15Z</time>
      </trkpt>
      <trkpt lat="46.63175" lon="1.25429">
        <ele>97.2</ele>
        <time>2023-05-02T15:19:21Z</time>
      </trkpt>
      <trkpt lat="46.63184" lon="1.25422">
        <ele>97.2</ele>
        <time>2023-05-02T15:19:26Z</time>
      </trkpt>
      <trkpt lat="46.632" lon="1.25411">
        <ele>97.2</ele>
        <time>2023-05-02T15:19:31Z</time>
      </trkpt>
      <trkpt lat="46.63221" lon="1.25397">
        <ele>97.4</ele>
        <time>2023-05-02T15:19:37Z</time>
      </trkpt>
      <trkpt lat="46.63236" lon="1.25388">
        <ele>97.2</ele>
        <time>2023-05-02T15:19:41Z</time>
      </trkpt>
      <trkpt lat="46.63256" lon="1.25375">
        <ele>96.8</ele>
        <time>2023-05-02T15:19:46Z</time>
      </trkpt>
      <trkpt lat="46.63281" lon="1.25354">
        <ele>96.4</ele>
        <time>2023-05-02T15:19:53Z</time>
      </trkpt>
      <trkpt lat="46.633" lon="1.25329">
        <ele>96.2</ele>
        <time>2023-05-02T15:19:59Z</time>
      </trkpt>
      <trkpt lat="46.63325" lon="1.25303">
        <ele>95.8</ele>
        <time>2023-05-02T15:20:06Z</time>
      </trkpt>
      <trkpt lat="46.63346" lon="1.25285">
        <ele>95.6</ele>
        <time>2023-05-02T15:20:11Z</time>
      </trkpt>
      <trkpt lat="46.63369" lon="1.25271">
        <ele>95.2</ele>
        <time>2023-05-02T15:20:16Z</time>
      </trkpt>
      <trkpt lat="46.63399" lon="1.25256">
        <ele>94.6</ele>
        <time>2023-05-02T15:20:22Z</time>
      </trkpt>
      <trkpt lat="46.63421" lon="1.25249">
        <ele>94</ele>
        <time>2023-05-02T15:20:27Z</time>
      </trkpt>
      <trkpt lat="46.63436" lon="1.25244">
        <ele>93.8</ele>
        <time>2023-05-02T15:20:31Z</time>
      </trkpt>
      <trkpt lat="46.63464" lon="1.25235">
        <ele>93</ele>
        <time>2023-05-02T15:20:38Z</time>
      </trkpt>
      <trkpt lat="46.63482" lon="1.2523">
        <ele>92.2</ele>
        <time>2023-05-02T15:20:43Z</time>
      </trkpt>
      <trkpt lat="46.63486" lon="1.25231">
        <ele>92</ele>
        <time>2023-05-02T15:20:44Z</time>
      </trkpt>
      <trkpt lat="46.6349" lon="1.25236">
        <ele>91.8</ele>
        <time>2023-05-02T15:20:46Z</time>
      </trkpt>
      <trkpt lat="46.63492" lon="1.25239">
        <ele>91.6</ele>
        <time>2023-05-02T15:20:47Z</time>
      </trkpt>
      <trkpt lat="46.63496" lon="1.25253">
        <ele>91.2</ele>
        <time>2023-05-02T15:20:50Z</time>
      </trkpt>
      <trkpt lat="46.63497" lon="1.25257">
        <ele>91</ele>
        <time>2023-05-02T15:20:51Z</time>
      </trkpt>
      <trkpt lat="46.63499" lon="1.25267">
        <ele>90.8</ele>
        <time>2023-05-02T15:20:54Z</time>
      </trkpt>
      <trkpt lat="46.635" lon="1.25274">
        <ele>90.8</ele>
        <time>2023-05-02T15:20:56Z</time>
      </trkpt>
      <trkpt lat="46.635" lon="1.25285">
        <ele>90.8</ele>
        <time>2023-05-02T15:20:59Z</time>
      </trkpt>
      <trkpt lat="46.635" lon="1.25293">
        <ele>90.8</ele>
        <time>2023-05-02T15:21:03Z</time>
      </trkpt>
      <trkpt lat="46.63502" lon="1.2529">
        <ele>90.2</ele>
        <time>2023-05-02T15:21:28Z</time>
      </trkpt>
      <trkpt lat="46.63504" lon="1.25283">
        <ele>90.8</ele>
        <time>2023-05-02T15:21:30Z</time>
      </trkpt>
      <trkpt lat="46.63505" lon="1.25266">
        <ele>90.4</ele>
        <time>2023-05-02T15:21:34Z</time>
      </trkpt>
      <trkpt lat="46.63505" lon="1.25243">
        <ele>90</ele>
        <time>2023-05-02T15:21:39Z</time>
      </trkpt>
      <trkpt lat="46.63502" lon="1.25235">
        <ele>90</ele>
        <time>2023-05-02T15:21:42Z</time>
      </trkpt>
      <trkpt lat="46.635" lon="1.25231">
        <ele>89.8</ele>
        <time>2023-05-02T15:21:44Z</time>
      </trkpt>
      <trkpt lat="46.63494" lon="1.25228">
        <ele>90</ele>
        <time>2023-05-02T15:21:46Z</time>
      </trkpt>
      <trkpt lat="46.63494" lon="1.25228">
        <ele>90</ele>
        <time>2023-05-02T15:21:47Z</time>
      </trkpt>
      <trkpt lat="46.63491" lon="1.25228">
        <ele>90.8</ele>
        <time>2023-05-02T15:24:15Z</time>
      </trkpt>
      <trkpt lat="46.63486" lon="1.25229">
        <ele>91</ele>
        <time>2023-05-02T15:24:17Z</time>
      </trkpt>
      <trkpt lat="46.63464" lon="1.25234">
        <ele>91.6</ele>
        <time>2023-05-02T15:24:23Z</time>
      </trkpt>
      <trkpt lat="46.63436" lon="1.25242">
        <ele>92</ele>
        <time>2023-05-02T15:24:31Z</time>
      </trkpt>
      <trkpt lat="46.63417" lon="1.25247">
        <ele>92</ele>
        <time>2023-05-02T15:24:36Z</time>
      </trkpt>
      <trkpt lat="46.63382" lon="1.25261">
        <ele>92.6</ele>
        <time>2023-05-02T15:24:45Z</time>
      </trkpt>
      <trkpt lat="46.6336" lon="1.25274">
        <ele>93.2</ele>
        <time>2023-05-02T15:24:51Z</time>
      </trkpt>
      <trkpt lat="46.63331" lon="1.25294">
        <ele>94</ele>
        <time>2023-05-02T15:24:59Z</time>
      </trkpt>
      <trkpt lat="46.6331" lon="1.25316">
        <ele>94.2</ele>
        <time>2023-05-02T15:25:05Z</time>
      </trkpt>
      <trkpt lat="46.63288" lon="1.25344">
        <ele>94.4</ele>
        <time>2023-05-02T15:25:12Z</time>
      </trkpt>
      <trkpt lat="46.63271" lon="1.25363">
        <ele>94.8</ele>
        <time>2023-05-02T15:25:18Z</time>
      </trkpt>
      <trkpt lat="46.6325" lon="1.25375">
        <ele>95</ele>
        <time>2023-05-02T15:25:23Z</time>
      </trkpt>
      <trkpt lat="46.63247" lon="1.25378">
        <ele>95.2</ele>
        <time>2023-05-02T15:25:24Z</time>
      </trkpt>
      <trkpt lat="46.63242" lon="1.2538">
        <ele>95.2</ele>
        <time>2023-05-02T15:25:25Z</time>
      </trkpt>
      <trkpt lat="46.63228" lon="1.25389">
        <ele>95.2</ele>
        <time>2023-05-02T15:25:28Z</time>
      </trkpt>
      <trkpt lat="46.63209" lon="1.25401">
        <ele>94.8</ele>
        <time>2023-05-02T15:25:32Z</time>
      </trkpt>
      <trkpt lat="46.63189" lon="1.25414">
        <ele>94.2</ele>
        <time>2023-05-02T15:25:37Z</time>
      </trkpt>
      <trkpt lat="46.63187" lon="1.25415">
        <ele>94.6</ele>
        <time>2023-05-02T15:25:38Z</time>
      </trkpt>
      <trkpt lat="46.63184" lon="1.25412">
        <ele>95</ele>
        <time>2023-05-02T15:25:40Z</time>
      </trkpt>
      <trkpt lat="46.63178" lon="1.25388">
        <ele>95.2</ele>
        <time>2023-05-02T15:25:44Z</time>
      </trkpt>
      <trkpt lat="46.63163" lon="1.25335">
        <ele>96</ele>
        <time>2023-05-02T15:25:52Z</time>
      </trkpt>
      <trkpt lat="46.63148" lon="1.25282">
        <ele>96.2</ele>
        <time>2023-05-02T15:25:59Z</time>
      </trkpt>
      <trkpt lat="46.63133" lon="1.25232">
        <ele>96.6</ele>
        <time>2023-05-02T15:26:05Z</time>
      </trkpt>
      <trkpt lat="46.63117" lon="1.25173">
        <ele>97</ele>
        <time>2023-05-02T15:26:12Z</time>
      </trkpt>
      <trkpt lat="46.63099" lon="1.25111">
        <ele>97.4</ele>
        <time>2023-05-02T15:26:20Z</time>
      </trkpt>
      <trkpt lat="46.63084" lon="1.2506">
        <ele>97.8</ele>
        <time>2023-05-02T15:26:27Z</time>
      </trkpt>
      <trkpt lat="46.63083" lon="1.25047">
        <ele>97.8</ele>
        <time>2023-05-02T15:26:29Z</time>
      </trkpt>
      <trkpt lat="46.63087" lon="1.25043">
        <ele>97.8</ele>
        <time>2023-05-02T15:26:30Z</time>
      </trkpt>
      <trkpt lat="46.6311" lon="1.25037">
        <ele>97.6</ele>
        <time>2023-05-02T15:26:35Z</time>
      </trkpt>
      <trkpt lat="46.63151" lon="1.25024">
        <ele>97.8</ele>
        <time>2023-05-02T15:26:43Z</time>
      </trkpt>
      <trkpt lat="46.63181" lon="1.2501">
        <ele>97.4</ele>
        <time>2023-05-02T15:26:49Z</time>
      </trkpt>
      <trkpt lat="46.6322" lon="1.24991">
        <ele>97.4</ele>
        <time>2023-05-02T15:26:56Z</time>
      </trkpt>
      <trkpt lat="46.63259" lon="1.24973">
        <ele>97.2</ele>
        <time>2023-05-02T15:27:03Z</time>
      </trkpt>
      <trkpt lat="46.6327" lon="1.24968">
        <ele>97.2</ele>
        <time>2023-05-02T15:27:05Z</time>
      </trkpt>
      <trkpt lat="46.63284" lon="1.24964">
        <ele>97</ele>
        <time>2023-05-02T15:27:07Z</time>
      </trkpt>
      <trkpt lat="46.633" lon="1.24962">
        <ele>96.8</ele>
        <time>2023-05-02T15:27:09Z</time>
      </trkpt>
      <trkpt lat="46.63316" lon="1.24963">
        <ele>96.6</ele>
        <time>2023-05-02T15:27:11Z</time>
      </trkpt>
      <trkpt lat="46.63348" lon="1.24968">
        <ele>96.4</ele>
        <time>2023-05-02T15:27:16Z</time>
      </trkpt>
      <trkpt lat="46.63366" lon="1.24971">
        <ele>96.4</ele>
        <time>2023-05-02T15:27:19Z</time>
      </trkpt>
      <trkpt lat="46.63376" lon="1.24969">
        <ele>96.2</ele>
        <time>2023-05-02T15:27:21Z</time>
      </trkpt>
      <trkpt lat="46.63396" lon="1.24963">
        <ele>96.2</ele>
        <time>2023-05-02T15:27:26Z</time>
      </trkpt>
      <trkpt lat="46.63413" lon="1.2496">
        <ele>96.2</ele>
        <time>2023-05-02T15:27:31Z</time>
      </trkpt>
      <trkpt lat="46.63441" lon="1.24953">
        <ele>96.6</ele>
        <time>2023-05-02T15:27:38Z</time>
      </trkpt>
      <trkpt lat="46.63467" lon="1.24948">
        <ele>97.4</ele>
        <time>2023-05-02T15:27:45Z</time>
      </trkpt>
      <trkpt lat="46.63491" lon="1.24944">
        <ele>98</ele>
        <time>2023-05-02T15:27:52Z</time>
      </trkpt>
      <trkpt lat="46.63514" lon="1.24939">
        <ele>98.4</ele>
        <time>2023-05-02T15:27:59Z</time>
      </trkpt>
      <trkpt lat="46.63545" lon="1.24932">
        <ele>99</ele>
        <time>2023-05-02T15:28:07Z</time>
      </trkpt>
      <trkpt lat="46.63574" lon="1.24926">
        <ele>99.6</ele>
        <time>2023-05-02T15:28:14Z</time>
      </trkpt>
      <trkpt lat="46.63611" lon="1.24925">
        <ele>100.2</ele>
        <time>2023-05-02T15:28:22Z</time>
      </trkpt>
      <trkpt lat="46.63648" lon="1.2493">
        <ele>100.8</ele>
        <time>2023-05-02T15:28:30Z</time>
      </trkpt>
      <trkpt lat="46.63652" lon="1.24931">
        <ele>100.8</ele>
        <time>2023-05-02T15:28:31Z</time>
      </trkpt>
      <trkpt lat="46.63673" lon="1.24931">
        <ele>101</ele>
        <time>2023-05-02T15:28:36Z</time>
      </trkpt>
      <trkpt lat="46.63693" lon="1.24925">
        <ele>101.2</ele>
        <time>2023-05-02T15:28:41Z</time>
      </trkpt>
      <trkpt lat="46.63724" lon="1.24915">
        <ele>101.6</ele>
        <time>2023-05-02T15:28:48Z</time>
      </trkpt>
      <trkpt lat="46.63749" lon="1.24909">
        <ele>101.8</ele>
        <time>2023-05-02T15:28:54Z</time>
      </trkpt>
      <trkpt lat="46.63772" lon="1.24903">
        <ele>101.8</ele>
        <time>2023-05-02T15:28:59Z</time>
      </trkpt>
      <trkpt lat="46.63804" lon="1.24895">
        <ele>102</ele>
        <time>2023-05-02T15:29:06Z</time>
      </trkpt>
      <trkpt lat="46.63813" lon="1.24893">
        <ele>102</ele>
        <time>2023-05-02T15:29:08Z</time>
      </trkpt>
      <trkpt lat="46.63826" lon="1.24889">
        <ele>102.2</ele>
        <time>2023-05-02T15:29:11Z</time>
      </trkpt>
      <trkpt lat="46.63846" lon="1.24883">
        <ele>102.2</ele>
        <time>2023-05-02T15:29:15Z</time>
      </trkpt>
      <trkpt lat="46.6386" lon="1.24881">
        <ele>102.2</ele>
        <time>2023-05-02T15:29:18Z</time>
      </trkpt>
      <trkpt lat="46.63869" lon="1.24881">
        <ele>102.4</ele>
        <time>2023-05-02T15:29:20Z</time>
      </trkpt>
      <trkpt lat="46.63901" lon="1.24883">
        <ele>102.4</ele>
        <time>2023-05-02T15:29:26Z</time>
      </trkpt>
      <trkpt lat="46.63911" lon="1.24884">
        <ele>102.6</ele>
        <time>2023-05-02T15:29:28Z</time>
      </trkpt>
      <trkpt lat="46.63926" lon="1.24881">
        <ele>102.6</ele>
        <time>2023-05-02T15:29:31Z</time>
      </trkpt>
      <trkpt lat="46.63959" lon="1.2488">
        <ele>102.6</ele>
        <time>2023-05-02T15:29:37Z</time>
      </trkpt>
      <trkpt lat="46.63998" lon="1.24882">
        <ele>102.6</ele>
        <time>2023-05-02T15:29:44Z</time>
      </trkpt>
      <trkpt lat="46.64003" lon="1.24882">
        <ele>102.6</ele>
        <time>2023-05-02T15:29:45Z</time>
      </trkpt>
      <trkpt lat="46.64024" lon="1.24886">
        <ele>102.6</ele>
        <time>2023-05-02T15:29:49Z</time>
      </trkpt>
      <trkpt lat="46.64058" lon="1.24896">
        <ele>102.4</ele>
        <time>2023-05-02T15:29:56Z</time>
      </trkpt>
      <trkpt lat="46.64063" lon="1.24898">
        <ele>102.4</ele>
        <time>2023-05-02T15:29:57Z</time>
      </trkpt>
      <trkpt lat="46.64084" lon="1.24909">
        <ele>102.2</ele>
        <time>2023-05-02T15:30:01Z</time>
      </trkpt>
      <trkpt lat="46.64088" lon="1.24912">
        <ele>102.2</ele>
        <time>2023-05-02T15:30:02Z</time>
      </trkpt>
      <trkpt lat="46.64099" lon="1.24924">
        <ele>102</ele>
        <time>2023-05-02T15:30:05Z</time>
      </trkpt>
      <trkpt lat="46.64116" lon="1.24941">
        <ele>101.8</ele>
        <time>2023-05-02T15:30:09Z</time>
      </trkpt>
      <trkpt lat="46.64129" lon="1.24954">
        <ele>101.8</ele>
        <time>2023-05-02T15:30:12Z</time>
      </trkpt>
      <trkpt lat="46.64141" lon="1.24966">
        <ele>101.4</ele>
        <time>2023-05-02T15:30:15Z</time>
      </trkpt>
      <trkpt lat="46.64163" lon="1.24983">
        <ele>101</ele>
        <time>2023-05-02T15:30:20Z</time>
      </trkpt>
      <trkpt lat="46.64168" lon="1.24986">
        <ele>100.8</ele>
        <time>2023-05-02T15:30:21Z</time>
      </trkpt>
      <trkpt lat="46.64178" lon="1.24998">
        <ele>100.4</ele>
        <time>2023-05-02T15:30:24Z</time>
      </trkpt>
      <trkpt lat="46.64183" lon="1.25009">
        <ele>100.4</ele>
        <time>2023-05-02T15:30:26Z</time>
      </trkpt>
      <trkpt lat="46.64187" lon="1.25022">
        <ele>100.4</ele>
        <time>2023-05-02T15:30:28Z</time>
      </trkpt>
      <trkpt lat="46.64192" lon="1.2504">
        <ele>100.4</ele>
        <time>2023-05-02T15:30:31Z</time>
      </trkpt>
      <trkpt lat="46.64196" lon="1.25054">
        <ele>100.4</ele>
        <time>2023-05-02T15:30:33Z</time>
      </trkpt>
      <trkpt lat="46.64201" lon="1.25074">
        <ele>100.6</ele>
        <time>2023-05-02T15:30:36Z</time>
      </trkpt>
      <trkpt lat="46.64205" lon="1.25087">
        <ele>100.6</ele>
        <time>2023-05-02T15:30:38Z</time>
      </trkpt>
      <trkpt lat="46.64207" lon="1.25093">
        <ele>100.6</ele>
        <time>2023-05-02T15:30:39Z</time>
      </trkpt>
      <trkpt lat="46.6421" lon="1.25099">
        <ele>100.6</ele>
        <time>2023-05-02T15:30:40Z</time>
      </trkpt>
      <trkpt lat="46.64217" lon="1.25107">
        <ele>100.6</ele>
        <time>2023-05-02T15:30:42Z</time>
      </trkpt>
      <trkpt lat="46.64222" lon="1.2511">
        <ele>100.6</ele>
        <time>2023-05-02T15:30:43Z</time>
      </trkpt>
      <trkpt lat="46.6424" lon="1.25121">
        <ele>100.8</ele>
        <time>2023-05-02T15:30:47Z</time>
      </trkpt>
      <trkpt lat="46.64249" lon="1.25125">
        <ele>101.2</ele>
        <time>2023-05-02T15:30:49Z</time>
      </trkpt>
      <trkpt lat="46.64274" lon="1.2514">
        <ele>101</ele>
        <time>2023-05-02T15:30:54Z</time>
      </trkpt>
      <trkpt lat="46.64286" lon="1.25155">
        <ele>101</ele>
        <time>2023-05-02T15:30:57Z</time>
      </trkpt>
      <trkpt lat="46.64289" lon="1.2516">
        <ele>101</ele>
        <time>2023-05-02T15:30:58Z</time>
      </trkpt>
      <trkpt lat="46.64315" lon="1.25195">
        <ele>101</ele>
        <time>2023-05-02T15:31:05Z</time>
      </trkpt>
      <trkpt lat="46.64341" lon="1.25235">
        <ele>101.2</ele>
        <time>2023-05-02T15:31:12Z</time>
      </trkpt>
      <trkpt lat="46.64351" lon="1.25253">
        <ele>101.2</ele>
        <time>2023-05-02T15:31:15Z</time>
      </trkpt>
      <trkpt lat="46.64357" lon="1.25264">
        <ele>101.2</ele>
        <time>2023-05-02T15:31:17Z</time>
      </trkpt>
      <trkpt lat="46.64368" lon="1.25286">
        <ele>101.2</ele>
        <time>2023-05-02T15:31:21Z</time>
      </trkpt>
      <trkpt lat="46.64367" lon="1.25301">
        <ele>101.2</ele>
        <time>2023-05-02T15:31:24Z</time>
      </trkpt>
      <trkpt lat="46.64364" lon="1.25321">
        <ele>101.2</ele>
        <time>2023-05-02T15:31:28Z</time>
      </trkpt>
      <trkpt lat="46.64365" lon="1.25326">
        <ele>101.2</ele>
        <time>2023-05-02T15:31:29Z</time>
      </trkpt>
      <trkpt lat="46.64366" lon="1.25329">
        <ele>101.2</ele>
        <time>2023-05-02T15:31:30Z</time>
      </trkpt>
      <trkpt lat="46.64373" lon="1.25337">
        <ele>101</ele>
        <time>2023-05-02T15:31:33Z</time>
      </trkpt>
      <trkpt lat="46.64387" lon="1.25348">
        <ele>101</ele>
        <time>2023-05-02T15:31:38Z</time>
      </trkpt>
      <trkpt lat="46.64401" lon="1.25357">
        <ele>100.8</ele>
        <time>2023-05-02T15:31:42Z</time>
      </trkpt>
      <trkpt lat="46.64409" lon="1.25359">
        <ele>100.8</ele>
        <time>2023-05-02T15:31:44Z</time>
      </trkpt>
      <trkpt lat="46.64413" lon="1.2536">
        <ele>100.6</ele>
        <time>2023-05-02T15:31:45Z</time>
      </trkpt>
      <trkpt lat="46.64421" lon="1.25359">
        <ele>100.4</ele>
        <time>2023-05-02T15:31:47Z</time>
      </trkpt>
      <trkpt lat="46.64425" lon="1.25357">
        <ele>100.4</ele>
        <time>2023-05-02T15:31:48Z</time>
      </trkpt>
      <trkpt lat="46.64435" lon="1.25341">
        <ele>100</ele>
        <time>2023-05-02T15:31:52Z</time>
      </trkpt>
      <trkpt lat="46.6444" lon="1.25331">
        <ele>100</ele>
        <time>2023-05-02T15:31:54Z</time>
      </trkpt>
      <trkpt lat="46.6445" lon="1.2531">
        <ele>99.8</ele>
        <time>2023-05-02T15:31:58Z</time>
      </trkpt>
      <trkpt lat="46.64452" lon="1.25305">
        <ele>99.8</ele>
        <time>2023-05-02T15:31:59Z</time>
      </trkpt>
      <trkpt lat="46.64462" lon="1.25287">
        <ele>99.8</ele>
        <time>2023-05-02T15:32:03Z</time>
      </trkpt>
      <trkpt lat="46.64465" lon="1.25283">
        <ele>99.8</ele>
        <time>2023-05-02T15:32:04Z</time>
      </trkpt>
      <trkpt lat="46.64471" lon="1.25274">
        <ele>99.6</ele>
        <time>2023-05-02T15:32:06Z</time>
      </trkpt>
      <trkpt lat="46.64476" lon="1.25263">
        <ele>99.4</ele>
        <time>2023-05-02T15:32:08Z</time>
      </trkpt>
      <trkpt lat="46.64486" lon="1.2525">
        <ele>99</ele>
        <time>2023-05-02T15:32:11Z</time>
      </trkpt>
      <trkpt lat="46.64502" lon="1.25233">
        <ele>98.8</ele>
        <time>2023-05-02T15:32:15Z</time>
      </trkpt>
      <trkpt lat="46.6451" lon="1.25226">
        <ele>98.6</ele>
        <time>2023-05-02T15:32:17Z</time>
      </trkpt>
      <trkpt lat="46.64534" lon="1.25212">
        <ele>98.6</ele>
        <time>2023-05-02T15:32:23Z</time>
      </trkpt>
      <trkpt lat="46.64555" lon="1.25201">
        <ele>98.4</ele>
        <time>2023-05-02T15:32:28Z</time>
      </trkpt>
      <trkpt lat="46.64586" lon="1.25182">
        <ele>98.2</ele>
        <time>2023-05-02T15:32:35Z</time>
      </trkpt>
      <trkpt lat="46.64616" lon="1.25163">
        <ele>98.4</ele>
        <time>2023-05-02T15:32:42Z</time>
      </trkpt>
      <trkpt lat="46.64649" lon="1.25139">
        <ele>98.8</ele>
        <time>2023-05-02T15:32:50Z</time>
      </trkpt>
      <trkpt lat="46.64668" lon="1.2512">
        <ele>98.8</ele>
        <time>2023-05-02T15:32:56Z</time>
      </trkpt>
      <trkpt lat="46.64687" lon="1.25095">
        <ele>99.2</ele>
        <time>2023-05-02T15:33:02Z</time>
      </trkpt>
      <trkpt lat="46.64705" lon="1.25072">
        <ele>99.4</ele>
        <time>2023-05-02T15:33:08Z</time>
      </trkpt>
      <trkpt lat="46.64723" lon="1.25051">
        <ele>99.8</ele>
        <time>2023-05-02T15:33:13Z</time>
      </trkpt>
      <trkpt lat="46.64727" lon="1.25048">
        <ele>99.8</ele>
        <time>2023-05-02T15:33:14Z</time>
      </trkpt>
      <trkpt lat="46.64732" lon="1.25047">
        <ele>99.8</ele>
        <time>2023-05-02T15:33:15Z</time>
      </trkpt>
      <trkpt lat="46.64752" lon="1.25043">
        <ele>100</ele>
        <time>2023-05-02T15:33:19Z</time>
      </trkpt>
      <trkpt lat="46.6479" lon="1.25038">
        <ele>100.4</ele>
        <time>2023-05-02T15:33:26Z</time>
      </trkpt>
      <trkpt lat="46.64833" lon="1.25031">
        <ele>100.8</ele>
        <time>2023-05-02T15:33:34Z</time>
      </trkpt>
      <trkpt lat="46.64861" lon="1.25026">
        <ele>100.8</ele>
        <time>2023-05-02T15:33:40Z</time>
      </trkpt>
      <trkpt lat="46.64892" lon="1.25022">
        <ele>100.8</ele>
        <time>2023-05-02T15:33:46Z</time>
      </trkpt>
      <trkpt lat="46.64901" lon="1.25017">
        <ele>100.8</ele>
        <time>2023-05-02T15:33:48Z</time>
      </trkpt>
      <trkpt lat="46.64905" lon="1.25013">
        <ele>100.8</ele>
        <time>2023-05-02T15:33:49Z</time>
      </trkpt>
      <trkpt lat="46.64909" lon="1.25008">
        <ele>100.8</ele>
        <time>2023-05-02T15:33:50Z</time>
      </trkpt>
      <trkpt lat="46.64922" lon="1.24986">
        <ele>100.8</ele>
        <time>2023-05-02T15:33:54Z</time>
      </trkpt>
      <trkpt lat="46.64939" lon="1.24957">
        <ele>100.6</ele>
        <time>2023-05-02T15:33:59Z</time>
      </trkpt>
      <trkpt lat="46.64951" lon="1.24933">
        <ele>100.6</ele>
        <time>2023-05-02T15:34:03Z</time>
      </trkpt>
      <trkpt lat="46.64957" lon="1.24922">
        <ele>100.8</ele>
        <time>2023-05-02T15:34:05Z</time>
      </trkpt>
      <trkpt lat="46.64966" lon="1.24906">
        <ele>100.8</ele>
        <time>2023-05-02T15:34:08Z</time>
      </trkpt>
      <trkpt lat="46.64976" lon="1.24889">
        <ele>100.8</ele>
        <time>2023-05-02T15:34:11Z</time>
      </trkpt>
      <trkpt lat="46.64982" lon="1.24877">
        <ele>100.8</ele>
        <time>2023-05-02T15:34:13Z</time>
      </trkpt>
      <trkpt lat="46.64994" lon="1.24855">
        <ele>101</ele>
        <time>2023-05-02T15:34:17Z</time>
      </trkpt>
      <trkpt lat="46.6501" lon="1.24826">
        <ele>101.2</ele>
        <time>2023-05-02T15:34:22Z</time>
      </trkpt>
      <trkpt lat="46.65012" lon="1.2482">
        <ele>101.2</ele>
        <time>2023-05-02T15:34:23Z</time>
      </trkpt>
      <trkpt lat="46.65015" lon="1.24815">
        <ele>101.4</ele>
        <time>2023-05-02T15:34:24Z</time>
      </trkpt>
      <trkpt lat="46.65031" lon="1.24787">
        <ele>101.4</ele>
        <time>2023-05-02T15:34:29Z</time>
      </trkpt>
      <trkpt lat="46.65058" lon="1.24739">
        <ele>101.8</ele>
        <time>2023-05-02T15:34:37Z</time>
      </trkpt>
      <trkpt lat="46.65082" lon="1.24696">
        <ele>102</ele>
        <time>2023-05-02T15:34:44Z</time>
      </trkpt>
      <trkpt lat="46.65109" lon="1.2465">
        <ele>102.6</ele>
        <time>2023-05-02T15:34:52Z</time>
      </trkpt>
      <trkpt lat="46.65112" lon="1.24645">
        <ele>102.6</ele>
        <time>2023-05-02T15:34:53Z</time>
      </trkpt>
      <trkpt lat="46.65127" lon="1.2462">
        <ele>102.6</ele>
        <time>2023-05-02T15:34:58Z</time>
      </trkpt>
      <trkpt lat="46.65146" lon="1.24589">
        <ele>102.6</ele>
        <time>2023-05-02T15:35:04Z</time>
      </trkpt>
      <trkpt lat="46.65149" lon="1.24583">
        <ele>102.6</ele>
        <time>2023-05-02T15:35:05Z</time>
      </trkpt>
      <trkpt lat="46.6516" lon="1.24563">
        <ele>102.6</ele>
        <time>2023-05-02T15:35:09Z</time>
      </trkpt>
      <trkpt lat="46.65175" lon="1.24534">
        <ele>103</ele>
        <time>2023-05-02T15:35:15Z</time>
      </trkpt>
      <trkpt lat="46.65188" lon="1.24513">
        <ele>103.6</ele>
        <time>2023-05-02T15:35:20Z</time>
      </trkpt>
      <trkpt lat="46.65191" lon="1.24511">
        <ele>103.6</ele>
        <time>2023-05-02T15:35:21Z</time>
      </trkpt>
      <trkpt lat="46.65198" lon="1.2451">
        <ele>104</ele>
        <time>2023-05-02T15:35:24Z</time>
      </trkpt>
      <trkpt lat="46.652" lon="1.24506">
        <ele>104</ele>
        <time>2023-05-02T15:35:26Z</time>
      </trkpt>
      <trkpt lat="46.65199" lon="1.24504">
        <ele>104</ele>
        <time>2023-05-02T15:35:27Z</time>
      </trkpt>
      <trkpt lat="46.65192" lon="1.24512">
        <ele>104.4</ele>
        <time>2023-05-02T15:35:31Z</time>
      </trkpt>
      <trkpt lat="46.65193" lon="1.24522">
        <ele>104.6</ele>
        <time>2023-05-02T15:35:33Z</time>
      </trkpt>
      <trkpt lat="46.65197" lon="1.2453">
        <ele>104.6</ele>
        <time>2023-05-02T15:35:35Z</time>
      </trkpt>
      <trkpt lat="46.65203" lon="1.24538">
        <ele>104.8</ele>
        <time>2023-05-02T15:35:37Z</time>
      </trkpt>
      <trkpt lat="46.6521" lon="1.24545">
        <ele>104.8</ele>
        <time>2023-05-02T15:35:39Z</time>
      </trkpt>
      <trkpt lat="46.65214" lon="1.24548">
        <ele>104.8</ele>
        <time>2023-05-02T15:35:40Z</time>
      </trkpt>
      <trkpt lat="46.6524" lon="1.24575">
        <ele>105.2</ele>
        <time>2023-05-02T15:35:48Z</time>
      </trkpt>
      <trkpt lat="46.65247" lon="1.24583">
        <ele>105.2</ele>
        <time>2023-05-02T15:35:50Z</time>
      </trkpt>
      <trkpt lat="46.65254" lon="1.24589">
        <ele>105.4</ele>
        <time>2023-05-02T15:35:52Z</time>
      </trkpt>
      <trkpt lat="46.65257" lon="1.24593">
        <ele>105.4</ele>
        <time>2023-05-02T15:35:53Z</time>
      </trkpt>
      <trkpt lat="46.65261" lon="1.24597">
        <ele>105.4</ele>
        <time>2023-05-02T15:35:54Z</time>
      </trkpt>
      <trkpt lat="46.65277" lon="1.24613">
        <ele>105.6</ele>
        <time>2023-05-02T15:35:58Z</time>
      </trkpt>
      <trkpt lat="46.65301" lon="1.24637">
        <ele>105.8</ele>
        <time>2023-05-02T15:36:04Z</time>
      </trkpt>
      <trkpt lat="46.65305" lon="1.24641">
        <ele>105.8</ele>
        <time>2023-05-02T15:36:05Z</time>
      </trkpt>
      <trkpt lat="46.65324" lon="1.2466">
        <ele>106</ele>
        <time>2023-05-02T15:36:11Z</time>
      </trkpt>
      <trkpt lat="46.65335" lon="1.24671">
        <ele>106.2</ele>
        <time>2023-05-02T15:36:14Z</time>
      </trkpt>
      <trkpt lat="46.65346" lon="1.24683">
        <ele>106.4</ele>
        <time>2023-05-02T15:36:17Z</time>
      </trkpt>
      <trkpt lat="46.6535" lon="1.24687">
        <ele>106.2</ele>
        <time>2023-05-02T15:36:18Z</time>
      </trkpt>
      <trkpt lat="46.65367" lon="1.24704">
        <ele>106.2</ele>
        <time>2023-05-02T15:36:22Z</time>
      </trkpt>
      <trkpt lat="46.65407" lon="1.24744">
        <ele>106.2</ele>
        <time>2023-05-02T15:36:31Z</time>
      </trkpt>
      <trkpt lat="46.6544" lon="1.24778">
        <ele>106.4</ele>
        <time>2023-05-02T15:36:39Z</time>
      </trkpt>
      <trkpt lat="46.65444" lon="1.24782">
        <ele>106.4</ele>
        <time>2023-05-02T15:36:40Z</time>
      </trkpt>
      <trkpt lat="46.65462" lon="1.24799">
        <ele>106.4</ele>
        <time>2023-05-02T15:36:44Z</time>
      </trkpt>
      <trkpt lat="46.65493" lon="1.24831">
        <ele>106.2</ele>
        <time>2023-05-02T15:36:51Z</time>
      </trkpt>
      <trkpt lat="46.6552" lon="1.24854">
        <ele>106</ele>
        <time>2023-05-02T15:36:57Z</time>
      </trkpt>
      <trkpt lat="46.65528" lon="1.24861">
        <ele>105.8</ele>
        <time>2023-05-02T15:36:59Z</time>
      </trkpt>
      <trkpt lat="46.65542" lon="1.24878">
        <ele>105.4</ele>
        <time>2023-05-02T15:37:03Z</time>
      </trkpt>
      <trkpt lat="46.65546" lon="1.24883">
        <ele>105.2</ele>
        <time>2023-05-02T15:37:04Z</time>
      </trkpt>
      <trkpt lat="46.65553" lon="1.24893">
        <ele>105.2</ele>
        <time>2023-05-02T15:37:06Z</time>
      </trkpt>
      <trkpt lat="46.65566" lon="1.2491">
        <ele>104.8</ele>
        <time>2023-05-02T15:37:09Z</time>
      </trkpt>
      <trkpt lat="46.65579" lon="1.24934">
        <ele>104.4</ele>
        <time>2023-05-02T15:37:13Z</time>
      </trkpt>
      <trkpt lat="46.65581" lon="1.2494">
        <ele>104.4</ele>
        <time>2023-05-02T15:37:14Z</time>
      </trkpt>
      <trkpt lat="46.65584" lon="1.24947">
        <ele>104.4</ele>
        <time>2023-05-02T15:37:15Z</time>
      </trkpt>
      <trkpt lat="46.65588" lon="1.24959">
        <ele>104.2</ele>
        <time>2023-05-02T15:37:17Z</time>
      </trkpt>
      <trkpt lat="46.65593" lon="1.2497">
        <ele>104</ele>
        <time>2023-05-02T15:37:19Z</time>
      </trkpt>
      <trkpt lat="46.65596" lon="1.24975">
        <ele>104</ele>
        <time>2023-05-02T15:37:20Z</time>
      </trkpt>
      <trkpt lat="46.65603" lon="1.24983">
        <ele>103.8</ele>
        <time>2023-05-02T15:37:22Z</time>
      </trkpt>
      <trkpt lat="46.65606" lon="1.24987">
        <ele>103.6</ele>
        <time>2023-05-02T15:37:23Z</time>
      </trkpt>
      <trkpt lat="46.65609" lon="1.24991">
        <ele>103.6</ele>
        <time>2023-05-02T15:37:24Z</time>
      </trkpt>
      <trkpt lat="46.6562" lon="1.25002">
        <ele>103.4</ele>
        <time>2023-05-02T15:37:27Z</time>
      </trkpt>
      <trkpt lat="46.65624" lon="1.25005">
        <ele>103.4</ele>
        <time>2023-05-02T15:37:28Z</time>
      </trkpt>
      <trkpt lat="46.65638" lon="1.2502">
        <ele>103.2</ele>
        <time>2023-05-02T15:37:32Z</time>
      </trkpt>
      <trkpt lat="46.65641" lon="1.25023">
        <ele>103.2</ele>
        <time>2023-05-02T15:37:33Z</time>
      </trkpt>
      <trkpt lat="46.65656" lon="1.25033">
        <ele>103</ele>
        <time>2023-05-02T15:37:37Z</time>
      </trkpt>
      <trkpt lat="46.65673" lon="1.25039">
        <ele>102.6</ele>
        <time>2023-05-02T15:37:41Z</time>
      </trkpt>
      <trkpt lat="46.65678" lon="1.2504">
        <ele>102.6</ele>
        <time>2023-05-02T15:37:42Z</time>
      </trkpt>
      <trkpt lat="46.65696" lon="1.25044">
        <ele>102.6</ele>
        <time>2023-05-02T15:37:46Z</time>
      </trkpt>
      <trkpt lat="46.65701" lon="1.25045">
        <ele>102.6</ele>
        <time>2023-05-02T15:37:47Z</time>
      </trkpt>
      <trkpt lat="46.65724" lon="1.25053">
        <ele>102.6</ele>
        <time>2023-05-02T15:37:52Z</time>
      </trkpt>
      <trkpt lat="46.65729" lon="1.25053">
        <ele>102.4</ele>
        <time>2023-05-02T15:37:53Z</time>
      </trkpt>
      <trkpt lat="46.65748" lon="1.25049">
        <ele>102.2</ele>
        <time>2023-05-02T15:37:57Z</time>
      </trkpt>
      <trkpt lat="46.65753" lon="1.2505">
        <ele>102.2</ele>
        <time>2023-05-02T15:37:58Z</time>
      </trkpt>
      <trkpt lat="46.65774" lon="1.25054">
        <ele>102</ele>
        <time>2023-05-02T15:38:02Z</time>
      </trkpt>
      <trkpt lat="46.65779" lon="1.25056">
        <ele>101.8</ele>
        <time>2023-05-02T15:38:03Z</time>
      </trkpt>
      <trkpt lat="46.65794" lon="1.25065">
        <ele>101.6</ele>
        <time>2023-05-02T15:38:06Z</time>
      </trkpt>
      <trkpt lat="46.65803" lon="1.25072">
        <ele>101.8</ele>
        <time>2023-05-02T15:38:08Z</time>
      </trkpt>
      <trkpt lat="46.65813" lon="1.25079">
        <ele>101.6</ele>
        <time>2023-05-02T15:38:10Z</time>
      </trkpt>
      <trkpt lat="46.65817" lon="1.25082">
        <ele>101.6</ele>
        <time>2023-05-02T15:38:11Z</time>
      </trkpt>
      <trkpt lat="46.65822" lon="1.25084">
        <ele>101.4</ele>
        <time>2023-05-02T15:38:12Z</time>
      </trkpt>
      <trkpt lat="46.65832" lon="1.2509">
        <ele>101.2</ele>
        <time>2023-05-02T15:38:14Z</time>
      </trkpt>
      <trkpt lat="46.65841" lon="1.25095">
        <ele>101</ele>
        <time>2023-05-02T15:38:16Z</time>
      </trkpt>
      <trkpt lat="46.65862" lon="1.25105">
        <ele>100.4</ele>
        <time>2023-05-02T15:38:21Z</time>
      </trkpt>
      <trkpt lat="46.65876" lon="1.25111">
        <ele>100.2</ele>
        <time>2023-05-02T15:38:24Z</time>
      </trkpt>
      <trkpt lat="46.65897" lon="1.25119">
        <ele>100</ele>
        <time>2023-05-02T15:38:28Z</time>
      </trkpt>
      <trkpt lat="46.65924" lon="1.25128">
        <ele>100</ele>
        <time>2023-05-02T15:38:34Z</time>
      </trkpt>
      <trkpt lat="46.6593" lon="1.25129">
        <ele>100.2</ele>
        <time>2023-05-02T15:38:35Z</time>
      </trkpt>
      <trkpt lat="46.65939" lon="1.25131">
        <ele>100.2</ele>
        <time>2023-05-02T15:38:37Z</time>
      </trkpt>
      <trkpt lat="46.65948" lon="1.25135">
        <ele>100.2</ele>
        <time>2023-05-02T15:38:39Z</time>
      </trkpt>
      <trkpt lat="46.65977" lon="1.25144">
        <ele>99.8</ele>
        <time>2023-05-02T15:38:45Z</time>
      </trkpt>
      <trkpt lat="46.66018" lon="1.25157">
        <ele>100.4</ele>
        <time>2023-05-02T15:38:53Z</time>
      </trkpt>
      <trkpt lat="46.66053" lon="1.25168">
        <ele>100.4</ele>
        <time>2023-05-02T15:39:00Z</time>
      </trkpt>
      <trkpt lat="46.66097" lon="1.25182">
        <ele>100.4</ele>
        <time>2023-05-02T15:39:08Z</time>
      </trkpt>
      <trkpt lat="46.66136" lon="1.25202">
        <ele>100.6</ele>
        <time>2023-05-02T15:39:16Z</time>
      </trkpt>
      <trkpt lat="46.66176" lon="1.25223">
        <ele>100.8</ele>
        <time>2023-05-02T15:39:24Z</time>
      </trkpt>
      <trkpt lat="46.66212" lon="1.25243">
        <ele>101</ele>
        <time>2023-05-02T15:39:31Z</time>
      </trkpt>
      <trkpt lat="46.66254" lon="1.25264">
        <ele>101.4</ele>
        <time>2023-05-02T15:39:39Z</time>
      </trkpt>
      <trkpt lat="46.66295" lon="1.25287">
        <ele>101.6</ele>
        <time>2023-05-02T15:39:47Z</time>
      </trkpt>
      <trkpt lat="46.66316" lon="1.25299">
        <ele>101.8</ele>
        <time>2023-05-02T15:39:51Z</time>
      </trkpt>
      <trkpt lat="46.66332" lon="1.25308">
        <ele>101.8</ele>
        <time>2023-05-02T15:39:54Z</time>
      </trkpt>
      <trkpt lat="46.66365" lon="1.25322">
        <ele>102</ele>
        <time>2023-05-02T15:40:00Z</time>
      </trkpt>
      <trkpt lat="46.66402" lon="1.25327">
        <ele>102</ele>
        <time>2023-05-02T15:40:07Z</time>
      </trkpt>
      <trkpt lat="46.66416" lon="1.25327">
        <ele>102</ele>
        <time>2023-05-02T15:40:10Z</time>
      </trkpt>
      <trkpt lat="46.66431" lon="1.25329">
        <ele>101.8</ele>
        <time>2023-05-02T15:40:13Z</time>
      </trkpt>
      <trkpt lat="46.66458" lon="1.2533">
        <ele>102</ele>
        <time>2023-05-02T15:40:18Z</time>
      </trkpt>
      <trkpt lat="46.66463" lon="1.2533">
        <ele>102</ele>
        <time>2023-05-02T15:40:19Z</time>
      </trkpt>
      <trkpt lat="46.66508" lon="1.25333">
        <ele>102</ele>
        <time>2023-05-02T15:40:27Z</time>
      </trkpt>
      <trkpt lat="46.66542" lon="1.25333">
        <ele>101.8</ele>
        <time>2023-05-02T15:40:33Z</time>
      </trkpt>
      <trkpt lat="46.66554" lon="1.25332">
        <ele>101.8</ele>
        <time>2023-05-02T15:40:35Z</time>
      </trkpt>
      <trkpt lat="46.66571" lon="1.25332">
        <ele>101.8</ele>
        <time>2023-05-02T15:40:38Z</time>
      </trkpt>
      <trkpt lat="46.66598" lon="1.25332">
        <ele>101.6</ele>
        <time>2023-05-02T15:40:43Z</time>
      </trkpt>
      <trkpt lat="46.6663" lon="1.25332">
        <ele>101.8</ele>
        <time>2023-05-02T15:40:49Z</time>
      </trkpt>
      <trkpt lat="46.66667" lon="1.2533">
        <ele>102</ele>
        <time>2023-05-02T15:40:56Z</time>
      </trkpt>
      <trkpt lat="46.66707" lon="1.2533">
        <ele>102.2</ele>
        <time>2023-05-02T15:41:03Z</time>
      </trkpt>
      <trkpt lat="46.66736" lon="1.2532">
        <ele>102</ele>
        <time>2023-05-02T15:41:08Z</time>
      </trkpt>
      <trkpt lat="46.66766" lon="1.253">
        <ele>102.2</ele>
        <time>2023-05-02T15:41:14Z</time>
      </trkpt>
      <trkpt lat="46.66804" lon="1.25274">
        <ele>102.2</ele>
        <time>2023-05-02T15:41:22Z</time>
      </trkpt>
      <trkpt lat="46.66839" lon="1.2525">
        <ele>102.2</ele>
        <time>2023-05-02T15:41:29Z</time>
      </trkpt>
      <trkpt lat="46.66879" lon="1.25223">
        <ele>102.4</ele>
        <time>2023-05-02T15:41:37Z</time>
      </trkpt>
      <trkpt lat="46.66922" lon="1.25193">
        <ele>102.6</ele>
        <time>2023-05-02T15:41:46Z</time>
      </trkpt>
      <trkpt lat="46.66951" lon="1.25173">
        <ele>103</ele>
        <time>2023-05-02T15:41:53Z</time>
      </trkpt>
      <trkpt lat="46.66967" lon="1.25165">
        <ele>103.2</ele>
        <time>2023-05-02T15:41:58Z</time>
      </trkpt>
      <trkpt lat="46.66996" lon="1.25146">
        <ele>104</ele>
        <time>2023-05-02T15:42:06Z</time>
      </trkpt>
      <trkpt lat="46.67023" lon="1.25123">
        <ele>104.6</ele>
        <time>2023-05-02T15:42:14Z</time>
      </trkpt>
      <trkpt lat="46.67029" lon="1.25111">
        <ele>104.6</ele>
        <time>2023-05-02T15:42:19Z</time>
      </trkpt>
      <trkpt lat="46.6703" lon="1.2511">
        <ele>104.6</ele>
        <time>2023-05-02T15:42:21Z</time>
      </trkpt>
      <trkpt lat="46.67032" lon="1.25108">
        <ele>107.2</ele>
        <time>2023-05-02T15:44:05Z</time>
      </trkpt>
      <trkpt lat="46.67035" lon="1.25106">
        <ele>107.2</ele>
        <time>2023-05-02T15:44:06Z</time>
      </trkpt>
      <trkpt lat="46.67043" lon="1.25093">
        <ele>106.8</ele>
        <time>2023-05-02T15:44:09Z</time>
      </trkpt>
      <trkpt lat="46.67046" lon="1.25087">
        <ele>107</ele>
        <time>2023-05-02T15:44:10Z</time>
      </trkpt>
      <trkpt lat="46.67056" lon="1.2507">
        <ele>106.8</ele>
        <time>2023-05-02T15:44:13Z</time>
      </trkpt>
      <trkpt lat="46.67063" lon="1.25061">
        <ele>106.6</ele>
        <time>2023-05-02T15:44:15Z</time>
      </trkpt>
      <trkpt lat="46.67075" lon="1.25051">
        <ele>106.4</ele>
        <time>2023-05-02T15:44:18Z</time>
      </trkpt>
      <trkpt lat="46.67086" lon="1.25043">
        <ele>106.2</ele>
        <time>2023-05-02T15:44:21Z</time>
      </trkpt>
      <trkpt lat="46.67111" lon="1.25025">
        <ele>105.6</ele>
        <time>2023-05-02T15:44:28Z</time>
      </trkpt>
      <trkpt lat="46.67123" lon="1.25015">
        <ele>105.4</ele>
        <time>2023-05-02T15:44:31Z</time>
      </trkpt>
      <trkpt lat="46.67131" lon="1.25009">
        <ele>105.4</ele>
        <time>2023-05-02T15:44:33Z</time>
      </trkpt>
      <trkpt lat="46.67135" lon="1.25005">
        <ele>105.2</ele>
        <time>2023-05-02T15:44:34Z</time>
      </trkpt>
      <trkpt lat="46.6717" lon="1.24979">
        <ele>105</ele>
        <time>2023-05-02T15:44:42Z</time>
      </trkpt>
      <trkpt lat="46.67196" lon="1.24959">
        <ele>104.8</ele>
        <time>2023-05-02T15:44:48Z</time>
      </trkpt>
      <trkpt lat="46.67204" lon="1.2495">
        <ele>104.8</ele>
        <time>2023-05-02T15:44:50Z</time>
      </trkpt>
      <trkpt lat="46.67207" lon="1.24944">
        <ele>104.6</ele>
        <time>2023-05-02T15:44:51Z</time>
      </trkpt>
      <trkpt lat="46.67213" lon="1.24932">
        <ele>104.6</ele>
        <time>2023-05-02T15:44:53Z</time>
      </trkpt>
      <trkpt lat="46.67216" lon="1.24925">
        <ele>104.6</ele>
        <time>2023-05-02T15:44:54Z</time>
      </trkpt>
      <trkpt lat="46.67231" lon="1.24878">
        <ele>104.4</ele>
        <time>2023-05-02T15:45:01Z</time>
      </trkpt>
      <trkpt lat="46.67236" lon="1.24856">
        <ele>104.2</ele>
        <time>2023-05-02T15:45:04Z</time>
      </trkpt>
      <trkpt lat="46.6724" lon="1.24829">
        <ele>104.2</ele>
        <time>2023-05-02T15:45:08Z</time>
      </trkpt>
      <trkpt lat="46.6724" lon="1.24822">
        <ele>104</ele>
        <time>2023-05-02T15:45:09Z</time>
      </trkpt>
      <trkpt lat="46.6724" lon="1.24808">
        <ele>104</ele>
        <time>2023-05-02T15:45:11Z</time>
      </trkpt>
      <trkpt lat="46.67244" lon="1.24796">
        <ele>104</ele>
        <time>2023-05-02T15:45:13Z</time>
      </trkpt>
      <trkpt lat="46.67248" lon="1.24792">
        <ele>103.8</ele>
        <time>2023-05-02T15:45:14Z</time>
      </trkpt>
      <trkpt lat="46.67251" lon="1.24789">
        <ele>103.8</ele>
        <time>2023-05-02T15:45:15Z</time>
      </trkpt>
      <trkpt lat="46.6727" lon="1.24781">
        <ele>103.8</ele>
        <time>2023-05-02T15:45:19Z</time>
      </trkpt>
      <trkpt lat="46.6728" lon="1.2478">
        <ele>103.8</ele>
        <time>2023-05-02T15:45:21Z</time>
      </trkpt>
      <trkpt lat="46.67291" lon="1.24781">
        <ele>104</ele>
        <time>2023-05-02T15:45:23Z</time>
      </trkpt>
      <trkpt lat="46.67296" lon="1.2478">
        <ele>104</ele>
        <time>2023-05-02T15:45:24Z</time>
      </trkpt>
      <trkpt lat="46.67332" lon="1.24782">
        <ele>103.8</ele>
        <time>2023-05-02T15:45:31Z</time>
      </trkpt>
      <trkpt lat="46.67337" lon="1.24784">
        <ele>103.8</ele>
        <time>2023-05-02T15:45:32Z</time>
      </trkpt>
      <trkpt lat="46.67352" lon="1.2479">
        <ele>103.6</ele>
        <time>2023-05-02T15:45:35Z</time>
      </trkpt>
      <trkpt lat="46.6739" lon="1.24809">
        <ele>103.4</ele>
        <time>2023-05-02T15:45:43Z</time>
      </trkpt>
      <trkpt lat="46.67424" lon="1.24824">
        <ele>103.6</ele>
        <time>2023-05-02T15:45:50Z</time>
      </trkpt>
      <trkpt lat="46.67439" lon="1.24833">
        <ele>103.6</ele>
        <time>2023-05-02T15:45:53Z</time>
      </trkpt>
      <trkpt lat="46.67452" lon="1.24842">
        <ele>103.4</ele>
        <time>2023-05-02T15:45:56Z</time>
      </trkpt>
      <trkpt lat="46.67478" lon="1.24865">
        <ele>103.4</ele>
        <time>2023-05-02T15:46:02Z</time>
      </trkpt>
      <trkpt lat="46.67507" lon="1.2489">
        <ele>103.6</ele>
        <time>2023-05-02T15:46:09Z</time>
      </trkpt>
      <trkpt lat="46.67536" lon="1.24918">
        <ele>103.6</ele>
        <time>2023-05-02T15:46:16Z</time>
      </trkpt>
      <trkpt lat="46.67572" lon="1.24951">
        <ele>103.6</ele>
        <time>2023-05-02T15:46:24Z</time>
      </trkpt>
      <trkpt lat="46.67599" lon="1.24973">
        <ele>103.4</ele>
        <time>2023-05-02T15:46:30Z</time>
      </trkpt>
      <trkpt lat="46.6763" lon="1.24993">
        <ele>103.2</ele>
        <time>2023-05-02T15:46:37Z</time>
      </trkpt>
      <trkpt lat="46.67643" lon="1.25002">
        <ele>103.2</ele>
        <time>2023-05-02T15:46:41Z</time>
      </trkpt>
      <trkpt lat="46.67662" lon="1.25014">
        <ele>103.2</ele>
        <time>2023-05-02T15:46:46Z</time>
      </trkpt>
      <trkpt lat="46.67671" lon="1.25016">
        <ele>103.2</ele>
        <time>2023-05-02T15:46:48Z</time>
      </trkpt>
      <trkpt lat="46.6768" lon="1.25015">
        <ele>103.2</ele>
        <time>2023-05-02T15:46:50Z</time>
      </trkpt>
      <trkpt lat="46.67684" lon="1.25014">
        <ele>103.2</ele>
        <time>2023-05-02T15:46:51Z</time>
      </trkpt>
      <trkpt lat="46.67708" lon="1.25009">
        <ele>103.4</ele>
        <time>2023-05-02T15:46:56Z</time>
      </trkpt>
      <trkpt lat="46.67749" lon="1.25002">
        <ele>103.6</ele>
        <time>2023-05-02T15:47:05Z</time>
      </trkpt>
      <trkpt lat="46.67781" lon="1.24997">
        <ele>104</ele>
        <time>2023-05-02T15:47:13Z</time>
      </trkpt>
      <trkpt lat="46.6782" lon="1.24997">
        <ele>104.6</ele>
        <time>2023-05-02T15:47:22Z</time>
      </trkpt>
      <trkpt lat="46.67851" lon="1.25004">
        <ele>104.8</ele>
        <time>2023-05-02T15:47:29Z</time>
      </trkpt>
      <trkpt lat="46.67869" lon="1.25011">
        <ele>105</ele>
        <time>2023-05-02T15:47:33Z</time>
      </trkpt>
      <trkpt lat="46.6788" lon="1.25019">
        <ele>105</ele>
        <time>2023-05-02T15:47:36Z</time>
      </trkpt>
      <trkpt lat="46.67901" lon="1.25039">
        <ele>105.2</ele>
        <time>2023-05-02T15:47:43Z</time>
      </trkpt>
      <trkpt lat="46.67915" lon="1.25045">
        <ele>105.2</ele>
        <time>2023-05-02T15:47:47Z</time>
      </trkpt>
      <trkpt lat="46.6792" lon="1.25045">
        <ele>105</ele>
        <time>2023-05-02T15:47:48Z</time>
      </trkpt>
      <trkpt lat="46.67945" lon="1.25042">
        <ele>105</ele>
        <time>2023-05-02T15:47:54Z</time>
      </trkpt>
      <trkpt lat="46.6797" lon="1.25038">
        <ele>104.8</ele>
        <time>2023-05-02T15:48:00Z</time>
      </trkpt>
      <trkpt lat="46.67995" lon="1.25037">
        <ele>104.6</ele>
        <time>2023-05-02T15:48:06Z</time>
      </trkpt>
      <trkpt lat="46.68026" lon="1.25034">
        <ele>104.6</ele>
        <time>2023-05-02T15:48:13Z</time>
      </trkpt>
      <trkpt lat="46.68035" lon="1.25033">
        <ele>104.6</ele>
        <time>2023-05-02T15:48:15Z</time>
      </trkpt>
      <trkpt lat="46.6805" lon="1.25032">
        <ele>104.4</ele>
        <time>2023-05-02T15:48:18Z</time>
      </trkpt>
      <trkpt lat="46.68073" lon="1.25029">
        <ele>104.2</ele>
        <time>2023-05-02T15:48:23Z</time>
      </trkpt>
      <trkpt lat="46.68101" lon="1.25026">
        <ele>104</ele>
        <time>2023-05-02T15:48:29Z</time>
      </trkpt>
      <trkpt lat="46.68124" lon="1.25023">
        <ele>103.8</ele>
        <time>2023-05-02T15:48:34Z</time>
      </trkpt>
      <trkpt lat="46.68143" lon="1.25021">
        <ele>103.6</ele>
        <time>2023-05-02T15:48:38Z</time>
      </trkpt>
      <trkpt lat="46.68148" lon="1.25021">
        <ele>103.6</ele>
        <time>2023-05-02T15:48:39Z</time>
      </trkpt>
      <trkpt lat="46.68152" lon="1.25022">
        <ele>103.6</ele>
        <time>2023-05-02T15:48:40Z</time>
      </trkpt>
      <trkpt lat="46.68162" lon="1.25024">
        <ele>103.6</ele>
        <time>2023-05-02T15:48:43Z</time>
      </trkpt>
      <trkpt lat="46.68163" lon="1.25025">
        <ele>103.6</ele>
        <time>2023-05-02T15:48:45Z</time>
      </trkpt>
      <trkpt lat="46.68166" lon="1.25022">
        <ele>103.4</ele>
        <time>2023-05-02T15:48:50Z</time>
      </trkpt>
      <trkpt lat="46.68168" lon="1.2502">
        <ele>103.4</ele>
        <time>2023-05-02T15:48:51Z</time>
      </trkpt>
      <trkpt lat="46.68182" lon="1.25004">
        <ele>102.8</ele>
        <time>2023-05-02T15:48:57Z</time>
      </trkpt>
      <trkpt lat="46.68188" lon="1.24986">
        <ele>102</ele>
        <time>2023-05-02T15:49:02Z</time>
      </trkpt>
      <trkpt lat="46.68189" lon="1.24963">
        <ele>101</ele>
        <time>2023-05-02T15:49:07Z</time>
      </trkpt>
      <trkpt lat="46.68189" lon="1.24936">
        <ele>100.2</ele>
        <time>2023-05-02T15:49:12Z</time>
      </trkpt>
      <trkpt lat="46.68195" lon="1.24907">
        <ele>99.2</ele>
        <time>2023-05-02T15:49:18Z</time>
      </trkpt>
      <trkpt lat="46.68197" lon="1.24899">
        <ele>98.8</ele>
        <time>2023-05-02T15:49:20Z</time>
      </trkpt>
      <trkpt lat="46.682" lon="1.24892">
        <ele>98.6</ele>
        <time>2023-05-02T15:49:22Z</time>
      </trkpt>
      <trkpt lat="46.68205" lon="1.24876">
        <ele>97.6</ele>
        <time>2023-05-02T15:49:26Z</time>
      </trkpt>
      <trkpt lat="46.68211" lon="1.24859">
        <ele>96.6</ele>
        <time>2023-05-02T15:49:31Z</time>
      </trkpt>
      <trkpt lat="46.68213" lon="1.24832">
        <ele>95.6</ele>
        <time>2023-05-02T15:49:37Z</time>
      </trkpt>
      <trkpt lat="46.68219" lon="1.24808">
        <ele>94.6</ele>
        <time>2023-05-02T15:49:43Z</time>
      </trkpt>
      <trkpt lat="46.68228" lon="1.24784">
        <ele>94</ele>
        <time>2023-05-02T15:49:49Z</time>
      </trkpt>
      <trkpt lat="46.68234" lon="1.24768">
        <ele>93.6</ele>
        <time>2023-05-02T15:49:54Z</time>
      </trkpt>
      <trkpt lat="46.68238" lon="1.2475">
        <ele>93.4</ele>
        <time>2023-05-02T15:50:00Z</time>
      </trkpt>
      <trkpt lat="46.6824" lon="1.24732">
        <ele>93.2</ele>
        <time>2023-05-02T15:50:06Z</time>
      </trkpt>
      <trkpt lat="46.68244" lon="1.24716">
        <ele>93</ele>
        <time>2023-05-02T15:50:11Z</time>
      </trkpt>
      <trkpt lat="46.68246" lon="1.24703">
        <ele>92.8</ele>
        <time>2023-05-02T15:50:15Z</time>
      </trkpt>
      <trkpt lat="46.6825" lon="1.24681">
        <ele>92.8</ele>
        <time>2023-05-02T15:50:20Z</time>
      </trkpt>
      <trkpt lat="46.68261" lon="1.24664">
        <ele>93</ele>
        <time>2023-05-02T15:50:26Z</time>
      </trkpt>
      <trkpt lat="46.6827" lon="1.24652">
        <ele>92.8</ele>
        <time>2023-05-02T15:50:31Z</time>
      </trkpt>
      <trkpt lat="46.68278" lon="1.24637">
        <ele>93.2</ele>
        <time>2023-05-02T15:50:36Z</time>
      </trkpt>
      <trkpt lat="46.68287" lon="1.24627">
        <ele>93.6</ele>
        <time>2023-05-02T15:50:40Z</time>
      </trkpt>
      <trkpt lat="46.68297" lon="1.24611">
        <ele>94.2</ele>
        <time>2023-05-02T15:50:45Z</time>
      </trkpt>
      <trkpt lat="46.68305" lon="1.24592">
        <ele>95</ele>
        <time>2023-05-02T15:50:50Z</time>
      </trkpt>
      <trkpt lat="46.6831" lon="1.24575">
        <ele>95.6</ele>
        <time>2023-05-02T15:50:55Z</time>
      </trkpt>
      <trkpt lat="46.68316" lon="1.24557">
        <ele>96.4</ele>
        <time>2023-05-02T15:51:00Z</time>
      </trkpt>
      <trkpt lat="46.6832" lon="1.24539">
        <ele>97</ele>
        <time>2023-05-02T15:51:05Z</time>
      </trkpt>
      <trkpt lat="46.68325" lon="1.24518">
        <ele>98</ele>
        <time>2023-05-02T15:51:11Z</time>
      </trkpt>
      <trkpt lat="46.68327" lon="1.24511">
        <ele>98.2</ele>
        <time>2023-05-02T15:51:13Z</time>
      </trkpt>
      <trkpt lat="46.68331" lon="1.24503">
        <ele>98.6</ele>
        <time>2023-05-02T15:51:15Z</time>
      </trkpt>
      <trkpt lat="46.68334" lon="1.24497">
        <ele>98.8</ele>
        <time>2023-05-02T15:51:17Z</time>
      </trkpt>
      <trkpt lat="46.68337" lon="1.2449">
        <ele>99</ele>
        <time>2023-05-02T15:51:19Z</time>
      </trkpt>
      <trkpt lat="46.68344" lon="1.2448">
        <ele>99.4</ele>
        <time>2023-05-02T15:51:22Z</time>
      </trkpt>
      <trkpt lat="46.68346" lon="1.24477">
        <ele>99.6</ele>
        <time>2023-05-02T15:51:23Z</time>
      </trkpt>
      <trkpt lat="46.68351" lon="1.24469">
        <ele>99.8</ele>
        <time>2023-05-02T15:51:25Z</time>
      </trkpt>
      <trkpt lat="46.68361" lon="1.24455">
        <ele>100.2</ele>
        <time>2023-05-02T15:51:28Z</time>
      </trkpt>
      <trkpt lat="46.68368" lon="1.24446">
        <ele>100.4</ele>
        <time>2023-05-02T15:51:30Z</time>
      </trkpt>
      <trkpt lat="46.68379" lon="1.24427">
        <ele>100.8</ele>
        <time>2023-05-02T15:51:34Z</time>
      </trkpt>
      <trkpt lat="46.68392" lon="1.24411">
        <ele>101.6</ele>
        <time>2023-05-02T15:51:38Z</time>
      </trkpt>
      <trkpt lat="46.68406" lon="1.24391">
        <ele>102.4</ele>
        <time>2023-05-02T15:51:44Z</time>
      </trkpt>
      <trkpt lat="46.68419" lon="1.24372">
        <ele>103</ele>
        <time>2023-05-02T15:51:50Z</time>
      </trkpt>
      <trkpt lat="46.68433" lon="1.24352">
        <ele>103.6</ele>
        <time>2023-05-02T15:51:56Z</time>
      </trkpt>
      <trkpt lat="46.68448" lon="1.24334">
        <ele>104.2</ele>
        <time>2023-05-02T15:52:02Z</time>
      </trkpt>
      <trkpt lat="46.68464" lon="1.24313">
        <ele>104.8</ele>
        <time>2023-05-02T15:52:08Z</time>
      </trkpt>
      <trkpt lat="46.68481" lon="1.24289">
        <ele>105.4</ele>
        <time>2023-05-02T15:52:15Z</time>
      </trkpt>
      <trkpt lat="46.68501" lon="1.24261">
        <ele>105.8</ele>
        <time>2023-05-02T15:52:23Z</time>
      </trkpt>
      <trkpt lat="46.68513" lon="1.24245">
        <ele>106.2</ele>
        <time>2023-05-02T15:52:28Z</time>
      </trkpt>
      <trkpt lat="46.68517" lon="1.24239">
        <ele>106.4</ele>
        <time>2023-05-02T15:52:30Z</time>
      </trkpt>
      <trkpt lat="46.6852" lon="1.24237">
        <ele>106.4</ele>
        <time>2023-05-02T15:52:31Z</time>
      </trkpt>
      <trkpt lat="46.68531" lon="1.24222">
        <ele>106.6</ele>
        <time>2023-05-02T15:52:36Z</time>
      </trkpt>
      <trkpt lat="46.68544" lon="1.24205">
        <ele>107</ele>
        <time>2023-05-02T15:52:41Z</time>
      </trkpt>
      <trkpt lat="46.68561" lon="1.2418">
        <ele>107.2</ele>
        <time>2023-05-02T15:52:48Z</time>
      </trkpt>
      <trkpt lat="46.68575" lon="1.24164">
        <ele>107.2</ele>
        <time>2023-05-02T15:52:53Z</time>
      </trkpt>
      <trkpt lat="46.68593" lon="1.2414">
        <ele>107.4</ele>
        <time>2023-05-02T15:53:00Z</time>
      </trkpt>
      <trkpt lat="46.68604" lon="1.24122">
        <ele>107.2</ele>
        <time>2023-05-02T15:53:05Z</time>
      </trkpt>
      <trkpt lat="46.68612" lon="1.24109">
        <ele>107.2</ele>
        <time>2023-05-02T15:53:10Z</time>
      </trkpt>
      <trkpt lat="46.68612" lon="1.24109">
        <ele>107.2</ele>
        <time>2023-05-02T15:53:11Z</time>
      </trkpt>
      <trkpt lat="46.68642" lon="1.24067">
        <ele>108.6</ele>
        <time>2023-05-02T15:54:26Z</time>
      </trkpt>
      <trkpt lat="46.68643" lon="1.24065">
        <ele>108.8</ele>
        <time>2023-05-02T15:54:27Z</time>
      </trkpt>
      <trkpt lat="46.68655" lon="1.2405">
        <ele>108.6</ele>
        <time>2023-05-02T15:54:32Z</time>
      </trkpt>
      <trkpt lat="46.68684" lon="1.24015">
        <ele>108.4</ele>
        <time>2023-05-02T15:54:42Z</time>
      </trkpt>
      <trkpt lat="46.68697" lon="1.23998">
        <ele>108</ele>
        <time>2023-05-02T15:54:47Z</time>
      </trkpt>
      <trkpt lat="46.68709" lon="1.23978">
        <ele>108</ele>
        <time>2023-05-02T15:54:52Z</time>
      </trkpt>
      <trkpt lat="46.68729" lon="1.2395">
        <ele>107.4</ele>
        <time>2023-05-02T15:54:59Z</time>
      </trkpt>
      <trkpt lat="46.68738" lon="1.23938">
        <ele>107.2</ele>
        <time>2023-05-02T15:55:02Z</time>
      </trkpt>
      <trkpt lat="46.68741" lon="1.23935">
        <ele>107</ele>
        <time>2023-05-02T15:55:03Z</time>
      </trkpt>
      <trkpt lat="46.68755" lon="1.23916">
        <ele>106.6</ele>
        <time>2023-05-02T15:55:08Z</time>
      </trkpt>
      <trkpt lat="46.68771" lon="1.23888">
        <ele>106.8</ele>
        <time>2023-05-02T15:55:14Z</time>
      </trkpt>
      <trkpt lat="46.68793" lon="1.23859">
        <ele>107</ele>
        <time>2023-05-02T15:55:21Z</time>
      </trkpt>
      <trkpt lat="46.68804" lon="1.23844">
        <ele>106.4</ele>
        <time>2023-05-02T15:55:25Z</time>
      </trkpt>
      <trkpt lat="46.68811" lon="1.23835">
        <ele>106.4</ele>
        <time>2023-05-02T15:55:27Z</time>
      </trkpt>
      <trkpt lat="46.68838" lon="1.23798">
        <ele>107</ele>
        <time>2023-05-02T15:55:35Z</time>
      </trkpt>
      <trkpt lat="46.68846" lon="1.23789">
        <ele>107</ele>
        <time>2023-05-02T15:55:37Z</time>
      </trkpt>
      <trkpt lat="46.68856" lon="1.23775">
        <ele>107.2</ele>
        <time>2023-05-02T15:55:40Z</time>
      </trkpt>
      <trkpt lat="46.68864" lon="1.23765">
        <ele>107.2</ele>
        <time>2023-05-02T15:55:42Z</time>
      </trkpt>
      <trkpt lat="46.68875" lon="1.2375">
        <ele>107.2</ele>
        <time>2023-05-02T15:55:45Z</time>
      </trkpt>
      <trkpt lat="46.68898" lon="1.23715">
        <ele>107.4</ele>
        <time>2023-05-02T15:55:51Z</time>
      </trkpt>
      <trkpt lat="46.68915" lon="1.23695">
        <ele>107.6</ele>
        <time>2023-05-02T15:55:55Z</time>
      </trkpt>
      <trkpt lat="46.68922" lon="1.23685">
        <ele>107.4</ele>
        <time>2023-05-02T15:55:57Z</time>
      </trkpt>
      <trkpt lat="46.68941" lon="1.23658">
        <ele>107.6</ele>
        <time>2023-05-02T15:56:03Z</time>
      </trkpt>
      <trkpt lat="46.6896" lon="1.23632">
        <ele>107.6</ele>
        <time>2023-05-02T15:56:09Z</time>
      </trkpt>
      <trkpt lat="46.6898" lon="1.23605">
        <ele>107.8</ele>
        <time>2023-05-02T15:56:16Z</time>
      </trkpt>
      <trkpt lat="46.68984" lon="1.23598">
        <ele>107.8</ele>
        <time>2023-05-02T15:56:19Z</time>
      </trkpt>
      <trkpt lat="46.68995" lon="1.23583">
        <ele>107.6</ele>
        <time>2023-05-02T15:56:24Z</time>
      </trkpt>
      <trkpt lat="46.69014" lon="1.23557">
        <ele>107.6</ele>
        <time>2023-05-02T15:56:31Z</time>
      </trkpt>
      <trkpt lat="46.69019" lon="1.23549">
        <ele>107.4</ele>
        <time>2023-05-02T15:56:33Z</time>
      </trkpt>
      <trkpt lat="46.69029" lon="1.23535">
        <ele>107.2</ele>
        <time>2023-05-02T15:56:36Z</time>
      </trkpt>
      <trkpt lat="46.69054" lon="1.23502">
        <ele>106.6</ele>
        <time>2023-05-02T15:56:43Z</time>
      </trkpt>
      <trkpt lat="46.69074" lon="1.23473">
        <ele>106.2</ele>
        <time>2023-05-02T15:56:49Z</time>
      </trkpt>
      <trkpt lat="46.69096" lon="1.23446">
        <ele>105.8</ele>
        <time>2023-05-02T15:56:55Z</time>
      </trkpt>
      <trkpt lat="46.69103" lon="1.23436">
        <ele>105.6</ele>
        <time>2023-05-02T15:56:57Z</time>
      </trkpt>
      <trkpt lat="46.69113" lon="1.23421">
        <ele>105.4</ele>
        <time>2023-05-02T15:57:00Z</time>
      </trkpt>
      <trkpt lat="46.69127" lon="1.23402">
        <ele>105.2</ele>
        <time>2023-05-02T15:57:04Z</time>
      </trkpt>
      <trkpt lat="46.69133" lon="1.23392">
        <ele>105.2</ele>
        <time>2023-05-02T15:57:06Z</time>
      </trkpt>
      <trkpt lat="46.69145" lon="1.23377">
        <ele>104.8</ele>
        <time>2023-05-02T15:57:09Z</time>
      </trkpt>
      <trkpt lat="46.69157" lon="1.23366">
        <ele>104.4</ele>
        <time>2023-05-02T15:57:12Z</time>
      </trkpt>
      <trkpt lat="46.6916" lon="1.23361">
        <ele>104.4</ele>
        <time>2023-05-02T15:57:13Z</time>
      </trkpt>
      <trkpt lat="46.69175" lon="1.23339">
        <ele>104</ele>
        <time>2023-05-02T15:57:17Z</time>
      </trkpt>
      <trkpt lat="46.69178" lon="1.23334">
        <ele>103.8</ele>
        <time>2023-05-02T15:57:18Z</time>
      </trkpt>
      <trkpt lat="46.6919" lon="1.23316">
        <ele>103.6</ele>
        <time>2023-05-02T15:57:21Z</time>
      </trkpt>
      <trkpt lat="46.69217" lon="1.23282">
        <ele>103.4</ele>
        <time>2023-05-02T15:57:27Z</time>
      </trkpt>
      <trkpt lat="46.69226" lon="1.23272">
        <ele>103.4</ele>
        <time>2023-05-02T15:57:29Z</time>
      </trkpt>
      <trkpt lat="46.69237" lon="1.23258">
        <ele>103.2</ele>
        <time>2023-05-02T15:57:32Z</time>
      </trkpt>
      <trkpt lat="46.69247" lon="1.23241">
        <ele>103.4</ele>
        <time>2023-05-02T15:57:35Z</time>
      </trkpt>
      <trkpt lat="46.69252" lon="1.23236">
        <ele>103.4</ele>
        <time>2023-05-02T15:57:36Z</time>
      </trkpt>
      <trkpt lat="46.69256" lon="1.2323">
        <ele>103.4</ele>
        <time>2023-05-02T15:57:37Z</time>
      </trkpt>
      <trkpt lat="46.69263" lon="1.2322">
        <ele>103.4</ele>
        <time>2023-05-02T15:57:39Z</time>
      </trkpt>
      <trkpt lat="46.69267" lon="1.23215">
        <ele>103.4</ele>
        <time>2023-05-02T15:57:40Z</time>
      </trkpt>
      <trkpt lat="46.69271" lon="1.2321">
        <ele>103.4</ele>
        <time>2023-05-02T15:57:41Z</time>
      </trkpt>
      <trkpt lat="46.69288" lon="1.23191">
        <ele>103.2</ele>
        <time>2023-05-02T15:57:45Z</time>
      </trkpt>
      <trkpt lat="46.693" lon="1.23177">
        <ele>103.6</ele>
        <time>2023-05-02T15:57:48Z</time>
      </trkpt>
      <trkpt lat="46.69304" lon="1.23172">
        <ele>103.8</ele>
        <time>2023-05-02T15:57:49Z</time>
      </trkpt>
      <trkpt lat="46.69308" lon="1.23167">
        <ele>103.8</ele>
        <time>2023-05-02T15:57:50Z</time>
      </trkpt>
      <trkpt lat="46.69325" lon="1.23143">
        <ele>103.6</ele>
        <time>2023-05-02T15:57:54Z</time>
      </trkpt>
      <trkpt lat="46.69341" lon="1.23118">
        <ele>103.6</ele>
        <time>2023-05-02T15:57:58Z</time>
      </trkpt>
      <trkpt lat="46.69345" lon="1.23112">
        <ele>103.6</ele>
        <time>2023-05-02T15:57:59Z</time>
      </trkpt>
      <trkpt lat="46.69359" lon="1.23088">
        <ele>103.8</ele>
        <time>2023-05-02T15:58:03Z</time>
      </trkpt>
      <trkpt lat="46.69366" lon="1.23075">
        <ele>103.8</ele>
        <time>2023-05-02T15:58:05Z</time>
      </trkpt>
      <trkpt lat="46.69374" lon="1.23062">
        <ele>103.8</ele>
        <time>2023-05-02T15:58:07Z</time>
      </trkpt>
      <trkpt lat="46.69398" lon="1.23021">
        <ele>103.8</ele>
        <time>2023-05-02T15:58:14Z</time>
      </trkpt>
      <trkpt lat="46.69403" lon="1.23015">
        <ele>103.8</ele>
        <time>2023-05-02T15:58:15Z</time>
      </trkpt>
      <trkpt lat="46.69412" lon="1.23002">
        <ele>103.8</ele>
        <time>2023-05-02T15:58:17Z</time>
      </trkpt>
      <trkpt lat="46.69424" lon="1.2298">
        <ele>103.8</ele>
        <time>2023-05-02T15:58:20Z</time>
      </trkpt>
      <trkpt lat="46.69431" lon="1.22966">
        <ele>103.8</ele>
        <time>2023-05-02T15:58:22Z</time>
      </trkpt>
      <trkpt lat="46.69449" lon="1.22933">
        <ele>103.8</ele>
        <time>2023-05-02T15:58:27Z</time>
      </trkpt>
      <trkpt lat="46.6946" lon="1.22904">
        <ele>103.8</ele>
        <time>2023-05-02T15:58:31Z</time>
      </trkpt>
      <trkpt lat="46.69462" lon="1.22896">
        <ele>103.8</ele>
        <time>2023-05-02T15:58:32Z</time>
      </trkpt>
      <trkpt lat="46.69465" lon="1.22889">
        <ele>103.8</ele>
        <time>2023-05-02T15:58:33Z</time>
      </trkpt>
      <trkpt lat="46.69476" lon="1.22869">
        <ele>103.8</ele>
        <time>2023-05-02T15:58:36Z</time>
      </trkpt>
      <trkpt lat="46.69491" lon="1.2285">
        <ele>103.8</ele>
        <time>2023-05-02T15:58:39Z</time>
      </trkpt>
      <trkpt lat="46.69501" lon="1.22837">
        <ele>103.8</ele>
        <time>2023-05-02T15:58:41Z</time>
      </trkpt>
      <trkpt lat="46.69506" lon="1.22832">
        <ele>103.8</ele>
        <time>2023-05-02T15:58:42Z</time>
      </trkpt>
      <trkpt lat="46.69517" lon="1.22823">
        <ele>103.6</ele>
        <time>2023-05-02T15:58:44Z</time>
      </trkpt>
      <trkpt lat="46.69523" lon="1.2282">
        <ele>103.8</ele>
        <time>2023-05-02T15:58:45Z</time>
      </trkpt>
      <trkpt lat="46.69534" lon="1.22815">
        <ele>103.8</ele>
        <time>2023-05-02T15:58:47Z</time>
      </trkpt>
      <trkpt lat="46.69545" lon="1.22815">
        <ele>103.8</ele>
        <time>2023-05-02T15:58:49Z</time>
      </trkpt>
      <trkpt lat="46.69556" lon="1.22815">
        <ele>103.8</ele>
        <time>2023-05-02T15:58:51Z</time>
      </trkpt>
      <trkpt lat="46.69574" lon="1.22818">
        <ele>103.6</ele>
        <time>2023-05-02T15:58:54Z</time>
      </trkpt>
      <trkpt lat="46.69579" lon="1.22819">
        <ele>103.8</ele>
        <time>2023-05-02T15:58:55Z</time>
      </trkpt>
      <trkpt lat="46.69588" lon="1.22821">
        <ele>103.6</ele>
        <time>2023-05-02T15:58:57Z</time>
      </trkpt>
      <trkpt lat="46.696" lon="1.22821">
        <ele>103.8</ele>
        <time>2023-05-02T15:58:59Z</time>
      </trkpt>
      <trkpt lat="46.69606" lon="1.22819">
        <ele>103.6</ele>
        <time>2023-05-02T15:59:00Z</time>
      </trkpt>
      <trkpt lat="46.69636" lon="1.22809">
        <ele>103.6</ele>
        <time>2023-05-02T15:59:05Z</time>
      </trkpt>
      <trkpt lat="46.69641" lon="1.22805">
        <ele>103.6</ele>
        <time>2023-05-02T15:59:06Z</time>
      </trkpt>
      <trkpt lat="46.69645" lon="1.22801">
        <ele>103.6</ele>
        <time>2023-05-02T15:59:07Z</time>
      </trkpt>
      <trkpt lat="46.69654" lon="1.2279">
        <ele>103.6</ele>
        <time>2023-05-02T15:59:09Z</time>
      </trkpt>
      <trkpt lat="46.6966" lon="1.22777">
        <ele>103.6</ele>
        <time>2023-05-02T15:59:11Z</time>
      </trkpt>
      <trkpt lat="46.69673" lon="1.2274">
        <ele>103.4</ele>
        <time>2023-05-02T15:59:16Z</time>
      </trkpt>
      <trkpt lat="46.69675" lon="1.22732">
        <ele>103.4</ele>
        <time>2023-05-02T15:59:17Z</time>
      </trkpt>
      <trkpt lat="46.69679" lon="1.22718">
        <ele>103.2</ele>
        <time>2023-05-02T15:59:19Z</time>
      </trkpt>
      <trkpt lat="46.69684" lon="1.22704">
        <ele>103.2</ele>
        <time>2023-05-02T15:59:21Z</time>
      </trkpt>
      <trkpt lat="46.69686" lon="1.22697">
        <ele>103</ele>
        <time>2023-05-02T15:59:22Z</time>
      </trkpt>
      <trkpt lat="46.69697" lon="1.22681">
        <ele>103</ele>
        <time>2023-05-02T15:59:25Z</time>
      </trkpt>
      <trkpt lat="46.69701" lon="1.22676">
        <ele>103</ele>
        <time>2023-05-02T15:59:26Z</time>
      </trkpt>
      <trkpt lat="46.69721" lon="1.2265">
        <ele>102.8</ele>
        <time>2023-05-02T15:59:31Z</time>
      </trkpt>
      <trkpt lat="46.69728" lon="1.22638">
        <ele>102.8</ele>
        <time>2023-05-02T15:59:33Z</time>
      </trkpt>
      <trkpt lat="46.69747" lon="1.22609">
        <ele>102.8</ele>
        <time>2023-05-02T15:59:38Z</time>
      </trkpt>
      <trkpt lat="46.69769" lon="1.22573">
        <ele>102.6</ele>
        <time>2023-05-02T15:59:44Z</time>
      </trkpt>
      <trkpt lat="46.69786" lon="1.22544">
        <ele>102.4</ele>
        <time>2023-05-02T15:59:49Z</time>
      </trkpt>
      <trkpt lat="46.69805" lon="1.22507">
        <ele>102.4</ele>
        <time>2023-05-02T15:59:55Z</time>
      </trkpt>
      <trkpt lat="46.69811" lon="1.22495">
        <ele>102.4</ele>
        <time>2023-05-02T15:59:57Z</time>
      </trkpt>
      <trkpt lat="46.69817" lon="1.22483">
        <ele>102.4</ele>
        <time>2023-05-02T15:59:59Z</time>
      </trkpt>
      <trkpt lat="46.6982" lon="1.22476">
        <ele>102.2</ele>
        <time>2023-05-02T16:00:00Z</time>
      </trkpt>
      <trkpt lat="46.69831" lon="1.22457">
        <ele>102.2</ele>
        <time>2023-05-02T16:00:03Z</time>
      </trkpt>
      <trkpt lat="46.69837" lon="1.22448">
        <ele>102.2</ele>
        <time>2023-05-02T16:00:05Z</time>
      </trkpt>
      <trkpt lat="46.69841" lon="1.22443">
        <ele>102.4</ele>
        <time>2023-05-02T16:00:06Z</time>
      </trkpt>
      <trkpt lat="46.69854" lon="1.22421">
        <ele>102.6</ele>
        <time>2023-05-02T16:00:10Z</time>
      </trkpt>
      <trkpt lat="46.69866" lon="1.22398">
        <ele>102.8</ele>
        <time>2023-05-02T16:00:14Z</time>
      </trkpt>
      <trkpt lat="46.69869" lon="1.22393">
        <ele>102.8</ele>
        <time>2023-05-02T16:00:15Z</time>
      </trkpt>
      <trkpt lat="46.69875" lon="1.22382">
        <ele>103</ele>
        <time>2023-05-02T16:00:17Z</time>
      </trkpt>
      <trkpt lat="46.69881" lon="1.2237">
        <ele>103.2</ele>
        <time>2023-05-02T16:00:19Z</time>
      </trkpt>
      <trkpt lat="46.69908" lon="1.22325">
        <ele>103.4</ele>
        <time>2023-05-02T16:00:27Z</time>
      </trkpt>
      <trkpt lat="46.69938" lon="1.22275">
        <ele>103.8</ele>
        <time>2023-05-02T16:00:36Z</time>
      </trkpt>
      <trkpt lat="46.69961" lon="1.22235">
        <ele>104.2</ele>
        <time>2023-05-02T16:00:43Z</time>
      </trkpt>
      <trkpt lat="46.69968" lon="1.22225">
        <ele>104.2</ele>
        <time>2023-05-02T16:00:45Z</time>
      </trkpt>
      <trkpt lat="46.69978" lon="1.22207">
        <ele>104.4</ele>
        <time>2023-05-02T16:00:48Z</time>
      </trkpt>
      <trkpt lat="46.70004" lon="1.22163">
        <ele>104.6</ele>
        <time>2023-05-02T16:00:56Z</time>
      </trkpt>
      <trkpt lat="46.70014" lon="1.22147">
        <ele>104.8</ele>
        <time>2023-05-02T16:00:59Z</time>
      </trkpt>
      <trkpt lat="46.70022" lon="1.22139">
        <ele>104.8</ele>
        <time>2023-05-02T16:01:01Z</time>
      </trkpt>
      <trkpt lat="46.70036" lon="1.22132">
        <ele>104.8</ele>
        <time>2023-05-02T16:01:04Z</time>
      </trkpt>
      <trkpt lat="46.70046" lon="1.2213">
        <ele>104.8</ele>
        <time>2023-05-02T16:01:06Z</time>
      </trkpt>
      <trkpt lat="46.70055" lon="1.22129">
        <ele>105</ele>
        <time>2023-05-02T16:01:08Z</time>
      </trkpt>
      <trkpt lat="46.70065" lon="1.22128">
        <ele>105</ele>
        <time>2023-05-02T16:01:10Z</time>
      </trkpt>
      <trkpt lat="46.70074" lon="1.22127">
        <ele>105.2</ele>
        <time>2023-05-02T16:01:12Z</time>
      </trkpt>
      <trkpt lat="46.70087" lon="1.22127">
        <ele>105.2</ele>
        <time>2023-05-02T16:01:16Z</time>
      </trkpt>
      <trkpt lat="46.70094" lon="1.22119">
        <ele>105.4</ele>
        <time>2023-05-02T16:01:20Z</time>
      </trkpt>
      <trkpt lat="46.70094" lon="1.22098">
        <ele>105.6</ele>
        <time>2023-05-02T16:01:24Z</time>
      </trkpt>
      <trkpt lat="46.70094" lon="1.22056">
        <ele>106</ele>
        <time>2023-05-02T16:01:30Z</time>
      </trkpt>
      <trkpt lat="46.70094" lon="1.22007">
        <ele>106.2</ele>
        <time>2023-05-02T16:01:36Z</time>
      </trkpt>
      <trkpt lat="46.70094" lon="1.2193">
        <ele>106.8</ele>
        <time>2023-05-02T16:01:45Z</time>
      </trkpt>
      <trkpt lat="46.70094" lon="1.21868">
        <ele>107.2</ele>
        <time>2023-05-02T16:01:52Z</time>
      </trkpt>
      <trkpt lat="46.70093" lon="1.21784">
        <ele>108</ele>
        <time>2023-05-02T16:02:01Z</time>
      </trkpt>
      <trkpt lat="46.70092" lon="1.21709">
        <ele>108.6</ele>
        <time>2023-05-02T16:02:09Z</time>
      </trkpt>
      <trkpt lat="46.70092" lon="1.21634">
        <ele>109</ele>
        <time>2023-05-02T16:02:17Z</time>
      </trkpt>
      <trkpt lat="46.70092" lon="1.21548">
        <ele>109.4</ele>
        <time>2023-05-02T16:02:26Z</time>
      </trkpt>
      <trkpt lat="46.7009" lon="1.21485">
        <ele>109.6</ele>
        <time>2023-05-02T16:02:33Z</time>
      </trkpt>
      <trkpt lat="46.70091" lon="1.2147">
        <ele>109.6</ele>
        <time>2023-05-02T16:02:35Z</time>
      </trkpt>
      <trkpt lat="46.70087" lon="1.21456">
        <ele>109.6</ele>
        <time>2023-05-02T16:02:37Z</time>
      </trkpt>
      <trkpt lat="46.70081" lon="1.2144">
        <ele>109.6</ele>
        <time>2023-05-02T16:02:40Z</time>
      </trkpt>
      <trkpt lat="46.70082" lon="1.21435">
        <ele>109.6</ele>
        <time>2023-05-02T16:02:41Z</time>
      </trkpt>
      <trkpt lat="46.70084" lon="1.21432">
        <ele>109.6</ele>
        <time>2023-05-02T16:02:42Z</time>
      </trkpt>
      <trkpt lat="46.7009" lon="1.21429">
        <ele>109.6</ele>
        <time>2023-05-02T16:02:44Z</time>
      </trkpt>
      <trkpt lat="46.70106" lon="1.21425">
        <ele>109.6</ele>
        <time>2023-05-02T16:02:51Z</time>
      </trkpt>
      <trkpt lat="46.70108" lon="1.21423">
        <ele>109.8</ele>
        <time>2023-05-02T16:02:52Z</time>
      </trkpt>
      <trkpt lat="46.7011" lon="1.21417">
        <ele>109.8</ele>
        <time>2023-05-02T16:02:54Z</time>
      </trkpt>
      <trkpt lat="46.70111" lon="1.21414">
        <ele>109.8</ele>
        <time>2023-05-02T16:02:55Z</time>
      </trkpt>
      <trkpt lat="46.70115" lon="1.21419">
        <ele>109.6</ele>
        <time>2023-05-02T16:02:58Z</time>
      </trkpt>
      <trkpt lat="46.70115" lon="1.21423">
        <ele>109.4</ele>
        <time>2023-05-02T16:02:59Z</time>
      </trkpt>
      <trkpt lat="46.70111" lon="1.21435">
        <ele>109.6</ele>
        <time>2023-05-02T16:03:02Z</time>
      </trkpt>
      <trkpt lat="46.70101" lon="1.21446">
        <ele>109.4</ele>
        <time>2023-05-02T16:03:06Z</time>
      </trkpt>
      <trkpt lat="46.70087" lon="1.21453">
        <ele>109.4</ele>
        <time>2023-05-02T16:03:11Z</time>
      </trkpt>
      <trkpt lat="46.70085" lon="1.21456">
        <ele>109.4</ele>
        <time>2023-05-02T16:03:12Z</time>
      </trkpt>
      <trkpt lat="46.70088" lon="1.21463">
        <ele>109.4</ele>
        <time>2023-05-02T16:03:14Z</time>
      </trkpt>
      <trkpt lat="46.70095" lon="1.21469">
        <ele>109.4</ele>
        <time>2023-05-02T16:03:16Z</time>
      </trkpt>
      <trkpt lat="46.70104" lon="1.21471">
        <ele>109.2</ele>
        <time>2023-05-02T16:03:18Z</time>
      </trkpt>
      <trkpt lat="46.70109" lon="1.21472">
        <ele>109.2</ele>
        <time>2023-05-02T16:03:19Z</time>
      </trkpt>
      <trkpt lat="46.70119" lon="1.21474">
        <ele>109.2</ele>
        <time>2023-05-02T16:03:21Z</time>
      </trkpt>
      <trkpt lat="46.7013" lon="1.21477">
        <ele>109.4</ele>
        <time>2023-05-02T16:03:23Z</time>
      </trkpt>
      <trkpt lat="46.70159" lon="1.2149">
        <ele>109.4</ele>
        <time>2023-05-02T16:03:29Z</time>
      </trkpt>
      <trkpt lat="46.70162" lon="1.21492">
        <ele>109.6</ele>
        <time>2023-05-02T16:03:30Z</time>
      </trkpt>
      <trkpt lat="46.70165" lon="1.21491">
        <ele>109.4</ele>
        <time>2023-05-02T16:03:31Z</time>
      </trkpt>
      <trkpt lat="46.70165" lon="1.21487">
        <ele>109.6</ele>
        <time>2023-05-02T16:03:33Z</time>
      </trkpt>
      <trkpt lat="46.7017" lon="1.21492">
        <ele>109.4</ele>
        <time>2023-05-02T16:05:49Z</time>
      </trkpt>
      <trkpt lat="46.70174" lon="1.21497">
        <ele>109.4</ele>
        <time>2023-05-02T16:05:51Z</time>
      </trkpt>
      <trkpt lat="46.7019" lon="1.21508">
        <ele>109.4</ele>
        <time>2023-05-02T16:05:56Z</time>
      </trkpt>
      <trkpt lat="46.70194" lon="1.21511">
        <ele>109.4</ele>
        <time>2023-05-02T16:05:57Z</time>
      </trkpt>
      <trkpt lat="46.70212" lon="1.21531">
        <ele>109.4</ele>
        <time>2023-05-02T16:06:02Z</time>
      </trkpt>
      <trkpt lat="46.70241" lon="1.21562">
        <ele>109.2</ele>
        <time>2023-05-02T16:06:09Z</time>
      </trkpt>
      <trkpt lat="46.70276" lon="1.21597">
        <ele>109.2</ele>
        <time>2023-05-02T16:06:17Z</time>
      </trkpt>
      <trkpt lat="46.70306" lon="1.21632">
        <ele>109.2</ele>
        <time>2023-05-02T16:06:24Z</time>
      </trkpt>
      <trkpt lat="46.70341" lon="1.21669">
        <ele>109.2</ele>
        <time>2023-05-02T16:06:32Z</time>
      </trkpt>
      <trkpt lat="46.70376" lon="1.21705">
        <ele>109.2</ele>
        <time>2023-05-02T16:06:40Z</time>
      </trkpt>
      <trkpt lat="46.70411" lon="1.21742">
        <ele>109.2</ele>
        <time>2023-05-02T16:06:48Z</time>
      </trkpt>
      <trkpt lat="46.70442" lon="1.21774">
        <ele>109.2</ele>
        <time>2023-05-02T16:06:55Z</time>
      </trkpt>
      <trkpt lat="46.70461" lon="1.21794">
        <ele>109.2</ele>
        <time>2023-05-02T16:07:00Z</time>
      </trkpt>
      <trkpt lat="46.70463" lon="1.21796">
        <ele>109.2</ele>
        <time>2023-05-02T16:07:01Z</time>
      </trkpt>
      <trkpt lat="46.70462" lon="1.21791">
        <ele>109.4</ele>
        <time>2023-05-02T16:07:03Z</time>
      </trkpt>
      <trkpt lat="46.70451" lon="1.21781">
        <ele>109.6</ele>
        <time>2023-05-02T16:07:07Z</time>
      </trkpt>
      <trkpt lat="46.7044" lon="1.21765">
        <ele>109.6</ele>
        <time>2023-05-02T16:07:11Z</time>
      </trkpt>
      <trkpt lat="46.70439" lon="1.2176">
        <ele>109.6</ele>
        <time>2023-05-02T16:07:12Z</time>
      </trkpt>
      <trkpt lat="46.70446" lon="1.21753">
        <ele>109.6</ele>
        <time>2023-05-02T16:07:14Z</time>
      </trkpt>
      <trkpt lat="46.7045" lon="1.21753">
        <ele>109.6</ele>
        <time>2023-05-02T16:07:15Z</time>
      </trkpt>
      <trkpt lat="46.70469" lon="1.21753">
        <ele>109.6</ele>
        <time>2023-05-02T16:07:19Z</time>
      </trkpt>
      <trkpt lat="46.70505" lon="1.21761">
        <ele>109.6</ele>
        <time>2023-05-02T16:07:26Z</time>
      </trkpt>
      <trkpt lat="46.70519" lon="1.21766">
        <ele>109.8</ele>
        <time>2023-05-02T16:07:29Z</time>
      </trkpt>
      <trkpt lat="46.70547" lon="1.21778">
        <ele>109.4</ele>
        <time>2023-05-02T16:07:34Z</time>
      </trkpt>
      <trkpt lat="46.70566" lon="1.2179">
        <ele>109.4</ele>
        <time>2023-05-02T16:07:38Z</time>
      </trkpt>
      <trkpt lat="46.70597" lon="1.21812">
        <ele>109.2</ele>
        <time>2023-05-02T16:07:44Z</time>
      </trkpt>
      <trkpt lat="46.70602" lon="1.21816">
        <ele>109.2</ele>
        <time>2023-05-02T16:07:45Z</time>
      </trkpt>
      <trkpt lat="46.70609" lon="1.2182">
        <ele>109.2</ele>
        <time>2023-05-02T16:07:47Z</time>
      </trkpt>
      <trkpt lat="46.70613" lon="1.21819">
        <ele>109.2</ele>
        <time>2023-05-02T16:07:48Z</time>
      </trkpt>
      <trkpt lat="46.70632" lon="1.21815">
        <ele>109</ele>
        <time>2023-05-02T16:07:53Z</time>
      </trkpt>
      <trkpt lat="46.70641" lon="1.21811">
        <ele>109</ele>
        <time>2023-05-02T16:07:55Z</time>
      </trkpt>
      <trkpt lat="46.70655" lon="1.21807">
        <ele>109</ele>
        <time>2023-05-02T16:07:58Z</time>
      </trkpt>
      <trkpt lat="46.7066" lon="1.21807">
        <ele>109</ele>
        <time>2023-05-02T16:07:59Z</time>
      </trkpt>
      <trkpt lat="46.7068" lon="1.2181">
        <ele>108.8</ele>
        <time>2023-05-02T16:08:03Z</time>
      </trkpt>
      <trkpt lat="46.70719" lon="1.21818">
        <ele>108.4</ele>
        <time>2023-05-02T16:08:11Z</time>
      </trkpt>
      <trkpt lat="46.7075" lon="1.21825">
        <ele>108.2</ele>
        <time>2023-05-02T16:08:17Z</time>
      </trkpt>
      <trkpt lat="46.7076" lon="1.21828">
        <ele>108</ele>
        <time>2023-05-02T16:08:19Z</time>
      </trkpt>
      <trkpt lat="46.70774" lon="1.21833">
        <ele>107.8</ele>
        <time>2023-05-02T16:08:22Z</time>
      </trkpt>
      <trkpt lat="46.70779" lon="1.21835">
        <ele>107.8</ele>
        <time>2023-05-02T16:08:23Z</time>
      </trkpt>
      <trkpt lat="46.70805" lon="1.21846">
        <ele>107.4</ele>
        <time>2023-05-02T16:08:28Z</time>
      </trkpt>
      <trkpt lat="46.70834" lon="1.21857">
        <ele>107</ele>
        <time>2023-05-02T16:08:34Z</time>
      </trkpt>
      <trkpt lat="46.70855" lon="1.21866">
        <ele>106.8</ele>
        <time>2023-05-02T16:08:38Z</time>
      </trkpt>
      <trkpt lat="46.70865" lon="1.21867">
        <ele>106.8</ele>
        <time>2023-05-02T16:08:40Z</time>
      </trkpt>
      <trkpt lat="46.70875" lon="1.21866">
        <ele>106.8</ele>
        <time>2023-05-02T16:08:42Z</time>
      </trkpt>
      <trkpt lat="46.70885" lon="1.21863">
        <ele>106.8</ele>
        <time>2023-05-02T16:08:44Z</time>
      </trkpt>
      <trkpt lat="46.70897" lon="1.2186">
        <ele>107</ele>
        <time>2023-05-02T16:08:46Z</time>
      </trkpt>
      <trkpt lat="46.70913" lon="1.21862">
        <ele>106.8</ele>
        <time>2023-05-02T16:08:49Z</time>
      </trkpt>
      <trkpt lat="46.70922" lon="1.21863">
        <ele>107</ele>
        <time>2023-05-02T16:08:51Z</time>
      </trkpt>
      <trkpt lat="46.70927" lon="1.21864">
        <ele>107</ele>
        <time>2023-05-02T16:08:52Z</time>
      </trkpt>
      <trkpt lat="46.70941" lon="1.21869">
        <ele>106.8</ele>
        <time>2023-05-02T16:08:55Z</time>
      </trkpt>
      <trkpt lat="46.70962" lon="1.21875">
        <ele>107.2</ele>
        <time>2023-05-02T16:09:00Z</time>
      </trkpt>
      <trkpt lat="46.70977" lon="1.21879">
        <ele>107.4</ele>
        <time>2023-05-02T16:09:04Z</time>
      </trkpt>
      <trkpt lat="46.70982" lon="1.21879">
        <ele>107.4</ele>
        <time>2023-05-02T16:09:05Z</time>
      </trkpt>
      <trkpt lat="46.70991" lon="1.2188">
        <ele>107.6</ele>
        <time>2023-05-02T16:09:07Z</time>
      </trkpt>
      <trkpt lat="46.71" lon="1.21881">
        <ele>107.6</ele>
        <time>2023-05-02T16:09:09Z</time>
      </trkpt>
      <trkpt lat="46.71017" lon="1.21883">
        <ele>108</ele>
        <time>2023-05-02T16:09:13Z</time>
      </trkpt>
      <trkpt lat="46.71044" lon="1.21883">
        <ele>108.6</ele>
        <time>2023-05-02T16:09:19Z</time>
      </trkpt>
      <trkpt lat="46.71072" lon="1.21876">
        <ele>109</ele>
        <time>2023-05-02T16:09:25Z</time>
      </trkpt>
      <trkpt lat="46.71099" lon="1.21875">
        <ele>109.4</ele>
        <time>2023-05-02T16:09:31Z</time>
      </trkpt>
      <trkpt lat="46.71114" lon="1.21877">
        <ele>109.6</ele>
        <time>2023-05-02T16:09:35Z</time>
      </trkpt>
      <trkpt lat="46.71136" lon="1.21879">
        <ele>109.8</ele>
        <time>2023-05-02T16:09:40Z</time>
      </trkpt>
      <trkpt lat="46.71142" lon="1.21878">
        <ele>109.8</ele>
        <time>2023-05-02T16:09:42Z</time>
      </trkpt>
      <trkpt lat="46.71146" lon="1.21878">
        <ele>109.8</ele>
        <time>2023-05-02T16:09:43Z</time>
      </trkpt>
      <trkpt lat="46.71166" lon="1.21878">
        <ele>110.2</ele>
        <time>2023-05-02T16:09:47Z</time>
      </trkpt>
      <trkpt lat="46.71179" lon="1.21878">
        <ele>110.4</ele>
        <time>2023-05-02T16:09:50Z</time>
      </trkpt>
      <trkpt lat="46.71188" lon="1.21879">
        <ele>110.4</ele>
        <time>2023-05-02T16:09:52Z</time>
      </trkpt>
      <trkpt lat="46.71205" lon="1.21878">
        <ele>110.6</ele>
        <time>2023-05-02T16:09:56Z</time>
      </trkpt>
      <trkpt lat="46.7122" lon="1.21875">
        <ele>110.6</ele>
        <time>2023-05-02T16:10:00Z</time>
      </trkpt>
      <trkpt lat="46.71237" lon="1.21876">
        <ele>110.8</ele>
        <time>2023-05-02T16:10:04Z</time>
      </trkpt>
      <trkpt lat="46.71258" lon="1.21882">
        <ele>110.6</ele>
        <time>2023-05-02T16:10:08Z</time>
      </trkpt>
      <trkpt lat="46.7128" lon="1.21887">
        <ele>110.6</ele>
        <time>2023-05-02T16:10:13Z</time>
      </trkpt>
      <trkpt lat="46.71297" lon="1.21891">
        <ele>110.8</ele>
        <time>2023-05-02T16:10:17Z</time>
      </trkpt>
      <trkpt lat="46.71315" lon="1.21897">
        <ele>111</ele>
        <time>2023-05-02T16:10:21Z</time>
      </trkpt>
      <trkpt lat="46.71329" lon="1.219">
        <ele>110.8</ele>
        <time>2023-05-02T16:10:24Z</time>
      </trkpt>
      <trkpt lat="46.71339" lon="1.21902">
        <ele>110.6</ele>
        <time>2023-05-02T16:10:26Z</time>
      </trkpt>
      <trkpt lat="46.71359" lon="1.21907">
        <ele>110.6</ele>
        <time>2023-05-02T16:10:31Z</time>
      </trkpt>
      <trkpt lat="46.71373" lon="1.21909">
        <ele>110.6</ele>
        <time>2023-05-02T16:10:34Z</time>
      </trkpt>
      <trkpt lat="46.71381" lon="1.2191">
        <ele>110.6</ele>
        <time>2023-05-02T16:10:36Z</time>
      </trkpt>
      <trkpt lat="46.7139" lon="1.21912">
        <ele>111</ele>
        <time>2023-05-02T16:10:38Z</time>
      </trkpt>
      <trkpt lat="46.714" lon="1.21914">
        <ele>110.8</ele>
        <time>2023-05-02T16:10:40Z</time>
      </trkpt>
      <trkpt lat="46.7142" lon="1.21921">
        <ele>111</ele>
        <time>2023-05-02T16:10:45Z</time>
      </trkpt>
      <trkpt lat="46.71438" lon="1.21929">
        <ele>111.2</ele>
        <time>2023-05-02T16:10:50Z</time>
      </trkpt>
      <trkpt lat="46.71465" lon="1.21938">
        <ele>111</ele>
        <time>2023-05-02T16:10:55Z</time>
      </trkpt>
      <trkpt lat="46.7149" lon="1.21947">
        <ele>111</ele>
        <time>2023-05-02T16:11:00Z</time>
      </trkpt>
      <trkpt lat="46.71507" lon="1.21944">
        <ele>111</ele>
        <time>2023-05-02T16:11:04Z</time>
      </trkpt>
      <trkpt lat="46.71521" lon="1.21942">
        <ele>111</ele>
        <time>2023-05-02T16:11:07Z</time>
      </trkpt>
      <trkpt lat="46.71526" lon="1.21941">
        <ele>111</ele>
        <time>2023-05-02T16:11:08Z</time>
      </trkpt>
      <trkpt lat="46.71531" lon="1.21941">
        <ele>111</ele>
        <time>2023-05-02T16:11:09Z</time>
      </trkpt>
      <trkpt lat="46.71543" lon="1.21943">
        <ele>110.8</ele>
        <time>2023-05-02T16:11:12Z</time>
      </trkpt>
      <trkpt lat="46.71547" lon="1.21943">
        <ele>110.8</ele>
        <time>2023-05-02T16:11:13Z</time>
      </trkpt>
      <trkpt lat="46.71571" lon="1.21943">
        <ele>111</ele>
        <time>2023-05-02T16:11:18Z</time>
      </trkpt>
      <trkpt lat="46.7158" lon="1.21942">
        <ele>111</ele>
        <time>2023-05-02T16:11:20Z</time>
      </trkpt>
      <trkpt lat="46.71594" lon="1.21942">
        <ele>110.8</ele>
        <time>2023-05-02T16:11:23Z</time>
      </trkpt>
      <trkpt lat="46.71609" lon="1.21943">
        <ele>110.8</ele>
        <time>2023-05-02T16:11:26Z</time>
      </trkpt>
      <trkpt lat="46.71619" lon="1.21945">
        <ele>111</ele>
        <time>2023-05-02T16:11:28Z</time>
      </trkpt>
      <trkpt lat="46.71624" lon="1.21946">
        <ele>110.8</ele>
        <time>2023-05-02T16:11:29Z</time>
      </trkpt>
      <trkpt lat="46.71641" lon="1.21945">
        <ele>110.8</ele>
        <time>2023-05-02T16:11:32Z</time>
      </trkpt>
      <trkpt lat="46.71664" lon="1.21947">
        <ele>110.6</ele>
        <time>2023-05-02T16:11:37Z</time>
      </trkpt>
      <trkpt lat="46.71674" lon="1.21948">
        <ele>110.6</ele>
        <time>2023-05-02T16:11:39Z</time>
      </trkpt>
      <trkpt lat="46.71684" lon="1.21947">
        <ele>110.4</ele>
        <time>2023-05-02T16:11:41Z</time>
      </trkpt>
      <trkpt lat="46.71698" lon="1.21944">
        <ele>110.2</ele>
        <time>2023-05-02T16:11:44Z</time>
      </trkpt>
      <trkpt lat="46.71715" lon="1.21939">
        <ele>109.8</ele>
        <time>2023-05-02T16:11:48Z</time>
      </trkpt>
      <trkpt lat="46.71729" lon="1.21936">
        <ele>109.6</ele>
        <time>2023-05-02T16:11:51Z</time>
      </trkpt>
      <trkpt lat="46.71734" lon="1.21935">
        <ele>109.6</ele>
        <time>2023-05-02T16:11:52Z</time>
      </trkpt>
      <trkpt lat="46.71754" lon="1.21933">
        <ele>109.4</ele>
        <time>2023-05-02T16:11:56Z</time>
      </trkpt>
      <trkpt lat="46.71771" lon="1.21932">
        <ele>109.2</ele>
        <time>2023-05-02T16:11:59Z</time>
      </trkpt>
      <trkpt lat="46.71783" lon="1.21932">
        <ele>109</ele>
        <time>2023-05-02T16:12:01Z</time>
      </trkpt>
      <trkpt lat="46.7181" lon="1.2193">
        <ele>108.6</ele>
        <time>2023-05-02T16:12:06Z</time>
      </trkpt>
      <trkpt lat="46.7182" lon="1.21931">
        <ele>108.4</ele>
        <time>2023-05-02T16:12:08Z</time>
      </trkpt>
      <trkpt lat="46.71829" lon="1.2193">
        <ele>108.4</ele>
        <time>2023-05-02T16:12:10Z</time>
      </trkpt>
      <trkpt lat="46.71834" lon="1.21929">
        <ele>108.2</ele>
        <time>2023-05-02T16:12:11Z</time>
      </trkpt>
      <trkpt lat="46.71848" lon="1.21927">
        <ele>108.2</ele>
        <time>2023-05-02T16:12:14Z</time>
      </trkpt>
      <trkpt lat="46.71857" lon="1.21925">
        <ele>108.2</ele>
        <time>2023-05-02T16:12:16Z</time>
      </trkpt>
      <trkpt lat="46.71885" lon="1.21918">
        <ele>108</ele>
        <time>2023-05-02T16:12:22Z</time>
      </trkpt>
      <trkpt lat="46.71889" lon="1.21918">
        <ele>107.8</ele>
        <time>2023-05-02T16:12:23Z</time>
      </trkpt>
      <trkpt lat="46.71899" lon="1.21917">
        <ele>107.8</ele>
        <time>2023-05-02T16:12:25Z</time>
      </trkpt>
      <trkpt lat="46.71912" lon="1.21917">
        <ele>107.6</ele>
        <time>2023-05-02T16:12:28Z</time>
      </trkpt>
      <trkpt lat="46.71929" lon="1.21916">
        <ele>107.8</ele>
        <time>2023-05-02T16:12:32Z</time>
      </trkpt>
      <trkpt lat="46.71956" lon="1.21914">
        <ele>107.8</ele>
        <time>2023-05-02T16:12:39Z</time>
      </trkpt>
      <trkpt lat="46.71973" lon="1.21907">
        <ele>107.6</ele>
        <time>2023-05-02T16:12:44Z</time>
      </trkpt>
      <trkpt lat="46.71986" lon="1.21905">
        <ele>107.6</ele>
        <time>2023-05-02T16:12:48Z</time>
      </trkpt>
      <trkpt lat="46.71997" lon="1.21907">
        <ele>107.8</ele>
        <time>2023-05-02T16:12:52Z</time>
      </trkpt>
      <trkpt lat="46.72011" lon="1.21907">
        <ele>107.6</ele>
        <time>2023-05-02T16:12:56Z</time>
      </trkpt>
      <trkpt lat="46.72031" lon="1.21911">
        <ele>107.6</ele>
        <time>2023-05-02T16:13:01Z</time>
      </trkpt>
      <trkpt lat="46.72051" lon="1.21929">
        <ele>107.6</ele>
        <time>2023-05-02T16:13:07Z</time>
      </trkpt>
      <trkpt lat="46.72071" lon="1.21943">
        <ele>107.2</ele>
        <time>2023-05-02T16:13:14Z</time>
      </trkpt>
      <trkpt lat="46.7208" lon="1.21951">
        <ele>107.2</ele>
        <time>2023-05-02T16:13:19Z</time>
      </trkpt>
      <trkpt lat="46.7208" lon="1.21951">
        <ele>107.2</ele>
        <time>2023-05-02T16:13:20Z</time>
      </trkpt>
      <trkpt lat="46.72084" lon="1.21955">
        <ele>106.8</ele>
        <time>2023-05-02T16:13:30Z</time>
      </trkpt>
      <trkpt lat="46.72086" lon="1.21957">
        <ele>106.8</ele>
        <time>2023-05-02T16:13:31Z</time>
      </trkpt>
      <trkpt lat="46.72097" lon="1.21964">
        <ele>106.8</ele>
        <time>2023-05-02T16:13:35Z</time>
      </trkpt>
      <trkpt lat="46.72115" lon="1.21973">
        <ele>106.8</ele>
        <time>2023-05-02T16:13:41Z</time>
      </trkpt>
      <trkpt lat="46.72129" lon="1.2198">
        <ele>106.8</ele>
        <time>2023-05-02T16:13:46Z</time>
      </trkpt>
      <trkpt lat="46.72154" lon="1.21988">
        <ele>106.6</ele>
        <time>2023-05-02T16:13:52Z</time>
      </trkpt>
      <trkpt lat="46.72185" lon="1.21995">
        <ele>106.4</ele>
        <time>2023-05-02T16:13:59Z</time>
      </trkpt>
      <trkpt lat="46.72215" lon="1.22003">
        <ele>106.2</ele>
        <time>2023-05-02T16:14:05Z</time>
      </trkpt>
      <trkpt lat="46.72237" lon="1.22009">
        <ele>106.2</ele>
        <time>2023-05-02T16:14:10Z</time>
      </trkpt>
      <trkpt lat="46.72245" lon="1.2201">
        <ele>106.2</ele>
        <time>2023-05-02T16:14:12Z</time>
      </trkpt>
      <trkpt lat="46.72278" lon="1.22018">
        <ele>105.8</ele>
        <time>2023-05-02T16:14:19Z</time>
      </trkpt>
      <trkpt lat="46.72304" lon="1.22032">
        <ele>105.6</ele>
        <time>2023-05-02T16:14:25Z</time>
      </trkpt>
      <trkpt lat="46.72309" lon="1.22034">
        <ele>105.6</ele>
        <time>2023-05-02T16:14:26Z</time>
      </trkpt>
      <trkpt lat="46.72314" lon="1.22035">
        <ele>105.6</ele>
        <time>2023-05-02T16:14:27Z</time>
      </trkpt>
      <trkpt lat="46.72333" lon="1.22034">
        <ele>105.4</ele>
        <time>2023-05-02T16:14:31Z</time>
      </trkpt>
      <trkpt lat="46.72362" lon="1.22035">
        <ele>105.2</ele>
        <time>2023-05-02T16:14:37Z</time>
      </trkpt>
      <trkpt lat="46.72367" lon="1.22036">
        <ele>105.2</ele>
        <time>2023-05-02T16:14:38Z</time>
      </trkpt>
      <trkpt lat="46.7239" lon="1.22039">
        <ele>105.2</ele>
        <time>2023-05-02T16:14:43Z</time>
      </trkpt>
      <trkpt lat="46.72394" lon="1.22039">
        <ele>105.2</ele>
        <time>2023-05-02T16:14:44Z</time>
      </trkpt>
      <trkpt lat="46.72419" lon="1.2204">
        <ele>105.2</ele>
        <time>2023-05-02T16:14:49Z</time>
      </trkpt>
      <trkpt lat="46.72429" lon="1.22038">
        <ele>105.2</ele>
        <time>2023-05-02T16:14:51Z</time>
      </trkpt>
      <trkpt lat="46.72458" lon="1.22034">
        <ele>105.2</ele>
        <time>2023-05-02T16:14:57Z</time>
      </trkpt>
      <trkpt lat="46.72484" lon="1.22031">
        <ele>105</ele>
        <time>2023-05-02T16:15:03Z</time>
      </trkpt>
      <trkpt lat="46.72511" lon="1.22025">
        <ele>105</ele>
        <time>2023-05-02T16:15:09Z</time>
      </trkpt>
      <trkpt lat="46.72534" lon="1.22023">
        <ele>104.8</ele>
        <time>2023-05-02T16:15:14Z</time>
      </trkpt>
      <trkpt lat="46.72539" lon="1.22024">
        <ele>104.8</ele>
        <time>2023-05-02T16:15:15Z</time>
      </trkpt>
      <trkpt lat="46.7256" lon="1.22025">
        <ele>104.8</ele>
        <time>2023-05-02T16:15:20Z</time>
      </trkpt>
      <trkpt lat="46.72578" lon="1.22024">
        <ele>104.8</ele>
        <time>2023-05-02T16:15:24Z</time>
      </trkpt>
      <trkpt lat="46.72583" lon="1.22024">
        <ele>104.8</ele>
        <time>2023-05-02T16:15:25Z</time>
      </trkpt>
      <trkpt lat="46.72615" lon="1.22026">
        <ele>104.6</ele>
        <time>2023-05-02T16:15:32Z</time>
      </trkpt>
      <trkpt lat="46.72643" lon="1.22028">
        <ele>104.2</ele>
        <time>2023-05-02T16:15:38Z</time>
      </trkpt>
      <trkpt lat="46.72673" lon="1.22031">
        <ele>103.8</ele>
        <time>2023-05-02T16:15:45Z</time>
      </trkpt>
      <trkpt lat="46.72695" lon="1.22033">
        <ele>103.8</ele>
        <time>2023-05-02T16:15:50Z</time>
      </trkpt>
      <trkpt lat="46.727" lon="1.22034">
        <ele>103.8</ele>
        <time>2023-05-02T16:15:51Z</time>
      </trkpt>
      <trkpt lat="46.72717" lon="1.22035">
        <ele>103.6</ele>
        <time>2023-05-02T16:15:54Z</time>
      </trkpt>
      <trkpt lat="46.72739" lon="1.22036">
        <ele>103.6</ele>
        <time>2023-05-02T16:15:58Z</time>
      </trkpt>
      <trkpt lat="46.72744" lon="1.22036">
        <ele>103.6</ele>
        <time>2023-05-02T16:15:59Z</time>
      </trkpt>
      <trkpt lat="46.72761" lon="1.22029">
        <ele>103.4</ele>
        <time>2023-05-02T16:16:03Z</time>
      </trkpt>
      <trkpt lat="46.72782" lon="1.22029">
        <ele>103.2</ele>
        <time>2023-05-02T16:16:08Z</time>
      </trkpt>
      <trkpt lat="46.72792" lon="1.2203">
        <ele>103</ele>
        <time>2023-05-02T16:16:10Z</time>
      </trkpt>
      <trkpt lat="46.72809" lon="1.22032">
        <ele>102.8</ele>
        <time>2023-05-02T16:16:13Z</time>
      </trkpt>
      <trkpt lat="46.72851" lon="1.2204">
        <ele>102.6</ele>
        <time>2023-05-02T16:16:20Z</time>
      </trkpt>
      <trkpt lat="46.72883" lon="1.22047">
        <ele>102.4</ele>
        <time>2023-05-02T16:16:26Z</time>
      </trkpt>
      <trkpt lat="46.72916" lon="1.22058">
        <ele>102.2</ele>
        <time>2023-05-02T16:16:32Z</time>
      </trkpt>
      <trkpt lat="46.72936" lon="1.22066">
        <ele>102</ele>
        <time>2023-05-02T16:16:36Z</time>
      </trkpt>
      <trkpt lat="46.72942" lon="1.22066">
        <ele>102</ele>
        <time>2023-05-02T16:16:37Z</time>
      </trkpt>
      <trkpt lat="46.72995" lon="1.22055">
        <ele>102</ele>
        <time>2023-05-02T16:16:46Z</time>
      </trkpt>
      <trkpt lat="46.73037" lon="1.22045">
        <ele>101.6</ele>
        <time>2023-05-02T16:16:53Z</time>
      </trkpt>
      <trkpt lat="46.73073" lon="1.22038">
        <ele>101.4</ele>
        <time>2023-05-02T16:16:59Z</time>
      </trkpt>
      <trkpt lat="46.73084" lon="1.22038">
        <ele>101.2</ele>
        <time>2023-05-02T16:17:01Z</time>
      </trkpt>
      <trkpt lat="46.73102" lon="1.22036">
        <ele>101.2</ele>
        <time>2023-05-02T16:17:04Z</time>
      </trkpt>
      <trkpt lat="46.73133" lon="1.22032">
        <ele>101</ele>
        <time>2023-05-02T16:17:09Z</time>
      </trkpt>
      <trkpt lat="46.73145" lon="1.22032">
        <ele>100.8</ele>
        <time>2023-05-02T16:17:11Z</time>
      </trkpt>
      <trkpt lat="46.73158" lon="1.22033">
        <ele>100.6</ele>
        <time>2023-05-02T16:17:13Z</time>
      </trkpt>
      <trkpt lat="46.7317" lon="1.22037">
        <ele>100.4</ele>
        <time>2023-05-02T16:17:15Z</time>
      </trkpt>
      <trkpt lat="46.73175" lon="1.22041">
        <ele>100.4</ele>
        <time>2023-05-02T16:17:16Z</time>
      </trkpt>
      <trkpt lat="46.73212" lon="1.2207">
        <ele>100.2</ele>
        <time>2023-05-02T16:17:23Z</time>
      </trkpt>
      <trkpt lat="46.73251" lon="1.22096">
        <ele>100</ele>
        <time>2023-05-02T16:17:30Z</time>
      </trkpt>
      <trkpt lat="46.73282" lon="1.22114">
        <ele>100</ele>
        <time>2023-05-02T16:17:36Z</time>
      </trkpt>
      <trkpt lat="46.7332" lon="1.22135">
        <ele>99.8</ele>
        <time>2023-05-02T16:17:43Z</time>
      </trkpt>
      <trkpt lat="46.73334" lon="1.22143">
        <ele>99.6</ele>
        <time>2023-05-02T16:17:46Z</time>
      </trkpt>
      <trkpt lat="46.73347" lon="1.22152">
        <ele>99.4</ele>
        <time>2023-05-02T16:17:49Z</time>
      </trkpt>
      <trkpt lat="46.73381" lon="1.22168">
        <ele>99.2</ele>
        <time>2023-05-02T16:17:57Z</time>
      </trkpt>
      <trkpt lat="46.73416" lon="1.22182">
        <ele>98.6</ele>
        <time>2023-05-02T16:18:04Z</time>
      </trkpt>
      <trkpt lat="46.73449" lon="1.22191">
        <ele>98.2</ele>
        <time>2023-05-02T16:18:10Z</time>
      </trkpt>
      <trkpt lat="46.73484" lon="1.22199">
        <ele>97.8</ele>
        <time>2023-05-02T16:18:16Z</time>
      </trkpt>
      <trkpt lat="46.73513" lon="1.22206">
        <ele>97.8</ele>
        <time>2023-05-02T16:18:21Z</time>
      </trkpt>
      <trkpt lat="46.7354" lon="1.22217">
        <ele>97.6</ele>
        <time>2023-05-02T16:18:26Z</time>
      </trkpt>
      <trkpt lat="46.73545" lon="1.2222">
        <ele>97.6</ele>
        <time>2023-05-02T16:18:27Z</time>
      </trkpt>
      <trkpt lat="46.73576" lon="1.2224">
        <ele>97.4</ele>
        <time>2023-05-02T16:18:33Z</time>
      </trkpt>
      <trkpt lat="46.73585" lon="1.22246">
        <ele>97.4</ele>
        <time>2023-05-02T16:18:35Z</time>
      </trkpt>
      <trkpt lat="46.73599" lon="1.22257">
        <ele>97.2</ele>
        <time>2023-05-02T16:18:38Z</time>
      </trkpt>
      <trkpt lat="46.73632" lon="1.22277">
        <ele>97</ele>
        <time>2023-05-02T16:18:44Z</time>
      </trkpt>
      <trkpt lat="46.73647" lon="1.2229">
        <ele>97</ele>
        <time>2023-05-02T16:18:47Z</time>
      </trkpt>
      <trkpt lat="46.73655" lon="1.22301">
        <ele>97</ele>
        <time>2023-05-02T16:18:49Z</time>
      </trkpt>
      <trkpt lat="46.73676" lon="1.22335">
        <ele>96.6</ele>
        <time>2023-05-02T16:18:54Z</time>
      </trkpt>
      <trkpt lat="46.73685" lon="1.22347">
        <ele>96.6</ele>
        <time>2023-05-02T16:18:56Z</time>
      </trkpt>
      <trkpt lat="46.73701" lon="1.22372">
        <ele>96.4</ele>
        <time>2023-05-02T16:19:00Z</time>
      </trkpt>
      <trkpt lat="46.73713" lon="1.22392">
        <ele>96.2</ele>
        <time>2023-05-02T16:19:04Z</time>
      </trkpt>
      <trkpt lat="46.73724" lon="1.22405">
        <ele>96</ele>
        <time>2023-05-02T16:19:08Z</time>
      </trkpt>
      <trkpt lat="46.73754" lon="1.22413">
        <ele>95.8</ele>
        <time>2023-05-02T16:19:13Z</time>
      </trkpt>
      <trkpt lat="46.73787" lon="1.22422">
        <ele>95.6</ele>
        <time>2023-05-02T16:19:18Z</time>
      </trkpt>
      <trkpt lat="46.73793" lon="1.22424">
        <ele>95.4</ele>
        <time>2023-05-02T16:19:19Z</time>
      </trkpt>
      <trkpt lat="46.73815" lon="1.2243">
        <ele>95.2</ele>
        <time>2023-05-02T16:19:23Z</time>
      </trkpt>
      <trkpt lat="46.73826" lon="1.22431">
        <ele>95.2</ele>
        <time>2023-05-02T16:19:25Z</time>
      </trkpt>
      <trkpt lat="46.73844" lon="1.22434">
        <ele>95</ele>
        <time>2023-05-02T16:19:28Z</time>
      </trkpt>
      <trkpt lat="46.73881" lon="1.22435">
        <ele>94.6</ele>
        <time>2023-05-02T16:19:34Z</time>
      </trkpt>
      <trkpt lat="46.73909" lon="1.22431">
        <ele>94.6</ele>
        <time>2023-05-02T16:19:39Z</time>
      </trkpt>
      <trkpt lat="46.73938" lon="1.22422">
        <ele>94.4</ele>
        <time>2023-05-02T16:19:44Z</time>
      </trkpt>
      <trkpt lat="46.73975" lon="1.22416">
        <ele>94.2</ele>
        <time>2023-05-02T16:19:50Z</time>
      </trkpt>
      <trkpt lat="46.74008" lon="1.22415">
        <ele>93.8</ele>
        <time>2023-05-02T16:19:56Z</time>
      </trkpt>
      <trkpt lat="46.74039" lon="1.22415">
        <ele>93.8</ele>
        <time>2023-05-02T16:20:03Z</time>
      </trkpt>
      <trkpt lat="46.74055" lon="1.22417">
        <ele>93.6</ele>
        <time>2023-05-02T16:20:08Z</time>
      </trkpt>
      <trkpt lat="46.74077" lon="1.22424">
        <ele>93.4</ele>
        <time>2023-05-02T16:20:14Z</time>
      </trkpt>
      <trkpt lat="46.74097" lon="1.22421">
        <ele>93.4</ele>
        <time>2023-05-02T16:20:19Z</time>
      </trkpt>
      <trkpt lat="46.74115" lon="1.22409">
        <ele>93.4</ele>
        <time>2023-05-02T16:20:24Z</time>
      </trkpt>
      <trkpt lat="46.7415" lon="1.22385">
        <ele>93.4</ele>
        <time>2023-05-02T16:20:32Z</time>
      </trkpt>
      <trkpt lat="46.7416" lon="1.22379">
        <ele>93.4</ele>
        <time>2023-05-02T16:20:34Z</time>
      </trkpt>
      <trkpt lat="46.74174" lon="1.22376">
        <ele>93.4</ele>
        <time>2023-05-02T16:20:37Z</time>
      </trkpt>
      <trkpt lat="46.74197" lon="1.22378">
        <ele>93.2</ele>
        <time>2023-05-02T16:20:42Z</time>
      </trkpt>
      <trkpt lat="46.74201" lon="1.22379">
        <ele>93.2</ele>
        <time>2023-05-02T16:20:43Z</time>
      </trkpt>
      <trkpt lat="46.74221" lon="1.22381">
        <ele>93.4</ele>
        <time>2023-05-02T16:20:47Z</time>
      </trkpt>
      <trkpt lat="46.74237" lon="1.22383">
        <ele>93.4</ele>
        <time>2023-05-02T16:20:50Z</time>
      </trkpt>
      <trkpt lat="46.74248" lon="1.22385">
        <ele>93.4</ele>
        <time>2023-05-02T16:20:52Z</time>
      </trkpt>
      <trkpt lat="46.74285" lon="1.2239">
        <ele>93.4</ele>
        <time>2023-05-02T16:20:59Z</time>
      </trkpt>
      <trkpt lat="46.74317" lon="1.22389">
        <ele>93.4</ele>
        <time>2023-05-02T16:21:05Z</time>
      </trkpt>
      <trkpt lat="46.74339" lon="1.22375">
        <ele>93.2</ele>
        <time>2023-05-02T16:21:10Z</time>
      </trkpt>
      <trkpt lat="46.74356" lon="1.22362">
        <ele>93</ele>
        <time>2023-05-02T16:21:15Z</time>
      </trkpt>
      <trkpt lat="46.74359" lon="1.22358">
        <ele>92.6</ele>
        <time>2023-05-02T16:21:19Z</time>
      </trkpt>
      <trkpt lat="46.74391" lon="1.22373">
        <ele>91.2</ele>
        <time>2023-05-02T16:22:29Z</time>
      </trkpt>
      <trkpt lat="46.74396" lon="1.22372">
        <ele>91.2</ele>
        <time>2023-05-02T16:22:31Z</time>
      </trkpt>
      <trkpt lat="46.74417" lon="1.22367">
        <ele>91.2</ele>
        <time>2023-05-02T16:22:37Z</time>
      </trkpt>
      <trkpt lat="46.74425" lon="1.2237">
        <ele>91.2</ele>
        <time>2023-05-02T16:22:41Z</time>
      </trkpt>
      <trkpt lat="46.74444" lon="1.2236">
        <ele>91.4</ele>
        <time>2023-05-02T16:23:19Z</time>
      </trkpt>
      <trkpt lat="46.74448" lon="1.22356">
        <ele>91.4</ele>
        <time>2023-05-02T16:23:21Z</time>
      </trkpt>
      <trkpt lat="46.74462" lon="1.22345">
        <ele>91.6</ele>
        <time>2023-05-02T16:23:26Z</time>
      </trkpt>
      <trkpt lat="46.74492" lon="1.22335">
        <ele>91.6</ele>
        <time>2023-05-02T16:23:33Z</time>
      </trkpt>
      <trkpt lat="46.74534" lon="1.22321">
        <ele>91.6</ele>
        <time>2023-05-02T16:23:42Z</time>
      </trkpt>
      <trkpt lat="46.74558" lon="1.22318">
        <ele>91.6</ele>
        <time>2023-05-02T16:23:47Z</time>
      </trkpt>
      <trkpt lat="46.74563" lon="1.22319">
        <ele>91.6</ele>
        <time>2023-05-02T16:23:48Z</time>
      </trkpt>
      <trkpt lat="46.74598" lon="1.22327">
        <ele>91.6</ele>
        <time>2023-05-02T16:23:55Z</time>
      </trkpt>
      <trkpt lat="46.74628" lon="1.22334">
        <ele>91.8</ele>
        <time>2023-05-02T16:24:01Z</time>
      </trkpt>
      <trkpt lat="46.74655" lon="1.22339">
        <ele>92</ele>
        <time>2023-05-02T16:24:06Z</time>
      </trkpt>
      <trkpt lat="46.74661" lon="1.22341">
        <ele>92</ele>
        <time>2023-05-02T16:24:07Z</time>
      </trkpt>
      <trkpt lat="46.74671" lon="1.22346">
        <ele>92</ele>
        <time>2023-05-02T16:24:09Z</time>
      </trkpt>
      <trkpt lat="46.74679" lon="1.22352">
        <ele>92</ele>
        <time>2023-05-02T16:24:11Z</time>
      </trkpt>
      <trkpt lat="46.74697" lon="1.22364">
        <ele>92</ele>
        <time>2023-05-02T16:24:16Z</time>
      </trkpt>
      <trkpt lat="46.74711" lon="1.22375">
        <ele>92</ele>
        <time>2023-05-02T16:24:19Z</time>
      </trkpt>
      <trkpt lat="46.74714" lon="1.22379">
        <ele>92</ele>
        <time>2023-05-02T16:24:20Z</time>
      </trkpt>
      <trkpt lat="46.7473" lon="1.22395">
        <ele>92.2</ele>
        <time>2023-05-02T16:24:24Z</time>
      </trkpt>
      <trkpt lat="46.74734" lon="1.22399">
        <ele>92.2</ele>
        <time>2023-05-02T16:24:25Z</time>
      </trkpt>
      <trkpt lat="46.74745" lon="1.22409">
        <ele>92.2</ele>
        <time>2023-05-02T16:24:28Z</time>
      </trkpt>
      <trkpt lat="46.74757" lon="1.22424">
        <ele>92.6</ele>
        <time>2023-05-02T16:24:32Z</time>
      </trkpt>
      <trkpt lat="46.74776" lon="1.22445">
        <ele>93.2</ele>
        <time>2023-05-02T16:24:38Z</time>
      </trkpt>
      <trkpt lat="46.74794" lon="1.22461">
        <ele>93.4</ele>
        <time>2023-05-02T16:24:43Z</time>
      </trkpt>
      <trkpt lat="46.7482" lon="1.22481">
        <ele>93.8</ele>
        <time>2023-05-02T16:24:49Z</time>
      </trkpt>
      <trkpt lat="46.74841" lon="1.22493">
        <ele>94</ele>
        <time>2023-05-02T16:24:54Z</time>
      </trkpt>
      <trkpt lat="46.74863" lon="1.22503">
        <ele>94</ele>
        <time>2023-05-02T16:24:59Z</time>
      </trkpt>
      <trkpt lat="46.74882" lon="1.22513">
        <ele>94.2</ele>
        <time>2023-05-02T16:25:04Z</time>
      </trkpt>
      <trkpt lat="46.74898" lon="1.22524">
        <ele>94.2</ele>
        <time>2023-05-02T16:25:09Z</time>
      </trkpt>
      <trkpt lat="46.74927" lon="1.22543">
        <ele>94.6</ele>
        <time>2023-05-02T16:25:15Z</time>
      </trkpt>
      <trkpt lat="46.74948" lon="1.2256">
        <ele>94.6</ele>
        <time>2023-05-02T16:25:20Z</time>
      </trkpt>
      <trkpt lat="46.74953" lon="1.22563">
        <ele>94.8</ele>
        <time>2023-05-02T16:25:21Z</time>
      </trkpt>
      <trkpt lat="46.74972" lon="1.22578">
        <ele>94.8</ele>
        <time>2023-05-02T16:25:26Z</time>
      </trkpt>
      <trkpt lat="46.74986" lon="1.2259">
        <ele>95</ele>
        <time>2023-05-02T16:25:30Z</time>
      </trkpt>
      <trkpt lat="46.75008" lon="1.22609">
        <ele>95.2</ele>
        <time>2023-05-02T16:25:36Z</time>
      </trkpt>
      <trkpt lat="46.75037" lon="1.22621">
        <ele>95.2</ele>
        <time>2023-05-02T16:25:43Z</time>
      </trkpt>
      <trkpt lat="46.7506" lon="1.22618">
        <ele>95.2</ele>
        <time>2023-05-02T16:25:48Z</time>
      </trkpt>
      <trkpt lat="46.75073" lon="1.22611">
        <ele>95.2</ele>
        <time>2023-05-02T16:25:53Z</time>
      </trkpt>
      <trkpt lat="46.75084" lon="1.22605">
        <ele>94.8</ele>
        <time>2023-05-02T16:25:57Z</time>
      </trkpt>
      <trkpt lat="46.75105" lon="1.22581">
        <ele>94.4</ele>
        <time>2023-05-02T16:26:05Z</time>
      </trkpt>
      <trkpt lat="46.75119" lon="1.2257">
        <ele>94</ele>
        <time>2023-05-02T16:26:10Z</time>
      </trkpt>
      <trkpt lat="46.75129" lon="1.22577">
        <ele>93.6</ele>
        <time>2023-05-02T16:26:15Z</time>
      </trkpt>
      <trkpt lat="46.75137" lon="1.22591">
        <ele>93.4</ele>
        <time>2023-05-02T16:26:20Z</time>
      </trkpt>
      <trkpt lat="46.75138" lon="1.22595">
        <ele>93.4</ele>
        <time>2023-05-02T16:26:21Z</time>
      </trkpt>
      <trkpt lat="46.7515" lon="1.22615">
        <ele>93.4</ele>
        <time>2023-05-02T16:26:26Z</time>
      </trkpt>
      <trkpt lat="46.75169" lon="1.22641">
        <ele>93.2</ele>
        <time>2023-05-02T16:26:32Z</time>
      </trkpt>
      <trkpt lat="46.75188" lon="1.22668">
        <ele>93.2</ele>
        <time>2023-05-02T16:26:38Z</time>
      </trkpt>
      <trkpt lat="46.75211" lon="1.22698">
        <ele>93</ele>
        <time>2023-05-02T16:26:45Z</time>
      </trkpt>
      <trkpt lat="46.75238" lon="1.22734">
        <ele>92.6</ele>
        <time>2023-05-02T16:26:52Z</time>
      </trkpt>
      <trkpt lat="46.75255" lon="1.22759">
        <ele>92.6</ele>
        <time>2023-05-02T16:26:57Z</time>
      </trkpt>
      <trkpt lat="46.75261" lon="1.22767">
        <ele>92.6</ele>
        <time>2023-05-02T16:26:59Z</time>
      </trkpt>
      <trkpt lat="46.75264" lon="1.22772">
        <ele>92.6</ele>
        <time>2023-05-02T16:27:00Z</time>
      </trkpt>
      <trkpt lat="46.75278" lon="1.22793">
        <ele>92.8</ele>
        <time>2023-05-02T16:27:04Z</time>
      </trkpt>
      <trkpt lat="46.75285" lon="1.22804">
        <ele>92.8</ele>
        <time>2023-05-02T16:27:06Z</time>
      </trkpt>
      <trkpt lat="46.75292" lon="1.22816">
        <ele>92.6</ele>
        <time>2023-05-02T16:27:08Z</time>
      </trkpt>
      <trkpt lat="46.75298" lon="1.22829">
        <ele>92.6</ele>
        <time>2023-05-02T16:27:10Z</time>
      </trkpt>
      <trkpt lat="46.75309" lon="1.22854">
        <ele>93</ele>
        <time>2023-05-02T16:27:14Z</time>
      </trkpt>
      <trkpt lat="46.75314" lon="1.22867">
        <ele>92.8</ele>
        <time>2023-05-02T16:27:16Z</time>
      </trkpt>
      <trkpt lat="46.75333" lon="1.22907">
        <ele>93</ele>
        <time>2023-05-02T16:27:22Z</time>
      </trkpt>
      <trkpt lat="46.7535" lon="1.22946">
        <ele>92.8</ele>
        <time>2023-05-02T16:27:28Z</time>
      </trkpt>
      <trkpt lat="46.75366" lon="1.22987">
        <ele>93</ele>
        <time>2023-05-02T16:27:34Z</time>
      </trkpt>
      <trkpt lat="46.75378" lon="1.23016">
        <ele>93</ele>
        <time>2023-05-02T16:27:38Z</time>
      </trkpt>
      <trkpt lat="46.7538" lon="1.23024">
        <ele>93</ele>
        <time>2023-05-02T16:27:39Z</time>
      </trkpt>
      <trkpt lat="46.754" lon="1.23074">
        <ele>92.8</ele>
        <time>2023-05-02T16:27:46Z</time>
      </trkpt>
      <trkpt lat="46.75418" lon="1.23115">
        <ele>92.8</ele>
        <time>2023-05-02T16:27:52Z</time>
      </trkpt>
      <trkpt lat="46.75424" lon="1.23129">
        <ele>92.8</ele>
        <time>2023-05-02T16:27:54Z</time>
      </trkpt>
      <trkpt lat="46.75439" lon="1.23156">
        <ele>92.6</ele>
        <time>2023-05-02T16:27:58Z</time>
      </trkpt>
      <trkpt lat="46.75443" lon="1.23161">
        <ele>92.8</ele>
        <time>2023-05-02T16:27:59Z</time>
      </trkpt>
      <trkpt lat="46.75455" lon="1.23175">
        <ele>92.8</ele>
        <time>2023-05-02T16:28:02Z</time>
      </trkpt>
      <trkpt lat="46.7546" lon="1.23179">
        <ele>92.8</ele>
        <time>2023-05-02T16:28:03Z</time>
      </trkpt>
      <trkpt lat="46.75476" lon="1.23187">
        <ele>92.8</ele>
        <time>2023-05-02T16:28:06Z</time>
      </trkpt>
      <trkpt lat="46.755" lon="1.23194">
        <ele>92.8</ele>
        <time>2023-05-02T16:28:10Z</time>
      </trkpt>
      <trkpt lat="46.75512" lon="1.232">
        <ele>92.8</ele>
        <time>2023-05-02T16:28:12Z</time>
      </trkpt>
      <trkpt lat="46.75524" lon="1.23208">
        <ele>92.8</ele>
        <time>2023-05-02T16:28:14Z</time>
      </trkpt>
      <trkpt lat="46.75539" lon="1.23223">
        <ele>92.6</ele>
        <time>2023-05-02T16:28:17Z</time>
      </trkpt>
      <trkpt lat="46.75564" lon="1.23256">
        <ele>92.6</ele>
        <time>2023-05-02T16:28:23Z</time>
      </trkpt>
      <trkpt lat="46.75571" lon="1.23268">
        <ele>92.4</ele>
        <time>2023-05-02T16:28:25Z</time>
      </trkpt>
      <trkpt lat="46.75587" lon="1.23293">
        <ele>92.4</ele>
        <time>2023-05-02T16:28:29Z</time>
      </trkpt>
      <trkpt lat="46.75606" lon="1.23327">
        <ele>92.4</ele>
        <time>2023-05-02T16:28:35Z</time>
      </trkpt>
      <trkpt lat="46.75626" lon="1.2336">
        <ele>92.4</ele>
        <time>2023-05-02T16:28:41Z</time>
      </trkpt>
      <trkpt lat="46.75648" lon="1.23389">
        <ele>92.4</ele>
        <time>2023-05-02T16:28:47Z</time>
      </trkpt>
      <trkpt lat="46.75667" lon="1.2341">
        <ele>92.6</ele>
        <time>2023-05-02T16:28:52Z</time>
      </trkpt>
      <trkpt lat="46.75679" lon="1.23425">
        <ele>92.8</ele>
        <time>2023-05-02T16:28:55Z</time>
      </trkpt>
      <trkpt lat="46.75691" lon="1.23439">
        <ele>92.8</ele>
        <time>2023-05-02T16:28:58Z</time>
      </trkpt>
      <trkpt lat="46.75705" lon="1.23458">
        <ele>92.8</ele>
        <time>2023-05-02T16:29:02Z</time>
      </trkpt>
      <trkpt lat="46.75715" lon="1.23474">
        <ele>92.8</ele>
        <time>2023-05-02T16:29:05Z</time>
      </trkpt>
      <trkpt lat="46.75721" lon="1.23486">
        <ele>93</ele>
        <time>2023-05-02T16:29:07Z</time>
      </trkpt>
      <trkpt lat="46.75739" lon="1.23531">
        <ele>93.4</ele>
        <time>2023-05-02T16:29:14Z</time>
      </trkpt>
      <trkpt lat="46.75752" lon="1.23561">
        <ele>93.6</ele>
        <time>2023-05-02T16:29:19Z</time>
      </trkpt>
      <trkpt lat="46.75759" lon="1.23571">
        <ele>93.6</ele>
        <time>2023-05-02T16:29:21Z</time>
      </trkpt>
      <trkpt lat="46.7577" lon="1.23585">
        <ele>93.6</ele>
        <time>2023-05-02T16:29:24Z</time>
      </trkpt>
      <trkpt lat="46.75786" lon="1.23607">
        <ele>93.8</ele>
        <time>2023-05-02T16:29:29Z</time>
      </trkpt>
      <trkpt lat="46.75806" lon="1.23624">
        <ele>94</ele>
        <time>2023-05-02T16:29:33Z</time>
      </trkpt>
      <trkpt lat="46.75816" lon="1.23634">
        <ele>94</ele>
        <time>2023-05-02T16:29:35Z</time>
      </trkpt>
      <trkpt lat="46.75825" lon="1.23644">
        <ele>94.2</ele>
        <time>2023-05-02T16:29:37Z</time>
      </trkpt>
      <trkpt lat="46.75834" lon="1.23655">
        <ele>94.4</ele>
        <time>2023-05-02T16:29:39Z</time>
      </trkpt>
      <trkpt lat="46.75838" lon="1.23661">
        <ele>94.4</ele>
        <time>2023-05-02T16:29:40Z</time>
      </trkpt>
      <trkpt lat="46.7585" lon="1.23685">
        <ele>94.4</ele>
        <time>2023-05-02T16:29:44Z</time>
      </trkpt>
      <trkpt lat="46.75853" lon="1.2369">
        <ele>94.4</ele>
        <time>2023-05-02T16:29:45Z</time>
      </trkpt>
      <trkpt lat="46.7586" lon="1.23702">
        <ele>94.6</ele>
        <time>2023-05-02T16:29:47Z</time>
      </trkpt>
      <trkpt lat="46.75869" lon="1.23724">
        <ele>94.6</ele>
        <time>2023-05-02T16:29:51Z</time>
      </trkpt>
      <trkpt lat="46.75877" lon="1.23749">
        <ele>94.8</ele>
        <time>2023-05-02T16:29:55Z</time>
      </trkpt>
      <trkpt lat="46.75881" lon="1.23762">
        <ele>95</ele>
        <time>2023-05-02T16:29:57Z</time>
      </trkpt>
      <trkpt lat="46.75894" lon="1.23797">
        <ele>95.4</ele>
        <time>2023-05-02T16:30:03Z</time>
      </trkpt>
      <trkpt lat="46.75897" lon="1.23803">
        <ele>95.4</ele>
        <time>2023-05-02T16:30:04Z</time>
      </trkpt>
      <trkpt lat="46.75917" lon="1.2385">
        <ele>96</ele>
        <time>2023-05-02T16:30:12Z</time>
      </trkpt>
      <trkpt lat="46.75941" lon="1.239">
        <ele>96.4</ele>
        <time>2023-05-02T16:30:21Z</time>
      </trkpt>
      <trkpt lat="46.7595" lon="1.23916">
        <ele>96.4</ele>
        <time>2023-05-02T16:30:24Z</time>
      </trkpt>
      <trkpt lat="46.75956" lon="1.23927">
        <ele>96.6</ele>
        <time>2023-05-02T16:30:26Z</time>
      </trkpt>
      <trkpt lat="46.75958" lon="1.23932">
        <ele>96.6</ele>
        <time>2023-05-02T16:30:27Z</time>
      </trkpt>
      <trkpt lat="46.75964" lon="1.23942">
        <ele>96.8</ele>
        <time>2023-05-02T16:30:29Z</time>
      </trkpt>
      <trkpt lat="46.75973" lon="1.23958">
        <ele>96.8</ele>
        <time>2023-05-02T16:30:32Z</time>
      </trkpt>
      <trkpt lat="46.75976" lon="1.23964">
        <ele>96.8</ele>
        <time>2023-05-02T16:30:33Z</time>
      </trkpt>
      <trkpt lat="46.75981" lon="1.23975">
        <ele>97</ele>
        <time>2023-05-02T16:30:35Z</time>
      </trkpt>
      <trkpt lat="46.75986" lon="1.23986">
        <ele>97</ele>
        <time>2023-05-02T16:30:37Z</time>
      </trkpt>
      <trkpt lat="46.76003" lon="1.24021">
        <ele>97.4</ele>
        <time>2023-05-02T16:30:44Z</time>
      </trkpt>
      <trkpt lat="46.76003" lon="1.24024">
        <ele>97.6</ele>
        <time>2023-05-02T16:30:45Z</time>
      </trkpt>
      <trkpt lat="46.76" lon="1.2403">
        <ele>97.8</ele>
        <time>2023-05-02T16:30:47Z</time>
      </trkpt>
      <trkpt lat="46.75982" lon="1.24046">
        <ele>98</ele>
        <time>2023-05-02T16:30:53Z</time>
      </trkpt>
      <trkpt lat="46.75962" lon="1.24067">
        <ele>98.2</ele>
        <time>2023-05-02T16:30:59Z</time>
      </trkpt>
      <trkpt lat="46.75936" lon="1.24089">
        <ele>98.2</ele>
        <time>2023-05-02T16:31:05Z</time>
      </trkpt>
      <trkpt lat="46.7591" lon="1.24112">
        <ele>98.4</ele>
        <time>2023-05-02T16:31:11Z</time>
      </trkpt>
      <trkpt lat="46.75887" lon="1.24134">
        <ele>98.4</ele>
        <time>2023-05-02T16:31:17Z</time>
      </trkpt>
      <trkpt lat="46.75863" lon="1.24156">
        <ele>98.4</ele>
        <time>2023-05-02T16:31:23Z</time>
      </trkpt>
      <trkpt lat="46.75833" lon="1.24184">
        <ele>98.4</ele>
        <time>2023-05-02T16:31:29Z</time>
      </trkpt>
      <trkpt lat="46.75793" lon="1.24218">
        <ele>98.2</ele>
        <time>2023-05-02T16:31:36Z</time>
      </trkpt>
      <trkpt lat="46.75756" lon="1.24254">
        <ele>97.8</ele>
        <time>2023-05-02T16:31:43Z</time>
      </trkpt>
      <trkpt lat="46.75741" lon="1.24267">
        <ele>97.8</ele>
        <time>2023-05-02T16:31:46Z</time>
      </trkpt>
      <trkpt lat="46.75731" lon="1.24276">
        <ele>97.8</ele>
        <time>2023-05-02T16:31:48Z</time>
      </trkpt>
      <trkpt lat="46.75699" lon="1.24306">
        <ele>97.4</ele>
        <time>2023-05-02T16:31:55Z</time>
      </trkpt>
      <trkpt lat="46.75696" lon="1.24311">
        <ele>97.4</ele>
        <time>2023-05-02T16:31:56Z</time>
      </trkpt>
      <trkpt lat="46.75698" lon="1.24324">
        <ele>97.4</ele>
        <time>2023-05-02T16:31:58Z</time>
      </trkpt>
      <trkpt lat="46.75702" lon="1.24326">
        <ele>97.4</ele>
        <time>2023-05-02T16:31:59Z</time>
      </trkpt>
      <trkpt lat="46.75711" lon="1.24327">
        <ele>97.2</ele>
        <time>2023-05-02T16:32:01Z</time>
      </trkpt>
      <trkpt lat="46.75725" lon="1.24327">
        <ele>97.2</ele>
        <time>2023-05-02T16:32:04Z</time>
      </trkpt>
      <trkpt lat="46.75739" lon="1.24332">
        <ele>97.2</ele>
        <time>2023-05-02T16:32:07Z</time>
      </trkpt>
      <trkpt lat="46.75765" lon="1.24345">
        <ele>97.4</ele>
        <time>2023-05-02T16:32:13Z</time>
      </trkpt>
      <trkpt lat="46.75792" lon="1.24362">
        <ele>97.2</ele>
        <time>2023-05-02T16:32:19Z</time>
      </trkpt>
      <trkpt lat="46.7582" lon="1.24379">
        <ele>97.4</ele>
        <time>2023-05-02T16:32:25Z</time>
      </trkpt>
      <trkpt lat="46.75833" lon="1.24387">
        <ele>97.4</ele>
        <time>2023-05-02T16:32:28Z</time>
      </trkpt>
      <trkpt lat="46.75839" lon="1.2439">
        <ele>97.4</ele>
        <time>2023-05-02T16:32:29Z</time>
      </trkpt>
      <trkpt lat="46.75876" lon="1.2441">
        <ele>97.6</ele>
        <time>2023-05-02T16:32:36Z</time>
      </trkpt>
      <trkpt lat="46.75903" lon="1.24425">
        <ele>97.6</ele>
        <time>2023-05-02T16:32:41Z</time>
      </trkpt>
      <trkpt lat="46.75908" lon="1.24428">
        <ele>97.6</ele>
        <time>2023-05-02T16:32:42Z</time>
      </trkpt>
      <trkpt lat="46.75938" lon="1.24447">
        <ele>97.8</ele>
        <time>2023-05-02T16:32:48Z</time>
      </trkpt>
      <trkpt lat="46.75976" lon="1.24468">
        <ele>97.8</ele>
        <time>2023-05-02T16:32:54Z</time>
      </trkpt>
      <trkpt lat="46.76006" lon="1.24485">
        <ele>97.8</ele>
        <time>2023-05-02T16:32:59Z</time>
      </trkpt>
      <trkpt lat="46.76041" lon="1.24504">
        <ele>98</ele>
        <time>2023-05-02T16:33:05Z</time>
      </trkpt>
      <trkpt lat="46.76052" lon="1.24511">
        <ele>98</ele>
        <time>2023-05-02T16:33:07Z</time>
      </trkpt>
      <trkpt lat="46.76067" lon="1.2452">
        <ele>97.8</ele>
        <time>2023-05-02T16:33:10Z</time>
      </trkpt>
      <trkpt lat="46.76072" lon="1.24524">
        <ele>97.8</ele>
        <time>2023-05-02T16:33:11Z</time>
      </trkpt>
      <trkpt lat="46.76097" lon="1.24536">
        <ele>98</ele>
        <time>2023-05-02T16:33:15Z</time>
      </trkpt>
      <trkpt lat="46.76137" lon="1.24557">
        <ele>98</ele>
        <time>2023-05-02T16:33:21Z</time>
      </trkpt>
      <trkpt lat="46.76172" lon="1.24577">
        <ele>98</ele>
        <time>2023-05-02T16:33:27Z</time>
      </trkpt>
      <trkpt lat="46.76197" lon="1.24591">
        <ele>98</ele>
        <time>2023-05-02T16:33:31Z</time>
      </trkpt>
      <trkpt lat="46.76214" lon="1.246">
        <ele>98.2</ele>
        <time>2023-05-02T16:33:34Z</time>
      </trkpt>
      <trkpt lat="46.7625" lon="1.2462">
        <ele>98</ele>
        <time>2023-05-02T16:33:40Z</time>
      </trkpt>
      <trkpt lat="46.76284" lon="1.2464">
        <ele>98</ele>
        <time>2023-05-02T16:33:46Z</time>
      </trkpt>
      <trkpt lat="46.76321" lon="1.2466">
        <ele>98.2</ele>
        <time>2023-05-02T16:33:52Z</time>
      </trkpt>
      <trkpt lat="46.76351" lon="1.24677">
        <ele>98</ele>
        <time>2023-05-02T16:33:57Z</time>
      </trkpt>
      <trkpt lat="46.76392" lon="1.247">
        <ele>98</ele>
        <time>2023-05-02T16:34:04Z</time>
      </trkpt>
      <trkpt lat="46.76432" lon="1.24722">
        <ele>98</ele>
        <time>2023-05-02T16:34:11Z</time>
      </trkpt>
      <trkpt lat="46.76482" lon="1.2475">
        <ele>98</ele>
        <time>2023-05-02T16:34:20Z</time>
      </trkpt>
      <trkpt lat="46.76493" lon="1.24757">
        <ele>98</ele>
        <time>2023-05-02T16:34:22Z</time>
      </trkpt>
      <trkpt lat="46.76516" lon="1.2477">
        <ele>98</ele>
        <time>2023-05-02T16:34:26Z</time>
      </trkpt>
      <trkpt lat="46.76556" lon="1.24791">
        <ele>98</ele>
        <time>2023-05-02T16:34:33Z</time>
      </trkpt>
      <trkpt lat="46.76578" lon="1.24803">
        <ele>98.2</ele>
        <time>2023-05-02T16:34:37Z</time>
      </trkpt>
      <trkpt lat="46.76583" lon="1.24807">
        <ele>98.2</ele>
        <time>2023-05-02T16:34:38Z</time>
      </trkpt>
      <trkpt lat="46.76618" lon="1.24826">
        <ele>98.4</ele>
        <time>2023-05-02T16:34:44Z</time>
      </trkpt>
      <trkpt lat="46.76645" lon="1.24842">
        <ele>98.6</ele>
        <time>2023-05-02T16:34:49Z</time>
      </trkpt>
      <trkpt lat="46.76678" lon="1.24861">
        <ele>98.8</ele>
        <time>2023-05-02T16:34:55Z</time>
      </trkpt>
      <trkpt lat="46.76703" lon="1.24875">
        <ele>99</ele>
        <time>2023-05-02T16:35:00Z</time>
      </trkpt>
      <trkpt lat="46.76708" lon="1.24878">
        <ele>99</ele>
        <time>2023-05-02T16:35:01Z</time>
      </trkpt>
      <trkpt lat="46.76734" lon="1.24891">
        <ele>99.2</ele>
        <time>2023-05-02T16:35:06Z</time>
      </trkpt>
      <trkpt lat="46.76755" lon="1.24904">
        <ele>99.4</ele>
        <time>2023-05-02T16:35:11Z</time>
      </trkpt>
      <trkpt lat="46.76764" lon="1.24909">
        <ele>99.6</ele>
        <time>2023-05-02T16:35:13Z</time>
      </trkpt>
      <trkpt lat="46.76783" lon="1.2492">
        <ele>99.8</ele>
        <time>2023-05-02T16:35:17Z</time>
      </trkpt>
      <trkpt lat="46.76828" lon="1.24946">
        <ele>100</ele>
        <time>2023-05-02T16:35:26Z</time>
      </trkpt>
      <trkpt lat="46.76868" lon="1.24967">
        <ele>100.4</ele>
        <time>2023-05-02T16:35:34Z</time>
      </trkpt>
      <trkpt lat="46.76907" lon="1.2499">
        <ele>100.8</ele>
        <time>2023-05-02T16:35:42Z</time>
      </trkpt>
      <trkpt lat="46.76911" lon="1.24992">
        <ele>100.8</ele>
        <time>2023-05-02T16:35:43Z</time>
      </trkpt>
      <trkpt lat="46.76934" lon="1.25007">
        <ele>101</ele>
        <time>2023-05-02T16:35:48Z</time>
      </trkpt>
      <trkpt lat="46.76958" lon="1.25019">
        <ele>101.2</ele>
        <time>2023-05-02T16:35:53Z</time>
      </trkpt>
      <trkpt lat="46.76974" lon="1.25029">
        <ele>101.4</ele>
        <time>2023-05-02T16:35:57Z</time>
      </trkpt>
      <trkpt lat="46.76976" lon="1.25033">
        <ele>101.4</ele>
        <time>2023-05-02T16:35:58Z</time>
      </trkpt>
      <trkpt lat="46.76976" lon="1.25053">
        <ele>101.4</ele>
        <time>2023-05-02T16:36:02Z</time>
      </trkpt>
      <trkpt lat="46.76973" lon="1.25076">
        <ele>101.4</ele>
        <time>2023-05-02T16:36:06Z</time>
      </trkpt>
      <trkpt lat="46.76971" lon="1.25098">
        <ele>101.6</ele>
        <time>2023-05-02T16:36:09Z</time>
      </trkpt>
      <trkpt lat="46.76969" lon="1.25113">
        <ele>101.6</ele>
        <time>2023-05-02T16:36:11Z</time>
      </trkpt>
      <trkpt lat="46.76962" lon="1.25154">
        <ele>101.6</ele>
        <time>2023-05-02T16:36:17Z</time>
      </trkpt>
      <trkpt lat="46.76961" lon="1.25161">
        <ele>101.6</ele>
        <time>2023-05-02T16:36:18Z</time>
      </trkpt>
      <trkpt lat="46.76961" lon="1.25168">
        <ele>101.6</ele>
        <time>2023-05-02T16:36:19Z</time>
      </trkpt>
      <trkpt lat="46.76958" lon="1.25193">
        <ele>101.8</ele>
        <time>2023-05-02T16:36:23Z</time>
      </trkpt>
      <trkpt lat="46.76957" lon="1.25214">
        <ele>101.8</ele>
        <time>2023-05-02T16:36:26Z</time>
      </trkpt>
      <trkpt lat="46.76956" lon="1.25228">
        <ele>101.8</ele>
        <time>2023-05-02T16:36:28Z</time>
      </trkpt>
      <trkpt lat="46.76955" lon="1.25241">
        <ele>101.8</ele>
        <time>2023-05-02T16:36:30Z</time>
      </trkpt>
      <trkpt lat="46.76956" lon="1.25261">
        <ele>101.8</ele>
        <time>2023-05-02T16:36:33Z</time>
      </trkpt>
      <trkpt lat="46.76965" lon="1.25304">
        <ele>102</ele>
        <time>2023-05-02T16:36:39Z</time>
      </trkpt>
      <trkpt lat="46.76966" lon="1.25312">
        <ele>102</ele>
        <time>2023-05-02T16:36:40Z</time>
      </trkpt>
      <trkpt lat="46.76971" lon="1.25335">
        <ele>102</ele>
        <time>2023-05-02T16:36:43Z</time>
      </trkpt>
      <trkpt lat="46.76973" lon="1.25342">
        <ele>102</ele>
        <time>2023-05-02T16:36:44Z</time>
      </trkpt>
      <trkpt lat="46.76976" lon="1.25356">
        <ele>102.2</ele>
        <time>2023-05-02T16:36:46Z</time>
      </trkpt>
      <trkpt lat="46.76979" lon="1.2537">
        <ele>102.2</ele>
        <time>2023-05-02T16:36:48Z</time>
      </trkpt>
      <trkpt lat="46.76988" lon="1.25412">
        <ele>102.4</ele>
        <time>2023-05-02T16:36:54Z</time>
      </trkpt>
      <trkpt lat="46.76992" lon="1.25427">
        <ele>102.4</ele>
        <time>2023-05-02T16:36:56Z</time>
      </trkpt>
      <trkpt lat="46.76997" lon="1.25449">
        <ele>102.6</ele>
        <time>2023-05-02T16:36:59Z</time>
      </trkpt>
      <trkpt lat="46.77005" lon="1.25496">
        <ele>102.6</ele>
        <time>2023-05-02T16:37:05Z</time>
      </trkpt>
      <trkpt lat="46.77006" lon="1.25504">
        <ele>102.6</ele>
        <time>2023-05-02T16:37:06Z</time>
      </trkpt>
      <trkpt lat="46.77012" lon="1.25545">
        <ele>102.8</ele>
        <time>2023-05-02T16:37:11Z</time>
      </trkpt>
      <trkpt lat="46.77012" lon="1.25554">
        <ele>102.8</ele>
        <time>2023-05-02T16:37:12Z</time>
      </trkpt>
      <trkpt lat="46.77011" lon="1.25578">
        <ele>102.8</ele>
        <time>2023-05-02T16:37:15Z</time>
      </trkpt>
      <trkpt lat="46.77011" lon="1.25586">
        <ele>102.8</ele>
        <time>2023-05-02T16:37:16Z</time>
      </trkpt>
      <trkpt lat="46.77009" lon="1.25601">
        <ele>102.8</ele>
        <time>2023-05-02T16:37:18Z</time>
      </trkpt>
      <trkpt lat="46.77005" lon="1.25615">
        <ele>103</ele>
        <time>2023-05-02T16:37:20Z</time>
      </trkpt>
      <trkpt lat="46.76994" lon="1.2565">
        <ele>103</ele>
        <time>2023-05-02T16:37:26Z</time>
      </trkpt>
      <trkpt lat="46.76995" lon="1.25663">
        <ele>103</ele>
        <time>2023-05-02T16:37:28Z</time>
      </trkpt>
      <trkpt lat="46.76996" lon="1.25669">
        <ele>102.8</ele>
        <time>2023-05-02T16:37:29Z</time>
      </trkpt>
      <trkpt lat="46.77009" lon="1.25693">
        <ele>103</ele>
        <time>2023-05-02T16:37:34Z</time>
      </trkpt>
      <trkpt lat="46.77016" lon="1.25711">
        <ele>103</ele>
        <time>2023-05-02T16:37:37Z</time>
      </trkpt>
      <trkpt lat="46.77017" lon="1.25724">
        <ele>103</ele>
        <time>2023-05-02T16:37:39Z</time>
      </trkpt>
      <trkpt lat="46.77016" lon="1.25746">
        <ele>103</ele>
        <time>2023-05-02T16:37:43Z</time>
      </trkpt>
      <trkpt lat="46.77012" lon="1.25782">
        <ele>103</ele>
        <time>2023-05-02T16:37:49Z</time>
      </trkpt>
      <trkpt lat="46.7701" lon="1.25802">
        <ele>102.8</ele>
        <time>2023-05-02T16:37:52Z</time>
      </trkpt>
      <trkpt lat="46.77004" lon="1.2583">
        <ele>102.8</ele>
        <time>2023-05-02T16:37:56Z</time>
      </trkpt>
      <trkpt lat="46.76996" lon="1.25862">
        <ele>102.8</ele>
        <time>2023-05-02T16:38:01Z</time>
      </trkpt>
      <trkpt lat="46.76994" lon="1.25868">
        <ele>102.8</ele>
        <time>2023-05-02T16:38:02Z</time>
      </trkpt>
      <trkpt lat="46.76988" lon="1.25888">
        <ele>102.8</ele>
        <time>2023-05-02T16:38:05Z</time>
      </trkpt>
      <trkpt lat="46.76983" lon="1.25901">
        <ele>102.8</ele>
        <time>2023-05-02T16:38:07Z</time>
      </trkpt>
      <trkpt lat="46.76972" lon="1.25929">
        <ele>102.6</ele>
        <time>2023-05-02T16:38:12Z</time>
      </trkpt>
      <trkpt lat="46.76965" lon="1.25959">
        <ele>102.4</ele>
        <time>2023-05-02T16:38:17Z</time>
      </trkpt>
      <trkpt lat="46.76962" lon="1.25984">
        <ele>102</ele>
        <time>2023-05-02T16:38:22Z</time>
      </trkpt>
      <trkpt lat="46.76958" lon="1.26013">
        <ele>101.6</ele>
        <time>2023-05-02T16:38:27Z</time>
      </trkpt>
      <trkpt lat="46.76955" lon="1.26032">
        <ele>101.2</ele>
        <time>2023-05-02T16:38:30Z</time>
      </trkpt>
      <trkpt lat="46.76952" lon="1.26045">
        <ele>101</ele>
        <time>2023-05-02T16:38:32Z</time>
      </trkpt>
      <trkpt lat="46.76945" lon="1.26077">
        <ele>100.8</ele>
        <time>2023-05-02T16:38:37Z</time>
      </trkpt>
      <trkpt lat="46.76941" lon="1.26098">
        <ele>100.6</ele>
        <time>2023-05-02T16:38:41Z</time>
      </trkpt>
      <trkpt lat="46.76937" lon="1.26126">
        <ele>100</ele>
        <time>2023-05-02T16:38:46Z</time>
      </trkpt>
      <trkpt lat="46.76935" lon="1.26153">
        <ele>99.2</ele>
        <time>2023-05-02T16:38:51Z</time>
      </trkpt>
      <trkpt lat="46.76933" lon="1.26184">
        <ele>98.8</ele>
        <time>2023-05-02T16:38:56Z</time>
      </trkpt>
      <trkpt lat="46.76932" lon="1.26215">
        <ele>98</ele>
        <time>2023-05-02T16:39:01Z</time>
      </trkpt>
      <trkpt lat="46.76931" lon="1.26222">
        <ele>98</ele>
        <time>2023-05-02T16:39:02Z</time>
      </trkpt>
      <trkpt lat="46.7693" lon="1.26248">
        <ele>97.8</ele>
        <time>2023-05-02T16:39:06Z</time>
      </trkpt>
      <trkpt lat="46.76929" lon="1.26254">
        <ele>97.8</ele>
        <time>2023-05-02T16:39:07Z</time>
      </trkpt>
      <trkpt lat="46.76926" lon="1.26273">
        <ele>98</ele>
        <time>2023-05-02T16:39:10Z</time>
      </trkpt>
      <trkpt lat="46.76922" lon="1.2631">
        <ele>98.6</ele>
        <time>2023-05-02T16:39:16Z</time>
      </trkpt>
      <trkpt lat="46.76919" lon="1.26323">
        <ele>99</ele>
        <time>2023-05-02T16:39:18Z</time>
      </trkpt>
      <trkpt lat="46.76919" lon="1.26335">
        <ele>99.4</ele>
        <time>2023-05-02T16:39:20Z</time>
      </trkpt>
      <trkpt lat="46.76919" lon="1.2636">
        <ele>99.6</ele>
        <time>2023-05-02T16:39:24Z</time>
      </trkpt>
      <trkpt lat="46.76918" lon="1.26381">
        <ele>99.6</ele>
        <time>2023-05-02T16:39:28Z</time>
      </trkpt>
      <trkpt lat="46.76921" lon="1.26417">
        <ele>99.4</ele>
        <time>2023-05-02T16:39:34Z</time>
      </trkpt>
      <trkpt lat="46.76922" lon="1.2643">
        <ele>99.6</ele>
        <time>2023-05-02T16:39:36Z</time>
      </trkpt>
      <trkpt lat="46.76924" lon="1.26444">
        <ele>99.6</ele>
        <time>2023-05-02T16:39:38Z</time>
      </trkpt>
      <trkpt lat="46.76924" lon="1.26451">
        <ele>99.8</ele>
        <time>2023-05-02T16:39:39Z</time>
      </trkpt>
      <trkpt lat="46.76926" lon="1.26476">
        <ele>100.2</ele>
        <time>2023-05-02T16:39:43Z</time>
      </trkpt>
      <trkpt lat="46.7693" lon="1.26488">
        <ele>100</ele>
        <time>2023-05-02T16:39:45Z</time>
      </trkpt>
      <trkpt lat="46.76934" lon="1.265">
        <ele>100.4</ele>
        <time>2023-05-02T16:39:47Z</time>
      </trkpt>
      <trkpt lat="46.76944" lon="1.2653">
        <ele>100.2</ele>
        <time>2023-05-02T16:39:52Z</time>
      </trkpt>
      <trkpt lat="46.76956" lon="1.26566">
        <ele>100.6</ele>
        <time>2023-05-02T16:39:59Z</time>
      </trkpt>
      <trkpt lat="46.76964" lon="1.26582">
        <ele>100.8</ele>
        <time>2023-05-02T16:40:04Z</time>
      </trkpt>
      <trkpt lat="46.76965" lon="1.26589">
        <ele>101</ele>
        <time>2023-05-02T16:40:08Z</time>
      </trkpt>
    </trkseg>
  </trk>
</gpx>